<?xml version="1.0" encoding="UTF-8" standalone="no" ?>
<gpx xmlns="http://www.topografix.com/GPX/1/1" xmlns:xsi="http://www.w3.org/2001/XMLSchema-instance" xsi:schemaLocation="http://www.topografix.com/GPX/1/1 http://www.topografix.com/GPX/1/1/gpx.xsd" version="1.1" creator="VisuGPX - https://www.visugpx.com">
  <metadata>
    <name>JUSSY - Randonnée Age d'Or 03-04-2022</name>
  </metadata>
  <trk>
    <name><![CDATA[JUSSY - Randonnée Age d'Or 03-04-2022_1]]></name>
    <trkseg>
      <trkpt lat="47.72823" lon="3.59165">
        <ele>152.9</ele>
        <time>2022-04-03T12:30:13Z</time>
      </trkpt>
      <trkpt lat="47.72824" lon="3.59168">
        <ele>152.8</ele>
        <time>2022-04-03T12:30:14Z</time>
      </trkpt>
      <trkpt lat="47.72824" lon="3.59169">
        <ele>152.7</ele>
        <time>2022-04-03T12:30:15Z</time>
      </trkpt>
      <trkpt lat="47.72825" lon="3.5917">
        <ele>152.6</ele>
        <time>2022-04-03T12:30:16Z</time>
      </trkpt>
      <trkpt lat="47.72825" lon="3.59173">
        <ele>152.5</ele>
        <time>2022-04-03T12:30:18Z</time>
      </trkpt>
      <trkpt lat="47.72826" lon="3.59175">
        <ele>152.4</ele>
        <time>2022-04-03T12:30:19Z</time>
      </trkpt>
      <trkpt lat="47.72826" lon="3.59176">
        <ele>152.3</ele>
        <time>2022-04-03T12:30:20Z</time>
      </trkpt>
      <trkpt lat="47.72826" lon="3.59178">
        <ele>152.2</ele>
        <time>2022-04-03T12:30:21Z</time>
      </trkpt>
      <trkpt lat="47.72826" lon="3.5918">
        <ele>152.1</ele>
        <time>2022-04-03T12:30:22Z</time>
      </trkpt>
      <trkpt lat="47.72826" lon="3.59182">
        <ele>152</ele>
        <time>2022-04-03T12:30:23Z</time>
      </trkpt>
      <trkpt lat="47.72826" lon="3.59184">
        <ele>152</ele>
        <time>2022-04-03T12:30:25Z</time>
      </trkpt>
      <trkpt lat="47.72826" lon="3.59186">
        <ele>151.9</ele>
        <time>2022-04-03T12:30:26Z</time>
      </trkpt>
      <trkpt lat="47.72825" lon="3.59188">
        <ele>151.9</ele>
        <time>2022-04-03T12:30:27Z</time>
      </trkpt>
      <trkpt lat="47.72825" lon="3.5919">
        <ele>151.8</ele>
        <time>2022-04-03T12:30:28Z</time>
      </trkpt>
      <trkpt lat="47.72824" lon="3.59192">
        <ele>151.7</ele>
        <time>2022-04-03T12:30:29Z</time>
      </trkpt>
      <trkpt lat="47.72823" lon="3.59194">
        <ele>151.7</ele>
        <time>2022-04-03T12:30:30Z</time>
      </trkpt>
      <trkpt lat="47.72822" lon="3.59195">
        <ele>151.6</ele>
        <time>2022-04-03T12:30:31Z</time>
      </trkpt>
      <trkpt lat="47.72822" lon="3.59196">
        <ele>151.6</ele>
        <time>2022-04-03T12:30:32Z</time>
      </trkpt>
      <trkpt lat="47.72821" lon="3.59198">
        <ele>151.6</ele>
        <time>2022-04-03T12:30:33Z</time>
      </trkpt>
      <trkpt lat="47.7282" lon="3.59199">
        <ele>151.5</ele>
        <time>2022-04-03T12:30:34Z</time>
      </trkpt>
      <trkpt lat="47.72818" lon="3.592">
        <ele>151.5</ele>
        <time>2022-04-03T12:30:36Z</time>
      </trkpt>
      <trkpt lat="47.72817" lon="3.59202">
        <ele>151.4</ele>
        <time>2022-04-03T12:30:37Z</time>
      </trkpt>
      <trkpt lat="47.72816" lon="3.59203">
        <ele>151.4</ele>
        <time>2022-04-03T12:30:38Z</time>
      </trkpt>
      <trkpt lat="47.72815" lon="3.59204">
        <ele>151.3</ele>
        <time>2022-04-03T12:30:39Z</time>
      </trkpt>
      <trkpt lat="47.72814" lon="3.59205">
        <ele>151.3</ele>
        <time>2022-04-03T12:30:40Z</time>
      </trkpt>
      <trkpt lat="47.72812" lon="3.59206">
        <ele>151.2</ele>
        <time>2022-04-03T12:30:41Z</time>
      </trkpt>
      <trkpt lat="47.72811" lon="3.59207">
        <ele>151.2</ele>
        <time>2022-04-03T12:30:42Z</time>
      </trkpt>
      <trkpt lat="47.7281" lon="3.59208">
        <ele>151.2</ele>
        <time>2022-04-03T12:30:44Z</time>
      </trkpt>
      <trkpt lat="47.72809" lon="3.59209">
        <ele>151.1</ele>
        <time>2022-04-03T12:30:45Z</time>
      </trkpt>
      <trkpt lat="47.72808" lon="3.59209">
        <ele>151.1</ele>
        <time>2022-04-03T12:30:46Z</time>
      </trkpt>
      <trkpt lat="47.72806" lon="3.59211">
        <ele>151.1</ele>
        <time>2022-04-03T12:30:47Z</time>
      </trkpt>
      <trkpt lat="47.72805" lon="3.59211">
        <ele>151</ele>
        <time>2022-04-03T12:30:48Z</time>
      </trkpt>
      <trkpt lat="47.72804" lon="3.59212">
        <ele>151</ele>
        <time>2022-04-03T12:30:50Z</time>
      </trkpt>
      <trkpt lat="47.72803" lon="3.59213">
        <ele>151</ele>
        <time>2022-04-03T12:30:51Z</time>
      </trkpt>
      <trkpt lat="47.72802" lon="3.59214">
        <ele>150.9</ele>
        <time>2022-04-03T12:30:52Z</time>
      </trkpt>
      <trkpt lat="47.728" lon="3.59216">
        <ele>150.9</ele>
        <time>2022-04-03T12:30:53Z</time>
      </trkpt>
      <trkpt lat="47.72799" lon="3.59217">
        <ele>150.9</ele>
        <time>2022-04-03T12:30:54Z</time>
      </trkpt>
      <trkpt lat="47.72798" lon="3.59218">
        <ele>150.8</ele>
        <time>2022-04-03T12:30:55Z</time>
      </trkpt>
      <trkpt lat="47.72796" lon="3.59219">
        <ele>150.8</ele>
        <time>2022-04-03T12:30:56Z</time>
      </trkpt>
      <trkpt lat="47.72795" lon="3.5922">
        <ele>150.7</ele>
        <time>2022-04-03T12:30:58Z</time>
      </trkpt>
      <trkpt lat="47.72794" lon="3.5922">
        <ele>150.7</ele>
        <time>2022-04-03T12:30:59Z</time>
      </trkpt>
      <trkpt lat="47.72793" lon="3.59221">
        <ele>150.7</ele>
        <time>2022-04-03T12:31:00Z</time>
      </trkpt>
      <trkpt lat="47.72792" lon="3.59222">
        <ele>150.6</ele>
        <time>2022-04-03T12:31:01Z</time>
      </trkpt>
      <trkpt lat="47.7279" lon="3.59223">
        <ele>150.5</ele>
        <time>2022-04-03T12:31:03Z</time>
      </trkpt>
      <trkpt lat="47.72788" lon="3.59224">
        <ele>150.5</ele>
        <time>2022-04-03T12:31:04Z</time>
      </trkpt>
      <trkpt lat="47.72787" lon="3.59225">
        <ele>150.4</ele>
        <time>2022-04-03T12:31:05Z</time>
      </trkpt>
      <trkpt lat="47.72786" lon="3.59227">
        <ele>150.3</ele>
        <time>2022-04-03T12:31:06Z</time>
      </trkpt>
      <trkpt lat="47.72784" lon="3.59228">
        <ele>150.3</ele>
        <time>2022-04-03T12:31:07Z</time>
      </trkpt>
      <trkpt lat="47.72782" lon="3.5923">
        <ele>150.1</ele>
        <time>2022-04-03T12:31:08Z</time>
      </trkpt>
      <trkpt lat="47.72782" lon="3.59231">
        <ele>150.1</ele>
        <time>2022-04-03T12:31:09Z</time>
      </trkpt>
      <trkpt lat="47.72781" lon="3.59231">
        <ele>150</ele>
        <time>2022-04-03T12:31:10Z</time>
      </trkpt>
      <trkpt lat="47.7278" lon="3.59232">
        <ele>150</ele>
        <time>2022-04-03T12:31:11Z</time>
      </trkpt>
      <trkpt lat="47.72779" lon="3.59234">
        <ele>149.9</ele>
        <time>2022-04-03T12:31:12Z</time>
      </trkpt>
      <trkpt lat="47.72777" lon="3.59235">
        <ele>149.8</ele>
        <time>2022-04-03T12:31:13Z</time>
      </trkpt>
      <trkpt lat="47.72777" lon="3.59236">
        <ele>149.7</ele>
        <time>2022-04-03T12:31:14Z</time>
      </trkpt>
      <trkpt lat="47.72776" lon="3.59238">
        <ele>149.6</ele>
        <time>2022-04-03T12:31:15Z</time>
      </trkpt>
      <trkpt lat="47.72775" lon="3.59239">
        <ele>149.6</ele>
        <time>2022-04-03T12:31:16Z</time>
      </trkpt>
      <trkpt lat="47.72775" lon="3.59242">
        <ele>149.4</ele>
        <time>2022-04-03T12:31:18Z</time>
      </trkpt>
      <trkpt lat="47.72775" lon="3.59244">
        <ele>149.3</ele>
        <time>2022-04-03T12:31:19Z</time>
      </trkpt>
      <trkpt lat="47.72775" lon="3.59246">
        <ele>149.2</ele>
        <time>2022-04-03T12:31:20Z</time>
      </trkpt>
      <trkpt lat="47.72775" lon="3.59248">
        <ele>149.1</ele>
        <time>2022-04-03T12:31:21Z</time>
      </trkpt>
      <trkpt lat="47.72774" lon="3.5925">
        <ele>149</ele>
        <time>2022-04-03T12:31:22Z</time>
      </trkpt>
      <trkpt lat="47.72773" lon="3.59253">
        <ele>148.9</ele>
        <time>2022-04-03T12:31:23Z</time>
      </trkpt>
      <trkpt lat="47.72773" lon="3.59255">
        <ele>148.8</ele>
        <time>2022-04-03T12:31:24Z</time>
      </trkpt>
      <trkpt lat="47.72773" lon="3.59256">
        <ele>148.8</ele>
        <time>2022-04-03T12:31:25Z</time>
      </trkpt>
      <trkpt lat="47.72772" lon="3.5926">
        <ele>148.6</ele>
        <time>2022-04-03T12:31:26Z</time>
      </trkpt>
      <trkpt lat="47.72772" lon="3.59261">
        <ele>148.5</ele>
        <time>2022-04-03T12:31:28Z</time>
      </trkpt>
      <trkpt lat="47.72772" lon="3.59263">
        <ele>148.4</ele>
        <time>2022-04-03T12:31:29Z</time>
      </trkpt>
      <trkpt lat="47.72771" lon="3.59265">
        <ele>148.3</ele>
        <time>2022-04-03T12:31:30Z</time>
      </trkpt>
      <trkpt lat="47.72771" lon="3.59268">
        <ele>148.2</ele>
        <time>2022-04-03T12:31:31Z</time>
      </trkpt>
      <trkpt lat="47.72771" lon="3.59269">
        <ele>148.1</ele>
        <time>2022-04-03T12:31:32Z</time>
      </trkpt>
      <trkpt lat="47.72772" lon="3.59271">
        <ele>148.1</ele>
        <time>2022-04-03T12:31:33Z</time>
      </trkpt>
      <trkpt lat="47.72772" lon="3.59272">
        <ele>148</ele>
        <time>2022-04-03T12:31:34Z</time>
      </trkpt>
      <trkpt lat="47.72773" lon="3.59274">
        <ele>147.9</ele>
        <time>2022-04-03T12:31:35Z</time>
      </trkpt>
      <trkpt lat="47.72774" lon="3.59278">
        <ele>147.7</ele>
        <time>2022-04-03T12:31:37Z</time>
      </trkpt>
      <trkpt lat="47.72775" lon="3.59279">
        <ele>147.7</ele>
        <time>2022-04-03T12:31:38Z</time>
      </trkpt>
      <trkpt lat="47.72776" lon="3.59282">
        <ele>147.6</ele>
        <time>2022-04-03T12:31:39Z</time>
      </trkpt>
      <trkpt lat="47.72777" lon="3.59283">
        <ele>147.5</ele>
        <time>2022-04-03T12:31:40Z</time>
      </trkpt>
      <trkpt lat="47.72777" lon="3.59284">
        <ele>147.5</ele>
        <time>2022-04-03T12:31:41Z</time>
      </trkpt>
      <trkpt lat="47.72778" lon="3.59286">
        <ele>147.4</ele>
        <time>2022-04-03T12:31:43Z</time>
      </trkpt>
      <trkpt lat="47.72778" lon="3.59288">
        <ele>147.3</ele>
        <time>2022-04-03T12:31:44Z</time>
      </trkpt>
      <trkpt lat="47.72779" lon="3.5929">
        <ele>147.3</ele>
        <time>2022-04-03T12:31:45Z</time>
      </trkpt>
      <trkpt lat="47.7278" lon="3.59291">
        <ele>147.2</ele>
        <time>2022-04-03T12:31:46Z</time>
      </trkpt>
      <trkpt lat="47.7278" lon="3.59293">
        <ele>147.1</ele>
        <time>2022-04-03T12:31:47Z</time>
      </trkpt>
      <trkpt lat="47.72782" lon="3.59295">
        <ele>147</ele>
        <time>2022-04-03T12:31:48Z</time>
      </trkpt>
      <trkpt lat="47.72782" lon="3.59296">
        <ele>147</ele>
        <time>2022-04-03T12:31:50Z</time>
      </trkpt>
      <trkpt lat="47.72783" lon="3.59297">
        <ele>146.9</ele>
        <time>2022-04-03T12:31:51Z</time>
      </trkpt>
      <trkpt lat="47.72783" lon="3.59299">
        <ele>146.9</ele>
        <time>2022-04-03T12:31:52Z</time>
      </trkpt>
      <trkpt lat="47.72784" lon="3.59301">
        <ele>146.8</ele>
        <time>2022-04-03T12:31:53Z</time>
      </trkpt>
      <trkpt lat="47.72784" lon="3.59302">
        <ele>146.7</ele>
        <time>2022-04-03T12:31:54Z</time>
      </trkpt>
      <trkpt lat="47.72785" lon="3.59304">
        <ele>146.6</ele>
        <time>2022-04-03T12:31:55Z</time>
      </trkpt>
      <trkpt lat="47.72785" lon="3.59306">
        <ele>146.5</ele>
        <time>2022-04-03T12:31:56Z</time>
      </trkpt>
      <trkpt lat="47.72785" lon="3.59308">
        <ele>146.4</ele>
        <time>2022-04-03T12:31:57Z</time>
      </trkpt>
      <trkpt lat="47.72785" lon="3.5931">
        <ele>146.3</ele>
        <time>2022-04-03T12:31:58Z</time>
      </trkpt>
      <trkpt lat="47.72785" lon="3.59312">
        <ele>146.2</ele>
        <time>2022-04-03T12:31:59Z</time>
      </trkpt>
      <trkpt lat="47.72786" lon="3.59314">
        <ele>146.1</ele>
        <time>2022-04-03T12:32:00Z</time>
      </trkpt>
      <trkpt lat="47.72786" lon="3.59317">
        <ele>146</ele>
        <time>2022-04-03T12:32:01Z</time>
      </trkpt>
      <trkpt lat="47.72787" lon="3.59319">
        <ele>145.9</ele>
        <time>2022-04-03T12:32:02Z</time>
      </trkpt>
      <trkpt lat="47.72787" lon="3.59321">
        <ele>145.8</ele>
        <time>2022-04-03T12:32:03Z</time>
      </trkpt>
      <trkpt lat="47.72787" lon="3.59323">
        <ele>145.7</ele>
        <time>2022-04-03T12:32:04Z</time>
      </trkpt>
      <trkpt lat="47.72787" lon="3.59326">
        <ele>145.5</ele>
        <time>2022-04-03T12:32:05Z</time>
      </trkpt>
      <trkpt lat="47.72788" lon="3.59328">
        <ele>145.4</ele>
        <time>2022-04-03T12:32:06Z</time>
      </trkpt>
      <trkpt lat="47.72788" lon="3.5933">
        <ele>145.3</ele>
        <time>2022-04-03T12:32:07Z</time>
      </trkpt>
      <trkpt lat="47.72788" lon="3.59332">
        <ele>145.2</ele>
        <time>2022-04-03T12:32:09Z</time>
      </trkpt>
      <trkpt lat="47.72788" lon="3.59335">
        <ele>145.1</ele>
        <time>2022-04-03T12:32:10Z</time>
      </trkpt>
      <trkpt lat="47.72789" lon="3.59337">
        <ele>145</ele>
        <time>2022-04-03T12:32:11Z</time>
      </trkpt>
      <trkpt lat="47.72789" lon="3.59339">
        <ele>144.8</ele>
        <time>2022-04-03T12:32:12Z</time>
      </trkpt>
      <trkpt lat="47.72789" lon="3.59341">
        <ele>144.7</ele>
        <time>2022-04-03T12:32:13Z</time>
      </trkpt>
      <trkpt lat="47.7279" lon="3.59344">
        <ele>144.6</ele>
        <time>2022-04-03T12:32:14Z</time>
      </trkpt>
      <trkpt lat="47.7279" lon="3.59346">
        <ele>144.5</ele>
        <time>2022-04-03T12:32:15Z</time>
      </trkpt>
      <trkpt lat="47.72791" lon="3.59347">
        <ele>144.4</ele>
        <time>2022-04-03T12:32:16Z</time>
      </trkpt>
      <trkpt lat="47.72791" lon="3.59349">
        <ele>144.3</ele>
        <time>2022-04-03T12:32:17Z</time>
      </trkpt>
      <trkpt lat="47.72792" lon="3.59352">
        <ele>144.1</ele>
        <time>2022-04-03T12:32:18Z</time>
      </trkpt>
      <trkpt lat="47.72793" lon="3.59354">
        <ele>144</ele>
        <time>2022-04-03T12:32:19Z</time>
      </trkpt>
      <trkpt lat="47.72793" lon="3.59355">
        <ele>143.9</ele>
        <time>2022-04-03T12:32:20Z</time>
      </trkpt>
      <trkpt lat="47.72794" lon="3.59357">
        <ele>143.8</ele>
        <time>2022-04-03T12:32:21Z</time>
      </trkpt>
      <trkpt lat="47.72795" lon="3.5936">
        <ele>143.6</ele>
        <time>2022-04-03T12:32:23Z</time>
      </trkpt>
      <trkpt lat="47.72795" lon="3.59362">
        <ele>143.5</ele>
        <time>2022-04-03T12:32:24Z</time>
      </trkpt>
      <trkpt lat="47.72795" lon="3.59364">
        <ele>143.3</ele>
        <time>2022-04-03T12:32:25Z</time>
      </trkpt>
      <trkpt lat="47.72796" lon="3.59366">
        <ele>143.2</ele>
        <time>2022-04-03T12:32:26Z</time>
      </trkpt>
      <trkpt lat="47.72796" lon="3.59368">
        <ele>143.1</ele>
        <time>2022-04-03T12:32:27Z</time>
      </trkpt>
      <trkpt lat="47.72796" lon="3.5937">
        <ele>142.9</ele>
        <time>2022-04-03T12:32:28Z</time>
      </trkpt>
      <trkpt lat="47.72797" lon="3.59373">
        <ele>142.8</ele>
        <time>2022-04-03T12:32:30Z</time>
      </trkpt>
      <trkpt lat="47.72797" lon="3.59375">
        <ele>142.6</ele>
        <time>2022-04-03T12:32:31Z</time>
      </trkpt>
      <trkpt lat="47.72798" lon="3.59377">
        <ele>142.5</ele>
        <time>2022-04-03T12:32:32Z</time>
      </trkpt>
      <trkpt lat="47.72798" lon="3.5938">
        <ele>142.3</ele>
        <time>2022-04-03T12:32:33Z</time>
      </trkpt>
      <trkpt lat="47.72798" lon="3.59382">
        <ele>142.2</ele>
        <time>2022-04-03T12:32:34Z</time>
      </trkpt>
      <trkpt lat="47.72798" lon="3.59384">
        <ele>142</ele>
        <time>2022-04-03T12:32:35Z</time>
      </trkpt>
      <trkpt lat="47.72799" lon="3.59386">
        <ele>141.9</ele>
        <time>2022-04-03T12:32:36Z</time>
      </trkpt>
      <trkpt lat="47.72799" lon="3.59389">
        <ele>141.7</ele>
        <time>2022-04-03T12:32:37Z</time>
      </trkpt>
      <trkpt lat="47.72799" lon="3.59391">
        <ele>141.6</ele>
        <time>2022-04-03T12:32:38Z</time>
      </trkpt>
      <trkpt lat="47.72799" lon="3.59393">
        <ele>141.5</ele>
        <time>2022-04-03T12:32:39Z</time>
      </trkpt>
      <trkpt lat="47.72798" lon="3.59395">
        <ele>141.4</ele>
        <time>2022-04-03T12:32:40Z</time>
      </trkpt>
      <trkpt lat="47.72797" lon="3.59397">
        <ele>141.3</ele>
        <time>2022-04-03T12:32:41Z</time>
      </trkpt>
      <trkpt lat="47.72797" lon="3.59399">
        <ele>141.2</ele>
        <time>2022-04-03T12:32:42Z</time>
      </trkpt>
      <trkpt lat="47.72796" lon="3.59401">
        <ele>141</ele>
        <time>2022-04-03T12:32:44Z</time>
      </trkpt>
      <trkpt lat="47.72795" lon="3.59403">
        <ele>140.9</ele>
        <time>2022-04-03T12:32:45Z</time>
      </trkpt>
      <trkpt lat="47.72793" lon="3.59404">
        <ele>140.8</ele>
        <time>2022-04-03T12:32:46Z</time>
      </trkpt>
      <trkpt lat="47.72792" lon="3.59406">
        <ele>140.6</ele>
        <time>2022-04-03T12:32:47Z</time>
      </trkpt>
      <trkpt lat="47.72791" lon="3.59408">
        <ele>140.5</ele>
        <time>2022-04-03T12:32:48Z</time>
      </trkpt>
      <trkpt lat="47.7279" lon="3.59408">
        <ele>140.4</ele>
        <time>2022-04-03T12:32:49Z</time>
      </trkpt>
      <trkpt lat="47.72789" lon="3.59409">
        <ele>140.4</ele>
        <time>2022-04-03T12:32:50Z</time>
      </trkpt>
      <trkpt lat="47.72788" lon="3.5941">
        <ele>140.2</ele>
        <time>2022-04-03T12:32:51Z</time>
      </trkpt>
      <trkpt lat="47.72787" lon="3.59411">
        <ele>140.1</ele>
        <time>2022-04-03T12:32:52Z</time>
      </trkpt>
      <trkpt lat="47.72786" lon="3.59412">
        <ele>140.1</ele>
        <time>2022-04-03T12:32:53Z</time>
      </trkpt>
      <trkpt lat="47.72784" lon="3.59413">
        <ele>140</ele>
        <time>2022-04-03T12:32:54Z</time>
      </trkpt>
      <trkpt lat="47.72783" lon="3.59414">
        <ele>139.9</ele>
        <time>2022-04-03T12:32:56Z</time>
      </trkpt>
      <trkpt lat="47.72782" lon="3.59414">
        <ele>139.8</ele>
        <time>2022-04-03T12:32:57Z</time>
      </trkpt>
      <trkpt lat="47.7278" lon="3.59415">
        <ele>139.7</ele>
        <time>2022-04-03T12:32:58Z</time>
      </trkpt>
      <trkpt lat="47.72779" lon="3.59415">
        <ele>139.6</ele>
        <time>2022-04-03T12:32:59Z</time>
      </trkpt>
      <trkpt lat="47.72777" lon="3.59415">
        <ele>139.5</ele>
        <time>2022-04-03T12:33:00Z</time>
      </trkpt>
      <trkpt lat="47.72776" lon="3.59415">
        <ele>139.3</ele>
        <time>2022-04-03T12:33:01Z</time>
      </trkpt>
      <trkpt lat="47.72775" lon="3.59415">
        <ele>139.2</ele>
        <time>2022-04-03T12:33:02Z</time>
      </trkpt>
      <trkpt lat="47.72773" lon="3.59415">
        <ele>139.1</ele>
        <time>2022-04-03T12:33:03Z</time>
      </trkpt>
      <trkpt lat="47.72771" lon="3.59416">
        <ele>138.9</ele>
        <time>2022-04-03T12:33:04Z</time>
      </trkpt>
      <trkpt lat="47.7277" lon="3.59417">
        <ele>138.8</ele>
        <time>2022-04-03T12:33:06Z</time>
      </trkpt>
      <trkpt lat="47.72769" lon="3.59418">
        <ele>138.7</ele>
        <time>2022-04-03T12:33:07Z</time>
      </trkpt>
      <trkpt lat="47.72768" lon="3.59419">
        <ele>138.6</ele>
        <time>2022-04-03T12:33:08Z</time>
      </trkpt>
      <trkpt lat="47.72767" lon="3.59419">
        <ele>138.5</ele>
        <time>2022-04-03T12:33:09Z</time>
      </trkpt>
      <trkpt lat="47.72766" lon="3.59421">
        <ele>138.4</ele>
        <time>2022-04-03T12:33:10Z</time>
      </trkpt>
      <trkpt lat="47.72765" lon="3.59422">
        <ele>138.3</ele>
        <time>2022-04-03T12:33:11Z</time>
      </trkpt>
      <trkpt lat="47.72764" lon="3.59424">
        <ele>138.1</ele>
        <time>2022-04-03T12:33:12Z</time>
      </trkpt>
      <trkpt lat="47.72763" lon="3.59425">
        <ele>138.1</ele>
        <time>2022-04-03T12:33:13Z</time>
      </trkpt>
      <trkpt lat="47.72762" lon="3.59426">
        <ele>137.9</ele>
        <time>2022-04-03T12:33:14Z</time>
      </trkpt>
      <trkpt lat="47.72761" lon="3.5943">
        <ele>137.7</ele>
        <time>2022-04-03T12:33:15Z</time>
      </trkpt>
      <trkpt lat="47.7276" lon="3.59431">
        <ele>137.6</ele>
        <time>2022-04-03T12:33:17Z</time>
      </trkpt>
      <trkpt lat="47.7276" lon="3.59433">
        <ele>137.4</ele>
        <time>2022-04-03T12:33:18Z</time>
      </trkpt>
      <trkpt lat="47.72759" lon="3.59435">
        <ele>137.3</ele>
        <time>2022-04-03T12:33:19Z</time>
      </trkpt>
      <trkpt lat="47.72759" lon="3.59437">
        <ele>137.1</ele>
        <time>2022-04-03T12:33:21Z</time>
      </trkpt>
      <trkpt lat="47.72759" lon="3.59439">
        <ele>137</ele>
        <time>2022-04-03T12:33:22Z</time>
      </trkpt>
      <trkpt lat="47.72758" lon="3.59441">
        <ele>136.9</ele>
        <time>2022-04-03T12:33:23Z</time>
      </trkpt>
      <trkpt lat="47.72759" lon="3.59444">
        <ele>136.7</ele>
        <time>2022-04-03T12:33:24Z</time>
      </trkpt>
      <trkpt lat="47.72758" lon="3.59446">
        <ele>136.5</ele>
        <time>2022-04-03T12:33:25Z</time>
      </trkpt>
      <trkpt lat="47.72758" lon="3.59448">
        <ele>136.3</ele>
        <time>2022-04-03T12:33:26Z</time>
      </trkpt>
      <trkpt lat="47.72758" lon="3.5945">
        <ele>136.2</ele>
        <time>2022-04-03T12:33:28Z</time>
      </trkpt>
      <trkpt lat="47.72758" lon="3.59452">
        <ele>135.9</ele>
        <time>2022-04-03T12:33:29Z</time>
      </trkpt>
      <trkpt lat="47.72757" lon="3.59456">
        <ele>135.7</ele>
        <time>2022-04-03T12:33:30Z</time>
      </trkpt>
      <trkpt lat="47.72757" lon="3.59457">
        <ele>135.5</ele>
        <time>2022-04-03T12:33:31Z</time>
      </trkpt>
      <trkpt lat="47.72757" lon="3.59458">
        <ele>135.4</ele>
        <time>2022-04-03T12:33:32Z</time>
      </trkpt>
      <trkpt lat="47.72757" lon="3.5946">
        <ele>135.3</ele>
        <time>2022-04-03T12:33:33Z</time>
      </trkpt>
      <trkpt lat="47.72756" lon="3.59462">
        <ele>135.1</ele>
        <time>2022-04-03T12:33:34Z</time>
      </trkpt>
      <trkpt lat="47.72756" lon="3.59464">
        <ele>134.9</ele>
        <time>2022-04-03T12:33:36Z</time>
      </trkpt>
      <trkpt lat="47.72756" lon="3.59466">
        <ele>134.7</ele>
        <time>2022-04-03T12:33:37Z</time>
      </trkpt>
      <trkpt lat="47.72755" lon="3.59468">
        <ele>134.5</ele>
        <time>2022-04-03T12:33:38Z</time>
      </trkpt>
      <trkpt lat="47.72755" lon="3.5947">
        <ele>134.4</ele>
        <time>2022-04-03T12:33:39Z</time>
      </trkpt>
      <trkpt lat="47.72754" lon="3.59472">
        <ele>134.2</ele>
        <time>2022-04-03T12:33:40Z</time>
      </trkpt>
      <trkpt lat="47.72754" lon="3.59474">
        <ele>134</ele>
        <time>2022-04-03T12:33:41Z</time>
      </trkpt>
      <trkpt lat="47.72753" lon="3.59476">
        <ele>133.9</ele>
        <time>2022-04-03T12:33:42Z</time>
      </trkpt>
      <trkpt lat="47.72753" lon="3.59478">
        <ele>133.7</ele>
        <time>2022-04-03T12:33:44Z</time>
      </trkpt>
      <trkpt lat="47.72752" lon="3.5948">
        <ele>133.5</ele>
        <time>2022-04-03T12:33:45Z</time>
      </trkpt>
      <trkpt lat="47.72751" lon="3.59482">
        <ele>133.4</ele>
        <time>2022-04-03T12:33:46Z</time>
      </trkpt>
      <trkpt lat="47.7275" lon="3.59485">
        <ele>133.1</ele>
        <time>2022-04-03T12:33:47Z</time>
      </trkpt>
      <trkpt lat="47.7275" lon="3.59486">
        <ele>133</ele>
        <time>2022-04-03T12:33:48Z</time>
      </trkpt>
      <trkpt lat="47.72749" lon="3.59487">
        <ele>132.9</ele>
        <time>2022-04-03T12:33:49Z</time>
      </trkpt>
      <trkpt lat="47.72749" lon="3.59489">
        <ele>132.7</ele>
        <time>2022-04-03T12:33:51Z</time>
      </trkpt>
      <trkpt lat="47.72748" lon="3.59491">
        <ele>132.5</ele>
        <time>2022-04-03T12:33:52Z</time>
      </trkpt>
      <trkpt lat="47.72748" lon="3.59494">
        <ele>132.3</ele>
        <time>2022-04-03T12:33:53Z</time>
      </trkpt>
      <trkpt lat="47.72748" lon="3.59496">
        <ele>132.2</ele>
        <time>2022-04-03T12:33:54Z</time>
      </trkpt>
      <trkpt lat="47.72747" lon="3.59497">
        <ele>132.1</ele>
        <time>2022-04-03T12:33:55Z</time>
      </trkpt>
      <trkpt lat="47.72747" lon="3.59499">
        <ele>131.9</ele>
        <time>2022-04-03T12:33:56Z</time>
      </trkpt>
      <trkpt lat="47.72747" lon="3.59501">
        <ele>131.7</ele>
        <time>2022-04-03T12:33:58Z</time>
      </trkpt>
      <trkpt lat="47.72747" lon="3.59503">
        <ele>131.6</ele>
        <time>2022-04-03T12:33:59Z</time>
      </trkpt>
      <trkpt lat="47.72746" lon="3.59506">
        <ele>131.4</ele>
        <time>2022-04-03T12:34:00Z</time>
      </trkpt>
      <trkpt lat="47.72746" lon="3.59508">
        <ele>131.3</ele>
        <time>2022-04-03T12:34:01Z</time>
      </trkpt>
      <trkpt lat="47.72745" lon="3.5951">
        <ele>131.1</ele>
        <time>2022-04-03T12:34:02Z</time>
      </trkpt>
      <trkpt lat="47.72744" lon="3.59513">
        <ele>130.9</ele>
        <time>2022-04-03T12:34:03Z</time>
      </trkpt>
      <trkpt lat="47.72744" lon="3.59514">
        <ele>130.8</ele>
        <time>2022-04-03T12:34:04Z</time>
      </trkpt>
      <trkpt lat="47.72743" lon="3.59515">
        <ele>130.7</ele>
        <time>2022-04-03T12:34:05Z</time>
      </trkpt>
      <trkpt lat="47.72743" lon="3.59517">
        <ele>130.6</ele>
        <time>2022-04-03T12:34:06Z</time>
      </trkpt>
      <trkpt lat="47.72742" lon="3.59519">
        <ele>130.5</ele>
        <time>2022-04-03T12:34:07Z</time>
      </trkpt>
      <trkpt lat="47.72741" lon="3.59522">
        <ele>130.3</ele>
        <time>2022-04-03T12:34:08Z</time>
      </trkpt>
      <trkpt lat="47.72741" lon="3.59523">
        <ele>130.3</ele>
        <time>2022-04-03T12:34:09Z</time>
      </trkpt>
      <trkpt lat="47.72741" lon="3.59524">
        <ele>130.2</ele>
        <time>2022-04-03T12:34:10Z</time>
      </trkpt>
      <trkpt lat="47.72741" lon="3.59528">
        <ele>130</ele>
        <time>2022-04-03T12:34:11Z</time>
      </trkpt>
      <trkpt lat="47.72741" lon="3.59529">
        <ele>130</ele>
        <time>2022-04-03T12:34:12Z</time>
      </trkpt>
      <trkpt lat="47.72741" lon="3.5953">
        <ele>129.9</ele>
        <time>2022-04-03T12:34:13Z</time>
      </trkpt>
      <trkpt lat="47.7274" lon="3.59532">
        <ele>129.8</ele>
        <time>2022-04-03T12:34:14Z</time>
      </trkpt>
      <trkpt lat="47.7274" lon="3.59535">
        <ele>129.7</ele>
        <time>2022-04-03T12:34:16Z</time>
      </trkpt>
      <trkpt lat="47.72739" lon="3.59537">
        <ele>129.6</ele>
        <time>2022-04-03T12:34:17Z</time>
      </trkpt>
      <trkpt lat="47.72739" lon="3.59539">
        <ele>129.5</ele>
        <time>2022-04-03T12:34:18Z</time>
      </trkpt>
      <trkpt lat="47.72738" lon="3.59542">
        <ele>129.4</ele>
        <time>2022-04-03T12:34:19Z</time>
      </trkpt>
      <trkpt lat="47.72738" lon="3.59544">
        <ele>129.3</ele>
        <time>2022-04-03T12:34:20Z</time>
      </trkpt>
      <trkpt lat="47.72738" lon="3.59546">
        <ele>129.1</ele>
        <time>2022-04-03T12:34:21Z</time>
      </trkpt>
      <trkpt lat="47.72737" lon="3.59548">
        <ele>129.1</ele>
        <time>2022-04-03T12:34:22Z</time>
      </trkpt>
      <trkpt lat="47.72737" lon="3.59549">
        <ele>129</ele>
        <time>2022-04-03T12:34:23Z</time>
      </trkpt>
      <trkpt lat="47.72736" lon="3.59551">
        <ele>128.9</ele>
        <time>2022-04-03T12:34:24Z</time>
      </trkpt>
      <trkpt lat="47.72736" lon="3.59553">
        <ele>128.8</ele>
        <time>2022-04-03T12:34:25Z</time>
      </trkpt>
      <trkpt lat="47.72736" lon="3.59555">
        <ele>128.7</ele>
        <time>2022-04-03T12:34:26Z</time>
      </trkpt>
      <trkpt lat="47.72735" lon="3.59558">
        <ele>128.6</ele>
        <time>2022-04-03T12:34:27Z</time>
      </trkpt>
      <trkpt lat="47.72735" lon="3.5956">
        <ele>128.5</ele>
        <time>2022-04-03T12:34:28Z</time>
      </trkpt>
      <trkpt lat="47.72735" lon="3.59562">
        <ele>128.4</ele>
        <time>2022-04-03T12:34:29Z</time>
      </trkpt>
      <trkpt lat="47.72734" lon="3.59565">
        <ele>128.3</ele>
        <time>2022-04-03T12:34:30Z</time>
      </trkpt>
      <trkpt lat="47.72734" lon="3.59566">
        <ele>128.3</ele>
        <time>2022-04-03T12:34:31Z</time>
      </trkpt>
      <trkpt lat="47.72734" lon="3.59567">
        <ele>128.2</ele>
        <time>2022-04-03T12:34:32Z</time>
      </trkpt>
      <trkpt lat="47.72733" lon="3.59569">
        <ele>128.2</ele>
        <time>2022-04-03T12:34:33Z</time>
      </trkpt>
      <trkpt lat="47.72733" lon="3.59571">
        <ele>128.1</ele>
        <time>2022-04-03T12:34:34Z</time>
      </trkpt>
      <trkpt lat="47.72733" lon="3.59573">
        <ele>128</ele>
        <time>2022-04-03T12:34:36Z</time>
      </trkpt>
      <trkpt lat="47.72732" lon="3.59575">
        <ele>127.9</ele>
        <time>2022-04-03T12:34:37Z</time>
      </trkpt>
      <trkpt lat="47.72732" lon="3.59577">
        <ele>127.9</ele>
        <time>2022-04-03T12:34:38Z</time>
      </trkpt>
      <trkpt lat="47.72732" lon="3.59579">
        <ele>127.8</ele>
        <time>2022-04-03T12:34:39Z</time>
      </trkpt>
      <trkpt lat="47.72731" lon="3.59581">
        <ele>127.7</ele>
        <time>2022-04-03T12:34:40Z</time>
      </trkpt>
      <trkpt lat="47.72731" lon="3.59583">
        <ele>127.6</ele>
        <time>2022-04-03T12:34:41Z</time>
      </trkpt>
      <trkpt lat="47.72731" lon="3.59585">
        <ele>127.5</ele>
        <time>2022-04-03T12:34:42Z</time>
      </trkpt>
      <trkpt lat="47.7273" lon="3.59588">
        <ele>127.5</ele>
        <time>2022-04-03T12:34:44Z</time>
      </trkpt>
      <trkpt lat="47.7273" lon="3.5959">
        <ele>127.4</ele>
        <time>2022-04-03T12:34:45Z</time>
      </trkpt>
      <trkpt lat="47.72729" lon="3.59593">
        <ele>127.3</ele>
        <time>2022-04-03T12:34:46Z</time>
      </trkpt>
      <trkpt lat="47.72729" lon="3.59594">
        <ele>127.2</ele>
        <time>2022-04-03T12:34:47Z</time>
      </trkpt>
      <trkpt lat="47.72728" lon="3.59596">
        <ele>127.1</ele>
        <time>2022-04-03T12:34:48Z</time>
      </trkpt>
      <trkpt lat="47.72728" lon="3.59599">
        <ele>127</ele>
        <time>2022-04-03T12:34:49Z</time>
      </trkpt>
      <trkpt lat="47.72727" lon="3.59601">
        <ele>126.9</ele>
        <time>2022-04-03T12:34:51Z</time>
      </trkpt>
      <trkpt lat="47.72726" lon="3.59602">
        <ele>126.9</ele>
        <time>2022-04-03T12:34:52Z</time>
      </trkpt>
      <trkpt lat="47.72726" lon="3.59604">
        <ele>126.8</ele>
        <time>2022-04-03T12:34:53Z</time>
      </trkpt>
      <trkpt lat="47.72724" lon="3.59606">
        <ele>126.7</ele>
        <time>2022-04-03T12:34:54Z</time>
      </trkpt>
      <trkpt lat="47.72724" lon="3.59607">
        <ele>126.7</ele>
        <time>2022-04-03T12:34:55Z</time>
      </trkpt>
      <trkpt lat="47.72722" lon="3.59609">
        <ele>126.5</ele>
        <time>2022-04-03T12:34:56Z</time>
      </trkpt>
      <trkpt lat="47.72722" lon="3.5961">
        <ele>126.5</ele>
        <time>2022-04-03T12:34:57Z</time>
      </trkpt>
      <trkpt lat="47.72721" lon="3.59611">
        <ele>126.4</ele>
        <time>2022-04-03T12:34:58Z</time>
      </trkpt>
      <trkpt lat="47.72721" lon="3.59612">
        <ele>126.4</ele>
        <time>2022-04-03T12:35:00Z</time>
      </trkpt>
      <trkpt lat="47.7272" lon="3.59614">
        <ele>126.3</ele>
        <time>2022-04-03T12:35:01Z</time>
      </trkpt>
      <trkpt lat="47.7272" lon="3.59616">
        <ele>126.3</ele>
        <time>2022-04-03T12:35:02Z</time>
      </trkpt>
      <trkpt lat="47.72719" lon="3.59618">
        <ele>126.2</ele>
        <time>2022-04-03T12:35:03Z</time>
      </trkpt>
      <trkpt lat="47.72718" lon="3.59619">
        <ele>126.1</ele>
        <time>2022-04-03T12:35:04Z</time>
      </trkpt>
      <trkpt lat="47.72718" lon="3.59621">
        <ele>126</ele>
        <time>2022-04-03T12:35:05Z</time>
      </trkpt>
      <trkpt lat="47.72717" lon="3.59624">
        <ele>125.9</ele>
        <time>2022-04-03T12:35:06Z</time>
      </trkpt>
      <trkpt lat="47.72716" lon="3.59625">
        <ele>125.9</ele>
        <time>2022-04-03T12:35:07Z</time>
      </trkpt>
      <trkpt lat="47.72716" lon="3.59626">
        <ele>125.8</ele>
        <time>2022-04-03T12:35:08Z</time>
      </trkpt>
      <trkpt lat="47.72715" lon="3.59627">
        <ele>125.8</ele>
        <time>2022-04-03T12:35:09Z</time>
      </trkpt>
      <trkpt lat="47.72714" lon="3.59629">
        <ele>125.7</ele>
        <time>2022-04-03T12:35:10Z</time>
      </trkpt>
      <trkpt lat="47.72713" lon="3.5963">
        <ele>125.6</ele>
        <time>2022-04-03T12:35:12Z</time>
      </trkpt>
      <trkpt lat="47.72712" lon="3.59631">
        <ele>125.6</ele>
        <time>2022-04-03T12:35:13Z</time>
      </trkpt>
      <trkpt lat="47.7271" lon="3.59632">
        <ele>125.5</ele>
        <time>2022-04-03T12:35:14Z</time>
      </trkpt>
      <trkpt lat="47.72708" lon="3.59632">
        <ele>125.4</ele>
        <time>2022-04-03T12:35:15Z</time>
      </trkpt>
      <trkpt lat="47.72707" lon="3.59633">
        <ele>125.3</ele>
        <time>2022-04-03T12:35:16Z</time>
      </trkpt>
      <trkpt lat="47.72706" lon="3.59633">
        <ele>125.3</ele>
        <time>2022-04-03T12:35:17Z</time>
      </trkpt>
      <trkpt lat="47.72705" lon="3.59634">
        <ele>125.2</ele>
        <time>2022-04-03T12:35:18Z</time>
      </trkpt>
      <trkpt lat="47.72704" lon="3.59634">
        <ele>125.2</ele>
        <time>2022-04-03T12:35:19Z</time>
      </trkpt>
      <trkpt lat="47.72703" lon="3.59635">
        <ele>125.1</ele>
        <time>2022-04-03T12:35:20Z</time>
      </trkpt>
      <trkpt lat="47.72702" lon="3.59636">
        <ele>125.1</ele>
        <time>2022-04-03T12:35:21Z</time>
      </trkpt>
      <trkpt lat="47.72701" lon="3.59637">
        <ele>125</ele>
        <time>2022-04-03T12:35:23Z</time>
      </trkpt>
      <trkpt lat="47.727" lon="3.59638">
        <ele>124.9</ele>
        <time>2022-04-03T12:35:24Z</time>
      </trkpt>
      <trkpt lat="47.72698" lon="3.59639">
        <ele>124.9</ele>
        <time>2022-04-03T12:35:25Z</time>
      </trkpt>
      <trkpt lat="47.72697" lon="3.59642">
        <ele>124.8</ele>
        <time>2022-04-03T12:35:26Z</time>
      </trkpt>
      <trkpt lat="47.72696" lon="3.59643">
        <ele>124.7</ele>
        <time>2022-04-03T12:35:27Z</time>
      </trkpt>
      <trkpt lat="47.72695" lon="3.59644">
        <ele>124.7</ele>
        <time>2022-04-03T12:35:28Z</time>
      </trkpt>
      <trkpt lat="47.72694" lon="3.59646">
        <ele>124.6</ele>
        <time>2022-04-03T12:35:30Z</time>
      </trkpt>
      <trkpt lat="47.72693" lon="3.59647">
        <ele>124.5</ele>
        <time>2022-04-03T12:35:31Z</time>
      </trkpt>
      <trkpt lat="47.72692" lon="3.59648">
        <ele>124.4</ele>
        <time>2022-04-03T12:35:32Z</time>
      </trkpt>
      <trkpt lat="47.7269" lon="3.59649">
        <ele>124.4</ele>
        <time>2022-04-03T12:35:33Z</time>
      </trkpt>
      <trkpt lat="47.72689" lon="3.5965">
        <ele>124.3</ele>
        <time>2022-04-03T12:35:34Z</time>
      </trkpt>
      <trkpt lat="47.72688" lon="3.59651">
        <ele>124.2</ele>
        <time>2022-04-03T12:35:35Z</time>
      </trkpt>
      <trkpt lat="47.72687" lon="3.59652">
        <ele>124.2</ele>
        <time>2022-04-03T12:35:36Z</time>
      </trkpt>
      <trkpt lat="47.72687" lon="3.59654">
        <ele>124.1</ele>
        <time>2022-04-03T12:35:38Z</time>
      </trkpt>
      <trkpt lat="47.72687" lon="3.59656">
        <ele>124</ele>
        <time>2022-04-03T12:35:39Z</time>
      </trkpt>
      <trkpt lat="47.72686" lon="3.59657">
        <ele>123.9</ele>
        <time>2022-04-03T12:35:40Z</time>
      </trkpt>
      <trkpt lat="47.72685" lon="3.59658">
        <ele>123.8</ele>
        <time>2022-04-03T12:35:41Z</time>
      </trkpt>
      <trkpt lat="47.72683" lon="3.59658">
        <ele>123.7</ele>
        <time>2022-04-03T12:35:43Z</time>
      </trkpt>
      <trkpt lat="47.72682" lon="3.59659">
        <ele>123.6</ele>
        <time>2022-04-03T12:35:44Z</time>
      </trkpt>
      <trkpt lat="47.7268" lon="3.59661">
        <ele>123.5</ele>
        <time>2022-04-03T12:35:45Z</time>
      </trkpt>
      <trkpt lat="47.72679" lon="3.59662">
        <ele>123.4</ele>
        <time>2022-04-03T12:35:46Z</time>
      </trkpt>
      <trkpt lat="47.72678" lon="3.59665">
        <ele>123.2</ele>
        <time>2022-04-03T12:35:47Z</time>
      </trkpt>
      <trkpt lat="47.72677" lon="3.59667">
        <ele>123.1</ele>
        <time>2022-04-03T12:35:48Z</time>
      </trkpt>
      <trkpt lat="47.72677" lon="3.5967">
        <ele>123</ele>
        <time>2022-04-03T12:35:49Z</time>
      </trkpt>
      <trkpt lat="47.72677" lon="3.59671">
        <ele>122.8</ele>
        <time>2022-04-03T12:35:50Z</time>
      </trkpt>
      <trkpt lat="47.72677" lon="3.59674">
        <ele>122.7</ele>
        <time>2022-04-03T12:35:51Z</time>
      </trkpt>
      <trkpt lat="47.72677" lon="3.59676">
        <ele>122.5</ele>
        <time>2022-04-03T12:35:52Z</time>
      </trkpt>
      <trkpt lat="47.72677" lon="3.59679">
        <ele>122.4</ele>
        <time>2022-04-03T12:35:53Z</time>
      </trkpt>
      <trkpt lat="47.72678" lon="3.59682">
        <ele>122.2</ele>
        <time>2022-04-03T12:35:54Z</time>
      </trkpt>
      <trkpt lat="47.72678" lon="3.59683">
        <ele>122</ele>
        <time>2022-04-03T12:35:55Z</time>
      </trkpt>
      <trkpt lat="47.7268" lon="3.59687">
        <ele>121.7</ele>
        <time>2022-04-03T12:35:56Z</time>
      </trkpt>
      <trkpt lat="47.72681" lon="3.59688">
        <ele>121.6</ele>
        <time>2022-04-03T12:35:57Z</time>
      </trkpt>
      <trkpt lat="47.72683" lon="3.59691">
        <ele>121.3</ele>
        <time>2022-04-03T12:35:59Z</time>
      </trkpt>
      <trkpt lat="47.72683" lon="3.59693">
        <ele>121.1</ele>
        <time>2022-04-03T12:36:00Z</time>
      </trkpt>
      <trkpt lat="47.72684" lon="3.59695">
        <ele>121</ele>
        <time>2022-04-03T12:36:01Z</time>
      </trkpt>
      <trkpt lat="47.72685" lon="3.59697">
        <ele>120.8</ele>
        <time>2022-04-03T12:36:02Z</time>
      </trkpt>
      <trkpt lat="47.72686" lon="3.59699">
        <ele>120.6</ele>
        <time>2022-04-03T12:36:03Z</time>
      </trkpt>
      <trkpt lat="47.72686" lon="3.59701">
        <ele>120.4</ele>
        <time>2022-04-03T12:36:04Z</time>
      </trkpt>
      <trkpt lat="47.72687" lon="3.59703">
        <ele>120.2</ele>
        <time>2022-04-03T12:36:06Z</time>
      </trkpt>
      <trkpt lat="47.72687" lon="3.59705">
        <ele>120.1</ele>
        <time>2022-04-03T12:36:07Z</time>
      </trkpt>
      <trkpt lat="47.72688" lon="3.59708">
        <ele>119.8</ele>
        <time>2022-04-03T12:36:08Z</time>
      </trkpt>
      <trkpt lat="47.72688" lon="3.59709">
        <ele>119.7</ele>
        <time>2022-04-03T12:36:09Z</time>
      </trkpt>
      <trkpt lat="47.72689" lon="3.5971">
        <ele>119.6</ele>
        <time>2022-04-03T12:36:10Z</time>
      </trkpt>
      <trkpt lat="47.7269" lon="3.59713">
        <ele>119.4</ele>
        <time>2022-04-03T12:36:11Z</time>
      </trkpt>
      <trkpt lat="47.7269" lon="3.59714">
        <ele>119.3</ele>
        <time>2022-04-03T12:36:12Z</time>
      </trkpt>
      <trkpt lat="47.72691" lon="3.59715">
        <ele>119.2</ele>
        <time>2022-04-03T12:36:13Z</time>
      </trkpt>
      <trkpt lat="47.72691" lon="3.59717">
        <ele>119.1</ele>
        <time>2022-04-03T12:36:15Z</time>
      </trkpt>
      <trkpt lat="47.72691" lon="3.59719">
        <ele>118.9</ele>
        <time>2022-04-03T12:36:16Z</time>
      </trkpt>
      <trkpt lat="47.72692" lon="3.59721">
        <ele>118.8</ele>
        <time>2022-04-03T12:36:17Z</time>
      </trkpt>
      <trkpt lat="47.72693" lon="3.59723">
        <ele>118.6</ele>
        <time>2022-04-03T12:36:18Z</time>
      </trkpt>
      <trkpt lat="47.72694" lon="3.59726">
        <ele>118.4</ele>
        <time>2022-04-03T12:36:19Z</time>
      </trkpt>
      <trkpt lat="47.72694" lon="3.59727">
        <ele>118.3</ele>
        <time>2022-04-03T12:36:20Z</time>
      </trkpt>
      <trkpt lat="47.72695" lon="3.59728">
        <ele>118.2</ele>
        <time>2022-04-03T12:36:21Z</time>
      </trkpt>
      <trkpt lat="47.72695" lon="3.5973">
        <ele>118</ele>
        <time>2022-04-03T12:36:23Z</time>
      </trkpt>
      <trkpt lat="47.72695" lon="3.59732">
        <ele>117.9</ele>
        <time>2022-04-03T12:36:24Z</time>
      </trkpt>
      <trkpt lat="47.72696" lon="3.59734">
        <ele>117.7</ele>
        <time>2022-04-03T12:36:25Z</time>
      </trkpt>
      <trkpt lat="47.72696" lon="3.59737">
        <ele>117.5</ele>
        <time>2022-04-03T12:36:26Z</time>
      </trkpt>
      <trkpt lat="47.72696" lon="3.59739">
        <ele>117.4</ele>
        <time>2022-04-03T12:36:27Z</time>
      </trkpt>
      <trkpt lat="47.72696" lon="3.59741">
        <ele>117.2</ele>
        <time>2022-04-03T12:36:28Z</time>
      </trkpt>
      <trkpt lat="47.72697" lon="3.59744">
        <ele>117</ele>
        <time>2022-04-03T12:36:29Z</time>
      </trkpt>
      <trkpt lat="47.72697" lon="3.59745">
        <ele>116.9</ele>
        <time>2022-04-03T12:36:30Z</time>
      </trkpt>
      <trkpt lat="47.72697" lon="3.59746">
        <ele>116.8</ele>
        <time>2022-04-03T12:36:31Z</time>
      </trkpt>
      <trkpt lat="47.72698" lon="3.59748">
        <ele>116.7</ele>
        <time>2022-04-03T12:36:32Z</time>
      </trkpt>
      <trkpt lat="47.72698" lon="3.59749">
        <ele>116.6</ele>
        <time>2022-04-03T12:36:33Z</time>
      </trkpt>
      <trkpt lat="47.72699" lon="3.59751">
        <ele>116.4</ele>
        <time>2022-04-03T12:36:34Z</time>
      </trkpt>
      <trkpt lat="47.727" lon="3.59753">
        <ele>116.3</ele>
        <time>2022-04-03T12:36:35Z</time>
      </trkpt>
      <trkpt lat="47.727" lon="3.59754">
        <ele>116.2</ele>
        <time>2022-04-03T12:36:36Z</time>
      </trkpt>
      <trkpt lat="47.72701" lon="3.59756">
        <ele>116</ele>
        <time>2022-04-03T12:36:38Z</time>
      </trkpt>
      <trkpt lat="47.72701" lon="3.59758">
        <ele>115.8</ele>
        <time>2022-04-03T12:36:39Z</time>
      </trkpt>
      <trkpt lat="47.72702" lon="3.59761">
        <ele>115.7</ele>
        <time>2022-04-03T12:36:40Z</time>
      </trkpt>
      <trkpt lat="47.72702" lon="3.59763">
        <ele>115.5</ele>
        <time>2022-04-03T12:36:41Z</time>
      </trkpt>
      <trkpt lat="47.72702" lon="3.59765">
        <ele>115.3</ele>
        <time>2022-04-03T12:36:42Z</time>
      </trkpt>
      <trkpt lat="47.72702" lon="3.59767">
        <ele>115.2</ele>
        <time>2022-04-03T12:36:43Z</time>
      </trkpt>
      <trkpt lat="47.72702" lon="3.59769">
        <ele>115.1</ele>
        <time>2022-04-03T12:36:45Z</time>
      </trkpt>
      <trkpt lat="47.72703" lon="3.59771">
        <ele>114.9</ele>
        <time>2022-04-03T12:36:46Z</time>
      </trkpt>
      <trkpt lat="47.72704" lon="3.59773">
        <ele>114.7</ele>
        <time>2022-04-03T12:36:47Z</time>
      </trkpt>
      <trkpt lat="47.72705" lon="3.59775">
        <ele>114.6</ele>
        <time>2022-04-03T12:36:48Z</time>
      </trkpt>
      <trkpt lat="47.72706" lon="3.59776">
        <ele>114.4</ele>
        <time>2022-04-03T12:36:49Z</time>
      </trkpt>
      <trkpt lat="47.72707" lon="3.59778">
        <ele>114.3</ele>
        <time>2022-04-03T12:36:50Z</time>
      </trkpt>
      <trkpt lat="47.72708" lon="3.5978">
        <ele>114.2</ele>
        <time>2022-04-03T12:36:51Z</time>
      </trkpt>
      <trkpt lat="47.72709" lon="3.59782">
        <ele>113.9</ele>
        <time>2022-04-03T12:36:53Z</time>
      </trkpt>
      <trkpt lat="47.7271" lon="3.59783">
        <ele>113.9</ele>
        <time>2022-04-03T12:36:54Z</time>
      </trkpt>
      <trkpt lat="47.72711" lon="3.59784">
        <ele>113.8</ele>
        <time>2022-04-03T12:36:55Z</time>
      </trkpt>
      <trkpt lat="47.72712" lon="3.59785">
        <ele>113.7</ele>
        <time>2022-04-03T12:36:56Z</time>
      </trkpt>
      <trkpt lat="47.72713" lon="3.59786">
        <ele>113.5</ele>
        <time>2022-04-03T12:36:57Z</time>
      </trkpt>
      <trkpt lat="47.72714" lon="3.59787">
        <ele>113.4</ele>
        <time>2022-04-03T12:36:58Z</time>
      </trkpt>
      <trkpt lat="47.72716" lon="3.59788">
        <ele>113.2</ele>
        <time>2022-04-03T12:37:00Z</time>
      </trkpt>
      <trkpt lat="47.72716" lon="3.59788">
        <ele>113.1</ele>
        <time>2022-04-03T12:37:01Z</time>
      </trkpt>
      <trkpt lat="47.72717" lon="3.59789">
        <ele>113.1</ele>
        <time>2022-04-03T12:37:02Z</time>
      </trkpt>
      <trkpt lat="47.72718" lon="3.59789">
        <ele>113.2</ele>
        <time>2022-04-03T12:37:03Z</time>
      </trkpt>
      <trkpt lat="47.72719" lon="3.59789">
        <ele>113.3</ele>
        <time>2022-04-03T12:37:04Z</time>
      </trkpt>
      <trkpt lat="47.7272" lon="3.59788">
        <ele>113.4</ele>
        <time>2022-04-03T12:37:05Z</time>
      </trkpt>
      <trkpt lat="47.72721" lon="3.59788">
        <ele>113.5</ele>
        <time>2022-04-03T12:37:06Z</time>
      </trkpt>
      <trkpt lat="47.72722" lon="3.59787">
        <ele>113.6</ele>
        <time>2022-04-03T12:37:07Z</time>
      </trkpt>
      <trkpt lat="47.72723" lon="3.59787">
        <ele>113.7</ele>
        <time>2022-04-03T12:37:08Z</time>
      </trkpt>
      <trkpt lat="47.72725" lon="3.59786">
        <ele>113.9</ele>
        <time>2022-04-03T12:37:10Z</time>
      </trkpt>
      <trkpt lat="47.72726" lon="3.59786">
        <ele>113.9</ele>
        <time>2022-04-03T12:37:11Z</time>
      </trkpt>
      <trkpt lat="47.72727" lon="3.59786">
        <ele>114</ele>
        <time>2022-04-03T12:37:12Z</time>
      </trkpt>
      <trkpt lat="47.72728" lon="3.59785">
        <ele>114.2</ele>
        <time>2022-04-03T12:37:13Z</time>
      </trkpt>
      <trkpt lat="47.72729" lon="3.59784">
        <ele>114.2</ele>
        <time>2022-04-03T12:37:14Z</time>
      </trkpt>
      <trkpt lat="47.7273" lon="3.59784">
        <ele>114.3</ele>
        <time>2022-04-03T12:37:15Z</time>
      </trkpt>
      <trkpt lat="47.72731" lon="3.59782">
        <ele>114.4</ele>
        <time>2022-04-03T12:37:17Z</time>
      </trkpt>
      <trkpt lat="47.72732" lon="3.59781">
        <ele>114.6</ele>
        <time>2022-04-03T12:37:18Z</time>
      </trkpt>
      <trkpt lat="47.72734" lon="3.59779">
        <ele>114.7</ele>
        <time>2022-04-03T12:37:19Z</time>
      </trkpt>
      <trkpt lat="47.72735" lon="3.59778">
        <ele>114.8</ele>
        <time>2022-04-03T12:37:20Z</time>
      </trkpt>
      <trkpt lat="47.72736" lon="3.59777">
        <ele>114.9</ele>
        <time>2022-04-03T12:37:21Z</time>
      </trkpt>
      <trkpt lat="47.72737" lon="3.59776">
        <ele>115</ele>
        <time>2022-04-03T12:37:22Z</time>
      </trkpt>
      <trkpt lat="47.72738" lon="3.59775">
        <ele>115.1</ele>
        <time>2022-04-03T12:37:23Z</time>
      </trkpt>
      <trkpt lat="47.72739" lon="3.59773">
        <ele>115.2</ele>
        <time>2022-04-03T12:37:25Z</time>
      </trkpt>
      <trkpt lat="47.72741" lon="3.59772">
        <ele>115.3</ele>
        <time>2022-04-03T12:37:26Z</time>
      </trkpt>
      <trkpt lat="47.72742" lon="3.59771">
        <ele>115.4</ele>
        <time>2022-04-03T12:37:27Z</time>
      </trkpt>
      <trkpt lat="47.72743" lon="3.59769">
        <ele>115.5</ele>
        <time>2022-04-03T12:37:28Z</time>
      </trkpt>
      <trkpt lat="47.72745" lon="3.59768">
        <ele>115.6</ele>
        <time>2022-04-03T12:37:30Z</time>
      </trkpt>
      <trkpt lat="47.72746" lon="3.59767">
        <ele>115.7</ele>
        <time>2022-04-03T12:37:31Z</time>
      </trkpt>
      <trkpt lat="47.72748" lon="3.59766">
        <ele>115.8</ele>
        <time>2022-04-03T12:37:32Z</time>
      </trkpt>
      <trkpt lat="47.72749" lon="3.59765">
        <ele>115.9</ele>
        <time>2022-04-03T12:37:33Z</time>
      </trkpt>
      <trkpt lat="47.7275" lon="3.59764">
        <ele>116</ele>
        <time>2022-04-03T12:37:34Z</time>
      </trkpt>
      <trkpt lat="47.72752" lon="3.59763">
        <ele>116.1</ele>
        <time>2022-04-03T12:37:35Z</time>
      </trkpt>
      <trkpt lat="47.72753" lon="3.59763">
        <ele>116.2</ele>
        <time>2022-04-03T12:37:36Z</time>
      </trkpt>
      <trkpt lat="47.72755" lon="3.59763">
        <ele>116.3</ele>
        <time>2022-04-03T12:37:37Z</time>
      </trkpt>
      <trkpt lat="47.72756" lon="3.59763">
        <ele>116.4</ele>
        <time>2022-04-03T12:37:38Z</time>
      </trkpt>
      <trkpt lat="47.72758" lon="3.59763">
        <ele>116.5</ele>
        <time>2022-04-03T12:37:40Z</time>
      </trkpt>
      <trkpt lat="47.72759" lon="3.59762">
        <ele>116.6</ele>
        <time>2022-04-03T12:37:41Z</time>
      </trkpt>
      <trkpt lat="47.72761" lon="3.59762">
        <ele>116.7</ele>
        <time>2022-04-03T12:37:42Z</time>
      </trkpt>
      <trkpt lat="47.72762" lon="3.59762">
        <ele>116.8</ele>
        <time>2022-04-03T12:37:43Z</time>
      </trkpt>
      <trkpt lat="47.72764" lon="3.59761">
        <ele>116.9</ele>
        <time>2022-04-03T12:37:44Z</time>
      </trkpt>
      <trkpt lat="47.72765" lon="3.59761">
        <ele>116.9</ele>
        <time>2022-04-03T12:37:45Z</time>
      </trkpt>
      <trkpt lat="47.72766" lon="3.5976">
        <ele>117</ele>
        <time>2022-04-03T12:37:46Z</time>
      </trkpt>
      <trkpt lat="47.72768" lon="3.59759">
        <ele>117.1</ele>
        <time>2022-04-03T12:37:47Z</time>
      </trkpt>
      <trkpt lat="47.72769" lon="3.59758">
        <ele>117.1</ele>
        <time>2022-04-03T12:37:48Z</time>
      </trkpt>
      <trkpt lat="47.72769" lon="3.59757">
        <ele>117.2</ele>
        <time>2022-04-03T12:37:50Z</time>
      </trkpt>
      <trkpt lat="47.7277" lon="3.59756">
        <ele>117.2</ele>
        <time>2022-04-03T12:37:51Z</time>
      </trkpt>
      <trkpt lat="47.72771" lon="3.59755">
        <ele>117.3</ele>
        <time>2022-04-03T12:37:52Z</time>
      </trkpt>
      <trkpt lat="47.72772" lon="3.59754">
        <ele>117.3</ele>
        <time>2022-04-03T12:37:53Z</time>
      </trkpt>
      <trkpt lat="47.72773" lon="3.59753">
        <ele>117.4</ele>
        <time>2022-04-03T12:37:54Z</time>
      </trkpt>
      <trkpt lat="47.72774" lon="3.59752">
        <ele>117.5</ele>
        <time>2022-04-03T12:37:55Z</time>
      </trkpt>
      <trkpt lat="47.72775" lon="3.59751">
        <ele>117.6</ele>
        <time>2022-04-03T12:37:56Z</time>
      </trkpt>
      <trkpt lat="47.72776" lon="3.59749">
        <ele>117.6</ele>
        <time>2022-04-03T12:37:58Z</time>
      </trkpt>
      <trkpt lat="47.72778" lon="3.59748">
        <ele>117.7</ele>
        <time>2022-04-03T12:37:59Z</time>
      </trkpt>
      <trkpt lat="47.72779" lon="3.59747">
        <ele>117.8</ele>
        <time>2022-04-03T12:38:00Z</time>
      </trkpt>
      <trkpt lat="47.72781" lon="3.59746">
        <ele>117.9</ele>
        <time>2022-04-03T12:38:01Z</time>
      </trkpt>
      <trkpt lat="47.72782" lon="3.59745">
        <ele>117.9</ele>
        <time>2022-04-03T12:38:02Z</time>
      </trkpt>
      <trkpt lat="47.72783" lon="3.59744">
        <ele>118</ele>
        <time>2022-04-03T12:38:03Z</time>
      </trkpt>
      <trkpt lat="47.72784" lon="3.59742">
        <ele>118.1</ele>
        <time>2022-04-03T12:38:04Z</time>
      </trkpt>
      <trkpt lat="47.72785" lon="3.59741">
        <ele>118.2</ele>
        <time>2022-04-03T12:38:06Z</time>
      </trkpt>
      <trkpt lat="47.72786" lon="3.59739">
        <ele>118.3</ele>
        <time>2022-04-03T12:38:07Z</time>
      </trkpt>
      <trkpt lat="47.72788" lon="3.59738">
        <ele>118.3</ele>
        <time>2022-04-03T12:38:08Z</time>
      </trkpt>
      <trkpt lat="47.72789" lon="3.59738">
        <ele>118.4</ele>
        <time>2022-04-03T12:38:09Z</time>
      </trkpt>
      <trkpt lat="47.72791" lon="3.59737">
        <ele>118.5</ele>
        <time>2022-04-03T12:38:10Z</time>
      </trkpt>
      <trkpt lat="47.72792" lon="3.59735">
        <ele>118.5</ele>
        <time>2022-04-03T12:38:11Z</time>
      </trkpt>
      <trkpt lat="47.72793" lon="3.59734">
        <ele>118.6</ele>
        <time>2022-04-03T12:38:12Z</time>
      </trkpt>
      <trkpt lat="47.72795" lon="3.59733">
        <ele>118.7</ele>
        <time>2022-04-03T12:38:14Z</time>
      </trkpt>
      <trkpt lat="47.72796" lon="3.59732">
        <ele>118.7</ele>
        <time>2022-04-03T12:38:15Z</time>
      </trkpt>
      <trkpt lat="47.72798" lon="3.59731">
        <ele>118.8</ele>
        <time>2022-04-03T12:38:16Z</time>
      </trkpt>
      <trkpt lat="47.72799" lon="3.59729">
        <ele>118.9</ele>
        <time>2022-04-03T12:38:17Z</time>
      </trkpt>
      <trkpt lat="47.72801" lon="3.59728">
        <ele>118.9</ele>
        <time>2022-04-03T12:38:18Z</time>
      </trkpt>
      <trkpt lat="47.72802" lon="3.59727">
        <ele>119</ele>
        <time>2022-04-03T12:38:19Z</time>
      </trkpt>
      <trkpt lat="47.72803" lon="3.59726">
        <ele>119.1</ele>
        <time>2022-04-03T12:38:20Z</time>
      </trkpt>
      <trkpt lat="47.72805" lon="3.59724">
        <ele>119.1</ele>
        <time>2022-04-03T12:38:22Z</time>
      </trkpt>
      <trkpt lat="47.72806" lon="3.59723">
        <ele>119.1</ele>
        <time>2022-04-03T12:38:23Z</time>
      </trkpt>
      <trkpt lat="47.72808" lon="3.59722">
        <ele>119.2</ele>
        <time>2022-04-03T12:38:24Z</time>
      </trkpt>
      <trkpt lat="47.72809" lon="3.59721">
        <ele>119.2</ele>
        <time>2022-04-03T12:38:25Z</time>
      </trkpt>
      <trkpt lat="47.7281" lon="3.59719">
        <ele>119.3</ele>
        <time>2022-04-03T12:38:26Z</time>
      </trkpt>
      <trkpt lat="47.72811" lon="3.59717">
        <ele>119.3</ele>
        <time>2022-04-03T12:38:27Z</time>
      </trkpt>
      <trkpt lat="47.72812" lon="3.59715">
        <ele>119.4</ele>
        <time>2022-04-03T12:38:28Z</time>
      </trkpt>
      <trkpt lat="47.72812" lon="3.59714">
        <ele>119.4</ele>
        <time>2022-04-03T12:38:29Z</time>
      </trkpt>
      <trkpt lat="47.72814" lon="3.59712">
        <ele>119.5</ele>
        <time>2022-04-03T12:38:31Z</time>
      </trkpt>
      <trkpt lat="47.72815" lon="3.5971">
        <ele>119.5</ele>
        <time>2022-04-03T12:38:32Z</time>
      </trkpt>
      <trkpt lat="47.72816" lon="3.59709">
        <ele>119.6</ele>
        <time>2022-04-03T12:38:33Z</time>
      </trkpt>
      <trkpt lat="47.72817" lon="3.59709">
        <ele>119.6</ele>
        <time>2022-04-03T12:38:34Z</time>
      </trkpt>
      <trkpt lat="47.72818" lon="3.59708">
        <ele>119.6</ele>
        <time>2022-04-03T12:38:35Z</time>
      </trkpt>
      <trkpt lat="47.72819" lon="3.59706">
        <ele>119.6</ele>
        <time>2022-04-03T12:38:36Z</time>
      </trkpt>
      <trkpt lat="47.72819" lon="3.59705">
        <ele>119.6</ele>
        <time>2022-04-03T12:38:37Z</time>
      </trkpt>
      <trkpt lat="47.7282" lon="3.59704">
        <ele>119.7</ele>
        <time>2022-04-03T12:38:38Z</time>
      </trkpt>
      <trkpt lat="47.72821" lon="3.59702">
        <ele>119.7</ele>
        <time>2022-04-03T12:38:39Z</time>
      </trkpt>
      <trkpt lat="47.72822" lon="3.59701">
        <ele>119.7</ele>
        <time>2022-04-03T12:38:40Z</time>
      </trkpt>
      <trkpt lat="47.72822" lon="3.597">
        <ele>119.7</ele>
        <time>2022-04-03T12:38:42Z</time>
      </trkpt>
      <trkpt lat="47.72823" lon="3.59699">
        <ele>119.7</ele>
        <time>2022-04-03T12:38:43Z</time>
      </trkpt>
      <trkpt lat="47.72824" lon="3.59698">
        <ele>119.8</ele>
        <time>2022-04-03T12:38:44Z</time>
      </trkpt>
      <trkpt lat="47.72825" lon="3.59697">
        <ele>119.8</ele>
        <time>2022-04-03T12:38:45Z</time>
      </trkpt>
      <trkpt lat="47.72826" lon="3.59696">
        <ele>119.8</ele>
        <time>2022-04-03T12:38:46Z</time>
      </trkpt>
      <trkpt lat="47.72827" lon="3.59696">
        <ele>119.8</ele>
        <time>2022-04-03T12:38:47Z</time>
      </trkpt>
      <trkpt lat="47.72828" lon="3.59696">
        <ele>119.8</ele>
        <time>2022-04-03T12:38:49Z</time>
      </trkpt>
      <trkpt lat="47.72829" lon="3.59695">
        <ele>119.9</ele>
        <time>2022-04-03T12:38:50Z</time>
      </trkpt>
      <trkpt lat="47.7283" lon="3.59694">
        <ele>119.9</ele>
        <time>2022-04-03T12:38:51Z</time>
      </trkpt>
      <trkpt lat="47.7283" lon="3.59693">
        <ele>119.9</ele>
        <time>2022-04-03T12:38:52Z</time>
      </trkpt>
      <trkpt lat="47.72831" lon="3.59691">
        <ele>119.9</ele>
        <time>2022-04-03T12:38:53Z</time>
      </trkpt>
      <trkpt lat="47.72832" lon="3.5969">
        <ele>119.9</ele>
        <time>2022-04-03T12:38:54Z</time>
      </trkpt>
      <trkpt lat="47.72832" lon="3.59688">
        <ele>120</ele>
        <time>2022-04-03T12:38:55Z</time>
      </trkpt>
      <trkpt lat="47.72833" lon="3.59688">
        <ele>120</ele>
        <time>2022-04-03T12:38:56Z</time>
      </trkpt>
      <trkpt lat="47.72834" lon="3.59687">
        <ele>120</ele>
        <time>2022-04-03T12:38:58Z</time>
      </trkpt>
      <trkpt lat="47.72835" lon="3.59686">
        <ele>120</ele>
        <time>2022-04-03T12:38:59Z</time>
      </trkpt>
      <trkpt lat="47.72837" lon="3.59684">
        <ele>120.1</ele>
        <time>2022-04-03T12:39:00Z</time>
      </trkpt>
      <trkpt lat="47.72838" lon="3.59683">
        <ele>120.1</ele>
        <time>2022-04-03T12:39:01Z</time>
      </trkpt>
      <trkpt lat="47.72839" lon="3.59682">
        <ele>120.1</ele>
        <time>2022-04-03T12:39:02Z</time>
      </trkpt>
      <trkpt lat="47.7284" lon="3.59681">
        <ele>120.1</ele>
        <time>2022-04-03T12:39:03Z</time>
      </trkpt>
      <trkpt lat="47.7284" lon="3.59679">
        <ele>120.2</ele>
        <time>2022-04-03T12:39:05Z</time>
      </trkpt>
      <trkpt lat="47.72841" lon="3.59677">
        <ele>120.2</ele>
        <time>2022-04-03T12:39:06Z</time>
      </trkpt>
      <trkpt lat="47.72842" lon="3.59676">
        <ele>120.2</ele>
        <time>2022-04-03T12:39:07Z</time>
      </trkpt>
      <trkpt lat="47.72844" lon="3.59675">
        <ele>120.2</ele>
        <time>2022-04-03T12:39:08Z</time>
      </trkpt>
      <trkpt lat="47.72845" lon="3.59674">
        <ele>120.3</ele>
        <time>2022-04-03T12:39:09Z</time>
      </trkpt>
      <trkpt lat="47.72847" lon="3.59674">
        <ele>120.3</ele>
        <time>2022-04-03T12:39:10Z</time>
      </trkpt>
      <trkpt lat="47.72848" lon="3.59673">
        <ele>120.3</ele>
        <time>2022-04-03T12:39:11Z</time>
      </trkpt>
      <trkpt lat="47.7285" lon="3.59671">
        <ele>120.4</ele>
        <time>2022-04-03T12:39:13Z</time>
      </trkpt>
      <trkpt lat="47.72851" lon="3.59671">
        <ele>120.4</ele>
        <time>2022-04-03T12:39:14Z</time>
      </trkpt>
      <trkpt lat="47.72851" lon="3.5967">
        <ele>120.4</ele>
        <time>2022-04-03T12:39:15Z</time>
      </trkpt>
      <trkpt lat="47.72852" lon="3.59668">
        <ele>120.5</ele>
        <time>2022-04-03T12:39:16Z</time>
      </trkpt>
      <trkpt lat="47.72853" lon="3.59666">
        <ele>120.5</ele>
        <time>2022-04-03T12:39:17Z</time>
      </trkpt>
      <trkpt lat="47.72855" lon="3.59665">
        <ele>120.5</ele>
        <time>2022-04-03T12:39:18Z</time>
      </trkpt>
      <trkpt lat="47.72856" lon="3.59664">
        <ele>120.5</ele>
        <time>2022-04-03T12:39:19Z</time>
      </trkpt>
      <trkpt lat="47.72856" lon="3.59663">
        <ele>120.6</ele>
        <time>2022-04-03T12:39:20Z</time>
      </trkpt>
      <trkpt lat="47.72857" lon="3.59662">
        <ele>120.6</ele>
        <time>2022-04-03T12:39:21Z</time>
      </trkpt>
      <trkpt lat="47.72859" lon="3.59661">
        <ele>120.6</ele>
        <time>2022-04-03T12:39:22Z</time>
      </trkpt>
      <trkpt lat="47.7286" lon="3.5966">
        <ele>120.7</ele>
        <time>2022-04-03T12:39:24Z</time>
      </trkpt>
      <trkpt lat="47.72861" lon="3.59659">
        <ele>120.7</ele>
        <time>2022-04-03T12:39:25Z</time>
      </trkpt>
      <trkpt lat="47.72862" lon="3.59658">
        <ele>120.7</ele>
        <time>2022-04-03T12:39:26Z</time>
      </trkpt>
      <trkpt lat="47.72863" lon="3.59656">
        <ele>120.8</ele>
        <time>2022-04-03T12:39:27Z</time>
      </trkpt>
      <trkpt lat="47.72864" lon="3.59655">
        <ele>120.8</ele>
        <time>2022-04-03T12:39:29Z</time>
      </trkpt>
      <trkpt lat="47.72866" lon="3.59654">
        <ele>120.8</ele>
        <time>2022-04-03T12:39:30Z</time>
      </trkpt>
      <trkpt lat="47.72867" lon="3.59653">
        <ele>120.9</ele>
        <time>2022-04-03T12:39:31Z</time>
      </trkpt>
      <trkpt lat="47.72868" lon="3.59652">
        <ele>120.9</ele>
        <time>2022-04-03T12:39:32Z</time>
      </trkpt>
      <trkpt lat="47.72869" lon="3.5965">
        <ele>120.9</ele>
        <time>2022-04-03T12:39:33Z</time>
      </trkpt>
      <trkpt lat="47.7287" lon="3.59649">
        <ele>121</ele>
        <time>2022-04-03T12:39:34Z</time>
      </trkpt>
      <trkpt lat="47.72871" lon="3.59647">
        <ele>121</ele>
        <time>2022-04-03T12:39:36Z</time>
      </trkpt>
      <trkpt lat="47.72872" lon="3.59646">
        <ele>121</ele>
        <time>2022-04-03T12:39:37Z</time>
      </trkpt>
      <trkpt lat="47.72873" lon="3.59643">
        <ele>121</ele>
        <time>2022-04-03T12:39:38Z</time>
      </trkpt>
      <trkpt lat="47.72874" lon="3.59642">
        <ele>121</ele>
        <time>2022-04-03T12:39:39Z</time>
      </trkpt>
      <trkpt lat="47.72875" lon="3.5964">
        <ele>121.1</ele>
        <time>2022-04-03T12:39:40Z</time>
      </trkpt>
      <trkpt lat="47.72876" lon="3.59638">
        <ele>121.1</ele>
        <time>2022-04-03T12:39:41Z</time>
      </trkpt>
      <trkpt lat="47.72877" lon="3.59636">
        <ele>121.1</ele>
        <time>2022-04-03T12:39:43Z</time>
      </trkpt>
      <trkpt lat="47.72878" lon="3.59635">
        <ele>121.1</ele>
        <time>2022-04-03T12:39:44Z</time>
      </trkpt>
      <trkpt lat="47.72879" lon="3.59633">
        <ele>121.1</ele>
        <time>2022-04-03T12:39:45Z</time>
      </trkpt>
      <trkpt lat="47.7288" lon="3.59631">
        <ele>121.2</ele>
        <time>2022-04-03T12:39:46Z</time>
      </trkpt>
      <trkpt lat="47.72881" lon="3.5963">
        <ele>121.2</ele>
        <time>2022-04-03T12:39:47Z</time>
      </trkpt>
      <trkpt lat="47.72881" lon="3.59629">
        <ele>121.2</ele>
        <time>2022-04-03T12:39:48Z</time>
      </trkpt>
      <trkpt lat="47.72882" lon="3.59628">
        <ele>121.2</ele>
        <time>2022-04-03T12:39:49Z</time>
      </trkpt>
      <trkpt lat="47.72883" lon="3.59626">
        <ele>121.2</ele>
        <time>2022-04-03T12:39:50Z</time>
      </trkpt>
      <trkpt lat="47.72885" lon="3.59624">
        <ele>121.2</ele>
        <time>2022-04-03T12:39:51Z</time>
      </trkpt>
      <trkpt lat="47.72885" lon="3.59623">
        <ele>121.2</ele>
        <time>2022-04-03T12:39:53Z</time>
      </trkpt>
      <trkpt lat="47.72886" lon="3.59622">
        <ele>121.2</ele>
        <time>2022-04-03T12:39:54Z</time>
      </trkpt>
      <trkpt lat="47.72887" lon="3.59621">
        <ele>121.2</ele>
        <time>2022-04-03T12:39:55Z</time>
      </trkpt>
      <trkpt lat="47.72888" lon="3.5962">
        <ele>121.2</ele>
        <time>2022-04-03T12:39:56Z</time>
      </trkpt>
      <trkpt lat="47.72889" lon="3.59618">
        <ele>121.2</ele>
        <time>2022-04-03T12:39:57Z</time>
      </trkpt>
      <trkpt lat="47.7289" lon="3.59617">
        <ele>121.2</ele>
        <time>2022-04-03T12:39:58Z</time>
      </trkpt>
      <trkpt lat="47.72891" lon="3.59615">
        <ele>121.2</ele>
        <time>2022-04-03T12:39:59Z</time>
      </trkpt>
      <trkpt lat="47.72892" lon="3.59613">
        <ele>121.2</ele>
        <time>2022-04-03T12:40:01Z</time>
      </trkpt>
      <trkpt lat="47.72894" lon="3.59612">
        <ele>121.2</ele>
        <time>2022-04-03T12:40:02Z</time>
      </trkpt>
      <trkpt lat="47.72895" lon="3.5961">
        <ele>121.2</ele>
        <time>2022-04-03T12:40:03Z</time>
      </trkpt>
      <trkpt lat="47.72896" lon="3.59609">
        <ele>121.2</ele>
        <time>2022-04-03T12:40:04Z</time>
      </trkpt>
      <trkpt lat="47.72897" lon="3.59607">
        <ele>121.2</ele>
        <time>2022-04-03T12:40:05Z</time>
      </trkpt>
      <trkpt lat="47.72898" lon="3.59606">
        <ele>121.2</ele>
        <time>2022-04-03T12:40:06Z</time>
      </trkpt>
      <trkpt lat="47.72899" lon="3.59605">
        <ele>121.2</ele>
        <time>2022-04-03T12:40:07Z</time>
      </trkpt>
      <trkpt lat="47.729" lon="3.59604">
        <ele>121.2</ele>
        <time>2022-04-03T12:40:08Z</time>
      </trkpt>
      <trkpt lat="47.72902" lon="3.59603">
        <ele>121.1</ele>
        <time>2022-04-03T12:40:09Z</time>
      </trkpt>
      <trkpt lat="47.72904" lon="3.59601">
        <ele>121.1</ele>
        <time>2022-04-03T12:40:11Z</time>
      </trkpt>
      <trkpt lat="47.72905" lon="3.596">
        <ele>121.1</ele>
        <time>2022-04-03T12:40:12Z</time>
      </trkpt>
      <trkpt lat="47.72906" lon="3.59599">
        <ele>121.1</ele>
        <time>2022-04-03T12:40:13Z</time>
      </trkpt>
      <trkpt lat="47.72907" lon="3.59597">
        <ele>121.1</ele>
        <time>2022-04-03T12:40:14Z</time>
      </trkpt>
      <trkpt lat="47.72908" lon="3.59596">
        <ele>121</ele>
        <time>2022-04-03T12:40:15Z</time>
      </trkpt>
      <trkpt lat="47.72909" lon="3.59594">
        <ele>121</ele>
        <time>2022-04-03T12:40:16Z</time>
      </trkpt>
      <trkpt lat="47.72911" lon="3.59593">
        <ele>121</ele>
        <time>2022-04-03T12:40:18Z</time>
      </trkpt>
      <trkpt lat="47.72912" lon="3.59592">
        <ele>120.9</ele>
        <time>2022-04-03T12:40:19Z</time>
      </trkpt>
      <trkpt lat="47.72913" lon="3.5959">
        <ele>120.9</ele>
        <time>2022-04-03T12:40:20Z</time>
      </trkpt>
      <trkpt lat="47.72914" lon="3.59589">
        <ele>120.9</ele>
        <time>2022-04-03T12:40:21Z</time>
      </trkpt>
      <trkpt lat="47.72916" lon="3.59588">
        <ele>120.9</ele>
        <time>2022-04-03T12:40:22Z</time>
      </trkpt>
      <trkpt lat="47.72917" lon="3.59587">
        <ele>120.9</ele>
        <time>2022-04-03T12:40:23Z</time>
      </trkpt>
      <trkpt lat="47.72918" lon="3.59586">
        <ele>120.8</ele>
        <time>2022-04-03T12:40:25Z</time>
      </trkpt>
      <trkpt lat="47.72919" lon="3.59583">
        <ele>120.8</ele>
        <time>2022-04-03T12:40:26Z</time>
      </trkpt>
      <trkpt lat="47.72921" lon="3.59581">
        <ele>120.8</ele>
        <time>2022-04-03T12:40:27Z</time>
      </trkpt>
      <trkpt lat="47.72921" lon="3.5958">
        <ele>120.8</ele>
        <time>2022-04-03T12:40:28Z</time>
      </trkpt>
      <trkpt lat="47.72922" lon="3.59579">
        <ele>120.7</ele>
        <time>2022-04-03T12:40:29Z</time>
      </trkpt>
      <trkpt lat="47.72923" lon="3.59576">
        <ele>120.7</ele>
        <time>2022-04-03T12:40:30Z</time>
      </trkpt>
      <trkpt lat="47.72924" lon="3.59576">
        <ele>120.7</ele>
        <time>2022-04-03T12:40:31Z</time>
      </trkpt>
      <trkpt lat="47.72925" lon="3.59575">
        <ele>120.7</ele>
        <time>2022-04-03T12:40:32Z</time>
      </trkpt>
      <trkpt lat="47.72926" lon="3.59574">
        <ele>120.7</ele>
        <time>2022-04-03T12:40:33Z</time>
      </trkpt>
      <trkpt lat="47.72928" lon="3.59573">
        <ele>120.7</ele>
        <time>2022-04-03T12:40:35Z</time>
      </trkpt>
      <trkpt lat="47.72929" lon="3.59572">
        <ele>120.7</ele>
        <time>2022-04-03T12:40:36Z</time>
      </trkpt>
      <trkpt lat="47.7293" lon="3.59571">
        <ele>120.6</ele>
        <time>2022-04-03T12:40:37Z</time>
      </trkpt>
      <trkpt lat="47.72932" lon="3.59569">
        <ele>120.6</ele>
        <time>2022-04-03T12:40:38Z</time>
      </trkpt>
      <trkpt lat="47.72933" lon="3.59569">
        <ele>120.6</ele>
        <time>2022-04-03T12:40:39Z</time>
      </trkpt>
      <trkpt lat="47.72933" lon="3.59568">
        <ele>120.6</ele>
        <time>2022-04-03T12:40:40Z</time>
      </trkpt>
      <trkpt lat="47.72934" lon="3.59567">
        <ele>120.6</ele>
        <time>2022-04-03T12:40:41Z</time>
      </trkpt>
      <trkpt lat="47.72935" lon="3.59565">
        <ele>120.6</ele>
        <time>2022-04-03T12:40:42Z</time>
      </trkpt>
      <trkpt lat="47.72936" lon="3.59564">
        <ele>120.6</ele>
        <time>2022-04-03T12:40:44Z</time>
      </trkpt>
      <trkpt lat="47.72937" lon="3.59562">
        <ele>120.6</ele>
        <time>2022-04-03T12:40:45Z</time>
      </trkpt>
      <trkpt lat="47.72938" lon="3.59561">
        <ele>120.5</ele>
        <time>2022-04-03T12:40:46Z</time>
      </trkpt>
      <trkpt lat="47.7294" lon="3.5956">
        <ele>120.5</ele>
        <time>2022-04-03T12:40:47Z</time>
      </trkpt>
      <trkpt lat="47.72941" lon="3.59559">
        <ele>120.5</ele>
        <time>2022-04-03T12:40:48Z</time>
      </trkpt>
      <trkpt lat="47.72942" lon="3.59559">
        <ele>120.5</ele>
        <time>2022-04-03T12:40:49Z</time>
      </trkpt>
      <trkpt lat="47.72944" lon="3.59558">
        <ele>120.5</ele>
        <time>2022-04-03T12:40:50Z</time>
      </trkpt>
      <trkpt lat="47.72945" lon="3.59558">
        <ele>120.5</ele>
        <time>2022-04-03T12:40:51Z</time>
      </trkpt>
      <trkpt lat="47.72946" lon="3.59558">
        <ele>120.5</ele>
        <time>2022-04-03T12:40:52Z</time>
      </trkpt>
      <trkpt lat="47.72947" lon="3.59558">
        <ele>120.4</ele>
        <time>2022-04-03T12:40:54Z</time>
      </trkpt>
      <trkpt lat="47.72949" lon="3.59557">
        <ele>120.4</ele>
        <time>2022-04-03T12:40:55Z</time>
      </trkpt>
      <trkpt lat="47.7295" lon="3.59557">
        <ele>120.4</ele>
        <time>2022-04-03T12:40:56Z</time>
      </trkpt>
      <trkpt lat="47.72952" lon="3.59556">
        <ele>120.4</ele>
        <time>2022-04-03T12:40:57Z</time>
      </trkpt>
      <trkpt lat="47.72953" lon="3.59554">
        <ele>120.4</ele>
        <time>2022-04-03T12:40:58Z</time>
      </trkpt>
      <trkpt lat="47.72954" lon="3.59553">
        <ele>120.4</ele>
        <time>2022-04-03T12:41:00Z</time>
      </trkpt>
      <trkpt lat="47.72955" lon="3.59553">
        <ele>120.3</ele>
        <time>2022-04-03T12:41:01Z</time>
      </trkpt>
      <trkpt lat="47.72957" lon="3.59551">
        <ele>120.3</ele>
        <time>2022-04-03T12:41:02Z</time>
      </trkpt>
      <trkpt lat="47.72957" lon="3.5955">
        <ele>120.3</ele>
        <time>2022-04-03T12:41:03Z</time>
      </trkpt>
      <trkpt lat="47.72958" lon="3.5955">
        <ele>120.3</ele>
        <time>2022-04-03T12:41:04Z</time>
      </trkpt>
      <trkpt lat="47.72959" lon="3.59548">
        <ele>120.3</ele>
        <time>2022-04-03T12:41:05Z</time>
      </trkpt>
      <trkpt lat="47.7296" lon="3.59547">
        <ele>120.3</ele>
        <time>2022-04-03T12:41:06Z</time>
      </trkpt>
      <trkpt lat="47.72961" lon="3.59546">
        <ele>120.3</ele>
        <time>2022-04-03T12:41:07Z</time>
      </trkpt>
      <trkpt lat="47.72961" lon="3.59544">
        <ele>120.3</ele>
        <time>2022-04-03T12:41:08Z</time>
      </trkpt>
      <trkpt lat="47.72962" lon="3.59542">
        <ele>120.3</ele>
        <time>2022-04-03T12:41:10Z</time>
      </trkpt>
      <trkpt lat="47.72963" lon="3.59541">
        <ele>120.3</ele>
        <time>2022-04-03T12:41:11Z</time>
      </trkpt>
      <trkpt lat="47.72964" lon="3.59539">
        <ele>120.3</ele>
        <time>2022-04-03T12:41:12Z</time>
      </trkpt>
      <trkpt lat="47.72964" lon="3.59537">
        <ele>120.3</ele>
        <time>2022-04-03T12:41:13Z</time>
      </trkpt>
      <trkpt lat="47.72965" lon="3.59535">
        <ele>120.3</ele>
        <time>2022-04-03T12:41:14Z</time>
      </trkpt>
      <trkpt lat="47.72966" lon="3.59532">
        <ele>120.3</ele>
        <time>2022-04-03T12:41:15Z</time>
      </trkpt>
      <trkpt lat="47.72966" lon="3.59531">
        <ele>120.3</ele>
        <time>2022-04-03T12:41:16Z</time>
      </trkpt>
      <trkpt lat="47.72967" lon="3.5953">
        <ele>120.3</ele>
        <time>2022-04-03T12:41:17Z</time>
      </trkpt>
      <trkpt lat="47.72969" lon="3.59528">
        <ele>120.3</ele>
        <time>2022-04-03T12:41:18Z</time>
      </trkpt>
      <trkpt lat="47.72969" lon="3.59528">
        <ele>120.3</ele>
        <time>2022-04-03T12:41:19Z</time>
      </trkpt>
      <trkpt lat="47.7297" lon="3.59528">
        <ele>120.3</ele>
        <time>2022-04-03T12:41:20Z</time>
      </trkpt>
      <trkpt lat="47.72971" lon="3.59527">
        <ele>120.4</ele>
        <time>2022-04-03T12:41:21Z</time>
      </trkpt>
      <trkpt lat="47.72973" lon="3.59527">
        <ele>120.4</ele>
        <time>2022-04-03T12:41:23Z</time>
      </trkpt>
      <trkpt lat="47.72974" lon="3.59527">
        <ele>120.4</ele>
        <time>2022-04-03T12:41:24Z</time>
      </trkpt>
      <trkpt lat="47.72975" lon="3.59526">
        <ele>120.4</ele>
        <time>2022-04-03T12:41:25Z</time>
      </trkpt>
      <trkpt lat="47.72976" lon="3.59525">
        <ele>120.4</ele>
        <time>2022-04-03T12:41:26Z</time>
      </trkpt>
      <trkpt lat="47.72976" lon="3.59523">
        <ele>120.5</ele>
        <time>2022-04-03T12:41:27Z</time>
      </trkpt>
      <trkpt lat="47.72976" lon="3.59522">
        <ele>120.5</ele>
        <time>2022-04-03T12:41:28Z</time>
      </trkpt>
      <trkpt lat="47.72977" lon="3.5952">
        <ele>120.5</ele>
        <time>2022-04-03T12:41:29Z</time>
      </trkpt>
      <trkpt lat="47.72978" lon="3.59518">
        <ele>120.6</ele>
        <time>2022-04-03T12:41:30Z</time>
      </trkpt>
      <trkpt lat="47.72978" lon="3.59516">
        <ele>120.6</ele>
        <time>2022-04-03T12:41:32Z</time>
      </trkpt>
      <trkpt lat="47.72978" lon="3.59515">
        <ele>120.7</ele>
        <time>2022-04-03T12:41:33Z</time>
      </trkpt>
      <trkpt lat="47.7298" lon="3.59513">
        <ele>120.7</ele>
        <time>2022-04-03T12:41:34Z</time>
      </trkpt>
      <trkpt lat="47.7298" lon="3.59512">
        <ele>120.7</ele>
        <time>2022-04-03T12:41:35Z</time>
      </trkpt>
      <trkpt lat="47.7298" lon="3.59511">
        <ele>120.8</ele>
        <time>2022-04-03T12:41:36Z</time>
      </trkpt>
      <trkpt lat="47.72981" lon="3.59508">
        <ele>120.8</ele>
        <time>2022-04-03T12:41:37Z</time>
      </trkpt>
      <trkpt lat="47.72982" lon="3.59507">
        <ele>120.9</ele>
        <time>2022-04-03T12:41:38Z</time>
      </trkpt>
      <trkpt lat="47.72982" lon="3.59506">
        <ele>120.9</ele>
        <time>2022-04-03T12:41:39Z</time>
      </trkpt>
      <trkpt lat="47.72983" lon="3.59504">
        <ele>120.9</ele>
        <time>2022-04-03T12:41:41Z</time>
      </trkpt>
      <trkpt lat="47.72984" lon="3.59502">
        <ele>121</ele>
        <time>2022-04-03T12:41:42Z</time>
      </trkpt>
      <trkpt lat="47.72985" lon="3.59499">
        <ele>121.1</ele>
        <time>2022-04-03T12:41:44Z</time>
      </trkpt>
      <trkpt lat="47.72985" lon="3.59498">
        <ele>121.1</ele>
        <time>2022-04-03T12:41:45Z</time>
      </trkpt>
      <trkpt lat="47.72986" lon="3.59497">
        <ele>121.1</ele>
        <time>2022-04-03T12:41:46Z</time>
      </trkpt>
      <trkpt lat="47.72987" lon="3.59494">
        <ele>121.1</ele>
        <time>2022-04-03T12:41:47Z</time>
      </trkpt>
      <trkpt lat="47.72987" lon="3.59493">
        <ele>121.1</ele>
        <time>2022-04-03T12:41:48Z</time>
      </trkpt>
      <trkpt lat="47.72987" lon="3.59492">
        <ele>121.2</ele>
        <time>2022-04-03T12:41:49Z</time>
      </trkpt>
      <trkpt lat="47.72988" lon="3.5949">
        <ele>121.2</ele>
        <time>2022-04-03T12:41:51Z</time>
      </trkpt>
      <trkpt lat="47.72989" lon="3.59488">
        <ele>121.2</ele>
        <time>2022-04-03T12:41:52Z</time>
      </trkpt>
      <trkpt lat="47.7299" lon="3.59486">
        <ele>121.2</ele>
        <time>2022-04-03T12:41:53Z</time>
      </trkpt>
      <trkpt lat="47.72991" lon="3.59485">
        <ele>121.2</ele>
        <time>2022-04-03T12:41:54Z</time>
      </trkpt>
      <trkpt lat="47.72992" lon="3.59483">
        <ele>121.2</ele>
        <time>2022-04-03T12:41:55Z</time>
      </trkpt>
      <trkpt lat="47.72993" lon="3.59481">
        <ele>121.3</ele>
        <time>2022-04-03T12:41:56Z</time>
      </trkpt>
      <trkpt lat="47.72993" lon="3.5948">
        <ele>121.3</ele>
        <time>2022-04-03T12:41:58Z</time>
      </trkpt>
      <trkpt lat="47.72994" lon="3.59478">
        <ele>121.3</ele>
        <time>2022-04-03T12:41:59Z</time>
      </trkpt>
      <trkpt lat="47.72995" lon="3.59475">
        <ele>121.3</ele>
        <time>2022-04-03T12:42:00Z</time>
      </trkpt>
      <trkpt lat="47.72996" lon="3.59474">
        <ele>121.3</ele>
        <time>2022-04-03T12:42:01Z</time>
      </trkpt>
      <trkpt lat="47.72997" lon="3.59473">
        <ele>121.3</ele>
        <time>2022-04-03T12:42:02Z</time>
      </trkpt>
      <trkpt lat="47.72997" lon="3.59473">
        <ele>121.3</ele>
        <time>2022-04-03T12:42:03Z</time>
      </trkpt>
      <trkpt lat="47.72998" lon="3.59472">
        <ele>121.4</ele>
        <time>2022-04-03T12:42:04Z</time>
      </trkpt>
      <trkpt lat="47.72999" lon="3.59471">
        <ele>121.4</ele>
        <time>2022-04-03T12:42:05Z</time>
      </trkpt>
      <trkpt lat="47.73" lon="3.59469">
        <ele>121.4</ele>
        <time>2022-04-03T12:42:07Z</time>
      </trkpt>
      <trkpt lat="47.73002" lon="3.59469">
        <ele>121.4</ele>
        <time>2022-04-03T12:42:08Z</time>
      </trkpt>
      <trkpt lat="47.73003" lon="3.59469">
        <ele>121.4</ele>
        <time>2022-04-03T12:42:09Z</time>
      </trkpt>
      <trkpt lat="47.73005" lon="3.59468">
        <ele>121.5</ele>
        <time>2022-04-03T12:42:11Z</time>
      </trkpt>
      <trkpt lat="47.73007" lon="3.59468">
        <ele>121.5</ele>
        <time>2022-04-03T12:42:12Z</time>
      </trkpt>
      <trkpt lat="47.73008" lon="3.59467">
        <ele>121.5</ele>
        <time>2022-04-03T12:42:13Z</time>
      </trkpt>
      <trkpt lat="47.73009" lon="3.59466">
        <ele>121.5</ele>
        <time>2022-04-03T12:42:14Z</time>
      </trkpt>
      <trkpt lat="47.73011" lon="3.59464">
        <ele>121.6</ele>
        <time>2022-04-03T12:42:15Z</time>
      </trkpt>
      <trkpt lat="47.73012" lon="3.59464">
        <ele>121.6</ele>
        <time>2022-04-03T12:42:16Z</time>
      </trkpt>
      <trkpt lat="47.73014" lon="3.59463">
        <ele>121.6</ele>
        <time>2022-04-03T12:42:18Z</time>
      </trkpt>
      <trkpt lat="47.73015" lon="3.59462">
        <ele>121.6</ele>
        <time>2022-04-03T12:42:19Z</time>
      </trkpt>
      <trkpt lat="47.73017" lon="3.59462">
        <ele>121.6</ele>
        <time>2022-04-03T12:42:20Z</time>
      </trkpt>
      <trkpt lat="47.73018" lon="3.59461">
        <ele>121.6</ele>
        <time>2022-04-03T12:42:21Z</time>
      </trkpt>
      <trkpt lat="47.73019" lon="3.5946">
        <ele>121.6</ele>
        <time>2022-04-03T12:42:22Z</time>
      </trkpt>
      <trkpt lat="47.7302" lon="3.59458">
        <ele>121.6</ele>
        <time>2022-04-03T12:42:23Z</time>
      </trkpt>
      <trkpt lat="47.73021" lon="3.59456">
        <ele>121.6</ele>
        <time>2022-04-03T12:42:24Z</time>
      </trkpt>
      <trkpt lat="47.73021" lon="3.59455">
        <ele>121.6</ele>
        <time>2022-04-03T12:42:25Z</time>
      </trkpt>
      <trkpt lat="47.73022" lon="3.59452">
        <ele>121.6</ele>
        <time>2022-04-03T12:42:26Z</time>
      </trkpt>
      <trkpt lat="47.73023" lon="3.59448">
        <ele>121.7</ele>
        <time>2022-04-03T12:42:28Z</time>
      </trkpt>
      <trkpt lat="47.73024" lon="3.59447">
        <ele>121.7</ele>
        <time>2022-04-03T12:42:29Z</time>
      </trkpt>
      <trkpt lat="47.73024" lon="3.59446">
        <ele>121.7</ele>
        <time>2022-04-03T12:42:30Z</time>
      </trkpt>
      <trkpt lat="47.73025" lon="3.59445">
        <ele>121.7</ele>
        <time>2022-04-03T12:42:31Z</time>
      </trkpt>
      <trkpt lat="47.73027" lon="3.59444">
        <ele>121.7</ele>
        <time>2022-04-03T12:42:33Z</time>
      </trkpt>
      <trkpt lat="47.73028" lon="3.59442">
        <ele>121.7</ele>
        <time>2022-04-03T12:42:34Z</time>
      </trkpt>
      <trkpt lat="47.73029" lon="3.5944">
        <ele>121.7</ele>
        <time>2022-04-03T12:42:35Z</time>
      </trkpt>
      <trkpt lat="47.7303" lon="3.59439">
        <ele>121.7</ele>
        <time>2022-04-03T12:42:37Z</time>
      </trkpt>
      <trkpt lat="47.73031" lon="3.59437">
        <ele>121.8</ele>
        <time>2022-04-03T12:42:38Z</time>
      </trkpt>
      <trkpt lat="47.73032" lon="3.59434">
        <ele>121.8</ele>
        <time>2022-04-03T12:42:39Z</time>
      </trkpt>
      <trkpt lat="47.73033" lon="3.59433">
        <ele>121.8</ele>
        <time>2022-04-03T12:42:40Z</time>
      </trkpt>
      <trkpt lat="47.73033" lon="3.59432">
        <ele>121.8</ele>
        <time>2022-04-03T12:42:41Z</time>
      </trkpt>
      <trkpt lat="47.73034" lon="3.5943">
        <ele>121.8</ele>
        <time>2022-04-03T12:42:42Z</time>
      </trkpt>
      <trkpt lat="47.73035" lon="3.59429">
        <ele>121.9</ele>
        <time>2022-04-03T12:42:43Z</time>
      </trkpt>
      <trkpt lat="47.73036" lon="3.59428">
        <ele>121.9</ele>
        <time>2022-04-03T12:42:44Z</time>
      </trkpt>
      <trkpt lat="47.73037" lon="3.59427">
        <ele>121.9</ele>
        <time>2022-04-03T12:42:45Z</time>
      </trkpt>
      <trkpt lat="47.73038" lon="3.59426">
        <ele>121.9</ele>
        <time>2022-04-03T12:42:46Z</time>
      </trkpt>
      <trkpt lat="47.7304" lon="3.59422">
        <ele>122</ele>
        <time>2022-04-03T12:42:48Z</time>
      </trkpt>
      <trkpt lat="47.7304" lon="3.59421">
        <ele>122</ele>
        <time>2022-04-03T12:42:49Z</time>
      </trkpt>
      <trkpt lat="47.73041" lon="3.5942">
        <ele>122</ele>
        <time>2022-04-03T12:42:50Z</time>
      </trkpt>
      <trkpt lat="47.73042" lon="3.59418">
        <ele>122</ele>
        <time>2022-04-03T12:42:51Z</time>
      </trkpt>
      <trkpt lat="47.73042" lon="3.59416">
        <ele>122.1</ele>
        <time>2022-04-03T12:42:52Z</time>
      </trkpt>
      <trkpt lat="47.73043" lon="3.59414">
        <ele>122.1</ele>
        <time>2022-04-03T12:42:54Z</time>
      </trkpt>
      <trkpt lat="47.73044" lon="3.59413">
        <ele>122.1</ele>
        <time>2022-04-03T12:42:55Z</time>
      </trkpt>
      <trkpt lat="47.73045" lon="3.59411">
        <ele>122.1</ele>
        <time>2022-04-03T12:42:56Z</time>
      </trkpt>
      <trkpt lat="47.73046" lon="3.59409">
        <ele>122.1</ele>
        <time>2022-04-03T12:42:57Z</time>
      </trkpt>
      <trkpt lat="47.73047" lon="3.59408">
        <ele>122.1</ele>
        <time>2022-04-03T12:42:58Z</time>
      </trkpt>
      <trkpt lat="47.73048" lon="3.59407">
        <ele>122.2</ele>
        <time>2022-04-03T12:42:59Z</time>
      </trkpt>
      <trkpt lat="47.73049" lon="3.59406">
        <ele>122.2</ele>
        <time>2022-04-03T12:43:00Z</time>
      </trkpt>
      <trkpt lat="47.73051" lon="3.59404">
        <ele>122.2</ele>
        <time>2022-04-03T12:43:01Z</time>
      </trkpt>
      <trkpt lat="47.73052" lon="3.59403">
        <ele>122.2</ele>
        <time>2022-04-03T12:43:02Z</time>
      </trkpt>
      <trkpt lat="47.73054" lon="3.59402">
        <ele>122.3</ele>
        <time>2022-04-03T12:43:03Z</time>
      </trkpt>
      <trkpt lat="47.73055" lon="3.59402">
        <ele>122.3</ele>
        <time>2022-04-03T12:43:04Z</time>
      </trkpt>
      <trkpt lat="47.73056" lon="3.59401">
        <ele>122.3</ele>
        <time>2022-04-03T12:43:05Z</time>
      </trkpt>
      <trkpt lat="47.73057" lon="3.594">
        <ele>122.3</ele>
        <time>2022-04-03T12:43:07Z</time>
      </trkpt>
      <trkpt lat="47.73059" lon="3.59399">
        <ele>122.4</ele>
        <time>2022-04-03T12:43:08Z</time>
      </trkpt>
      <trkpt lat="47.73061" lon="3.59398">
        <ele>122.4</ele>
        <time>2022-04-03T12:43:09Z</time>
      </trkpt>
      <trkpt lat="47.73062" lon="3.59397">
        <ele>122.4</ele>
        <time>2022-04-03T12:43:10Z</time>
      </trkpt>
      <trkpt lat="47.73063" lon="3.59396">
        <ele>122.4</ele>
        <time>2022-04-03T12:43:11Z</time>
      </trkpt>
      <trkpt lat="47.73064" lon="3.59395">
        <ele>122.5</ele>
        <time>2022-04-03T12:43:13Z</time>
      </trkpt>
      <trkpt lat="47.73066" lon="3.59393">
        <ele>122.5</ele>
        <time>2022-04-03T12:43:14Z</time>
      </trkpt>
      <trkpt lat="47.73067" lon="3.59391">
        <ele>122.5</ele>
        <time>2022-04-03T12:43:15Z</time>
      </trkpt>
      <trkpt lat="47.73068" lon="3.5939">
        <ele>122.6</ele>
        <time>2022-04-03T12:43:16Z</time>
      </trkpt>
      <trkpt lat="47.73069" lon="3.59388">
        <ele>122.6</ele>
        <time>2022-04-03T12:43:17Z</time>
      </trkpt>
      <trkpt lat="47.7307" lon="3.59387">
        <ele>122.6</ele>
        <time>2022-04-03T12:43:18Z</time>
      </trkpt>
      <trkpt lat="47.73071" lon="3.59385">
        <ele>122.6</ele>
        <time>2022-04-03T12:43:19Z</time>
      </trkpt>
      <trkpt lat="47.73072" lon="3.59384">
        <ele>122.7</ele>
        <time>2022-04-03T12:43:21Z</time>
      </trkpt>
      <trkpt lat="47.73073" lon="3.59383">
        <ele>122.7</ele>
        <time>2022-04-03T12:43:22Z</time>
      </trkpt>
      <trkpt lat="47.73074" lon="3.59381">
        <ele>122.7</ele>
        <time>2022-04-03T12:43:23Z</time>
      </trkpt>
      <trkpt lat="47.73076" lon="3.59379">
        <ele>122.8</ele>
        <time>2022-04-03T12:43:24Z</time>
      </trkpt>
      <trkpt lat="47.73077" lon="3.59378">
        <ele>122.8</ele>
        <time>2022-04-03T12:43:25Z</time>
      </trkpt>
      <trkpt lat="47.73077" lon="3.59376">
        <ele>122.8</ele>
        <time>2022-04-03T12:43:26Z</time>
      </trkpt>
      <trkpt lat="47.73078" lon="3.59375">
        <ele>122.8</ele>
        <time>2022-04-03T12:43:27Z</time>
      </trkpt>
      <trkpt lat="47.73079" lon="3.59373">
        <ele>122.9</ele>
        <time>2022-04-03T12:43:28Z</time>
      </trkpt>
      <trkpt lat="47.73081" lon="3.5937">
        <ele>122.9</ele>
        <time>2022-04-03T12:43:30Z</time>
      </trkpt>
      <trkpt lat="47.73081" lon="3.59369">
        <ele>122.9</ele>
        <time>2022-04-03T12:43:31Z</time>
      </trkpt>
      <trkpt lat="47.73082" lon="3.59366">
        <ele>122.9</ele>
        <time>2022-04-03T12:43:32Z</time>
      </trkpt>
      <trkpt lat="47.73083" lon="3.59365">
        <ele>123</ele>
        <time>2022-04-03T12:43:33Z</time>
      </trkpt>
      <trkpt lat="47.73083" lon="3.59364">
        <ele>123</ele>
        <time>2022-04-03T12:43:34Z</time>
      </trkpt>
      <trkpt lat="47.73083" lon="3.59363">
        <ele>123</ele>
        <time>2022-04-03T12:43:35Z</time>
      </trkpt>
      <trkpt lat="47.73084" lon="3.5936">
        <ele>123</ele>
        <time>2022-04-03T12:43:37Z</time>
      </trkpt>
      <trkpt lat="47.73085" lon="3.59359">
        <ele>123</ele>
        <time>2022-04-03T12:43:38Z</time>
      </trkpt>
      <trkpt lat="47.73086" lon="3.59357">
        <ele>123</ele>
        <time>2022-04-03T12:43:39Z</time>
      </trkpt>
      <trkpt lat="47.73087" lon="3.59355">
        <ele>123.1</ele>
        <time>2022-04-03T12:43:40Z</time>
      </trkpt>
      <trkpt lat="47.73087" lon="3.59353">
        <ele>123.1</ele>
        <time>2022-04-03T12:43:41Z</time>
      </trkpt>
      <trkpt lat="47.73088" lon="3.59351">
        <ele>123.1</ele>
        <time>2022-04-03T12:43:42Z</time>
      </trkpt>
      <trkpt lat="47.73089" lon="3.59349">
        <ele>123.1</ele>
        <time>2022-04-03T12:43:44Z</time>
      </trkpt>
      <trkpt lat="47.73089" lon="3.59347">
        <ele>123.1</ele>
        <time>2022-04-03T12:43:45Z</time>
      </trkpt>
      <trkpt lat="47.7309" lon="3.59345">
        <ele>123.1</ele>
        <time>2022-04-03T12:43:46Z</time>
      </trkpt>
      <trkpt lat="47.73091" lon="3.59344">
        <ele>123.2</ele>
        <time>2022-04-03T12:43:47Z</time>
      </trkpt>
      <trkpt lat="47.73092" lon="3.59342">
        <ele>123.2</ele>
        <time>2022-04-03T12:43:48Z</time>
      </trkpt>
      <trkpt lat="47.73093" lon="3.59341">
        <ele>123.2</ele>
        <time>2022-04-03T12:43:50Z</time>
      </trkpt>
      <trkpt lat="47.73095" lon="3.59339">
        <ele>123.2</ele>
        <time>2022-04-03T12:43:51Z</time>
      </trkpt>
      <trkpt lat="47.73095" lon="3.59338">
        <ele>123.2</ele>
        <time>2022-04-03T12:43:52Z</time>
      </trkpt>
      <trkpt lat="47.73096" lon="3.59336">
        <ele>123.2</ele>
        <time>2022-04-03T12:43:53Z</time>
      </trkpt>
      <trkpt lat="47.73097" lon="3.59334">
        <ele>123.2</ele>
        <time>2022-04-03T12:43:54Z</time>
      </trkpt>
      <trkpt lat="47.73098" lon="3.59333">
        <ele>123.2</ele>
        <time>2022-04-03T12:43:55Z</time>
      </trkpt>
      <trkpt lat="47.73099" lon="3.59331">
        <ele>123.2</ele>
        <time>2022-04-03T12:43:56Z</time>
      </trkpt>
      <trkpt lat="47.73101" lon="3.59329">
        <ele>123.3</ele>
        <time>2022-04-03T12:43:57Z</time>
      </trkpt>
      <trkpt lat="47.73101" lon="3.59328">
        <ele>123.3</ele>
        <time>2022-04-03T12:43:58Z</time>
      </trkpt>
      <trkpt lat="47.73102" lon="3.59327">
        <ele>123.3</ele>
        <time>2022-04-03T12:43:59Z</time>
      </trkpt>
      <trkpt lat="47.73103" lon="3.59325">
        <ele>123.3</ele>
        <time>2022-04-03T12:44:00Z</time>
      </trkpt>
      <trkpt lat="47.73104" lon="3.59324">
        <ele>123.3</ele>
        <time>2022-04-03T12:44:01Z</time>
      </trkpt>
      <trkpt lat="47.73104" lon="3.59323">
        <ele>123.3</ele>
        <time>2022-04-03T12:44:02Z</time>
      </trkpt>
      <trkpt lat="47.73105" lon="3.59321">
        <ele>123.3</ele>
        <time>2022-04-03T12:44:03Z</time>
      </trkpt>
      <trkpt lat="47.73106" lon="3.59319">
        <ele>123.3</ele>
        <time>2022-04-03T12:44:04Z</time>
      </trkpt>
      <trkpt lat="47.73107" lon="3.59317">
        <ele>123.3</ele>
        <time>2022-04-03T12:44:06Z</time>
      </trkpt>
      <trkpt lat="47.73107" lon="3.59315">
        <ele>123.3</ele>
        <time>2022-04-03T12:44:07Z</time>
      </trkpt>
      <trkpt lat="47.73108" lon="3.59312">
        <ele>123.4</ele>
        <time>2022-04-03T12:44:08Z</time>
      </trkpt>
      <trkpt lat="47.73109" lon="3.59311">
        <ele>123.4</ele>
        <time>2022-04-03T12:44:09Z</time>
      </trkpt>
      <trkpt lat="47.73109" lon="3.5931">
        <ele>123.4</ele>
        <time>2022-04-03T12:44:10Z</time>
      </trkpt>
      <trkpt lat="47.7311" lon="3.59308">
        <ele>123.4</ele>
        <time>2022-04-03T12:44:11Z</time>
      </trkpt>
      <trkpt lat="47.73111" lon="3.59306">
        <ele>123.4</ele>
        <time>2022-04-03T12:44:13Z</time>
      </trkpt>
      <trkpt lat="47.73113" lon="3.59303">
        <ele>123.4</ele>
        <time>2022-04-03T12:44:14Z</time>
      </trkpt>
      <trkpt lat="47.73113" lon="3.59302">
        <ele>123.4</ele>
        <time>2022-04-03T12:44:16Z</time>
      </trkpt>
      <trkpt lat="47.73114" lon="3.593">
        <ele>123.4</ele>
        <time>2022-04-03T12:44:17Z</time>
      </trkpt>
      <trkpt lat="47.73115" lon="3.59298">
        <ele>123.4</ele>
        <time>2022-04-03T12:44:18Z</time>
      </trkpt>
      <trkpt lat="47.73115" lon="3.59295">
        <ele>123.5</ele>
        <time>2022-04-03T12:44:19Z</time>
      </trkpt>
      <trkpt lat="47.73116" lon="3.59295">
        <ele>123.5</ele>
        <time>2022-04-03T12:44:20Z</time>
      </trkpt>
      <trkpt lat="47.73116" lon="3.59293">
        <ele>123.5</ele>
        <time>2022-04-03T12:44:21Z</time>
      </trkpt>
      <trkpt lat="47.73116" lon="3.59291">
        <ele>123.5</ele>
        <time>2022-04-03T12:44:22Z</time>
      </trkpt>
      <trkpt lat="47.73117" lon="3.59289">
        <ele>123.5</ele>
        <time>2022-04-03T12:44:24Z</time>
      </trkpt>
      <trkpt lat="47.73117" lon="3.59287">
        <ele>123.5</ele>
        <time>2022-04-03T12:44:25Z</time>
      </trkpt>
      <trkpt lat="47.73117" lon="3.59284">
        <ele>123.5</ele>
        <time>2022-04-03T12:44:26Z</time>
      </trkpt>
      <trkpt lat="47.73118" lon="3.59281">
        <ele>123.6</ele>
        <time>2022-04-03T12:44:27Z</time>
      </trkpt>
      <trkpt lat="47.73118" lon="3.5928">
        <ele>123.6</ele>
        <time>2022-04-03T12:44:28Z</time>
      </trkpt>
      <trkpt lat="47.73119" lon="3.59278">
        <ele>123.6</ele>
        <time>2022-04-03T12:44:29Z</time>
      </trkpt>
      <trkpt lat="47.73119" lon="3.59277">
        <ele>123.6</ele>
        <time>2022-04-03T12:44:30Z</time>
      </trkpt>
      <trkpt lat="47.73119" lon="3.59275">
        <ele>123.6</ele>
        <time>2022-04-03T12:44:31Z</time>
      </trkpt>
      <trkpt lat="47.7312" lon="3.59274">
        <ele>123.6</ele>
        <time>2022-04-03T12:44:32Z</time>
      </trkpt>
      <trkpt lat="47.73121" lon="3.5927">
        <ele>123.7</ele>
        <time>2022-04-03T12:44:33Z</time>
      </trkpt>
      <trkpt lat="47.73121" lon="3.59269">
        <ele>123.7</ele>
        <time>2022-04-03T12:44:34Z</time>
      </trkpt>
      <trkpt lat="47.73121" lon="3.59267">
        <ele>123.7</ele>
        <time>2022-04-03T12:44:35Z</time>
      </trkpt>
      <trkpt lat="47.73121" lon="3.59266">
        <ele>123.7</ele>
        <time>2022-04-03T12:44:36Z</time>
      </trkpt>
      <trkpt lat="47.73122" lon="3.59263">
        <ele>123.7</ele>
        <time>2022-04-03T12:44:38Z</time>
      </trkpt>
      <trkpt lat="47.73122" lon="3.59261">
        <ele>123.7</ele>
        <time>2022-04-03T12:44:39Z</time>
      </trkpt>
      <trkpt lat="47.73122" lon="3.59259">
        <ele>123.7</ele>
        <time>2022-04-03T12:44:40Z</time>
      </trkpt>
      <trkpt lat="47.73123" lon="3.59254">
        <ele>123.8</ele>
        <time>2022-04-03T12:44:42Z</time>
      </trkpt>
      <trkpt lat="47.73123" lon="3.59253">
        <ele>123.8</ele>
        <time>2022-04-03T12:44:43Z</time>
      </trkpt>
      <trkpt lat="47.73124" lon="3.59249">
        <ele>123.8</ele>
        <time>2022-04-03T12:44:45Z</time>
      </trkpt>
      <trkpt lat="47.73125" lon="3.59246">
        <ele>123.8</ele>
        <time>2022-04-03T12:44:47Z</time>
      </trkpt>
      <trkpt lat="47.73126" lon="3.59243">
        <ele>123.8</ele>
        <time>2022-04-03T12:44:48Z</time>
      </trkpt>
      <trkpt lat="47.73126" lon="3.59242">
        <ele>123.8</ele>
        <time>2022-04-03T12:44:49Z</time>
      </trkpt>
      <trkpt lat="47.73127" lon="3.5924">
        <ele>123.8</ele>
        <time>2022-04-03T12:44:50Z</time>
      </trkpt>
      <trkpt lat="47.73128" lon="3.59238">
        <ele>123.9</ele>
        <time>2022-04-03T12:44:51Z</time>
      </trkpt>
      <trkpt lat="47.73128" lon="3.59236">
        <ele>123.9</ele>
        <time>2022-04-03T12:44:52Z</time>
      </trkpt>
      <trkpt lat="47.73128" lon="3.59233">
        <ele>123.9</ele>
        <time>2022-04-03T12:44:53Z</time>
      </trkpt>
      <trkpt lat="47.73129" lon="3.59232">
        <ele>123.9</ele>
        <time>2022-04-03T12:44:54Z</time>
      </trkpt>
      <trkpt lat="47.73129" lon="3.59229">
        <ele>123.9</ele>
        <time>2022-04-03T12:44:56Z</time>
      </trkpt>
      <trkpt lat="47.73129" lon="3.59227">
        <ele>123.9</ele>
        <time>2022-04-03T12:44:57Z</time>
      </trkpt>
      <trkpt lat="47.73129" lon="3.59224">
        <ele>124</ele>
        <time>2022-04-03T12:44:58Z</time>
      </trkpt>
      <trkpt lat="47.7313" lon="3.59223">
        <ele>124</ele>
        <time>2022-04-03T12:44:59Z</time>
      </trkpt>
      <trkpt lat="47.7313" lon="3.59221">
        <ele>124</ele>
        <time>2022-04-03T12:45:00Z</time>
      </trkpt>
      <trkpt lat="47.7313" lon="3.59219">
        <ele>124</ele>
        <time>2022-04-03T12:45:01Z</time>
      </trkpt>
      <trkpt lat="47.7313" lon="3.59218">
        <ele>124</ele>
        <time>2022-04-03T12:45:02Z</time>
      </trkpt>
      <trkpt lat="47.73131" lon="3.59216">
        <ele>124</ele>
        <time>2022-04-03T12:45:03Z</time>
      </trkpt>
      <trkpt lat="47.73131" lon="3.59214">
        <ele>124</ele>
        <time>2022-04-03T12:45:04Z</time>
      </trkpt>
      <trkpt lat="47.73132" lon="3.59212">
        <ele>124.1</ele>
        <time>2022-04-03T12:45:05Z</time>
      </trkpt>
      <trkpt lat="47.73132" lon="3.5921">
        <ele>124.1</ele>
        <time>2022-04-03T12:45:06Z</time>
      </trkpt>
      <trkpt lat="47.73132" lon="3.59207">
        <ele>124.1</ele>
        <time>2022-04-03T12:45:08Z</time>
      </trkpt>
      <trkpt lat="47.73133" lon="3.59204">
        <ele>124.1</ele>
        <time>2022-04-03T12:45:09Z</time>
      </trkpt>
      <trkpt lat="47.73133" lon="3.59203">
        <ele>124.1</ele>
        <time>2022-04-03T12:45:10Z</time>
      </trkpt>
      <trkpt lat="47.73133" lon="3.59201">
        <ele>124.1</ele>
        <time>2022-04-03T12:45:11Z</time>
      </trkpt>
      <trkpt lat="47.73133" lon="3.59196">
        <ele>124.1</ele>
        <time>2022-04-03T12:45:13Z</time>
      </trkpt>
      <trkpt lat="47.73134" lon="3.59194">
        <ele>124.1</ele>
        <time>2022-04-03T12:45:14Z</time>
      </trkpt>
      <trkpt lat="47.73134" lon="3.59193">
        <ele>124.1</ele>
        <time>2022-04-03T12:45:15Z</time>
      </trkpt>
      <trkpt lat="47.73134" lon="3.59191">
        <ele>124.1</ele>
        <time>2022-04-03T12:45:16Z</time>
      </trkpt>
      <trkpt lat="47.73134" lon="3.59187">
        <ele>124.1</ele>
        <time>2022-04-03T12:45:18Z</time>
      </trkpt>
      <trkpt lat="47.73134" lon="3.59184">
        <ele>124.1</ele>
        <time>2022-04-03T12:45:20Z</time>
      </trkpt>
      <trkpt lat="47.73134" lon="3.59182">
        <ele>124.1</ele>
        <time>2022-04-03T12:45:21Z</time>
      </trkpt>
      <trkpt lat="47.73135" lon="3.59179">
        <ele>124.1</ele>
        <time>2022-04-03T12:45:22Z</time>
      </trkpt>
      <trkpt lat="47.73135" lon="3.59177">
        <ele>124.1</ele>
        <time>2022-04-03T12:45:23Z</time>
      </trkpt>
      <trkpt lat="47.73135" lon="3.59174">
        <ele>124.1</ele>
        <time>2022-04-03T12:45:24Z</time>
      </trkpt>
      <trkpt lat="47.73136" lon="3.59172">
        <ele>124.1</ele>
        <time>2022-04-03T12:45:25Z</time>
      </trkpt>
      <trkpt lat="47.73136" lon="3.59171">
        <ele>124.1</ele>
        <time>2022-04-03T12:45:26Z</time>
      </trkpt>
      <trkpt lat="47.73136" lon="3.59169">
        <ele>124</ele>
        <time>2022-04-03T12:45:27Z</time>
      </trkpt>
      <trkpt lat="47.73137" lon="3.59166">
        <ele>124</ele>
        <time>2022-04-03T12:45:28Z</time>
      </trkpt>
      <trkpt lat="47.73137" lon="3.59165">
        <ele>124</ele>
        <time>2022-04-03T12:45:29Z</time>
      </trkpt>
      <trkpt lat="47.73138" lon="3.59162">
        <ele>124</ele>
        <time>2022-04-03T12:45:31Z</time>
      </trkpt>
      <trkpt lat="47.73138" lon="3.5916">
        <ele>123.9</ele>
        <time>2022-04-03T12:45:32Z</time>
      </trkpt>
      <trkpt lat="47.73138" lon="3.59157">
        <ele>123.9</ele>
        <time>2022-04-03T12:45:33Z</time>
      </trkpt>
      <trkpt lat="47.73138" lon="3.59154">
        <ele>123.8</ele>
        <time>2022-04-03T12:45:34Z</time>
      </trkpt>
      <trkpt lat="47.73138" lon="3.59153">
        <ele>123.8</ele>
        <time>2022-04-03T12:45:36Z</time>
      </trkpt>
      <trkpt lat="47.73138" lon="3.59152">
        <ele>123.8</ele>
        <time>2022-04-03T12:45:37Z</time>
      </trkpt>
      <trkpt lat="47.73138" lon="3.59149">
        <ele>123.7</ele>
        <time>2022-04-03T12:45:38Z</time>
      </trkpt>
      <trkpt lat="47.73138" lon="3.59147">
        <ele>123.7</ele>
        <time>2022-04-03T12:45:39Z</time>
      </trkpt>
      <trkpt lat="47.73139" lon="3.59144">
        <ele>123.6</ele>
        <time>2022-04-03T12:45:41Z</time>
      </trkpt>
      <trkpt lat="47.73139" lon="3.59142">
        <ele>123.6</ele>
        <time>2022-04-03T12:45:42Z</time>
      </trkpt>
      <trkpt lat="47.73139" lon="3.59139">
        <ele>123.5</ele>
        <time>2022-04-03T12:45:43Z</time>
      </trkpt>
      <trkpt lat="47.73139" lon="3.59138">
        <ele>123.4</ele>
        <time>2022-04-03T12:45:44Z</time>
      </trkpt>
      <trkpt lat="47.73139" lon="3.59134">
        <ele>123.4</ele>
        <time>2022-04-03T12:45:46Z</time>
      </trkpt>
      <trkpt lat="47.73139" lon="3.59133">
        <ele>123.3</ele>
        <time>2022-04-03T12:45:47Z</time>
      </trkpt>
      <trkpt lat="47.73139" lon="3.59132">
        <ele>123.3</ele>
        <time>2022-04-03T12:45:48Z</time>
      </trkpt>
      <trkpt lat="47.73139" lon="3.5913">
        <ele>123.2</ele>
        <time>2022-04-03T12:45:49Z</time>
      </trkpt>
      <trkpt lat="47.73139" lon="3.59128">
        <ele>123.2</ele>
        <time>2022-04-03T12:45:50Z</time>
      </trkpt>
      <trkpt lat="47.73139" lon="3.59126">
        <ele>123.1</ele>
        <time>2022-04-03T12:45:51Z</time>
      </trkpt>
      <trkpt lat="47.73139" lon="3.59124">
        <ele>123.1</ele>
        <time>2022-04-03T12:45:52Z</time>
      </trkpt>
      <trkpt lat="47.73139" lon="3.59122">
        <ele>123</ele>
        <time>2022-04-03T12:45:53Z</time>
      </trkpt>
      <trkpt lat="47.73139" lon="3.59121">
        <ele>123</ele>
        <time>2022-04-03T12:45:54Z</time>
      </trkpt>
      <trkpt lat="47.73139" lon="3.5912">
        <ele>122.9</ele>
        <time>2022-04-03T12:45:56Z</time>
      </trkpt>
      <trkpt lat="47.73139" lon="3.59118">
        <ele>122.9</ele>
        <time>2022-04-03T12:45:57Z</time>
      </trkpt>
      <trkpt lat="47.73139" lon="3.59116">
        <ele>122.8</ele>
        <time>2022-04-03T12:45:58Z</time>
      </trkpt>
      <trkpt lat="47.73139" lon="3.59114">
        <ele>122.7</ele>
        <time>2022-04-03T12:45:59Z</time>
      </trkpt>
      <trkpt lat="47.7314" lon="3.59112">
        <ele>122.7</ele>
        <time>2022-04-03T12:46:00Z</time>
      </trkpt>
      <trkpt lat="47.7314" lon="3.59109">
        <ele>122.6</ele>
        <time>2022-04-03T12:46:01Z</time>
      </trkpt>
      <trkpt lat="47.7314" lon="3.59106">
        <ele>122.5</ele>
        <time>2022-04-03T12:46:02Z</time>
      </trkpt>
      <trkpt lat="47.7314" lon="3.59105">
        <ele>122.4</ele>
        <time>2022-04-03T12:46:03Z</time>
      </trkpt>
      <trkpt lat="47.73141" lon="3.59104">
        <ele>122.4</ele>
        <time>2022-04-03T12:46:04Z</time>
      </trkpt>
      <trkpt lat="47.73141" lon="3.59101">
        <ele>122.3</ele>
        <time>2022-04-03T12:46:05Z</time>
      </trkpt>
      <trkpt lat="47.73141" lon="3.59099">
        <ele>122.3</ele>
        <time>2022-04-03T12:46:07Z</time>
      </trkpt>
      <trkpt lat="47.73141" lon="3.59098">
        <ele>122.2</ele>
        <time>2022-04-03T12:46:08Z</time>
      </trkpt>
      <trkpt lat="47.73142" lon="3.59096">
        <ele>122.1</ele>
        <time>2022-04-03T12:46:09Z</time>
      </trkpt>
      <trkpt lat="47.73142" lon="3.59094">
        <ele>122.1</ele>
        <time>2022-04-03T12:46:10Z</time>
      </trkpt>
      <trkpt lat="47.73142" lon="3.59091">
        <ele>122</ele>
        <time>2022-04-03T12:46:11Z</time>
      </trkpt>
      <trkpt lat="47.73142" lon="3.59089">
        <ele>121.9</ele>
        <time>2022-04-03T12:46:12Z</time>
      </trkpt>
      <trkpt lat="47.73142" lon="3.59088">
        <ele>121.9</ele>
        <time>2022-04-03T12:46:13Z</time>
      </trkpt>
      <trkpt lat="47.73143" lon="3.59086">
        <ele>121.8</ele>
        <time>2022-04-03T12:46:14Z</time>
      </trkpt>
      <trkpt lat="47.73143" lon="3.59085">
        <ele>121.8</ele>
        <time>2022-04-03T12:46:15Z</time>
      </trkpt>
      <trkpt lat="47.73143" lon="3.59083">
        <ele>121.8</ele>
        <time>2022-04-03T12:46:16Z</time>
      </trkpt>
      <trkpt lat="47.73143" lon="3.5908">
        <ele>121.7</ele>
        <time>2022-04-03T12:46:17Z</time>
      </trkpt>
      <trkpt lat="47.73143" lon="3.59079">
        <ele>121.6</ele>
        <time>2022-04-03T12:46:18Z</time>
      </trkpt>
      <trkpt lat="47.73143" lon="3.59077">
        <ele>121.6</ele>
        <time>2022-04-03T12:46:19Z</time>
      </trkpt>
      <trkpt lat="47.73143" lon="3.59075">
        <ele>121.5</ele>
        <time>2022-04-03T12:46:21Z</time>
      </trkpt>
      <trkpt lat="47.73143" lon="3.59073">
        <ele>121.5</ele>
        <time>2022-04-03T12:46:22Z</time>
      </trkpt>
      <trkpt lat="47.73143" lon="3.5907">
        <ele>121.4</ele>
        <time>2022-04-03T12:46:23Z</time>
      </trkpt>
      <trkpt lat="47.73143" lon="3.59068">
        <ele>121.3</ele>
        <time>2022-04-03T12:46:24Z</time>
      </trkpt>
      <trkpt lat="47.73143" lon="3.59067">
        <ele>121.3</ele>
        <time>2022-04-03T12:46:25Z</time>
      </trkpt>
      <trkpt lat="47.73143" lon="3.59065">
        <ele>121.2</ele>
        <time>2022-04-03T12:46:26Z</time>
      </trkpt>
      <trkpt lat="47.73144" lon="3.59062">
        <ele>121.2</ele>
        <time>2022-04-03T12:46:27Z</time>
      </trkpt>
      <trkpt lat="47.73144" lon="3.59061">
        <ele>121.1</ele>
        <time>2022-04-03T12:46:28Z</time>
      </trkpt>
      <trkpt lat="47.73143" lon="3.59059">
        <ele>121.1</ele>
        <time>2022-04-03T12:46:29Z</time>
      </trkpt>
      <trkpt lat="47.73143" lon="3.59058">
        <ele>121.1</ele>
        <time>2022-04-03T12:46:30Z</time>
      </trkpt>
      <trkpt lat="47.73143" lon="3.59055">
        <ele>121</ele>
        <time>2022-04-03T12:46:32Z</time>
      </trkpt>
      <trkpt lat="47.73144" lon="3.59053">
        <ele>121</ele>
        <time>2022-04-03T12:46:33Z</time>
      </trkpt>
      <trkpt lat="47.73144" lon="3.59051">
        <ele>120.9</ele>
        <time>2022-04-03T12:46:34Z</time>
      </trkpt>
      <trkpt lat="47.73144" lon="3.59048">
        <ele>120.8</ele>
        <time>2022-04-03T12:46:35Z</time>
      </trkpt>
      <trkpt lat="47.73144" lon="3.59047">
        <ele>120.8</ele>
        <time>2022-04-03T12:46:36Z</time>
      </trkpt>
      <trkpt lat="47.73145" lon="3.59045">
        <ele>120.8</ele>
        <time>2022-04-03T12:46:37Z</time>
      </trkpt>
      <trkpt lat="47.73145" lon="3.59043">
        <ele>120.7</ele>
        <time>2022-04-03T12:46:39Z</time>
      </trkpt>
      <trkpt lat="47.73146" lon="3.5904">
        <ele>120.7</ele>
        <time>2022-04-03T12:46:40Z</time>
      </trkpt>
      <trkpt lat="47.73146" lon="3.59039">
        <ele>120.6</ele>
        <time>2022-04-03T12:46:41Z</time>
      </trkpt>
      <trkpt lat="47.73146" lon="3.59037">
        <ele>120.6</ele>
        <time>2022-04-03T12:46:42Z</time>
      </trkpt>
      <trkpt lat="47.73146" lon="3.59035">
        <ele>120.6</ele>
        <time>2022-04-03T12:46:43Z</time>
      </trkpt>
      <trkpt lat="47.73146" lon="3.59034">
        <ele>120.5</ele>
        <time>2022-04-03T12:46:44Z</time>
      </trkpt>
      <trkpt lat="47.73146" lon="3.5903">
        <ele>120.5</ele>
        <time>2022-04-03T12:46:45Z</time>
      </trkpt>
      <trkpt lat="47.73146" lon="3.59029">
        <ele>120.5</ele>
        <time>2022-04-03T12:46:46Z</time>
      </trkpt>
      <trkpt lat="47.73146" lon="3.59027">
        <ele>120.5</ele>
        <time>2022-04-03T12:46:48Z</time>
      </trkpt>
      <trkpt lat="47.73147" lon="3.59026">
        <ele>120.4</ele>
        <time>2022-04-03T12:46:49Z</time>
      </trkpt>
      <trkpt lat="47.73147" lon="3.59025">
        <ele>120.4</ele>
        <time>2022-04-03T12:46:50Z</time>
      </trkpt>
      <trkpt lat="47.73147" lon="3.59023">
        <ele>120.4</ele>
        <time>2022-04-03T12:46:51Z</time>
      </trkpt>
      <trkpt lat="47.73148" lon="3.59022">
        <ele>120.4</ele>
        <time>2022-04-03T12:46:52Z</time>
      </trkpt>
      <trkpt lat="47.73148" lon="3.5902">
        <ele>120.4</ele>
        <time>2022-04-03T12:46:53Z</time>
      </trkpt>
      <trkpt lat="47.73148" lon="3.5902">
        <ele>120.4</ele>
        <time>2022-04-03T12:46:54Z</time>
      </trkpt>
      <trkpt lat="47.73149" lon="3.59016">
        <ele>120.4</ele>
        <time>2022-04-03T12:46:55Z</time>
      </trkpt>
      <trkpt lat="47.73149" lon="3.59015">
        <ele>120.4</ele>
        <time>2022-04-03T12:46:56Z</time>
      </trkpt>
      <trkpt lat="47.73149" lon="3.59014">
        <ele>120.3</ele>
        <time>2022-04-03T12:46:57Z</time>
      </trkpt>
      <trkpt lat="47.7315" lon="3.59011">
        <ele>120.3</ele>
        <time>2022-04-03T12:46:58Z</time>
      </trkpt>
      <trkpt lat="47.73151" lon="3.5901">
        <ele>120.3</ele>
        <time>2022-04-03T12:47:00Z</time>
      </trkpt>
      <trkpt lat="47.73151" lon="3.59009">
        <ele>120.3</ele>
        <time>2022-04-03T12:47:01Z</time>
      </trkpt>
      <trkpt lat="47.73152" lon="3.59006">
        <ele>120.3</ele>
        <time>2022-04-03T12:47:02Z</time>
      </trkpt>
      <trkpt lat="47.73153" lon="3.59005">
        <ele>120.3</ele>
        <time>2022-04-03T12:47:03Z</time>
      </trkpt>
      <trkpt lat="47.73153" lon="3.59003">
        <ele>120.3</ele>
        <time>2022-04-03T12:47:04Z</time>
      </trkpt>
      <trkpt lat="47.73154" lon="3.59002">
        <ele>120.3</ele>
        <time>2022-04-03T12:47:05Z</time>
      </trkpt>
      <trkpt lat="47.73155" lon="3.59">
        <ele>120.3</ele>
        <time>2022-04-03T12:47:06Z</time>
      </trkpt>
      <trkpt lat="47.73155" lon="3.58999">
        <ele>120.3</ele>
        <time>2022-04-03T12:47:07Z</time>
      </trkpt>
      <trkpt lat="47.73156" lon="3.58998">
        <ele>120.3</ele>
        <time>2022-04-03T12:47:08Z</time>
      </trkpt>
      <trkpt lat="47.73157" lon="3.58996">
        <ele>120.3</ele>
        <time>2022-04-03T12:47:09Z</time>
      </trkpt>
      <trkpt lat="47.73159" lon="3.58993">
        <ele>120.3</ele>
        <time>2022-04-03T12:47:10Z</time>
      </trkpt>
      <trkpt lat="47.73159" lon="3.58993">
        <ele>120.3</ele>
        <time>2022-04-03T12:47:11Z</time>
      </trkpt>
      <trkpt lat="47.7316" lon="3.58993">
        <ele>120.3</ele>
        <time>2022-04-03T12:47:12Z</time>
      </trkpt>
      <trkpt lat="47.73161" lon="3.58991">
        <ele>120.4</ele>
        <time>2022-04-03T12:47:13Z</time>
      </trkpt>
      <trkpt lat="47.73162" lon="3.58991">
        <ele>120.4</ele>
        <time>2022-04-03T12:47:14Z</time>
      </trkpt>
      <trkpt lat="47.73163" lon="3.58989">
        <ele>120.4</ele>
        <time>2022-04-03T12:47:16Z</time>
      </trkpt>
      <trkpt lat="47.73165" lon="3.58988">
        <ele>120.4</ele>
        <time>2022-04-03T12:47:17Z</time>
      </trkpt>
      <trkpt lat="47.73166" lon="3.58987">
        <ele>120.4</ele>
        <time>2022-04-03T12:47:18Z</time>
      </trkpt>
      <trkpt lat="47.73167" lon="3.58987">
        <ele>120.5</ele>
        <time>2022-04-03T12:47:19Z</time>
      </trkpt>
      <trkpt lat="47.73168" lon="3.58985">
        <ele>120.5</ele>
        <time>2022-04-03T12:47:20Z</time>
      </trkpt>
      <trkpt lat="47.73169" lon="3.58984">
        <ele>120.5</ele>
        <time>2022-04-03T12:47:21Z</time>
      </trkpt>
      <trkpt lat="47.7317" lon="3.58983">
        <ele>120.6</ele>
        <time>2022-04-03T12:47:22Z</time>
      </trkpt>
      <trkpt lat="47.73171" lon="3.58983">
        <ele>120.6</ele>
        <time>2022-04-03T12:47:23Z</time>
      </trkpt>
      <trkpt lat="47.73172" lon="3.58982">
        <ele>120.7</ele>
        <time>2022-04-03T12:47:24Z</time>
      </trkpt>
      <trkpt lat="47.73173" lon="3.58981">
        <ele>120.7</ele>
        <time>2022-04-03T12:47:25Z</time>
      </trkpt>
      <trkpt lat="47.73174" lon="3.58981">
        <ele>120.7</ele>
        <time>2022-04-03T12:47:26Z</time>
      </trkpt>
      <trkpt lat="47.73176" lon="3.58981">
        <ele>120.8</ele>
        <time>2022-04-03T12:47:27Z</time>
      </trkpt>
      <trkpt lat="47.73178" lon="3.5898">
        <ele>120.9</ele>
        <time>2022-04-03T12:47:29Z</time>
      </trkpt>
      <trkpt lat="47.73178" lon="3.58979">
        <ele>120.9</ele>
        <time>2022-04-03T12:47:30Z</time>
      </trkpt>
      <trkpt lat="47.73179" lon="3.58979">
        <ele>120.9</ele>
        <time>2022-04-03T12:47:31Z</time>
      </trkpt>
      <trkpt lat="47.7318" lon="3.58978">
        <ele>121</ele>
        <time>2022-04-03T12:47:32Z</time>
      </trkpt>
      <trkpt lat="47.73181" lon="3.58978">
        <ele>121</ele>
        <time>2022-04-03T12:47:33Z</time>
      </trkpt>
      <trkpt lat="47.73182" lon="3.58977">
        <ele>121.1</ele>
        <time>2022-04-03T12:47:34Z</time>
      </trkpt>
      <trkpt lat="47.73183" lon="3.58976">
        <ele>121.1</ele>
        <time>2022-04-03T12:47:35Z</time>
      </trkpt>
      <trkpt lat="47.73184" lon="3.58975">
        <ele>121.2</ele>
        <time>2022-04-03T12:47:37Z</time>
      </trkpt>
      <trkpt lat="47.73185" lon="3.58974">
        <ele>121.2</ele>
        <time>2022-04-03T12:47:38Z</time>
      </trkpt>
      <trkpt lat="47.73186" lon="3.58973">
        <ele>121.3</ele>
        <time>2022-04-03T12:47:39Z</time>
      </trkpt>
      <trkpt lat="47.73187" lon="3.58972">
        <ele>121.4</ele>
        <time>2022-04-03T12:47:40Z</time>
      </trkpt>
      <trkpt lat="47.73188" lon="3.5897">
        <ele>121.4</ele>
        <time>2022-04-03T12:47:41Z</time>
      </trkpt>
      <trkpt lat="47.73189" lon="3.58969">
        <ele>121.5</ele>
        <time>2022-04-03T12:47:42Z</time>
      </trkpt>
      <trkpt lat="47.73189" lon="3.58967">
        <ele>121.6</ele>
        <time>2022-04-03T12:47:43Z</time>
      </trkpt>
      <trkpt lat="47.7319" lon="3.58965">
        <ele>121.6</ele>
        <time>2022-04-03T12:47:44Z</time>
      </trkpt>
      <trkpt lat="47.7319" lon="3.58963">
        <ele>121.7</ele>
        <time>2022-04-03T12:47:46Z</time>
      </trkpt>
      <trkpt lat="47.73191" lon="3.58961">
        <ele>121.8</ele>
        <time>2022-04-03T12:47:47Z</time>
      </trkpt>
      <trkpt lat="47.73191" lon="3.58959">
        <ele>121.8</ele>
        <time>2022-04-03T12:47:48Z</time>
      </trkpt>
      <trkpt lat="47.7319" lon="3.58957">
        <ele>121.9</ele>
        <time>2022-04-03T12:47:49Z</time>
      </trkpt>
      <trkpt lat="47.7319" lon="3.58954">
        <ele>122</ele>
        <time>2022-04-03T12:47:50Z</time>
      </trkpt>
      <trkpt lat="47.7319" lon="3.58952">
        <ele>122</ele>
        <time>2022-04-03T12:47:51Z</time>
      </trkpt>
      <trkpt lat="47.73189" lon="3.5895">
        <ele>122.1</ele>
        <time>2022-04-03T12:47:53Z</time>
      </trkpt>
      <trkpt lat="47.73188" lon="3.58948">
        <ele>122.2</ele>
        <time>2022-04-03T12:47:54Z</time>
      </trkpt>
      <trkpt lat="47.73187" lon="3.58946">
        <ele>122.2</ele>
        <time>2022-04-03T12:47:55Z</time>
      </trkpt>
      <trkpt lat="47.73186" lon="3.58944">
        <ele>122.3</ele>
        <time>2022-04-03T12:47:56Z</time>
      </trkpt>
      <trkpt lat="47.73185" lon="3.58943">
        <ele>122.4</ele>
        <time>2022-04-03T12:47:57Z</time>
      </trkpt>
      <trkpt lat="47.73184" lon="3.58941">
        <ele>122.4</ele>
        <time>2022-04-03T12:47:58Z</time>
      </trkpt>
      <trkpt lat="47.73183" lon="3.58939">
        <ele>122.5</ele>
        <time>2022-04-03T12:47:59Z</time>
      </trkpt>
      <trkpt lat="47.73183" lon="3.58936">
        <ele>122.6</ele>
        <time>2022-04-03T12:48:01Z</time>
      </trkpt>
      <trkpt lat="47.73182" lon="3.58934">
        <ele>122.7</ele>
        <time>2022-04-03T12:48:02Z</time>
      </trkpt>
      <trkpt lat="47.73182" lon="3.58932">
        <ele>122.7</ele>
        <time>2022-04-03T12:48:03Z</time>
      </trkpt>
      <trkpt lat="47.73181" lon="3.5893">
        <ele>122.8</ele>
        <time>2022-04-03T12:48:04Z</time>
      </trkpt>
      <trkpt lat="47.7318" lon="3.58928">
        <ele>122.9</ele>
        <time>2022-04-03T12:48:05Z</time>
      </trkpt>
      <trkpt lat="47.7318" lon="3.58926">
        <ele>122.9</ele>
        <time>2022-04-03T12:48:06Z</time>
      </trkpt>
      <trkpt lat="47.73178" lon="3.58924">
        <ele>123</ele>
        <time>2022-04-03T12:48:07Z</time>
      </trkpt>
      <trkpt lat="47.73178" lon="3.58922">
        <ele>123</ele>
        <time>2022-04-03T12:48:09Z</time>
      </trkpt>
      <trkpt lat="47.73177" lon="3.58921">
        <ele>123.1</ele>
        <time>2022-04-03T12:48:10Z</time>
      </trkpt>
      <trkpt lat="47.73176" lon="3.58919">
        <ele>123.2</ele>
        <time>2022-04-03T12:48:11Z</time>
      </trkpt>
      <trkpt lat="47.73176" lon="3.58917">
        <ele>123.2</ele>
        <time>2022-04-03T12:48:12Z</time>
      </trkpt>
      <trkpt lat="47.73176" lon="3.58916">
        <ele>123.3</ele>
        <time>2022-04-03T12:48:13Z</time>
      </trkpt>
      <trkpt lat="47.73175" lon="3.58915">
        <ele>123.3</ele>
        <time>2022-04-03T12:48:14Z</time>
      </trkpt>
      <trkpt lat="47.73174" lon="3.58912">
        <ele>123.4</ele>
        <time>2022-04-03T12:48:15Z</time>
      </trkpt>
      <trkpt lat="47.73174" lon="3.58912">
        <ele>123.4</ele>
        <time>2022-04-03T12:48:17Z</time>
      </trkpt>
      <trkpt lat="47.73173" lon="3.5891">
        <ele>123.5</ele>
        <time>2022-04-03T12:48:18Z</time>
      </trkpt>
      <trkpt lat="47.73172" lon="3.58909">
        <ele>123.6</ele>
        <time>2022-04-03T12:48:19Z</time>
      </trkpt>
      <trkpt lat="47.73172" lon="3.58907">
        <ele>123.6</ele>
        <time>2022-04-03T12:48:20Z</time>
      </trkpt>
      <trkpt lat="47.73171" lon="3.58905">
        <ele>123.7</ele>
        <time>2022-04-03T12:48:21Z</time>
      </trkpt>
      <trkpt lat="47.73169" lon="3.58903">
        <ele>123.8</ele>
        <time>2022-04-03T12:48:22Z</time>
      </trkpt>
      <trkpt lat="47.73169" lon="3.58902">
        <ele>123.8</ele>
        <time>2022-04-03T12:48:23Z</time>
      </trkpt>
      <trkpt lat="47.73168" lon="3.58901">
        <ele>123.9</ele>
        <time>2022-04-03T12:48:24Z</time>
      </trkpt>
      <trkpt lat="47.73167" lon="3.58898">
        <ele>124</ele>
        <time>2022-04-03T12:48:25Z</time>
      </trkpt>
      <trkpt lat="47.73167" lon="3.58897">
        <ele>124</ele>
        <time>2022-04-03T12:48:27Z</time>
      </trkpt>
      <trkpt lat="47.73166" lon="3.58896">
        <ele>124.1</ele>
        <time>2022-04-03T12:48:28Z</time>
      </trkpt>
      <trkpt lat="47.73165" lon="3.58893">
        <ele>124.2</ele>
        <time>2022-04-03T12:48:29Z</time>
      </trkpt>
      <trkpt lat="47.73165" lon="3.58892">
        <ele>124.2</ele>
        <time>2022-04-03T12:48:30Z</time>
      </trkpt>
      <trkpt lat="47.73164" lon="3.58891">
        <ele>124.3</ele>
        <time>2022-04-03T12:48:31Z</time>
      </trkpt>
      <trkpt lat="47.73163" lon="3.58889">
        <ele>124.4</ele>
        <time>2022-04-03T12:48:32Z</time>
      </trkpt>
      <trkpt lat="47.73163" lon="3.58887">
        <ele>124.5</ele>
        <time>2022-04-03T12:48:33Z</time>
      </trkpt>
      <trkpt lat="47.73162" lon="3.58884">
        <ele>124.6</ele>
        <time>2022-04-03T12:48:35Z</time>
      </trkpt>
      <trkpt lat="47.73162" lon="3.58883">
        <ele>124.6</ele>
        <time>2022-04-03T12:48:36Z</time>
      </trkpt>
      <trkpt lat="47.73161" lon="3.58882">
        <ele>124.7</ele>
        <time>2022-04-03T12:48:37Z</time>
      </trkpt>
      <trkpt lat="47.73161" lon="3.5888">
        <ele>124.8</ele>
        <time>2022-04-03T12:48:38Z</time>
      </trkpt>
      <trkpt lat="47.7316" lon="3.58878">
        <ele>124.8</ele>
        <time>2022-04-03T12:48:39Z</time>
      </trkpt>
      <trkpt lat="47.7316" lon="3.58876">
        <ele>124.9</ele>
        <time>2022-04-03T12:48:40Z</time>
      </trkpt>
      <trkpt lat="47.7316" lon="3.58874">
        <ele>125</ele>
        <time>2022-04-03T12:48:41Z</time>
      </trkpt>
      <trkpt lat="47.7316" lon="3.58873">
        <ele>125.1</ele>
        <time>2022-04-03T12:48:42Z</time>
      </trkpt>
      <trkpt lat="47.7316" lon="3.5887">
        <ele>125.1</ele>
        <time>2022-04-03T12:48:44Z</time>
      </trkpt>
      <trkpt lat="47.73159" lon="3.58868">
        <ele>125.2</ele>
        <time>2022-04-03T12:48:45Z</time>
      </trkpt>
      <trkpt lat="47.73159" lon="3.58866">
        <ele>125.3</ele>
        <time>2022-04-03T12:48:46Z</time>
      </trkpt>
      <trkpt lat="47.73158" lon="3.58864">
        <ele>125.4</ele>
        <time>2022-04-03T12:48:47Z</time>
      </trkpt>
      <trkpt lat="47.73158" lon="3.58863">
        <ele>125.5</ele>
        <time>2022-04-03T12:48:48Z</time>
      </trkpt>
      <trkpt lat="47.73157" lon="3.58861">
        <ele>125.5</ele>
        <time>2022-04-03T12:48:49Z</time>
      </trkpt>
      <trkpt lat="47.73157" lon="3.58859">
        <ele>125.6</ele>
        <time>2022-04-03T12:48:51Z</time>
      </trkpt>
      <trkpt lat="47.73156" lon="3.58857">
        <ele>125.8</ele>
        <time>2022-04-03T12:48:52Z</time>
      </trkpt>
      <trkpt lat="47.73156" lon="3.58855">
        <ele>125.8</ele>
        <time>2022-04-03T12:48:53Z</time>
      </trkpt>
      <trkpt lat="47.73155" lon="3.58853">
        <ele>125.9</ele>
        <time>2022-04-03T12:48:54Z</time>
      </trkpt>
      <trkpt lat="47.73155" lon="3.58851">
        <ele>126</ele>
        <time>2022-04-03T12:48:55Z</time>
      </trkpt>
      <trkpt lat="47.73155" lon="3.5885">
        <ele>126</ele>
        <time>2022-04-03T12:48:56Z</time>
      </trkpt>
      <trkpt lat="47.73154" lon="3.58847">
        <ele>126.2</ele>
        <time>2022-04-03T12:48:58Z</time>
      </trkpt>
      <trkpt lat="47.73154" lon="3.58846">
        <ele>126.2</ele>
        <time>2022-04-03T12:48:59Z</time>
      </trkpt>
      <trkpt lat="47.73154" lon="3.58845">
        <ele>126.3</ele>
        <time>2022-04-03T12:49:00Z</time>
      </trkpt>
      <trkpt lat="47.73153" lon="3.58842">
        <ele>126.4</ele>
        <time>2022-04-03T12:49:01Z</time>
      </trkpt>
      <trkpt lat="47.73153" lon="3.58841">
        <ele>126.5</ele>
        <time>2022-04-03T12:49:02Z</time>
      </trkpt>
      <trkpt lat="47.73152" lon="3.5884">
        <ele>126.5</ele>
        <time>2022-04-03T12:49:03Z</time>
      </trkpt>
      <trkpt lat="47.73152" lon="3.58837">
        <ele>126.7</ele>
        <time>2022-04-03T12:49:04Z</time>
      </trkpt>
      <trkpt lat="47.73152" lon="3.58836">
        <ele>126.7</ele>
        <time>2022-04-03T12:49:06Z</time>
      </trkpt>
      <trkpt lat="47.73151" lon="3.58834">
        <ele>126.8</ele>
        <time>2022-04-03T12:49:07Z</time>
      </trkpt>
      <trkpt lat="47.73151" lon="3.58832">
        <ele>126.9</ele>
        <time>2022-04-03T12:49:08Z</time>
      </trkpt>
      <trkpt lat="47.73151" lon="3.58831">
        <ele>127</ele>
        <time>2022-04-03T12:49:09Z</time>
      </trkpt>
      <trkpt lat="47.73151" lon="3.58828">
        <ele>127.1</ele>
        <time>2022-04-03T12:49:11Z</time>
      </trkpt>
      <trkpt lat="47.73151" lon="3.58826">
        <ele>127.3</ele>
        <time>2022-04-03T12:49:12Z</time>
      </trkpt>
      <trkpt lat="47.73151" lon="3.58824">
        <ele>127.4</ele>
        <time>2022-04-03T12:49:13Z</time>
      </trkpt>
      <trkpt lat="47.73151" lon="3.58822">
        <ele>127.5</ele>
        <time>2022-04-03T12:49:14Z</time>
      </trkpt>
      <trkpt lat="47.73151" lon="3.5882">
        <ele>127.6</ele>
        <time>2022-04-03T12:49:15Z</time>
      </trkpt>
      <trkpt lat="47.7315" lon="3.58818">
        <ele>127.8</ele>
        <time>2022-04-03T12:49:16Z</time>
      </trkpt>
      <trkpt lat="47.7315" lon="3.58816">
        <ele>127.9</ele>
        <time>2022-04-03T12:49:18Z</time>
      </trkpt>
      <trkpt lat="47.7315" lon="3.58814">
        <ele>128</ele>
        <time>2022-04-03T12:49:19Z</time>
      </trkpt>
      <trkpt lat="47.7315" lon="3.58812">
        <ele>128.2</ele>
        <time>2022-04-03T12:49:20Z</time>
      </trkpt>
      <trkpt lat="47.73151" lon="3.58809">
        <ele>128.3</ele>
        <time>2022-04-03T12:49:21Z</time>
      </trkpt>
      <trkpt lat="47.73151" lon="3.58808">
        <ele>128.4</ele>
        <time>2022-04-03T12:49:22Z</time>
      </trkpt>
      <trkpt lat="47.73151" lon="3.58806">
        <ele>128.5</ele>
        <time>2022-04-03T12:49:23Z</time>
      </trkpt>
      <trkpt lat="47.7315" lon="3.58804">
        <ele>128.7</ele>
        <time>2022-04-03T12:49:25Z</time>
      </trkpt>
      <trkpt lat="47.7315" lon="3.58802">
        <ele>128.8</ele>
        <time>2022-04-03T12:49:26Z</time>
      </trkpt>
      <trkpt lat="47.7315" lon="3.58799">
        <ele>129</ele>
        <time>2022-04-03T12:49:27Z</time>
      </trkpt>
      <trkpt lat="47.7315" lon="3.58798">
        <ele>129.1</ele>
        <time>2022-04-03T12:49:28Z</time>
      </trkpt>
      <trkpt lat="47.7315" lon="3.58797">
        <ele>129.2</ele>
        <time>2022-04-03T12:49:29Z</time>
      </trkpt>
      <trkpt lat="47.73149" lon="3.58795">
        <ele>129.3</ele>
        <time>2022-04-03T12:49:30Z</time>
      </trkpt>
      <trkpt lat="47.73149" lon="3.58793">
        <ele>129.4</ele>
        <time>2022-04-03T12:49:31Z</time>
      </trkpt>
      <trkpt lat="47.73148" lon="3.58792">
        <ele>129.6</ele>
        <time>2022-04-03T12:49:33Z</time>
      </trkpt>
      <trkpt lat="47.73148" lon="3.58789">
        <ele>129.8</ele>
        <time>2022-04-03T12:49:34Z</time>
      </trkpt>
      <trkpt lat="47.73147" lon="3.58788">
        <ele>129.9</ele>
        <time>2022-04-03T12:49:35Z</time>
      </trkpt>
      <trkpt lat="47.73147" lon="3.58786">
        <ele>129.9</ele>
        <time>2022-04-03T12:49:36Z</time>
      </trkpt>
      <trkpt lat="47.73147" lon="3.58785">
        <ele>130</ele>
        <time>2022-04-03T12:49:37Z</time>
      </trkpt>
      <trkpt lat="47.73146" lon="3.58783">
        <ele>130.2</ele>
        <time>2022-04-03T12:49:39Z</time>
      </trkpt>
      <trkpt lat="47.73146" lon="3.58782">
        <ele>130.3</ele>
        <time>2022-04-03T12:49:40Z</time>
      </trkpt>
      <trkpt lat="47.73146" lon="3.5878">
        <ele>130.4</ele>
        <time>2022-04-03T12:49:41Z</time>
      </trkpt>
      <trkpt lat="47.73145" lon="3.58778">
        <ele>130.5</ele>
        <time>2022-04-03T12:49:42Z</time>
      </trkpt>
      <trkpt lat="47.73144" lon="3.58776">
        <ele>130.7</ele>
        <time>2022-04-03T12:49:44Z</time>
      </trkpt>
      <trkpt lat="47.73144" lon="3.58775">
        <ele>130.8</ele>
        <time>2022-04-03T12:49:45Z</time>
      </trkpt>
      <trkpt lat="47.73144" lon="3.58774">
        <ele>130.9</ele>
        <time>2022-04-03T12:49:46Z</time>
      </trkpt>
      <trkpt lat="47.73144" lon="3.58772">
        <ele>131</ele>
        <time>2022-04-03T12:49:47Z</time>
      </trkpt>
      <trkpt lat="47.73144" lon="3.58771">
        <ele>131.1</ele>
        <time>2022-04-03T12:49:48Z</time>
      </trkpt>
      <trkpt lat="47.73144" lon="3.58769">
        <ele>131.2</ele>
        <time>2022-04-03T12:49:50Z</time>
      </trkpt>
      <trkpt lat="47.73144" lon="3.58767">
        <ele>131.3</ele>
        <time>2022-04-03T12:49:51Z</time>
      </trkpt>
      <trkpt lat="47.73145" lon="3.58765">
        <ele>131.5</ele>
        <time>2022-04-03T12:49:52Z</time>
      </trkpt>
      <trkpt lat="47.73145" lon="3.58764">
        <ele>131.6</ele>
        <time>2022-04-03T12:49:53Z</time>
      </trkpt>
      <trkpt lat="47.73145" lon="3.58762">
        <ele>131.7</ele>
        <time>2022-04-03T12:49:54Z</time>
      </trkpt>
      <trkpt lat="47.73146" lon="3.5876">
        <ele>131.9</ele>
        <time>2022-04-03T12:49:55Z</time>
      </trkpt>
      <trkpt lat="47.73146" lon="3.58758">
        <ele>132</ele>
        <time>2022-04-03T12:49:57Z</time>
      </trkpt>
      <trkpt lat="47.73147" lon="3.58757">
        <ele>132.1</ele>
        <time>2022-04-03T12:49:58Z</time>
      </trkpt>
      <trkpt lat="47.73147" lon="3.58755">
        <ele>132.3</ele>
        <time>2022-04-03T12:49:59Z</time>
      </trkpt>
      <trkpt lat="47.73147" lon="3.58753">
        <ele>132.5</ele>
        <time>2022-04-03T12:50:00Z</time>
      </trkpt>
      <trkpt lat="47.73148" lon="3.58752">
        <ele>132.6</ele>
        <time>2022-04-03T12:50:01Z</time>
      </trkpt>
      <trkpt lat="47.73148" lon="3.58751">
        <ele>132.7</ele>
        <time>2022-04-03T12:50:02Z</time>
      </trkpt>
      <trkpt lat="47.73148" lon="3.5875">
        <ele>132.8</ele>
        <time>2022-04-03T12:50:03Z</time>
      </trkpt>
      <trkpt lat="47.73149" lon="3.58748">
        <ele>132.9</ele>
        <time>2022-04-03T12:50:05Z</time>
      </trkpt>
      <trkpt lat="47.73149" lon="3.58746">
        <ele>133.1</ele>
        <time>2022-04-03T12:50:06Z</time>
      </trkpt>
      <trkpt lat="47.73149" lon="3.58745">
        <ele>133.2</ele>
        <time>2022-04-03T12:50:07Z</time>
      </trkpt>
      <trkpt lat="47.7315" lon="3.58743">
        <ele>133.3</ele>
        <time>2022-04-03T12:50:08Z</time>
      </trkpt>
      <trkpt lat="47.73151" lon="3.5874">
        <ele>133.6</ele>
        <time>2022-04-03T12:50:10Z</time>
      </trkpt>
      <trkpt lat="47.73151" lon="3.58739">
        <ele>133.7</ele>
        <time>2022-04-03T12:50:11Z</time>
      </trkpt>
      <trkpt lat="47.73152" lon="3.58738">
        <ele>133.8</ele>
        <time>2022-04-03T12:50:12Z</time>
      </trkpt>
      <trkpt lat="47.73152" lon="3.58737">
        <ele>133.9</ele>
        <time>2022-04-03T12:50:14Z</time>
      </trkpt>
      <trkpt lat="47.73152" lon="3.58735">
        <ele>134</ele>
        <time>2022-04-03T12:50:15Z</time>
      </trkpt>
      <trkpt lat="47.73153" lon="3.58734">
        <ele>134.2</ele>
        <time>2022-04-03T12:50:16Z</time>
      </trkpt>
      <trkpt lat="47.73153" lon="3.58733">
        <ele>134.3</ele>
        <time>2022-04-03T12:50:17Z</time>
      </trkpt>
      <trkpt lat="47.73154" lon="3.5873">
        <ele>134.5</ele>
        <time>2022-04-03T12:50:19Z</time>
      </trkpt>
      <trkpt lat="47.73154" lon="3.58729">
        <ele>134.6</ele>
        <time>2022-04-03T12:50:20Z</time>
      </trkpt>
      <trkpt lat="47.73155" lon="3.58726">
        <ele>134.8</ele>
        <time>2022-04-03T12:50:22Z</time>
      </trkpt>
      <trkpt lat="47.73155" lon="3.58725">
        <ele>135</ele>
        <time>2022-04-03T12:50:23Z</time>
      </trkpt>
      <trkpt lat="47.73155" lon="3.58723">
        <ele>135.1</ele>
        <time>2022-04-03T12:50:24Z</time>
      </trkpt>
      <trkpt lat="47.73156" lon="3.58721">
        <ele>135.3</ele>
        <time>2022-04-03T12:50:26Z</time>
      </trkpt>
      <trkpt lat="47.73156" lon="3.5872">
        <ele>135.4</ele>
        <time>2022-04-03T12:50:27Z</time>
      </trkpt>
      <trkpt lat="47.73157" lon="3.58719">
        <ele>135.5</ele>
        <time>2022-04-03T12:50:28Z</time>
      </trkpt>
      <trkpt lat="47.73157" lon="3.58716">
        <ele>135.7</ele>
        <time>2022-04-03T12:50:30Z</time>
      </trkpt>
      <trkpt lat="47.73158" lon="3.58714">
        <ele>135.9</ele>
        <time>2022-04-03T12:50:31Z</time>
      </trkpt>
      <trkpt lat="47.73159" lon="3.58713">
        <ele>136.1</ele>
        <time>2022-04-03T12:50:32Z</time>
      </trkpt>
      <trkpt lat="47.7316" lon="3.58711">
        <ele>136.2</ele>
        <time>2022-04-03T12:50:33Z</time>
      </trkpt>
      <trkpt lat="47.73161" lon="3.5871">
        <ele>136.4</ele>
        <time>2022-04-03T12:50:34Z</time>
      </trkpt>
      <trkpt lat="47.73162" lon="3.58707">
        <ele>136.6</ele>
        <time>2022-04-03T12:50:36Z</time>
      </trkpt>
      <trkpt lat="47.73163" lon="3.58706">
        <ele>136.7</ele>
        <time>2022-04-03T12:50:37Z</time>
      </trkpt>
      <trkpt lat="47.73163" lon="3.58704">
        <ele>136.9</ele>
        <time>2022-04-03T12:50:38Z</time>
      </trkpt>
      <trkpt lat="47.73164" lon="3.58703">
        <ele>137</ele>
        <time>2022-04-03T12:50:39Z</time>
      </trkpt>
      <trkpt lat="47.73164" lon="3.58702">
        <ele>137.1</ele>
        <time>2022-04-03T12:50:40Z</time>
      </trkpt>
      <trkpt lat="47.73165" lon="3.58701">
        <ele>137.3</ele>
        <time>2022-04-03T12:50:42Z</time>
      </trkpt>
      <trkpt lat="47.73166" lon="3.58699">
        <ele>137.4</ele>
        <time>2022-04-03T12:50:43Z</time>
      </trkpt>
      <trkpt lat="47.73167" lon="3.58698">
        <ele>137.5</ele>
        <time>2022-04-03T12:50:44Z</time>
      </trkpt>
      <trkpt lat="47.73168" lon="3.58697">
        <ele>137.6</ele>
        <time>2022-04-03T12:50:45Z</time>
      </trkpt>
      <trkpt lat="47.73168" lon="3.58696">
        <ele>137.7</ele>
        <time>2022-04-03T12:50:46Z</time>
      </trkpt>
      <trkpt lat="47.73169" lon="3.58694">
        <ele>137.9</ele>
        <time>2022-04-03T12:50:47Z</time>
      </trkpt>
      <trkpt lat="47.73169" lon="3.58693">
        <ele>138</ele>
        <time>2022-04-03T12:50:49Z</time>
      </trkpt>
      <trkpt lat="47.7317" lon="3.58692">
        <ele>138.1</ele>
        <time>2022-04-03T12:50:50Z</time>
      </trkpt>
      <trkpt lat="47.73172" lon="3.5869">
        <ele>138.3</ele>
        <time>2022-04-03T12:50:51Z</time>
      </trkpt>
      <trkpt lat="47.73172" lon="3.58689">
        <ele>138.4</ele>
        <time>2022-04-03T12:50:53Z</time>
      </trkpt>
      <trkpt lat="47.73173" lon="3.58688">
        <ele>138.4</ele>
        <time>2022-04-03T12:50:54Z</time>
      </trkpt>
      <trkpt lat="47.73174" lon="3.58687">
        <ele>138.5</ele>
        <time>2022-04-03T12:50:55Z</time>
      </trkpt>
      <trkpt lat="47.73175" lon="3.58686">
        <ele>138.6</ele>
        <time>2022-04-03T12:50:56Z</time>
      </trkpt>
      <trkpt lat="47.73175" lon="3.58685">
        <ele>138.7</ele>
        <time>2022-04-03T12:50:57Z</time>
      </trkpt>
      <trkpt lat="47.73177" lon="3.58683">
        <ele>138.9</ele>
        <time>2022-04-03T12:50:58Z</time>
      </trkpt>
      <trkpt lat="47.73177" lon="3.58682">
        <ele>139</ele>
        <time>2022-04-03T12:50:59Z</time>
      </trkpt>
      <trkpt lat="47.73178" lon="3.58681">
        <ele>139.1</ele>
        <time>2022-04-03T12:51:01Z</time>
      </trkpt>
      <trkpt lat="47.73179" lon="3.5868">
        <ele>139.2</ele>
        <time>2022-04-03T12:51:02Z</time>
      </trkpt>
      <trkpt lat="47.7318" lon="3.58678">
        <ele>139.3</ele>
        <time>2022-04-03T12:51:03Z</time>
      </trkpt>
      <trkpt lat="47.7318" lon="3.58677">
        <ele>139.3</ele>
        <time>2022-04-03T12:51:04Z</time>
      </trkpt>
      <trkpt lat="47.73182" lon="3.58675">
        <ele>139.5</ele>
        <time>2022-04-03T12:51:06Z</time>
      </trkpt>
      <trkpt lat="47.73183" lon="3.58674">
        <ele>139.6</ele>
        <time>2022-04-03T12:51:07Z</time>
      </trkpt>
      <trkpt lat="47.73183" lon="3.58673">
        <ele>139.7</ele>
        <time>2022-04-03T12:51:08Z</time>
      </trkpt>
      <trkpt lat="47.73185" lon="3.58671">
        <ele>139.8</ele>
        <time>2022-04-03T12:51:09Z</time>
      </trkpt>
      <trkpt lat="47.73186" lon="3.5867">
        <ele>139.9</ele>
        <time>2022-04-03T12:51:11Z</time>
      </trkpt>
      <trkpt lat="47.73187" lon="3.58669">
        <ele>140</ele>
        <time>2022-04-03T12:51:12Z</time>
      </trkpt>
      <trkpt lat="47.73188" lon="3.58668">
        <ele>140.1</ele>
        <time>2022-04-03T12:51:13Z</time>
      </trkpt>
      <trkpt lat="47.73189" lon="3.58666">
        <ele>140.1</ele>
        <time>2022-04-03T12:51:14Z</time>
      </trkpt>
      <trkpt lat="47.7319" lon="3.58665">
        <ele>140.2</ele>
        <time>2022-04-03T12:51:16Z</time>
      </trkpt>
      <trkpt lat="47.73191" lon="3.58663">
        <ele>140.3</ele>
        <time>2022-04-03T12:51:17Z</time>
      </trkpt>
      <trkpt lat="47.73192" lon="3.58662">
        <ele>140.4</ele>
        <time>2022-04-03T12:51:18Z</time>
      </trkpt>
      <trkpt lat="47.73194" lon="3.58661">
        <ele>140.5</ele>
        <time>2022-04-03T12:51:19Z</time>
      </trkpt>
      <trkpt lat="47.73195" lon="3.58659">
        <ele>140.6</ele>
        <time>2022-04-03T12:51:21Z</time>
      </trkpt>
      <trkpt lat="47.73196" lon="3.58657">
        <ele>140.7</ele>
        <time>2022-04-03T12:51:22Z</time>
      </trkpt>
      <trkpt lat="47.73197" lon="3.58656">
        <ele>140.8</ele>
        <time>2022-04-03T12:51:23Z</time>
      </trkpt>
      <trkpt lat="47.73198" lon="3.58654">
        <ele>140.9</ele>
        <time>2022-04-03T12:51:24Z</time>
      </trkpt>
      <trkpt lat="47.73199" lon="3.58652">
        <ele>141</ele>
        <time>2022-04-03T12:51:25Z</time>
      </trkpt>
      <trkpt lat="47.732" lon="3.58651">
        <ele>141</ele>
        <time>2022-04-03T12:51:27Z</time>
      </trkpt>
      <trkpt lat="47.73201" lon="3.58649">
        <ele>141.2</ele>
        <time>2022-04-03T12:51:28Z</time>
      </trkpt>
      <trkpt lat="47.73202" lon="3.58648">
        <ele>141.2</ele>
        <time>2022-04-03T12:51:29Z</time>
      </trkpt>
      <trkpt lat="47.73204" lon="3.58646">
        <ele>141.4</ele>
        <time>2022-04-03T12:51:30Z</time>
      </trkpt>
      <trkpt lat="47.73205" lon="3.58645">
        <ele>141.4</ele>
        <time>2022-04-03T12:51:31Z</time>
      </trkpt>
      <trkpt lat="47.73205" lon="3.58644">
        <ele>141.5</ele>
        <time>2022-04-03T12:51:32Z</time>
      </trkpt>
      <trkpt lat="47.73206" lon="3.58642">
        <ele>141.6</ele>
        <time>2022-04-03T12:51:34Z</time>
      </trkpt>
      <trkpt lat="47.73207" lon="3.5864">
        <ele>141.7</ele>
        <time>2022-04-03T12:51:35Z</time>
      </trkpt>
      <trkpt lat="47.73207" lon="3.58639">
        <ele>141.7</ele>
        <time>2022-04-03T12:51:36Z</time>
      </trkpt>
      <trkpt lat="47.73209" lon="3.58637">
        <ele>141.8</ele>
        <time>2022-04-03T12:51:38Z</time>
      </trkpt>
      <trkpt lat="47.73209" lon="3.58635">
        <ele>141.9</ele>
        <time>2022-04-03T12:51:39Z</time>
      </trkpt>
      <trkpt lat="47.7321" lon="3.58634">
        <ele>142</ele>
        <time>2022-04-03T12:51:40Z</time>
      </trkpt>
      <trkpt lat="47.73211" lon="3.58632">
        <ele>142.1</ele>
        <time>2022-04-03T12:51:41Z</time>
      </trkpt>
      <trkpt lat="47.73213" lon="3.5863">
        <ele>142.2</ele>
        <time>2022-04-03T12:51:43Z</time>
      </trkpt>
      <trkpt lat="47.73214" lon="3.58629">
        <ele>142.3</ele>
        <time>2022-04-03T12:51:44Z</time>
      </trkpt>
      <trkpt lat="47.73215" lon="3.58628">
        <ele>142.4</ele>
        <time>2022-04-03T12:51:45Z</time>
      </trkpt>
      <trkpt lat="47.73216" lon="3.58627">
        <ele>142.4</ele>
        <time>2022-04-03T12:51:46Z</time>
      </trkpt>
      <trkpt lat="47.73216" lon="3.58627">
        <ele>142.5</ele>
        <time>2022-04-03T12:51:47Z</time>
      </trkpt>
      <trkpt lat="47.73218" lon="3.58625">
        <ele>142.6</ele>
        <time>2022-04-03T12:51:48Z</time>
      </trkpt>
      <trkpt lat="47.73218" lon="3.58624">
        <ele>142.6</ele>
        <time>2022-04-03T12:51:49Z</time>
      </trkpt>
      <trkpt lat="47.73218" lon="3.58622">
        <ele>142.7</ele>
        <time>2022-04-03T12:51:50Z</time>
      </trkpt>
      <trkpt lat="47.73217" lon="3.5862">
        <ele>142.8</ele>
        <time>2022-04-03T12:51:52Z</time>
      </trkpt>
      <trkpt lat="47.73217" lon="3.58619">
        <ele>142.9</ele>
        <time>2022-04-03T12:51:53Z</time>
      </trkpt>
      <trkpt lat="47.73217" lon="3.58618">
        <ele>142.9</ele>
        <time>2022-04-03T12:51:54Z</time>
      </trkpt>
      <trkpt lat="47.73217" lon="3.58618">
        <ele>142.9</ele>
        <time>2022-04-03T12:51:55Z</time>
      </trkpt>
      <trkpt lat="47.73217" lon="3.58618">
        <ele>143</ele>
        <time>2022-04-03T12:51:56Z</time>
      </trkpt>
      <trkpt lat="47.73218" lon="3.58618">
        <ele>143</ele>
        <time>2022-04-03T12:51:57Z</time>
      </trkpt>
      <trkpt lat="47.73218" lon="3.58618">
        <ele>143</ele>
        <time>2022-04-03T12:51:58Z</time>
      </trkpt>
      <trkpt lat="47.73219" lon="3.58618">
        <ele>143</ele>
        <time>2022-04-03T12:51:59Z</time>
      </trkpt>
      <trkpt lat="47.73219" lon="3.58618">
        <ele>143.1</ele>
        <time>2022-04-03T12:52:00Z</time>
      </trkpt>
      <trkpt lat="47.73219" lon="3.58618">
        <ele>143.1</ele>
        <time>2022-04-03T12:52:01Z</time>
      </trkpt>
      <trkpt lat="47.7322" lon="3.58618">
        <ele>143.1</ele>
        <time>2022-04-03T12:52:02Z</time>
      </trkpt>
      <trkpt lat="47.7322" lon="3.58618">
        <ele>143.1</ele>
        <time>2022-04-03T12:52:03Z</time>
      </trkpt>
      <trkpt lat="47.7322" lon="3.58618">
        <ele>143.2</ele>
        <time>2022-04-03T12:52:04Z</time>
      </trkpt>
      <trkpt lat="47.73221" lon="3.58618">
        <ele>143.2</ele>
        <time>2022-04-03T12:52:05Z</time>
      </trkpt>
      <trkpt lat="47.73221" lon="3.58618">
        <ele>143.2</ele>
        <time>2022-04-03T12:52:06Z</time>
      </trkpt>
      <trkpt lat="47.73222" lon="3.58618">
        <ele>143.2</ele>
        <time>2022-04-03T12:52:07Z</time>
      </trkpt>
      <trkpt lat="47.73222" lon="3.58618">
        <ele>143.3</ele>
        <time>2022-04-03T12:52:08Z</time>
      </trkpt>
      <trkpt lat="47.73222" lon="3.58618">
        <ele>143.3</ele>
        <time>2022-04-03T12:52:10Z</time>
      </trkpt>
      <trkpt lat="47.73223" lon="3.58618">
        <ele>143.3</ele>
        <time>2022-04-03T12:52:11Z</time>
      </trkpt>
      <trkpt lat="47.73223" lon="3.58618">
        <ele>143.3</ele>
        <time>2022-04-03T12:52:12Z</time>
      </trkpt>
      <trkpt lat="47.73223" lon="3.58618">
        <ele>143.3</ele>
        <time>2022-04-03T12:52:13Z</time>
      </trkpt>
      <trkpt lat="47.73226" lon="3.58616">
        <ele>143.5</ele>
        <time>2022-04-03T12:52:14Z</time>
      </trkpt>
      <trkpt lat="47.73226" lon="3.58616">
        <ele>143.5</ele>
        <time>2022-04-03T12:52:16Z</time>
      </trkpt>
      <trkpt lat="47.73227" lon="3.58615">
        <ele>143.6</ele>
        <time>2022-04-03T12:52:17Z</time>
      </trkpt>
      <trkpt lat="47.73229" lon="3.58614">
        <ele>143.7</ele>
        <time>2022-04-03T12:52:18Z</time>
      </trkpt>
      <trkpt lat="47.73229" lon="3.58613">
        <ele>143.8</ele>
        <time>2022-04-03T12:52:20Z</time>
      </trkpt>
      <trkpt lat="47.7323" lon="3.58612">
        <ele>143.8</ele>
        <time>2022-04-03T12:52:21Z</time>
      </trkpt>
      <trkpt lat="47.73231" lon="3.5861">
        <ele>144</ele>
        <time>2022-04-03T12:52:22Z</time>
      </trkpt>
      <trkpt lat="47.73232" lon="3.58609">
        <ele>144</ele>
        <time>2022-04-03T12:52:23Z</time>
      </trkpt>
      <trkpt lat="47.73233" lon="3.58608">
        <ele>144.1</ele>
        <time>2022-04-03T12:52:24Z</time>
      </trkpt>
      <trkpt lat="47.73233" lon="3.58606">
        <ele>144.2</ele>
        <time>2022-04-03T12:52:26Z</time>
      </trkpt>
      <trkpt lat="47.73234" lon="3.58605">
        <ele>144.2</ele>
        <time>2022-04-03T12:52:27Z</time>
      </trkpt>
      <trkpt lat="47.73235" lon="3.58604">
        <ele>144.3</ele>
        <time>2022-04-03T12:52:28Z</time>
      </trkpt>
      <trkpt lat="47.73236" lon="3.58602">
        <ele>144.4</ele>
        <time>2022-04-03T12:52:29Z</time>
      </trkpt>
      <trkpt lat="47.73236" lon="3.58601">
        <ele>144.5</ele>
        <time>2022-04-03T12:52:30Z</time>
      </trkpt>
      <trkpt lat="47.73237" lon="3.586">
        <ele>144.6</ele>
        <time>2022-04-03T12:52:31Z</time>
      </trkpt>
      <trkpt lat="47.73238" lon="3.586">
        <ele>144.6</ele>
        <time>2022-04-03T12:52:33Z</time>
      </trkpt>
      <trkpt lat="47.7324" lon="3.58599">
        <ele>144.8</ele>
        <time>2022-04-03T12:52:34Z</time>
      </trkpt>
      <trkpt lat="47.7324" lon="3.58598">
        <ele>144.8</ele>
        <time>2022-04-03T12:52:35Z</time>
      </trkpt>
      <trkpt lat="47.7324" lon="3.58596">
        <ele>144.9</ele>
        <time>2022-04-03T12:52:36Z</time>
      </trkpt>
      <trkpt lat="47.73241" lon="3.58594">
        <ele>145</ele>
        <time>2022-04-03T12:52:37Z</time>
      </trkpt>
      <trkpt lat="47.73241" lon="3.58593">
        <ele>145.1</ele>
        <time>2022-04-03T12:52:38Z</time>
      </trkpt>
      <trkpt lat="47.73242" lon="3.58591">
        <ele>145.2</ele>
        <time>2022-04-03T12:52:39Z</time>
      </trkpt>
      <trkpt lat="47.73243" lon="3.5859">
        <ele>145.3</ele>
        <time>2022-04-03T12:52:41Z</time>
      </trkpt>
      <trkpt lat="47.73244" lon="3.58587">
        <ele>145.5</ele>
        <time>2022-04-03T12:52:42Z</time>
      </trkpt>
      <trkpt lat="47.73244" lon="3.58586">
        <ele>145.5</ele>
        <time>2022-04-03T12:52:43Z</time>
      </trkpt>
      <trkpt lat="47.73245" lon="3.58585">
        <ele>145.6</ele>
        <time>2022-04-03T12:52:44Z</time>
      </trkpt>
      <trkpt lat="47.73245" lon="3.58583">
        <ele>145.7</ele>
        <time>2022-04-03T12:52:45Z</time>
      </trkpt>
      <trkpt lat="47.73245" lon="3.58582">
        <ele>145.7</ele>
        <time>2022-04-03T12:52:46Z</time>
      </trkpt>
      <trkpt lat="47.73245" lon="3.58579">
        <ele>145.9</ele>
        <time>2022-04-03T12:52:48Z</time>
      </trkpt>
      <trkpt lat="47.73245" lon="3.58576">
        <ele>146</ele>
        <time>2022-04-03T12:52:49Z</time>
      </trkpt>
      <trkpt lat="47.73245" lon="3.58575">
        <ele>146.4</ele>
        <time>2022-04-03T12:52:50Z</time>
      </trkpt>
      <trkpt lat="47.73245" lon="3.58572">
        <ele>146.6</ele>
        <time>2022-04-03T12:52:51Z</time>
      </trkpt>
      <trkpt lat="47.73245" lon="3.58571">
        <ele>146.7</ele>
        <time>2022-04-03T12:52:53Z</time>
      </trkpt>
      <trkpt lat="47.73245" lon="3.58569">
        <ele>146.8</ele>
        <time>2022-04-03T12:52:54Z</time>
      </trkpt>
      <trkpt lat="47.73244" lon="3.58568">
        <ele>146.9</ele>
        <time>2022-04-03T12:52:55Z</time>
      </trkpt>
      <trkpt lat="47.73244" lon="3.58566">
        <ele>147.1</ele>
        <time>2022-04-03T12:52:56Z</time>
      </trkpt>
      <trkpt lat="47.73243" lon="3.58564">
        <ele>147.2</ele>
        <time>2022-04-03T12:52:57Z</time>
      </trkpt>
      <trkpt lat="47.73242" lon="3.58563">
        <ele>147.3</ele>
        <time>2022-04-03T12:52:59Z</time>
      </trkpt>
      <trkpt lat="47.73241" lon="3.58561">
        <ele>147.5</ele>
        <time>2022-04-03T12:53:00Z</time>
      </trkpt>
      <trkpt lat="47.7324" lon="3.58559">
        <ele>147.6</ele>
        <time>2022-04-03T12:53:01Z</time>
      </trkpt>
      <trkpt lat="47.73239" lon="3.58558">
        <ele>147.8</ele>
        <time>2022-04-03T12:53:02Z</time>
      </trkpt>
      <trkpt lat="47.73239" lon="3.58555">
        <ele>148</ele>
        <time>2022-04-03T12:53:04Z</time>
      </trkpt>
      <trkpt lat="47.73238" lon="3.58555">
        <ele>148</ele>
        <time>2022-04-03T12:53:05Z</time>
      </trkpt>
      <trkpt lat="47.73238" lon="3.58554">
        <ele>148.1</ele>
        <time>2022-04-03T12:53:06Z</time>
      </trkpt>
      <trkpt lat="47.73237" lon="3.58553">
        <ele>148.2</ele>
        <time>2022-04-03T12:53:07Z</time>
      </trkpt>
      <trkpt lat="47.73237" lon="3.58552">
        <ele>148.3</ele>
        <time>2022-04-03T12:53:08Z</time>
      </trkpt>
      <trkpt lat="47.73237" lon="3.58551">
        <ele>148.4</ele>
        <time>2022-04-03T12:53:09Z</time>
      </trkpt>
      <trkpt lat="47.73236" lon="3.5855">
        <ele>148.5</ele>
        <time>2022-04-03T12:53:11Z</time>
      </trkpt>
      <trkpt lat="47.73236" lon="3.58548">
        <ele>148.6</ele>
        <time>2022-04-03T12:53:12Z</time>
      </trkpt>
      <trkpt lat="47.73235" lon="3.58547">
        <ele>148.7</ele>
        <time>2022-04-03T12:53:13Z</time>
      </trkpt>
      <trkpt lat="47.73235" lon="3.58546">
        <ele>148.8</ele>
        <time>2022-04-03T12:53:15Z</time>
      </trkpt>
      <trkpt lat="47.73234" lon="3.58544">
        <ele>148.9</ele>
        <time>2022-04-03T12:53:16Z</time>
      </trkpt>
      <trkpt lat="47.73234" lon="3.58543">
        <ele>149</ele>
        <time>2022-04-03T12:53:17Z</time>
      </trkpt>
      <trkpt lat="47.73232" lon="3.5854">
        <ele>149.3</ele>
        <time>2022-04-03T12:53:19Z</time>
      </trkpt>
      <trkpt lat="47.73232" lon="3.58539">
        <ele>149.4</ele>
        <time>2022-04-03T12:53:20Z</time>
      </trkpt>
      <trkpt lat="47.73231" lon="3.58538">
        <ele>149.5</ele>
        <time>2022-04-03T12:53:22Z</time>
      </trkpt>
      <trkpt lat="47.73231" lon="3.58536">
        <ele>149.7</ele>
        <time>2022-04-03T12:53:23Z</time>
      </trkpt>
      <trkpt lat="47.7323" lon="3.58534">
        <ele>149.9</ele>
        <time>2022-04-03T12:53:24Z</time>
      </trkpt>
      <trkpt lat="47.73229" lon="3.58534">
        <ele>149.9</ele>
        <time>2022-04-03T12:53:25Z</time>
      </trkpt>
      <trkpt lat="47.73227" lon="3.58533">
        <ele>150.1</ele>
        <time>2022-04-03T12:53:27Z</time>
      </trkpt>
      <trkpt lat="47.73226" lon="3.58532">
        <ele>150.3</ele>
        <time>2022-04-03T12:53:28Z</time>
      </trkpt>
      <trkpt lat="47.73225" lon="3.5853">
        <ele>150.4</ele>
        <time>2022-04-03T12:53:29Z</time>
      </trkpt>
      <trkpt lat="47.73225" lon="3.58529">
        <ele>150.5</ele>
        <time>2022-04-03T12:53:30Z</time>
      </trkpt>
      <trkpt lat="47.73223" lon="3.58527">
        <ele>150.7</ele>
        <time>2022-04-03T12:53:31Z</time>
      </trkpt>
      <trkpt lat="47.73223" lon="3.58526">
        <ele>150.8</ele>
        <time>2022-04-03T12:53:32Z</time>
      </trkpt>
      <trkpt lat="47.73223" lon="3.58525">
        <ele>150.9</ele>
        <time>2022-04-03T12:53:34Z</time>
      </trkpt>
      <trkpt lat="47.73222" lon="3.58525">
        <ele>151</ele>
        <time>2022-04-03T12:53:35Z</time>
      </trkpt>
      <trkpt lat="47.73221" lon="3.58522">
        <ele>151.1</ele>
        <time>2022-04-03T12:53:37Z</time>
      </trkpt>
      <trkpt lat="47.73221" lon="3.5852">
        <ele>151.3</ele>
        <time>2022-04-03T12:53:38Z</time>
      </trkpt>
      <trkpt lat="47.7322" lon="3.58518">
        <ele>151.5</ele>
        <time>2022-04-03T12:53:39Z</time>
      </trkpt>
      <trkpt lat="47.73219" lon="3.58516">
        <ele>151.6</ele>
        <time>2022-04-03T12:53:40Z</time>
      </trkpt>
      <trkpt lat="47.73218" lon="3.58512">
        <ele>152</ele>
        <time>2022-04-03T12:53:42Z</time>
      </trkpt>
      <trkpt lat="47.73217" lon="3.58511">
        <ele>152.1</ele>
        <time>2022-04-03T12:53:43Z</time>
      </trkpt>
      <trkpt lat="47.73216" lon="3.58509">
        <ele>152.2</ele>
        <time>2022-04-03T12:53:45Z</time>
      </trkpt>
      <trkpt lat="47.73216" lon="3.58508">
        <ele>152.3</ele>
        <time>2022-04-03T12:53:46Z</time>
      </trkpt>
      <trkpt lat="47.73215" lon="3.58507">
        <ele>152.4</ele>
        <time>2022-04-03T12:53:47Z</time>
      </trkpt>
      <trkpt lat="47.73215" lon="3.58506">
        <ele>152.5</ele>
        <time>2022-04-03T12:53:48Z</time>
      </trkpt>
      <trkpt lat="47.73214" lon="3.58504">
        <ele>152.7</ele>
        <time>2022-04-03T12:53:49Z</time>
      </trkpt>
      <trkpt lat="47.73214" lon="3.58504">
        <ele>152.7</ele>
        <time>2022-04-03T12:53:50Z</time>
      </trkpt>
      <trkpt lat="47.73214" lon="3.58503">
        <ele>152.8</ele>
        <time>2022-04-03T12:53:51Z</time>
      </trkpt>
      <trkpt lat="47.73214" lon="3.58502">
        <ele>152.8</ele>
        <time>2022-04-03T12:53:52Z</time>
      </trkpt>
      <trkpt lat="47.73214" lon="3.58501">
        <ele>152.9</ele>
        <time>2022-04-03T12:53:53Z</time>
      </trkpt>
      <trkpt lat="47.73213" lon="3.58499">
        <ele>153</ele>
        <time>2022-04-03T12:53:55Z</time>
      </trkpt>
      <trkpt lat="47.73213" lon="3.58498">
        <ele>153.1</ele>
        <time>2022-04-03T12:53:56Z</time>
      </trkpt>
      <trkpt lat="47.73213" lon="3.58496">
        <ele>153.2</ele>
        <time>2022-04-03T12:53:57Z</time>
      </trkpt>
      <trkpt lat="47.73213" lon="3.58495">
        <ele>153.3</ele>
        <time>2022-04-03T12:53:58Z</time>
      </trkpt>
      <trkpt lat="47.73214" lon="3.58494">
        <ele>153.4</ele>
        <time>2022-04-03T12:53:59Z</time>
      </trkpt>
      <trkpt lat="47.73214" lon="3.5849">
        <ele>153.7</ele>
        <time>2022-04-03T12:54:01Z</time>
      </trkpt>
      <trkpt lat="47.73214" lon="3.58489">
        <ele>153.7</ele>
        <time>2022-04-03T12:54:02Z</time>
      </trkpt>
      <trkpt lat="47.73214" lon="3.58488">
        <ele>153.8</ele>
        <time>2022-04-03T12:54:03Z</time>
      </trkpt>
      <trkpt lat="47.73214" lon="3.58486">
        <ele>154</ele>
        <time>2022-04-03T12:54:04Z</time>
      </trkpt>
      <trkpt lat="47.73214" lon="3.58485">
        <ele>154.1</ele>
        <time>2022-04-03T12:54:05Z</time>
      </trkpt>
      <trkpt lat="47.73213" lon="3.58484">
        <ele>154.1</ele>
        <time>2022-04-03T12:54:06Z</time>
      </trkpt>
      <trkpt lat="47.73213" lon="3.58483">
        <ele>154.2</ele>
        <time>2022-04-03T12:54:07Z</time>
      </trkpt>
      <trkpt lat="47.73212" lon="3.58482">
        <ele>154.3</ele>
        <time>2022-04-03T12:54:08Z</time>
      </trkpt>
      <trkpt lat="47.73212" lon="3.58481">
        <ele>154.4</ele>
        <time>2022-04-03T12:54:09Z</time>
      </trkpt>
      <trkpt lat="47.73211" lon="3.5848">
        <ele>154.5</ele>
        <time>2022-04-03T12:54:10Z</time>
      </trkpt>
      <trkpt lat="47.7321" lon="3.58478">
        <ele>154.7</ele>
        <time>2022-04-03T12:54:12Z</time>
      </trkpt>
      <trkpt lat="47.7321" lon="3.58477">
        <ele>154.8</ele>
        <time>2022-04-03T12:54:13Z</time>
      </trkpt>
      <trkpt lat="47.73209" lon="3.58475">
        <ele>154.9</ele>
        <time>2022-04-03T12:54:15Z</time>
      </trkpt>
      <trkpt lat="47.73209" lon="3.58474">
        <ele>155</ele>
        <time>2022-04-03T12:54:16Z</time>
      </trkpt>
      <trkpt lat="47.73208" lon="3.58473">
        <ele>155.1</ele>
        <time>2022-04-03T12:54:17Z</time>
      </trkpt>
      <trkpt lat="47.73208" lon="3.58472">
        <ele>155.2</ele>
        <time>2022-04-03T12:54:18Z</time>
      </trkpt>
      <trkpt lat="47.73207" lon="3.5847">
        <ele>155.3</ele>
        <time>2022-04-03T12:54:19Z</time>
      </trkpt>
      <trkpt lat="47.73207" lon="3.58469">
        <ele>155.4</ele>
        <time>2022-04-03T12:54:20Z</time>
      </trkpt>
      <trkpt lat="47.73206" lon="3.58466">
        <ele>155.6</ele>
        <time>2022-04-03T12:54:22Z</time>
      </trkpt>
      <trkpt lat="47.73206" lon="3.58465">
        <ele>155.7</ele>
        <time>2022-04-03T12:54:23Z</time>
      </trkpt>
      <trkpt lat="47.73205" lon="3.58464">
        <ele>155.8</ele>
        <time>2022-04-03T12:54:24Z</time>
      </trkpt>
      <trkpt lat="47.73205" lon="3.58463">
        <ele>155.8</ele>
        <time>2022-04-03T12:54:26Z</time>
      </trkpt>
      <trkpt lat="47.73205" lon="3.58462">
        <ele>155.9</ele>
        <time>2022-04-03T12:54:27Z</time>
      </trkpt>
      <trkpt lat="47.73205" lon="3.5846">
        <ele>156.1</ele>
        <time>2022-04-03T12:54:28Z</time>
      </trkpt>
      <trkpt lat="47.73204" lon="3.58459">
        <ele>156.3</ele>
        <time>2022-04-03T12:54:30Z</time>
      </trkpt>
      <trkpt lat="47.73204" lon="3.58457">
        <ele>156.3</ele>
        <time>2022-04-03T12:54:31Z</time>
      </trkpt>
      <trkpt lat="47.73204" lon="3.58456">
        <ele>156.4</ele>
        <time>2022-04-03T12:54:32Z</time>
      </trkpt>
      <trkpt lat="47.73204" lon="3.58455">
        <ele>156.5</ele>
        <time>2022-04-03T12:54:33Z</time>
      </trkpt>
      <trkpt lat="47.73203" lon="3.58453">
        <ele>156.7</ele>
        <time>2022-04-03T12:54:35Z</time>
      </trkpt>
      <trkpt lat="47.73203" lon="3.58452">
        <ele>156.8</ele>
        <time>2022-04-03T12:54:36Z</time>
      </trkpt>
      <trkpt lat="47.73202" lon="3.58451">
        <ele>156.8</ele>
        <time>2022-04-03T12:54:37Z</time>
      </trkpt>
      <trkpt lat="47.73202" lon="3.5845">
        <ele>156.9</ele>
        <time>2022-04-03T12:54:38Z</time>
      </trkpt>
      <trkpt lat="47.73201" lon="3.58448">
        <ele>157.1</ele>
        <time>2022-04-03T12:54:40Z</time>
      </trkpt>
      <trkpt lat="47.732" lon="3.58447">
        <ele>157.2</ele>
        <time>2022-04-03T12:54:41Z</time>
      </trkpt>
      <trkpt lat="47.732" lon="3.58445">
        <ele>157.3</ele>
        <time>2022-04-03T12:54:42Z</time>
      </trkpt>
      <trkpt lat="47.73199" lon="3.58444">
        <ele>157.4</ele>
        <time>2022-04-03T12:54:43Z</time>
      </trkpt>
      <trkpt lat="47.73198" lon="3.58442">
        <ele>157.6</ele>
        <time>2022-04-03T12:54:45Z</time>
      </trkpt>
      <trkpt lat="47.73197" lon="3.58441">
        <ele>157.7</ele>
        <time>2022-04-03T12:54:46Z</time>
      </trkpt>
      <trkpt lat="47.73197" lon="3.58439">
        <ele>157.8</ele>
        <time>2022-04-03T12:54:48Z</time>
      </trkpt>
      <trkpt lat="47.73197" lon="3.58437">
        <ele>157.9</ele>
        <time>2022-04-03T12:54:49Z</time>
      </trkpt>
      <trkpt lat="47.73196" lon="3.58436">
        <ele>158.1</ele>
        <time>2022-04-03T12:54:50Z</time>
      </trkpt>
      <trkpt lat="47.73195" lon="3.58434">
        <ele>158.2</ele>
        <time>2022-04-03T12:54:51Z</time>
      </trkpt>
      <trkpt lat="47.73194" lon="3.58432">
        <ele>158.4</ele>
        <time>2022-04-03T12:54:52Z</time>
      </trkpt>
      <trkpt lat="47.73194" lon="3.58431">
        <ele>158.5</ele>
        <time>2022-04-03T12:54:54Z</time>
      </trkpt>
      <trkpt lat="47.73193" lon="3.5843">
        <ele>158.6</ele>
        <time>2022-04-03T12:54:55Z</time>
      </trkpt>
      <trkpt lat="47.73193" lon="3.58428">
        <ele>158.7</ele>
        <time>2022-04-03T12:54:56Z</time>
      </trkpt>
      <trkpt lat="47.73192" lon="3.58427">
        <ele>158.8</ele>
        <time>2022-04-03T12:54:57Z</time>
      </trkpt>
      <trkpt lat="47.73191" lon="3.58426">
        <ele>158.8</ele>
        <time>2022-04-03T12:54:58Z</time>
      </trkpt>
      <trkpt lat="47.73191" lon="3.58424">
        <ele>159</ele>
        <time>2022-04-03T12:55:00Z</time>
      </trkpt>
      <trkpt lat="47.7319" lon="3.58422">
        <ele>159.2</ele>
        <time>2022-04-03T12:55:01Z</time>
      </trkpt>
      <trkpt lat="47.73189" lon="3.5842">
        <ele>159.3</ele>
        <time>2022-04-03T12:55:03Z</time>
      </trkpt>
      <trkpt lat="47.73189" lon="3.58419">
        <ele>159.4</ele>
        <time>2022-04-03T12:55:04Z</time>
      </trkpt>
      <trkpt lat="47.73189" lon="3.58417">
        <ele>159.6</ele>
        <time>2022-04-03T12:55:05Z</time>
      </trkpt>
      <trkpt lat="47.73189" lon="3.58414">
        <ele>159.8</ele>
        <time>2022-04-03T12:55:07Z</time>
      </trkpt>
      <trkpt lat="47.73189" lon="3.58412">
        <ele>159.9</ele>
        <time>2022-04-03T12:55:08Z</time>
      </trkpt>
      <trkpt lat="47.73189" lon="3.58409">
        <ele>160.1</ele>
        <time>2022-04-03T12:55:09Z</time>
      </trkpt>
      <trkpt lat="47.7319" lon="3.58407">
        <ele>160.3</ele>
        <time>2022-04-03T12:55:10Z</time>
      </trkpt>
      <trkpt lat="47.73191" lon="3.58406">
        <ele>160.4</ele>
        <time>2022-04-03T12:55:11Z</time>
      </trkpt>
      <trkpt lat="47.73192" lon="3.58406">
        <ele>160.5</ele>
        <time>2022-04-03T12:55:12Z</time>
      </trkpt>
      <trkpt lat="47.73193" lon="3.58406">
        <ele>160.6</ele>
        <time>2022-04-03T12:55:13Z</time>
      </trkpt>
      <trkpt lat="47.73195" lon="3.58405">
        <ele>160.9</ele>
        <time>2022-04-03T12:55:15Z</time>
      </trkpt>
      <trkpt lat="47.73197" lon="3.58405">
        <ele>161.1</ele>
        <time>2022-04-03T12:55:16Z</time>
      </trkpt>
      <trkpt lat="47.73198" lon="3.58404">
        <ele>161.2</ele>
        <time>2022-04-03T12:55:18Z</time>
      </trkpt>
      <trkpt lat="47.73199" lon="3.58403">
        <ele>161.4</ele>
        <time>2022-04-03T12:55:19Z</time>
      </trkpt>
      <trkpt lat="47.732" lon="3.58401">
        <ele>161.6</ele>
        <time>2022-04-03T12:55:20Z</time>
      </trkpt>
      <trkpt lat="47.73201" lon="3.58399">
        <ele>161.8</ele>
        <time>2022-04-03T12:55:21Z</time>
      </trkpt>
      <trkpt lat="47.73201" lon="3.58398">
        <ele>161.9</ele>
        <time>2022-04-03T12:55:22Z</time>
      </trkpt>
      <trkpt lat="47.73201" lon="3.58396">
        <ele>162</ele>
        <time>2022-04-03T12:55:23Z</time>
      </trkpt>
      <trkpt lat="47.73201" lon="3.58394">
        <ele>162.2</ele>
        <time>2022-04-03T12:55:25Z</time>
      </trkpt>
      <trkpt lat="47.73202" lon="3.58393">
        <ele>162.3</ele>
        <time>2022-04-03T12:55:26Z</time>
      </trkpt>
      <trkpt lat="47.73202" lon="3.58392">
        <ele>162.5</ele>
        <time>2022-04-03T12:55:27Z</time>
      </trkpt>
      <trkpt lat="47.73202" lon="3.58391">
        <ele>162.6</ele>
        <time>2022-04-03T12:55:29Z</time>
      </trkpt>
      <trkpt lat="47.73203" lon="3.58389">
        <ele>162.8</ele>
        <time>2022-04-03T12:55:30Z</time>
      </trkpt>
      <trkpt lat="47.73204" lon="3.58388">
        <ele>162.9</ele>
        <time>2022-04-03T12:55:31Z</time>
      </trkpt>
      <trkpt lat="47.73204" lon="3.58388">
        <ele>162.9</ele>
        <time>2022-04-03T12:55:32Z</time>
      </trkpt>
      <trkpt lat="47.73205" lon="3.58387">
        <ele>163</ele>
        <time>2022-04-03T12:55:33Z</time>
      </trkpt>
      <trkpt lat="47.73205" lon="3.58386">
        <ele>163.2</ele>
        <time>2022-04-03T12:55:35Z</time>
      </trkpt>
      <trkpt lat="47.73206" lon="3.58386">
        <ele>163.3</ele>
        <time>2022-04-03T12:55:36Z</time>
      </trkpt>
      <trkpt lat="47.73206" lon="3.58385">
        <ele>163.4</ele>
        <time>2022-04-03T12:55:37Z</time>
      </trkpt>
      <trkpt lat="47.73207" lon="3.58384">
        <ele>163.5</ele>
        <time>2022-04-03T12:55:39Z</time>
      </trkpt>
      <trkpt lat="47.73208" lon="3.58382">
        <ele>163.7</ele>
        <time>2022-04-03T12:55:40Z</time>
      </trkpt>
      <trkpt lat="47.73208" lon="3.58382">
        <ele>163.8</ele>
        <time>2022-04-03T12:55:41Z</time>
      </trkpt>
      <trkpt lat="47.73209" lon="3.58381">
        <ele>163.8</ele>
        <time>2022-04-03T12:55:42Z</time>
      </trkpt>
      <trkpt lat="47.73209" lon="3.58381">
        <ele>163.9</ele>
        <time>2022-04-03T12:55:43Z</time>
      </trkpt>
      <trkpt lat="47.7321" lon="3.5838">
        <ele>164</ele>
        <time>2022-04-03T12:55:44Z</time>
      </trkpt>
      <trkpt lat="47.7321" lon="3.58379">
        <ele>164.1</ele>
        <time>2022-04-03T12:55:46Z</time>
      </trkpt>
      <trkpt lat="47.73211" lon="3.58379">
        <ele>164.2</ele>
        <time>2022-04-03T12:55:47Z</time>
      </trkpt>
      <trkpt lat="47.73212" lon="3.58378">
        <ele>164.4</ele>
        <time>2022-04-03T12:55:48Z</time>
      </trkpt>
      <trkpt lat="47.73213" lon="3.58376">
        <ele>164.6</ele>
        <time>2022-04-03T12:55:50Z</time>
      </trkpt>
      <trkpt lat="47.73214" lon="3.58376">
        <ele>164.7</ele>
        <time>2022-04-03T12:55:51Z</time>
      </trkpt>
      <trkpt lat="47.73215" lon="3.58376">
        <ele>164.8</ele>
        <time>2022-04-03T12:55:53Z</time>
      </trkpt>
      <trkpt lat="47.73216" lon="3.58375">
        <ele>165</ele>
        <time>2022-04-03T12:55:54Z</time>
      </trkpt>
      <trkpt lat="47.73217" lon="3.58374">
        <ele>165.1</ele>
        <time>2022-04-03T12:55:55Z</time>
      </trkpt>
      <trkpt lat="47.73217" lon="3.58373">
        <ele>165.2</ele>
        <time>2022-04-03T12:55:56Z</time>
      </trkpt>
      <trkpt lat="47.73218" lon="3.58372">
        <ele>165.3</ele>
        <time>2022-04-03T12:55:57Z</time>
      </trkpt>
      <trkpt lat="47.73219" lon="3.5837">
        <ele>165.6</ele>
        <time>2022-04-03T12:55:59Z</time>
      </trkpt>
      <trkpt lat="47.7322" lon="3.58367">
        <ele>165.9</ele>
        <time>2022-04-03T12:56:00Z</time>
      </trkpt>
      <trkpt lat="47.7322" lon="3.58366">
        <ele>166</ele>
        <time>2022-04-03T12:56:01Z</time>
      </trkpt>
      <trkpt lat="47.73221" lon="3.58365">
        <ele>166.1</ele>
        <time>2022-04-03T12:56:02Z</time>
      </trkpt>
      <trkpt lat="47.73221" lon="3.58364">
        <ele>166.2</ele>
        <time>2022-04-03T12:56:03Z</time>
      </trkpt>
      <trkpt lat="47.73222" lon="3.58362">
        <ele>166.3</ele>
        <time>2022-04-03T12:56:05Z</time>
      </trkpt>
      <trkpt lat="47.73223" lon="3.58361">
        <ele>166.4</ele>
        <time>2022-04-03T12:56:06Z</time>
      </trkpt>
      <trkpt lat="47.73223" lon="3.5836">
        <ele>166.6</ele>
        <time>2022-04-03T12:56:07Z</time>
      </trkpt>
      <trkpt lat="47.73224" lon="3.58359">
        <ele>166.7</ele>
        <time>2022-04-03T12:56:08Z</time>
      </trkpt>
      <trkpt lat="47.73225" lon="3.58358">
        <ele>166.8</ele>
        <time>2022-04-03T12:56:09Z</time>
      </trkpt>
      <trkpt lat="47.73225" lon="3.58357">
        <ele>166.9</ele>
        <time>2022-04-03T12:56:10Z</time>
      </trkpt>
      <trkpt lat="47.73225" lon="3.58356">
        <ele>167</ele>
        <time>2022-04-03T12:56:11Z</time>
      </trkpt>
      <trkpt lat="47.73226" lon="3.58354">
        <ele>167.2</ele>
        <time>2022-04-03T12:56:13Z</time>
      </trkpt>
      <trkpt lat="47.73227" lon="3.58352">
        <ele>167.4</ele>
        <time>2022-04-03T12:56:14Z</time>
      </trkpt>
      <trkpt lat="47.73228" lon="3.58351">
        <ele>167.5</ele>
        <time>2022-04-03T12:56:15Z</time>
      </trkpt>
      <trkpt lat="47.73228" lon="3.5835">
        <ele>167.6</ele>
        <time>2022-04-03T12:56:16Z</time>
      </trkpt>
      <trkpt lat="47.73229" lon="3.58347">
        <ele>167.9</ele>
        <time>2022-04-03T12:56:17Z</time>
      </trkpt>
      <trkpt lat="47.73229" lon="3.58346">
        <ele>168</ele>
        <time>2022-04-03T12:56:19Z</time>
      </trkpt>
      <trkpt lat="47.7323" lon="3.58345">
        <ele>168.1</ele>
        <time>2022-04-03T12:56:20Z</time>
      </trkpt>
      <trkpt lat="47.7323" lon="3.58343">
        <ele>168.2</ele>
        <time>2022-04-03T12:56:21Z</time>
      </trkpt>
      <trkpt lat="47.73231" lon="3.58342">
        <ele>168.3</ele>
        <time>2022-04-03T12:56:22Z</time>
      </trkpt>
      <trkpt lat="47.73232" lon="3.58341">
        <ele>168.4</ele>
        <time>2022-04-03T12:56:23Z</time>
      </trkpt>
      <trkpt lat="47.73234" lon="3.58337">
        <ele>168.8</ele>
        <time>2022-04-03T12:56:25Z</time>
      </trkpt>
      <trkpt lat="47.73235" lon="3.58336">
        <ele>168.9</ele>
        <time>2022-04-03T12:56:27Z</time>
      </trkpt>
      <trkpt lat="47.73235" lon="3.58335">
        <ele>169</ele>
        <time>2022-04-03T12:56:28Z</time>
      </trkpt>
      <trkpt lat="47.73236" lon="3.58333">
        <ele>169.1</ele>
        <time>2022-04-03T12:56:29Z</time>
      </trkpt>
      <trkpt lat="47.73236" lon="3.58332">
        <ele>169.2</ele>
        <time>2022-04-03T12:56:30Z</time>
      </trkpt>
      <trkpt lat="47.73237" lon="3.58331">
        <ele>169.3</ele>
        <time>2022-04-03T12:56:31Z</time>
      </trkpt>
      <trkpt lat="47.73238" lon="3.5833">
        <ele>169.4</ele>
        <time>2022-04-03T12:56:32Z</time>
      </trkpt>
      <trkpt lat="47.73239" lon="3.58328">
        <ele>169.6</ele>
        <time>2022-04-03T12:56:34Z</time>
      </trkpt>
      <trkpt lat="47.7324" lon="3.58326">
        <ele>169.8</ele>
        <time>2022-04-03T12:56:35Z</time>
      </trkpt>
      <trkpt lat="47.7324" lon="3.58325">
        <ele>169.9</ele>
        <time>2022-04-03T12:56:36Z</time>
      </trkpt>
      <trkpt lat="47.73241" lon="3.58323">
        <ele>170</ele>
        <time>2022-04-03T12:56:37Z</time>
      </trkpt>
      <trkpt lat="47.73242" lon="3.58322">
        <ele>170.1</ele>
        <time>2022-04-03T12:56:38Z</time>
      </trkpt>
      <trkpt lat="47.73243" lon="3.58321">
        <ele>170.2</ele>
        <time>2022-04-03T12:56:39Z</time>
      </trkpt>
      <trkpt lat="47.73244" lon="3.58318">
        <ele>170.4</ele>
        <time>2022-04-03T12:56:40Z</time>
      </trkpt>
      <trkpt lat="47.73244" lon="3.58317">
        <ele>170.5</ele>
        <time>2022-04-03T12:56:41Z</time>
      </trkpt>
      <trkpt lat="47.73245" lon="3.58316">
        <ele>170.5</ele>
        <time>2022-04-03T12:56:42Z</time>
      </trkpt>
      <trkpt lat="47.73245" lon="3.58314">
        <ele>170.7</ele>
        <time>2022-04-03T12:56:44Z</time>
      </trkpt>
      <trkpt lat="47.73246" lon="3.58311">
        <ele>170.8</ele>
        <time>2022-04-03T12:56:45Z</time>
      </trkpt>
      <trkpt lat="47.73247" lon="3.5831">
        <ele>170.9</ele>
        <time>2022-04-03T12:56:46Z</time>
      </trkpt>
      <trkpt lat="47.73247" lon="3.58309">
        <ele>171</ele>
        <time>2022-04-03T12:56:47Z</time>
      </trkpt>
      <trkpt lat="47.73247" lon="3.58307">
        <ele>171.1</ele>
        <time>2022-04-03T12:56:48Z</time>
      </trkpt>
      <trkpt lat="47.73248" lon="3.58304">
        <ele>171.3</ele>
        <time>2022-04-03T12:56:50Z</time>
      </trkpt>
      <trkpt lat="47.73247" lon="3.58302">
        <ele>171.3</ele>
        <time>2022-04-03T12:56:51Z</time>
      </trkpt>
      <trkpt lat="47.73246" lon="3.58299">
        <ele>171.5</ele>
        <time>2022-04-03T12:56:52Z</time>
      </trkpt>
      <trkpt lat="47.73246" lon="3.58299">
        <ele>171.6</ele>
        <time>2022-04-03T12:56:53Z</time>
      </trkpt>
      <trkpt lat="47.73245" lon="3.58298">
        <ele>171.7</ele>
        <time>2022-04-03T12:56:54Z</time>
      </trkpt>
      <trkpt lat="47.73244" lon="3.58297">
        <ele>171.8</ele>
        <time>2022-04-03T12:56:55Z</time>
      </trkpt>
      <trkpt lat="47.73243" lon="3.58296">
        <ele>171.8</ele>
        <time>2022-04-03T12:56:56Z</time>
      </trkpt>
      <trkpt lat="47.73242" lon="3.58296">
        <ele>171.9</ele>
        <time>2022-04-03T12:56:57Z</time>
      </trkpt>
      <trkpt lat="47.73241" lon="3.58296">
        <ele>172</ele>
        <time>2022-04-03T12:56:58Z</time>
      </trkpt>
      <trkpt lat="47.7324" lon="3.58296">
        <ele>172.1</ele>
        <time>2022-04-03T12:56:59Z</time>
      </trkpt>
      <trkpt lat="47.73239" lon="3.58296">
        <ele>172.2</ele>
        <time>2022-04-03T12:57:00Z</time>
      </trkpt>
      <trkpt lat="47.73238" lon="3.58296">
        <ele>172.3</ele>
        <time>2022-04-03T12:57:01Z</time>
      </trkpt>
      <trkpt lat="47.73237" lon="3.58295">
        <ele>172.3</ele>
        <time>2022-04-03T12:57:02Z</time>
      </trkpt>
      <trkpt lat="47.73237" lon="3.58295">
        <ele>172.4</ele>
        <time>2022-04-03T12:57:03Z</time>
      </trkpt>
      <trkpt lat="47.73237" lon="3.58294">
        <ele>172.4</ele>
        <time>2022-04-03T12:57:04Z</time>
      </trkpt>
      <trkpt lat="47.73236" lon="3.58292">
        <ele>172.5</ele>
        <time>2022-04-03T12:57:05Z</time>
      </trkpt>
      <trkpt lat="47.73237" lon="3.58293">
        <ele>172.6</ele>
        <time>2022-04-03T12:57:06Z</time>
      </trkpt>
      <trkpt lat="47.73238" lon="3.58293">
        <ele>172.7</ele>
        <time>2022-04-03T12:57:07Z</time>
      </trkpt>
      <trkpt lat="47.73238" lon="3.58293">
        <ele>172.7</ele>
        <time>2022-04-03T12:57:08Z</time>
      </trkpt>
      <trkpt lat="47.73239" lon="3.58294">
        <ele>172.7</ele>
        <time>2022-04-03T12:57:09Z</time>
      </trkpt>
      <trkpt lat="47.73239" lon="3.58294">
        <ele>172.8</ele>
        <time>2022-04-03T12:57:10Z</time>
      </trkpt>
      <trkpt lat="47.73239" lon="3.58294">
        <ele>172.8</ele>
        <time>2022-04-03T12:57:11Z</time>
      </trkpt>
      <trkpt lat="47.7324" lon="3.58294">
        <ele>172.9</ele>
        <time>2022-04-03T12:57:12Z</time>
      </trkpt>
      <trkpt lat="47.73241" lon="3.58294">
        <ele>172.9</ele>
        <time>2022-04-03T12:57:14Z</time>
      </trkpt>
      <trkpt lat="47.73242" lon="3.58293">
        <ele>173</ele>
        <time>2022-04-03T12:57:15Z</time>
      </trkpt>
      <trkpt lat="47.73243" lon="3.58293">
        <ele>173.1</ele>
        <time>2022-04-03T12:57:16Z</time>
      </trkpt>
      <trkpt lat="47.73245" lon="3.58293">
        <ele>173.3</ele>
        <time>2022-04-03T12:57:18Z</time>
      </trkpt>
      <trkpt lat="47.73246" lon="3.58292">
        <ele>173.4</ele>
        <time>2022-04-03T12:57:19Z</time>
      </trkpt>
      <trkpt lat="47.73248" lon="3.58289">
        <ele>173.6</ele>
        <time>2022-04-03T12:57:20Z</time>
      </trkpt>
      <trkpt lat="47.73248" lon="3.58288">
        <ele>173.7</ele>
        <time>2022-04-03T12:57:21Z</time>
      </trkpt>
      <trkpt lat="47.73248" lon="3.58288">
        <ele>173.7</ele>
        <time>2022-04-03T12:57:22Z</time>
      </trkpt>
      <trkpt lat="47.73248" lon="3.58287">
        <ele>173.8</ele>
        <time>2022-04-03T12:57:23Z</time>
      </trkpt>
      <trkpt lat="47.73249" lon="3.58281">
        <ele>174.2</ele>
        <time>2022-04-03T12:57:25Z</time>
      </trkpt>
      <trkpt lat="47.73249" lon="3.58279">
        <ele>174.3</ele>
        <time>2022-04-03T12:57:26Z</time>
      </trkpt>
      <trkpt lat="47.73249" lon="3.58277">
        <ele>174.4</ele>
        <time>2022-04-03T12:57:28Z</time>
      </trkpt>
      <trkpt lat="47.73248" lon="3.58275">
        <ele>174.6</ele>
        <time>2022-04-03T12:57:29Z</time>
      </trkpt>
      <trkpt lat="47.73248" lon="3.58273">
        <ele>174.8</ele>
        <time>2022-04-03T12:57:30Z</time>
      </trkpt>
      <trkpt lat="47.73247" lon="3.58271">
        <ele>174.9</ele>
        <time>2022-04-03T12:57:32Z</time>
      </trkpt>
      <trkpt lat="47.73247" lon="3.58269">
        <ele>175.1</ele>
        <time>2022-04-03T12:57:33Z</time>
      </trkpt>
      <trkpt lat="47.73246" lon="3.58265">
        <ele>175.4</ele>
        <time>2022-04-03T12:57:34Z</time>
      </trkpt>
      <trkpt lat="47.73246" lon="3.58264">
        <ele>175.5</ele>
        <time>2022-04-03T12:57:36Z</time>
      </trkpt>
      <trkpt lat="47.73246" lon="3.58262">
        <ele>175.7</ele>
        <time>2022-04-03T12:57:37Z</time>
      </trkpt>
      <trkpt lat="47.73245" lon="3.5826">
        <ele>175.8</ele>
        <time>2022-04-03T12:57:38Z</time>
      </trkpt>
      <trkpt lat="47.73245" lon="3.58259">
        <ele>175.9</ele>
        <time>2022-04-03T12:57:39Z</time>
      </trkpt>
      <trkpt lat="47.73245" lon="3.58256">
        <ele>176.1</ele>
        <time>2022-04-03T12:57:40Z</time>
      </trkpt>
      <trkpt lat="47.73244" lon="3.58255">
        <ele>176.3</ele>
        <time>2022-04-03T12:57:41Z</time>
      </trkpt>
      <trkpt lat="47.73242" lon="3.58253">
        <ele>176.5</ele>
        <time>2022-04-03T12:57:42Z</time>
      </trkpt>
      <trkpt lat="47.73242" lon="3.58252">
        <ele>176.6</ele>
        <time>2022-04-03T12:57:44Z</time>
      </trkpt>
      <trkpt lat="47.73241" lon="3.5825">
        <ele>176.8</ele>
        <time>2022-04-03T12:57:45Z</time>
      </trkpt>
      <trkpt lat="47.7324" lon="3.58248">
        <ele>177</ele>
        <time>2022-04-03T12:57:46Z</time>
      </trkpt>
      <trkpt lat="47.73239" lon="3.58247">
        <ele>177.1</ele>
        <time>2022-04-03T12:57:48Z</time>
      </trkpt>
      <trkpt lat="47.73239" lon="3.58246">
        <ele>177.2</ele>
        <time>2022-04-03T12:57:49Z</time>
      </trkpt>
      <trkpt lat="47.73238" lon="3.58243">
        <ele>177.5</ele>
        <time>2022-04-03T12:57:51Z</time>
      </trkpt>
      <trkpt lat="47.73238" lon="3.58241">
        <ele>177.6</ele>
        <time>2022-04-03T12:57:52Z</time>
      </trkpt>
      <trkpt lat="47.73237" lon="3.58238">
        <ele>177.9</ele>
        <time>2022-04-03T12:57:53Z</time>
      </trkpt>
      <trkpt lat="47.73237" lon="3.58237">
        <ele>178</ele>
        <time>2022-04-03T12:57:55Z</time>
      </trkpt>
      <trkpt lat="47.73237" lon="3.58236">
        <ele>178.1</ele>
        <time>2022-04-03T12:57:56Z</time>
      </trkpt>
      <trkpt lat="47.73236" lon="3.58233">
        <ele>178.3</ele>
        <time>2022-04-03T12:57:57Z</time>
      </trkpt>
      <trkpt lat="47.73236" lon="3.58233">
        <ele>178.3</ele>
        <time>2022-04-03T12:57:58Z</time>
      </trkpt>
      <trkpt lat="47.73236" lon="3.58232">
        <ele>178.3</ele>
        <time>2022-04-03T12:57:59Z</time>
      </trkpt>
      <trkpt lat="47.73236" lon="3.58232">
        <ele>178.4</ele>
        <time>2022-04-03T12:58:00Z</time>
      </trkpt>
      <trkpt lat="47.73236" lon="3.58232">
        <ele>178.4</ele>
        <time>2022-04-03T12:58:02Z</time>
      </trkpt>
      <trkpt lat="47.73236" lon="3.58231">
        <ele>178.4</ele>
        <time>2022-04-03T12:58:03Z</time>
      </trkpt>
      <trkpt lat="47.73236" lon="3.58231">
        <ele>178.5</ele>
        <time>2022-04-03T12:58:04Z</time>
      </trkpt>
      <trkpt lat="47.73235" lon="3.58231">
        <ele>178.5</ele>
        <time>2022-04-03T12:58:06Z</time>
      </trkpt>
      <trkpt lat="47.73235" lon="3.5823">
        <ele>178.5</ele>
        <time>2022-04-03T12:58:07Z</time>
      </trkpt>
      <trkpt lat="47.73235" lon="3.5823">
        <ele>178.6</ele>
        <time>2022-04-03T12:58:09Z</time>
      </trkpt>
      <trkpt lat="47.73235" lon="3.5823">
        <ele>178.6</ele>
        <time>2022-04-03T12:58:10Z</time>
      </trkpt>
      <trkpt lat="47.73235" lon="3.58229">
        <ele>178.6</ele>
        <time>2022-04-03T12:58:11Z</time>
      </trkpt>
      <trkpt lat="47.73233" lon="3.58226">
        <ele>179</ele>
        <time>2022-04-03T12:58:12Z</time>
      </trkpt>
      <trkpt lat="47.73231" lon="3.58221">
        <ele>179.5</ele>
        <time>2022-04-03T12:58:13Z</time>
      </trkpt>
      <trkpt lat="47.73229" lon="3.58218">
        <ele>179.8</ele>
        <time>2022-04-03T12:58:14Z</time>
      </trkpt>
      <trkpt lat="47.73229" lon="3.58217">
        <ele>180</ele>
        <time>2022-04-03T12:58:15Z</time>
      </trkpt>
      <trkpt lat="47.73228" lon="3.58214">
        <ele>180.2</ele>
        <time>2022-04-03T12:58:17Z</time>
      </trkpt>
      <trkpt lat="47.73227" lon="3.58212">
        <ele>180.4</ele>
        <time>2022-04-03T12:58:18Z</time>
      </trkpt>
      <trkpt lat="47.73226" lon="3.5821">
        <ele>180.7</ele>
        <time>2022-04-03T12:58:20Z</time>
      </trkpt>
      <trkpt lat="47.73225" lon="3.58209">
        <ele>180.8</ele>
        <time>2022-04-03T12:58:21Z</time>
      </trkpt>
      <trkpt lat="47.73223" lon="3.58207">
        <ele>181.1</ele>
        <time>2022-04-03T12:58:23Z</time>
      </trkpt>
      <trkpt lat="47.73222" lon="3.58206">
        <ele>181.3</ele>
        <time>2022-04-03T12:58:24Z</time>
      </trkpt>
      <trkpt lat="47.73221" lon="3.58205">
        <ele>181.5</ele>
        <time>2022-04-03T12:58:25Z</time>
      </trkpt>
      <trkpt lat="47.7322" lon="3.58204">
        <ele>181.6</ele>
        <time>2022-04-03T12:58:27Z</time>
      </trkpt>
      <trkpt lat="47.73219" lon="3.58205">
        <ele>181.7</ele>
        <time>2022-04-03T12:58:28Z</time>
      </trkpt>
      <trkpt lat="47.73219" lon="3.58205">
        <ele>181.7</ele>
        <time>2022-04-03T12:58:29Z</time>
      </trkpt>
      <trkpt lat="47.73219" lon="3.58204">
        <ele>181.8</ele>
        <time>2022-04-03T12:58:30Z</time>
      </trkpt>
      <trkpt lat="47.73219" lon="3.58204">
        <ele>181.8</ele>
        <time>2022-04-03T12:58:31Z</time>
      </trkpt>
      <trkpt lat="47.73219" lon="3.58203">
        <ele>181.9</ele>
        <time>2022-04-03T12:58:32Z</time>
      </trkpt>
      <trkpt lat="47.7322" lon="3.58202">
        <ele>182</ele>
        <time>2022-04-03T12:58:33Z</time>
      </trkpt>
      <trkpt lat="47.73218" lon="3.582">
        <ele>182.2</ele>
        <time>2022-04-03T12:58:35Z</time>
      </trkpt>
      <trkpt lat="47.73217" lon="3.582">
        <ele>182.5</ele>
        <time>2022-04-03T12:58:36Z</time>
      </trkpt>
      <trkpt lat="47.73215" lon="3.58199">
        <ele>182.8</ele>
        <time>2022-04-03T12:58:37Z</time>
      </trkpt>
      <trkpt lat="47.73214" lon="3.58198">
        <ele>182.9</ele>
        <time>2022-04-03T12:58:39Z</time>
      </trkpt>
      <trkpt lat="47.73214" lon="3.58197">
        <ele>183.1</ele>
        <time>2022-04-03T12:58:40Z</time>
      </trkpt>
      <trkpt lat="47.73213" lon="3.58195">
        <ele>183.2</ele>
        <time>2022-04-03T12:58:41Z</time>
      </trkpt>
      <trkpt lat="47.73213" lon="3.58194">
        <ele>183.3</ele>
        <time>2022-04-03T12:58:42Z</time>
      </trkpt>
      <trkpt lat="47.73212" lon="3.58193">
        <ele>183.5</ele>
        <time>2022-04-03T12:58:44Z</time>
      </trkpt>
      <trkpt lat="47.73211" lon="3.58192">
        <ele>183.6</ele>
        <time>2022-04-03T12:58:45Z</time>
      </trkpt>
      <trkpt lat="47.73211" lon="3.58192">
        <ele>183.7</ele>
        <time>2022-04-03T12:58:46Z</time>
      </trkpt>
      <trkpt lat="47.7321" lon="3.5819">
        <ele>183.9</ele>
        <time>2022-04-03T12:58:47Z</time>
      </trkpt>
      <trkpt lat="47.73209" lon="3.5819">
        <ele>184</ele>
        <time>2022-04-03T12:58:48Z</time>
      </trkpt>
      <trkpt lat="47.73209" lon="3.5819">
        <ele>184.1</ele>
        <time>2022-04-03T12:58:49Z</time>
      </trkpt>
      <trkpt lat="47.73208" lon="3.58189">
        <ele>184.2</ele>
        <time>2022-04-03T12:58:51Z</time>
      </trkpt>
      <trkpt lat="47.73208" lon="3.58189">
        <ele>184.2</ele>
        <time>2022-04-03T12:58:52Z</time>
      </trkpt>
      <trkpt lat="47.73207" lon="3.58188">
        <ele>184.4</ele>
        <time>2022-04-03T12:58:54Z</time>
      </trkpt>
      <trkpt lat="47.73206" lon="3.58187">
        <ele>184.6</ele>
        <time>2022-04-03T12:58:55Z</time>
      </trkpt>
      <trkpt lat="47.73205" lon="3.58186">
        <ele>184.7</ele>
        <time>2022-04-03T12:58:56Z</time>
      </trkpt>
      <trkpt lat="47.73205" lon="3.58184">
        <ele>185</ele>
        <time>2022-04-03T12:58:57Z</time>
      </trkpt>
      <trkpt lat="47.73204" lon="3.58182">
        <ele>185.1</ele>
        <time>2022-04-03T12:58:59Z</time>
      </trkpt>
      <trkpt lat="47.73204" lon="3.58181">
        <ele>185.2</ele>
        <time>2022-04-03T12:59:00Z</time>
      </trkpt>
      <trkpt lat="47.73203" lon="3.58179">
        <ele>185.4</ele>
        <time>2022-04-03T12:59:02Z</time>
      </trkpt>
      <trkpt lat="47.73203" lon="3.58178">
        <ele>185.5</ele>
        <time>2022-04-03T12:59:03Z</time>
      </trkpt>
      <trkpt lat="47.73202" lon="3.58177">
        <ele>185.7</ele>
        <time>2022-04-03T12:59:04Z</time>
      </trkpt>
      <trkpt lat="47.73201" lon="3.58175">
        <ele>185.9</ele>
        <time>2022-04-03T12:59:05Z</time>
      </trkpt>
      <trkpt lat="47.732" lon="3.58173">
        <ele>186.1</ele>
        <time>2022-04-03T12:59:06Z</time>
      </trkpt>
      <trkpt lat="47.73199" lon="3.58172">
        <ele>186.3</ele>
        <time>2022-04-03T12:59:07Z</time>
      </trkpt>
      <trkpt lat="47.73198" lon="3.5817">
        <ele>186.5</ele>
        <time>2022-04-03T12:59:08Z</time>
      </trkpt>
      <trkpt lat="47.73197" lon="3.58169">
        <ele>186.7</ele>
        <time>2022-04-03T12:59:09Z</time>
      </trkpt>
      <trkpt lat="47.73196" lon="3.58167">
        <ele>186.9</ele>
        <time>2022-04-03T12:59:10Z</time>
      </trkpt>
      <trkpt lat="47.73195" lon="3.58165">
        <ele>187.1</ele>
        <time>2022-04-03T12:59:11Z</time>
      </trkpt>
      <trkpt lat="47.73194" lon="3.58163">
        <ele>187.3</ele>
        <time>2022-04-03T12:59:12Z</time>
      </trkpt>
      <trkpt lat="47.73193" lon="3.5816">
        <ele>187.6</ele>
        <time>2022-04-03T12:59:13Z</time>
      </trkpt>
      <trkpt lat="47.73193" lon="3.58159">
        <ele>187.7</ele>
        <time>2022-04-03T12:59:15Z</time>
      </trkpt>
      <trkpt lat="47.73192" lon="3.58158">
        <ele>187.8</ele>
        <time>2022-04-03T12:59:16Z</time>
      </trkpt>
      <trkpt lat="47.73192" lon="3.58157">
        <ele>187.9</ele>
        <time>2022-04-03T12:59:18Z</time>
      </trkpt>
      <trkpt lat="47.73192" lon="3.58156">
        <ele>188</ele>
        <time>2022-04-03T12:59:19Z</time>
      </trkpt>
      <trkpt lat="47.73191" lon="3.58155">
        <ele>188.1</ele>
        <time>2022-04-03T12:59:20Z</time>
      </trkpt>
      <trkpt lat="47.7319" lon="3.58153">
        <ele>188.3</ele>
        <time>2022-04-03T12:59:22Z</time>
      </trkpt>
      <trkpt lat="47.7319" lon="3.58151">
        <ele>188.5</ele>
        <time>2022-04-03T12:59:23Z</time>
      </trkpt>
      <trkpt lat="47.73189" lon="3.5815">
        <ele>188.6</ele>
        <time>2022-04-03T12:59:24Z</time>
      </trkpt>
      <trkpt lat="47.73189" lon="3.58149">
        <ele>188.7</ele>
        <time>2022-04-03T12:59:25Z</time>
      </trkpt>
      <trkpt lat="47.73188" lon="3.58148">
        <ele>188.8</ele>
        <time>2022-04-03T12:59:26Z</time>
      </trkpt>
      <trkpt lat="47.73188" lon="3.58148">
        <ele>188.9</ele>
        <time>2022-04-03T12:59:28Z</time>
      </trkpt>
      <trkpt lat="47.73187" lon="3.58146">
        <ele>189.1</ele>
        <time>2022-04-03T12:59:29Z</time>
      </trkpt>
      <trkpt lat="47.73187" lon="3.58146">
        <ele>189.2</ele>
        <time>2022-04-03T12:59:30Z</time>
      </trkpt>
      <trkpt lat="47.73186" lon="3.58145">
        <ele>189.3</ele>
        <time>2022-04-03T12:59:31Z</time>
      </trkpt>
      <trkpt lat="47.73185" lon="3.58147">
        <ele>189.5</ele>
        <time>2022-04-03T12:59:32Z</time>
      </trkpt>
      <trkpt lat="47.73185" lon="3.58148">
        <ele>189.6</ele>
        <time>2022-04-03T12:59:33Z</time>
      </trkpt>
      <trkpt lat="47.73184" lon="3.58149">
        <ele>189.7</ele>
        <time>2022-04-03T12:59:34Z</time>
      </trkpt>
      <trkpt lat="47.73184" lon="3.5815">
        <ele>189.8</ele>
        <time>2022-04-03T12:59:35Z</time>
      </trkpt>
      <trkpt lat="47.73184" lon="3.58152">
        <ele>190</ele>
        <time>2022-04-03T12:59:36Z</time>
      </trkpt>
      <trkpt lat="47.73184" lon="3.58153">
        <ele>190.1</ele>
        <time>2022-04-03T12:59:37Z</time>
      </trkpt>
      <trkpt lat="47.73184" lon="3.58155">
        <ele>190.2</ele>
        <time>2022-04-03T12:59:38Z</time>
      </trkpt>
      <trkpt lat="47.73184" lon="3.58155">
        <ele>190.3</ele>
        <time>2022-04-03T12:59:39Z</time>
      </trkpt>
      <trkpt lat="47.73185" lon="3.58155">
        <ele>190.4</ele>
        <time>2022-04-03T12:59:40Z</time>
      </trkpt>
      <trkpt lat="47.73186" lon="3.58155">
        <ele>190.5</ele>
        <time>2022-04-03T12:59:42Z</time>
      </trkpt>
      <trkpt lat="47.73186" lon="3.58155">
        <ele>190.6</ele>
        <time>2022-04-03T12:59:43Z</time>
      </trkpt>
      <trkpt lat="47.73187" lon="3.58155">
        <ele>190.6</ele>
        <time>2022-04-03T12:59:44Z</time>
      </trkpt>
      <trkpt lat="47.73187" lon="3.58156">
        <ele>190.7</ele>
        <time>2022-04-03T12:59:46Z</time>
      </trkpt>
      <trkpt lat="47.73187" lon="3.58155">
        <ele>190.7</ele>
        <time>2022-04-03T12:59:47Z</time>
      </trkpt>
      <trkpt lat="47.73188" lon="3.58155">
        <ele>190.8</ele>
        <time>2022-04-03T12:59:49Z</time>
      </trkpt>
      <trkpt lat="47.73187" lon="3.58154">
        <ele>190.9</ele>
        <time>2022-04-03T12:59:50Z</time>
      </trkpt>
      <trkpt lat="47.73187" lon="3.58152">
        <ele>191</ele>
        <time>2022-04-03T12:59:52Z</time>
      </trkpt>
      <trkpt lat="47.73188" lon="3.58151">
        <ele>191.2</ele>
        <time>2022-04-03T12:59:53Z</time>
      </trkpt>
      <trkpt lat="47.73188" lon="3.58149">
        <ele>191.4</ele>
        <time>2022-04-03T12:59:54Z</time>
      </trkpt>
      <trkpt lat="47.73188" lon="3.58148">
        <ele>191.5</ele>
        <time>2022-04-03T12:59:55Z</time>
      </trkpt>
      <trkpt lat="47.73187" lon="3.58147">
        <ele>191.5</ele>
        <time>2022-04-03T12:59:56Z</time>
      </trkpt>
      <trkpt lat="47.73187" lon="3.58147">
        <ele>191.6</ele>
        <time>2022-04-03T12:59:57Z</time>
      </trkpt>
      <trkpt lat="47.73187" lon="3.58147">
        <ele>191.6</ele>
        <time>2022-04-03T12:59:58Z</time>
      </trkpt>
      <trkpt lat="47.73186" lon="3.58147">
        <ele>191.6</ele>
        <time>2022-04-03T12:59:59Z</time>
      </trkpt>
      <trkpt lat="47.73186" lon="3.58147">
        <ele>191.6</ele>
        <time>2022-04-03T13:00:00Z</time>
      </trkpt>
      <trkpt lat="47.73186" lon="3.58146">
        <ele>191.7</ele>
        <time>2022-04-03T13:00:01Z</time>
      </trkpt>
      <trkpt lat="47.73186" lon="3.58146">
        <ele>191.7</ele>
        <time>2022-04-03T13:00:02Z</time>
      </trkpt>
      <trkpt lat="47.73186" lon="3.58146">
        <ele>191.7</ele>
        <time>2022-04-03T13:00:03Z</time>
      </trkpt>
      <trkpt lat="47.73186" lon="3.58146">
        <ele>191.8</ele>
        <time>2022-04-03T13:00:04Z</time>
      </trkpt>
      <trkpt lat="47.73186" lon="3.58146">
        <ele>191.8</ele>
        <time>2022-04-03T13:00:05Z</time>
      </trkpt>
      <trkpt lat="47.73185" lon="3.58146">
        <ele>191.8</ele>
        <time>2022-04-03T13:00:07Z</time>
      </trkpt>
      <trkpt lat="47.73185" lon="3.58146">
        <ele>191.8</ele>
        <time>2022-04-03T13:00:08Z</time>
      </trkpt>
      <trkpt lat="47.73185" lon="3.58146">
        <ele>191.8</ele>
        <time>2022-04-03T13:00:09Z</time>
      </trkpt>
      <trkpt lat="47.73185" lon="3.58146">
        <ele>191.9</ele>
        <time>2022-04-03T13:00:10Z</time>
      </trkpt>
      <trkpt lat="47.73185" lon="3.58146">
        <ele>191.9</ele>
        <time>2022-04-03T13:00:11Z</time>
      </trkpt>
      <trkpt lat="47.73185" lon="3.58146">
        <ele>191.9</ele>
        <time>2022-04-03T13:00:12Z</time>
      </trkpt>
      <trkpt lat="47.73185" lon="3.58146">
        <ele>191.9</ele>
        <time>2022-04-03T13:00:13Z</time>
      </trkpt>
      <trkpt lat="47.73185" lon="3.58144">
        <ele>192.1</ele>
        <time>2022-04-03T13:00:14Z</time>
      </trkpt>
      <trkpt lat="47.73186" lon="3.58144">
        <ele>192.1</ele>
        <time>2022-04-03T13:00:15Z</time>
      </trkpt>
      <trkpt lat="47.73186" lon="3.58144">
        <ele>192.1</ele>
        <time>2022-04-03T13:00:16Z</time>
      </trkpt>
      <trkpt lat="47.73186" lon="3.58144">
        <ele>192.2</ele>
        <time>2022-04-03T13:00:17Z</time>
      </trkpt>
      <trkpt lat="47.73186" lon="3.58144">
        <ele>192.2</ele>
        <time>2022-04-03T13:00:18Z</time>
      </trkpt>
      <trkpt lat="47.73186" lon="3.58145">
        <ele>192.3</ele>
        <time>2022-04-03T13:00:19Z</time>
      </trkpt>
      <trkpt lat="47.73186" lon="3.58145">
        <ele>192.3</ele>
        <time>2022-04-03T13:00:20Z</time>
      </trkpt>
      <trkpt lat="47.73186" lon="3.58145">
        <ele>192.3</ele>
        <time>2022-04-03T13:00:21Z</time>
      </trkpt>
      <trkpt lat="47.73186" lon="3.58144">
        <ele>192.4</ele>
        <time>2022-04-03T13:00:22Z</time>
      </trkpt>
      <trkpt lat="47.73186" lon="3.58143">
        <ele>192.5</ele>
        <time>2022-04-03T13:00:23Z</time>
      </trkpt>
      <trkpt lat="47.73185" lon="3.58141">
        <ele>192.6</ele>
        <time>2022-04-03T13:00:24Z</time>
      </trkpt>
      <trkpt lat="47.73185" lon="3.5814">
        <ele>192.8</ele>
        <time>2022-04-03T13:00:25Z</time>
      </trkpt>
      <trkpt lat="47.73184" lon="3.5814">
        <ele>192.9</ele>
        <time>2022-04-03T13:00:27Z</time>
      </trkpt>
      <trkpt lat="47.73184" lon="3.5814">
        <ele>192.9</ele>
        <time>2022-04-03T13:00:28Z</time>
      </trkpt>
      <trkpt lat="47.73184" lon="3.58138">
        <ele>193.1</ele>
        <time>2022-04-03T13:00:29Z</time>
      </trkpt>
      <trkpt lat="47.73183" lon="3.58136">
        <ele>193.2</ele>
        <time>2022-04-03T13:00:30Z</time>
      </trkpt>
      <trkpt lat="47.73183" lon="3.58135">
        <ele>193.3</ele>
        <time>2022-04-03T13:00:32Z</time>
      </trkpt>
      <trkpt lat="47.73182" lon="3.58134">
        <ele>193.5</ele>
        <time>2022-04-03T13:00:33Z</time>
      </trkpt>
      <trkpt lat="47.73182" lon="3.58132">
        <ele>193.6</ele>
        <time>2022-04-03T13:00:34Z</time>
      </trkpt>
      <trkpt lat="47.73181" lon="3.5813">
        <ele>193.8</ele>
        <time>2022-04-03T13:00:36Z</time>
      </trkpt>
      <trkpt lat="47.7318" lon="3.58128">
        <ele>194</ele>
        <time>2022-04-03T13:00:37Z</time>
      </trkpt>
      <trkpt lat="47.73179" lon="3.58127">
        <ele>194.1</ele>
        <time>2022-04-03T13:00:38Z</time>
      </trkpt>
      <trkpt lat="47.73178" lon="3.58126">
        <ele>194.3</ele>
        <time>2022-04-03T13:00:40Z</time>
      </trkpt>
      <trkpt lat="47.73177" lon="3.58125">
        <ele>194.4</ele>
        <time>2022-04-03T13:00:41Z</time>
      </trkpt>
      <trkpt lat="47.73177" lon="3.58124">
        <ele>194.6</ele>
        <time>2022-04-03T13:00:42Z</time>
      </trkpt>
      <trkpt lat="47.73175" lon="3.58123">
        <ele>194.7</ele>
        <time>2022-04-03T13:00:43Z</time>
      </trkpt>
      <trkpt lat="47.73174" lon="3.58122">
        <ele>194.9</ele>
        <time>2022-04-03T13:00:44Z</time>
      </trkpt>
      <trkpt lat="47.73173" lon="3.58121">
        <ele>195.1</ele>
        <time>2022-04-03T13:00:46Z</time>
      </trkpt>
      <trkpt lat="47.73172" lon="3.5812">
        <ele>195.2</ele>
        <time>2022-04-03T13:00:47Z</time>
      </trkpt>
      <trkpt lat="47.73171" lon="3.58119">
        <ele>195.4</ele>
        <time>2022-04-03T13:00:49Z</time>
      </trkpt>
      <trkpt lat="47.7317" lon="3.58118">
        <ele>195.5</ele>
        <time>2022-04-03T13:00:50Z</time>
      </trkpt>
      <trkpt lat="47.73168" lon="3.58117">
        <ele>195.7</ele>
        <time>2022-04-03T13:00:51Z</time>
      </trkpt>
      <trkpt lat="47.73167" lon="3.58114">
        <ele>196</ele>
        <time>2022-04-03T13:00:53Z</time>
      </trkpt>
      <trkpt lat="47.73164" lon="3.5811">
        <ele>196.4</ele>
        <time>2022-04-03T13:00:54Z</time>
      </trkpt>
      <trkpt lat="47.73164" lon="3.58109">
        <ele>196.5</ele>
        <time>2022-04-03T13:00:55Z</time>
      </trkpt>
      <trkpt lat="47.73162" lon="3.58107">
        <ele>196.8</ele>
        <time>2022-04-03T13:00:56Z</time>
      </trkpt>
      <trkpt lat="47.73162" lon="3.58106">
        <ele>196.9</ele>
        <time>2022-04-03T13:00:58Z</time>
      </trkpt>
      <trkpt lat="47.73161" lon="3.58105">
        <ele>197</ele>
        <time>2022-04-03T13:00:59Z</time>
      </trkpt>
      <trkpt lat="47.73161" lon="3.58104">
        <ele>197.1</ele>
        <time>2022-04-03T13:01:00Z</time>
      </trkpt>
      <trkpt lat="47.7316" lon="3.58104">
        <ele>197.1</ele>
        <time>2022-04-03T13:01:01Z</time>
      </trkpt>
      <trkpt lat="47.7316" lon="3.58103">
        <ele>197.2</ele>
        <time>2022-04-03T13:01:02Z</time>
      </trkpt>
      <trkpt lat="47.7316" lon="3.58102">
        <ele>197.3</ele>
        <time>2022-04-03T13:01:03Z</time>
      </trkpt>
      <trkpt lat="47.7316" lon="3.58101">
        <ele>197.4</ele>
        <time>2022-04-03T13:01:04Z</time>
      </trkpt>
      <trkpt lat="47.73161" lon="3.58099">
        <ele>197.5</ele>
        <time>2022-04-03T13:01:05Z</time>
      </trkpt>
      <trkpt lat="47.73161" lon="3.58097">
        <ele>197.7</ele>
        <time>2022-04-03T13:01:07Z</time>
      </trkpt>
      <trkpt lat="47.7316" lon="3.58096">
        <ele>197.7</ele>
        <time>2022-04-03T13:01:08Z</time>
      </trkpt>
      <trkpt lat="47.7316" lon="3.58095">
        <ele>197.8</ele>
        <time>2022-04-03T13:01:09Z</time>
      </trkpt>
      <trkpt lat="47.7316" lon="3.58093">
        <ele>197.9</ele>
        <time>2022-04-03T13:01:11Z</time>
      </trkpt>
      <trkpt lat="47.73159" lon="3.58091">
        <ele>198.1</ele>
        <time>2022-04-03T13:01:12Z</time>
      </trkpt>
      <trkpt lat="47.73157" lon="3.58089">
        <ele>198.3</ele>
        <time>2022-04-03T13:01:13Z</time>
      </trkpt>
      <trkpt lat="47.73157" lon="3.58088">
        <ele>198.3</ele>
        <time>2022-04-03T13:01:15Z</time>
      </trkpt>
      <trkpt lat="47.73156" lon="3.58087">
        <ele>198.4</ele>
        <time>2022-04-03T13:01:16Z</time>
      </trkpt>
      <trkpt lat="47.73155" lon="3.58086">
        <ele>198.6</ele>
        <time>2022-04-03T13:01:17Z</time>
      </trkpt>
      <trkpt lat="47.73155" lon="3.58085">
        <ele>198.6</ele>
        <time>2022-04-03T13:01:18Z</time>
      </trkpt>
      <trkpt lat="47.73154" lon="3.58084">
        <ele>198.7</ele>
        <time>2022-04-03T13:01:19Z</time>
      </trkpt>
      <trkpt lat="47.73154" lon="3.58083">
        <ele>198.8</ele>
        <time>2022-04-03T13:01:20Z</time>
      </trkpt>
      <trkpt lat="47.73153" lon="3.58082">
        <ele>198.9</ele>
        <time>2022-04-03T13:01:21Z</time>
      </trkpt>
      <trkpt lat="47.73153" lon="3.5808">
        <ele>199</ele>
        <time>2022-04-03T13:01:22Z</time>
      </trkpt>
      <trkpt lat="47.73152" lon="3.58079">
        <ele>199.1</ele>
        <time>2022-04-03T13:01:23Z</time>
      </trkpt>
      <trkpt lat="47.73152" lon="3.58077">
        <ele>199.2</ele>
        <time>2022-04-03T13:01:25Z</time>
      </trkpt>
      <trkpt lat="47.73151" lon="3.58076">
        <ele>199.3</ele>
        <time>2022-04-03T13:01:26Z</time>
      </trkpt>
      <trkpt lat="47.73151" lon="3.58075">
        <ele>199.4</ele>
        <time>2022-04-03T13:01:27Z</time>
      </trkpt>
      <trkpt lat="47.73151" lon="3.58073">
        <ele>199.5</ele>
        <time>2022-04-03T13:01:28Z</time>
      </trkpt>
      <trkpt lat="47.7315" lon="3.58071">
        <ele>199.6</ele>
        <time>2022-04-03T13:01:30Z</time>
      </trkpt>
      <trkpt lat="47.7315" lon="3.5807">
        <ele>199.7</ele>
        <time>2022-04-03T13:01:31Z</time>
      </trkpt>
      <trkpt lat="47.7315" lon="3.58068">
        <ele>199.9</ele>
        <time>2022-04-03T13:01:32Z</time>
      </trkpt>
      <trkpt lat="47.7315" lon="3.58067">
        <ele>199.9</ele>
        <time>2022-04-03T13:01:33Z</time>
      </trkpt>
      <trkpt lat="47.73149" lon="3.58065">
        <ele>200</ele>
        <time>2022-04-03T13:01:34Z</time>
      </trkpt>
      <trkpt lat="47.73149" lon="3.58064">
        <ele>200.1</ele>
        <time>2022-04-03T13:01:35Z</time>
      </trkpt>
      <trkpt lat="47.73149" lon="3.58063">
        <ele>200.2</ele>
        <time>2022-04-03T13:01:36Z</time>
      </trkpt>
      <trkpt lat="47.73148" lon="3.58061">
        <ele>200.4</ele>
        <time>2022-04-03T13:01:38Z</time>
      </trkpt>
      <trkpt lat="47.73147" lon="3.5806">
        <ele>200.5</ele>
        <time>2022-04-03T13:01:39Z</time>
      </trkpt>
      <trkpt lat="47.73146" lon="3.58058">
        <ele>200.6</ele>
        <time>2022-04-03T13:01:40Z</time>
      </trkpt>
      <trkpt lat="47.73145" lon="3.58056">
        <ele>200.7</ele>
        <time>2022-04-03T13:01:42Z</time>
      </trkpt>
      <trkpt lat="47.73144" lon="3.58054">
        <ele>200.9</ele>
        <time>2022-04-03T13:01:43Z</time>
      </trkpt>
      <trkpt lat="47.73143" lon="3.58053">
        <ele>201</ele>
        <time>2022-04-03T13:01:44Z</time>
      </trkpt>
      <trkpt lat="47.73142" lon="3.58052">
        <ele>201.1</ele>
        <time>2022-04-03T13:01:45Z</time>
      </trkpt>
      <trkpt lat="47.73142" lon="3.58051">
        <ele>201.2</ele>
        <time>2022-04-03T13:01:46Z</time>
      </trkpt>
      <trkpt lat="47.73141" lon="3.58049">
        <ele>201.3</ele>
        <time>2022-04-03T13:01:47Z</time>
      </trkpt>
      <trkpt lat="47.7314" lon="3.58048">
        <ele>201.4</ele>
        <time>2022-04-03T13:01:49Z</time>
      </trkpt>
      <trkpt lat="47.7314" lon="3.58047">
        <ele>201.5</ele>
        <time>2022-04-03T13:01:50Z</time>
      </trkpt>
      <trkpt lat="47.73138" lon="3.58045">
        <ele>201.7</ele>
        <time>2022-04-03T13:01:52Z</time>
      </trkpt>
      <trkpt lat="47.73137" lon="3.58044">
        <ele>201.8</ele>
        <time>2022-04-03T13:01:53Z</time>
      </trkpt>
      <trkpt lat="47.73137" lon="3.58043">
        <ele>201.9</ele>
        <time>2022-04-03T13:01:54Z</time>
      </trkpt>
      <trkpt lat="47.73136" lon="3.58042">
        <ele>202</ele>
        <time>2022-04-03T13:01:55Z</time>
      </trkpt>
      <trkpt lat="47.73136" lon="3.5804">
        <ele>202</ele>
        <time>2022-04-03T13:01:56Z</time>
      </trkpt>
      <trkpt lat="47.73135" lon="3.58039">
        <ele>202.1</ele>
        <time>2022-04-03T13:01:57Z</time>
      </trkpt>
      <trkpt lat="47.73135" lon="3.58039">
        <ele>202.2</ele>
        <time>2022-04-03T13:01:59Z</time>
      </trkpt>
      <trkpt lat="47.73135" lon="3.58038">
        <ele>202.2</ele>
        <time>2022-04-03T13:02:00Z</time>
      </trkpt>
      <trkpt lat="47.73135" lon="3.58037">
        <ele>202.3</ele>
        <time>2022-04-03T13:02:01Z</time>
      </trkpt>
      <trkpt lat="47.73135" lon="3.58036">
        <ele>202.3</ele>
        <time>2022-04-03T13:02:03Z</time>
      </trkpt>
      <trkpt lat="47.73135" lon="3.58035">
        <ele>202.4</ele>
        <time>2022-04-03T13:02:04Z</time>
      </trkpt>
      <trkpt lat="47.73135" lon="3.58034">
        <ele>202.5</ele>
        <time>2022-04-03T13:02:05Z</time>
      </trkpt>
      <trkpt lat="47.73135" lon="3.58033">
        <ele>202.5</ele>
        <time>2022-04-03T13:02:06Z</time>
      </trkpt>
      <trkpt lat="47.73134" lon="3.58032">
        <ele>202.6</ele>
        <time>2022-04-03T13:02:07Z</time>
      </trkpt>
      <trkpt lat="47.73134" lon="3.58032">
        <ele>202.6</ele>
        <time>2022-04-03T13:02:08Z</time>
      </trkpt>
      <trkpt lat="47.73134" lon="3.5803">
        <ele>202.7</ele>
        <time>2022-04-03T13:02:10Z</time>
      </trkpt>
      <trkpt lat="47.73133" lon="3.58029">
        <ele>202.8</ele>
        <time>2022-04-03T13:02:11Z</time>
      </trkpt>
      <trkpt lat="47.73132" lon="3.58027">
        <ele>203</ele>
        <time>2022-04-03T13:02:12Z</time>
      </trkpt>
      <trkpt lat="47.73131" lon="3.58025">
        <ele>203</ele>
        <time>2022-04-03T13:02:13Z</time>
      </trkpt>
      <trkpt lat="47.7313" lon="3.58024">
        <ele>203.1</ele>
        <time>2022-04-03T13:02:14Z</time>
      </trkpt>
      <trkpt lat="47.7313" lon="3.58024">
        <ele>203.2</ele>
        <time>2022-04-03T13:02:16Z</time>
      </trkpt>
      <trkpt lat="47.73129" lon="3.58023">
        <ele>203.3</ele>
        <time>2022-04-03T13:02:17Z</time>
      </trkpt>
      <trkpt lat="47.73128" lon="3.58023">
        <ele>203.3</ele>
        <time>2022-04-03T13:02:18Z</time>
      </trkpt>
      <trkpt lat="47.73127" lon="3.58023">
        <ele>203.4</ele>
        <time>2022-04-03T13:02:19Z</time>
      </trkpt>
      <trkpt lat="47.73126" lon="3.58022">
        <ele>203.5</ele>
        <time>2022-04-03T13:02:21Z</time>
      </trkpt>
      <trkpt lat="47.73126" lon="3.58021">
        <ele>203.5</ele>
        <time>2022-04-03T13:02:22Z</time>
      </trkpt>
      <trkpt lat="47.73126" lon="3.58021">
        <ele>203.5</ele>
        <time>2022-04-03T13:02:24Z</time>
      </trkpt>
      <trkpt lat="47.73125" lon="3.58021">
        <ele>203.6</ele>
        <time>2022-04-03T13:02:25Z</time>
      </trkpt>
      <trkpt lat="47.73125" lon="3.5802">
        <ele>203.6</ele>
        <time>2022-04-03T13:02:26Z</time>
      </trkpt>
      <trkpt lat="47.73124" lon="3.5802">
        <ele>203.7</ele>
        <time>2022-04-03T13:02:27Z</time>
      </trkpt>
      <trkpt lat="47.73124" lon="3.5802">
        <ele>203.7</ele>
        <time>2022-04-03T13:02:28Z</time>
      </trkpt>
      <trkpt lat="47.73123" lon="3.58019">
        <ele>203.7</ele>
        <time>2022-04-03T13:02:29Z</time>
      </trkpt>
      <trkpt lat="47.73121" lon="3.58019">
        <ele>203.9</ele>
        <time>2022-04-03T13:02:31Z</time>
      </trkpt>
      <trkpt lat="47.7312" lon="3.58019">
        <ele>204</ele>
        <time>2022-04-03T13:02:32Z</time>
      </trkpt>
      <trkpt lat="47.73119" lon="3.58019">
        <ele>204</ele>
        <time>2022-04-03T13:02:34Z</time>
      </trkpt>
      <trkpt lat="47.73118" lon="3.58019">
        <ele>204.1</ele>
        <time>2022-04-03T13:02:35Z</time>
      </trkpt>
      <trkpt lat="47.73116" lon="3.58018">
        <ele>204.2</ele>
        <time>2022-04-03T13:02:36Z</time>
      </trkpt>
      <trkpt lat="47.73114" lon="3.58017">
        <ele>204.3</ele>
        <time>2022-04-03T13:02:37Z</time>
      </trkpt>
      <trkpt lat="47.73113" lon="3.58016">
        <ele>204.4</ele>
        <time>2022-04-03T13:02:38Z</time>
      </trkpt>
      <trkpt lat="47.73112" lon="3.58015">
        <ele>204.5</ele>
        <time>2022-04-03T13:02:39Z</time>
      </trkpt>
      <trkpt lat="47.73111" lon="3.58014">
        <ele>204.5</ele>
        <time>2022-04-03T13:02:41Z</time>
      </trkpt>
      <trkpt lat="47.73109" lon="3.58013">
        <ele>204.6</ele>
        <time>2022-04-03T13:02:42Z</time>
      </trkpt>
      <trkpt lat="47.73108" lon="3.58012">
        <ele>204.7</ele>
        <time>2022-04-03T13:02:43Z</time>
      </trkpt>
      <trkpt lat="47.73106" lon="3.58012">
        <ele>204.8</ele>
        <time>2022-04-03T13:02:44Z</time>
      </trkpt>
      <trkpt lat="47.73105" lon="3.58011">
        <ele>204.9</ele>
        <time>2022-04-03T13:02:45Z</time>
      </trkpt>
      <trkpt lat="47.73104" lon="3.58011">
        <ele>204.9</ele>
        <time>2022-04-03T13:02:46Z</time>
      </trkpt>
      <trkpt lat="47.73102" lon="3.5801">
        <ele>205</ele>
        <time>2022-04-03T13:02:48Z</time>
      </trkpt>
      <trkpt lat="47.73101" lon="3.5801">
        <ele>205</ele>
        <time>2022-04-03T13:02:49Z</time>
      </trkpt>
      <trkpt lat="47.731" lon="3.58009">
        <ele>205.1</ele>
        <time>2022-04-03T13:02:50Z</time>
      </trkpt>
      <trkpt lat="47.73098" lon="3.58008">
        <ele>205.2</ele>
        <time>2022-04-03T13:02:51Z</time>
      </trkpt>
      <trkpt lat="47.73096" lon="3.58007">
        <ele>205.3</ele>
        <time>2022-04-03T13:02:52Z</time>
      </trkpt>
      <trkpt lat="47.73094" lon="3.58006">
        <ele>205.4</ele>
        <time>2022-04-03T13:02:53Z</time>
      </trkpt>
      <trkpt lat="47.73093" lon="3.58006">
        <ele>205.4</ele>
        <time>2022-04-03T13:02:54Z</time>
      </trkpt>
      <trkpt lat="47.73092" lon="3.58006">
        <ele>205.5</ele>
        <time>2022-04-03T13:02:55Z</time>
      </trkpt>
      <trkpt lat="47.7309" lon="3.58005">
        <ele>205.5</ele>
        <time>2022-04-03T13:02:56Z</time>
      </trkpt>
      <trkpt lat="47.73089" lon="3.58004">
        <ele>205.6</ele>
        <time>2022-04-03T13:02:57Z</time>
      </trkpt>
      <trkpt lat="47.73087" lon="3.58002">
        <ele>205.7</ele>
        <time>2022-04-03T13:02:58Z</time>
      </trkpt>
      <trkpt lat="47.73086" lon="3.58001">
        <ele>205.8</ele>
        <time>2022-04-03T13:03:00Z</time>
      </trkpt>
      <trkpt lat="47.73085" lon="3.58">
        <ele>205.8</ele>
        <time>2022-04-03T13:03:01Z</time>
      </trkpt>
      <trkpt lat="47.73083" lon="3.57999">
        <ele>205.9</ele>
        <time>2022-04-03T13:03:02Z</time>
      </trkpt>
      <trkpt lat="47.73081" lon="3.57997">
        <ele>206</ele>
        <time>2022-04-03T13:03:03Z</time>
      </trkpt>
      <trkpt lat="47.73081" lon="3.57997">
        <ele>206</ele>
        <time>2022-04-03T13:03:04Z</time>
      </trkpt>
      <trkpt lat="47.73079" lon="3.57997">
        <ele>206.1</ele>
        <time>2022-04-03T13:03:05Z</time>
      </trkpt>
      <trkpt lat="47.73078" lon="3.57996">
        <ele>206.1</ele>
        <time>2022-04-03T13:03:06Z</time>
      </trkpt>
      <trkpt lat="47.73077" lon="3.57995">
        <ele>206.2</ele>
        <time>2022-04-03T13:03:07Z</time>
      </trkpt>
      <trkpt lat="47.73075" lon="3.57995">
        <ele>206.3</ele>
        <time>2022-04-03T13:03:08Z</time>
      </trkpt>
      <trkpt lat="47.73074" lon="3.57994">
        <ele>206.3</ele>
        <time>2022-04-03T13:03:10Z</time>
      </trkpt>
      <trkpt lat="47.73073" lon="3.57993">
        <ele>206.3</ele>
        <time>2022-04-03T13:03:11Z</time>
      </trkpt>
      <trkpt lat="47.73071" lon="3.57993">
        <ele>206.4</ele>
        <time>2022-04-03T13:03:12Z</time>
      </trkpt>
      <trkpt lat="47.73069" lon="3.57991">
        <ele>206.5</ele>
        <time>2022-04-03T13:03:13Z</time>
      </trkpt>
      <trkpt lat="47.73068" lon="3.57991">
        <ele>206.5</ele>
        <time>2022-04-03T13:03:14Z</time>
      </trkpt>
      <trkpt lat="47.73068" lon="3.5799">
        <ele>206.5</ele>
        <time>2022-04-03T13:03:15Z</time>
      </trkpt>
      <trkpt lat="47.73067" lon="3.57989">
        <ele>206.6</ele>
        <time>2022-04-03T13:03:16Z</time>
      </trkpt>
      <trkpt lat="47.73066" lon="3.57989">
        <ele>206.6</ele>
        <time>2022-04-03T13:03:17Z</time>
      </trkpt>
      <trkpt lat="47.73064" lon="3.57987">
        <ele>206.7</ele>
        <time>2022-04-03T13:03:18Z</time>
      </trkpt>
      <trkpt lat="47.73064" lon="3.57987">
        <ele>206.7</ele>
        <time>2022-04-03T13:03:19Z</time>
      </trkpt>
      <trkpt lat="47.73063" lon="3.57986">
        <ele>206.8</ele>
        <time>2022-04-03T13:03:21Z</time>
      </trkpt>
      <trkpt lat="47.73062" lon="3.57985">
        <ele>206.8</ele>
        <time>2022-04-03T13:03:22Z</time>
      </trkpt>
      <trkpt lat="47.73059" lon="3.57983">
        <ele>206.9</ele>
        <time>2022-04-03T13:03:23Z</time>
      </trkpt>
      <trkpt lat="47.73059" lon="3.57983">
        <ele>206.9</ele>
        <time>2022-04-03T13:03:24Z</time>
      </trkpt>
      <trkpt lat="47.73058" lon="3.57982">
        <ele>207</ele>
        <time>2022-04-03T13:03:25Z</time>
      </trkpt>
      <trkpt lat="47.73057" lon="3.57981">
        <ele>207</ele>
        <time>2022-04-03T13:03:26Z</time>
      </trkpt>
      <trkpt lat="47.73056" lon="3.5798">
        <ele>207.1</ele>
        <time>2022-04-03T13:03:27Z</time>
      </trkpt>
      <trkpt lat="47.73055" lon="3.5798">
        <ele>207.1</ele>
        <time>2022-04-03T13:03:28Z</time>
      </trkpt>
      <trkpt lat="47.73054" lon="3.57979">
        <ele>207.1</ele>
        <time>2022-04-03T13:03:29Z</time>
      </trkpt>
      <trkpt lat="47.73053" lon="3.57978">
        <ele>207.2</ele>
        <time>2022-04-03T13:03:30Z</time>
      </trkpt>
      <trkpt lat="47.73052" lon="3.57977">
        <ele>207.2</ele>
        <time>2022-04-03T13:03:32Z</time>
      </trkpt>
      <trkpt lat="47.7305" lon="3.57976">
        <ele>207.3</ele>
        <time>2022-04-03T13:03:33Z</time>
      </trkpt>
      <trkpt lat="47.7305" lon="3.57975">
        <ele>207.4</ele>
        <time>2022-04-03T13:03:34Z</time>
      </trkpt>
      <trkpt lat="47.73048" lon="3.57974">
        <ele>207.4</ele>
        <time>2022-04-03T13:03:35Z</time>
      </trkpt>
      <trkpt lat="47.73047" lon="3.57973">
        <ele>207.4</ele>
        <time>2022-04-03T13:03:36Z</time>
      </trkpt>
      <trkpt lat="47.73046" lon="3.57971">
        <ele>207.5</ele>
        <time>2022-04-03T13:03:37Z</time>
      </trkpt>
      <trkpt lat="47.73045" lon="3.5797">
        <ele>207.6</ele>
        <time>2022-04-03T13:03:38Z</time>
      </trkpt>
      <trkpt lat="47.73044" lon="3.57969">
        <ele>207.6</ele>
        <time>2022-04-03T13:03:39Z</time>
      </trkpt>
      <trkpt lat="47.73043" lon="3.57968">
        <ele>207.7</ele>
        <time>2022-04-03T13:03:40Z</time>
      </trkpt>
      <trkpt lat="47.73041" lon="3.57966">
        <ele>207.7</ele>
        <time>2022-04-03T13:03:42Z</time>
      </trkpt>
      <trkpt lat="47.7304" lon="3.57965">
        <ele>207.7</ele>
        <time>2022-04-03T13:03:43Z</time>
      </trkpt>
      <trkpt lat="47.73039" lon="3.57963">
        <ele>207.8</ele>
        <time>2022-04-03T13:03:44Z</time>
      </trkpt>
      <trkpt lat="47.73038" lon="3.57962">
        <ele>207.8</ele>
        <time>2022-04-03T13:03:45Z</time>
      </trkpt>
      <trkpt lat="47.73037" lon="3.5796">
        <ele>207.9</ele>
        <time>2022-04-03T13:03:46Z</time>
      </trkpt>
      <trkpt lat="47.73035" lon="3.57958">
        <ele>208</ele>
        <time>2022-04-03T13:03:47Z</time>
      </trkpt>
      <trkpt lat="47.73034" lon="3.57957">
        <ele>208</ele>
        <time>2022-04-03T13:03:48Z</time>
      </trkpt>
      <trkpt lat="47.73032" lon="3.57955">
        <ele>208</ele>
        <time>2022-04-03T13:03:50Z</time>
      </trkpt>
      <trkpt lat="47.73031" lon="3.57954">
        <ele>208.1</ele>
        <time>2022-04-03T13:03:51Z</time>
      </trkpt>
      <trkpt lat="47.7303" lon="3.57953">
        <ele>208.1</ele>
        <time>2022-04-03T13:03:52Z</time>
      </trkpt>
      <trkpt lat="47.73028" lon="3.57951">
        <ele>208.2</ele>
        <time>2022-04-03T13:03:53Z</time>
      </trkpt>
      <trkpt lat="47.73027" lon="3.5795">
        <ele>208.2</ele>
        <time>2022-04-03T13:03:54Z</time>
      </trkpt>
      <trkpt lat="47.73026" lon="3.57949">
        <ele>208.2</ele>
        <time>2022-04-03T13:03:56Z</time>
      </trkpt>
      <trkpt lat="47.73025" lon="3.57948">
        <ele>208.2</ele>
        <time>2022-04-03T13:03:57Z</time>
      </trkpt>
      <trkpt lat="47.73024" lon="3.57946">
        <ele>208.3</ele>
        <time>2022-04-03T13:03:58Z</time>
      </trkpt>
      <trkpt lat="47.73022" lon="3.57945">
        <ele>208.3</ele>
        <time>2022-04-03T13:03:59Z</time>
      </trkpt>
      <trkpt lat="47.73022" lon="3.57944">
        <ele>208.4</ele>
        <time>2022-04-03T13:04:00Z</time>
      </trkpt>
      <trkpt lat="47.73021" lon="3.57944">
        <ele>208.4</ele>
        <time>2022-04-03T13:04:01Z</time>
      </trkpt>
      <trkpt lat="47.7302" lon="3.57944">
        <ele>208.4</ele>
        <time>2022-04-03T13:04:02Z</time>
      </trkpt>
      <trkpt lat="47.73019" lon="3.57944">
        <ele>208.5</ele>
        <time>2022-04-03T13:04:03Z</time>
      </trkpt>
      <trkpt lat="47.73018" lon="3.57944">
        <ele>208.5</ele>
        <time>2022-04-03T13:04:04Z</time>
      </trkpt>
      <trkpt lat="47.73017" lon="3.57944">
        <ele>208.5</ele>
        <time>2022-04-03T13:04:05Z</time>
      </trkpt>
      <trkpt lat="47.73016" lon="3.57942">
        <ele>208.5</ele>
        <time>2022-04-03T13:04:07Z</time>
      </trkpt>
      <trkpt lat="47.73015" lon="3.57941">
        <ele>208.6</ele>
        <time>2022-04-03T13:04:08Z</time>
      </trkpt>
      <trkpt lat="47.73014" lon="3.5794">
        <ele>208.6</ele>
        <time>2022-04-03T13:04:09Z</time>
      </trkpt>
      <trkpt lat="47.73015" lon="3.57939">
        <ele>208.6</ele>
        <time>2022-04-03T13:04:10Z</time>
      </trkpt>
      <trkpt lat="47.73014" lon="3.57938">
        <ele>208.6</ele>
        <time>2022-04-03T13:04:11Z</time>
      </trkpt>
      <trkpt lat="47.73013" lon="3.57937">
        <ele>208.7</ele>
        <time>2022-04-03T13:04:12Z</time>
      </trkpt>
      <trkpt lat="47.73013" lon="3.57936">
        <ele>208.7</ele>
        <time>2022-04-03T13:04:13Z</time>
      </trkpt>
      <trkpt lat="47.73012" lon="3.57936">
        <ele>208.7</ele>
        <time>2022-04-03T13:04:15Z</time>
      </trkpt>
      <trkpt lat="47.73011" lon="3.57935">
        <ele>208.7</ele>
        <time>2022-04-03T13:04:16Z</time>
      </trkpt>
      <trkpt lat="47.73009" lon="3.57934">
        <ele>208.8</ele>
        <time>2022-04-03T13:04:17Z</time>
      </trkpt>
      <trkpt lat="47.73009" lon="3.57933">
        <ele>208.8</ele>
        <time>2022-04-03T13:04:18Z</time>
      </trkpt>
      <trkpt lat="47.73008" lon="3.57932">
        <ele>208.8</ele>
        <time>2022-04-03T13:04:19Z</time>
      </trkpt>
      <trkpt lat="47.73007" lon="3.57931">
        <ele>208.9</ele>
        <time>2022-04-03T13:04:20Z</time>
      </trkpt>
      <trkpt lat="47.73005" lon="3.57928">
        <ele>209</ele>
        <time>2022-04-03T13:04:22Z</time>
      </trkpt>
      <trkpt lat="47.73005" lon="3.57926">
        <ele>209</ele>
        <time>2022-04-03T13:04:23Z</time>
      </trkpt>
      <trkpt lat="47.73005" lon="3.57925">
        <ele>209</ele>
        <time>2022-04-03T13:04:24Z</time>
      </trkpt>
      <trkpt lat="47.73005" lon="3.57924">
        <ele>209</ele>
        <time>2022-04-03T13:04:25Z</time>
      </trkpt>
      <trkpt lat="47.73005" lon="3.57924">
        <ele>209.1</ele>
        <time>2022-04-03T13:04:26Z</time>
      </trkpt>
      <trkpt lat="47.73005" lon="3.57922">
        <ele>209.1</ele>
        <time>2022-04-03T13:04:28Z</time>
      </trkpt>
      <trkpt lat="47.73004" lon="3.5792">
        <ele>209.2</ele>
        <time>2022-04-03T13:04:29Z</time>
      </trkpt>
      <trkpt lat="47.73004" lon="3.57919">
        <ele>209.2</ele>
        <time>2022-04-03T13:04:30Z</time>
      </trkpt>
      <trkpt lat="47.73003" lon="3.57918">
        <ele>209.2</ele>
        <time>2022-04-03T13:04:31Z</time>
      </trkpt>
      <trkpt lat="47.73003" lon="3.57917">
        <ele>209.2</ele>
        <time>2022-04-03T13:04:32Z</time>
      </trkpt>
      <trkpt lat="47.73002" lon="3.57916">
        <ele>209.3</ele>
        <time>2022-04-03T13:04:33Z</time>
      </trkpt>
      <trkpt lat="47.73002" lon="3.57915">
        <ele>209.3</ele>
        <time>2022-04-03T13:04:34Z</time>
      </trkpt>
      <trkpt lat="47.73001" lon="3.57914">
        <ele>209.3</ele>
        <time>2022-04-03T13:04:35Z</time>
      </trkpt>
      <trkpt lat="47.73" lon="3.57913">
        <ele>209.4</ele>
        <time>2022-04-03T13:04:37Z</time>
      </trkpt>
      <trkpt lat="47.72999" lon="3.57912">
        <ele>209.4</ele>
        <time>2022-04-03T13:04:38Z</time>
      </trkpt>
      <trkpt lat="47.72999" lon="3.57911">
        <ele>209.5</ele>
        <time>2022-04-03T13:04:39Z</time>
      </trkpt>
      <trkpt lat="47.72998" lon="3.5791">
        <ele>209.5</ele>
        <time>2022-04-03T13:04:40Z</time>
      </trkpt>
      <trkpt lat="47.72997" lon="3.57909">
        <ele>209.5</ele>
        <time>2022-04-03T13:04:41Z</time>
      </trkpt>
      <trkpt lat="47.72996" lon="3.57908">
        <ele>209.6</ele>
        <time>2022-04-03T13:04:42Z</time>
      </trkpt>
      <trkpt lat="47.72995" lon="3.57907">
        <ele>209.7</ele>
        <time>2022-04-03T13:04:44Z</time>
      </trkpt>
      <trkpt lat="47.72994" lon="3.57906">
        <ele>209.7</ele>
        <time>2022-04-03T13:04:45Z</time>
      </trkpt>
      <trkpt lat="47.72993" lon="3.57905">
        <ele>209.7</ele>
        <time>2022-04-03T13:04:46Z</time>
      </trkpt>
      <trkpt lat="47.72992" lon="3.57904">
        <ele>209.8</ele>
        <time>2022-04-03T13:04:48Z</time>
      </trkpt>
      <trkpt lat="47.72991" lon="3.57903">
        <ele>209.9</ele>
        <time>2022-04-03T13:04:49Z</time>
      </trkpt>
      <trkpt lat="47.7299" lon="3.57901">
        <ele>209.9</ele>
        <time>2022-04-03T13:04:50Z</time>
      </trkpt>
      <trkpt lat="47.72989" lon="3.579">
        <ele>210</ele>
        <time>2022-04-03T13:04:51Z</time>
      </trkpt>
      <trkpt lat="47.72989" lon="3.57899">
        <ele>210</ele>
        <time>2022-04-03T13:04:52Z</time>
      </trkpt>
      <trkpt lat="47.72988" lon="3.57899">
        <ele>210</ele>
        <time>2022-04-03T13:04:53Z</time>
      </trkpt>
      <trkpt lat="47.72988" lon="3.57899">
        <ele>210</ele>
        <time>2022-04-03T13:04:54Z</time>
      </trkpt>
      <trkpt lat="47.72988" lon="3.57899">
        <ele>210</ele>
        <time>2022-04-03T13:04:55Z</time>
      </trkpt>
      <trkpt lat="47.72987" lon="3.57898">
        <ele>210.1</ele>
        <time>2022-04-03T13:04:56Z</time>
      </trkpt>
      <trkpt lat="47.72987" lon="3.57898">
        <ele>210.1</ele>
        <time>2022-04-03T13:04:57Z</time>
      </trkpt>
      <trkpt lat="47.72987" lon="3.57898">
        <ele>210.1</ele>
        <time>2022-04-03T13:04:58Z</time>
      </trkpt>
      <trkpt lat="47.72986" lon="3.57897">
        <ele>210.1</ele>
        <time>2022-04-03T13:04:59Z</time>
      </trkpt>
      <trkpt lat="47.72986" lon="3.57897">
        <ele>210.1</ele>
        <time>2022-04-03T13:05:00Z</time>
      </trkpt>
      <trkpt lat="47.72986" lon="3.57897">
        <ele>210.1</ele>
        <time>2022-04-03T13:05:01Z</time>
      </trkpt>
      <trkpt lat="47.72985" lon="3.57896">
        <ele>210.2</ele>
        <time>2022-04-03T13:05:02Z</time>
      </trkpt>
      <trkpt lat="47.72985" lon="3.57896">
        <ele>210.2</ele>
        <time>2022-04-03T13:05:03Z</time>
      </trkpt>
      <trkpt lat="47.72984" lon="3.57896">
        <ele>210.2</ele>
        <time>2022-04-03T13:05:05Z</time>
      </trkpt>
      <trkpt lat="47.72984" lon="3.57895">
        <ele>210.2</ele>
        <time>2022-04-03T13:05:06Z</time>
      </trkpt>
      <trkpt lat="47.72984" lon="3.57895">
        <ele>210.2</ele>
        <time>2022-04-03T13:05:08Z</time>
      </trkpt>
      <trkpt lat="47.72983" lon="3.57895">
        <ele>210.2</ele>
        <time>2022-04-03T13:05:09Z</time>
      </trkpt>
      <trkpt lat="47.72983" lon="3.57894">
        <ele>210.3</ele>
        <time>2022-04-03T13:05:11Z</time>
      </trkpt>
      <trkpt lat="47.72983" lon="3.57894">
        <ele>210.3</ele>
        <time>2022-04-03T13:05:12Z</time>
      </trkpt>
      <trkpt lat="47.72982" lon="3.57894">
        <ele>210.3</ele>
        <time>2022-04-03T13:05:13Z</time>
      </trkpt>
      <trkpt lat="47.72983" lon="3.57893">
        <ele>210.3</ele>
        <time>2022-04-03T13:05:14Z</time>
      </trkpt>
      <trkpt lat="47.72982" lon="3.57892">
        <ele>210.3</ele>
        <time>2022-04-03T13:05:15Z</time>
      </trkpt>
      <trkpt lat="47.72982" lon="3.57892">
        <ele>210.4</ele>
        <time>2022-04-03T13:05:16Z</time>
      </trkpt>
      <trkpt lat="47.72982" lon="3.57891">
        <ele>210.4</ele>
        <time>2022-04-03T13:05:17Z</time>
      </trkpt>
      <trkpt lat="47.72982" lon="3.57891">
        <ele>210.4</ele>
        <time>2022-04-03T13:05:18Z</time>
      </trkpt>
      <trkpt lat="47.72982" lon="3.5789">
        <ele>210.4</ele>
        <time>2022-04-03T13:05:20Z</time>
      </trkpt>
      <trkpt lat="47.72981" lon="3.5789">
        <ele>210.4</ele>
        <time>2022-04-03T13:05:21Z</time>
      </trkpt>
      <trkpt lat="47.72981" lon="3.57889">
        <ele>210.5</ele>
        <time>2022-04-03T13:05:22Z</time>
      </trkpt>
      <trkpt lat="47.72981" lon="3.57889">
        <ele>210.5</ele>
        <time>2022-04-03T13:05:23Z</time>
      </trkpt>
      <trkpt lat="47.72981" lon="3.57888">
        <ele>210.5</ele>
        <time>2022-04-03T13:05:24Z</time>
      </trkpt>
      <trkpt lat="47.7298" lon="3.57888">
        <ele>210.5</ele>
        <time>2022-04-03T13:05:25Z</time>
      </trkpt>
      <trkpt lat="47.72979" lon="3.57886">
        <ele>210.6</ele>
        <time>2022-04-03T13:05:27Z</time>
      </trkpt>
      <trkpt lat="47.72978" lon="3.57884">
        <ele>210.6</ele>
        <time>2022-04-03T13:05:28Z</time>
      </trkpt>
      <trkpt lat="47.72977" lon="3.57883">
        <ele>210.7</ele>
        <time>2022-04-03T13:05:29Z</time>
      </trkpt>
      <trkpt lat="47.72976" lon="3.57881">
        <ele>210.8</ele>
        <time>2022-04-03T13:05:30Z</time>
      </trkpt>
      <trkpt lat="47.72975" lon="3.5788">
        <ele>210.8</ele>
        <time>2022-04-03T13:05:31Z</time>
      </trkpt>
      <trkpt lat="47.72975" lon="3.57879">
        <ele>210.9</ele>
        <time>2022-04-03T13:05:32Z</time>
      </trkpt>
      <trkpt lat="47.72974" lon="3.57877">
        <ele>211</ele>
        <time>2022-04-03T13:05:34Z</time>
      </trkpt>
      <trkpt lat="47.72973" lon="3.57874">
        <ele>211</ele>
        <time>2022-04-03T13:05:35Z</time>
      </trkpt>
      <trkpt lat="47.72972" lon="3.57874">
        <ele>211</ele>
        <time>2022-04-03T13:05:36Z</time>
      </trkpt>
      <trkpt lat="47.72972" lon="3.57873">
        <ele>211.1</ele>
        <time>2022-04-03T13:05:37Z</time>
      </trkpt>
      <trkpt lat="47.72971" lon="3.57872">
        <ele>211.1</ele>
        <time>2022-04-03T13:05:38Z</time>
      </trkpt>
      <trkpt lat="47.72969" lon="3.5787">
        <ele>211.2</ele>
        <time>2022-04-03T13:05:40Z</time>
      </trkpt>
      <trkpt lat="47.72968" lon="3.57869">
        <ele>211.3</ele>
        <time>2022-04-03T13:05:41Z</time>
      </trkpt>
      <trkpt lat="47.72967" lon="3.57868">
        <ele>211.3</ele>
        <time>2022-04-03T13:05:42Z</time>
      </trkpt>
      <trkpt lat="47.72967" lon="3.57867">
        <ele>211.4</ele>
        <time>2022-04-03T13:05:43Z</time>
      </trkpt>
      <trkpt lat="47.72966" lon="3.57866">
        <ele>211.4</ele>
        <time>2022-04-03T13:05:44Z</time>
      </trkpt>
      <trkpt lat="47.72964" lon="3.57864">
        <ele>211.5</ele>
        <time>2022-04-03T13:05:45Z</time>
      </trkpt>
      <trkpt lat="47.72964" lon="3.57863">
        <ele>211.5</ele>
        <time>2022-04-03T13:05:46Z</time>
      </trkpt>
      <trkpt lat="47.72963" lon="3.57863">
        <ele>211.6</ele>
        <time>2022-04-03T13:05:47Z</time>
      </trkpt>
      <trkpt lat="47.72963" lon="3.57861">
        <ele>211.6</ele>
        <time>2022-04-03T13:05:48Z</time>
      </trkpt>
      <trkpt lat="47.72962" lon="3.5786">
        <ele>211.7</ele>
        <time>2022-04-03T13:05:49Z</time>
      </trkpt>
      <trkpt lat="47.72962" lon="3.57859">
        <ele>211.7</ele>
        <time>2022-04-03T13:05:51Z</time>
      </trkpt>
      <trkpt lat="47.72961" lon="3.57858">
        <ele>211.8</ele>
        <time>2022-04-03T13:05:52Z</time>
      </trkpt>
      <trkpt lat="47.7296" lon="3.57856">
        <ele>211.8</ele>
        <time>2022-04-03T13:05:53Z</time>
      </trkpt>
      <trkpt lat="47.7296" lon="3.57855">
        <ele>211.9</ele>
        <time>2022-04-03T13:05:54Z</time>
      </trkpt>
      <trkpt lat="47.72959" lon="3.57853">
        <ele>211.9</ele>
        <time>2022-04-03T13:05:55Z</time>
      </trkpt>
      <trkpt lat="47.72959" lon="3.57852">
        <ele>212</ele>
        <time>2022-04-03T13:05:56Z</time>
      </trkpt>
      <trkpt lat="47.72958" lon="3.57851">
        <ele>212</ele>
        <time>2022-04-03T13:05:57Z</time>
      </trkpt>
      <trkpt lat="47.72957" lon="3.5785">
        <ele>212</ele>
        <time>2022-04-03T13:05:58Z</time>
      </trkpt>
      <trkpt lat="47.72957" lon="3.57848">
        <ele>212.1</ele>
        <time>2022-04-03T13:05:59Z</time>
      </trkpt>
      <trkpt lat="47.72956" lon="3.57846">
        <ele>212.2</ele>
        <time>2022-04-03T13:06:00Z</time>
      </trkpt>
      <trkpt lat="47.72956" lon="3.57845">
        <ele>212.2</ele>
        <time>2022-04-03T13:06:01Z</time>
      </trkpt>
      <trkpt lat="47.72955" lon="3.57843">
        <ele>212.3</ele>
        <time>2022-04-03T13:06:02Z</time>
      </trkpt>
      <trkpt lat="47.72954" lon="3.57841">
        <ele>212.4</ele>
        <time>2022-04-03T13:06:03Z</time>
      </trkpt>
      <trkpt lat="47.72953" lon="3.57837">
        <ele>212.5</ele>
        <time>2022-04-03T13:06:05Z</time>
      </trkpt>
      <trkpt lat="47.72952" lon="3.57836">
        <ele>212.6</ele>
        <time>2022-04-03T13:06:06Z</time>
      </trkpt>
      <trkpt lat="47.72952" lon="3.57835">
        <ele>212.6</ele>
        <time>2022-04-03T13:06:07Z</time>
      </trkpt>
      <trkpt lat="47.72951" lon="3.57833">
        <ele>212.7</ele>
        <time>2022-04-03T13:06:09Z</time>
      </trkpt>
      <trkpt lat="47.7295" lon="3.5783">
        <ele>212.9</ele>
        <time>2022-04-03T13:06:10Z</time>
      </trkpt>
      <trkpt lat="47.72949" lon="3.57828">
        <ele>212.9</ele>
        <time>2022-04-03T13:06:11Z</time>
      </trkpt>
      <trkpt lat="47.72948" lon="3.57826">
        <ele>213</ele>
        <time>2022-04-03T13:06:12Z</time>
      </trkpt>
      <trkpt lat="47.72948" lon="3.57825">
        <ele>213.1</ele>
        <time>2022-04-03T13:06:13Z</time>
      </trkpt>
      <trkpt lat="47.72947" lon="3.57824">
        <ele>213.1</ele>
        <time>2022-04-03T13:06:14Z</time>
      </trkpt>
      <trkpt lat="47.72947" lon="3.57822">
        <ele>213.2</ele>
        <time>2022-04-03T13:06:16Z</time>
      </trkpt>
      <trkpt lat="47.72946" lon="3.5782">
        <ele>213.3</ele>
        <time>2022-04-03T13:06:17Z</time>
      </trkpt>
      <trkpt lat="47.72945" lon="3.57817">
        <ele>213.5</ele>
        <time>2022-04-03T13:06:18Z</time>
      </trkpt>
      <trkpt lat="47.72945" lon="3.57815">
        <ele>213.5</ele>
        <time>2022-04-03T13:06:19Z</time>
      </trkpt>
      <trkpt lat="47.72945" lon="3.57814">
        <ele>213.6</ele>
        <time>2022-04-03T13:06:20Z</time>
      </trkpt>
      <trkpt lat="47.72944" lon="3.57812">
        <ele>213.7</ele>
        <time>2022-04-03T13:06:21Z</time>
      </trkpt>
      <trkpt lat="47.72943" lon="3.5781">
        <ele>213.8</ele>
        <time>2022-04-03T13:06:23Z</time>
      </trkpt>
      <trkpt lat="47.72943" lon="3.57809">
        <ele>213.8</ele>
        <time>2022-04-03T13:06:24Z</time>
      </trkpt>
      <trkpt lat="47.72943" lon="3.57807">
        <ele>213.9</ele>
        <time>2022-04-03T13:06:25Z</time>
      </trkpt>
      <trkpt lat="47.72942" lon="3.57806">
        <ele>213.9</ele>
        <time>2022-04-03T13:06:26Z</time>
      </trkpt>
      <trkpt lat="47.72942" lon="3.57805">
        <ele>214</ele>
        <time>2022-04-03T13:06:27Z</time>
      </trkpt>
      <trkpt lat="47.72941" lon="3.57803">
        <ele>214.1</ele>
        <time>2022-04-03T13:06:28Z</time>
      </trkpt>
      <trkpt lat="47.72941" lon="3.57802">
        <ele>214.1</ele>
        <time>2022-04-03T13:06:29Z</time>
      </trkpt>
      <trkpt lat="47.72941" lon="3.578">
        <ele>214.2</ele>
        <time>2022-04-03T13:06:31Z</time>
      </trkpt>
      <trkpt lat="47.72941" lon="3.57799">
        <ele>214.3</ele>
        <time>2022-04-03T13:06:32Z</time>
      </trkpt>
      <trkpt lat="47.7294" lon="3.57797">
        <ele>214.3</ele>
        <time>2022-04-03T13:06:33Z</time>
      </trkpt>
      <trkpt lat="47.7294" lon="3.57796">
        <ele>214.4</ele>
        <time>2022-04-03T13:06:34Z</time>
      </trkpt>
      <trkpt lat="47.72939" lon="3.57794">
        <ele>214.5</ele>
        <time>2022-04-03T13:06:35Z</time>
      </trkpt>
      <trkpt lat="47.72939" lon="3.57793">
        <ele>214.5</ele>
        <time>2022-04-03T13:06:36Z</time>
      </trkpt>
      <trkpt lat="47.72938" lon="3.57792">
        <ele>214.5</ele>
        <time>2022-04-03T13:06:37Z</time>
      </trkpt>
      <trkpt lat="47.72937" lon="3.5779">
        <ele>214.6</ele>
        <time>2022-04-03T13:06:39Z</time>
      </trkpt>
      <trkpt lat="47.72937" lon="3.57788">
        <ele>214.7</ele>
        <time>2022-04-03T13:06:40Z</time>
      </trkpt>
      <trkpt lat="47.72936" lon="3.57786">
        <ele>214.8</ele>
        <time>2022-04-03T13:06:41Z</time>
      </trkpt>
      <trkpt lat="47.72936" lon="3.57785">
        <ele>214.8</ele>
        <time>2022-04-03T13:06:42Z</time>
      </trkpt>
      <trkpt lat="47.72936" lon="3.57784">
        <ele>214.9</ele>
        <time>2022-04-03T13:06:43Z</time>
      </trkpt>
      <trkpt lat="47.72935" lon="3.57781">
        <ele>215</ele>
        <time>2022-04-03T13:06:45Z</time>
      </trkpt>
      <trkpt lat="47.72934" lon="3.5778">
        <ele>215</ele>
        <time>2022-04-03T13:06:46Z</time>
      </trkpt>
      <trkpt lat="47.72934" lon="3.57779">
        <ele>215.1</ele>
        <time>2022-04-03T13:06:47Z</time>
      </trkpt>
      <trkpt lat="47.72933" lon="3.57778">
        <ele>215.1</ele>
        <time>2022-04-03T13:06:48Z</time>
      </trkpt>
      <trkpt lat="47.72932" lon="3.57777">
        <ele>215.1</ele>
        <time>2022-04-03T13:06:49Z</time>
      </trkpt>
      <trkpt lat="47.72931" lon="3.57774">
        <ele>215.2</ele>
        <time>2022-04-03T13:06:50Z</time>
      </trkpt>
      <trkpt lat="47.7293" lon="3.57773">
        <ele>215.3</ele>
        <time>2022-04-03T13:06:52Z</time>
      </trkpt>
      <trkpt lat="47.7293" lon="3.57773">
        <ele>215.3</ele>
        <time>2022-04-03T13:06:53Z</time>
      </trkpt>
      <trkpt lat="47.72929" lon="3.57771">
        <ele>215.4</ele>
        <time>2022-04-03T13:06:54Z</time>
      </trkpt>
      <trkpt lat="47.72928" lon="3.5777">
        <ele>215.4</ele>
        <time>2022-04-03T13:06:55Z</time>
      </trkpt>
      <trkpt lat="47.72927" lon="3.57769">
        <ele>215.5</ele>
        <time>2022-04-03T13:06:56Z</time>
      </trkpt>
      <trkpt lat="47.72927" lon="3.57768">
        <ele>215.5</ele>
        <time>2022-04-03T13:06:57Z</time>
      </trkpt>
      <trkpt lat="47.72926" lon="3.57766">
        <ele>215.6</ele>
        <time>2022-04-03T13:06:58Z</time>
      </trkpt>
      <trkpt lat="47.72925" lon="3.57765">
        <ele>215.6</ele>
        <time>2022-04-03T13:06:59Z</time>
      </trkpt>
      <trkpt lat="47.72924" lon="3.57763">
        <ele>215.7</ele>
        <time>2022-04-03T13:07:01Z</time>
      </trkpt>
      <trkpt lat="47.72923" lon="3.57762">
        <ele>215.8</ele>
        <time>2022-04-03T13:07:02Z</time>
      </trkpt>
      <trkpt lat="47.72922" lon="3.5776">
        <ele>215.8</ele>
        <time>2022-04-03T13:07:03Z</time>
      </trkpt>
      <trkpt lat="47.72921" lon="3.57759">
        <ele>215.9</ele>
        <time>2022-04-03T13:07:04Z</time>
      </trkpt>
      <trkpt lat="47.7292" lon="3.57758">
        <ele>216</ele>
        <time>2022-04-03T13:07:06Z</time>
      </trkpt>
      <trkpt lat="47.72919" lon="3.57756">
        <ele>216</ele>
        <time>2022-04-03T13:07:07Z</time>
      </trkpt>
      <trkpt lat="47.72918" lon="3.57755">
        <ele>216.1</ele>
        <time>2022-04-03T13:07:08Z</time>
      </trkpt>
      <trkpt lat="47.72918" lon="3.57754">
        <ele>216.1</ele>
        <time>2022-04-03T13:07:09Z</time>
      </trkpt>
      <trkpt lat="47.72918" lon="3.57753">
        <ele>216.1</ele>
        <time>2022-04-03T13:07:11Z</time>
      </trkpt>
      <trkpt lat="47.72918" lon="3.57752">
        <ele>216.1</ele>
        <time>2022-04-03T13:07:12Z</time>
      </trkpt>
      <trkpt lat="47.72918" lon="3.57751">
        <ele>216.2</ele>
        <time>2022-04-03T13:07:13Z</time>
      </trkpt>
      <trkpt lat="47.72918" lon="3.57751">
        <ele>216.2</ele>
        <time>2022-04-03T13:07:14Z</time>
      </trkpt>
      <trkpt lat="47.72918" lon="3.57752">
        <ele>216.2</ele>
        <time>2022-04-03T13:07:15Z</time>
      </trkpt>
      <trkpt lat="47.72918" lon="3.57751">
        <ele>216.2</ele>
        <time>2022-04-03T13:07:16Z</time>
      </trkpt>
      <trkpt lat="47.72917" lon="3.57749">
        <ele>216.3</ele>
        <time>2022-04-03T13:07:17Z</time>
      </trkpt>
      <trkpt lat="47.72916" lon="3.57749">
        <ele>216.3</ele>
        <time>2022-04-03T13:07:18Z</time>
      </trkpt>
      <trkpt lat="47.72915" lon="3.57747">
        <ele>216.4</ele>
        <time>2022-04-03T13:07:19Z</time>
      </trkpt>
      <trkpt lat="47.72914" lon="3.57745">
        <ele>216.4</ele>
        <time>2022-04-03T13:07:21Z</time>
      </trkpt>
      <trkpt lat="47.72913" lon="3.57744">
        <ele>216.5</ele>
        <time>2022-04-03T13:07:22Z</time>
      </trkpt>
      <trkpt lat="47.72912" lon="3.57742">
        <ele>216.6</ele>
        <time>2022-04-03T13:07:23Z</time>
      </trkpt>
      <trkpt lat="47.72911" lon="3.57741">
        <ele>216.7</ele>
        <time>2022-04-03T13:07:24Z</time>
      </trkpt>
      <trkpt lat="47.72909" lon="3.57739">
        <ele>216.7</ele>
        <time>2022-04-03T13:07:25Z</time>
      </trkpt>
      <trkpt lat="47.72908" lon="3.57737">
        <ele>216.8</ele>
        <time>2022-04-03T13:07:26Z</time>
      </trkpt>
      <trkpt lat="47.72908" lon="3.57736">
        <ele>216.9</ele>
        <time>2022-04-03T13:07:27Z</time>
      </trkpt>
      <trkpt lat="47.72907" lon="3.57734">
        <ele>216.9</ele>
        <time>2022-04-03T13:07:29Z</time>
      </trkpt>
      <trkpt lat="47.72907" lon="3.57733">
        <ele>217</ele>
        <time>2022-04-03T13:07:30Z</time>
      </trkpt>
      <trkpt lat="47.72906" lon="3.57731">
        <ele>217</ele>
        <time>2022-04-03T13:07:31Z</time>
      </trkpt>
      <trkpt lat="47.72906" lon="3.5773">
        <ele>217.1</ele>
        <time>2022-04-03T13:07:32Z</time>
      </trkpt>
      <trkpt lat="47.72904" lon="3.57728">
        <ele>217.2</ele>
        <time>2022-04-03T13:07:34Z</time>
      </trkpt>
      <trkpt lat="47.72904" lon="3.57727">
        <ele>217.2</ele>
        <time>2022-04-03T13:07:35Z</time>
      </trkpt>
      <trkpt lat="47.72903" lon="3.57726">
        <ele>217.3</ele>
        <time>2022-04-03T13:07:36Z</time>
      </trkpt>
      <trkpt lat="47.72901" lon="3.57724">
        <ele>217.4</ele>
        <time>2022-04-03T13:07:37Z</time>
      </trkpt>
      <trkpt lat="47.729" lon="3.57723">
        <ele>217.6</ele>
        <time>2022-04-03T13:07:38Z</time>
      </trkpt>
      <trkpt lat="47.72899" lon="3.57723">
        <ele>217.7</ele>
        <time>2022-04-03T13:07:39Z</time>
      </trkpt>
      <trkpt lat="47.72898" lon="3.57721">
        <ele>217.8</ele>
        <time>2022-04-03T13:07:41Z</time>
      </trkpt>
      <trkpt lat="47.72897" lon="3.5772">
        <ele>217.9</ele>
        <time>2022-04-03T13:07:42Z</time>
      </trkpt>
      <trkpt lat="47.72896" lon="3.57719">
        <ele>217.9</ele>
        <time>2022-04-03T13:07:43Z</time>
      </trkpt>
      <trkpt lat="47.72895" lon="3.57718">
        <ele>218</ele>
        <time>2022-04-03T13:07:44Z</time>
      </trkpt>
      <trkpt lat="47.72893" lon="3.57716">
        <ele>218.1</ele>
        <time>2022-04-03T13:07:45Z</time>
      </trkpt>
      <trkpt lat="47.72893" lon="3.57715">
        <ele>218.1</ele>
        <time>2022-04-03T13:07:46Z</time>
      </trkpt>
      <trkpt lat="47.72892" lon="3.57714">
        <ele>218.2</ele>
        <time>2022-04-03T13:07:47Z</time>
      </trkpt>
      <trkpt lat="47.72892" lon="3.57713">
        <ele>218.2</ele>
        <time>2022-04-03T13:07:49Z</time>
      </trkpt>
      <trkpt lat="47.72891" lon="3.57713">
        <ele>218.3</ele>
        <time>2022-04-03T13:07:50Z</time>
      </trkpt>
      <trkpt lat="47.72891" lon="3.57711">
        <ele>218.3</ele>
        <time>2022-04-03T13:07:51Z</time>
      </trkpt>
      <trkpt lat="47.72891" lon="3.57709">
        <ele>218.4</ele>
        <time>2022-04-03T13:07:52Z</time>
      </trkpt>
      <trkpt lat="47.72891" lon="3.57706">
        <ele>218.5</ele>
        <time>2022-04-03T13:07:53Z</time>
      </trkpt>
      <trkpt lat="47.7289" lon="3.57704">
        <ele>218.5</ele>
        <time>2022-04-03T13:07:55Z</time>
      </trkpt>
      <trkpt lat="47.7289" lon="3.57703">
        <ele>218.6</ele>
        <time>2022-04-03T13:07:56Z</time>
      </trkpt>
      <trkpt lat="47.7289" lon="3.57701">
        <ele>218.6</ele>
        <time>2022-04-03T13:07:57Z</time>
      </trkpt>
      <trkpt lat="47.7289" lon="3.577">
        <ele>218.7</ele>
        <time>2022-04-03T13:07:58Z</time>
      </trkpt>
      <trkpt lat="47.7289" lon="3.57698">
        <ele>218.7</ele>
        <time>2022-04-03T13:07:59Z</time>
      </trkpt>
      <trkpt lat="47.72889" lon="3.57696">
        <ele>218.8</ele>
        <time>2022-04-03T13:08:00Z</time>
      </trkpt>
      <trkpt lat="47.72889" lon="3.57695">
        <ele>218.9</ele>
        <time>2022-04-03T13:08:01Z</time>
      </trkpt>
      <trkpt lat="47.72888" lon="3.57694">
        <ele>218.9</ele>
        <time>2022-04-03T13:08:02Z</time>
      </trkpt>
      <trkpt lat="47.72887" lon="3.57693">
        <ele>219</ele>
        <time>2022-04-03T13:08:03Z</time>
      </trkpt>
      <trkpt lat="47.72886" lon="3.57691">
        <ele>219.1</ele>
        <time>2022-04-03T13:08:05Z</time>
      </trkpt>
      <trkpt lat="47.72884" lon="3.57689">
        <ele>219.2</ele>
        <time>2022-04-03T13:08:06Z</time>
      </trkpt>
      <trkpt lat="47.72883" lon="3.57688">
        <ele>219.2</ele>
        <time>2022-04-03T13:08:07Z</time>
      </trkpt>
      <trkpt lat="47.72881" lon="3.57687">
        <ele>219.3</ele>
        <time>2022-04-03T13:08:08Z</time>
      </trkpt>
      <trkpt lat="47.7288" lon="3.57686">
        <ele>219.4</ele>
        <time>2022-04-03T13:08:09Z</time>
      </trkpt>
      <trkpt lat="47.7288" lon="3.57685">
        <ele>219.5</ele>
        <time>2022-04-03T13:08:10Z</time>
      </trkpt>
      <trkpt lat="47.72879" lon="3.57684">
        <ele>219.5</ele>
        <time>2022-04-03T13:08:11Z</time>
      </trkpt>
      <trkpt lat="47.72878" lon="3.57683">
        <ele>219.6</ele>
        <time>2022-04-03T13:08:12Z</time>
      </trkpt>
      <trkpt lat="47.72877" lon="3.57682">
        <ele>219.6</ele>
        <time>2022-04-03T13:08:13Z</time>
      </trkpt>
      <trkpt lat="47.72877" lon="3.57681">
        <ele>219.7</ele>
        <time>2022-04-03T13:08:14Z</time>
      </trkpt>
      <trkpt lat="47.72876" lon="3.57679">
        <ele>219.7</ele>
        <time>2022-04-03T13:08:16Z</time>
      </trkpt>
      <trkpt lat="47.72876" lon="3.57678">
        <ele>219.8</ele>
        <time>2022-04-03T13:08:17Z</time>
      </trkpt>
      <trkpt lat="47.72875" lon="3.57676">
        <ele>219.9</ele>
        <time>2022-04-03T13:08:18Z</time>
      </trkpt>
      <trkpt lat="47.72874" lon="3.57674">
        <ele>220</ele>
        <time>2022-04-03T13:08:19Z</time>
      </trkpt>
      <trkpt lat="47.72873" lon="3.57672">
        <ele>220.1</ele>
        <time>2022-04-03T13:08:20Z</time>
      </trkpt>
      <trkpt lat="47.72872" lon="3.57671">
        <ele>220.1</ele>
        <time>2022-04-03T13:08:21Z</time>
      </trkpt>
      <trkpt lat="47.72872" lon="3.57669">
        <ele>220.2</ele>
        <time>2022-04-03T13:08:23Z</time>
      </trkpt>
      <trkpt lat="47.72871" lon="3.57668">
        <ele>220.3</ele>
        <time>2022-04-03T13:08:24Z</time>
      </trkpt>
      <trkpt lat="47.7287" lon="3.57666">
        <ele>220.3</ele>
        <time>2022-04-03T13:08:25Z</time>
      </trkpt>
      <trkpt lat="47.7287" lon="3.57664">
        <ele>220.4</ele>
        <time>2022-04-03T13:08:26Z</time>
      </trkpt>
      <trkpt lat="47.7287" lon="3.57663">
        <ele>220.4</ele>
        <time>2022-04-03T13:08:27Z</time>
      </trkpt>
      <trkpt lat="47.7287" lon="3.57662">
        <ele>220.5</ele>
        <time>2022-04-03T13:08:28Z</time>
      </trkpt>
      <trkpt lat="47.7287" lon="3.5766">
        <ele>220.6</ele>
        <time>2022-04-03T13:08:29Z</time>
      </trkpt>
      <trkpt lat="47.7287" lon="3.57659">
        <ele>220.6</ele>
        <time>2022-04-03T13:08:31Z</time>
      </trkpt>
      <trkpt lat="47.7287" lon="3.57657">
        <ele>220.7</ele>
        <time>2022-04-03T13:08:32Z</time>
      </trkpt>
      <trkpt lat="47.72869" lon="3.57654">
        <ele>220.8</ele>
        <time>2022-04-03T13:08:33Z</time>
      </trkpt>
      <trkpt lat="47.72869" lon="3.57653">
        <ele>220.9</ele>
        <time>2022-04-03T13:08:34Z</time>
      </trkpt>
      <trkpt lat="47.72868" lon="3.57652">
        <ele>220.9</ele>
        <time>2022-04-03T13:08:35Z</time>
      </trkpt>
      <trkpt lat="47.72867" lon="3.5765">
        <ele>221</ele>
        <time>2022-04-03T13:08:36Z</time>
      </trkpt>
      <trkpt lat="47.72866" lon="3.57649">
        <ele>221.1</ele>
        <time>2022-04-03T13:08:38Z</time>
      </trkpt>
      <trkpt lat="47.72865" lon="3.57648">
        <ele>221.2</ele>
        <time>2022-04-03T13:08:39Z</time>
      </trkpt>
      <trkpt lat="47.72864" lon="3.57646">
        <ele>221.3</ele>
        <time>2022-04-03T13:08:40Z</time>
      </trkpt>
      <trkpt lat="47.72863" lon="3.57645">
        <ele>221.3</ele>
        <time>2022-04-03T13:08:41Z</time>
      </trkpt>
      <trkpt lat="47.72863" lon="3.57644">
        <ele>221.4</ele>
        <time>2022-04-03T13:08:42Z</time>
      </trkpt>
      <trkpt lat="47.72862" lon="3.57643">
        <ele>221.4</ele>
        <time>2022-04-03T13:08:43Z</time>
      </trkpt>
      <trkpt lat="47.72862" lon="3.57641">
        <ele>221.5</ele>
        <time>2022-04-03T13:08:44Z</time>
      </trkpt>
      <trkpt lat="47.72861" lon="3.57639">
        <ele>221.6</ele>
        <time>2022-04-03T13:08:45Z</time>
      </trkpt>
      <trkpt lat="47.7286" lon="3.57638">
        <ele>221.6</ele>
        <time>2022-04-03T13:08:46Z</time>
      </trkpt>
      <trkpt lat="47.7286" lon="3.57637">
        <ele>221.7</ele>
        <time>2022-04-03T13:08:47Z</time>
      </trkpt>
      <trkpt lat="47.72859" lon="3.57634">
        <ele>221.8</ele>
        <time>2022-04-03T13:08:48Z</time>
      </trkpt>
      <trkpt lat="47.72858" lon="3.57633">
        <ele>221.9</ele>
        <time>2022-04-03T13:08:50Z</time>
      </trkpt>
      <trkpt lat="47.72858" lon="3.57632">
        <ele>221.9</ele>
        <time>2022-04-03T13:08:51Z</time>
      </trkpt>
      <trkpt lat="47.72856" lon="3.57629">
        <ele>222.1</ele>
        <time>2022-04-03T13:08:52Z</time>
      </trkpt>
      <trkpt lat="47.72856" lon="3.57628">
        <ele>222.1</ele>
        <time>2022-04-03T13:08:53Z</time>
      </trkpt>
      <trkpt lat="47.72855" lon="3.57627">
        <ele>222.2</ele>
        <time>2022-04-03T13:08:54Z</time>
      </trkpt>
      <trkpt lat="47.72854" lon="3.57624">
        <ele>222.3</ele>
        <time>2022-04-03T13:08:55Z</time>
      </trkpt>
      <trkpt lat="47.72853" lon="3.57623">
        <ele>222.3</ele>
        <time>2022-04-03T13:08:57Z</time>
      </trkpt>
      <trkpt lat="47.72853" lon="3.57623">
        <ele>222.4</ele>
        <time>2022-04-03T13:08:58Z</time>
      </trkpt>
      <trkpt lat="47.72852" lon="3.57621">
        <ele>222.4</ele>
        <time>2022-04-03T13:08:59Z</time>
      </trkpt>
      <trkpt lat="47.72851" lon="3.57618">
        <ele>222.6</ele>
        <time>2022-04-03T13:09:01Z</time>
      </trkpt>
      <trkpt lat="47.7285" lon="3.57617">
        <ele>222.6</ele>
        <time>2022-04-03T13:09:02Z</time>
      </trkpt>
      <trkpt lat="47.72849" lon="3.57615">
        <ele>222.7</ele>
        <time>2022-04-03T13:09:03Z</time>
      </trkpt>
      <trkpt lat="47.72848" lon="3.57613">
        <ele>222.8</ele>
        <time>2022-04-03T13:09:04Z</time>
      </trkpt>
      <trkpt lat="47.72847" lon="3.5761">
        <ele>222.9</ele>
        <time>2022-04-03T13:09:05Z</time>
      </trkpt>
      <trkpt lat="47.72846" lon="3.57608">
        <ele>223</ele>
        <time>2022-04-03T13:09:06Z</time>
      </trkpt>
      <trkpt lat="47.72845" lon="3.57607">
        <ele>223.1</ele>
        <time>2022-04-03T13:09:08Z</time>
      </trkpt>
      <trkpt lat="47.72845" lon="3.57605">
        <ele>223.1</ele>
        <time>2022-04-03T13:09:09Z</time>
      </trkpt>
      <trkpt lat="47.72843" lon="3.57602">
        <ele>223.3</ele>
        <time>2022-04-03T13:09:11Z</time>
      </trkpt>
      <trkpt lat="47.72843" lon="3.576">
        <ele>223.4</ele>
        <time>2022-04-03T13:09:12Z</time>
      </trkpt>
      <trkpt lat="47.72842" lon="3.57598">
        <ele>223.5</ele>
        <time>2022-04-03T13:09:13Z</time>
      </trkpt>
      <trkpt lat="47.72841" lon="3.57595">
        <ele>223.6</ele>
        <time>2022-04-03T13:09:14Z</time>
      </trkpt>
      <trkpt lat="47.7284" lon="3.57593">
        <ele>223.6</ele>
        <time>2022-04-03T13:09:15Z</time>
      </trkpt>
      <trkpt lat="47.72839" lon="3.57589">
        <ele>223.8</ele>
        <time>2022-04-03T13:09:16Z</time>
      </trkpt>
      <trkpt lat="47.72838" lon="3.57587">
        <ele>223.9</ele>
        <time>2022-04-03T13:09:18Z</time>
      </trkpt>
      <trkpt lat="47.72838" lon="3.57586">
        <ele>224</ele>
        <time>2022-04-03T13:09:19Z</time>
      </trkpt>
      <trkpt lat="47.72837" lon="3.57584">
        <ele>224</ele>
        <time>2022-04-03T13:09:20Z</time>
      </trkpt>
      <trkpt lat="47.72836" lon="3.57582">
        <ele>224.1</ele>
        <time>2022-04-03T13:09:21Z</time>
      </trkpt>
      <trkpt lat="47.72835" lon="3.57581">
        <ele>224.2</ele>
        <time>2022-04-03T13:09:23Z</time>
      </trkpt>
      <trkpt lat="47.72834" lon="3.57581">
        <ele>224.2</ele>
        <time>2022-04-03T13:09:24Z</time>
      </trkpt>
      <trkpt lat="47.72832" lon="3.57581">
        <ele>224.3</ele>
        <time>2022-04-03T13:09:26Z</time>
      </trkpt>
      <trkpt lat="47.72831" lon="3.57581">
        <ele>224.4</ele>
        <time>2022-04-03T13:09:27Z</time>
      </trkpt>
      <trkpt lat="47.72831" lon="3.57581">
        <ele>224.4</ele>
        <time>2022-04-03T13:09:28Z</time>
      </trkpt>
      <trkpt lat="47.7283" lon="3.5758">
        <ele>224.5</ele>
        <time>2022-04-03T13:09:29Z</time>
      </trkpt>
      <trkpt lat="47.7283" lon="3.5758">
        <ele>224.5</ele>
        <time>2022-04-03T13:09:30Z</time>
      </trkpt>
      <trkpt lat="47.72829" lon="3.5758">
        <ele>224.5</ele>
        <time>2022-04-03T13:09:31Z</time>
      </trkpt>
      <trkpt lat="47.72829" lon="3.5758">
        <ele>224.5</ele>
        <time>2022-04-03T13:09:33Z</time>
      </trkpt>
      <trkpt lat="47.72829" lon="3.57579">
        <ele>224.6</ele>
        <time>2022-04-03T13:09:34Z</time>
      </trkpt>
      <trkpt lat="47.7283" lon="3.57577">
        <ele>224.6</ele>
        <time>2022-04-03T13:09:36Z</time>
      </trkpt>
      <trkpt lat="47.7283" lon="3.57577">
        <ele>224.6</ele>
        <time>2022-04-03T13:09:37Z</time>
      </trkpt>
      <trkpt lat="47.7283" lon="3.57576">
        <ele>224.7</ele>
        <time>2022-04-03T13:09:38Z</time>
      </trkpt>
      <trkpt lat="47.72831" lon="3.57575">
        <ele>224.7</ele>
        <time>2022-04-03T13:09:40Z</time>
      </trkpt>
      <trkpt lat="47.72831" lon="3.57573">
        <ele>224.7</ele>
        <time>2022-04-03T13:09:41Z</time>
      </trkpt>
      <trkpt lat="47.72831" lon="3.57574">
        <ele>224.8</ele>
        <time>2022-04-03T13:09:42Z</time>
      </trkpt>
      <trkpt lat="47.72832" lon="3.57573">
        <ele>224.8</ele>
        <time>2022-04-03T13:09:44Z</time>
      </trkpt>
      <trkpt lat="47.72832" lon="3.5757">
        <ele>224.9</ele>
        <time>2022-04-03T13:09:45Z</time>
      </trkpt>
      <trkpt lat="47.72831" lon="3.57566">
        <ele>225.1</ele>
        <time>2022-04-03T13:09:47Z</time>
      </trkpt>
      <trkpt lat="47.72831" lon="3.57564">
        <ele>225.1</ele>
        <time>2022-04-03T13:09:48Z</time>
      </trkpt>
      <trkpt lat="47.7283" lon="3.57563">
        <ele>225.1</ele>
        <time>2022-04-03T13:09:49Z</time>
      </trkpt>
      <trkpt lat="47.7283" lon="3.5756">
        <ele>225.2</ele>
        <time>2022-04-03T13:09:51Z</time>
      </trkpt>
      <trkpt lat="47.7283" lon="3.57559">
        <ele>225.3</ele>
        <time>2022-04-03T13:09:52Z</time>
      </trkpt>
      <trkpt lat="47.72829" lon="3.57557">
        <ele>225.3</ele>
        <time>2022-04-03T13:09:53Z</time>
      </trkpt>
      <trkpt lat="47.72829" lon="3.57556">
        <ele>225.4</ele>
        <time>2022-04-03T13:09:54Z</time>
      </trkpt>
      <trkpt lat="47.72828" lon="3.57552">
        <ele>225.5</ele>
        <time>2022-04-03T13:09:55Z</time>
      </trkpt>
      <trkpt lat="47.72827" lon="3.57551">
        <ele>225.5</ele>
        <time>2022-04-03T13:09:57Z</time>
      </trkpt>
      <trkpt lat="47.72827" lon="3.57549">
        <ele>225.6</ele>
        <time>2022-04-03T13:09:58Z</time>
      </trkpt>
      <trkpt lat="47.72826" lon="3.57548">
        <ele>225.6</ele>
        <time>2022-04-03T13:09:59Z</time>
      </trkpt>
      <trkpt lat="47.72826" lon="3.57546">
        <ele>225.7</ele>
        <time>2022-04-03T13:10:00Z</time>
      </trkpt>
      <trkpt lat="47.72825" lon="3.57544">
        <ele>225.8</ele>
        <time>2022-04-03T13:10:01Z</time>
      </trkpt>
      <trkpt lat="47.72825" lon="3.57542">
        <ele>225.8</ele>
        <time>2022-04-03T13:10:03Z</time>
      </trkpt>
      <trkpt lat="47.72824" lon="3.5754">
        <ele>225.9</ele>
        <time>2022-04-03T13:10:04Z</time>
      </trkpt>
      <trkpt lat="47.72824" lon="3.57538">
        <ele>225.9</ele>
        <time>2022-04-03T13:10:05Z</time>
      </trkpt>
      <trkpt lat="47.72822" lon="3.57535">
        <ele>226</ele>
        <time>2022-04-03T13:10:06Z</time>
      </trkpt>
      <trkpt lat="47.72822" lon="3.57535">
        <ele>226.1</ele>
        <time>2022-04-03T13:10:07Z</time>
      </trkpt>
      <trkpt lat="47.72822" lon="3.57532">
        <ele>226.1</ele>
        <time>2022-04-03T13:10:08Z</time>
      </trkpt>
      <trkpt lat="47.72822" lon="3.5753">
        <ele>226.2</ele>
        <time>2022-04-03T13:10:10Z</time>
      </trkpt>
      <trkpt lat="47.72823" lon="3.57528">
        <ele>226.2</ele>
        <time>2022-04-03T13:10:11Z</time>
      </trkpt>
      <trkpt lat="47.72822" lon="3.57527">
        <ele>226.3</ele>
        <time>2022-04-03T13:10:12Z</time>
      </trkpt>
      <trkpt lat="47.72821" lon="3.57525">
        <ele>226.4</ele>
        <time>2022-04-03T13:10:14Z</time>
      </trkpt>
      <trkpt lat="47.72819" lon="3.57523">
        <ele>226.4</ele>
        <time>2022-04-03T13:10:15Z</time>
      </trkpt>
      <trkpt lat="47.72819" lon="3.57522">
        <ele>226.5</ele>
        <time>2022-04-03T13:10:16Z</time>
      </trkpt>
      <trkpt lat="47.72818" lon="3.57521">
        <ele>226.5</ele>
        <time>2022-04-03T13:10:17Z</time>
      </trkpt>
      <trkpt lat="47.72817" lon="3.57518">
        <ele>226.6</ele>
        <time>2022-04-03T13:10:18Z</time>
      </trkpt>
      <trkpt lat="47.72817" lon="3.57516">
        <ele>226.6</ele>
        <time>2022-04-03T13:10:19Z</time>
      </trkpt>
      <trkpt lat="47.72817" lon="3.57514">
        <ele>226.7</ele>
        <time>2022-04-03T13:10:21Z</time>
      </trkpt>
      <trkpt lat="47.72817" lon="3.57513">
        <ele>226.7</ele>
        <time>2022-04-03T13:10:22Z</time>
      </trkpt>
      <trkpt lat="47.72817" lon="3.5751">
        <ele>226.8</ele>
        <time>2022-04-03T13:10:23Z</time>
      </trkpt>
      <trkpt lat="47.72817" lon="3.57508">
        <ele>226.8</ele>
        <time>2022-04-03T13:10:24Z</time>
      </trkpt>
      <trkpt lat="47.72817" lon="3.57507">
        <ele>226.9</ele>
        <time>2022-04-03T13:10:25Z</time>
      </trkpt>
      <trkpt lat="47.72817" lon="3.57504">
        <ele>226.9</ele>
        <time>2022-04-03T13:10:26Z</time>
      </trkpt>
      <trkpt lat="47.72817" lon="3.57503">
        <ele>226.9</ele>
        <time>2022-04-03T13:10:27Z</time>
      </trkpt>
      <trkpt lat="47.72817" lon="3.57503">
        <ele>227</ele>
        <time>2022-04-03T13:10:28Z</time>
      </trkpt>
      <trkpt lat="47.72817" lon="3.57501">
        <ele>227</ele>
        <time>2022-04-03T13:10:30Z</time>
      </trkpt>
      <trkpt lat="47.72817" lon="3.57498">
        <ele>227.1</ele>
        <time>2022-04-03T13:10:31Z</time>
      </trkpt>
      <trkpt lat="47.72816" lon="3.57497">
        <ele>227.1</ele>
        <time>2022-04-03T13:10:32Z</time>
      </trkpt>
      <trkpt lat="47.72816" lon="3.57496">
        <ele>227.1</ele>
        <time>2022-04-03T13:10:33Z</time>
      </trkpt>
      <trkpt lat="47.72816" lon="3.57495">
        <ele>227.2</ele>
        <time>2022-04-03T13:10:34Z</time>
      </trkpt>
      <trkpt lat="47.72815" lon="3.57492">
        <ele>227.2</ele>
        <time>2022-04-03T13:10:36Z</time>
      </trkpt>
      <trkpt lat="47.72814" lon="3.57491">
        <ele>227.3</ele>
        <time>2022-04-03T13:10:37Z</time>
      </trkpt>
      <trkpt lat="47.72814" lon="3.57491">
        <ele>227.3</ele>
        <time>2022-04-03T13:10:38Z</time>
      </trkpt>
      <trkpt lat="47.72813" lon="3.5749">
        <ele>227.3</ele>
        <time>2022-04-03T13:10:39Z</time>
      </trkpt>
      <trkpt lat="47.72812" lon="3.57488">
        <ele>227.4</ele>
        <time>2022-04-03T13:10:41Z</time>
      </trkpt>
      <trkpt lat="47.72811" lon="3.57487">
        <ele>227.4</ele>
        <time>2022-04-03T13:10:42Z</time>
      </trkpt>
      <trkpt lat="47.72811" lon="3.57486">
        <ele>227.5</ele>
        <time>2022-04-03T13:10:43Z</time>
      </trkpt>
      <trkpt lat="47.72809" lon="3.57484">
        <ele>227.5</ele>
        <time>2022-04-03T13:10:45Z</time>
      </trkpt>
      <trkpt lat="47.72808" lon="3.57482">
        <ele>227.6</ele>
        <time>2022-04-03T13:10:47Z</time>
      </trkpt>
      <trkpt lat="47.72808" lon="3.57482">
        <ele>227.6</ele>
        <time>2022-04-03T13:10:48Z</time>
      </trkpt>
      <trkpt lat="47.72807" lon="3.57481">
        <ele>227.6</ele>
        <time>2022-04-03T13:10:49Z</time>
      </trkpt>
      <trkpt lat="47.72807" lon="3.57479">
        <ele>227.7</ele>
        <time>2022-04-03T13:10:50Z</time>
      </trkpt>
      <trkpt lat="47.72807" lon="3.57478">
        <ele>227.7</ele>
        <time>2022-04-03T13:10:51Z</time>
      </trkpt>
      <trkpt lat="47.72807" lon="3.57478">
        <ele>227.7</ele>
        <time>2022-04-03T13:10:52Z</time>
      </trkpt>
      <trkpt lat="47.72808" lon="3.57478">
        <ele>227.7</ele>
        <time>2022-04-03T13:10:53Z</time>
      </trkpt>
      <trkpt lat="47.72808" lon="3.57477">
        <ele>227.7</ele>
        <time>2022-04-03T13:10:54Z</time>
      </trkpt>
      <trkpt lat="47.72808" lon="3.57477">
        <ele>227.7</ele>
        <time>2022-04-03T13:10:55Z</time>
      </trkpt>
      <trkpt lat="47.72808" lon="3.57477">
        <ele>227.7</ele>
        <time>2022-04-03T13:10:56Z</time>
      </trkpt>
      <trkpt lat="47.72808" lon="3.57478">
        <ele>227.7</ele>
        <time>2022-04-03T13:10:58Z</time>
      </trkpt>
      <trkpt lat="47.72807" lon="3.57477">
        <ele>227.8</ele>
        <time>2022-04-03T13:10:59Z</time>
      </trkpt>
      <trkpt lat="47.72807" lon="3.57477">
        <ele>227.8</ele>
        <time>2022-04-03T13:11:00Z</time>
      </trkpt>
      <trkpt lat="47.72805" lon="3.57475">
        <ele>227.9</ele>
        <time>2022-04-03T13:11:02Z</time>
      </trkpt>
      <trkpt lat="47.72804" lon="3.57474">
        <ele>227.9</ele>
        <time>2022-04-03T13:11:03Z</time>
      </trkpt>
      <trkpt lat="47.72804" lon="3.57473">
        <ele>227.9</ele>
        <time>2022-04-03T13:11:04Z</time>
      </trkpt>
      <trkpt lat="47.72803" lon="3.57472">
        <ele>228</ele>
        <time>2022-04-03T13:11:05Z</time>
      </trkpt>
      <trkpt lat="47.72803" lon="3.5747">
        <ele>228</ele>
        <time>2022-04-03T13:11:06Z</time>
      </trkpt>
      <trkpt lat="47.72801" lon="3.57468">
        <ele>228.1</ele>
        <time>2022-04-03T13:11:08Z</time>
      </trkpt>
      <trkpt lat="47.72801" lon="3.57467">
        <ele>228.1</ele>
        <time>2022-04-03T13:11:09Z</time>
      </trkpt>
      <trkpt lat="47.728" lon="3.57466">
        <ele>228.1</ele>
        <time>2022-04-03T13:11:10Z</time>
      </trkpt>
      <trkpt lat="47.72799" lon="3.57464">
        <ele>228.2</ele>
        <time>2022-04-03T13:11:11Z</time>
      </trkpt>
      <trkpt lat="47.72798" lon="3.57465">
        <ele>228.2</ele>
        <time>2022-04-03T13:11:12Z</time>
      </trkpt>
      <trkpt lat="47.72798" lon="3.57465">
        <ele>228.2</ele>
        <time>2022-04-03T13:11:13Z</time>
      </trkpt>
      <trkpt lat="47.72797" lon="3.57464">
        <ele>228.3</ele>
        <time>2022-04-03T13:11:14Z</time>
      </trkpt>
      <trkpt lat="47.72796" lon="3.57462">
        <ele>228.3</ele>
        <time>2022-04-03T13:11:16Z</time>
      </trkpt>
      <trkpt lat="47.72796" lon="3.5746">
        <ele>228.4</ele>
        <time>2022-04-03T13:11:17Z</time>
      </trkpt>
      <trkpt lat="47.72795" lon="3.57456">
        <ele>228.4</ele>
        <time>2022-04-03T13:11:19Z</time>
      </trkpt>
      <trkpt lat="47.72795" lon="3.57455">
        <ele>228.5</ele>
        <time>2022-04-03T13:11:20Z</time>
      </trkpt>
      <trkpt lat="47.72795" lon="3.57451">
        <ele>228.5</ele>
        <time>2022-04-03T13:11:21Z</time>
      </trkpt>
      <trkpt lat="47.72795" lon="3.5745">
        <ele>228.6</ele>
        <time>2022-04-03T13:11:22Z</time>
      </trkpt>
      <trkpt lat="47.72794" lon="3.57448">
        <ele>228.6</ele>
        <time>2022-04-03T13:11:24Z</time>
      </trkpt>
      <trkpt lat="47.72793" lon="3.57446">
        <ele>228.7</ele>
        <time>2022-04-03T13:11:25Z</time>
      </trkpt>
      <trkpt lat="47.72792" lon="3.57444">
        <ele>228.7</ele>
        <time>2022-04-03T13:11:26Z</time>
      </trkpt>
      <trkpt lat="47.72792" lon="3.57444">
        <ele>228.7</ele>
        <time>2022-04-03T13:11:27Z</time>
      </trkpt>
      <trkpt lat="47.72791" lon="3.57443">
        <ele>228.8</ele>
        <time>2022-04-03T13:11:28Z</time>
      </trkpt>
      <trkpt lat="47.72791" lon="3.57441">
        <ele>228.8</ele>
        <time>2022-04-03T13:11:29Z</time>
      </trkpt>
      <trkpt lat="47.7279" lon="3.57441">
        <ele>228.8</ele>
        <time>2022-04-03T13:11:30Z</time>
      </trkpt>
      <trkpt lat="47.72789" lon="3.5744">
        <ele>228.8</ele>
        <time>2022-04-03T13:11:31Z</time>
      </trkpt>
      <trkpt lat="47.72789" lon="3.57439">
        <ele>228.9</ele>
        <time>2022-04-03T13:11:32Z</time>
      </trkpt>
      <trkpt lat="47.72789" lon="3.57438">
        <ele>228.9</ele>
        <time>2022-04-03T13:11:33Z</time>
      </trkpt>
      <trkpt lat="47.72788" lon="3.57436">
        <ele>228.9</ele>
        <time>2022-04-03T13:11:35Z</time>
      </trkpt>
      <trkpt lat="47.72788" lon="3.57434">
        <ele>229</ele>
        <time>2022-04-03T13:11:36Z</time>
      </trkpt>
      <trkpt lat="47.72787" lon="3.57431">
        <ele>229</ele>
        <time>2022-04-03T13:11:37Z</time>
      </trkpt>
      <trkpt lat="47.72787" lon="3.5743">
        <ele>229.1</ele>
        <time>2022-04-03T13:11:38Z</time>
      </trkpt>
      <trkpt lat="47.72787" lon="3.57429">
        <ele>229.1</ele>
        <time>2022-04-03T13:11:39Z</time>
      </trkpt>
      <trkpt lat="47.72786" lon="3.57428">
        <ele>229.1</ele>
        <time>2022-04-03T13:11:40Z</time>
      </trkpt>
      <trkpt lat="47.72786" lon="3.57426">
        <ele>229.2</ele>
        <time>2022-04-03T13:11:41Z</time>
      </trkpt>
      <trkpt lat="47.72785" lon="3.57425">
        <ele>229.2</ele>
        <time>2022-04-03T13:11:42Z</time>
      </trkpt>
      <trkpt lat="47.72784" lon="3.57424">
        <ele>229.2</ele>
        <time>2022-04-03T13:11:44Z</time>
      </trkpt>
      <trkpt lat="47.72784" lon="3.57422">
        <ele>229.3</ele>
        <time>2022-04-03T13:11:45Z</time>
      </trkpt>
      <trkpt lat="47.72783" lon="3.5742">
        <ele>229.3</ele>
        <time>2022-04-03T13:11:46Z</time>
      </trkpt>
      <trkpt lat="47.72782" lon="3.57417">
        <ele>229.4</ele>
        <time>2022-04-03T13:11:48Z</time>
      </trkpt>
      <trkpt lat="47.72781" lon="3.57416">
        <ele>229.4</ele>
        <time>2022-04-03T13:11:49Z</time>
      </trkpt>
      <trkpt lat="47.72781" lon="3.57415">
        <ele>229.4</ele>
        <time>2022-04-03T13:11:50Z</time>
      </trkpt>
      <trkpt lat="47.7278" lon="3.57414">
        <ele>229.5</ele>
        <time>2022-04-03T13:11:51Z</time>
      </trkpt>
      <trkpt lat="47.72779" lon="3.57412">
        <ele>229.5</ele>
        <time>2022-04-03T13:11:52Z</time>
      </trkpt>
      <trkpt lat="47.72779" lon="3.57411">
        <ele>229.5</ele>
        <time>2022-04-03T13:11:53Z</time>
      </trkpt>
      <trkpt lat="47.72778" lon="3.57408">
        <ele>229.6</ele>
        <time>2022-04-03T13:11:55Z</time>
      </trkpt>
      <trkpt lat="47.72778" lon="3.57407">
        <ele>229.6</ele>
        <time>2022-04-03T13:11:56Z</time>
      </trkpt>
      <trkpt lat="47.72778" lon="3.57405">
        <ele>229.6</ele>
        <time>2022-04-03T13:11:57Z</time>
      </trkpt>
      <trkpt lat="47.72777" lon="3.57404">
        <ele>229.7</ele>
        <time>2022-04-03T13:11:58Z</time>
      </trkpt>
      <trkpt lat="47.72777" lon="3.57404">
        <ele>229.7</ele>
        <time>2022-04-03T13:11:59Z</time>
      </trkpt>
      <trkpt lat="47.72777" lon="3.57404">
        <ele>229.7</ele>
        <time>2022-04-03T13:12:01Z</time>
      </trkpt>
      <trkpt lat="47.72776" lon="3.57403">
        <ele>229.7</ele>
        <time>2022-04-03T13:12:02Z</time>
      </trkpt>
      <trkpt lat="47.72776" lon="3.57403">
        <ele>229.7</ele>
        <time>2022-04-03T13:12:03Z</time>
      </trkpt>
      <trkpt lat="47.72776" lon="3.57403">
        <ele>229.7</ele>
        <time>2022-04-03T13:12:04Z</time>
      </trkpt>
      <trkpt lat="47.72776" lon="3.57402">
        <ele>229.7</ele>
        <time>2022-04-03T13:12:05Z</time>
      </trkpt>
      <trkpt lat="47.72776" lon="3.57402">
        <ele>229.7</ele>
        <time>2022-04-03T13:12:06Z</time>
      </trkpt>
      <trkpt lat="47.72775" lon="3.57402">
        <ele>229.8</ele>
        <time>2022-04-03T13:12:07Z</time>
      </trkpt>
      <trkpt lat="47.72775" lon="3.57401">
        <ele>229.8</ele>
        <time>2022-04-03T13:12:08Z</time>
      </trkpt>
      <trkpt lat="47.72775" lon="3.57401">
        <ele>229.8</ele>
        <time>2022-04-03T13:12:09Z</time>
      </trkpt>
      <trkpt lat="47.72775" lon="3.57401">
        <ele>229.8</ele>
        <time>2022-04-03T13:12:10Z</time>
      </trkpt>
      <trkpt lat="47.72774" lon="3.574">
        <ele>229.8</ele>
        <time>2022-04-03T13:12:12Z</time>
      </trkpt>
      <trkpt lat="47.72774" lon="3.574">
        <ele>229.8</ele>
        <time>2022-04-03T13:12:13Z</time>
      </trkpt>
      <trkpt lat="47.72774" lon="3.574">
        <ele>229.8</ele>
        <time>2022-04-03T13:12:14Z</time>
      </trkpt>
      <trkpt lat="47.72774" lon="3.57399">
        <ele>229.8</ele>
        <time>2022-04-03T13:12:15Z</time>
      </trkpt>
      <trkpt lat="47.72773" lon="3.57399">
        <ele>229.8</ele>
        <time>2022-04-03T13:12:16Z</time>
      </trkpt>
      <trkpt lat="47.72773" lon="3.57399">
        <ele>229.9</ele>
        <time>2022-04-03T13:12:17Z</time>
      </trkpt>
      <trkpt lat="47.72773" lon="3.57398">
        <ele>229.9</ele>
        <time>2022-04-03T13:12:18Z</time>
      </trkpt>
      <trkpt lat="47.72771" lon="3.57392">
        <ele>230</ele>
        <time>2022-04-03T13:12:20Z</time>
      </trkpt>
      <trkpt lat="47.72771" lon="3.5739">
        <ele>230</ele>
        <time>2022-04-03T13:12:21Z</time>
      </trkpt>
      <trkpt lat="47.7277" lon="3.57388">
        <ele>230.1</ele>
        <time>2022-04-03T13:12:22Z</time>
      </trkpt>
      <trkpt lat="47.72769" lon="3.57387">
        <ele>230.1</ele>
        <time>2022-04-03T13:12:23Z</time>
      </trkpt>
      <trkpt lat="47.72769" lon="3.57385">
        <ele>230.2</ele>
        <time>2022-04-03T13:12:24Z</time>
      </trkpt>
      <trkpt lat="47.72769" lon="3.57384">
        <ele>230.2</ele>
        <time>2022-04-03T13:12:26Z</time>
      </trkpt>
      <trkpt lat="47.72769" lon="3.57382">
        <ele>230.2</ele>
        <time>2022-04-03T13:12:27Z</time>
      </trkpt>
      <trkpt lat="47.72769" lon="3.5738">
        <ele>230.3</ele>
        <time>2022-04-03T13:12:28Z</time>
      </trkpt>
      <trkpt lat="47.72769" lon="3.57379">
        <ele>230.3</ele>
        <time>2022-04-03T13:12:29Z</time>
      </trkpt>
      <trkpt lat="47.72769" lon="3.57377">
        <ele>230.4</ele>
        <time>2022-04-03T13:12:30Z</time>
      </trkpt>
      <trkpt lat="47.72768" lon="3.57375">
        <ele>230.4</ele>
        <time>2022-04-03T13:12:31Z</time>
      </trkpt>
      <trkpt lat="47.72767" lon="3.57372">
        <ele>230.5</ele>
        <time>2022-04-03T13:12:33Z</time>
      </trkpt>
      <trkpt lat="47.72766" lon="3.5737">
        <ele>230.5</ele>
        <time>2022-04-03T13:12:34Z</time>
      </trkpt>
      <trkpt lat="47.72765" lon="3.57368">
        <ele>230.6</ele>
        <time>2022-04-03T13:12:35Z</time>
      </trkpt>
      <trkpt lat="47.72764" lon="3.57366">
        <ele>230.6</ele>
        <time>2022-04-03T13:12:36Z</time>
      </trkpt>
      <trkpt lat="47.72763" lon="3.57364">
        <ele>230.7</ele>
        <time>2022-04-03T13:12:37Z</time>
      </trkpt>
      <trkpt lat="47.72762" lon="3.57363">
        <ele>230.7</ele>
        <time>2022-04-03T13:12:38Z</time>
      </trkpt>
      <trkpt lat="47.72761" lon="3.57362">
        <ele>230.8</ele>
        <time>2022-04-03T13:12:39Z</time>
      </trkpt>
      <trkpt lat="47.7276" lon="3.5736">
        <ele>230.8</ele>
        <time>2022-04-03T13:12:40Z</time>
      </trkpt>
      <trkpt lat="47.72759" lon="3.57359">
        <ele>230.9</ele>
        <time>2022-04-03T13:12:41Z</time>
      </trkpt>
      <trkpt lat="47.72758" lon="3.57356">
        <ele>230.9</ele>
        <time>2022-04-03T13:12:43Z</time>
      </trkpt>
      <trkpt lat="47.72757" lon="3.57355">
        <ele>230.9</ele>
        <time>2022-04-03T13:12:44Z</time>
      </trkpt>
      <trkpt lat="47.72756" lon="3.57352">
        <ele>231</ele>
        <time>2022-04-03T13:12:45Z</time>
      </trkpt>
      <trkpt lat="47.72754" lon="3.57351">
        <ele>231</ele>
        <time>2022-04-03T13:12:47Z</time>
      </trkpt>
      <trkpt lat="47.72753" lon="3.57349">
        <ele>231.1</ele>
        <time>2022-04-03T13:12:48Z</time>
      </trkpt>
      <trkpt lat="47.72753" lon="3.57347">
        <ele>231.1</ele>
        <time>2022-04-03T13:12:49Z</time>
      </trkpt>
      <trkpt lat="47.72752" lon="3.57345">
        <ele>231.2</ele>
        <time>2022-04-03T13:12:50Z</time>
      </trkpt>
      <trkpt lat="47.72752" lon="3.57343">
        <ele>231.2</ele>
        <time>2022-04-03T13:12:51Z</time>
      </trkpt>
      <trkpt lat="47.72752" lon="3.5734">
        <ele>231.3</ele>
        <time>2022-04-03T13:12:52Z</time>
      </trkpt>
      <trkpt lat="47.72751" lon="3.57339">
        <ele>231.3</ele>
        <time>2022-04-03T13:12:54Z</time>
      </trkpt>
      <trkpt lat="47.7275" lon="3.57337">
        <ele>231.4</ele>
        <time>2022-04-03T13:12:55Z</time>
      </trkpt>
      <trkpt lat="47.72748" lon="3.57335">
        <ele>231.4</ele>
        <time>2022-04-03T13:12:57Z</time>
      </trkpt>
      <trkpt lat="47.72748" lon="3.57334">
        <ele>231.4</ele>
        <time>2022-04-03T13:12:58Z</time>
      </trkpt>
      <trkpt lat="47.72747" lon="3.57333">
        <ele>231.5</ele>
        <time>2022-04-03T13:12:59Z</time>
      </trkpt>
      <trkpt lat="47.72746" lon="3.57332">
        <ele>231.5</ele>
        <time>2022-04-03T13:13:00Z</time>
      </trkpt>
      <trkpt lat="47.72745" lon="3.5733">
        <ele>231.5</ele>
        <time>2022-04-03T13:13:01Z</time>
      </trkpt>
      <trkpt lat="47.72745" lon="3.57329">
        <ele>231.6</ele>
        <time>2022-04-03T13:13:02Z</time>
      </trkpt>
      <trkpt lat="47.72744" lon="3.57327">
        <ele>231.6</ele>
        <time>2022-04-03T13:13:03Z</time>
      </trkpt>
      <trkpt lat="47.72744" lon="3.57325">
        <ele>231.6</ele>
        <time>2022-04-03T13:13:04Z</time>
      </trkpt>
      <trkpt lat="47.72744" lon="3.57323">
        <ele>231.7</ele>
        <time>2022-04-03T13:13:05Z</time>
      </trkpt>
      <trkpt lat="47.72743" lon="3.57321">
        <ele>231.7</ele>
        <time>2022-04-03T13:13:07Z</time>
      </trkpt>
      <trkpt lat="47.72743" lon="3.57317">
        <ele>231.8</ele>
        <time>2022-04-03T13:13:08Z</time>
      </trkpt>
      <trkpt lat="47.72743" lon="3.57316">
        <ele>231.8</ele>
        <time>2022-04-03T13:13:09Z</time>
      </trkpt>
      <trkpt lat="47.72743" lon="3.57314">
        <ele>231.9</ele>
        <time>2022-04-03T13:13:11Z</time>
      </trkpt>
      <trkpt lat="47.72743" lon="3.57312">
        <ele>231.9</ele>
        <time>2022-04-03T13:13:12Z</time>
      </trkpt>
      <trkpt lat="47.72742" lon="3.57309">
        <ele>232</ele>
        <time>2022-04-03T13:13:13Z</time>
      </trkpt>
      <trkpt lat="47.72742" lon="3.57307">
        <ele>232</ele>
        <time>2022-04-03T13:13:14Z</time>
      </trkpt>
      <trkpt lat="47.72741" lon="3.57305">
        <ele>232.1</ele>
        <time>2022-04-03T13:13:15Z</time>
      </trkpt>
      <trkpt lat="47.72741" lon="3.57303">
        <ele>232.1</ele>
        <time>2022-04-03T13:13:16Z</time>
      </trkpt>
      <trkpt lat="47.7274" lon="3.573">
        <ele>232.2</ele>
        <time>2022-04-03T13:13:18Z</time>
      </trkpt>
      <trkpt lat="47.72739" lon="3.57299">
        <ele>232.2</ele>
        <time>2022-04-03T13:13:19Z</time>
      </trkpt>
      <trkpt lat="47.72739" lon="3.57297">
        <ele>232.2</ele>
        <time>2022-04-03T13:13:20Z</time>
      </trkpt>
      <trkpt lat="47.72739" lon="3.57296">
        <ele>232.3</ele>
        <time>2022-04-03T13:13:21Z</time>
      </trkpt>
      <trkpt lat="47.72738" lon="3.57295">
        <ele>232.3</ele>
        <time>2022-04-03T13:13:22Z</time>
      </trkpt>
      <trkpt lat="47.72738" lon="3.57293">
        <ele>232.3</ele>
        <time>2022-04-03T13:13:23Z</time>
      </trkpt>
      <trkpt lat="47.72738" lon="3.5729">
        <ele>232.4</ele>
        <time>2022-04-03T13:13:24Z</time>
      </trkpt>
      <trkpt lat="47.72737" lon="3.57288">
        <ele>232.4</ele>
        <time>2022-04-03T13:13:26Z</time>
      </trkpt>
      <trkpt lat="47.72737" lon="3.57287">
        <ele>232.5</ele>
        <time>2022-04-03T13:13:27Z</time>
      </trkpt>
      <trkpt lat="47.72736" lon="3.57284">
        <ele>232.5</ele>
        <time>2022-04-03T13:13:28Z</time>
      </trkpt>
      <trkpt lat="47.72736" lon="3.57283">
        <ele>232.6</ele>
        <time>2022-04-03T13:13:29Z</time>
      </trkpt>
      <trkpt lat="47.72736" lon="3.57281">
        <ele>232.6</ele>
        <time>2022-04-03T13:13:30Z</time>
      </trkpt>
      <trkpt lat="47.72735" lon="3.57279">
        <ele>232.6</ele>
        <time>2022-04-03T13:13:31Z</time>
      </trkpt>
      <trkpt lat="47.72734" lon="3.57276">
        <ele>232.7</ele>
        <time>2022-04-03T13:13:33Z</time>
      </trkpt>
      <trkpt lat="47.72734" lon="3.57274">
        <ele>232.8</ele>
        <time>2022-04-03T13:13:34Z</time>
      </trkpt>
      <trkpt lat="47.72733" lon="3.57272">
        <ele>232.8</ele>
        <time>2022-04-03T13:13:35Z</time>
      </trkpt>
      <trkpt lat="47.72733" lon="3.57271">
        <ele>232.8</ele>
        <time>2022-04-03T13:13:36Z</time>
      </trkpt>
      <trkpt lat="47.72733" lon="3.57269">
        <ele>232.9</ele>
        <time>2022-04-03T13:13:37Z</time>
      </trkpt>
      <trkpt lat="47.72732" lon="3.57266">
        <ele>232.9</ele>
        <time>2022-04-03T13:13:38Z</time>
      </trkpt>
      <trkpt lat="47.72732" lon="3.57263">
        <ele>233</ele>
        <time>2022-04-03T13:13:39Z</time>
      </trkpt>
      <trkpt lat="47.72732" lon="3.57262">
        <ele>233</ele>
        <time>2022-04-03T13:13:41Z</time>
      </trkpt>
      <trkpt lat="47.72731" lon="3.57261">
        <ele>233</ele>
        <time>2022-04-03T13:13:42Z</time>
      </trkpt>
      <trkpt lat="47.7273" lon="3.57258">
        <ele>233.1</ele>
        <time>2022-04-03T13:13:43Z</time>
      </trkpt>
      <trkpt lat="47.7273" lon="3.57257">
        <ele>233.2</ele>
        <time>2022-04-03T13:13:44Z</time>
      </trkpt>
      <trkpt lat="47.72729" lon="3.57254">
        <ele>233.2</ele>
        <time>2022-04-03T13:13:45Z</time>
      </trkpt>
      <trkpt lat="47.72729" lon="3.57252">
        <ele>233.3</ele>
        <time>2022-04-03T13:13:46Z</time>
      </trkpt>
      <trkpt lat="47.72728" lon="3.57251">
        <ele>233.3</ele>
        <time>2022-04-03T13:13:47Z</time>
      </trkpt>
      <trkpt lat="47.72728" lon="3.57249">
        <ele>233.3</ele>
        <time>2022-04-03T13:13:48Z</time>
      </trkpt>
      <trkpt lat="47.72728" lon="3.57247">
        <ele>233.4</ele>
        <time>2022-04-03T13:13:49Z</time>
      </trkpt>
      <trkpt lat="47.72728" lon="3.57243">
        <ele>233.5</ele>
        <time>2022-04-03T13:13:50Z</time>
      </trkpt>
      <trkpt lat="47.72728" lon="3.57241">
        <ele>233.5</ele>
        <time>2022-04-03T13:13:52Z</time>
      </trkpt>
      <trkpt lat="47.72728" lon="3.57239">
        <ele>233.6</ele>
        <time>2022-04-03T13:13:53Z</time>
      </trkpt>
      <trkpt lat="47.72728" lon="3.57238">
        <ele>233.6</ele>
        <time>2022-04-03T13:13:54Z</time>
      </trkpt>
      <trkpt lat="47.72729" lon="3.57236">
        <ele>233.6</ele>
        <time>2022-04-03T13:13:55Z</time>
      </trkpt>
      <trkpt lat="47.72729" lon="3.57234">
        <ele>233.7</ele>
        <time>2022-04-03T13:13:56Z</time>
      </trkpt>
      <trkpt lat="47.72729" lon="3.57233">
        <ele>233.7</ele>
        <time>2022-04-03T13:13:57Z</time>
      </trkpt>
      <trkpt lat="47.72729" lon="3.5723">
        <ele>233.8</ele>
        <time>2022-04-03T13:13:58Z</time>
      </trkpt>
      <trkpt lat="47.7273" lon="3.57227">
        <ele>233.8</ele>
        <time>2022-04-03T13:14:00Z</time>
      </trkpt>
      <trkpt lat="47.7273" lon="3.57226">
        <ele>233.9</ele>
        <time>2022-04-03T13:14:01Z</time>
      </trkpt>
      <trkpt lat="47.7273" lon="3.57225">
        <ele>233.9</ele>
        <time>2022-04-03T13:14:02Z</time>
      </trkpt>
      <trkpt lat="47.7273" lon="3.57221">
        <ele>234</ele>
        <time>2022-04-03T13:14:03Z</time>
      </trkpt>
      <trkpt lat="47.7273" lon="3.5722">
        <ele>234</ele>
        <time>2022-04-03T13:14:04Z</time>
      </trkpt>
      <trkpt lat="47.7273" lon="3.57219">
        <ele>234</ele>
        <time>2022-04-03T13:14:05Z</time>
      </trkpt>
      <trkpt lat="47.7273" lon="3.57217">
        <ele>234.1</ele>
        <time>2022-04-03T13:14:06Z</time>
      </trkpt>
      <trkpt lat="47.72731" lon="3.57214">
        <ele>234.1</ele>
        <time>2022-04-03T13:14:08Z</time>
      </trkpt>
      <trkpt lat="47.72731" lon="3.57213">
        <ele>234.2</ele>
        <time>2022-04-03T13:14:09Z</time>
      </trkpt>
      <trkpt lat="47.72731" lon="3.57211">
        <ele>234.2</ele>
        <time>2022-04-03T13:14:10Z</time>
      </trkpt>
      <trkpt lat="47.72732" lon="3.5721">
        <ele>234.2</ele>
        <time>2022-04-03T13:14:11Z</time>
      </trkpt>
      <trkpt lat="47.72732" lon="3.57208">
        <ele>234.3</ele>
        <time>2022-04-03T13:14:12Z</time>
      </trkpt>
      <trkpt lat="47.72733" lon="3.57206">
        <ele>234.3</ele>
        <time>2022-04-03T13:14:13Z</time>
      </trkpt>
      <trkpt lat="47.72733" lon="3.57206">
        <ele>234.3</ele>
        <time>2022-04-03T13:14:14Z</time>
      </trkpt>
      <trkpt lat="47.72733" lon="3.57207">
        <ele>234.4</ele>
        <time>2022-04-03T13:14:15Z</time>
      </trkpt>
      <trkpt lat="47.72734" lon="3.57208">
        <ele>234.4</ele>
        <time>2022-04-03T13:14:16Z</time>
      </trkpt>
      <trkpt lat="47.72734" lon="3.57208">
        <ele>234.4</ele>
        <time>2022-04-03T13:14:17Z</time>
      </trkpt>
      <trkpt lat="47.72734" lon="3.57207">
        <ele>234.4</ele>
        <time>2022-04-03T13:14:18Z</time>
      </trkpt>
      <trkpt lat="47.72734" lon="3.57206">
        <ele>234.4</ele>
        <time>2022-04-03T13:14:19Z</time>
      </trkpt>
      <trkpt lat="47.72734" lon="3.57204">
        <ele>234.5</ele>
        <time>2022-04-03T13:14:20Z</time>
      </trkpt>
      <trkpt lat="47.72733" lon="3.57203">
        <ele>234.5</ele>
        <time>2022-04-03T13:14:22Z</time>
      </trkpt>
      <trkpt lat="47.72733" lon="3.57202">
        <ele>234.5</ele>
        <time>2022-04-03T13:14:23Z</time>
      </trkpt>
      <trkpt lat="47.72733" lon="3.57201">
        <ele>234.5</ele>
        <time>2022-04-03T13:14:24Z</time>
      </trkpt>
      <trkpt lat="47.72732" lon="3.572">
        <ele>234.6</ele>
        <time>2022-04-03T13:14:25Z</time>
      </trkpt>
      <trkpt lat="47.72731" lon="3.57198">
        <ele>234.6</ele>
        <time>2022-04-03T13:14:27Z</time>
      </trkpt>
      <trkpt lat="47.7273" lon="3.57197">
        <ele>234.7</ele>
        <time>2022-04-03T13:14:28Z</time>
      </trkpt>
      <trkpt lat="47.72729" lon="3.57196">
        <ele>234.7</ele>
        <time>2022-04-03T13:14:30Z</time>
      </trkpt>
      <trkpt lat="47.72729" lon="3.57195">
        <ele>234.7</ele>
        <time>2022-04-03T13:14:31Z</time>
      </trkpt>
      <trkpt lat="47.72728" lon="3.57193">
        <ele>234.8</ele>
        <time>2022-04-03T13:14:32Z</time>
      </trkpt>
      <trkpt lat="47.72728" lon="3.57191">
        <ele>234.8</ele>
        <time>2022-04-03T13:14:34Z</time>
      </trkpt>
      <trkpt lat="47.72728" lon="3.57189">
        <ele>234.9</ele>
        <time>2022-04-03T13:14:35Z</time>
      </trkpt>
      <trkpt lat="47.72728" lon="3.57188">
        <ele>234.9</ele>
        <time>2022-04-03T13:14:37Z</time>
      </trkpt>
      <trkpt lat="47.72729" lon="3.57186">
        <ele>234.9</ele>
        <time>2022-04-03T13:14:38Z</time>
      </trkpt>
      <trkpt lat="47.72729" lon="3.57184">
        <ele>235</ele>
        <time>2022-04-03T13:14:39Z</time>
      </trkpt>
      <trkpt lat="47.72729" lon="3.57182">
        <ele>235</ele>
        <time>2022-04-03T13:14:40Z</time>
      </trkpt>
      <trkpt lat="47.72729" lon="3.5718">
        <ele>235</ele>
        <time>2022-04-03T13:14:41Z</time>
      </trkpt>
      <trkpt lat="47.72729" lon="3.57178">
        <ele>235.1</ele>
        <time>2022-04-03T13:14:43Z</time>
      </trkpt>
      <trkpt lat="47.72728" lon="3.57175">
        <ele>235.1</ele>
        <time>2022-04-03T13:14:44Z</time>
      </trkpt>
      <trkpt lat="47.72728" lon="3.57172">
        <ele>235.2</ele>
        <time>2022-04-03T13:14:45Z</time>
      </trkpt>
      <trkpt lat="47.72728" lon="3.57171">
        <ele>235.2</ele>
        <time>2022-04-03T13:14:46Z</time>
      </trkpt>
      <trkpt lat="47.72728" lon="3.5717">
        <ele>235.3</ele>
        <time>2022-04-03T13:14:47Z</time>
      </trkpt>
      <trkpt lat="47.72728" lon="3.57167">
        <ele>235.3</ele>
        <time>2022-04-03T13:14:48Z</time>
      </trkpt>
      <trkpt lat="47.72727" lon="3.57166">
        <ele>235.4</ele>
        <time>2022-04-03T13:14:49Z</time>
      </trkpt>
      <trkpt lat="47.72727" lon="3.57163">
        <ele>235.4</ele>
        <time>2022-04-03T13:14:51Z</time>
      </trkpt>
      <trkpt lat="47.72727" lon="3.57161">
        <ele>235.5</ele>
        <time>2022-04-03T13:14:52Z</time>
      </trkpt>
      <trkpt lat="47.72726" lon="3.5716">
        <ele>235.5</ele>
        <time>2022-04-03T13:14:53Z</time>
      </trkpt>
      <trkpt lat="47.72726" lon="3.57159">
        <ele>235.5</ele>
        <time>2022-04-03T13:14:54Z</time>
      </trkpt>
      <trkpt lat="47.72726" lon="3.57157">
        <ele>235.6</ele>
        <time>2022-04-03T13:14:55Z</time>
      </trkpt>
      <trkpt lat="47.72725" lon="3.57155">
        <ele>235.6</ele>
        <time>2022-04-03T13:14:56Z</time>
      </trkpt>
      <trkpt lat="47.72725" lon="3.57153">
        <ele>235.7</ele>
        <time>2022-04-03T13:14:57Z</time>
      </trkpt>
      <trkpt lat="47.72725" lon="3.57152">
        <ele>235.7</ele>
        <time>2022-04-03T13:14:58Z</time>
      </trkpt>
      <trkpt lat="47.72725" lon="3.57151">
        <ele>235.7</ele>
        <time>2022-04-03T13:15:00Z</time>
      </trkpt>
      <trkpt lat="47.72725" lon="3.5715">
        <ele>235.8</ele>
        <time>2022-04-03T13:15:01Z</time>
      </trkpt>
      <trkpt lat="47.72724" lon="3.57148">
        <ele>235.8</ele>
        <time>2022-04-03T13:15:02Z</time>
      </trkpt>
      <trkpt lat="47.72724" lon="3.57145">
        <ele>235.9</ele>
        <time>2022-04-03T13:15:03Z</time>
      </trkpt>
      <trkpt lat="47.72724" lon="3.57142">
        <ele>235.9</ele>
        <time>2022-04-03T13:15:04Z</time>
      </trkpt>
      <trkpt lat="47.72724" lon="3.5714">
        <ele>236</ele>
        <time>2022-04-03T13:15:05Z</time>
      </trkpt>
      <trkpt lat="47.72723" lon="3.57139">
        <ele>236</ele>
        <time>2022-04-03T13:15:06Z</time>
      </trkpt>
      <trkpt lat="47.72723" lon="3.57137">
        <ele>236.1</ele>
        <time>2022-04-03T13:15:07Z</time>
      </trkpt>
      <trkpt lat="47.72722" lon="3.57135">
        <ele>236.1</ele>
        <time>2022-04-03T13:15:09Z</time>
      </trkpt>
      <trkpt lat="47.72722" lon="3.57133">
        <ele>236.2</ele>
        <time>2022-04-03T13:15:10Z</time>
      </trkpt>
      <trkpt lat="47.72721" lon="3.57131">
        <ele>236.2</ele>
        <time>2022-04-03T13:15:11Z</time>
      </trkpt>
      <trkpt lat="47.72721" lon="3.57129">
        <ele>236.3</ele>
        <time>2022-04-03T13:15:12Z</time>
      </trkpt>
      <trkpt lat="47.7272" lon="3.57126">
        <ele>236.3</ele>
        <time>2022-04-03T13:15:13Z</time>
      </trkpt>
      <trkpt lat="47.72719" lon="3.57123">
        <ele>236.4</ele>
        <time>2022-04-03T13:15:14Z</time>
      </trkpt>
      <trkpt lat="47.72719" lon="3.57122">
        <ele>236.4</ele>
        <time>2022-04-03T13:15:16Z</time>
      </trkpt>
      <trkpt lat="47.72719" lon="3.57121">
        <ele>236.4</ele>
        <time>2022-04-03T13:15:17Z</time>
      </trkpt>
      <trkpt lat="47.72719" lon="3.57119">
        <ele>236.5</ele>
        <time>2022-04-03T13:15:18Z</time>
      </trkpt>
      <trkpt lat="47.72719" lon="3.57117">
        <ele>236.5</ele>
        <time>2022-04-03T13:15:19Z</time>
      </trkpt>
      <trkpt lat="47.72721" lon="3.57115">
        <ele>236.6</ele>
        <time>2022-04-03T13:15:20Z</time>
      </trkpt>
      <trkpt lat="47.72722" lon="3.57115">
        <ele>236.6</ele>
        <time>2022-04-03T13:15:21Z</time>
      </trkpt>
      <trkpt lat="47.72723" lon="3.57113">
        <ele>236.6</ele>
        <time>2022-04-03T13:15:22Z</time>
      </trkpt>
      <trkpt lat="47.72723" lon="3.57112">
        <ele>236.6</ele>
        <time>2022-04-03T13:15:23Z</time>
      </trkpt>
      <trkpt lat="47.72723" lon="3.57111">
        <ele>236.7</ele>
        <time>2022-04-03T13:15:24Z</time>
      </trkpt>
      <trkpt lat="47.72723" lon="3.57111">
        <ele>236.7</ele>
        <time>2022-04-03T13:15:26Z</time>
      </trkpt>
      <trkpt lat="47.72723" lon="3.5711">
        <ele>236.7</ele>
        <time>2022-04-03T13:15:27Z</time>
      </trkpt>
      <trkpt lat="47.72723" lon="3.57109">
        <ele>236.7</ele>
        <time>2022-04-03T13:15:28Z</time>
      </trkpt>
      <trkpt lat="47.72723" lon="3.57108">
        <ele>236.7</ele>
        <time>2022-04-03T13:15:29Z</time>
      </trkpt>
      <trkpt lat="47.72722" lon="3.57107">
        <ele>236.7</ele>
        <time>2022-04-03T13:15:30Z</time>
      </trkpt>
      <trkpt lat="47.72721" lon="3.57105">
        <ele>236.8</ele>
        <time>2022-04-03T13:15:31Z</time>
      </trkpt>
      <trkpt lat="47.72721" lon="3.57104">
        <ele>236.8</ele>
        <time>2022-04-03T13:15:32Z</time>
      </trkpt>
      <trkpt lat="47.72721" lon="3.57105">
        <ele>236.8</ele>
        <time>2022-04-03T13:15:33Z</time>
      </trkpt>
      <trkpt lat="47.72721" lon="3.57106">
        <ele>236.8</ele>
        <time>2022-04-03T13:15:34Z</time>
      </trkpt>
      <trkpt lat="47.72721" lon="3.57107">
        <ele>236.8</ele>
        <time>2022-04-03T13:15:35Z</time>
      </trkpt>
      <trkpt lat="47.72721" lon="3.57108">
        <ele>236.9</ele>
        <time>2022-04-03T13:15:36Z</time>
      </trkpt>
      <trkpt lat="47.72721" lon="3.57108">
        <ele>236.9</ele>
        <time>2022-04-03T13:15:37Z</time>
      </trkpt>
      <trkpt lat="47.72721" lon="3.57109">
        <ele>236.9</ele>
        <time>2022-04-03T13:15:38Z</time>
      </trkpt>
      <trkpt lat="47.72721" lon="3.57109">
        <ele>236.9</ele>
        <time>2022-04-03T13:15:39Z</time>
      </trkpt>
      <trkpt lat="47.72721" lon="3.5711">
        <ele>236.9</ele>
        <time>2022-04-03T13:15:40Z</time>
      </trkpt>
      <trkpt lat="47.72721" lon="3.5711">
        <ele>236.9</ele>
        <time>2022-04-03T13:15:41Z</time>
      </trkpt>
      <trkpt lat="47.72721" lon="3.57111">
        <ele>236.9</ele>
        <time>2022-04-03T13:15:42Z</time>
      </trkpt>
      <trkpt lat="47.72721" lon="3.57111">
        <ele>236.9</ele>
        <time>2022-04-03T13:15:43Z</time>
      </trkpt>
      <trkpt lat="47.72721" lon="3.57112">
        <ele>236.9</ele>
        <time>2022-04-03T13:15:44Z</time>
      </trkpt>
      <trkpt lat="47.72721" lon="3.57112">
        <ele>236.9</ele>
        <time>2022-04-03T13:15:45Z</time>
      </trkpt>
      <trkpt lat="47.72721" lon="3.57112">
        <ele>236.9</ele>
        <time>2022-04-03T13:15:46Z</time>
      </trkpt>
      <trkpt lat="47.7272" lon="3.57113">
        <ele>237</ele>
        <time>2022-04-03T13:15:47Z</time>
      </trkpt>
      <trkpt lat="47.7272" lon="3.57114">
        <ele>237</ele>
        <time>2022-04-03T13:15:48Z</time>
      </trkpt>
      <trkpt lat="47.7272" lon="3.57114">
        <ele>237</ele>
        <time>2022-04-03T13:15:49Z</time>
      </trkpt>
      <trkpt lat="47.7272" lon="3.57113">
        <ele>237</ele>
        <time>2022-04-03T13:15:50Z</time>
      </trkpt>
      <trkpt lat="47.7272" lon="3.57113">
        <ele>237</ele>
        <time>2022-04-03T13:15:51Z</time>
      </trkpt>
      <trkpt lat="47.7272" lon="3.57113">
        <ele>237</ele>
        <time>2022-04-03T13:15:52Z</time>
      </trkpt>
      <trkpt lat="47.7272" lon="3.57112">
        <ele>237</ele>
        <time>2022-04-03T13:15:53Z</time>
      </trkpt>
      <trkpt lat="47.7272" lon="3.57112">
        <ele>237</ele>
        <time>2022-04-03T13:15:54Z</time>
      </trkpt>
      <trkpt lat="47.7272" lon="3.57112">
        <ele>237.1</ele>
        <time>2022-04-03T13:15:55Z</time>
      </trkpt>
      <trkpt lat="47.7272" lon="3.57111">
        <ele>237.1</ele>
        <time>2022-04-03T13:15:56Z</time>
      </trkpt>
      <trkpt lat="47.7272" lon="3.57111">
        <ele>237.1</ele>
        <time>2022-04-03T13:15:57Z</time>
      </trkpt>
      <trkpt lat="47.7272" lon="3.57111">
        <ele>237.1</ele>
        <time>2022-04-03T13:15:58Z</time>
      </trkpt>
      <trkpt lat="47.7272" lon="3.5711">
        <ele>237.1</ele>
        <time>2022-04-03T13:15:59Z</time>
      </trkpt>
      <trkpt lat="47.7272" lon="3.5711">
        <ele>237.1</ele>
        <time>2022-04-03T13:16:00Z</time>
      </trkpt>
      <trkpt lat="47.7272" lon="3.5711">
        <ele>237.1</ele>
        <time>2022-04-03T13:16:01Z</time>
      </trkpt>
      <trkpt lat="47.7272" lon="3.57109">
        <ele>237.1</ele>
        <time>2022-04-03T13:16:02Z</time>
      </trkpt>
      <trkpt lat="47.7272" lon="3.57109">
        <ele>237.2</ele>
        <time>2022-04-03T13:16:03Z</time>
      </trkpt>
      <trkpt lat="47.7272" lon="3.57109">
        <ele>237.2</ele>
        <time>2022-04-03T13:16:04Z</time>
      </trkpt>
      <trkpt lat="47.7272" lon="3.57108">
        <ele>237.2</ele>
        <time>2022-04-03T13:16:05Z</time>
      </trkpt>
      <trkpt lat="47.7272" lon="3.57108">
        <ele>237.2</ele>
        <time>2022-04-03T13:16:06Z</time>
      </trkpt>
      <trkpt lat="47.7272" lon="3.57108">
        <ele>237.2</ele>
        <time>2022-04-03T13:16:07Z</time>
      </trkpt>
      <trkpt lat="47.7272" lon="3.57107">
        <ele>237.2</ele>
        <time>2022-04-03T13:16:08Z</time>
      </trkpt>
      <trkpt lat="47.72719" lon="3.57106">
        <ele>237.2</ele>
        <time>2022-04-03T13:16:09Z</time>
      </trkpt>
      <trkpt lat="47.72719" lon="3.57105">
        <ele>237.2</ele>
        <time>2022-04-03T13:16:10Z</time>
      </trkpt>
      <trkpt lat="47.72718" lon="3.57103">
        <ele>237.3</ele>
        <time>2022-04-03T13:16:12Z</time>
      </trkpt>
      <trkpt lat="47.72719" lon="3.57101">
        <ele>237.3</ele>
        <time>2022-04-03T13:16:13Z</time>
      </trkpt>
      <trkpt lat="47.72719" lon="3.571">
        <ele>237.4</ele>
        <time>2022-04-03T13:16:14Z</time>
      </trkpt>
      <trkpt lat="47.72719" lon="3.57098">
        <ele>237.4</ele>
        <time>2022-04-03T13:16:15Z</time>
      </trkpt>
      <trkpt lat="47.72719" lon="3.57096">
        <ele>237.4</ele>
        <time>2022-04-03T13:16:16Z</time>
      </trkpt>
      <trkpt lat="47.72719" lon="3.57095">
        <ele>237.5</ele>
        <time>2022-04-03T13:16:17Z</time>
      </trkpt>
      <trkpt lat="47.72719" lon="3.57094">
        <ele>237.5</ele>
        <time>2022-04-03T13:16:19Z</time>
      </trkpt>
      <trkpt lat="47.72719" lon="3.57093">
        <ele>237.5</ele>
        <time>2022-04-03T13:16:20Z</time>
      </trkpt>
      <trkpt lat="47.72718" lon="3.57089">
        <ele>237.6</ele>
        <time>2022-04-03T13:16:21Z</time>
      </trkpt>
      <trkpt lat="47.72718" lon="3.57088">
        <ele>237.6</ele>
        <time>2022-04-03T13:16:22Z</time>
      </trkpt>
      <trkpt lat="47.72717" lon="3.57087">
        <ele>237.6</ele>
        <time>2022-04-03T13:16:23Z</time>
      </trkpt>
      <trkpt lat="47.72717" lon="3.57085">
        <ele>237.7</ele>
        <time>2022-04-03T13:16:24Z</time>
      </trkpt>
      <trkpt lat="47.72716" lon="3.57084">
        <ele>237.7</ele>
        <time>2022-04-03T13:16:26Z</time>
      </trkpt>
      <trkpt lat="47.72716" lon="3.57082">
        <ele>237.7</ele>
        <time>2022-04-03T13:16:27Z</time>
      </trkpt>
      <trkpt lat="47.72715" lon="3.57081">
        <ele>237.8</ele>
        <time>2022-04-03T13:16:28Z</time>
      </trkpt>
      <trkpt lat="47.72714" lon="3.57078">
        <ele>237.8</ele>
        <time>2022-04-03T13:16:29Z</time>
      </trkpt>
      <trkpt lat="47.72713" lon="3.57075">
        <ele>237.9</ele>
        <time>2022-04-03T13:16:30Z</time>
      </trkpt>
      <trkpt lat="47.72713" lon="3.57074">
        <ele>238</ele>
        <time>2022-04-03T13:16:31Z</time>
      </trkpt>
      <trkpt lat="47.72712" lon="3.57073">
        <ele>238</ele>
        <time>2022-04-03T13:16:32Z</time>
      </trkpt>
      <trkpt lat="47.72711" lon="3.57071">
        <ele>238</ele>
        <time>2022-04-03T13:16:34Z</time>
      </trkpt>
      <trkpt lat="47.72711" lon="3.57069">
        <ele>238.1</ele>
        <time>2022-04-03T13:16:35Z</time>
      </trkpt>
      <trkpt lat="47.7271" lon="3.57068">
        <ele>238.1</ele>
        <time>2022-04-03T13:16:36Z</time>
      </trkpt>
      <trkpt lat="47.72709" lon="3.57066">
        <ele>238.1</ele>
        <time>2022-04-03T13:16:37Z</time>
      </trkpt>
      <trkpt lat="47.72709" lon="3.57064">
        <ele>238.2</ele>
        <time>2022-04-03T13:16:38Z</time>
      </trkpt>
      <trkpt lat="47.72709" lon="3.57063">
        <ele>238.2</ele>
        <time>2022-04-03T13:16:39Z</time>
      </trkpt>
      <trkpt lat="47.72708" lon="3.57061">
        <ele>238.2</ele>
        <time>2022-04-03T13:16:40Z</time>
      </trkpt>
      <trkpt lat="47.72708" lon="3.57059">
        <ele>238.3</ele>
        <time>2022-04-03T13:16:42Z</time>
      </trkpt>
      <trkpt lat="47.72707" lon="3.57057">
        <ele>238.3</ele>
        <time>2022-04-03T13:16:43Z</time>
      </trkpt>
      <trkpt lat="47.72707" lon="3.57056">
        <ele>238.3</ele>
        <time>2022-04-03T13:16:44Z</time>
      </trkpt>
      <trkpt lat="47.72707" lon="3.57055">
        <ele>238.4</ele>
        <time>2022-04-03T13:16:45Z</time>
      </trkpt>
      <trkpt lat="47.72707" lon="3.57053">
        <ele>238.4</ele>
        <time>2022-04-03T13:16:46Z</time>
      </trkpt>
      <trkpt lat="47.72707" lon="3.57052">
        <ele>238.4</ele>
        <time>2022-04-03T13:16:47Z</time>
      </trkpt>
      <trkpt lat="47.72707" lon="3.5705">
        <ele>238.4</ele>
        <time>2022-04-03T13:16:48Z</time>
      </trkpt>
      <trkpt lat="47.72707" lon="3.57049">
        <ele>238.5</ele>
        <time>2022-04-03T13:16:50Z</time>
      </trkpt>
      <trkpt lat="47.72707" lon="3.57048">
        <ele>238.5</ele>
        <time>2022-04-03T13:16:51Z</time>
      </trkpt>
      <trkpt lat="47.72708" lon="3.57047">
        <ele>238.5</ele>
        <time>2022-04-03T13:16:53Z</time>
      </trkpt>
      <trkpt lat="47.72708" lon="3.57046">
        <ele>238.5</ele>
        <time>2022-04-03T13:16:54Z</time>
      </trkpt>
      <trkpt lat="47.72709" lon="3.57045">
        <ele>238.5</ele>
        <time>2022-04-03T13:16:55Z</time>
      </trkpt>
      <trkpt lat="47.72709" lon="3.57045">
        <ele>238.5</ele>
        <time>2022-04-03T13:16:56Z</time>
      </trkpt>
      <trkpt lat="47.72709" lon="3.57045">
        <ele>238.5</ele>
        <time>2022-04-03T13:16:57Z</time>
      </trkpt>
      <trkpt lat="47.72709" lon="3.57045">
        <ele>238.6</ele>
        <time>2022-04-03T13:16:58Z</time>
      </trkpt>
      <trkpt lat="47.72708" lon="3.57045">
        <ele>238.6</ele>
        <time>2022-04-03T13:16:59Z</time>
      </trkpt>
      <trkpt lat="47.72708" lon="3.57045">
        <ele>238.6</ele>
        <time>2022-04-03T13:17:00Z</time>
      </trkpt>
      <trkpt lat="47.72708" lon="3.57045">
        <ele>238.6</ele>
        <time>2022-04-03T13:17:01Z</time>
      </trkpt>
      <trkpt lat="47.72708" lon="3.57045">
        <ele>238.6</ele>
        <time>2022-04-03T13:17:02Z</time>
      </trkpt>
      <trkpt lat="47.72708" lon="3.57044">
        <ele>238.6</ele>
        <time>2022-04-03T13:17:03Z</time>
      </trkpt>
      <trkpt lat="47.72708" lon="3.57044">
        <ele>238.6</ele>
        <time>2022-04-03T13:17:04Z</time>
      </trkpt>
      <trkpt lat="47.72708" lon="3.57044">
        <ele>238.6</ele>
        <time>2022-04-03T13:17:05Z</time>
      </trkpt>
      <trkpt lat="47.72708" lon="3.57044">
        <ele>238.6</ele>
        <time>2022-04-03T13:17:06Z</time>
      </trkpt>
      <trkpt lat="47.72708" lon="3.57045">
        <ele>238.6</ele>
        <time>2022-04-03T13:17:07Z</time>
      </trkpt>
      <trkpt lat="47.72708" lon="3.57045">
        <ele>238.6</ele>
        <time>2022-04-03T13:17:08Z</time>
      </trkpt>
      <trkpt lat="47.72708" lon="3.57045">
        <ele>238.7</ele>
        <time>2022-04-03T13:17:09Z</time>
      </trkpt>
      <trkpt lat="47.72709" lon="3.57045">
        <ele>238.7</ele>
        <time>2022-04-03T13:17:10Z</time>
      </trkpt>
      <trkpt lat="47.72709" lon="3.57045">
        <ele>238.7</ele>
        <time>2022-04-03T13:17:11Z</time>
      </trkpt>
      <trkpt lat="47.72709" lon="3.57045">
        <ele>238.7</ele>
        <time>2022-04-03T13:17:12Z</time>
      </trkpt>
      <trkpt lat="47.72709" lon="3.57045">
        <ele>238.7</ele>
        <time>2022-04-03T13:17:13Z</time>
      </trkpt>
      <trkpt lat="47.72709" lon="3.57046">
        <ele>238.7</ele>
        <time>2022-04-03T13:17:14Z</time>
      </trkpt>
      <trkpt lat="47.72709" lon="3.57046">
        <ele>238.7</ele>
        <time>2022-04-03T13:17:15Z</time>
      </trkpt>
      <trkpt lat="47.72709" lon="3.57046">
        <ele>238.7</ele>
        <time>2022-04-03T13:17:16Z</time>
      </trkpt>
      <trkpt lat="47.72709" lon="3.57046">
        <ele>238.7</ele>
        <time>2022-04-03T13:17:17Z</time>
      </trkpt>
      <trkpt lat="47.72709" lon="3.57045">
        <ele>238.8</ele>
        <time>2022-04-03T13:17:18Z</time>
      </trkpt>
      <trkpt lat="47.72709" lon="3.57045">
        <ele>238.8</ele>
        <time>2022-04-03T13:17:19Z</time>
      </trkpt>
      <trkpt lat="47.72709" lon="3.57045">
        <ele>238.8</ele>
        <time>2022-04-03T13:17:20Z</time>
      </trkpt>
      <trkpt lat="47.72709" lon="3.57045">
        <ele>238.8</ele>
        <time>2022-04-03T13:17:21Z</time>
      </trkpt>
      <trkpt lat="47.72709" lon="3.57044">
        <ele>238.8</ele>
        <time>2022-04-03T13:17:22Z</time>
      </trkpt>
      <trkpt lat="47.72709" lon="3.57044">
        <ele>238.8</ele>
        <time>2022-04-03T13:17:23Z</time>
      </trkpt>
      <trkpt lat="47.72709" lon="3.57044">
        <ele>238.8</ele>
        <time>2022-04-03T13:17:24Z</time>
      </trkpt>
      <trkpt lat="47.72709" lon="3.57043">
        <ele>238.8</ele>
        <time>2022-04-03T13:17:25Z</time>
      </trkpt>
      <trkpt lat="47.72709" lon="3.57043">
        <ele>238.8</ele>
        <time>2022-04-03T13:17:26Z</time>
      </trkpt>
      <trkpt lat="47.72709" lon="3.57043">
        <ele>238.8</ele>
        <time>2022-04-03T13:17:27Z</time>
      </trkpt>
      <trkpt lat="47.72709" lon="3.57043">
        <ele>239.3</ele>
        <time>2022-04-03T13:17:28Z</time>
      </trkpt>
      <trkpt lat="47.72709" lon="3.57043">
        <ele>239.3</ele>
        <time>2022-04-03T13:17:29Z</time>
      </trkpt>
      <trkpt lat="47.72709" lon="3.57043">
        <ele>239.3</ele>
        <time>2022-04-03T13:17:30Z</time>
      </trkpt>
      <trkpt lat="47.72709" lon="3.57043">
        <ele>239.3</ele>
        <time>2022-04-03T13:17:31Z</time>
      </trkpt>
      <trkpt lat="47.72709" lon="3.57043">
        <ele>239.3</ele>
        <time>2022-04-03T13:17:32Z</time>
      </trkpt>
      <trkpt lat="47.72709" lon="3.57043">
        <ele>239.3</ele>
        <time>2022-04-03T13:17:33Z</time>
      </trkpt>
      <trkpt lat="47.72709" lon="3.57043">
        <ele>239.3</ele>
        <time>2022-04-03T13:17:34Z</time>
      </trkpt>
      <trkpt lat="47.7271" lon="3.57043">
        <ele>239.3</ele>
        <time>2022-04-03T13:17:35Z</time>
      </trkpt>
      <trkpt lat="47.7271" lon="3.57043">
        <ele>239.3</ele>
        <time>2022-04-03T13:17:36Z</time>
      </trkpt>
      <trkpt lat="47.7271" lon="3.57043">
        <ele>239.3</ele>
        <time>2022-04-03T13:17:37Z</time>
      </trkpt>
      <trkpt lat="47.7271" lon="3.57043">
        <ele>239.3</ele>
        <time>2022-04-03T13:17:38Z</time>
      </trkpt>
      <trkpt lat="47.72709" lon="3.57043">
        <ele>239.3</ele>
        <time>2022-04-03T13:17:39Z</time>
      </trkpt>
      <trkpt lat="47.72709" lon="3.57043">
        <ele>239.3</ele>
        <time>2022-04-03T13:17:40Z</time>
      </trkpt>
      <trkpt lat="47.72709" lon="3.57043">
        <ele>239.3</ele>
        <time>2022-04-03T13:17:41Z</time>
      </trkpt>
      <trkpt lat="47.72709" lon="3.57043">
        <ele>239.3</ele>
        <time>2022-04-03T13:17:42Z</time>
      </trkpt>
      <trkpt lat="47.72709" lon="3.57043">
        <ele>239.3</ele>
        <time>2022-04-03T13:17:43Z</time>
      </trkpt>
      <trkpt lat="47.72709" lon="3.57043">
        <ele>239.3</ele>
        <time>2022-04-03T13:17:44Z</time>
      </trkpt>
      <trkpt lat="47.72709" lon="3.57043">
        <ele>239.3</ele>
        <time>2022-04-03T13:17:45Z</time>
      </trkpt>
      <trkpt lat="47.72709" lon="3.57043">
        <ele>239.3</ele>
        <time>2022-04-03T13:17:46Z</time>
      </trkpt>
      <trkpt lat="47.72709" lon="3.57043">
        <ele>239.3</ele>
        <time>2022-04-03T13:17:47Z</time>
      </trkpt>
      <trkpt lat="47.72709" lon="3.57043">
        <ele>239.3</ele>
        <time>2022-04-03T13:17:48Z</time>
      </trkpt>
      <trkpt lat="47.72709" lon="3.57043">
        <ele>239.3</ele>
        <time>2022-04-03T13:17:49Z</time>
      </trkpt>
      <trkpt lat="47.72709" lon="3.57043">
        <ele>239.3</ele>
        <time>2022-04-03T13:17:50Z</time>
      </trkpt>
      <trkpt lat="47.72709" lon="3.57043">
        <ele>239.3</ele>
        <time>2022-04-03T13:17:51Z</time>
      </trkpt>
      <trkpt lat="47.72709" lon="3.57043">
        <ele>239.3</ele>
        <time>2022-04-03T13:17:52Z</time>
      </trkpt>
      <trkpt lat="47.72709" lon="3.57043">
        <ele>239.3</ele>
        <time>2022-04-03T13:17:53Z</time>
      </trkpt>
      <trkpt lat="47.72709" lon="3.57043">
        <ele>239.3</ele>
        <time>2022-04-03T13:17:54Z</time>
      </trkpt>
      <trkpt lat="47.72709" lon="3.57043">
        <ele>239.3</ele>
        <time>2022-04-03T13:17:55Z</time>
      </trkpt>
      <trkpt lat="47.72709" lon="3.57043">
        <ele>239.3</ele>
        <time>2022-04-03T13:17:56Z</time>
      </trkpt>
      <trkpt lat="47.72708" lon="3.57042">
        <ele>239.3</ele>
        <time>2022-04-03T13:17:57Z</time>
      </trkpt>
      <trkpt lat="47.72708" lon="3.57042">
        <ele>239.3</ele>
        <time>2022-04-03T13:17:58Z</time>
      </trkpt>
      <trkpt lat="47.72708" lon="3.57042">
        <ele>239.3</ele>
        <time>2022-04-03T13:17:59Z</time>
      </trkpt>
      <trkpt lat="47.72708" lon="3.57042">
        <ele>239.3</ele>
        <time>2022-04-03T13:18:00Z</time>
      </trkpt>
      <trkpt lat="47.72708" lon="3.57042">
        <ele>239.3</ele>
        <time>2022-04-03T13:18:01Z</time>
      </trkpt>
      <trkpt lat="47.72708" lon="3.57042">
        <ele>239.3</ele>
        <time>2022-04-03T13:18:02Z</time>
      </trkpt>
      <trkpt lat="47.72708" lon="3.57042">
        <ele>239.3</ele>
        <time>2022-04-03T13:18:03Z</time>
      </trkpt>
      <trkpt lat="47.72708" lon="3.57042">
        <ele>239.3</ele>
        <time>2022-04-03T13:18:04Z</time>
      </trkpt>
      <trkpt lat="47.72708" lon="3.57042">
        <ele>239.3</ele>
        <time>2022-04-03T13:18:05Z</time>
      </trkpt>
      <trkpt lat="47.72709" lon="3.57043">
        <ele>239.3</ele>
        <time>2022-04-03T13:18:06Z</time>
      </trkpt>
      <trkpt lat="47.72709" lon="3.57043">
        <ele>239.3</ele>
        <time>2022-04-03T13:18:07Z</time>
      </trkpt>
      <trkpt lat="47.72709" lon="3.57043">
        <ele>239.3</ele>
        <time>2022-04-03T13:18:08Z</time>
      </trkpt>
      <trkpt lat="47.72709" lon="3.57043">
        <ele>239.3</ele>
        <time>2022-04-03T13:18:09Z</time>
      </trkpt>
      <trkpt lat="47.72709" lon="3.57043">
        <ele>239.3</ele>
        <time>2022-04-03T13:18:10Z</time>
      </trkpt>
      <trkpt lat="47.72709" lon="3.57043">
        <ele>239.3</ele>
        <time>2022-04-03T13:18:11Z</time>
      </trkpt>
      <trkpt lat="47.72709" lon="3.57043">
        <ele>239.3</ele>
        <time>2022-04-03T13:18:12Z</time>
      </trkpt>
      <trkpt lat="47.72709" lon="3.57042">
        <ele>239.3</ele>
        <time>2022-04-03T13:18:13Z</time>
      </trkpt>
      <trkpt lat="47.72709" lon="3.57042">
        <ele>239.3</ele>
        <time>2022-04-03T13:18:14Z</time>
      </trkpt>
      <trkpt lat="47.72709" lon="3.57042">
        <ele>239.3</ele>
        <time>2022-04-03T13:18:15Z</time>
      </trkpt>
      <trkpt lat="47.72709" lon="3.57042">
        <ele>239.3</ele>
        <time>2022-04-03T13:18:16Z</time>
      </trkpt>
      <trkpt lat="47.72708" lon="3.57042">
        <ele>239.3</ele>
        <time>2022-04-03T13:18:17Z</time>
      </trkpt>
      <trkpt lat="47.72708" lon="3.57042">
        <ele>239.3</ele>
        <time>2022-04-03T13:18:18Z</time>
      </trkpt>
      <trkpt lat="47.72708" lon="3.57041">
        <ele>239.3</ele>
        <time>2022-04-03T13:18:19Z</time>
      </trkpt>
      <trkpt lat="47.72708" lon="3.57041">
        <ele>239.3</ele>
        <time>2022-04-03T13:18:20Z</time>
      </trkpt>
      <trkpt lat="47.72708" lon="3.57041">
        <ele>239.3</ele>
        <time>2022-04-03T13:18:21Z</time>
      </trkpt>
      <trkpt lat="47.72708" lon="3.57041">
        <ele>239.3</ele>
        <time>2022-04-03T13:18:22Z</time>
      </trkpt>
      <trkpt lat="47.72708" lon="3.5704">
        <ele>239.3</ele>
        <time>2022-04-03T13:18:23Z</time>
      </trkpt>
      <trkpt lat="47.72708" lon="3.5704">
        <ele>239.3</ele>
        <time>2022-04-03T13:18:24Z</time>
      </trkpt>
      <trkpt lat="47.72708" lon="3.5704">
        <ele>239.3</ele>
        <time>2022-04-03T13:18:25Z</time>
      </trkpt>
      <trkpt lat="47.72708" lon="3.5704">
        <ele>239.3</ele>
        <time>2022-04-03T13:18:26Z</time>
      </trkpt>
      <trkpt lat="47.72708" lon="3.5704">
        <ele>239.3</ele>
        <time>2022-04-03T13:18:27Z</time>
      </trkpt>
      <trkpt lat="47.72708" lon="3.5704">
        <ele>239.3</ele>
        <time>2022-04-03T13:18:28Z</time>
      </trkpt>
      <trkpt lat="47.72708" lon="3.5704">
        <ele>239.3</ele>
        <time>2022-04-03T13:18:29Z</time>
      </trkpt>
      <trkpt lat="47.72708" lon="3.5704">
        <ele>239.3</ele>
        <time>2022-04-03T13:18:30Z</time>
      </trkpt>
      <trkpt lat="47.72708" lon="3.5704">
        <ele>239.3</ele>
        <time>2022-04-03T13:18:31Z</time>
      </trkpt>
      <trkpt lat="47.72708" lon="3.5704">
        <ele>239.3</ele>
        <time>2022-04-03T13:18:32Z</time>
      </trkpt>
      <trkpt lat="47.72708" lon="3.5704">
        <ele>239.3</ele>
        <time>2022-04-03T13:18:33Z</time>
      </trkpt>
      <trkpt lat="47.72708" lon="3.5704">
        <ele>239.3</ele>
        <time>2022-04-03T13:18:34Z</time>
      </trkpt>
      <trkpt lat="47.72708" lon="3.5704">
        <ele>239.3</ele>
        <time>2022-04-03T13:18:35Z</time>
      </trkpt>
      <trkpt lat="47.72708" lon="3.5704">
        <ele>239.3</ele>
        <time>2022-04-03T13:18:36Z</time>
      </trkpt>
      <trkpt lat="47.72708" lon="3.5704">
        <ele>239.3</ele>
        <time>2022-04-03T13:18:37Z</time>
      </trkpt>
      <trkpt lat="47.72707" lon="3.5704">
        <ele>239.3</ele>
        <time>2022-04-03T13:18:38Z</time>
      </trkpt>
      <trkpt lat="47.72707" lon="3.5704">
        <ele>239.3</ele>
        <time>2022-04-03T13:18:39Z</time>
      </trkpt>
      <trkpt lat="47.72707" lon="3.5704">
        <ele>239.3</ele>
        <time>2022-04-03T13:18:40Z</time>
      </trkpt>
      <trkpt lat="47.72707" lon="3.5704">
        <ele>239.3</ele>
        <time>2022-04-03T13:18:41Z</time>
      </trkpt>
      <trkpt lat="47.72707" lon="3.5704">
        <ele>239.3</ele>
        <time>2022-04-03T13:18:42Z</time>
      </trkpt>
      <trkpt lat="47.72707" lon="3.5704">
        <ele>239.3</ele>
        <time>2022-04-03T13:18:43Z</time>
      </trkpt>
      <trkpt lat="47.72707" lon="3.5704">
        <ele>239.3</ele>
        <time>2022-04-03T13:18:44Z</time>
      </trkpt>
      <trkpt lat="47.72707" lon="3.5704">
        <ele>239.3</ele>
        <time>2022-04-03T13:18:45Z</time>
      </trkpt>
      <trkpt lat="47.72708" lon="3.5704">
        <ele>239.3</ele>
        <time>2022-04-03T13:18:46Z</time>
      </trkpt>
      <trkpt lat="47.72708" lon="3.5704">
        <ele>239.3</ele>
        <time>2022-04-03T13:18:47Z</time>
      </trkpt>
      <trkpt lat="47.72708" lon="3.5704">
        <ele>239.3</ele>
        <time>2022-04-03T13:18:48Z</time>
      </trkpt>
      <trkpt lat="47.72708" lon="3.5704">
        <ele>239.3</ele>
        <time>2022-04-03T13:18:49Z</time>
      </trkpt>
      <trkpt lat="47.72708" lon="3.5704">
        <ele>239.3</ele>
        <time>2022-04-03T13:18:50Z</time>
      </trkpt>
      <trkpt lat="47.72708" lon="3.5704">
        <ele>239.3</ele>
        <time>2022-04-03T13:18:51Z</time>
      </trkpt>
      <trkpt lat="47.72708" lon="3.5704">
        <ele>239.3</ele>
        <time>2022-04-03T13:18:52Z</time>
      </trkpt>
      <trkpt lat="47.72708" lon="3.5704">
        <ele>239.3</ele>
        <time>2022-04-03T13:18:53Z</time>
      </trkpt>
      <trkpt lat="47.72708" lon="3.5704">
        <ele>239.3</ele>
        <time>2022-04-03T13:18:54Z</time>
      </trkpt>
      <trkpt lat="47.72708" lon="3.5704">
        <ele>239.3</ele>
        <time>2022-04-03T13:18:55Z</time>
      </trkpt>
      <trkpt lat="47.72708" lon="3.5704">
        <ele>239.3</ele>
        <time>2022-04-03T13:18:56Z</time>
      </trkpt>
      <trkpt lat="47.72708" lon="3.57039">
        <ele>239.3</ele>
        <time>2022-04-03T13:18:57Z</time>
      </trkpt>
      <trkpt lat="47.72708" lon="3.57039">
        <ele>239.3</ele>
        <time>2022-04-03T13:18:58Z</time>
      </trkpt>
      <trkpt lat="47.72708" lon="3.57039">
        <ele>239.3</ele>
        <time>2022-04-03T13:18:59Z</time>
      </trkpt>
      <trkpt lat="47.72709" lon="3.5704">
        <ele>239.3</ele>
        <time>2022-04-03T13:19:00Z</time>
      </trkpt>
      <trkpt lat="47.72709" lon="3.5704">
        <ele>239.3</ele>
        <time>2022-04-03T13:19:01Z</time>
      </trkpt>
      <trkpt lat="47.72709" lon="3.5704">
        <ele>239.3</ele>
        <time>2022-04-03T13:19:02Z</time>
      </trkpt>
      <trkpt lat="47.72709" lon="3.5704">
        <ele>239.3</ele>
        <time>2022-04-03T13:19:03Z</time>
      </trkpt>
      <trkpt lat="47.72709" lon="3.57041">
        <ele>239.4</ele>
        <time>2022-04-03T13:19:04Z</time>
      </trkpt>
      <trkpt lat="47.72709" lon="3.57041">
        <ele>239.4</ele>
        <time>2022-04-03T13:19:05Z</time>
      </trkpt>
      <trkpt lat="47.72709" lon="3.57041">
        <ele>239.4</ele>
        <time>2022-04-03T13:19:06Z</time>
      </trkpt>
      <trkpt lat="47.72709" lon="3.57041">
        <ele>239.4</ele>
        <time>2022-04-03T13:19:07Z</time>
      </trkpt>
      <trkpt lat="47.72709" lon="3.57041">
        <ele>239.4</ele>
        <time>2022-04-03T13:19:08Z</time>
      </trkpt>
      <trkpt lat="47.72709" lon="3.57041">
        <ele>239.4</ele>
        <time>2022-04-03T13:19:09Z</time>
      </trkpt>
      <trkpt lat="47.72709" lon="3.57041">
        <ele>239.4</ele>
        <time>2022-04-03T13:19:10Z</time>
      </trkpt>
      <trkpt lat="47.72709" lon="3.57041">
        <ele>239.4</ele>
        <time>2022-04-03T13:19:11Z</time>
      </trkpt>
      <trkpt lat="47.72709" lon="3.57041">
        <ele>239.4</ele>
        <time>2022-04-03T13:19:12Z</time>
      </trkpt>
      <trkpt lat="47.72709" lon="3.57041">
        <ele>239.4</ele>
        <time>2022-04-03T13:19:13Z</time>
      </trkpt>
      <trkpt lat="47.72709" lon="3.57041">
        <ele>239.4</ele>
        <time>2022-04-03T13:19:14Z</time>
      </trkpt>
      <trkpt lat="47.72709" lon="3.57041">
        <ele>239.4</ele>
        <time>2022-04-03T13:19:15Z</time>
      </trkpt>
      <trkpt lat="47.72709" lon="3.57041">
        <ele>239.4</ele>
        <time>2022-04-03T13:19:16Z</time>
      </trkpt>
      <trkpt lat="47.72709" lon="3.57041">
        <ele>239.4</ele>
        <time>2022-04-03T13:19:17Z</time>
      </trkpt>
      <trkpt lat="47.72709" lon="3.57041">
        <ele>239.4</ele>
        <time>2022-04-03T13:19:18Z</time>
      </trkpt>
      <trkpt lat="47.72708" lon="3.57041">
        <ele>239.4</ele>
        <time>2022-04-03T13:19:19Z</time>
      </trkpt>
      <trkpt lat="47.72708" lon="3.57041">
        <ele>239.4</ele>
        <time>2022-04-03T13:19:20Z</time>
      </trkpt>
      <trkpt lat="47.72708" lon="3.57041">
        <ele>239.4</ele>
        <time>2022-04-03T13:19:21Z</time>
      </trkpt>
      <trkpt lat="47.72707" lon="3.57041">
        <ele>239.4</ele>
        <time>2022-04-03T13:19:22Z</time>
      </trkpt>
      <trkpt lat="47.72707" lon="3.57041">
        <ele>239.4</ele>
        <time>2022-04-03T13:19:23Z</time>
      </trkpt>
      <trkpt lat="47.72706" lon="3.57041">
        <ele>239.4</ele>
        <time>2022-04-03T13:19:24Z</time>
      </trkpt>
      <trkpt lat="47.72706" lon="3.57041">
        <ele>239.4</ele>
        <time>2022-04-03T13:19:25Z</time>
      </trkpt>
      <trkpt lat="47.72706" lon="3.5704">
        <ele>239.4</ele>
        <time>2022-04-03T13:19:26Z</time>
      </trkpt>
      <trkpt lat="47.72706" lon="3.5704">
        <ele>239.4</ele>
        <time>2022-04-03T13:19:27Z</time>
      </trkpt>
      <trkpt lat="47.72706" lon="3.5704">
        <ele>239.4</ele>
        <time>2022-04-03T13:19:28Z</time>
      </trkpt>
      <trkpt lat="47.72707" lon="3.5704">
        <ele>239.4</ele>
        <time>2022-04-03T13:19:29Z</time>
      </trkpt>
      <trkpt lat="47.72707" lon="3.57041">
        <ele>239.4</ele>
        <time>2022-04-03T13:19:31Z</time>
      </trkpt>
      <trkpt lat="47.72707" lon="3.57041">
        <ele>239.4</ele>
        <time>2022-04-03T13:19:32Z</time>
      </trkpt>
      <trkpt lat="47.72707" lon="3.57041">
        <ele>239.4</ele>
        <time>2022-04-03T13:19:33Z</time>
      </trkpt>
      <trkpt lat="47.72707" lon="3.57041">
        <ele>239.4</ele>
        <time>2022-04-03T13:19:34Z</time>
      </trkpt>
      <trkpt lat="47.72707" lon="3.57041">
        <ele>239.4</ele>
        <time>2022-04-03T13:19:35Z</time>
      </trkpt>
      <trkpt lat="47.72707" lon="3.57041">
        <ele>239.4</ele>
        <time>2022-04-03T13:19:36Z</time>
      </trkpt>
      <trkpt lat="47.72707" lon="3.57041">
        <ele>239.4</ele>
        <time>2022-04-03T13:19:37Z</time>
      </trkpt>
      <trkpt lat="47.72707" lon="3.57041">
        <ele>239.4</ele>
        <time>2022-04-03T13:19:38Z</time>
      </trkpt>
      <trkpt lat="47.72707" lon="3.57041">
        <ele>239.4</ele>
        <time>2022-04-03T13:19:39Z</time>
      </trkpt>
      <trkpt lat="47.72708" lon="3.57041">
        <ele>239.4</ele>
        <time>2022-04-03T13:19:40Z</time>
      </trkpt>
      <trkpt lat="47.72708" lon="3.57041">
        <ele>239.4</ele>
        <time>2022-04-03T13:19:41Z</time>
      </trkpt>
      <trkpt lat="47.72708" lon="3.57041">
        <ele>239.4</ele>
        <time>2022-04-03T13:19:42Z</time>
      </trkpt>
      <trkpt lat="47.72708" lon="3.57041">
        <ele>239.4</ele>
        <time>2022-04-03T13:19:43Z</time>
      </trkpt>
      <trkpt lat="47.72708" lon="3.57041">
        <ele>239.4</ele>
        <time>2022-04-03T13:19:44Z</time>
      </trkpt>
      <trkpt lat="47.72709" lon="3.57041">
        <ele>239.4</ele>
        <time>2022-04-03T13:19:45Z</time>
      </trkpt>
      <trkpt lat="47.72709" lon="3.57041">
        <ele>239.4</ele>
        <time>2022-04-03T13:19:46Z</time>
      </trkpt>
      <trkpt lat="47.72709" lon="3.57041">
        <ele>239.4</ele>
        <time>2022-04-03T13:19:47Z</time>
      </trkpt>
      <trkpt lat="47.72708" lon="3.57041">
        <ele>239.4</ele>
        <time>2022-04-03T13:19:48Z</time>
      </trkpt>
      <trkpt lat="47.72708" lon="3.57041">
        <ele>239.4</ele>
        <time>2022-04-03T13:19:49Z</time>
      </trkpt>
      <trkpt lat="47.72708" lon="3.57041">
        <ele>239.4</ele>
        <time>2022-04-03T13:19:50Z</time>
      </trkpt>
      <trkpt lat="47.72708" lon="3.57041">
        <ele>239.4</ele>
        <time>2022-04-03T13:19:51Z</time>
      </trkpt>
      <trkpt lat="47.72708" lon="3.5704">
        <ele>239.4</ele>
        <time>2022-04-03T13:19:52Z</time>
      </trkpt>
      <trkpt lat="47.72708" lon="3.5704">
        <ele>239.4</ele>
        <time>2022-04-03T13:19:53Z</time>
      </trkpt>
      <trkpt lat="47.72708" lon="3.5704">
        <ele>239.4</ele>
        <time>2022-04-03T13:19:54Z</time>
      </trkpt>
      <trkpt lat="47.72708" lon="3.5704">
        <ele>239.4</ele>
        <time>2022-04-03T13:19:55Z</time>
      </trkpt>
      <trkpt lat="47.72708" lon="3.5704">
        <ele>239.4</ele>
        <time>2022-04-03T13:19:56Z</time>
      </trkpt>
      <trkpt lat="47.72708" lon="3.5704">
        <ele>239.4</ele>
        <time>2022-04-03T13:19:57Z</time>
      </trkpt>
      <trkpt lat="47.72708" lon="3.5704">
        <ele>239.4</ele>
        <time>2022-04-03T13:19:58Z</time>
      </trkpt>
      <trkpt lat="47.72708" lon="3.5704">
        <ele>239.4</ele>
        <time>2022-04-03T13:19:59Z</time>
      </trkpt>
      <trkpt lat="47.72708" lon="3.5704">
        <ele>239.4</ele>
        <time>2022-04-03T13:20:00Z</time>
      </trkpt>
      <trkpt lat="47.72708" lon="3.5704">
        <ele>239.4</ele>
        <time>2022-04-03T13:20:01Z</time>
      </trkpt>
      <trkpt lat="47.72708" lon="3.5704">
        <ele>239.4</ele>
        <time>2022-04-03T13:20:02Z</time>
      </trkpt>
      <trkpt lat="47.72708" lon="3.5704">
        <ele>239.4</ele>
        <time>2022-04-03T13:20:03Z</time>
      </trkpt>
      <trkpt lat="47.72708" lon="3.5704">
        <ele>239.4</ele>
        <time>2022-04-03T13:20:04Z</time>
      </trkpt>
      <trkpt lat="47.72708" lon="3.57041">
        <ele>239.4</ele>
        <time>2022-04-03T13:20:05Z</time>
      </trkpt>
      <trkpt lat="47.72708" lon="3.57041">
        <ele>239.4</ele>
        <time>2022-04-03T13:20:06Z</time>
      </trkpt>
      <trkpt lat="47.72708" lon="3.57041">
        <ele>239.4</ele>
        <time>2022-04-03T13:20:07Z</time>
      </trkpt>
      <trkpt lat="47.72708" lon="3.57042">
        <ele>239.4</ele>
        <time>2022-04-03T13:20:08Z</time>
      </trkpt>
      <trkpt lat="47.72708" lon="3.57042">
        <ele>239.4</ele>
        <time>2022-04-03T13:20:09Z</time>
      </trkpt>
      <trkpt lat="47.72708" lon="3.57042">
        <ele>239.4</ele>
        <time>2022-04-03T13:20:10Z</time>
      </trkpt>
      <trkpt lat="47.72708" lon="3.57042">
        <ele>239.4</ele>
        <time>2022-04-03T13:20:11Z</time>
      </trkpt>
      <trkpt lat="47.72708" lon="3.57042">
        <ele>239.4</ele>
        <time>2022-04-03T13:20:12Z</time>
      </trkpt>
      <trkpt lat="47.72708" lon="3.57042">
        <ele>239.4</ele>
        <time>2022-04-03T13:20:13Z</time>
      </trkpt>
      <trkpt lat="47.72708" lon="3.57042">
        <ele>239.4</ele>
        <time>2022-04-03T13:20:14Z</time>
      </trkpt>
      <trkpt lat="47.72708" lon="3.57042">
        <ele>239.4</ele>
        <time>2022-04-03T13:20:15Z</time>
      </trkpt>
      <trkpt lat="47.72708" lon="3.57042">
        <ele>239.4</ele>
        <time>2022-04-03T13:20:16Z</time>
      </trkpt>
      <trkpt lat="47.72708" lon="3.57043">
        <ele>239.4</ele>
        <time>2022-04-03T13:20:17Z</time>
      </trkpt>
      <trkpt lat="47.72708" lon="3.57043">
        <ele>239.4</ele>
        <time>2022-04-03T13:20:18Z</time>
      </trkpt>
      <trkpt lat="47.72708" lon="3.57042">
        <ele>239.4</ele>
        <time>2022-04-03T13:20:19Z</time>
      </trkpt>
      <trkpt lat="47.72708" lon="3.57042">
        <ele>239.4</ele>
        <time>2022-04-03T13:20:20Z</time>
      </trkpt>
      <trkpt lat="47.72708" lon="3.57042">
        <ele>239.4</ele>
        <time>2022-04-03T13:20:21Z</time>
      </trkpt>
      <trkpt lat="47.72708" lon="3.57042">
        <ele>239.4</ele>
        <time>2022-04-03T13:20:22Z</time>
      </trkpt>
      <trkpt lat="47.72708" lon="3.57042">
        <ele>239.4</ele>
        <time>2022-04-03T13:20:23Z</time>
      </trkpt>
      <trkpt lat="47.72708" lon="3.57041">
        <ele>239.4</ele>
        <time>2022-04-03T13:20:24Z</time>
      </trkpt>
      <trkpt lat="47.72708" lon="3.57041">
        <ele>239.4</ele>
        <time>2022-04-03T13:20:25Z</time>
      </trkpt>
      <trkpt lat="47.72708" lon="3.57041">
        <ele>239.4</ele>
        <time>2022-04-03T13:20:26Z</time>
      </trkpt>
      <trkpt lat="47.72708" lon="3.57041">
        <ele>239.4</ele>
        <time>2022-04-03T13:20:27Z</time>
      </trkpt>
      <trkpt lat="47.72708" lon="3.57041">
        <ele>239.4</ele>
        <time>2022-04-03T13:20:28Z</time>
      </trkpt>
      <trkpt lat="47.72708" lon="3.57041">
        <ele>239.4</ele>
        <time>2022-04-03T13:20:29Z</time>
      </trkpt>
      <trkpt lat="47.72708" lon="3.57041">
        <ele>239.4</ele>
        <time>2022-04-03T13:20:30Z</time>
      </trkpt>
      <trkpt lat="47.72708" lon="3.57041">
        <ele>239.4</ele>
        <time>2022-04-03T13:20:31Z</time>
      </trkpt>
      <trkpt lat="47.72708" lon="3.57041">
        <ele>239.4</ele>
        <time>2022-04-03T13:20:32Z</time>
      </trkpt>
      <trkpt lat="47.72708" lon="3.57041">
        <ele>239.4</ele>
        <time>2022-04-03T13:20:33Z</time>
      </trkpt>
      <trkpt lat="47.72708" lon="3.5704">
        <ele>239.4</ele>
        <time>2022-04-03T13:20:34Z</time>
      </trkpt>
      <trkpt lat="47.72708" lon="3.5704">
        <ele>239.4</ele>
        <time>2022-04-03T13:20:35Z</time>
      </trkpt>
      <trkpt lat="47.72708" lon="3.5704">
        <ele>239.4</ele>
        <time>2022-04-03T13:20:36Z</time>
      </trkpt>
      <trkpt lat="47.72708" lon="3.5704">
        <ele>239.4</ele>
        <time>2022-04-03T13:20:37Z</time>
      </trkpt>
      <trkpt lat="47.72708" lon="3.5704">
        <ele>239.4</ele>
        <time>2022-04-03T13:20:38Z</time>
      </trkpt>
      <trkpt lat="47.72708" lon="3.57041">
        <ele>239.4</ele>
        <time>2022-04-03T13:20:39Z</time>
      </trkpt>
      <trkpt lat="47.72708" lon="3.57041">
        <ele>239.4</ele>
        <time>2022-04-03T13:20:40Z</time>
      </trkpt>
      <trkpt lat="47.72708" lon="3.57041">
        <ele>239.4</ele>
        <time>2022-04-03T13:20:41Z</time>
      </trkpt>
      <trkpt lat="47.72708" lon="3.57041">
        <ele>239.4</ele>
        <time>2022-04-03T13:20:42Z</time>
      </trkpt>
      <trkpt lat="47.72708" lon="3.57041">
        <ele>239.4</ele>
        <time>2022-04-03T13:20:43Z</time>
      </trkpt>
      <trkpt lat="47.72708" lon="3.57041">
        <ele>239.4</ele>
        <time>2022-04-03T13:20:44Z</time>
      </trkpt>
      <trkpt lat="47.72708" lon="3.57041">
        <ele>239.4</ele>
        <time>2022-04-03T13:20:45Z</time>
      </trkpt>
      <trkpt lat="47.72708" lon="3.57041">
        <ele>239.4</ele>
        <time>2022-04-03T13:20:46Z</time>
      </trkpt>
      <trkpt lat="47.72708" lon="3.57041">
        <ele>239.4</ele>
        <time>2022-04-03T13:20:47Z</time>
      </trkpt>
      <trkpt lat="47.72708" lon="3.57041">
        <ele>239.4</ele>
        <time>2022-04-03T13:20:48Z</time>
      </trkpt>
      <trkpt lat="47.72707" lon="3.57041">
        <ele>239.4</ele>
        <time>2022-04-03T13:20:49Z</time>
      </trkpt>
      <trkpt lat="47.72707" lon="3.5704">
        <ele>239.4</ele>
        <time>2022-04-03T13:20:50Z</time>
      </trkpt>
      <trkpt lat="47.72707" lon="3.5704">
        <ele>239.4</ele>
        <time>2022-04-03T13:20:51Z</time>
      </trkpt>
      <trkpt lat="47.72707" lon="3.5704">
        <ele>239.4</ele>
        <time>2022-04-03T13:20:52Z</time>
      </trkpt>
      <trkpt lat="47.72708" lon="3.5704">
        <ele>239.5</ele>
        <time>2022-04-03T13:20:53Z</time>
      </trkpt>
      <trkpt lat="47.72707" lon="3.5704">
        <ele>239.5</ele>
        <time>2022-04-03T13:20:54Z</time>
      </trkpt>
      <trkpt lat="47.72707" lon="3.5704">
        <ele>239.5</ele>
        <time>2022-04-03T13:20:55Z</time>
      </trkpt>
      <trkpt lat="47.72707" lon="3.5704">
        <ele>239.5</ele>
        <time>2022-04-03T13:20:56Z</time>
      </trkpt>
      <trkpt lat="47.72707" lon="3.5704">
        <ele>239.5</ele>
        <time>2022-04-03T13:20:57Z</time>
      </trkpt>
      <trkpt lat="47.72707" lon="3.5704">
        <ele>239.5</ele>
        <time>2022-04-03T13:20:58Z</time>
      </trkpt>
      <trkpt lat="47.72707" lon="3.5704">
        <ele>239.5</ele>
        <time>2022-04-03T13:21:00Z</time>
      </trkpt>
      <trkpt lat="47.72707" lon="3.5704">
        <ele>239.5</ele>
        <time>2022-04-03T13:21:01Z</time>
      </trkpt>
      <trkpt lat="47.72707" lon="3.57041">
        <ele>239.5</ele>
        <time>2022-04-03T13:21:02Z</time>
      </trkpt>
      <trkpt lat="47.72707" lon="3.57042">
        <ele>239.5</ele>
        <time>2022-04-03T13:21:03Z</time>
      </trkpt>
      <trkpt lat="47.72707" lon="3.57042">
        <ele>239.5</ele>
        <time>2022-04-03T13:21:04Z</time>
      </trkpt>
      <trkpt lat="47.72707" lon="3.57042">
        <ele>239.5</ele>
        <time>2022-04-03T13:21:05Z</time>
      </trkpt>
      <trkpt lat="47.72708" lon="3.57043">
        <ele>239.5</ele>
        <time>2022-04-03T13:21:06Z</time>
      </trkpt>
      <trkpt lat="47.72708" lon="3.57043">
        <ele>239.5</ele>
        <time>2022-04-03T13:21:07Z</time>
      </trkpt>
      <trkpt lat="47.72708" lon="3.57044">
        <ele>239.5</ele>
        <time>2022-04-03T13:21:08Z</time>
      </trkpt>
      <trkpt lat="47.72708" lon="3.57044">
        <ele>239.5</ele>
        <time>2022-04-03T13:21:09Z</time>
      </trkpt>
      <trkpt lat="47.72708" lon="3.57044">
        <ele>239.5</ele>
        <time>2022-04-03T13:21:10Z</time>
      </trkpt>
      <trkpt lat="47.72708" lon="3.57044">
        <ele>239.5</ele>
        <time>2022-04-03T13:21:11Z</time>
      </trkpt>
      <trkpt lat="47.72708" lon="3.57044">
        <ele>239.5</ele>
        <time>2022-04-03T13:21:12Z</time>
      </trkpt>
      <trkpt lat="47.72708" lon="3.57045">
        <ele>239.5</ele>
        <time>2022-04-03T13:21:13Z</time>
      </trkpt>
      <trkpt lat="47.72708" lon="3.57045">
        <ele>239.5</ele>
        <time>2022-04-03T13:21:14Z</time>
      </trkpt>
      <trkpt lat="47.72708" lon="3.57045">
        <ele>239.5</ele>
        <time>2022-04-03T13:21:15Z</time>
      </trkpt>
      <trkpt lat="47.72708" lon="3.57044">
        <ele>239.5</ele>
        <time>2022-04-03T13:21:16Z</time>
      </trkpt>
      <trkpt lat="47.72708" lon="3.57044">
        <ele>239.5</ele>
        <time>2022-04-03T13:21:17Z</time>
      </trkpt>
      <trkpt lat="47.72708" lon="3.57044">
        <ele>239.5</ele>
        <time>2022-04-03T13:21:18Z</time>
      </trkpt>
      <trkpt lat="47.72708" lon="3.57043">
        <ele>239.5</ele>
        <time>2022-04-03T13:21:19Z</time>
      </trkpt>
      <trkpt lat="47.72709" lon="3.57042">
        <ele>239.5</ele>
        <time>2022-04-03T13:21:20Z</time>
      </trkpt>
      <trkpt lat="47.72709" lon="3.57042">
        <ele>239.5</ele>
        <time>2022-04-03T13:21:21Z</time>
      </trkpt>
      <trkpt lat="47.72709" lon="3.57042">
        <ele>239.5</ele>
        <time>2022-04-03T13:21:22Z</time>
      </trkpt>
      <trkpt lat="47.72709" lon="3.57041">
        <ele>239.5</ele>
        <time>2022-04-03T13:21:23Z</time>
      </trkpt>
      <trkpt lat="47.72709" lon="3.57041">
        <ele>239.5</ele>
        <time>2022-04-03T13:21:24Z</time>
      </trkpt>
      <trkpt lat="47.72709" lon="3.5704">
        <ele>239.5</ele>
        <time>2022-04-03T13:21:25Z</time>
      </trkpt>
      <trkpt lat="47.72708" lon="3.5704">
        <ele>239.5</ele>
        <time>2022-04-03T13:21:26Z</time>
      </trkpt>
      <trkpt lat="47.72708" lon="3.5704">
        <ele>239.5</ele>
        <time>2022-04-03T13:21:27Z</time>
      </trkpt>
      <trkpt lat="47.72708" lon="3.57039">
        <ele>239.5</ele>
        <time>2022-04-03T13:21:28Z</time>
      </trkpt>
      <trkpt lat="47.72708" lon="3.57039">
        <ele>239.5</ele>
        <time>2022-04-03T13:21:29Z</time>
      </trkpt>
      <trkpt lat="47.72708" lon="3.57039">
        <ele>239.5</ele>
        <time>2022-04-03T13:21:30Z</time>
      </trkpt>
      <trkpt lat="47.72707" lon="3.57039">
        <ele>239.5</ele>
        <time>2022-04-03T13:21:31Z</time>
      </trkpt>
      <trkpt lat="47.72707" lon="3.57039">
        <ele>239.5</ele>
        <time>2022-04-03T13:21:32Z</time>
      </trkpt>
      <trkpt lat="47.72707" lon="3.57039">
        <ele>239.5</ele>
        <time>2022-04-03T13:21:33Z</time>
      </trkpt>
      <trkpt lat="47.72707" lon="3.57039">
        <ele>239.5</ele>
        <time>2022-04-03T13:21:34Z</time>
      </trkpt>
      <trkpt lat="47.72708" lon="3.57039">
        <ele>239.5</ele>
        <time>2022-04-03T13:21:35Z</time>
      </trkpt>
      <trkpt lat="47.72708" lon="3.57039">
        <ele>239.5</ele>
        <time>2022-04-03T13:21:36Z</time>
      </trkpt>
      <trkpt lat="47.72708" lon="3.5704">
        <ele>239.5</ele>
        <time>2022-04-03T13:21:37Z</time>
      </trkpt>
      <trkpt lat="47.72708" lon="3.5704">
        <ele>239.5</ele>
        <time>2022-04-03T13:21:38Z</time>
      </trkpt>
      <trkpt lat="47.72708" lon="3.5704">
        <ele>239.5</ele>
        <time>2022-04-03T13:21:39Z</time>
      </trkpt>
      <trkpt lat="47.72708" lon="3.5704">
        <ele>239.5</ele>
        <time>2022-04-03T13:21:40Z</time>
      </trkpt>
      <trkpt lat="47.72708" lon="3.5704">
        <ele>239.5</ele>
        <time>2022-04-03T13:21:41Z</time>
      </trkpt>
      <trkpt lat="47.72708" lon="3.5704">
        <ele>239.5</ele>
        <time>2022-04-03T13:21:42Z</time>
      </trkpt>
      <trkpt lat="47.72708" lon="3.5704">
        <ele>239.5</ele>
        <time>2022-04-03T13:21:43Z</time>
      </trkpt>
      <trkpt lat="47.72709" lon="3.5704">
        <ele>239.5</ele>
        <time>2022-04-03T13:21:44Z</time>
      </trkpt>
      <trkpt lat="47.72709" lon="3.5704">
        <ele>239.5</ele>
        <time>2022-04-03T13:21:45Z</time>
      </trkpt>
      <trkpt lat="47.72709" lon="3.57039">
        <ele>239.5</ele>
        <time>2022-04-03T13:21:46Z</time>
      </trkpt>
      <trkpt lat="47.72709" lon="3.57039">
        <ele>239.5</ele>
        <time>2022-04-03T13:21:47Z</time>
      </trkpt>
      <trkpt lat="47.72709" lon="3.57039">
        <ele>239.5</ele>
        <time>2022-04-03T13:21:48Z</time>
      </trkpt>
      <trkpt lat="47.72709" lon="3.57039">
        <ele>239.5</ele>
        <time>2022-04-03T13:21:49Z</time>
      </trkpt>
      <trkpt lat="47.72709" lon="3.57039">
        <ele>239.5</ele>
        <time>2022-04-03T13:21:50Z</time>
      </trkpt>
      <trkpt lat="47.72709" lon="3.57039">
        <ele>239.5</ele>
        <time>2022-04-03T13:21:51Z</time>
      </trkpt>
      <trkpt lat="47.72709" lon="3.57039">
        <ele>239.5</ele>
        <time>2022-04-03T13:21:52Z</time>
      </trkpt>
      <trkpt lat="47.72708" lon="3.57039">
        <ele>239.5</ele>
        <time>2022-04-03T13:21:53Z</time>
      </trkpt>
      <trkpt lat="47.72708" lon="3.57039">
        <ele>239.5</ele>
        <time>2022-04-03T13:21:54Z</time>
      </trkpt>
      <trkpt lat="47.72708" lon="3.57039">
        <ele>239.5</ele>
        <time>2022-04-03T13:21:55Z</time>
      </trkpt>
      <trkpt lat="47.72708" lon="3.57039">
        <ele>239.5</ele>
        <time>2022-04-03T13:21:56Z</time>
      </trkpt>
      <trkpt lat="47.72708" lon="3.57039">
        <ele>239.5</ele>
        <time>2022-04-03T13:21:57Z</time>
      </trkpt>
      <trkpt lat="47.72708" lon="3.57039">
        <ele>239.5</ele>
        <time>2022-04-03T13:21:58Z</time>
      </trkpt>
      <trkpt lat="47.72708" lon="3.57039">
        <ele>239.5</ele>
        <time>2022-04-03T13:21:59Z</time>
      </trkpt>
      <trkpt lat="47.72708" lon="3.57039">
        <ele>239.5</ele>
        <time>2022-04-03T13:22:00Z</time>
      </trkpt>
      <trkpt lat="47.72708" lon="3.57039">
        <ele>239.5</ele>
        <time>2022-04-03T13:22:01Z</time>
      </trkpt>
      <trkpt lat="47.72708" lon="3.57039">
        <ele>239.5</ele>
        <time>2022-04-03T13:22:02Z</time>
      </trkpt>
      <trkpt lat="47.72708" lon="3.57039">
        <ele>239.5</ele>
        <time>2022-04-03T13:22:03Z</time>
      </trkpt>
      <trkpt lat="47.72708" lon="3.57039">
        <ele>239.5</ele>
        <time>2022-04-03T13:22:04Z</time>
      </trkpt>
      <trkpt lat="47.72709" lon="3.57039">
        <ele>239.5</ele>
        <time>2022-04-03T13:22:05Z</time>
      </trkpt>
      <trkpt lat="47.72709" lon="3.57039">
        <ele>239.5</ele>
        <time>2022-04-03T13:22:06Z</time>
      </trkpt>
      <trkpt lat="47.72709" lon="3.5704">
        <ele>239.5</ele>
        <time>2022-04-03T13:22:07Z</time>
      </trkpt>
      <trkpt lat="47.72709" lon="3.5704">
        <ele>239.5</ele>
        <time>2022-04-03T13:22:08Z</time>
      </trkpt>
      <trkpt lat="47.72709" lon="3.5704">
        <ele>239.5</ele>
        <time>2022-04-03T13:22:09Z</time>
      </trkpt>
      <trkpt lat="47.7271" lon="3.5704">
        <ele>239.5</ele>
        <time>2022-04-03T13:22:10Z</time>
      </trkpt>
      <trkpt lat="47.7271" lon="3.5704">
        <ele>239.5</ele>
        <time>2022-04-03T13:22:11Z</time>
      </trkpt>
      <trkpt lat="47.7271" lon="3.5704">
        <ele>239.5</ele>
        <time>2022-04-03T13:22:12Z</time>
      </trkpt>
      <trkpt lat="47.7271" lon="3.5704">
        <ele>239.5</ele>
        <time>2022-04-03T13:22:13Z</time>
      </trkpt>
      <trkpt lat="47.7271" lon="3.5704">
        <ele>239.5</ele>
        <time>2022-04-03T13:22:14Z</time>
      </trkpt>
      <trkpt lat="47.7271" lon="3.5704">
        <ele>239.5</ele>
        <time>2022-04-03T13:22:15Z</time>
      </trkpt>
      <trkpt lat="47.7271" lon="3.57039">
        <ele>239.5</ele>
        <time>2022-04-03T13:22:16Z</time>
      </trkpt>
      <trkpt lat="47.7271" lon="3.57039">
        <ele>239.5</ele>
        <time>2022-04-03T13:22:17Z</time>
      </trkpt>
      <trkpt lat="47.7271" lon="3.57039">
        <ele>239.5</ele>
        <time>2022-04-03T13:22:18Z</time>
      </trkpt>
      <trkpt lat="47.7271" lon="3.57039">
        <ele>239.5</ele>
        <time>2022-04-03T13:22:19Z</time>
      </trkpt>
      <trkpt lat="47.7271" lon="3.57039">
        <ele>239.5</ele>
        <time>2022-04-03T13:22:20Z</time>
      </trkpt>
      <trkpt lat="47.7271" lon="3.57039">
        <ele>239.5</ele>
        <time>2022-04-03T13:22:21Z</time>
      </trkpt>
      <trkpt lat="47.7271" lon="3.57039">
        <ele>239.5</ele>
        <time>2022-04-03T13:22:22Z</time>
      </trkpt>
      <trkpt lat="47.7271" lon="3.57039">
        <ele>239.5</ele>
        <time>2022-04-03T13:22:23Z</time>
      </trkpt>
      <trkpt lat="47.7271" lon="3.57039">
        <ele>239.5</ele>
        <time>2022-04-03T13:22:24Z</time>
      </trkpt>
      <trkpt lat="47.7271" lon="3.57039">
        <ele>239.5</ele>
        <time>2022-04-03T13:22:25Z</time>
      </trkpt>
      <trkpt lat="47.7271" lon="3.57039">
        <ele>239.5</ele>
        <time>2022-04-03T13:22:26Z</time>
      </trkpt>
      <trkpt lat="47.7271" lon="3.57039">
        <ele>239.5</ele>
        <time>2022-04-03T13:22:27Z</time>
      </trkpt>
      <trkpt lat="47.7271" lon="3.57039">
        <ele>239.5</ele>
        <time>2022-04-03T13:22:28Z</time>
      </trkpt>
      <trkpt lat="47.7271" lon="3.57039">
        <ele>239.5</ele>
        <time>2022-04-03T13:22:29Z</time>
      </trkpt>
      <trkpt lat="47.7271" lon="3.57039">
        <ele>239.5</ele>
        <time>2022-04-03T13:22:30Z</time>
      </trkpt>
      <trkpt lat="47.7271" lon="3.57039">
        <ele>239.5</ele>
        <time>2022-04-03T13:22:31Z</time>
      </trkpt>
      <trkpt lat="47.7271" lon="3.57039">
        <ele>239.5</ele>
        <time>2022-04-03T13:22:32Z</time>
      </trkpt>
      <trkpt lat="47.7271" lon="3.57039">
        <ele>239.5</ele>
        <time>2022-04-03T13:22:33Z</time>
      </trkpt>
      <trkpt lat="47.7271" lon="3.57038">
        <ele>239.5</ele>
        <time>2022-04-03T13:22:34Z</time>
      </trkpt>
      <trkpt lat="47.7271" lon="3.57038">
        <ele>239.5</ele>
        <time>2022-04-03T13:22:35Z</time>
      </trkpt>
      <trkpt lat="47.7271" lon="3.57038">
        <ele>239.5</ele>
        <time>2022-04-03T13:22:36Z</time>
      </trkpt>
      <trkpt lat="47.7271" lon="3.57038">
        <ele>239.5</ele>
        <time>2022-04-03T13:22:37Z</time>
      </trkpt>
      <trkpt lat="47.7271" lon="3.57038">
        <ele>239.5</ele>
        <time>2022-04-03T13:22:38Z</time>
      </trkpt>
      <trkpt lat="47.7271" lon="3.57038">
        <ele>239.5</ele>
        <time>2022-04-03T13:22:39Z</time>
      </trkpt>
      <trkpt lat="47.7271" lon="3.57038">
        <ele>239.5</ele>
        <time>2022-04-03T13:22:40Z</time>
      </trkpt>
      <trkpt lat="47.7271" lon="3.57038">
        <ele>239.5</ele>
        <time>2022-04-03T13:22:41Z</time>
      </trkpt>
      <trkpt lat="47.72709" lon="3.57037">
        <ele>239.5</ele>
        <time>2022-04-03T13:22:42Z</time>
      </trkpt>
      <trkpt lat="47.72709" lon="3.57037">
        <ele>239.5</ele>
        <time>2022-04-03T13:22:43Z</time>
      </trkpt>
      <trkpt lat="47.72709" lon="3.57037">
        <ele>239.5</ele>
        <time>2022-04-03T13:22:44Z</time>
      </trkpt>
      <trkpt lat="47.72709" lon="3.57038">
        <ele>239.5</ele>
        <time>2022-04-03T13:22:45Z</time>
      </trkpt>
      <trkpt lat="47.72709" lon="3.57038">
        <ele>239.5</ele>
        <time>2022-04-03T13:22:46Z</time>
      </trkpt>
      <trkpt lat="47.72709" lon="3.57038">
        <ele>239.5</ele>
        <time>2022-04-03T13:22:47Z</time>
      </trkpt>
      <trkpt lat="47.72708" lon="3.57038">
        <ele>239.5</ele>
        <time>2022-04-03T13:22:48Z</time>
      </trkpt>
      <trkpt lat="47.72708" lon="3.57038">
        <ele>239.5</ele>
        <time>2022-04-03T13:22:49Z</time>
      </trkpt>
      <trkpt lat="47.72708" lon="3.57039">
        <ele>239.5</ele>
        <time>2022-04-03T13:22:50Z</time>
      </trkpt>
      <trkpt lat="47.72708" lon="3.57039">
        <ele>239.5</ele>
        <time>2022-04-03T13:22:51Z</time>
      </trkpt>
      <trkpt lat="47.72708" lon="3.57039">
        <ele>239.5</ele>
        <time>2022-04-03T13:22:52Z</time>
      </trkpt>
      <trkpt lat="47.72708" lon="3.57039">
        <ele>239.5</ele>
        <time>2022-04-03T13:22:53Z</time>
      </trkpt>
      <trkpt lat="47.72708" lon="3.57039">
        <ele>239.5</ele>
        <time>2022-04-03T13:22:54Z</time>
      </trkpt>
      <trkpt lat="47.72708" lon="3.57039">
        <ele>239.5</ele>
        <time>2022-04-03T13:22:55Z</time>
      </trkpt>
      <trkpt lat="47.72708" lon="3.57039">
        <ele>239.5</ele>
        <time>2022-04-03T13:22:56Z</time>
      </trkpt>
      <trkpt lat="47.72708" lon="3.57039">
        <ele>239.5</ele>
        <time>2022-04-03T13:22:57Z</time>
      </trkpt>
      <trkpt lat="47.72708" lon="3.57039">
        <ele>239.5</ele>
        <time>2022-04-03T13:22:58Z</time>
      </trkpt>
      <trkpt lat="47.72708" lon="3.57039">
        <ele>239.5</ele>
        <time>2022-04-03T13:22:59Z</time>
      </trkpt>
      <trkpt lat="47.72708" lon="3.57039">
        <ele>239.5</ele>
        <time>2022-04-03T13:23:00Z</time>
      </trkpt>
      <trkpt lat="47.72709" lon="3.57039">
        <ele>239.5</ele>
        <time>2022-04-03T13:23:01Z</time>
      </trkpt>
      <trkpt lat="47.72709" lon="3.57039">
        <ele>239.5</ele>
        <time>2022-04-03T13:23:02Z</time>
      </trkpt>
      <trkpt lat="47.72709" lon="3.57039">
        <ele>239.5</ele>
        <time>2022-04-03T13:23:03Z</time>
      </trkpt>
      <trkpt lat="47.72709" lon="3.57039">
        <ele>239.5</ele>
        <time>2022-04-03T13:23:04Z</time>
      </trkpt>
      <trkpt lat="47.72709" lon="3.57039">
        <ele>239.5</ele>
        <time>2022-04-03T13:23:05Z</time>
      </trkpt>
      <trkpt lat="47.72709" lon="3.57039">
        <ele>239.5</ele>
        <time>2022-04-03T13:23:06Z</time>
      </trkpt>
      <trkpt lat="47.72709" lon="3.57039">
        <ele>239.5</ele>
        <time>2022-04-03T13:23:07Z</time>
      </trkpt>
      <trkpt lat="47.72709" lon="3.57039">
        <ele>239.5</ele>
        <time>2022-04-03T13:23:08Z</time>
      </trkpt>
      <trkpt lat="47.72709" lon="3.57039">
        <ele>239.5</ele>
        <time>2022-04-03T13:23:09Z</time>
      </trkpt>
      <trkpt lat="47.72709" lon="3.57039">
        <ele>239.5</ele>
        <time>2022-04-03T13:23:10Z</time>
      </trkpt>
      <trkpt lat="47.72709" lon="3.57039">
        <ele>239.5</ele>
        <time>2022-04-03T13:23:11Z</time>
      </trkpt>
      <trkpt lat="47.72709" lon="3.57039">
        <ele>239.5</ele>
        <time>2022-04-03T13:23:12Z</time>
      </trkpt>
      <trkpt lat="47.72709" lon="3.5704">
        <ele>239.5</ele>
        <time>2022-04-03T13:23:13Z</time>
      </trkpt>
      <trkpt lat="47.72709" lon="3.5704">
        <ele>239.5</ele>
        <time>2022-04-03T13:23:14Z</time>
      </trkpt>
      <trkpt lat="47.72709" lon="3.57039">
        <ele>239.5</ele>
        <time>2022-04-03T13:23:15Z</time>
      </trkpt>
      <trkpt lat="47.72709" lon="3.57039">
        <ele>239.5</ele>
        <time>2022-04-03T13:23:16Z</time>
      </trkpt>
      <trkpt lat="47.72709" lon="3.57039">
        <ele>239.5</ele>
        <time>2022-04-03T13:23:17Z</time>
      </trkpt>
      <trkpt lat="47.72709" lon="3.57039">
        <ele>239.5</ele>
        <time>2022-04-03T13:23:18Z</time>
      </trkpt>
      <trkpt lat="47.72709" lon="3.57039">
        <ele>239.5</ele>
        <time>2022-04-03T13:23:19Z</time>
      </trkpt>
      <trkpt lat="47.72709" lon="3.57039">
        <ele>239.5</ele>
        <time>2022-04-03T13:23:20Z</time>
      </trkpt>
      <trkpt lat="47.72709" lon="3.57039">
        <ele>239.5</ele>
        <time>2022-04-03T13:23:21Z</time>
      </trkpt>
      <trkpt lat="47.72709" lon="3.57039">
        <ele>239.5</ele>
        <time>2022-04-03T13:23:22Z</time>
      </trkpt>
      <trkpt lat="47.72709" lon="3.57038">
        <ele>239.5</ele>
        <time>2022-04-03T13:23:23Z</time>
      </trkpt>
      <trkpt lat="47.72709" lon="3.57038">
        <ele>239.5</ele>
        <time>2022-04-03T13:23:24Z</time>
      </trkpt>
      <trkpt lat="47.72709" lon="3.57038">
        <ele>239.5</ele>
        <time>2022-04-03T13:23:25Z</time>
      </trkpt>
      <trkpt lat="47.72709" lon="3.57038">
        <ele>239.5</ele>
        <time>2022-04-03T13:23:26Z</time>
      </trkpt>
      <trkpt lat="47.72709" lon="3.57038">
        <ele>239.5</ele>
        <time>2022-04-03T13:23:27Z</time>
      </trkpt>
      <trkpt lat="47.72709" lon="3.57038">
        <ele>239.5</ele>
        <time>2022-04-03T13:23:28Z</time>
      </trkpt>
      <trkpt lat="47.72709" lon="3.57038">
        <ele>239.5</ele>
        <time>2022-04-03T13:23:29Z</time>
      </trkpt>
      <trkpt lat="47.72709" lon="3.57038">
        <ele>239.5</ele>
        <time>2022-04-03T13:23:30Z</time>
      </trkpt>
      <trkpt lat="47.72709" lon="3.57038">
        <ele>239.5</ele>
        <time>2022-04-03T13:23:31Z</time>
      </trkpt>
      <trkpt lat="47.72709" lon="3.57038">
        <ele>239.5</ele>
        <time>2022-04-03T13:23:32Z</time>
      </trkpt>
      <trkpt lat="47.72709" lon="3.57038">
        <ele>239.5</ele>
        <time>2022-04-03T13:23:33Z</time>
      </trkpt>
      <trkpt lat="47.72708" lon="3.57038">
        <ele>239.5</ele>
        <time>2022-04-03T13:23:34Z</time>
      </trkpt>
      <trkpt lat="47.72708" lon="3.57038">
        <ele>239.5</ele>
        <time>2022-04-03T13:23:35Z</time>
      </trkpt>
      <trkpt lat="47.72708" lon="3.57038">
        <ele>239.5</ele>
        <time>2022-04-03T13:23:36Z</time>
      </trkpt>
      <trkpt lat="47.72708" lon="3.57038">
        <ele>239.5</ele>
        <time>2022-04-03T13:23:37Z</time>
      </trkpt>
      <trkpt lat="47.72708" lon="3.57038">
        <ele>239.5</ele>
        <time>2022-04-03T13:23:39Z</time>
      </trkpt>
      <trkpt lat="47.72708" lon="3.57038">
        <ele>239.5</ele>
        <time>2022-04-03T13:23:40Z</time>
      </trkpt>
      <trkpt lat="47.72707" lon="3.5704">
        <ele>239.5</ele>
        <time>2022-04-03T13:23:42Z</time>
      </trkpt>
      <trkpt lat="47.72707" lon="3.5704">
        <ele>239.5</ele>
        <time>2022-04-03T13:23:43Z</time>
      </trkpt>
      <trkpt lat="47.72707" lon="3.57041">
        <ele>239.5</ele>
        <time>2022-04-03T13:23:44Z</time>
      </trkpt>
      <trkpt lat="47.72707" lon="3.57041">
        <ele>239.5</ele>
        <time>2022-04-03T13:23:45Z</time>
      </trkpt>
      <trkpt lat="47.72707" lon="3.57041">
        <ele>239.5</ele>
        <time>2022-04-03T13:23:46Z</time>
      </trkpt>
      <trkpt lat="47.72707" lon="3.57042">
        <ele>239.5</ele>
        <time>2022-04-03T13:23:47Z</time>
      </trkpt>
      <trkpt lat="47.72707" lon="3.57041">
        <ele>239.5</ele>
        <time>2022-04-03T13:23:48Z</time>
      </trkpt>
      <trkpt lat="47.72707" lon="3.57041">
        <ele>239.5</ele>
        <time>2022-04-03T13:23:49Z</time>
      </trkpt>
      <trkpt lat="47.72707" lon="3.57041">
        <ele>239.5</ele>
        <time>2022-04-03T13:23:50Z</time>
      </trkpt>
      <trkpt lat="47.72707" lon="3.57041">
        <ele>239.5</ele>
        <time>2022-04-03T13:23:51Z</time>
      </trkpt>
      <trkpt lat="47.72707" lon="3.57041">
        <ele>239.5</ele>
        <time>2022-04-03T13:23:52Z</time>
      </trkpt>
      <trkpt lat="47.72707" lon="3.57041">
        <ele>239.5</ele>
        <time>2022-04-03T13:23:53Z</time>
      </trkpt>
      <trkpt lat="47.72707" lon="3.57041">
        <ele>239.5</ele>
        <time>2022-04-03T13:23:54Z</time>
      </trkpt>
      <trkpt lat="47.72707" lon="3.5704">
        <ele>239.5</ele>
        <time>2022-04-03T13:23:56Z</time>
      </trkpt>
      <trkpt lat="47.72707" lon="3.5704">
        <ele>239.5</ele>
        <time>2022-04-03T13:23:57Z</time>
      </trkpt>
      <trkpt lat="47.72708" lon="3.5704">
        <ele>239.5</ele>
        <time>2022-04-03T13:23:58Z</time>
      </trkpt>
      <trkpt lat="47.72708" lon="3.57041">
        <ele>239.5</ele>
        <time>2022-04-03T13:24:00Z</time>
      </trkpt>
      <trkpt lat="47.72708" lon="3.57041">
        <ele>239.5</ele>
        <time>2022-04-03T13:24:01Z</time>
      </trkpt>
      <trkpt lat="47.72708" lon="3.57042">
        <ele>239.5</ele>
        <time>2022-04-03T13:24:02Z</time>
      </trkpt>
      <trkpt lat="47.72708" lon="3.57042">
        <ele>239.5</ele>
        <time>2022-04-03T13:24:03Z</time>
      </trkpt>
      <trkpt lat="47.72708" lon="3.57042">
        <ele>239.5</ele>
        <time>2022-04-03T13:24:04Z</time>
      </trkpt>
      <trkpt lat="47.72708" lon="3.57042">
        <ele>239.5</ele>
        <time>2022-04-03T13:24:05Z</time>
      </trkpt>
      <trkpt lat="47.72708" lon="3.57041">
        <ele>239.5</ele>
        <time>2022-04-03T13:24:06Z</time>
      </trkpt>
      <trkpt lat="47.72708" lon="3.57041">
        <ele>239.5</ele>
        <time>2022-04-03T13:24:07Z</time>
      </trkpt>
      <trkpt lat="47.72708" lon="3.57041">
        <ele>239.5</ele>
        <time>2022-04-03T13:24:08Z</time>
      </trkpt>
      <trkpt lat="47.72708" lon="3.57041">
        <ele>239.5</ele>
        <time>2022-04-03T13:24:09Z</time>
      </trkpt>
      <trkpt lat="47.72708" lon="3.57041">
        <ele>239.5</ele>
        <time>2022-04-03T13:24:10Z</time>
      </trkpt>
      <trkpt lat="47.72708" lon="3.57041">
        <ele>239.5</ele>
        <time>2022-04-03T13:24:11Z</time>
      </trkpt>
      <trkpt lat="47.72708" lon="3.57041">
        <ele>239.5</ele>
        <time>2022-04-03T13:24:12Z</time>
      </trkpt>
      <trkpt lat="47.72709" lon="3.57041">
        <ele>239.5</ele>
        <time>2022-04-03T13:24:13Z</time>
      </trkpt>
      <trkpt lat="47.72709" lon="3.57041">
        <ele>239.5</ele>
        <time>2022-04-03T13:24:14Z</time>
      </trkpt>
      <trkpt lat="47.72709" lon="3.5704">
        <ele>239.5</ele>
        <time>2022-04-03T13:24:15Z</time>
      </trkpt>
      <trkpt lat="47.72709" lon="3.5704">
        <ele>239.5</ele>
        <time>2022-04-03T13:24:16Z</time>
      </trkpt>
      <trkpt lat="47.72709" lon="3.5704">
        <ele>239.5</ele>
        <time>2022-04-03T13:24:17Z</time>
      </trkpt>
      <trkpt lat="47.72709" lon="3.5704">
        <ele>239.5</ele>
        <time>2022-04-03T13:24:18Z</time>
      </trkpt>
      <trkpt lat="47.72709" lon="3.5704">
        <ele>239.5</ele>
        <time>2022-04-03T13:24:19Z</time>
      </trkpt>
      <trkpt lat="47.72709" lon="3.57039">
        <ele>239.5</ele>
        <time>2022-04-03T13:24:20Z</time>
      </trkpt>
      <trkpt lat="47.72709" lon="3.57039">
        <ele>239.5</ele>
        <time>2022-04-03T13:24:21Z</time>
      </trkpt>
      <trkpt lat="47.72709" lon="3.57039">
        <ele>239.5</ele>
        <time>2022-04-03T13:24:22Z</time>
      </trkpt>
      <trkpt lat="47.72709" lon="3.57038">
        <ele>239.5</ele>
        <time>2022-04-03T13:24:23Z</time>
      </trkpt>
      <trkpt lat="47.72709" lon="3.57039">
        <ele>239.5</ele>
        <time>2022-04-03T13:24:24Z</time>
      </trkpt>
      <trkpt lat="47.72709" lon="3.57039">
        <ele>239.5</ele>
        <time>2022-04-03T13:24:25Z</time>
      </trkpt>
      <trkpt lat="47.72709" lon="3.57039">
        <ele>239.5</ele>
        <time>2022-04-03T13:24:26Z</time>
      </trkpt>
      <trkpt lat="47.72709" lon="3.57039">
        <ele>239.5</ele>
        <time>2022-04-03T13:24:27Z</time>
      </trkpt>
      <trkpt lat="47.72709" lon="3.57039">
        <ele>239.5</ele>
        <time>2022-04-03T13:24:28Z</time>
      </trkpt>
      <trkpt lat="47.72709" lon="3.5704">
        <ele>239.5</ele>
        <time>2022-04-03T13:24:29Z</time>
      </trkpt>
      <trkpt lat="47.72709" lon="3.5704">
        <ele>239.5</ele>
        <time>2022-04-03T13:24:30Z</time>
      </trkpt>
      <trkpt lat="47.72709" lon="3.5704">
        <ele>239.5</ele>
        <time>2022-04-03T13:24:31Z</time>
      </trkpt>
      <trkpt lat="47.72709" lon="3.5704">
        <ele>239.5</ele>
        <time>2022-04-03T13:24:32Z</time>
      </trkpt>
      <trkpt lat="47.72709" lon="3.5704">
        <ele>239.5</ele>
        <time>2022-04-03T13:24:33Z</time>
      </trkpt>
      <trkpt lat="47.7271" lon="3.5704">
        <ele>239.5</ele>
        <time>2022-04-03T13:24:34Z</time>
      </trkpt>
      <trkpt lat="47.7271" lon="3.5704">
        <ele>239.5</ele>
        <time>2022-04-03T13:24:35Z</time>
      </trkpt>
      <trkpt lat="47.72709" lon="3.5704">
        <ele>239.5</ele>
        <time>2022-04-03T13:24:36Z</time>
      </trkpt>
      <trkpt lat="47.72709" lon="3.5704">
        <ele>239.5</ele>
        <time>2022-04-03T13:24:37Z</time>
      </trkpt>
      <trkpt lat="47.72709" lon="3.5704">
        <ele>239.5</ele>
        <time>2022-04-03T13:24:38Z</time>
      </trkpt>
      <trkpt lat="47.72709" lon="3.5704">
        <ele>239.5</ele>
        <time>2022-04-03T13:24:39Z</time>
      </trkpt>
      <trkpt lat="47.72709" lon="3.5704">
        <ele>239.5</ele>
        <time>2022-04-03T13:24:40Z</time>
      </trkpt>
      <trkpt lat="47.72709" lon="3.5704">
        <ele>239.5</ele>
        <time>2022-04-03T13:24:41Z</time>
      </trkpt>
      <trkpt lat="47.72709" lon="3.5704">
        <ele>239.5</ele>
        <time>2022-04-03T13:24:43Z</time>
      </trkpt>
      <trkpt lat="47.72709" lon="3.5704">
        <ele>239.5</ele>
        <time>2022-04-03T13:24:44Z</time>
      </trkpt>
      <trkpt lat="47.72709" lon="3.57041">
        <ele>239.5</ele>
        <time>2022-04-03T13:24:45Z</time>
      </trkpt>
      <trkpt lat="47.72709" lon="3.57041">
        <ele>239.5</ele>
        <time>2022-04-03T13:24:46Z</time>
      </trkpt>
      <trkpt lat="47.72709" lon="3.57041">
        <ele>239.5</ele>
        <time>2022-04-03T13:24:47Z</time>
      </trkpt>
      <trkpt lat="47.72709" lon="3.57042">
        <ele>239.5</ele>
        <time>2022-04-03T13:24:48Z</time>
      </trkpt>
      <trkpt lat="47.72709" lon="3.57042">
        <ele>239.5</ele>
        <time>2022-04-03T13:24:49Z</time>
      </trkpt>
      <trkpt lat="47.72709" lon="3.57042">
        <ele>239.5</ele>
        <time>2022-04-03T13:24:51Z</time>
      </trkpt>
      <trkpt lat="47.72709" lon="3.57042">
        <ele>239.5</ele>
        <time>2022-04-03T13:24:52Z</time>
      </trkpt>
      <trkpt lat="47.72709" lon="3.57042">
        <ele>239.5</ele>
        <time>2022-04-03T13:24:53Z</time>
      </trkpt>
      <trkpt lat="47.72709" lon="3.57042">
        <ele>239.5</ele>
        <time>2022-04-03T13:24:54Z</time>
      </trkpt>
      <trkpt lat="47.72709" lon="3.57042">
        <ele>239.5</ele>
        <time>2022-04-03T13:24:55Z</time>
      </trkpt>
      <trkpt lat="47.72709" lon="3.57042">
        <ele>239.5</ele>
        <time>2022-04-03T13:24:56Z</time>
      </trkpt>
      <trkpt lat="47.72709" lon="3.57042">
        <ele>239.5</ele>
        <time>2022-04-03T13:24:57Z</time>
      </trkpt>
      <trkpt lat="47.72709" lon="3.57042">
        <ele>239.5</ele>
        <time>2022-04-03T13:24:58Z</time>
      </trkpt>
      <trkpt lat="47.72708" lon="3.57042">
        <ele>239.5</ele>
        <time>2022-04-03T13:24:59Z</time>
      </trkpt>
      <trkpt lat="47.72708" lon="3.57043">
        <ele>239.5</ele>
        <time>2022-04-03T13:25:00Z</time>
      </trkpt>
      <trkpt lat="47.72708" lon="3.57043">
        <ele>239.5</ele>
        <time>2022-04-03T13:25:01Z</time>
      </trkpt>
      <trkpt lat="47.72708" lon="3.57043">
        <ele>239.5</ele>
        <time>2022-04-03T13:25:02Z</time>
      </trkpt>
      <trkpt lat="47.72708" lon="3.57043">
        <ele>239.5</ele>
        <time>2022-04-03T13:25:03Z</time>
      </trkpt>
      <trkpt lat="47.72708" lon="3.57042">
        <ele>239.5</ele>
        <time>2022-04-03T13:25:04Z</time>
      </trkpt>
      <trkpt lat="47.72707" lon="3.57042">
        <ele>239.5</ele>
        <time>2022-04-03T13:25:05Z</time>
      </trkpt>
      <trkpt lat="47.72707" lon="3.57042">
        <ele>239.5</ele>
        <time>2022-04-03T13:25:06Z</time>
      </trkpt>
      <trkpt lat="47.72707" lon="3.57042">
        <ele>239.5</ele>
        <time>2022-04-03T13:25:07Z</time>
      </trkpt>
      <trkpt lat="47.72707" lon="3.57041">
        <ele>239.5</ele>
        <time>2022-04-03T13:25:08Z</time>
      </trkpt>
      <trkpt lat="47.72707" lon="3.57041">
        <ele>239.5</ele>
        <time>2022-04-03T13:25:09Z</time>
      </trkpt>
      <trkpt lat="47.72707" lon="3.57041">
        <ele>239.5</ele>
        <time>2022-04-03T13:25:10Z</time>
      </trkpt>
      <trkpt lat="47.72707" lon="3.57041">
        <ele>239.5</ele>
        <time>2022-04-03T13:25:11Z</time>
      </trkpt>
      <trkpt lat="47.72707" lon="3.5704">
        <ele>239.5</ele>
        <time>2022-04-03T13:25:12Z</time>
      </trkpt>
      <trkpt lat="47.72707" lon="3.5704">
        <ele>239.5</ele>
        <time>2022-04-03T13:25:13Z</time>
      </trkpt>
      <trkpt lat="47.72707" lon="3.5704">
        <ele>239.5</ele>
        <time>2022-04-03T13:25:14Z</time>
      </trkpt>
      <trkpt lat="47.72707" lon="3.5704">
        <ele>239.5</ele>
        <time>2022-04-03T13:25:15Z</time>
      </trkpt>
      <trkpt lat="47.72707" lon="3.5704">
        <ele>239.5</ele>
        <time>2022-04-03T13:25:16Z</time>
      </trkpt>
      <trkpt lat="47.72707" lon="3.5704">
        <ele>239.5</ele>
        <time>2022-04-03T13:25:17Z</time>
      </trkpt>
      <trkpt lat="47.72707" lon="3.5704">
        <ele>239.5</ele>
        <time>2022-04-03T13:25:18Z</time>
      </trkpt>
      <trkpt lat="47.72707" lon="3.57039">
        <ele>239.5</ele>
        <time>2022-04-03T13:25:19Z</time>
      </trkpt>
      <trkpt lat="47.72708" lon="3.57037">
        <ele>239.5</ele>
        <time>2022-04-03T13:25:20Z</time>
      </trkpt>
      <trkpt lat="47.72708" lon="3.57037">
        <ele>239.5</ele>
        <time>2022-04-03T13:25:21Z</time>
      </trkpt>
      <trkpt lat="47.72707" lon="3.57036">
        <ele>239.5</ele>
        <time>2022-04-03T13:25:23Z</time>
      </trkpt>
      <trkpt lat="47.72707" lon="3.57036">
        <ele>239.5</ele>
        <time>2022-04-03T13:25:24Z</time>
      </trkpt>
      <trkpt lat="47.72708" lon="3.57035">
        <ele>239.5</ele>
        <time>2022-04-03T13:25:26Z</time>
      </trkpt>
      <trkpt lat="47.72708" lon="3.57033">
        <ele>239.5</ele>
        <time>2022-04-03T13:25:27Z</time>
      </trkpt>
      <trkpt lat="47.72709" lon="3.57033">
        <ele>239.5</ele>
        <time>2022-04-03T13:25:28Z</time>
      </trkpt>
      <trkpt lat="47.7271" lon="3.57033">
        <ele>239.5</ele>
        <time>2022-04-03T13:25:29Z</time>
      </trkpt>
      <trkpt lat="47.72709" lon="3.57033">
        <ele>239.5</ele>
        <time>2022-04-03T13:25:30Z</time>
      </trkpt>
      <trkpt lat="47.72709" lon="3.57033">
        <ele>239.5</ele>
        <time>2022-04-03T13:25:31Z</time>
      </trkpt>
      <trkpt lat="47.72709" lon="3.57033">
        <ele>239.5</ele>
        <time>2022-04-03T13:25:32Z</time>
      </trkpt>
      <trkpt lat="47.72709" lon="3.57033">
        <ele>239.5</ele>
        <time>2022-04-03T13:25:33Z</time>
      </trkpt>
      <trkpt lat="47.72709" lon="3.57032">
        <ele>239.5</ele>
        <time>2022-04-03T13:25:34Z</time>
      </trkpt>
      <trkpt lat="47.72709" lon="3.57032">
        <ele>239.5</ele>
        <time>2022-04-03T13:25:35Z</time>
      </trkpt>
      <trkpt lat="47.72709" lon="3.57032">
        <ele>239.5</ele>
        <time>2022-04-03T13:25:36Z</time>
      </trkpt>
      <trkpt lat="47.72709" lon="3.57032">
        <ele>239.5</ele>
        <time>2022-04-03T13:25:37Z</time>
      </trkpt>
      <trkpt lat="47.72709" lon="3.57032">
        <ele>239.5</ele>
        <time>2022-04-03T13:25:38Z</time>
      </trkpt>
      <trkpt lat="47.72709" lon="3.57032">
        <ele>239.5</ele>
        <time>2022-04-03T13:25:39Z</time>
      </trkpt>
      <trkpt lat="47.72709" lon="3.57032">
        <ele>239.5</ele>
        <time>2022-04-03T13:25:40Z</time>
      </trkpt>
      <trkpt lat="47.72709" lon="3.57032">
        <ele>239.5</ele>
        <time>2022-04-03T13:25:41Z</time>
      </trkpt>
      <trkpt lat="47.72709" lon="3.57032">
        <ele>239.5</ele>
        <time>2022-04-03T13:25:42Z</time>
      </trkpt>
      <trkpt lat="47.72709" lon="3.57032">
        <ele>239.5</ele>
        <time>2022-04-03T13:25:43Z</time>
      </trkpt>
      <trkpt lat="47.7271" lon="3.57033">
        <ele>239.5</ele>
        <time>2022-04-03T13:25:44Z</time>
      </trkpt>
      <trkpt lat="47.7271" lon="3.57033">
        <ele>239.5</ele>
        <time>2022-04-03T13:25:45Z</time>
      </trkpt>
      <trkpt lat="47.7271" lon="3.57033">
        <ele>239.5</ele>
        <time>2022-04-03T13:25:46Z</time>
      </trkpt>
      <trkpt lat="47.7271" lon="3.57033">
        <ele>239.5</ele>
        <time>2022-04-03T13:25:47Z</time>
      </trkpt>
      <trkpt lat="47.7271" lon="3.57033">
        <ele>239.5</ele>
        <time>2022-04-03T13:25:48Z</time>
      </trkpt>
      <trkpt lat="47.7271" lon="3.57033">
        <ele>239.5</ele>
        <time>2022-04-03T13:25:49Z</time>
      </trkpt>
      <trkpt lat="47.7271" lon="3.57034">
        <ele>239.5</ele>
        <time>2022-04-03T13:25:50Z</time>
      </trkpt>
      <trkpt lat="47.72709" lon="3.57034">
        <ele>239.5</ele>
        <time>2022-04-03T13:25:51Z</time>
      </trkpt>
      <trkpt lat="47.72709" lon="3.57034">
        <ele>239.5</ele>
        <time>2022-04-03T13:25:52Z</time>
      </trkpt>
      <trkpt lat="47.72708" lon="3.57035">
        <ele>239.5</ele>
        <time>2022-04-03T13:25:54Z</time>
      </trkpt>
      <trkpt lat="47.72708" lon="3.57037">
        <ele>239.5</ele>
        <time>2022-04-03T13:25:55Z</time>
      </trkpt>
      <trkpt lat="47.72708" lon="3.57037">
        <ele>239.5</ele>
        <time>2022-04-03T13:25:56Z</time>
      </trkpt>
      <trkpt lat="47.72707" lon="3.57038">
        <ele>239.5</ele>
        <time>2022-04-03T13:25:57Z</time>
      </trkpt>
      <trkpt lat="47.72707" lon="3.57039">
        <ele>239.5</ele>
        <time>2022-04-03T13:25:58Z</time>
      </trkpt>
      <trkpt lat="47.72706" lon="3.57039">
        <ele>239.5</ele>
        <time>2022-04-03T13:25:59Z</time>
      </trkpt>
      <trkpt lat="47.72706" lon="3.5704">
        <ele>239.5</ele>
        <time>2022-04-03T13:26:00Z</time>
      </trkpt>
      <trkpt lat="47.72707" lon="3.57042">
        <ele>239.5</ele>
        <time>2022-04-03T13:26:01Z</time>
      </trkpt>
      <trkpt lat="47.72707" lon="3.57042">
        <ele>239.5</ele>
        <time>2022-04-03T13:26:02Z</time>
      </trkpt>
      <trkpt lat="47.72707" lon="3.57042">
        <ele>239.5</ele>
        <time>2022-04-03T13:26:03Z</time>
      </trkpt>
      <trkpt lat="47.72707" lon="3.57043">
        <ele>239.5</ele>
        <time>2022-04-03T13:26:04Z</time>
      </trkpt>
      <trkpt lat="47.72707" lon="3.57043">
        <ele>239.5</ele>
        <time>2022-04-03T13:26:05Z</time>
      </trkpt>
      <trkpt lat="47.72707" lon="3.57043">
        <ele>239.5</ele>
        <time>2022-04-03T13:26:06Z</time>
      </trkpt>
      <trkpt lat="47.72707" lon="3.57043">
        <ele>239.5</ele>
        <time>2022-04-03T13:26:07Z</time>
      </trkpt>
      <trkpt lat="47.72707" lon="3.57043">
        <ele>239.5</ele>
        <time>2022-04-03T13:26:08Z</time>
      </trkpt>
      <trkpt lat="47.72707" lon="3.57043">
        <ele>239.5</ele>
        <time>2022-04-03T13:26:09Z</time>
      </trkpt>
      <trkpt lat="47.72707" lon="3.57043">
        <ele>239.5</ele>
        <time>2022-04-03T13:26:10Z</time>
      </trkpt>
      <trkpt lat="47.72707" lon="3.57043">
        <ele>239.5</ele>
        <time>2022-04-03T13:26:11Z</time>
      </trkpt>
      <trkpt lat="47.72707" lon="3.57043">
        <ele>239.5</ele>
        <time>2022-04-03T13:26:12Z</time>
      </trkpt>
      <trkpt lat="47.72707" lon="3.57043">
        <ele>239.5</ele>
        <time>2022-04-03T13:26:13Z</time>
      </trkpt>
      <trkpt lat="47.72708" lon="3.57043">
        <ele>239.5</ele>
        <time>2022-04-03T13:26:14Z</time>
      </trkpt>
      <trkpt lat="47.72708" lon="3.57043">
        <ele>239.5</ele>
        <time>2022-04-03T13:26:15Z</time>
      </trkpt>
      <trkpt lat="47.72708" lon="3.57044">
        <ele>239.5</ele>
        <time>2022-04-03T13:26:16Z</time>
      </trkpt>
      <trkpt lat="47.72708" lon="3.57044">
        <ele>239.5</ele>
        <time>2022-04-03T13:26:17Z</time>
      </trkpt>
      <trkpt lat="47.72708" lon="3.57044">
        <ele>239.5</ele>
        <time>2022-04-03T13:26:18Z</time>
      </trkpt>
      <trkpt lat="47.72708" lon="3.57044">
        <ele>239.5</ele>
        <time>2022-04-03T13:26:19Z</time>
      </trkpt>
      <trkpt lat="47.72708" lon="3.57044">
        <ele>239.5</ele>
        <time>2022-04-03T13:26:20Z</time>
      </trkpt>
      <trkpt lat="47.72708" lon="3.57044">
        <ele>239.5</ele>
        <time>2022-04-03T13:26:21Z</time>
      </trkpt>
      <trkpt lat="47.72708" lon="3.57043">
        <ele>239.5</ele>
        <time>2022-04-03T13:26:22Z</time>
      </trkpt>
      <trkpt lat="47.72708" lon="3.57043">
        <ele>239.5</ele>
        <time>2022-04-03T13:26:23Z</time>
      </trkpt>
      <trkpt lat="47.72708" lon="3.57042">
        <ele>239.5</ele>
        <time>2022-04-03T13:26:24Z</time>
      </trkpt>
      <trkpt lat="47.72708" lon="3.57042">
        <ele>239.5</ele>
        <time>2022-04-03T13:26:25Z</time>
      </trkpt>
      <trkpt lat="47.72708" lon="3.57041">
        <ele>239.5</ele>
        <time>2022-04-03T13:26:26Z</time>
      </trkpt>
      <trkpt lat="47.72708" lon="3.57041">
        <ele>239.4</ele>
        <time>2022-04-03T13:26:27Z</time>
      </trkpt>
      <trkpt lat="47.72708" lon="3.57041">
        <ele>239.4</ele>
        <time>2022-04-03T13:26:28Z</time>
      </trkpt>
      <trkpt lat="47.72709" lon="3.57041">
        <ele>239.4</ele>
        <time>2022-04-03T13:26:29Z</time>
      </trkpt>
      <trkpt lat="47.72709" lon="3.57041">
        <ele>239.4</ele>
        <time>2022-04-03T13:26:30Z</time>
      </trkpt>
      <trkpt lat="47.72709" lon="3.57041">
        <ele>239.4</ele>
        <time>2022-04-03T13:26:31Z</time>
      </trkpt>
      <trkpt lat="47.72709" lon="3.57041">
        <ele>239.4</ele>
        <time>2022-04-03T13:26:32Z</time>
      </trkpt>
      <trkpt lat="47.72709" lon="3.57041">
        <ele>239.4</ele>
        <time>2022-04-03T13:26:33Z</time>
      </trkpt>
      <trkpt lat="47.72709" lon="3.5704">
        <ele>239.4</ele>
        <time>2022-04-03T13:26:34Z</time>
      </trkpt>
      <trkpt lat="47.72709" lon="3.5704">
        <ele>239.4</ele>
        <time>2022-04-03T13:26:35Z</time>
      </trkpt>
      <trkpt lat="47.72708" lon="3.5704">
        <ele>239.4</ele>
        <time>2022-04-03T13:26:36Z</time>
      </trkpt>
      <trkpt lat="47.72708" lon="3.5704">
        <ele>239.4</ele>
        <time>2022-04-03T13:26:37Z</time>
      </trkpt>
      <trkpt lat="47.72708" lon="3.5704">
        <ele>239.4</ele>
        <time>2022-04-03T13:26:38Z</time>
      </trkpt>
      <trkpt lat="47.72708" lon="3.5704">
        <ele>239.4</ele>
        <time>2022-04-03T13:26:39Z</time>
      </trkpt>
      <trkpt lat="47.72708" lon="3.57039">
        <ele>239.4</ele>
        <time>2022-04-03T13:26:40Z</time>
      </trkpt>
      <trkpt lat="47.72708" lon="3.5704">
        <ele>239.4</ele>
        <time>2022-04-03T13:26:41Z</time>
      </trkpt>
      <trkpt lat="47.72708" lon="3.5704">
        <ele>239.4</ele>
        <time>2022-04-03T13:26:42Z</time>
      </trkpt>
      <trkpt lat="47.72708" lon="3.57039">
        <ele>239.4</ele>
        <time>2022-04-03T13:26:43Z</time>
      </trkpt>
      <trkpt lat="47.72708" lon="3.57039">
        <ele>239.4</ele>
        <time>2022-04-03T13:26:44Z</time>
      </trkpt>
      <trkpt lat="47.72708" lon="3.57039">
        <ele>239.4</ele>
        <time>2022-04-03T13:26:45Z</time>
      </trkpt>
      <trkpt lat="47.72708" lon="3.57038">
        <ele>239.4</ele>
        <time>2022-04-03T13:26:46Z</time>
      </trkpt>
      <trkpt lat="47.72708" lon="3.57038">
        <ele>239.4</ele>
        <time>2022-04-03T13:26:47Z</time>
      </trkpt>
      <trkpt lat="47.72708" lon="3.57038">
        <ele>239.4</ele>
        <time>2022-04-03T13:26:48Z</time>
      </trkpt>
      <trkpt lat="47.72708" lon="3.57038">
        <ele>239.4</ele>
        <time>2022-04-03T13:26:49Z</time>
      </trkpt>
      <trkpt lat="47.72708" lon="3.57038">
        <ele>239.4</ele>
        <time>2022-04-03T13:26:50Z</time>
      </trkpt>
      <trkpt lat="47.72708" lon="3.57038">
        <ele>239.4</ele>
        <time>2022-04-03T13:26:51Z</time>
      </trkpt>
      <trkpt lat="47.72708" lon="3.57038">
        <ele>239.4</ele>
        <time>2022-04-03T13:26:52Z</time>
      </trkpt>
      <trkpt lat="47.72708" lon="3.57038">
        <ele>239.4</ele>
        <time>2022-04-03T13:26:53Z</time>
      </trkpt>
      <trkpt lat="47.72708" lon="3.57038">
        <ele>239.4</ele>
        <time>2022-04-03T13:26:54Z</time>
      </trkpt>
      <trkpt lat="47.72708" lon="3.57038">
        <ele>239.4</ele>
        <time>2022-04-03T13:26:55Z</time>
      </trkpt>
      <trkpt lat="47.72708" lon="3.57038">
        <ele>239.4</ele>
        <time>2022-04-03T13:26:56Z</time>
      </trkpt>
      <trkpt lat="47.72708" lon="3.57038">
        <ele>239.4</ele>
        <time>2022-04-03T13:26:57Z</time>
      </trkpt>
      <trkpt lat="47.72708" lon="3.57037">
        <ele>239.4</ele>
        <time>2022-04-03T13:26:58Z</time>
      </trkpt>
      <trkpt lat="47.72708" lon="3.57037">
        <ele>239.4</ele>
        <time>2022-04-03T13:26:59Z</time>
      </trkpt>
      <trkpt lat="47.72708" lon="3.57037">
        <ele>239.4</ele>
        <time>2022-04-03T13:27:00Z</time>
      </trkpt>
      <trkpt lat="47.72708" lon="3.57037">
        <ele>239.4</ele>
        <time>2022-04-03T13:27:01Z</time>
      </trkpt>
      <trkpt lat="47.72708" lon="3.57036">
        <ele>239.4</ele>
        <time>2022-04-03T13:27:02Z</time>
      </trkpt>
      <trkpt lat="47.72707" lon="3.57036">
        <ele>239.4</ele>
        <time>2022-04-03T13:27:03Z</time>
      </trkpt>
      <trkpt lat="47.72707" lon="3.57036">
        <ele>239.4</ele>
        <time>2022-04-03T13:27:04Z</time>
      </trkpt>
      <trkpt lat="47.72707" lon="3.57036">
        <ele>239.4</ele>
        <time>2022-04-03T13:27:05Z</time>
      </trkpt>
      <trkpt lat="47.72708" lon="3.57037">
        <ele>239.4</ele>
        <time>2022-04-03T13:27:06Z</time>
      </trkpt>
      <trkpt lat="47.72708" lon="3.57037">
        <ele>239.4</ele>
        <time>2022-04-03T13:27:07Z</time>
      </trkpt>
      <trkpt lat="47.72708" lon="3.57038">
        <ele>239.4</ele>
        <time>2022-04-03T13:27:08Z</time>
      </trkpt>
      <trkpt lat="47.72708" lon="3.57038">
        <ele>239.4</ele>
        <time>2022-04-03T13:27:09Z</time>
      </trkpt>
      <trkpt lat="47.72708" lon="3.57039">
        <ele>239.4</ele>
        <time>2022-04-03T13:27:10Z</time>
      </trkpt>
      <trkpt lat="47.72708" lon="3.57039">
        <ele>239.4</ele>
        <time>2022-04-03T13:27:11Z</time>
      </trkpt>
      <trkpt lat="47.72708" lon="3.57039">
        <ele>239.4</ele>
        <time>2022-04-03T13:27:12Z</time>
      </trkpt>
      <trkpt lat="47.72708" lon="3.5704">
        <ele>239.4</ele>
        <time>2022-04-03T13:27:13Z</time>
      </trkpt>
      <trkpt lat="47.72709" lon="3.5704">
        <ele>239.4</ele>
        <time>2022-04-03T13:27:14Z</time>
      </trkpt>
      <trkpt lat="47.72709" lon="3.5704">
        <ele>239.4</ele>
        <time>2022-04-03T13:27:15Z</time>
      </trkpt>
      <trkpt lat="47.72709" lon="3.5704">
        <ele>239.4</ele>
        <time>2022-04-03T13:27:16Z</time>
      </trkpt>
      <trkpt lat="47.72709" lon="3.5704">
        <ele>239.4</ele>
        <time>2022-04-03T13:27:17Z</time>
      </trkpt>
      <trkpt lat="47.72709" lon="3.57041">
        <ele>239.4</ele>
        <time>2022-04-03T13:27:18Z</time>
      </trkpt>
      <trkpt lat="47.72709" lon="3.57041">
        <ele>239.4</ele>
        <time>2022-04-03T13:27:19Z</time>
      </trkpt>
      <trkpt lat="47.72709" lon="3.57041">
        <ele>239.4</ele>
        <time>2022-04-03T13:27:20Z</time>
      </trkpt>
      <trkpt lat="47.72709" lon="3.57041">
        <ele>239.4</ele>
        <time>2022-04-03T13:27:21Z</time>
      </trkpt>
      <trkpt lat="47.72709" lon="3.57041">
        <ele>239.4</ele>
        <time>2022-04-03T13:27:22Z</time>
      </trkpt>
      <trkpt lat="47.72709" lon="3.57041">
        <ele>239.4</ele>
        <time>2022-04-03T13:27:23Z</time>
      </trkpt>
      <trkpt lat="47.72709" lon="3.57041">
        <ele>239.4</ele>
        <time>2022-04-03T13:27:24Z</time>
      </trkpt>
      <trkpt lat="47.72709" lon="3.57041">
        <ele>239.4</ele>
        <time>2022-04-03T13:27:25Z</time>
      </trkpt>
      <trkpt lat="47.72709" lon="3.57041">
        <ele>239.4</ele>
        <time>2022-04-03T13:27:26Z</time>
      </trkpt>
      <trkpt lat="47.72709" lon="3.5704">
        <ele>239.4</ele>
        <time>2022-04-03T13:27:27Z</time>
      </trkpt>
      <trkpt lat="47.72708" lon="3.5704">
        <ele>239.4</ele>
        <time>2022-04-03T13:27:28Z</time>
      </trkpt>
      <trkpt lat="47.72708" lon="3.5704">
        <ele>239.4</ele>
        <time>2022-04-03T13:27:29Z</time>
      </trkpt>
      <trkpt lat="47.72708" lon="3.5704">
        <ele>239.4</ele>
        <time>2022-04-03T13:27:30Z</time>
      </trkpt>
      <trkpt lat="47.72708" lon="3.57039">
        <ele>239.4</ele>
        <time>2022-04-03T13:27:31Z</time>
      </trkpt>
      <trkpt lat="47.72708" lon="3.57039">
        <ele>239.4</ele>
        <time>2022-04-03T13:27:32Z</time>
      </trkpt>
      <trkpt lat="47.72708" lon="3.57039">
        <ele>239.4</ele>
        <time>2022-04-03T13:27:33Z</time>
      </trkpt>
      <trkpt lat="47.72708" lon="3.57038">
        <ele>239.4</ele>
        <time>2022-04-03T13:27:34Z</time>
      </trkpt>
      <trkpt lat="47.72708" lon="3.57039">
        <ele>239.4</ele>
        <time>2022-04-03T13:27:35Z</time>
      </trkpt>
      <trkpt lat="47.72708" lon="3.57039">
        <ele>239.4</ele>
        <time>2022-04-03T13:27:36Z</time>
      </trkpt>
      <trkpt lat="47.72708" lon="3.57039">
        <ele>239.4</ele>
        <time>2022-04-03T13:27:37Z</time>
      </trkpt>
      <trkpt lat="47.72708" lon="3.57039">
        <ele>239.4</ele>
        <time>2022-04-03T13:27:38Z</time>
      </trkpt>
      <trkpt lat="47.72708" lon="3.57039">
        <ele>239.4</ele>
        <time>2022-04-03T13:27:39Z</time>
      </trkpt>
      <trkpt lat="47.72708" lon="3.57039">
        <ele>239.4</ele>
        <time>2022-04-03T13:27:40Z</time>
      </trkpt>
      <trkpt lat="47.72707" lon="3.57039">
        <ele>239.4</ele>
        <time>2022-04-03T13:27:41Z</time>
      </trkpt>
      <trkpt lat="47.72707" lon="3.57039">
        <ele>239.4</ele>
        <time>2022-04-03T13:27:42Z</time>
      </trkpt>
      <trkpt lat="47.72707" lon="3.57039">
        <ele>239.4</ele>
        <time>2022-04-03T13:27:43Z</time>
      </trkpt>
      <trkpt lat="47.72707" lon="3.5704">
        <ele>239.3</ele>
        <time>2022-04-03T13:27:44Z</time>
      </trkpt>
      <trkpt lat="47.72707" lon="3.5704">
        <ele>239.3</ele>
        <time>2022-04-03T13:27:45Z</time>
      </trkpt>
      <trkpt lat="47.72707" lon="3.5704">
        <ele>239.3</ele>
        <time>2022-04-03T13:27:46Z</time>
      </trkpt>
      <trkpt lat="47.72707" lon="3.57041">
        <ele>239.3</ele>
        <time>2022-04-03T13:27:47Z</time>
      </trkpt>
      <trkpt lat="47.72707" lon="3.57041">
        <ele>239.3</ele>
        <time>2022-04-03T13:27:48Z</time>
      </trkpt>
      <trkpt lat="47.72707" lon="3.57041">
        <ele>239.3</ele>
        <time>2022-04-03T13:27:49Z</time>
      </trkpt>
      <trkpt lat="47.72707" lon="3.57041">
        <ele>239.3</ele>
        <time>2022-04-03T13:27:50Z</time>
      </trkpt>
      <trkpt lat="47.72707" lon="3.57041">
        <ele>239.3</ele>
        <time>2022-04-03T13:27:51Z</time>
      </trkpt>
      <trkpt lat="47.72708" lon="3.57042">
        <ele>239.3</ele>
        <time>2022-04-03T13:27:52Z</time>
      </trkpt>
      <trkpt lat="47.72708" lon="3.57042">
        <ele>239.3</ele>
        <time>2022-04-03T13:27:53Z</time>
      </trkpt>
      <trkpt lat="47.72708" lon="3.57042">
        <ele>239.3</ele>
        <time>2022-04-03T13:27:54Z</time>
      </trkpt>
      <trkpt lat="47.72708" lon="3.57042">
        <ele>239.3</ele>
        <time>2022-04-03T13:27:55Z</time>
      </trkpt>
      <trkpt lat="47.72708" lon="3.57042">
        <ele>239.3</ele>
        <time>2022-04-03T13:27:57Z</time>
      </trkpt>
      <trkpt lat="47.72708" lon="3.57042">
        <ele>239.3</ele>
        <time>2022-04-03T13:27:58Z</time>
      </trkpt>
      <trkpt lat="47.72708" lon="3.57042">
        <ele>239.3</ele>
        <time>2022-04-03T13:27:59Z</time>
      </trkpt>
      <trkpt lat="47.72708" lon="3.57042">
        <ele>239.3</ele>
        <time>2022-04-03T13:28:00Z</time>
      </trkpt>
      <trkpt lat="47.72708" lon="3.57042">
        <ele>239.3</ele>
        <time>2022-04-03T13:28:01Z</time>
      </trkpt>
      <trkpt lat="47.72708" lon="3.57042">
        <ele>239.3</ele>
        <time>2022-04-03T13:28:02Z</time>
      </trkpt>
      <trkpt lat="47.72708" lon="3.57042">
        <ele>239.3</ele>
        <time>2022-04-03T13:28:03Z</time>
      </trkpt>
      <trkpt lat="47.72707" lon="3.57041">
        <ele>239.3</ele>
        <time>2022-04-03T13:28:04Z</time>
      </trkpt>
      <trkpt lat="47.72706" lon="3.5704">
        <ele>239.3</ele>
        <time>2022-04-03T13:28:05Z</time>
      </trkpt>
      <trkpt lat="47.72706" lon="3.5704">
        <ele>239.3</ele>
        <time>2022-04-03T13:28:06Z</time>
      </trkpt>
      <trkpt lat="47.72706" lon="3.5704">
        <ele>239.3</ele>
        <time>2022-04-03T13:28:07Z</time>
      </trkpt>
      <trkpt lat="47.72706" lon="3.5704">
        <ele>239.3</ele>
        <time>2022-04-03T13:28:08Z</time>
      </trkpt>
      <trkpt lat="47.72706" lon="3.5704">
        <ele>239.3</ele>
        <time>2022-04-03T13:28:09Z</time>
      </trkpt>
      <trkpt lat="47.72706" lon="3.5704">
        <ele>239.3</ele>
        <time>2022-04-03T13:28:10Z</time>
      </trkpt>
      <trkpt lat="47.72706" lon="3.57039">
        <ele>239.3</ele>
        <time>2022-04-03T13:28:11Z</time>
      </trkpt>
      <trkpt lat="47.72706" lon="3.5704">
        <ele>239.3</ele>
        <time>2022-04-03T13:28:12Z</time>
      </trkpt>
      <trkpt lat="47.72706" lon="3.5704">
        <ele>239.3</ele>
        <time>2022-04-03T13:28:13Z</time>
      </trkpt>
      <trkpt lat="47.72706" lon="3.5704">
        <ele>239.3</ele>
        <time>2022-04-03T13:28:14Z</time>
      </trkpt>
      <trkpt lat="47.72706" lon="3.5704">
        <ele>239.3</ele>
        <time>2022-04-03T13:28:15Z</time>
      </trkpt>
      <trkpt lat="47.72706" lon="3.5704">
        <ele>239.3</ele>
        <time>2022-04-03T13:28:16Z</time>
      </trkpt>
      <trkpt lat="47.72706" lon="3.5704">
        <ele>239.3</ele>
        <time>2022-04-03T13:28:17Z</time>
      </trkpt>
      <trkpt lat="47.72706" lon="3.5704">
        <ele>239.3</ele>
        <time>2022-04-03T13:28:18Z</time>
      </trkpt>
      <trkpt lat="47.72707" lon="3.5704">
        <ele>239.3</ele>
        <time>2022-04-03T13:28:19Z</time>
      </trkpt>
      <trkpt lat="47.72707" lon="3.5704">
        <ele>239.3</ele>
        <time>2022-04-03T13:28:20Z</time>
      </trkpt>
      <trkpt lat="47.72707" lon="3.5704">
        <ele>239.3</ele>
        <time>2022-04-03T13:28:21Z</time>
      </trkpt>
      <trkpt lat="47.72706" lon="3.5704">
        <ele>239.3</ele>
        <time>2022-04-03T13:28:22Z</time>
      </trkpt>
      <trkpt lat="47.72706" lon="3.57041">
        <ele>239.3</ele>
        <time>2022-04-03T13:28:23Z</time>
      </trkpt>
      <trkpt lat="47.72706" lon="3.57041">
        <ele>239.3</ele>
        <time>2022-04-03T13:28:24Z</time>
      </trkpt>
      <trkpt lat="47.72706" lon="3.57042">
        <ele>239.3</ele>
        <time>2022-04-03T13:28:25Z</time>
      </trkpt>
      <trkpt lat="47.72706" lon="3.57042">
        <ele>239.3</ele>
        <time>2022-04-03T13:28:26Z</time>
      </trkpt>
      <trkpt lat="47.72707" lon="3.57042">
        <ele>239.3</ele>
        <time>2022-04-03T13:28:27Z</time>
      </trkpt>
      <trkpt lat="47.72707" lon="3.57043">
        <ele>239.3</ele>
        <time>2022-04-03T13:28:28Z</time>
      </trkpt>
      <trkpt lat="47.72707" lon="3.57043">
        <ele>239.3</ele>
        <time>2022-04-03T13:28:29Z</time>
      </trkpt>
      <trkpt lat="47.72707" lon="3.57043">
        <ele>239.3</ele>
        <time>2022-04-03T13:28:30Z</time>
      </trkpt>
      <trkpt lat="47.72707" lon="3.57044">
        <ele>239.2</ele>
        <time>2022-04-03T13:28:31Z</time>
      </trkpt>
      <trkpt lat="47.72708" lon="3.57044">
        <ele>239.2</ele>
        <time>2022-04-03T13:28:32Z</time>
      </trkpt>
      <trkpt lat="47.72707" lon="3.57043">
        <ele>239.2</ele>
        <time>2022-04-03T13:28:33Z</time>
      </trkpt>
      <trkpt lat="47.72707" lon="3.57043">
        <ele>239.2</ele>
        <time>2022-04-03T13:28:34Z</time>
      </trkpt>
      <trkpt lat="47.72708" lon="3.57043">
        <ele>239.2</ele>
        <time>2022-04-03T13:28:35Z</time>
      </trkpt>
      <trkpt lat="47.72708" lon="3.57043">
        <ele>239.2</ele>
        <time>2022-04-03T13:28:36Z</time>
      </trkpt>
      <trkpt lat="47.72708" lon="3.57043">
        <ele>239.2</ele>
        <time>2022-04-03T13:28:37Z</time>
      </trkpt>
      <trkpt lat="47.72708" lon="3.57043">
        <ele>239.2</ele>
        <time>2022-04-03T13:28:39Z</time>
      </trkpt>
      <trkpt lat="47.72709" lon="3.57043">
        <ele>239.2</ele>
        <time>2022-04-03T13:28:40Z</time>
      </trkpt>
      <trkpt lat="47.72709" lon="3.57042">
        <ele>239.2</ele>
        <time>2022-04-03T13:28:41Z</time>
      </trkpt>
      <trkpt lat="47.7271" lon="3.57041">
        <ele>239.2</ele>
        <time>2022-04-03T13:28:43Z</time>
      </trkpt>
      <trkpt lat="47.7271" lon="3.57039">
        <ele>239.2</ele>
        <time>2022-04-03T13:28:44Z</time>
      </trkpt>
      <trkpt lat="47.7271" lon="3.57038">
        <ele>239.2</ele>
        <time>2022-04-03T13:28:45Z</time>
      </trkpt>
      <trkpt lat="47.7271" lon="3.57038">
        <ele>239.2</ele>
        <time>2022-04-03T13:28:46Z</time>
      </trkpt>
      <trkpt lat="47.7271" lon="3.57038">
        <ele>239.2</ele>
        <time>2022-04-03T13:28:47Z</time>
      </trkpt>
      <trkpt lat="47.7271" lon="3.57038">
        <ele>239.2</ele>
        <time>2022-04-03T13:28:48Z</time>
      </trkpt>
      <trkpt lat="47.72709" lon="3.57038">
        <ele>239.2</ele>
        <time>2022-04-03T13:28:49Z</time>
      </trkpt>
      <trkpt lat="47.72709" lon="3.57038">
        <ele>239.2</ele>
        <time>2022-04-03T13:28:50Z</time>
      </trkpt>
      <trkpt lat="47.72709" lon="3.57038">
        <ele>239.2</ele>
        <time>2022-04-03T13:28:51Z</time>
      </trkpt>
      <trkpt lat="47.72709" lon="3.57038">
        <ele>239.2</ele>
        <time>2022-04-03T13:28:52Z</time>
      </trkpt>
      <trkpt lat="47.72709" lon="3.57038">
        <ele>239.2</ele>
        <time>2022-04-03T13:28:54Z</time>
      </trkpt>
      <trkpt lat="47.72709" lon="3.57038">
        <ele>239.2</ele>
        <time>2022-04-03T13:28:55Z</time>
      </trkpt>
      <trkpt lat="47.72709" lon="3.57038">
        <ele>239.2</ele>
        <time>2022-04-03T13:28:56Z</time>
      </trkpt>
      <trkpt lat="47.72709" lon="3.57038">
        <ele>239.2</ele>
        <time>2022-04-03T13:28:57Z</time>
      </trkpt>
      <trkpt lat="47.72709" lon="3.57038">
        <ele>239.2</ele>
        <time>2022-04-03T13:28:58Z</time>
      </trkpt>
      <trkpt lat="47.72709" lon="3.57039">
        <ele>239.2</ele>
        <time>2022-04-03T13:28:59Z</time>
      </trkpt>
      <trkpt lat="47.72709" lon="3.57039">
        <ele>239.2</ele>
        <time>2022-04-03T13:29:00Z</time>
      </trkpt>
      <trkpt lat="47.72709" lon="3.57039">
        <ele>239.2</ele>
        <time>2022-04-03T13:29:01Z</time>
      </trkpt>
      <trkpt lat="47.72709" lon="3.57039">
        <ele>239.2</ele>
        <time>2022-04-03T13:29:02Z</time>
      </trkpt>
      <trkpt lat="47.72709" lon="3.57039">
        <ele>239.2</ele>
        <time>2022-04-03T13:29:03Z</time>
      </trkpt>
      <trkpt lat="47.72709" lon="3.57039">
        <ele>239.2</ele>
        <time>2022-04-03T13:29:04Z</time>
      </trkpt>
      <trkpt lat="47.7271" lon="3.57039">
        <ele>239.2</ele>
        <time>2022-04-03T13:29:05Z</time>
      </trkpt>
      <trkpt lat="47.7271" lon="3.57039">
        <ele>239.2</ele>
        <time>2022-04-03T13:29:06Z</time>
      </trkpt>
      <trkpt lat="47.7271" lon="3.57039">
        <ele>239.2</ele>
        <time>2022-04-03T13:29:07Z</time>
      </trkpt>
      <trkpt lat="47.7271" lon="3.57039">
        <ele>239.2</ele>
        <time>2022-04-03T13:29:08Z</time>
      </trkpt>
      <trkpt lat="47.7271" lon="3.57039">
        <ele>239.2</ele>
        <time>2022-04-03T13:29:09Z</time>
      </trkpt>
      <trkpt lat="47.7271" lon="3.57039">
        <ele>239.2</ele>
        <time>2022-04-03T13:29:10Z</time>
      </trkpt>
      <trkpt lat="47.7271" lon="3.57039">
        <ele>239.2</ele>
        <time>2022-04-03T13:29:11Z</time>
      </trkpt>
      <trkpt lat="47.7271" lon="3.57039">
        <ele>239.2</ele>
        <time>2022-04-03T13:29:12Z</time>
      </trkpt>
      <trkpt lat="47.7271" lon="3.57039">
        <ele>239.2</ele>
        <time>2022-04-03T13:29:13Z</time>
      </trkpt>
      <trkpt lat="47.7271" lon="3.57039">
        <ele>239.2</ele>
        <time>2022-04-03T13:29:14Z</time>
      </trkpt>
      <trkpt lat="47.7271" lon="3.5704">
        <ele>239.1</ele>
        <time>2022-04-03T13:29:15Z</time>
      </trkpt>
      <trkpt lat="47.7271" lon="3.5704">
        <ele>239.1</ele>
        <time>2022-04-03T13:29:16Z</time>
      </trkpt>
      <trkpt lat="47.7271" lon="3.5704">
        <ele>239.1</ele>
        <time>2022-04-03T13:29:17Z</time>
      </trkpt>
      <trkpt lat="47.7271" lon="3.5704">
        <ele>239.1</ele>
        <time>2022-04-03T13:29:18Z</time>
      </trkpt>
      <trkpt lat="47.7271" lon="3.5704">
        <ele>239.1</ele>
        <time>2022-04-03T13:29:19Z</time>
      </trkpt>
      <trkpt lat="47.7271" lon="3.5704">
        <ele>239.1</ele>
        <time>2022-04-03T13:29:20Z</time>
      </trkpt>
      <trkpt lat="47.72709" lon="3.5704">
        <ele>239.1</ele>
        <time>2022-04-03T13:29:21Z</time>
      </trkpt>
      <trkpt lat="47.72709" lon="3.5704">
        <ele>239.1</ele>
        <time>2022-04-03T13:29:22Z</time>
      </trkpt>
      <trkpt lat="47.72709" lon="3.5704">
        <ele>239.1</ele>
        <time>2022-04-03T13:29:23Z</time>
      </trkpt>
      <trkpt lat="47.72709" lon="3.5704">
        <ele>239.1</ele>
        <time>2022-04-03T13:29:24Z</time>
      </trkpt>
      <trkpt lat="47.72709" lon="3.57041">
        <ele>239.1</ele>
        <time>2022-04-03T13:29:25Z</time>
      </trkpt>
      <trkpt lat="47.72709" lon="3.57041">
        <ele>239.1</ele>
        <time>2022-04-03T13:29:26Z</time>
      </trkpt>
      <trkpt lat="47.72709" lon="3.57041">
        <ele>239.1</ele>
        <time>2022-04-03T13:29:27Z</time>
      </trkpt>
      <trkpt lat="47.72709" lon="3.5704">
        <ele>239.1</ele>
        <time>2022-04-03T13:29:28Z</time>
      </trkpt>
      <trkpt lat="47.72709" lon="3.5704">
        <ele>239.1</ele>
        <time>2022-04-03T13:29:29Z</time>
      </trkpt>
      <trkpt lat="47.72708" lon="3.5704">
        <ele>239.1</ele>
        <time>2022-04-03T13:29:30Z</time>
      </trkpt>
      <trkpt lat="47.72708" lon="3.5704">
        <ele>239.1</ele>
        <time>2022-04-03T13:29:31Z</time>
      </trkpt>
      <trkpt lat="47.72708" lon="3.5704">
        <ele>239.1</ele>
        <time>2022-04-03T13:29:32Z</time>
      </trkpt>
      <trkpt lat="47.72708" lon="3.5704">
        <ele>239.1</ele>
        <time>2022-04-03T13:29:33Z</time>
      </trkpt>
      <trkpt lat="47.72708" lon="3.5704">
        <ele>239.1</ele>
        <time>2022-04-03T13:29:34Z</time>
      </trkpt>
      <trkpt lat="47.72708" lon="3.5704">
        <ele>239.1</ele>
        <time>2022-04-03T13:29:35Z</time>
      </trkpt>
      <trkpt lat="47.72708" lon="3.5704">
        <ele>239.1</ele>
        <time>2022-04-03T13:29:36Z</time>
      </trkpt>
      <trkpt lat="47.72708" lon="3.5704">
        <ele>239.1</ele>
        <time>2022-04-03T13:29:37Z</time>
      </trkpt>
      <trkpt lat="47.72708" lon="3.5704">
        <ele>239.1</ele>
        <time>2022-04-03T13:29:38Z</time>
      </trkpt>
      <trkpt lat="47.72708" lon="3.5704">
        <ele>239.1</ele>
        <time>2022-04-03T13:29:39Z</time>
      </trkpt>
      <trkpt lat="47.72709" lon="3.5704">
        <ele>239.1</ele>
        <time>2022-04-03T13:29:40Z</time>
      </trkpt>
      <trkpt lat="47.72709" lon="3.5704">
        <ele>239.1</ele>
        <time>2022-04-03T13:29:41Z</time>
      </trkpt>
      <trkpt lat="47.72709" lon="3.5704">
        <ele>239.1</ele>
        <time>2022-04-03T13:29:42Z</time>
      </trkpt>
      <trkpt lat="47.72709" lon="3.5704">
        <ele>239.1</ele>
        <time>2022-04-03T13:29:43Z</time>
      </trkpt>
      <trkpt lat="47.72709" lon="3.57039">
        <ele>239.1</ele>
        <time>2022-04-03T13:29:44Z</time>
      </trkpt>
      <trkpt lat="47.72709" lon="3.5704">
        <ele>239.1</ele>
        <time>2022-04-03T13:29:45Z</time>
      </trkpt>
      <trkpt lat="47.72709" lon="3.5704">
        <ele>239.1</ele>
        <time>2022-04-03T13:29:46Z</time>
      </trkpt>
      <trkpt lat="47.72709" lon="3.5704">
        <ele>239.1</ele>
        <time>2022-04-03T13:29:47Z</time>
      </trkpt>
      <trkpt lat="47.72709" lon="3.5704">
        <ele>239.1</ele>
        <time>2022-04-03T13:29:48Z</time>
      </trkpt>
      <trkpt lat="47.72709" lon="3.5704">
        <ele>239.1</ele>
        <time>2022-04-03T13:29:49Z</time>
      </trkpt>
      <trkpt lat="47.72709" lon="3.5704">
        <ele>239.1</ele>
        <time>2022-04-03T13:29:50Z</time>
      </trkpt>
      <trkpt lat="47.7271" lon="3.5704">
        <ele>239.1</ele>
        <time>2022-04-03T13:29:51Z</time>
      </trkpt>
      <trkpt lat="47.7271" lon="3.5704">
        <ele>239.1</ele>
        <time>2022-04-03T13:29:52Z</time>
      </trkpt>
      <trkpt lat="47.7271" lon="3.5704">
        <ele>239.1</ele>
        <time>2022-04-03T13:29:53Z</time>
      </trkpt>
      <trkpt lat="47.7271" lon="3.5704">
        <ele>239.1</ele>
        <time>2022-04-03T13:29:54Z</time>
      </trkpt>
      <trkpt lat="47.72711" lon="3.5704">
        <ele>239.1</ele>
        <time>2022-04-03T13:29:55Z</time>
      </trkpt>
      <trkpt lat="47.72711" lon="3.5704">
        <ele>239.1</ele>
        <time>2022-04-03T13:29:56Z</time>
      </trkpt>
      <trkpt lat="47.72711" lon="3.5704">
        <ele>239.1</ele>
        <time>2022-04-03T13:29:57Z</time>
      </trkpt>
      <trkpt lat="47.72711" lon="3.5704">
        <ele>239.1</ele>
        <time>2022-04-03T13:29:58Z</time>
      </trkpt>
      <trkpt lat="47.7271" lon="3.57041">
        <ele>239.1</ele>
        <time>2022-04-03T13:29:59Z</time>
      </trkpt>
      <trkpt lat="47.7271" lon="3.57041">
        <ele>239.1</ele>
        <time>2022-04-03T13:30:00Z</time>
      </trkpt>
      <trkpt lat="47.72711" lon="3.57041">
        <ele>239.1</ele>
        <time>2022-04-03T13:30:01Z</time>
      </trkpt>
      <trkpt lat="47.7271" lon="3.57041">
        <ele>239.1</ele>
        <time>2022-04-03T13:30:02Z</time>
      </trkpt>
      <trkpt lat="47.7271" lon="3.57041">
        <ele>239.1</ele>
        <time>2022-04-03T13:30:03Z</time>
      </trkpt>
      <trkpt lat="47.7271" lon="3.57042">
        <ele>239.1</ele>
        <time>2022-04-03T13:30:04Z</time>
      </trkpt>
      <trkpt lat="47.72709" lon="3.57042">
        <ele>239.1</ele>
        <time>2022-04-03T13:30:05Z</time>
      </trkpt>
      <trkpt lat="47.7271" lon="3.57041">
        <ele>239.1</ele>
        <time>2022-04-03T13:30:06Z</time>
      </trkpt>
      <trkpt lat="47.7271" lon="3.57041">
        <ele>239.1</ele>
        <time>2022-04-03T13:30:07Z</time>
      </trkpt>
      <trkpt lat="47.7271" lon="3.5704">
        <ele>239</ele>
        <time>2022-04-03T13:30:08Z</time>
      </trkpt>
      <trkpt lat="47.7271" lon="3.5704">
        <ele>239</ele>
        <time>2022-04-03T13:30:09Z</time>
      </trkpt>
      <trkpt lat="47.7271" lon="3.5704">
        <ele>239</ele>
        <time>2022-04-03T13:30:10Z</time>
      </trkpt>
      <trkpt lat="47.7271" lon="3.5704">
        <ele>239</ele>
        <time>2022-04-03T13:30:11Z</time>
      </trkpt>
      <trkpt lat="47.7271" lon="3.57039">
        <ele>239</ele>
        <time>2022-04-03T13:30:12Z</time>
      </trkpt>
      <trkpt lat="47.7271" lon="3.57039">
        <ele>239</ele>
        <time>2022-04-03T13:30:13Z</time>
      </trkpt>
      <trkpt lat="47.72709" lon="3.57039">
        <ele>239</ele>
        <time>2022-04-03T13:30:14Z</time>
      </trkpt>
      <trkpt lat="47.72709" lon="3.5704">
        <ele>239</ele>
        <time>2022-04-03T13:30:15Z</time>
      </trkpt>
      <trkpt lat="47.72709" lon="3.57039">
        <ele>239</ele>
        <time>2022-04-03T13:30:16Z</time>
      </trkpt>
      <trkpt lat="47.72709" lon="3.57039">
        <ele>239</ele>
        <time>2022-04-03T13:30:17Z</time>
      </trkpt>
      <trkpt lat="47.72709" lon="3.57039">
        <ele>239</ele>
        <time>2022-04-03T13:30:18Z</time>
      </trkpt>
      <trkpt lat="47.72709" lon="3.57039">
        <ele>239</ele>
        <time>2022-04-03T13:30:19Z</time>
      </trkpt>
      <trkpt lat="47.72709" lon="3.5704">
        <ele>239</ele>
        <time>2022-04-03T13:30:20Z</time>
      </trkpt>
      <trkpt lat="47.72709" lon="3.5704">
        <ele>239</ele>
        <time>2022-04-03T13:30:21Z</time>
      </trkpt>
      <trkpt lat="47.72709" lon="3.5704">
        <ele>239</ele>
        <time>2022-04-03T13:30:22Z</time>
      </trkpt>
      <trkpt lat="47.72709" lon="3.57039">
        <ele>239</ele>
        <time>2022-04-03T13:30:23Z</time>
      </trkpt>
      <trkpt lat="47.72709" lon="3.57039">
        <ele>239</ele>
        <time>2022-04-03T13:30:24Z</time>
      </trkpt>
      <trkpt lat="47.72709" lon="3.5704">
        <ele>239</ele>
        <time>2022-04-03T13:30:25Z</time>
      </trkpt>
      <trkpt lat="47.72709" lon="3.5704">
        <ele>239</ele>
        <time>2022-04-03T13:30:26Z</time>
      </trkpt>
      <trkpt lat="47.72709" lon="3.5704">
        <ele>239</ele>
        <time>2022-04-03T13:30:27Z</time>
      </trkpt>
      <trkpt lat="47.7271" lon="3.5704">
        <ele>239</ele>
        <time>2022-04-03T13:30:28Z</time>
      </trkpt>
      <trkpt lat="47.7271" lon="3.5704">
        <ele>239</ele>
        <time>2022-04-03T13:30:29Z</time>
      </trkpt>
      <trkpt lat="47.7271" lon="3.5704">
        <ele>239</ele>
        <time>2022-04-03T13:30:30Z</time>
      </trkpt>
      <trkpt lat="47.7271" lon="3.57039">
        <ele>239</ele>
        <time>2022-04-03T13:30:31Z</time>
      </trkpt>
      <trkpt lat="47.7271" lon="3.57039">
        <ele>239</ele>
        <time>2022-04-03T13:30:32Z</time>
      </trkpt>
      <trkpt lat="47.7271" lon="3.57039">
        <ele>239</ele>
        <time>2022-04-03T13:30:33Z</time>
      </trkpt>
      <trkpt lat="47.7271" lon="3.57039">
        <ele>239</ele>
        <time>2022-04-03T13:30:34Z</time>
      </trkpt>
      <trkpt lat="47.7271" lon="3.5704">
        <ele>239</ele>
        <time>2022-04-03T13:30:35Z</time>
      </trkpt>
      <trkpt lat="47.7271" lon="3.5704">
        <ele>239</ele>
        <time>2022-04-03T13:30:36Z</time>
      </trkpt>
      <trkpt lat="47.7271" lon="3.57041">
        <ele>239</ele>
        <time>2022-04-03T13:30:37Z</time>
      </trkpt>
      <trkpt lat="47.7271" lon="3.57041">
        <ele>239</ele>
        <time>2022-04-03T13:30:38Z</time>
      </trkpt>
      <trkpt lat="47.7271" lon="3.57041">
        <ele>239</ele>
        <time>2022-04-03T13:30:39Z</time>
      </trkpt>
      <trkpt lat="47.7271" lon="3.57042">
        <ele>239</ele>
        <time>2022-04-03T13:30:40Z</time>
      </trkpt>
      <trkpt lat="47.7271" lon="3.57042">
        <ele>239</ele>
        <time>2022-04-03T13:30:41Z</time>
      </trkpt>
      <trkpt lat="47.7271" lon="3.57042">
        <ele>239</ele>
        <time>2022-04-03T13:30:42Z</time>
      </trkpt>
      <trkpt lat="47.7271" lon="3.57043">
        <ele>239</ele>
        <time>2022-04-03T13:30:43Z</time>
      </trkpt>
      <trkpt lat="47.7271" lon="3.57043">
        <ele>239</ele>
        <time>2022-04-03T13:30:44Z</time>
      </trkpt>
      <trkpt lat="47.72709" lon="3.57043">
        <ele>239</ele>
        <time>2022-04-03T13:30:45Z</time>
      </trkpt>
      <trkpt lat="47.72709" lon="3.57043">
        <ele>239</ele>
        <time>2022-04-03T13:30:46Z</time>
      </trkpt>
      <trkpt lat="47.72709" lon="3.57043">
        <ele>239</ele>
        <time>2022-04-03T13:30:47Z</time>
      </trkpt>
      <trkpt lat="47.72709" lon="3.57043">
        <ele>239</ele>
        <time>2022-04-03T13:30:48Z</time>
      </trkpt>
      <trkpt lat="47.72709" lon="3.57042">
        <ele>239</ele>
        <time>2022-04-03T13:30:49Z</time>
      </trkpt>
      <trkpt lat="47.72709" lon="3.57041">
        <ele>238.9</ele>
        <time>2022-04-03T13:30:50Z</time>
      </trkpt>
      <trkpt lat="47.7271" lon="3.5704">
        <ele>238.9</ele>
        <time>2022-04-03T13:30:51Z</time>
      </trkpt>
      <trkpt lat="47.7271" lon="3.57039">
        <ele>238.9</ele>
        <time>2022-04-03T13:30:52Z</time>
      </trkpt>
      <trkpt lat="47.7271" lon="3.57038">
        <ele>238.9</ele>
        <time>2022-04-03T13:30:53Z</time>
      </trkpt>
      <trkpt lat="47.7271" lon="3.57039">
        <ele>238.9</ele>
        <time>2022-04-03T13:30:54Z</time>
      </trkpt>
      <trkpt lat="47.72711" lon="3.57038">
        <ele>238.9</ele>
        <time>2022-04-03T13:30:55Z</time>
      </trkpt>
      <trkpt lat="47.72711" lon="3.57037">
        <ele>238.9</ele>
        <time>2022-04-03T13:30:56Z</time>
      </trkpt>
      <trkpt lat="47.72712" lon="3.57036">
        <ele>238.9</ele>
        <time>2022-04-03T13:30:57Z</time>
      </trkpt>
      <trkpt lat="47.72713" lon="3.57034">
        <ele>238.9</ele>
        <time>2022-04-03T13:30:58Z</time>
      </trkpt>
      <trkpt lat="47.72714" lon="3.57033">
        <ele>238.9</ele>
        <time>2022-04-03T13:30:59Z</time>
      </trkpt>
      <trkpt lat="47.72715" lon="3.57032">
        <ele>238.8</ele>
        <time>2022-04-03T13:31:01Z</time>
      </trkpt>
      <trkpt lat="47.72716" lon="3.57031">
        <ele>238.8</ele>
        <time>2022-04-03T13:31:02Z</time>
      </trkpt>
      <trkpt lat="47.72718" lon="3.57029">
        <ele>238.8</ele>
        <time>2022-04-03T13:31:03Z</time>
      </trkpt>
      <trkpt lat="47.72718" lon="3.57028">
        <ele>238.8</ele>
        <time>2022-04-03T13:31:04Z</time>
      </trkpt>
      <trkpt lat="47.72719" lon="3.57027">
        <ele>238.8</ele>
        <time>2022-04-03T13:31:05Z</time>
      </trkpt>
      <trkpt lat="47.7272" lon="3.57026">
        <ele>238.7</ele>
        <time>2022-04-03T13:31:06Z</time>
      </trkpt>
      <trkpt lat="47.72721" lon="3.57026">
        <ele>238.7</ele>
        <time>2022-04-03T13:31:07Z</time>
      </trkpt>
      <trkpt lat="47.72722" lon="3.57025">
        <ele>238.7</ele>
        <time>2022-04-03T13:31:09Z</time>
      </trkpt>
      <trkpt lat="47.72724" lon="3.57024">
        <ele>238.7</ele>
        <time>2022-04-03T13:31:10Z</time>
      </trkpt>
      <trkpt lat="47.72725" lon="3.57023">
        <ele>238.6</ele>
        <time>2022-04-03T13:31:11Z</time>
      </trkpt>
      <trkpt lat="47.72727" lon="3.57023">
        <ele>238.6</ele>
        <time>2022-04-03T13:31:12Z</time>
      </trkpt>
      <trkpt lat="47.72728" lon="3.57022">
        <ele>238.6</ele>
        <time>2022-04-03T13:31:13Z</time>
      </trkpt>
      <trkpt lat="47.72729" lon="3.57022">
        <ele>238.6</ele>
        <time>2022-04-03T13:31:14Z</time>
      </trkpt>
      <trkpt lat="47.72731" lon="3.57021">
        <ele>238.5</ele>
        <time>2022-04-03T13:31:15Z</time>
      </trkpt>
      <trkpt lat="47.72732" lon="3.5702">
        <ele>238.5</ele>
        <time>2022-04-03T13:31:17Z</time>
      </trkpt>
      <trkpt lat="47.72732" lon="3.5702">
        <ele>238.5</ele>
        <time>2022-04-03T13:31:18Z</time>
      </trkpt>
      <trkpt lat="47.72734" lon="3.57019">
        <ele>238.5</ele>
        <time>2022-04-03T13:31:19Z</time>
      </trkpt>
      <trkpt lat="47.72735" lon="3.57018">
        <ele>238.5</ele>
        <time>2022-04-03T13:31:20Z</time>
      </trkpt>
      <trkpt lat="47.72736" lon="3.57017">
        <ele>238.5</ele>
        <time>2022-04-03T13:31:21Z</time>
      </trkpt>
      <trkpt lat="47.72738" lon="3.57015">
        <ele>238.4</ele>
        <time>2022-04-03T13:31:22Z</time>
      </trkpt>
      <trkpt lat="47.72738" lon="3.57015">
        <ele>238.4</ele>
        <time>2022-04-03T13:31:23Z</time>
      </trkpt>
      <trkpt lat="47.72739" lon="3.57014">
        <ele>238.4</ele>
        <time>2022-04-03T13:31:24Z</time>
      </trkpt>
      <trkpt lat="47.7274" lon="3.57013">
        <ele>238.4</ele>
        <time>2022-04-03T13:31:25Z</time>
      </trkpt>
      <trkpt lat="47.72742" lon="3.57012">
        <ele>238.3</ele>
        <time>2022-04-03T13:31:26Z</time>
      </trkpt>
      <trkpt lat="47.72743" lon="3.5701">
        <ele>238.3</ele>
        <time>2022-04-03T13:31:28Z</time>
      </trkpt>
      <trkpt lat="47.72744" lon="3.57009">
        <ele>238.3</ele>
        <time>2022-04-03T13:31:29Z</time>
      </trkpt>
      <trkpt lat="47.72746" lon="3.57008">
        <ele>238.3</ele>
        <time>2022-04-03T13:31:30Z</time>
      </trkpt>
      <trkpt lat="47.72747" lon="3.57007">
        <ele>238.2</ele>
        <time>2022-04-03T13:31:31Z</time>
      </trkpt>
      <trkpt lat="47.72748" lon="3.57005">
        <ele>238.2</ele>
        <time>2022-04-03T13:31:32Z</time>
      </trkpt>
      <trkpt lat="47.72749" lon="3.57005">
        <ele>238.2</ele>
        <time>2022-04-03T13:31:33Z</time>
      </trkpt>
      <trkpt lat="47.72751" lon="3.57004">
        <ele>238.2</ele>
        <time>2022-04-03T13:31:34Z</time>
      </trkpt>
      <trkpt lat="47.72752" lon="3.57003">
        <ele>238.1</ele>
        <time>2022-04-03T13:31:35Z</time>
      </trkpt>
      <trkpt lat="47.72754" lon="3.57002">
        <ele>238.1</ele>
        <time>2022-04-03T13:31:36Z</time>
      </trkpt>
      <trkpt lat="47.72755" lon="3.57001">
        <ele>238.1</ele>
        <time>2022-04-03T13:31:37Z</time>
      </trkpt>
      <trkpt lat="47.72756" lon="3.57001">
        <ele>238.1</ele>
        <time>2022-04-03T13:31:38Z</time>
      </trkpt>
      <trkpt lat="47.72759" lon="3.56999">
        <ele>238</ele>
        <time>2022-04-03T13:31:40Z</time>
      </trkpt>
      <trkpt lat="47.7276" lon="3.56999">
        <ele>238</ele>
        <time>2022-04-03T13:31:41Z</time>
      </trkpt>
      <trkpt lat="47.72761" lon="3.56998">
        <ele>237.9</ele>
        <time>2022-04-03T13:31:42Z</time>
      </trkpt>
      <trkpt lat="47.72763" lon="3.56998">
        <ele>237.9</ele>
        <time>2022-04-03T13:31:43Z</time>
      </trkpt>
      <trkpt lat="47.72764" lon="3.56997">
        <ele>237.9</ele>
        <time>2022-04-03T13:31:44Z</time>
      </trkpt>
      <trkpt lat="47.72766" lon="3.56997">
        <ele>237.9</ele>
        <time>2022-04-03T13:31:45Z</time>
      </trkpt>
      <trkpt lat="47.72768" lon="3.56995">
        <ele>237.8</ele>
        <time>2022-04-03T13:31:46Z</time>
      </trkpt>
      <trkpt lat="47.7277" lon="3.56994">
        <ele>237.8</ele>
        <time>2022-04-03T13:31:48Z</time>
      </trkpt>
      <trkpt lat="47.72771" lon="3.56993">
        <ele>237.8</ele>
        <time>2022-04-03T13:31:49Z</time>
      </trkpt>
      <trkpt lat="47.72772" lon="3.56992">
        <ele>237.7</ele>
        <time>2022-04-03T13:31:50Z</time>
      </trkpt>
      <trkpt lat="47.72773" lon="3.56991">
        <ele>237.7</ele>
        <time>2022-04-03T13:31:51Z</time>
      </trkpt>
      <trkpt lat="47.72774" lon="3.5699">
        <ele>237.7</ele>
        <time>2022-04-03T13:31:52Z</time>
      </trkpt>
      <trkpt lat="47.72776" lon="3.56989">
        <ele>237.6</ele>
        <time>2022-04-03T13:31:53Z</time>
      </trkpt>
      <trkpt lat="47.72777" lon="3.56988">
        <ele>237.6</ele>
        <time>2022-04-03T13:31:54Z</time>
      </trkpt>
      <trkpt lat="47.72779" lon="3.56987">
        <ele>237.6</ele>
        <time>2022-04-03T13:31:55Z</time>
      </trkpt>
      <trkpt lat="47.7278" lon="3.56986">
        <ele>237.6</ele>
        <time>2022-04-03T13:31:56Z</time>
      </trkpt>
      <trkpt lat="47.72781" lon="3.56986">
        <ele>237.5</ele>
        <time>2022-04-03T13:31:58Z</time>
      </trkpt>
      <trkpt lat="47.72782" lon="3.56985">
        <ele>237.5</ele>
        <time>2022-04-03T13:31:59Z</time>
      </trkpt>
      <trkpt lat="47.72784" lon="3.56984">
        <ele>237.5</ele>
        <time>2022-04-03T13:32:00Z</time>
      </trkpt>
      <trkpt lat="47.72785" lon="3.56982">
        <ele>237.5</ele>
        <time>2022-04-03T13:32:01Z</time>
      </trkpt>
      <trkpt lat="47.72786" lon="3.56981">
        <ele>237.4</ele>
        <time>2022-04-03T13:32:02Z</time>
      </trkpt>
      <trkpt lat="47.72787" lon="3.5698">
        <ele>237.4</ele>
        <time>2022-04-03T13:32:03Z</time>
      </trkpt>
      <trkpt lat="47.72788" lon="3.56979">
        <ele>237.4</ele>
        <time>2022-04-03T13:32:04Z</time>
      </trkpt>
      <trkpt lat="47.7279" lon="3.56977">
        <ele>237.3</ele>
        <time>2022-04-03T13:32:05Z</time>
      </trkpt>
      <trkpt lat="47.72791" lon="3.56976">
        <ele>237.3</ele>
        <time>2022-04-03T13:32:06Z</time>
      </trkpt>
      <trkpt lat="47.72792" lon="3.56975">
        <ele>237.3</ele>
        <time>2022-04-03T13:32:07Z</time>
      </trkpt>
      <trkpt lat="47.72793" lon="3.56974">
        <ele>237.3</ele>
        <time>2022-04-03T13:32:08Z</time>
      </trkpt>
      <trkpt lat="47.72794" lon="3.56973">
        <ele>237.2</ele>
        <time>2022-04-03T13:32:09Z</time>
      </trkpt>
      <trkpt lat="47.72795" lon="3.56972">
        <ele>237.2</ele>
        <time>2022-04-03T13:32:10Z</time>
      </trkpt>
      <trkpt lat="47.72796" lon="3.56971">
        <ele>237.2</ele>
        <time>2022-04-03T13:32:11Z</time>
      </trkpt>
      <trkpt lat="47.72798" lon="3.5697">
        <ele>237.2</ele>
        <time>2022-04-03T13:32:13Z</time>
      </trkpt>
      <trkpt lat="47.72799" lon="3.56968">
        <ele>237.1</ele>
        <time>2022-04-03T13:32:14Z</time>
      </trkpt>
      <trkpt lat="47.728" lon="3.56967">
        <ele>237.1</ele>
        <time>2022-04-03T13:32:15Z</time>
      </trkpt>
      <trkpt lat="47.72802" lon="3.56966">
        <ele>237.1</ele>
        <time>2022-04-03T13:32:16Z</time>
      </trkpt>
      <trkpt lat="47.72803" lon="3.56964">
        <ele>237</ele>
        <time>2022-04-03T13:32:17Z</time>
      </trkpt>
      <trkpt lat="47.72805" lon="3.56963">
        <ele>237</ele>
        <time>2022-04-03T13:32:18Z</time>
      </trkpt>
      <trkpt lat="47.72806" lon="3.56962">
        <ele>237</ele>
        <time>2022-04-03T13:32:19Z</time>
      </trkpt>
      <trkpt lat="47.72808" lon="3.5696">
        <ele>236.9</ele>
        <time>2022-04-03T13:32:21Z</time>
      </trkpt>
      <trkpt lat="47.72809" lon="3.56959">
        <ele>236.9</ele>
        <time>2022-04-03T13:32:22Z</time>
      </trkpt>
      <trkpt lat="47.7281" lon="3.56958">
        <ele>236.9</ele>
        <time>2022-04-03T13:32:23Z</time>
      </trkpt>
      <trkpt lat="47.72811" lon="3.56957">
        <ele>236.8</ele>
        <time>2022-04-03T13:32:24Z</time>
      </trkpt>
      <trkpt lat="47.72813" lon="3.56956">
        <ele>236.8</ele>
        <time>2022-04-03T13:32:25Z</time>
      </trkpt>
      <trkpt lat="47.72814" lon="3.56955">
        <ele>236.8</ele>
        <time>2022-04-03T13:32:26Z</time>
      </trkpt>
      <trkpt lat="47.72815" lon="3.56954">
        <ele>236.7</ele>
        <time>2022-04-03T13:32:27Z</time>
      </trkpt>
      <trkpt lat="47.72817" lon="3.56953">
        <ele>236.7</ele>
        <time>2022-04-03T13:32:28Z</time>
      </trkpt>
      <trkpt lat="47.72818" lon="3.56952">
        <ele>236.7</ele>
        <time>2022-04-03T13:32:29Z</time>
      </trkpt>
      <trkpt lat="47.72819" lon="3.56952">
        <ele>236.6</ele>
        <time>2022-04-03T13:32:30Z</time>
      </trkpt>
      <trkpt lat="47.7282" lon="3.56951">
        <ele>236.6</ele>
        <time>2022-04-03T13:32:31Z</time>
      </trkpt>
      <trkpt lat="47.72822" lon="3.56949">
        <ele>236.6</ele>
        <time>2022-04-03T13:32:32Z</time>
      </trkpt>
      <trkpt lat="47.72823" lon="3.56949">
        <ele>236.5</ele>
        <time>2022-04-03T13:32:33Z</time>
      </trkpt>
      <trkpt lat="47.72824" lon="3.56948">
        <ele>236.5</ele>
        <time>2022-04-03T13:32:35Z</time>
      </trkpt>
      <trkpt lat="47.72826" lon="3.56947">
        <ele>236.5</ele>
        <time>2022-04-03T13:32:36Z</time>
      </trkpt>
      <trkpt lat="47.72827" lon="3.56946">
        <ele>236.4</ele>
        <time>2022-04-03T13:32:37Z</time>
      </trkpt>
      <trkpt lat="47.72828" lon="3.56945">
        <ele>236.4</ele>
        <time>2022-04-03T13:32:38Z</time>
      </trkpt>
      <trkpt lat="47.7283" lon="3.56944">
        <ele>236.3</ele>
        <time>2022-04-03T13:32:39Z</time>
      </trkpt>
      <trkpt lat="47.72831" lon="3.56943">
        <ele>236.3</ele>
        <time>2022-04-03T13:32:40Z</time>
      </trkpt>
      <trkpt lat="47.72832" lon="3.56942">
        <ele>236.3</ele>
        <time>2022-04-03T13:32:41Z</time>
      </trkpt>
      <trkpt lat="47.72833" lon="3.56941">
        <ele>236.3</ele>
        <time>2022-04-03T13:32:42Z</time>
      </trkpt>
      <trkpt lat="47.72833" lon="3.5694">
        <ele>236.2</ele>
        <time>2022-04-03T13:32:43Z</time>
      </trkpt>
      <trkpt lat="47.72834" lon="3.5694">
        <ele>236.2</ele>
        <time>2022-04-03T13:32:44Z</time>
      </trkpt>
      <trkpt lat="47.72835" lon="3.56939">
        <ele>236.2</ele>
        <time>2022-04-03T13:32:45Z</time>
      </trkpt>
      <trkpt lat="47.72836" lon="3.56938">
        <ele>236.2</ele>
        <time>2022-04-03T13:32:46Z</time>
      </trkpt>
      <trkpt lat="47.72837" lon="3.56937">
        <ele>236.1</ele>
        <time>2022-04-03T13:32:47Z</time>
      </trkpt>
      <trkpt lat="47.72838" lon="3.56936">
        <ele>236.1</ele>
        <time>2022-04-03T13:32:48Z</time>
      </trkpt>
      <trkpt lat="47.72839" lon="3.56935">
        <ele>236.1</ele>
        <time>2022-04-03T13:32:49Z</time>
      </trkpt>
      <trkpt lat="47.7284" lon="3.56934">
        <ele>236</ele>
        <time>2022-04-03T13:32:50Z</time>
      </trkpt>
      <trkpt lat="47.72841" lon="3.56933">
        <ele>236</ele>
        <time>2022-04-03T13:32:51Z</time>
      </trkpt>
      <trkpt lat="47.72843" lon="3.56932">
        <ele>236</ele>
        <time>2022-04-03T13:32:53Z</time>
      </trkpt>
      <trkpt lat="47.72844" lon="3.56931">
        <ele>235.9</ele>
        <time>2022-04-03T13:32:54Z</time>
      </trkpt>
      <trkpt lat="47.72845" lon="3.5693">
        <ele>235.9</ele>
        <time>2022-04-03T13:32:55Z</time>
      </trkpt>
      <trkpt lat="47.72846" lon="3.56929">
        <ele>235.8</ele>
        <time>2022-04-03T13:32:56Z</time>
      </trkpt>
      <trkpt lat="47.72848" lon="3.56928">
        <ele>235.8</ele>
        <time>2022-04-03T13:32:57Z</time>
      </trkpt>
      <trkpt lat="47.72849" lon="3.56927">
        <ele>235.7</ele>
        <time>2022-04-03T13:32:58Z</time>
      </trkpt>
      <trkpt lat="47.7285" lon="3.56926">
        <ele>235.6</ele>
        <time>2022-04-03T13:32:59Z</time>
      </trkpt>
      <trkpt lat="47.72852" lon="3.56925">
        <ele>235.6</ele>
        <time>2022-04-03T13:33:00Z</time>
      </trkpt>
      <trkpt lat="47.72853" lon="3.56923">
        <ele>235.5</ele>
        <time>2022-04-03T13:33:02Z</time>
      </trkpt>
      <trkpt lat="47.72854" lon="3.56922">
        <ele>235.4</ele>
        <time>2022-04-03T13:33:03Z</time>
      </trkpt>
      <trkpt lat="47.72856" lon="3.5692">
        <ele>235.3</ele>
        <time>2022-04-03T13:33:04Z</time>
      </trkpt>
      <trkpt lat="47.72856" lon="3.56919">
        <ele>235.3</ele>
        <time>2022-04-03T13:33:05Z</time>
      </trkpt>
      <trkpt lat="47.72857" lon="3.56919">
        <ele>235.3</ele>
        <time>2022-04-03T13:33:06Z</time>
      </trkpt>
      <trkpt lat="47.72858" lon="3.56917">
        <ele>235.2</ele>
        <time>2022-04-03T13:33:07Z</time>
      </trkpt>
      <trkpt lat="47.72859" lon="3.56916">
        <ele>235.1</ele>
        <time>2022-04-03T13:33:08Z</time>
      </trkpt>
      <trkpt lat="47.7286" lon="3.56914">
        <ele>235.1</ele>
        <time>2022-04-03T13:33:09Z</time>
      </trkpt>
      <trkpt lat="47.7286" lon="3.56914">
        <ele>235</ele>
        <time>2022-04-03T13:33:11Z</time>
      </trkpt>
      <trkpt lat="47.72861" lon="3.56913">
        <ele>235</ele>
        <time>2022-04-03T13:33:12Z</time>
      </trkpt>
      <trkpt lat="47.72863" lon="3.56911">
        <ele>234.9</ele>
        <time>2022-04-03T13:33:13Z</time>
      </trkpt>
      <trkpt lat="47.72864" lon="3.5691">
        <ele>234.8</ele>
        <time>2022-04-03T13:33:14Z</time>
      </trkpt>
      <trkpt lat="47.72865" lon="3.56909">
        <ele>234.7</ele>
        <time>2022-04-03T13:33:15Z</time>
      </trkpt>
      <trkpt lat="47.72866" lon="3.56907">
        <ele>234.7</ele>
        <time>2022-04-03T13:33:16Z</time>
      </trkpt>
      <trkpt lat="47.72867" lon="3.56906">
        <ele>234.6</ele>
        <time>2022-04-03T13:33:17Z</time>
      </trkpt>
      <trkpt lat="47.72868" lon="3.56905">
        <ele>234.5</ele>
        <time>2022-04-03T13:33:18Z</time>
      </trkpt>
      <trkpt lat="47.72869" lon="3.56904">
        <ele>234.5</ele>
        <time>2022-04-03T13:33:19Z</time>
      </trkpt>
      <trkpt lat="47.7287" lon="3.56903">
        <ele>234.4</ele>
        <time>2022-04-03T13:33:20Z</time>
      </trkpt>
      <trkpt lat="47.72871" lon="3.56901">
        <ele>234.3</ele>
        <time>2022-04-03T13:33:22Z</time>
      </trkpt>
      <trkpt lat="47.72873" lon="3.569">
        <ele>234.2</ele>
        <time>2022-04-03T13:33:23Z</time>
      </trkpt>
      <trkpt lat="47.72874" lon="3.56898">
        <ele>234.1</ele>
        <time>2022-04-03T13:33:24Z</time>
      </trkpt>
      <trkpt lat="47.72875" lon="3.56897">
        <ele>234</ele>
        <time>2022-04-03T13:33:25Z</time>
      </trkpt>
      <trkpt lat="47.72876" lon="3.56895">
        <ele>233.9</ele>
        <time>2022-04-03T13:33:26Z</time>
      </trkpt>
      <trkpt lat="47.72877" lon="3.56895">
        <ele>233.8</ele>
        <time>2022-04-03T13:33:27Z</time>
      </trkpt>
      <trkpt lat="47.72879" lon="3.56893">
        <ele>233.7</ele>
        <time>2022-04-03T13:33:28Z</time>
      </trkpt>
      <trkpt lat="47.7288" lon="3.56892">
        <ele>233.6</ele>
        <time>2022-04-03T13:33:29Z</time>
      </trkpt>
      <trkpt lat="47.72882" lon="3.5689">
        <ele>233.5</ele>
        <time>2022-04-03T13:33:30Z</time>
      </trkpt>
      <trkpt lat="47.72883" lon="3.56888">
        <ele>233.4</ele>
        <time>2022-04-03T13:33:31Z</time>
      </trkpt>
      <trkpt lat="47.72884" lon="3.56886">
        <ele>233.3</ele>
        <time>2022-04-03T13:33:32Z</time>
      </trkpt>
      <trkpt lat="47.72885" lon="3.56885">
        <ele>233.2</ele>
        <time>2022-04-03T13:33:33Z</time>
      </trkpt>
      <trkpt lat="47.72886" lon="3.56884">
        <ele>233.1</ele>
        <time>2022-04-03T13:33:34Z</time>
      </trkpt>
      <trkpt lat="47.72887" lon="3.56882">
        <ele>233</ele>
        <time>2022-04-03T13:33:36Z</time>
      </trkpt>
      <trkpt lat="47.72889" lon="3.56881">
        <ele>232.9</ele>
        <time>2022-04-03T13:33:37Z</time>
      </trkpt>
      <trkpt lat="47.7289" lon="3.5688">
        <ele>232.8</ele>
        <time>2022-04-03T13:33:38Z</time>
      </trkpt>
      <trkpt lat="47.72892" lon="3.56879">
        <ele>232.7</ele>
        <time>2022-04-03T13:33:39Z</time>
      </trkpt>
      <trkpt lat="47.72893" lon="3.56878">
        <ele>232.6</ele>
        <time>2022-04-03T13:33:40Z</time>
      </trkpt>
      <trkpt lat="47.72894" lon="3.56877">
        <ele>232.5</ele>
        <time>2022-04-03T13:33:41Z</time>
      </trkpt>
      <trkpt lat="47.72896" lon="3.56876">
        <ele>232.4</ele>
        <time>2022-04-03T13:33:43Z</time>
      </trkpt>
      <trkpt lat="47.72897" lon="3.56876">
        <ele>232.4</ele>
        <time>2022-04-03T13:33:44Z</time>
      </trkpt>
      <trkpt lat="47.72898" lon="3.56875">
        <ele>232.3</ele>
        <time>2022-04-03T13:33:45Z</time>
      </trkpt>
      <trkpt lat="47.729" lon="3.56874">
        <ele>232.2</ele>
        <time>2022-04-03T13:33:46Z</time>
      </trkpt>
      <trkpt lat="47.729" lon="3.56874">
        <ele>232.1</ele>
        <time>2022-04-03T13:33:47Z</time>
      </trkpt>
      <trkpt lat="47.72901" lon="3.56873">
        <ele>232.1</ele>
        <time>2022-04-03T13:33:48Z</time>
      </trkpt>
      <trkpt lat="47.72903" lon="3.56872">
        <ele>231.9</ele>
        <time>2022-04-03T13:33:49Z</time>
      </trkpt>
      <trkpt lat="47.72904" lon="3.56871">
        <ele>231.9</ele>
        <time>2022-04-03T13:33:50Z</time>
      </trkpt>
      <trkpt lat="47.72904" lon="3.5687">
        <ele>231.8</ele>
        <time>2022-04-03T13:33:51Z</time>
      </trkpt>
      <trkpt lat="47.72906" lon="3.56869">
        <ele>231.7</ele>
        <time>2022-04-03T13:33:53Z</time>
      </trkpt>
      <trkpt lat="47.72907" lon="3.56868">
        <ele>231.6</ele>
        <time>2022-04-03T13:33:54Z</time>
      </trkpt>
      <trkpt lat="47.72908" lon="3.56867">
        <ele>231.5</ele>
        <time>2022-04-03T13:33:55Z</time>
      </trkpt>
      <trkpt lat="47.72909" lon="3.56866">
        <ele>231.4</ele>
        <time>2022-04-03T13:33:56Z</time>
      </trkpt>
      <trkpt lat="47.7291" lon="3.56866">
        <ele>231.4</ele>
        <time>2022-04-03T13:33:57Z</time>
      </trkpt>
      <trkpt lat="47.72911" lon="3.56865">
        <ele>231.2</ele>
        <time>2022-04-03T13:33:58Z</time>
      </trkpt>
      <trkpt lat="47.72912" lon="3.56864">
        <ele>231.2</ele>
        <time>2022-04-03T13:33:59Z</time>
      </trkpt>
      <trkpt lat="47.72913" lon="3.56863">
        <ele>231.1</ele>
        <time>2022-04-03T13:34:00Z</time>
      </trkpt>
      <trkpt lat="47.72915" lon="3.56861">
        <ele>230.9</ele>
        <time>2022-04-03T13:34:01Z</time>
      </trkpt>
      <trkpt lat="47.72915" lon="3.5686">
        <ele>230.9</ele>
        <time>2022-04-03T13:34:02Z</time>
      </trkpt>
      <trkpt lat="47.72916" lon="3.56859">
        <ele>230.8</ele>
        <time>2022-04-03T13:34:03Z</time>
      </trkpt>
      <trkpt lat="47.72917" lon="3.56857">
        <ele>230.6</ele>
        <time>2022-04-03T13:34:04Z</time>
      </trkpt>
      <trkpt lat="47.72918" lon="3.56856">
        <ele>230.5</ele>
        <time>2022-04-03T13:34:05Z</time>
      </trkpt>
      <trkpt lat="47.72919" lon="3.56855">
        <ele>230.5</ele>
        <time>2022-04-03T13:34:06Z</time>
      </trkpt>
      <trkpt lat="47.7292" lon="3.56852">
        <ele>230.3</ele>
        <time>2022-04-03T13:34:07Z</time>
      </trkpt>
      <trkpt lat="47.7292" lon="3.56851">
        <ele>230.2</ele>
        <time>2022-04-03T13:34:08Z</time>
      </trkpt>
      <trkpt lat="47.72921" lon="3.5685">
        <ele>230.2</ele>
        <time>2022-04-03T13:34:09Z</time>
      </trkpt>
      <trkpt lat="47.72923" lon="3.56847">
        <ele>229.9</ele>
        <time>2022-04-03T13:34:10Z</time>
      </trkpt>
      <trkpt lat="47.72923" lon="3.56845">
        <ele>229.8</ele>
        <time>2022-04-03T13:34:12Z</time>
      </trkpt>
      <trkpt lat="47.72924" lon="3.56843">
        <ele>229.7</ele>
        <time>2022-04-03T13:34:13Z</time>
      </trkpt>
      <trkpt lat="47.72925" lon="3.56841">
        <ele>229.6</ele>
        <time>2022-04-03T13:34:14Z</time>
      </trkpt>
      <trkpt lat="47.72926" lon="3.5684">
        <ele>229.5</ele>
        <time>2022-04-03T13:34:15Z</time>
      </trkpt>
      <trkpt lat="47.72927" lon="3.56839">
        <ele>229.4</ele>
        <time>2022-04-03T13:34:16Z</time>
      </trkpt>
      <trkpt lat="47.72927" lon="3.56838">
        <ele>229.3</ele>
        <time>2022-04-03T13:34:17Z</time>
      </trkpt>
      <trkpt lat="47.72928" lon="3.56836">
        <ele>229.2</ele>
        <time>2022-04-03T13:34:18Z</time>
      </trkpt>
      <trkpt lat="47.72929" lon="3.56834">
        <ele>229.1</ele>
        <time>2022-04-03T13:34:19Z</time>
      </trkpt>
      <trkpt lat="47.72931" lon="3.56832">
        <ele>228.9</ele>
        <time>2022-04-03T13:34:21Z</time>
      </trkpt>
      <trkpt lat="47.72931" lon="3.5683">
        <ele>228.8</ele>
        <time>2022-04-03T13:34:22Z</time>
      </trkpt>
      <trkpt lat="47.72932" lon="3.56829">
        <ele>228.7</ele>
        <time>2022-04-03T13:34:23Z</time>
      </trkpt>
      <trkpt lat="47.72933" lon="3.56827">
        <ele>228.6</ele>
        <time>2022-04-03T13:34:24Z</time>
      </trkpt>
      <trkpt lat="47.72934" lon="3.56825">
        <ele>228.5</ele>
        <time>2022-04-03T13:34:25Z</time>
      </trkpt>
      <trkpt lat="47.72935" lon="3.56824">
        <ele>228.4</ele>
        <time>2022-04-03T13:34:26Z</time>
      </trkpt>
      <trkpt lat="47.72936" lon="3.56823">
        <ele>228.3</ele>
        <time>2022-04-03T13:34:27Z</time>
      </trkpt>
      <trkpt lat="47.72937" lon="3.56823">
        <ele>228.2</ele>
        <time>2022-04-03T13:34:28Z</time>
      </trkpt>
      <trkpt lat="47.72939" lon="3.56822">
        <ele>228.1</ele>
        <time>2022-04-03T13:34:29Z</time>
      </trkpt>
      <trkpt lat="47.7294" lon="3.56821">
        <ele>228</ele>
        <time>2022-04-03T13:34:30Z</time>
      </trkpt>
      <trkpt lat="47.72941" lon="3.5682">
        <ele>227.9</ele>
        <time>2022-04-03T13:34:32Z</time>
      </trkpt>
      <trkpt lat="47.72943" lon="3.56819">
        <ele>227.8</ele>
        <time>2022-04-03T13:34:33Z</time>
      </trkpt>
      <trkpt lat="47.72944" lon="3.56818">
        <ele>227.7</ele>
        <time>2022-04-03T13:34:34Z</time>
      </trkpt>
      <trkpt lat="47.72945" lon="3.56817">
        <ele>227.6</ele>
        <time>2022-04-03T13:34:35Z</time>
      </trkpt>
      <trkpt lat="47.72947" lon="3.56816">
        <ele>227.5</ele>
        <time>2022-04-03T13:34:36Z</time>
      </trkpt>
      <trkpt lat="47.72948" lon="3.56816">
        <ele>227.4</ele>
        <time>2022-04-03T13:34:37Z</time>
      </trkpt>
      <trkpt lat="47.7295" lon="3.56816">
        <ele>227.3</ele>
        <time>2022-04-03T13:34:38Z</time>
      </trkpt>
      <trkpt lat="47.72951" lon="3.56816">
        <ele>227.2</ele>
        <time>2022-04-03T13:34:39Z</time>
      </trkpt>
      <trkpt lat="47.72953" lon="3.56816">
        <ele>227.1</ele>
        <time>2022-04-03T13:34:40Z</time>
      </trkpt>
      <trkpt lat="47.72954" lon="3.56816">
        <ele>227.1</ele>
        <time>2022-04-03T13:34:42Z</time>
      </trkpt>
      <trkpt lat="47.72956" lon="3.56816">
        <ele>227</ele>
        <time>2022-04-03T13:34:43Z</time>
      </trkpt>
      <trkpt lat="47.72957" lon="3.56815">
        <ele>226.9</ele>
        <time>2022-04-03T13:34:44Z</time>
      </trkpt>
      <trkpt lat="47.72959" lon="3.56815">
        <ele>226.8</ele>
        <time>2022-04-03T13:34:45Z</time>
      </trkpt>
      <trkpt lat="47.7296" lon="3.56815">
        <ele>226.7</ele>
        <time>2022-04-03T13:34:46Z</time>
      </trkpt>
      <trkpt lat="47.72961" lon="3.56815">
        <ele>226.7</ele>
        <time>2022-04-03T13:34:47Z</time>
      </trkpt>
      <trkpt lat="47.72964" lon="3.56815">
        <ele>226.5</ele>
        <time>2022-04-03T13:34:48Z</time>
      </trkpt>
      <trkpt lat="47.72964" lon="3.56815">
        <ele>226.5</ele>
        <time>2022-04-03T13:34:49Z</time>
      </trkpt>
      <trkpt lat="47.72965" lon="3.56815">
        <ele>226.5</ele>
        <time>2022-04-03T13:34:50Z</time>
      </trkpt>
      <trkpt lat="47.72967" lon="3.56814">
        <ele>226.4</ele>
        <time>2022-04-03T13:34:51Z</time>
      </trkpt>
      <trkpt lat="47.72968" lon="3.56814">
        <ele>226.3</ele>
        <time>2022-04-03T13:34:52Z</time>
      </trkpt>
      <trkpt lat="47.7297" lon="3.56814">
        <ele>226.3</ele>
        <time>2022-04-03T13:34:53Z</time>
      </trkpt>
      <trkpt lat="47.72971" lon="3.56814">
        <ele>226.2</ele>
        <time>2022-04-03T13:34:54Z</time>
      </trkpt>
      <trkpt lat="47.72973" lon="3.56814">
        <ele>226.2</ele>
        <time>2022-04-03T13:34:55Z</time>
      </trkpt>
      <trkpt lat="47.72974" lon="3.56814">
        <ele>226.1</ele>
        <time>2022-04-03T13:34:56Z</time>
      </trkpt>
      <trkpt lat="47.72975" lon="3.56814">
        <ele>226.1</ele>
        <time>2022-04-03T13:34:57Z</time>
      </trkpt>
      <trkpt lat="47.72977" lon="3.56814">
        <ele>226</ele>
        <time>2022-04-03T13:34:58Z</time>
      </trkpt>
      <trkpt lat="47.72978" lon="3.56814">
        <ele>226</ele>
        <time>2022-04-03T13:34:59Z</time>
      </trkpt>
      <trkpt lat="47.72978" lon="3.56814">
        <ele>226</ele>
        <time>2022-04-03T13:35:00Z</time>
      </trkpt>
      <trkpt lat="47.72981" lon="3.56815">
        <ele>225.9</ele>
        <time>2022-04-03T13:35:01Z</time>
      </trkpt>
      <trkpt lat="47.72982" lon="3.56815">
        <ele>225.9</ele>
        <time>2022-04-03T13:35:03Z</time>
      </trkpt>
      <trkpt lat="47.72983" lon="3.56815">
        <ele>225.8</ele>
        <time>2022-04-03T13:35:04Z</time>
      </trkpt>
      <trkpt lat="47.72984" lon="3.56815">
        <ele>225.8</ele>
        <time>2022-04-03T13:35:05Z</time>
      </trkpt>
      <trkpt lat="47.72985" lon="3.56814">
        <ele>225.8</ele>
        <time>2022-04-03T13:35:06Z</time>
      </trkpt>
      <trkpt lat="47.72986" lon="3.56814">
        <ele>225.8</ele>
        <time>2022-04-03T13:35:07Z</time>
      </trkpt>
      <trkpt lat="47.72988" lon="3.56814">
        <ele>225.7</ele>
        <time>2022-04-03T13:35:08Z</time>
      </trkpt>
      <trkpt lat="47.72988" lon="3.56814">
        <ele>225.7</ele>
        <time>2022-04-03T13:35:09Z</time>
      </trkpt>
      <trkpt lat="47.7299" lon="3.56814">
        <ele>225.7</ele>
        <time>2022-04-03T13:35:10Z</time>
      </trkpt>
      <trkpt lat="47.72991" lon="3.56813">
        <ele>225.6</ele>
        <time>2022-04-03T13:35:11Z</time>
      </trkpt>
      <trkpt lat="47.72992" lon="3.56813">
        <ele>225.6</ele>
        <time>2022-04-03T13:35:12Z</time>
      </trkpt>
      <trkpt lat="47.72994" lon="3.56813">
        <ele>225.6</ele>
        <time>2022-04-03T13:35:13Z</time>
      </trkpt>
      <trkpt lat="47.72995" lon="3.56812">
        <ele>225.6</ele>
        <time>2022-04-03T13:35:14Z</time>
      </trkpt>
      <trkpt lat="47.72996" lon="3.56812">
        <ele>225.6</ele>
        <time>2022-04-03T13:35:15Z</time>
      </trkpt>
      <trkpt lat="47.72998" lon="3.56812">
        <ele>225.5</ele>
        <time>2022-04-03T13:35:16Z</time>
      </trkpt>
      <trkpt lat="47.72999" lon="3.56812">
        <ele>225.5</ele>
        <time>2022-04-03T13:35:17Z</time>
      </trkpt>
      <trkpt lat="47.73" lon="3.56812">
        <ele>225.5</ele>
        <time>2022-04-03T13:35:18Z</time>
      </trkpt>
      <trkpt lat="47.73001" lon="3.56812">
        <ele>225.5</ele>
        <time>2022-04-03T13:35:19Z</time>
      </trkpt>
      <trkpt lat="47.73002" lon="3.56811">
        <ele>225.5</ele>
        <time>2022-04-03T13:35:20Z</time>
      </trkpt>
      <trkpt lat="47.73003" lon="3.56811">
        <ele>225.4</ele>
        <time>2022-04-03T13:35:21Z</time>
      </trkpt>
      <trkpt lat="47.73005" lon="3.56811">
        <ele>225.4</ele>
        <time>2022-04-03T13:35:22Z</time>
      </trkpt>
      <trkpt lat="47.73006" lon="3.56811">
        <ele>225.4</ele>
        <time>2022-04-03T13:35:24Z</time>
      </trkpt>
      <trkpt lat="47.73007" lon="3.56811">
        <ele>225.4</ele>
        <time>2022-04-03T13:35:25Z</time>
      </trkpt>
      <trkpt lat="47.73008" lon="3.56811">
        <ele>225.4</ele>
        <time>2022-04-03T13:35:26Z</time>
      </trkpt>
      <trkpt lat="47.7301" lon="3.5681">
        <ele>225.3</ele>
        <time>2022-04-03T13:35:27Z</time>
      </trkpt>
      <trkpt lat="47.73012" lon="3.5681">
        <ele>225.3</ele>
        <time>2022-04-03T13:35:28Z</time>
      </trkpt>
      <trkpt lat="47.73013" lon="3.56809">
        <ele>225.3</ele>
        <time>2022-04-03T13:35:29Z</time>
      </trkpt>
      <trkpt lat="47.73014" lon="3.56809">
        <ele>225.3</ele>
        <time>2022-04-03T13:35:30Z</time>
      </trkpt>
      <trkpt lat="47.73015" lon="3.56809">
        <ele>225.3</ele>
        <time>2022-04-03T13:35:31Z</time>
      </trkpt>
      <trkpt lat="47.73017" lon="3.56809">
        <ele>225.2</ele>
        <time>2022-04-03T13:35:33Z</time>
      </trkpt>
      <trkpt lat="47.73019" lon="3.56809">
        <ele>225.2</ele>
        <time>2022-04-03T13:35:34Z</time>
      </trkpt>
      <trkpt lat="47.7302" lon="3.56809">
        <ele>225.2</ele>
        <time>2022-04-03T13:35:35Z</time>
      </trkpt>
      <trkpt lat="47.73022" lon="3.56809">
        <ele>225.2</ele>
        <time>2022-04-03T13:35:36Z</time>
      </trkpt>
      <trkpt lat="47.73023" lon="3.56809">
        <ele>225.1</ele>
        <time>2022-04-03T13:35:37Z</time>
      </trkpt>
      <trkpt lat="47.73025" lon="3.56809">
        <ele>225.1</ele>
        <time>2022-04-03T13:35:38Z</time>
      </trkpt>
      <trkpt lat="47.73026" lon="3.56808">
        <ele>225.1</ele>
        <time>2022-04-03T13:35:39Z</time>
      </trkpt>
      <trkpt lat="47.73028" lon="3.56808">
        <ele>225</ele>
        <time>2022-04-03T13:35:40Z</time>
      </trkpt>
      <trkpt lat="47.73029" lon="3.56808">
        <ele>225</ele>
        <time>2022-04-03T13:35:42Z</time>
      </trkpt>
      <trkpt lat="47.73031" lon="3.56807">
        <ele>225</ele>
        <time>2022-04-03T13:35:43Z</time>
      </trkpt>
      <trkpt lat="47.73032" lon="3.56806">
        <ele>225</ele>
        <time>2022-04-03T13:35:44Z</time>
      </trkpt>
      <trkpt lat="47.73033" lon="3.56805">
        <ele>225</ele>
        <time>2022-04-03T13:35:45Z</time>
      </trkpt>
      <trkpt lat="47.73035" lon="3.56804">
        <ele>224.9</ele>
        <time>2022-04-03T13:35:46Z</time>
      </trkpt>
      <trkpt lat="47.73037" lon="3.56803">
        <ele>224.9</ele>
        <time>2022-04-03T13:35:47Z</time>
      </trkpt>
      <trkpt lat="47.73038" lon="3.56803">
        <ele>224.9</ele>
        <time>2022-04-03T13:35:48Z</time>
      </trkpt>
      <trkpt lat="47.73038" lon="3.56802">
        <ele>224.9</ele>
        <time>2022-04-03T13:35:49Z</time>
      </trkpt>
      <trkpt lat="47.7304" lon="3.56802">
        <ele>224.9</ele>
        <time>2022-04-03T13:35:50Z</time>
      </trkpt>
      <trkpt lat="47.73041" lon="3.56802">
        <ele>224.9</ele>
        <time>2022-04-03T13:35:51Z</time>
      </trkpt>
      <trkpt lat="47.73042" lon="3.56802">
        <ele>224.9</ele>
        <time>2022-04-03T13:35:53Z</time>
      </trkpt>
      <trkpt lat="47.73043" lon="3.56802">
        <ele>224.9</ele>
        <time>2022-04-03T13:35:54Z</time>
      </trkpt>
      <trkpt lat="47.73045" lon="3.56801">
        <ele>224.9</ele>
        <time>2022-04-03T13:35:55Z</time>
      </trkpt>
      <trkpt lat="47.73046" lon="3.568">
        <ele>224.9</ele>
        <time>2022-04-03T13:35:56Z</time>
      </trkpt>
      <trkpt lat="47.73048" lon="3.568">
        <ele>224.9</ele>
        <time>2022-04-03T13:35:57Z</time>
      </trkpt>
      <trkpt lat="47.73049" lon="3.56798">
        <ele>224.8</ele>
        <time>2022-04-03T13:35:58Z</time>
      </trkpt>
      <trkpt lat="47.73051" lon="3.56797">
        <ele>224.8</ele>
        <time>2022-04-03T13:36:00Z</time>
      </trkpt>
      <trkpt lat="47.73052" lon="3.56796">
        <ele>224.8</ele>
        <time>2022-04-03T13:36:01Z</time>
      </trkpt>
      <trkpt lat="47.73053" lon="3.56795">
        <ele>224.8</ele>
        <time>2022-04-03T13:36:02Z</time>
      </trkpt>
      <trkpt lat="47.73055" lon="3.56794">
        <ele>224.8</ele>
        <time>2022-04-03T13:36:03Z</time>
      </trkpt>
      <trkpt lat="47.73056" lon="3.56793">
        <ele>224.8</ele>
        <time>2022-04-03T13:36:04Z</time>
      </trkpt>
      <trkpt lat="47.73057" lon="3.56792">
        <ele>224.8</ele>
        <time>2022-04-03T13:36:05Z</time>
      </trkpt>
      <trkpt lat="47.73059" lon="3.56792">
        <ele>224.8</ele>
        <time>2022-04-03T13:36:06Z</time>
      </trkpt>
      <trkpt lat="47.7306" lon="3.56792">
        <ele>224.8</ele>
        <time>2022-04-03T13:36:07Z</time>
      </trkpt>
      <trkpt lat="47.73062" lon="3.56792">
        <ele>224.8</ele>
        <time>2022-04-03T13:36:08Z</time>
      </trkpt>
      <trkpt lat="47.73064" lon="3.56791">
        <ele>224.8</ele>
        <time>2022-04-03T13:36:09Z</time>
      </trkpt>
      <trkpt lat="47.73064" lon="3.56791">
        <ele>224.8</ele>
        <time>2022-04-03T13:36:10Z</time>
      </trkpt>
      <trkpt lat="47.73065" lon="3.56791">
        <ele>224.8</ele>
        <time>2022-04-03T13:36:11Z</time>
      </trkpt>
      <trkpt lat="47.73067" lon="3.5679">
        <ele>224.8</ele>
        <time>2022-04-03T13:36:12Z</time>
      </trkpt>
      <trkpt lat="47.73068" lon="3.5679">
        <ele>224.8</ele>
        <time>2022-04-03T13:36:14Z</time>
      </trkpt>
      <trkpt lat="47.7307" lon="3.56789">
        <ele>224.8</ele>
        <time>2022-04-03T13:36:15Z</time>
      </trkpt>
      <trkpt lat="47.73071" lon="3.56789">
        <ele>224.8</ele>
        <time>2022-04-03T13:36:16Z</time>
      </trkpt>
      <trkpt lat="47.73073" lon="3.56788">
        <ele>224.8</ele>
        <time>2022-04-03T13:36:17Z</time>
      </trkpt>
      <trkpt lat="47.73075" lon="3.56788">
        <ele>224.8</ele>
        <time>2022-04-03T13:36:18Z</time>
      </trkpt>
      <trkpt lat="47.73077" lon="3.56787">
        <ele>224.8</ele>
        <time>2022-04-03T13:36:19Z</time>
      </trkpt>
      <trkpt lat="47.73078" lon="3.56787">
        <ele>224.8</ele>
        <time>2022-04-03T13:36:20Z</time>
      </trkpt>
      <trkpt lat="47.73079" lon="3.56787">
        <ele>224.8</ele>
        <time>2022-04-03T13:36:21Z</time>
      </trkpt>
      <trkpt lat="47.7308" lon="3.56786">
        <ele>224.8</ele>
        <time>2022-04-03T13:36:22Z</time>
      </trkpt>
      <trkpt lat="47.73081" lon="3.56786">
        <ele>224.8</ele>
        <time>2022-04-03T13:36:23Z</time>
      </trkpt>
      <trkpt lat="47.73082" lon="3.56786">
        <ele>224.8</ele>
        <time>2022-04-03T13:36:24Z</time>
      </trkpt>
      <trkpt lat="47.73083" lon="3.56786">
        <ele>224.8</ele>
        <time>2022-04-03T13:36:25Z</time>
      </trkpt>
      <trkpt lat="47.73085" lon="3.56786">
        <ele>224.8</ele>
        <time>2022-04-03T13:36:27Z</time>
      </trkpt>
      <trkpt lat="47.73087" lon="3.56786">
        <ele>224.8</ele>
        <time>2022-04-03T13:36:28Z</time>
      </trkpt>
      <trkpt lat="47.73088" lon="3.56786">
        <ele>224.8</ele>
        <time>2022-04-03T13:36:29Z</time>
      </trkpt>
      <trkpt lat="47.7309" lon="3.56786">
        <ele>224.8</ele>
        <time>2022-04-03T13:36:30Z</time>
      </trkpt>
      <trkpt lat="47.73091" lon="3.56785">
        <ele>224.8</ele>
        <time>2022-04-03T13:36:31Z</time>
      </trkpt>
      <trkpt lat="47.73092" lon="3.56785">
        <ele>224.8</ele>
        <time>2022-04-03T13:36:32Z</time>
      </trkpt>
      <trkpt lat="47.73094" lon="3.56785">
        <ele>224.8</ele>
        <time>2022-04-03T13:36:34Z</time>
      </trkpt>
      <trkpt lat="47.73095" lon="3.56784">
        <ele>224.8</ele>
        <time>2022-04-03T13:36:35Z</time>
      </trkpt>
      <trkpt lat="47.73097" lon="3.56783">
        <ele>224.8</ele>
        <time>2022-04-03T13:36:36Z</time>
      </trkpt>
      <trkpt lat="47.73098" lon="3.56783">
        <ele>224.8</ele>
        <time>2022-04-03T13:36:37Z</time>
      </trkpt>
      <trkpt lat="47.731" lon="3.56782">
        <ele>224.8</ele>
        <time>2022-04-03T13:36:38Z</time>
      </trkpt>
      <trkpt lat="47.73101" lon="3.56782">
        <ele>224.8</ele>
        <time>2022-04-03T13:36:39Z</time>
      </trkpt>
      <trkpt lat="47.73102" lon="3.56781">
        <ele>224.8</ele>
        <time>2022-04-03T13:36:40Z</time>
      </trkpt>
      <trkpt lat="47.73104" lon="3.5678">
        <ele>224.8</ele>
        <time>2022-04-03T13:36:42Z</time>
      </trkpt>
      <trkpt lat="47.73105" lon="3.56779">
        <ele>224.8</ele>
        <time>2022-04-03T13:36:43Z</time>
      </trkpt>
      <trkpt lat="47.73107" lon="3.56778">
        <ele>224.8</ele>
        <time>2022-04-03T13:36:44Z</time>
      </trkpt>
      <trkpt lat="47.73108" lon="3.56777">
        <ele>224.8</ele>
        <time>2022-04-03T13:36:45Z</time>
      </trkpt>
      <trkpt lat="47.73109" lon="3.56777">
        <ele>224.7</ele>
        <time>2022-04-03T13:36:46Z</time>
      </trkpt>
      <trkpt lat="47.7311" lon="3.56776">
        <ele>224.7</ele>
        <time>2022-04-03T13:36:47Z</time>
      </trkpt>
      <trkpt lat="47.73111" lon="3.56776">
        <ele>224.7</ele>
        <time>2022-04-03T13:36:49Z</time>
      </trkpt>
      <trkpt lat="47.73113" lon="3.56776">
        <ele>224.7</ele>
        <time>2022-04-03T13:36:50Z</time>
      </trkpt>
      <trkpt lat="47.73114" lon="3.56776">
        <ele>224.7</ele>
        <time>2022-04-03T13:36:51Z</time>
      </trkpt>
      <trkpt lat="47.73116" lon="3.56776">
        <ele>224.7</ele>
        <time>2022-04-03T13:36:52Z</time>
      </trkpt>
      <trkpt lat="47.73117" lon="3.56776">
        <ele>224.7</ele>
        <time>2022-04-03T13:36:53Z</time>
      </trkpt>
      <trkpt lat="47.7312" lon="3.56775">
        <ele>224.7</ele>
        <time>2022-04-03T13:36:54Z</time>
      </trkpt>
      <trkpt lat="47.7312" lon="3.56775">
        <ele>224.6</ele>
        <time>2022-04-03T13:36:55Z</time>
      </trkpt>
      <trkpt lat="47.73121" lon="3.56775">
        <ele>224.6</ele>
        <time>2022-04-03T13:36:56Z</time>
      </trkpt>
      <trkpt lat="47.73123" lon="3.56774">
        <ele>224.6</ele>
        <time>2022-04-03T13:36:57Z</time>
      </trkpt>
      <trkpt lat="47.73124" lon="3.56774">
        <ele>224.6</ele>
        <time>2022-04-03T13:36:58Z</time>
      </trkpt>
      <trkpt lat="47.73126" lon="3.56774">
        <ele>224.6</ele>
        <time>2022-04-03T13:36:59Z</time>
      </trkpt>
      <trkpt lat="47.73127" lon="3.56773">
        <ele>224.6</ele>
        <time>2022-04-03T13:37:00Z</time>
      </trkpt>
      <trkpt lat="47.73129" lon="3.56773">
        <ele>224.6</ele>
        <time>2022-04-03T13:37:02Z</time>
      </trkpt>
      <trkpt lat="47.7313" lon="3.56772">
        <ele>224.6</ele>
        <time>2022-04-03T13:37:03Z</time>
      </trkpt>
      <trkpt lat="47.73131" lon="3.56772">
        <ele>224.5</ele>
        <time>2022-04-03T13:37:04Z</time>
      </trkpt>
      <trkpt lat="47.73133" lon="3.56772">
        <ele>224.5</ele>
        <time>2022-04-03T13:37:05Z</time>
      </trkpt>
      <trkpt lat="47.73134" lon="3.56771">
        <ele>224.5</ele>
        <time>2022-04-03T13:37:06Z</time>
      </trkpt>
      <trkpt lat="47.73135" lon="3.56771">
        <ele>224.5</ele>
        <time>2022-04-03T13:37:07Z</time>
      </trkpt>
      <trkpt lat="47.73136" lon="3.56771">
        <ele>224.5</ele>
        <time>2022-04-03T13:37:08Z</time>
      </trkpt>
      <trkpt lat="47.73138" lon="3.56771">
        <ele>224.5</ele>
        <time>2022-04-03T13:37:09Z</time>
      </trkpt>
      <trkpt lat="47.7314" lon="3.56771">
        <ele>224.5</ele>
        <time>2022-04-03T13:37:11Z</time>
      </trkpt>
      <trkpt lat="47.73141" lon="3.5677">
        <ele>224.5</ele>
        <time>2022-04-03T13:37:12Z</time>
      </trkpt>
      <trkpt lat="47.73142" lon="3.56769">
        <ele>224.5</ele>
        <time>2022-04-03T13:37:13Z</time>
      </trkpt>
      <trkpt lat="47.73144" lon="3.56769">
        <ele>224.4</ele>
        <time>2022-04-03T13:37:14Z</time>
      </trkpt>
      <trkpt lat="47.73145" lon="3.56768">
        <ele>224.4</ele>
        <time>2022-04-03T13:37:15Z</time>
      </trkpt>
      <trkpt lat="47.73147" lon="3.56768">
        <ele>224.4</ele>
        <time>2022-04-03T13:37:16Z</time>
      </trkpt>
      <trkpt lat="47.73149" lon="3.56768">
        <ele>224.4</ele>
        <time>2022-04-03T13:37:17Z</time>
      </trkpt>
      <trkpt lat="47.7315" lon="3.56768">
        <ele>224.4</ele>
        <time>2022-04-03T13:37:19Z</time>
      </trkpt>
      <trkpt lat="47.73151" lon="3.56768">
        <ele>224.4</ele>
        <time>2022-04-03T13:37:20Z</time>
      </trkpt>
      <trkpt lat="47.73153" lon="3.56768">
        <ele>224.4</ele>
        <time>2022-04-03T13:37:21Z</time>
      </trkpt>
      <trkpt lat="47.73154" lon="3.56768">
        <ele>224.4</ele>
        <time>2022-04-03T13:37:22Z</time>
      </trkpt>
      <trkpt lat="47.73154" lon="3.56768">
        <ele>224.4</ele>
        <time>2022-04-03T13:37:23Z</time>
      </trkpt>
      <trkpt lat="47.73156" lon="3.56768">
        <ele>224.4</ele>
        <time>2022-04-03T13:37:24Z</time>
      </trkpt>
      <trkpt lat="47.73157" lon="3.56768">
        <ele>224.3</ele>
        <time>2022-04-03T13:37:25Z</time>
      </trkpt>
      <trkpt lat="47.73158" lon="3.56769">
        <ele>224.3</ele>
        <time>2022-04-03T13:37:26Z</time>
      </trkpt>
      <trkpt lat="47.73159" lon="3.56769">
        <ele>224.3</ele>
        <time>2022-04-03T13:37:28Z</time>
      </trkpt>
      <trkpt lat="47.7316" lon="3.56769">
        <ele>224.3</ele>
        <time>2022-04-03T13:37:29Z</time>
      </trkpt>
      <trkpt lat="47.73161" lon="3.56769">
        <ele>224.3</ele>
        <time>2022-04-03T13:37:30Z</time>
      </trkpt>
      <trkpt lat="47.73163" lon="3.56769">
        <ele>224.3</ele>
        <time>2022-04-03T13:37:31Z</time>
      </trkpt>
      <trkpt lat="47.73164" lon="3.56769">
        <ele>224.3</ele>
        <time>2022-04-03T13:37:32Z</time>
      </trkpt>
      <trkpt lat="47.73165" lon="3.56769">
        <ele>224.3</ele>
        <time>2022-04-03T13:37:33Z</time>
      </trkpt>
      <trkpt lat="47.73167" lon="3.56768">
        <ele>224.3</ele>
        <time>2022-04-03T13:37:34Z</time>
      </trkpt>
      <trkpt lat="47.73168" lon="3.56768">
        <ele>224.3</ele>
        <time>2022-04-03T13:37:36Z</time>
      </trkpt>
      <trkpt lat="47.73168" lon="3.56767">
        <ele>224.3</ele>
        <time>2022-04-03T13:37:37Z</time>
      </trkpt>
      <trkpt lat="47.7317" lon="3.56767">
        <ele>224.3</ele>
        <time>2022-04-03T13:37:38Z</time>
      </trkpt>
      <trkpt lat="47.73171" lon="3.56767">
        <ele>224.2</ele>
        <time>2022-04-03T13:37:39Z</time>
      </trkpt>
      <trkpt lat="47.73172" lon="3.56767">
        <ele>224.2</ele>
        <time>2022-04-03T13:37:40Z</time>
      </trkpt>
      <trkpt lat="47.73174" lon="3.56766">
        <ele>224.2</ele>
        <time>2022-04-03T13:37:41Z</time>
      </trkpt>
      <trkpt lat="47.73176" lon="3.56766">
        <ele>224.2</ele>
        <time>2022-04-03T13:37:42Z</time>
      </trkpt>
      <trkpt lat="47.73177" lon="3.56766">
        <ele>224.2</ele>
        <time>2022-04-03T13:37:43Z</time>
      </trkpt>
      <trkpt lat="47.73178" lon="3.56765">
        <ele>224.2</ele>
        <time>2022-04-03T13:37:44Z</time>
      </trkpt>
      <trkpt lat="47.73179" lon="3.56765">
        <ele>224.2</ele>
        <time>2022-04-03T13:37:45Z</time>
      </trkpt>
      <trkpt lat="47.7318" lon="3.56764">
        <ele>224.2</ele>
        <time>2022-04-03T13:37:46Z</time>
      </trkpt>
      <trkpt lat="47.73182" lon="3.56764">
        <ele>224.2</ele>
        <time>2022-04-03T13:37:47Z</time>
      </trkpt>
      <trkpt lat="47.73184" lon="3.56764">
        <ele>224.2</ele>
        <time>2022-04-03T13:37:49Z</time>
      </trkpt>
      <trkpt lat="47.73185" lon="3.56763">
        <ele>224.2</ele>
        <time>2022-04-03T13:37:50Z</time>
      </trkpt>
      <trkpt lat="47.73187" lon="3.56762">
        <ele>224.2</ele>
        <time>2022-04-03T13:37:51Z</time>
      </trkpt>
      <trkpt lat="47.73189" lon="3.56761">
        <ele>224.1</ele>
        <time>2022-04-03T13:37:52Z</time>
      </trkpt>
      <trkpt lat="47.7319" lon="3.5676">
        <ele>224.1</ele>
        <time>2022-04-03T13:37:53Z</time>
      </trkpt>
      <trkpt lat="47.73192" lon="3.56759">
        <ele>224.1</ele>
        <time>2022-04-03T13:37:54Z</time>
      </trkpt>
      <trkpt lat="47.73193" lon="3.56758">
        <ele>224.1</ele>
        <time>2022-04-03T13:37:55Z</time>
      </trkpt>
      <trkpt lat="47.73194" lon="3.56756">
        <ele>224</ele>
        <time>2022-04-03T13:37:57Z</time>
      </trkpt>
      <trkpt lat="47.73195" lon="3.56754">
        <ele>224</ele>
        <time>2022-04-03T13:37:58Z</time>
      </trkpt>
      <trkpt lat="47.73196" lon="3.56752">
        <ele>224</ele>
        <time>2022-04-03T13:37:59Z</time>
      </trkpt>
      <trkpt lat="47.73197" lon="3.5675">
        <ele>223.9</ele>
        <time>2022-04-03T13:38:00Z</time>
      </trkpt>
      <trkpt lat="47.73197" lon="3.56747">
        <ele>223.9</ele>
        <time>2022-04-03T13:38:01Z</time>
      </trkpt>
      <trkpt lat="47.73197" lon="3.56745">
        <ele>223.8</ele>
        <time>2022-04-03T13:38:02Z</time>
      </trkpt>
      <trkpt lat="47.73197" lon="3.56742">
        <ele>223.8</ele>
        <time>2022-04-03T13:38:03Z</time>
      </trkpt>
      <trkpt lat="47.73198" lon="3.5674">
        <ele>223.8</ele>
        <time>2022-04-03T13:38:04Z</time>
      </trkpt>
      <trkpt lat="47.73198" lon="3.56738">
        <ele>223.8</ele>
        <time>2022-04-03T13:38:05Z</time>
      </trkpt>
      <trkpt lat="47.73198" lon="3.56737">
        <ele>223.8</ele>
        <time>2022-04-03T13:38:06Z</time>
      </trkpt>
      <trkpt lat="47.73198" lon="3.56734">
        <ele>223.7</ele>
        <time>2022-04-03T13:38:08Z</time>
      </trkpt>
      <trkpt lat="47.73198" lon="3.56732">
        <ele>223.7</ele>
        <time>2022-04-03T13:38:09Z</time>
      </trkpt>
      <trkpt lat="47.73199" lon="3.5673">
        <ele>223.7</ele>
        <time>2022-04-03T13:38:10Z</time>
      </trkpt>
      <trkpt lat="47.73199" lon="3.56728">
        <ele>223.7</ele>
        <time>2022-04-03T13:38:11Z</time>
      </trkpt>
      <trkpt lat="47.73198" lon="3.56727">
        <ele>223.7</ele>
        <time>2022-04-03T13:38:12Z</time>
      </trkpt>
      <trkpt lat="47.73197" lon="3.56725">
        <ele>223.7</ele>
        <time>2022-04-03T13:38:14Z</time>
      </trkpt>
      <trkpt lat="47.73196" lon="3.56723">
        <ele>223.7</ele>
        <time>2022-04-03T13:38:15Z</time>
      </trkpt>
      <trkpt lat="47.73196" lon="3.56722">
        <ele>223.6</ele>
        <time>2022-04-03T13:38:16Z</time>
      </trkpt>
      <trkpt lat="47.73196" lon="3.5672">
        <ele>223.6</ele>
        <time>2022-04-03T13:38:17Z</time>
      </trkpt>
      <trkpt lat="47.73196" lon="3.56717">
        <ele>223.6</ele>
        <time>2022-04-03T13:38:18Z</time>
      </trkpt>
      <trkpt lat="47.73196" lon="3.56716">
        <ele>223.6</ele>
        <time>2022-04-03T13:38:19Z</time>
      </trkpt>
      <trkpt lat="47.73196" lon="3.56715">
        <ele>223.6</ele>
        <time>2022-04-03T13:38:20Z</time>
      </trkpt>
      <trkpt lat="47.73196" lon="3.56712">
        <ele>223.6</ele>
        <time>2022-04-03T13:38:21Z</time>
      </trkpt>
      <trkpt lat="47.73196" lon="3.56711">
        <ele>223.6</ele>
        <time>2022-04-03T13:38:23Z</time>
      </trkpt>
      <trkpt lat="47.73195" lon="3.5671">
        <ele>223.6</ele>
        <time>2022-04-03T13:38:24Z</time>
      </trkpt>
      <trkpt lat="47.73195" lon="3.56708">
        <ele>223.6</ele>
        <time>2022-04-03T13:38:25Z</time>
      </trkpt>
      <trkpt lat="47.73195" lon="3.56705">
        <ele>223.6</ele>
        <time>2022-04-03T13:38:26Z</time>
      </trkpt>
      <trkpt lat="47.73196" lon="3.56702">
        <ele>223.6</ele>
        <time>2022-04-03T13:38:27Z</time>
      </trkpt>
      <trkpt lat="47.73196" lon="3.56701">
        <ele>223.6</ele>
        <time>2022-04-03T13:38:28Z</time>
      </trkpt>
      <trkpt lat="47.73196" lon="3.567">
        <ele>223.6</ele>
        <time>2022-04-03T13:38:29Z</time>
      </trkpt>
      <trkpt lat="47.73196" lon="3.56698">
        <ele>223.6</ele>
        <time>2022-04-03T13:38:30Z</time>
      </trkpt>
      <trkpt lat="47.73196" lon="3.56696">
        <ele>223.6</ele>
        <time>2022-04-03T13:38:31Z</time>
      </trkpt>
      <trkpt lat="47.73196" lon="3.56694">
        <ele>223.6</ele>
        <time>2022-04-03T13:38:32Z</time>
      </trkpt>
      <trkpt lat="47.73196" lon="3.56691">
        <ele>223.6</ele>
        <time>2022-04-03T13:38:33Z</time>
      </trkpt>
      <trkpt lat="47.73197" lon="3.56688">
        <ele>223.5</ele>
        <time>2022-04-03T13:38:34Z</time>
      </trkpt>
      <trkpt lat="47.73197" lon="3.56687">
        <ele>223.5</ele>
        <time>2022-04-03T13:38:35Z</time>
      </trkpt>
      <trkpt lat="47.73197" lon="3.56686">
        <ele>223.5</ele>
        <time>2022-04-03T13:38:36Z</time>
      </trkpt>
      <trkpt lat="47.73197" lon="3.56684">
        <ele>223.5</ele>
        <time>2022-04-03T13:38:37Z</time>
      </trkpt>
      <trkpt lat="47.73197" lon="3.56681">
        <ele>223.5</ele>
        <time>2022-04-03T13:38:39Z</time>
      </trkpt>
      <trkpt lat="47.73197" lon="3.56679">
        <ele>223.5</ele>
        <time>2022-04-03T13:38:40Z</time>
      </trkpt>
      <trkpt lat="47.73196" lon="3.56677">
        <ele>223.5</ele>
        <time>2022-04-03T13:38:41Z</time>
      </trkpt>
      <trkpt lat="47.73197" lon="3.56673">
        <ele>223.5</ele>
        <time>2022-04-03T13:38:42Z</time>
      </trkpt>
      <trkpt lat="47.73197" lon="3.56671">
        <ele>223.5</ele>
        <time>2022-04-03T13:38:43Z</time>
      </trkpt>
      <trkpt lat="47.73196" lon="3.56669">
        <ele>223.5</ele>
        <time>2022-04-03T13:38:45Z</time>
      </trkpt>
      <trkpt lat="47.73196" lon="3.56666">
        <ele>223.5</ele>
        <time>2022-04-03T13:38:46Z</time>
      </trkpt>
      <trkpt lat="47.73196" lon="3.56664">
        <ele>223.5</ele>
        <time>2022-04-03T13:38:47Z</time>
      </trkpt>
      <trkpt lat="47.73196" lon="3.56661">
        <ele>223.4</ele>
        <time>2022-04-03T13:38:48Z</time>
      </trkpt>
      <trkpt lat="47.73196" lon="3.56657">
        <ele>223.4</ele>
        <time>2022-04-03T13:38:50Z</time>
      </trkpt>
      <trkpt lat="47.73196" lon="3.56655">
        <ele>223.4</ele>
        <time>2022-04-03T13:38:51Z</time>
      </trkpt>
      <trkpt lat="47.73196" lon="3.56653">
        <ele>223.4</ele>
        <time>2022-04-03T13:38:52Z</time>
      </trkpt>
      <trkpt lat="47.73196" lon="3.56651">
        <ele>223.4</ele>
        <time>2022-04-03T13:38:53Z</time>
      </trkpt>
      <trkpt lat="47.73196" lon="3.56648">
        <ele>223.4</ele>
        <time>2022-04-03T13:38:54Z</time>
      </trkpt>
      <trkpt lat="47.73196" lon="3.56646">
        <ele>223.4</ele>
        <time>2022-04-03T13:38:55Z</time>
      </trkpt>
      <trkpt lat="47.73196" lon="3.56643">
        <ele>223.3</ele>
        <time>2022-04-03T13:38:56Z</time>
      </trkpt>
      <trkpt lat="47.73196" lon="3.56642">
        <ele>223.3</ele>
        <time>2022-04-03T13:38:57Z</time>
      </trkpt>
      <trkpt lat="47.73196" lon="3.5664">
        <ele>223.3</ele>
        <time>2022-04-03T13:38:58Z</time>
      </trkpt>
      <trkpt lat="47.73196" lon="3.56638">
        <ele>223.3</ele>
        <time>2022-04-03T13:38:59Z</time>
      </trkpt>
      <trkpt lat="47.73196" lon="3.56636">
        <ele>223.3</ele>
        <time>2022-04-03T13:39:00Z</time>
      </trkpt>
      <trkpt lat="47.73196" lon="3.56634">
        <ele>223.3</ele>
        <time>2022-04-03T13:39:02Z</time>
      </trkpt>
      <trkpt lat="47.73196" lon="3.56632">
        <ele>223.3</ele>
        <time>2022-04-03T13:39:03Z</time>
      </trkpt>
      <trkpt lat="47.73196" lon="3.56629">
        <ele>223.2</ele>
        <time>2022-04-03T13:39:04Z</time>
      </trkpt>
      <trkpt lat="47.73196" lon="3.56627">
        <ele>223.2</ele>
        <time>2022-04-03T13:39:05Z</time>
      </trkpt>
      <trkpt lat="47.73195" lon="3.56625">
        <ele>223.2</ele>
        <time>2022-04-03T13:39:06Z</time>
      </trkpt>
      <trkpt lat="47.73195" lon="3.56622">
        <ele>223.2</ele>
        <time>2022-04-03T13:39:07Z</time>
      </trkpt>
      <trkpt lat="47.73195" lon="3.5662">
        <ele>223.2</ele>
        <time>2022-04-03T13:39:08Z</time>
      </trkpt>
      <trkpt lat="47.73195" lon="3.56618">
        <ele>223.2</ele>
        <time>2022-04-03T13:39:09Z</time>
      </trkpt>
      <trkpt lat="47.73195" lon="3.56615">
        <ele>223.2</ele>
        <time>2022-04-03T13:39:10Z</time>
      </trkpt>
      <trkpt lat="47.73195" lon="3.56613">
        <ele>223.2</ele>
        <time>2022-04-03T13:39:11Z</time>
      </trkpt>
      <trkpt lat="47.73195" lon="3.56612">
        <ele>223.2</ele>
        <time>2022-04-03T13:39:12Z</time>
      </trkpt>
      <trkpt lat="47.73195" lon="3.5661">
        <ele>223.2</ele>
        <time>2022-04-03T13:39:13Z</time>
      </trkpt>
      <trkpt lat="47.73196" lon="3.56607">
        <ele>223.2</ele>
        <time>2022-04-03T13:39:14Z</time>
      </trkpt>
      <trkpt lat="47.73196" lon="3.56605">
        <ele>223.1</ele>
        <time>2022-04-03T13:39:16Z</time>
      </trkpt>
      <trkpt lat="47.73196" lon="3.56603">
        <ele>223.1</ele>
        <time>2022-04-03T13:39:17Z</time>
      </trkpt>
      <trkpt lat="47.73196" lon="3.56601">
        <ele>223.1</ele>
        <time>2022-04-03T13:39:18Z</time>
      </trkpt>
      <trkpt lat="47.73196" lon="3.56598">
        <ele>223.1</ele>
        <time>2022-04-03T13:39:19Z</time>
      </trkpt>
      <trkpt lat="47.73196" lon="3.56596">
        <ele>223.1</ele>
        <time>2022-04-03T13:39:20Z</time>
      </trkpt>
      <trkpt lat="47.73196" lon="3.56594">
        <ele>223.1</ele>
        <time>2022-04-03T13:39:21Z</time>
      </trkpt>
      <trkpt lat="47.73196" lon="3.56592">
        <ele>223.1</ele>
        <time>2022-04-03T13:39:22Z</time>
      </trkpt>
      <trkpt lat="47.73196" lon="3.56589">
        <ele>223.1</ele>
        <time>2022-04-03T13:39:23Z</time>
      </trkpt>
      <trkpt lat="47.73195" lon="3.56586">
        <ele>223.1</ele>
        <time>2022-04-03T13:39:24Z</time>
      </trkpt>
      <trkpt lat="47.73195" lon="3.56585">
        <ele>223.1</ele>
        <time>2022-04-03T13:39:26Z</time>
      </trkpt>
      <trkpt lat="47.73195" lon="3.56584">
        <ele>223.1</ele>
        <time>2022-04-03T13:39:27Z</time>
      </trkpt>
      <trkpt lat="47.73194" lon="3.56581">
        <ele>223.1</ele>
        <time>2022-04-03T13:39:28Z</time>
      </trkpt>
      <trkpt lat="47.73194" lon="3.5658">
        <ele>223.1</ele>
        <time>2022-04-03T13:39:29Z</time>
      </trkpt>
      <trkpt lat="47.73193" lon="3.56579">
        <ele>223.1</ele>
        <time>2022-04-03T13:39:30Z</time>
      </trkpt>
      <trkpt lat="47.73194" lon="3.56575">
        <ele>223.1</ele>
        <time>2022-04-03T13:39:31Z</time>
      </trkpt>
      <trkpt lat="47.73194" lon="3.56574">
        <ele>223.1</ele>
        <time>2022-04-03T13:39:32Z</time>
      </trkpt>
      <trkpt lat="47.73194" lon="3.56572">
        <ele>223.2</ele>
        <time>2022-04-03T13:39:34Z</time>
      </trkpt>
      <trkpt lat="47.73194" lon="3.56571">
        <ele>223.1</ele>
        <time>2022-04-03T13:39:35Z</time>
      </trkpt>
      <trkpt lat="47.73195" lon="3.56569">
        <ele>223.1</ele>
        <time>2022-04-03T13:39:37Z</time>
      </trkpt>
      <trkpt lat="47.73195" lon="3.56568">
        <ele>223.1</ele>
        <time>2022-04-03T13:39:38Z</time>
      </trkpt>
      <trkpt lat="47.73195" lon="3.56566">
        <ele>223.1</ele>
        <time>2022-04-03T13:39:39Z</time>
      </trkpt>
      <trkpt lat="47.73195" lon="3.56565">
        <ele>223.1</ele>
        <time>2022-04-03T13:39:40Z</time>
      </trkpt>
      <trkpt lat="47.73196" lon="3.56564">
        <ele>223.1</ele>
        <time>2022-04-03T13:39:41Z</time>
      </trkpt>
      <trkpt lat="47.73197" lon="3.56563">
        <ele>223.1</ele>
        <time>2022-04-03T13:39:42Z</time>
      </trkpt>
      <trkpt lat="47.73198" lon="3.56562">
        <ele>223.1</ele>
        <time>2022-04-03T13:39:44Z</time>
      </trkpt>
      <trkpt lat="47.73199" lon="3.56562">
        <ele>223.1</ele>
        <time>2022-04-03T13:39:45Z</time>
      </trkpt>
      <trkpt lat="47.732" lon="3.56565">
        <ele>223.1</ele>
        <time>2022-04-03T13:39:46Z</time>
      </trkpt>
      <trkpt lat="47.73201" lon="3.56566">
        <ele>223.1</ele>
        <time>2022-04-03T13:39:47Z</time>
      </trkpt>
      <trkpt lat="47.73202" lon="3.56567">
        <ele>223.1</ele>
        <time>2022-04-03T13:39:48Z</time>
      </trkpt>
      <trkpt lat="47.73203" lon="3.56566">
        <ele>223.1</ele>
        <time>2022-04-03T13:39:49Z</time>
      </trkpt>
      <trkpt lat="47.73203" lon="3.56566">
        <ele>223.1</ele>
        <time>2022-04-03T13:39:50Z</time>
      </trkpt>
      <trkpt lat="47.73202" lon="3.56566">
        <ele>223</ele>
        <time>2022-04-03T13:39:52Z</time>
      </trkpt>
      <trkpt lat="47.73201" lon="3.56566">
        <ele>223</ele>
        <time>2022-04-03T13:39:53Z</time>
      </trkpt>
      <trkpt lat="47.73201" lon="3.56566">
        <ele>223</ele>
        <time>2022-04-03T13:39:54Z</time>
      </trkpt>
      <trkpt lat="47.73201" lon="3.56567">
        <ele>223</ele>
        <time>2022-04-03T13:39:55Z</time>
      </trkpt>
      <trkpt lat="47.73201" lon="3.56567">
        <ele>223</ele>
        <time>2022-04-03T13:39:56Z</time>
      </trkpt>
      <trkpt lat="47.73201" lon="3.56567">
        <ele>223</ele>
        <time>2022-04-03T13:39:57Z</time>
      </trkpt>
      <trkpt lat="47.73201" lon="3.56567">
        <ele>223</ele>
        <time>2022-04-03T13:39:58Z</time>
      </trkpt>
      <trkpt lat="47.73201" lon="3.56568">
        <ele>223</ele>
        <time>2022-04-03T13:39:59Z</time>
      </trkpt>
      <trkpt lat="47.73201" lon="3.56568">
        <ele>223</ele>
        <time>2022-04-03T13:40:00Z</time>
      </trkpt>
      <trkpt lat="47.73202" lon="3.56568">
        <ele>223</ele>
        <time>2022-04-03T13:40:02Z</time>
      </trkpt>
      <trkpt lat="47.73203" lon="3.56569">
        <ele>223</ele>
        <time>2022-04-03T13:40:03Z</time>
      </trkpt>
      <trkpt lat="47.73205" lon="3.5657">
        <ele>223</ele>
        <time>2022-04-03T13:40:04Z</time>
      </trkpt>
      <trkpt lat="47.73207" lon="3.5657">
        <ele>223</ele>
        <time>2022-04-03T13:40:05Z</time>
      </trkpt>
      <trkpt lat="47.73209" lon="3.5657">
        <ele>223</ele>
        <time>2022-04-03T13:40:07Z</time>
      </trkpt>
      <trkpt lat="47.73211" lon="3.56571">
        <ele>223</ele>
        <time>2022-04-03T13:40:08Z</time>
      </trkpt>
      <trkpt lat="47.73213" lon="3.56572">
        <ele>223</ele>
        <time>2022-04-03T13:40:09Z</time>
      </trkpt>
      <trkpt lat="47.73214" lon="3.56572">
        <ele>222.9</ele>
        <time>2022-04-03T13:40:10Z</time>
      </trkpt>
      <trkpt lat="47.73216" lon="3.56573">
        <ele>222.9</ele>
        <time>2022-04-03T13:40:11Z</time>
      </trkpt>
      <trkpt lat="47.73217" lon="3.56573">
        <ele>222.9</ele>
        <time>2022-04-03T13:40:12Z</time>
      </trkpt>
      <trkpt lat="47.73219" lon="3.56574">
        <ele>222.9</ele>
        <time>2022-04-03T13:40:13Z</time>
      </trkpt>
      <trkpt lat="47.7322" lon="3.56574">
        <ele>222.9</ele>
        <time>2022-04-03T13:40:14Z</time>
      </trkpt>
      <trkpt lat="47.73222" lon="3.56573">
        <ele>222.9</ele>
        <time>2022-04-03T13:40:15Z</time>
      </trkpt>
      <trkpt lat="47.73225" lon="3.56572">
        <ele>222.9</ele>
        <time>2022-04-03T13:40:17Z</time>
      </trkpt>
      <trkpt lat="47.73226" lon="3.56572">
        <ele>222.9</ele>
        <time>2022-04-03T13:40:18Z</time>
      </trkpt>
      <trkpt lat="47.73227" lon="3.56572">
        <ele>222.9</ele>
        <time>2022-04-03T13:40:19Z</time>
      </trkpt>
      <trkpt lat="47.73229" lon="3.56572">
        <ele>222.9</ele>
        <time>2022-04-03T13:40:20Z</time>
      </trkpt>
      <trkpt lat="47.73231" lon="3.56572">
        <ele>222.9</ele>
        <time>2022-04-03T13:40:21Z</time>
      </trkpt>
      <trkpt lat="47.73232" lon="3.56572">
        <ele>222.9</ele>
        <time>2022-04-03T13:40:22Z</time>
      </trkpt>
      <trkpt lat="47.73233" lon="3.56572">
        <ele>222.9</ele>
        <time>2022-04-03T13:40:23Z</time>
      </trkpt>
      <trkpt lat="47.73235" lon="3.56571">
        <ele>222.9</ele>
        <time>2022-04-03T13:40:24Z</time>
      </trkpt>
      <trkpt lat="47.73237" lon="3.56571">
        <ele>222.9</ele>
        <time>2022-04-03T13:40:25Z</time>
      </trkpt>
      <trkpt lat="47.73238" lon="3.56571">
        <ele>222.9</ele>
        <time>2022-04-03T13:40:27Z</time>
      </trkpt>
      <trkpt lat="47.7324" lon="3.5657">
        <ele>222.9</ele>
        <time>2022-04-03T13:40:28Z</time>
      </trkpt>
      <trkpt lat="47.73241" lon="3.5657">
        <ele>222.9</ele>
        <time>2022-04-03T13:40:29Z</time>
      </trkpt>
      <trkpt lat="47.73243" lon="3.5657">
        <ele>222.9</ele>
        <time>2022-04-03T13:40:30Z</time>
      </trkpt>
      <trkpt lat="47.73244" lon="3.56571">
        <ele>222.9</ele>
        <time>2022-04-03T13:40:31Z</time>
      </trkpt>
      <trkpt lat="47.73246" lon="3.56571">
        <ele>222.9</ele>
        <time>2022-04-03T13:40:32Z</time>
      </trkpt>
      <trkpt lat="47.73247" lon="3.56571">
        <ele>222.9</ele>
        <time>2022-04-03T13:40:33Z</time>
      </trkpt>
      <trkpt lat="47.73249" lon="3.5657">
        <ele>222.9</ele>
        <time>2022-04-03T13:40:34Z</time>
      </trkpt>
      <trkpt lat="47.7325" lon="3.5657">
        <ele>222.9</ele>
        <time>2022-04-03T13:40:35Z</time>
      </trkpt>
      <trkpt lat="47.73251" lon="3.5657">
        <ele>222.9</ele>
        <time>2022-04-03T13:40:36Z</time>
      </trkpt>
      <trkpt lat="47.73252" lon="3.56569">
        <ele>222.9</ele>
        <time>2022-04-03T13:40:37Z</time>
      </trkpt>
      <trkpt lat="47.73254" lon="3.56569">
        <ele>222.9</ele>
        <time>2022-04-03T13:40:39Z</time>
      </trkpt>
      <trkpt lat="47.73255" lon="3.56569">
        <ele>222.9</ele>
        <time>2022-04-03T13:40:40Z</time>
      </trkpt>
      <trkpt lat="47.73257" lon="3.5657">
        <ele>222.9</ele>
        <time>2022-04-03T13:40:41Z</time>
      </trkpt>
      <trkpt lat="47.73259" lon="3.5657">
        <ele>222.9</ele>
        <time>2022-04-03T13:40:42Z</time>
      </trkpt>
      <trkpt lat="47.7326" lon="3.5657">
        <ele>222.9</ele>
        <time>2022-04-03T13:40:43Z</time>
      </trkpt>
      <trkpt lat="47.73263" lon="3.5657">
        <ele>222.9</ele>
        <time>2022-04-03T13:40:44Z</time>
      </trkpt>
      <trkpt lat="47.73264" lon="3.5657">
        <ele>222.8</ele>
        <time>2022-04-03T13:40:45Z</time>
      </trkpt>
      <trkpt lat="47.73265" lon="3.5657">
        <ele>222.8</ele>
        <time>2022-04-03T13:40:46Z</time>
      </trkpt>
      <trkpt lat="47.73267" lon="3.5657">
        <ele>222.8</ele>
        <time>2022-04-03T13:40:47Z</time>
      </trkpt>
      <trkpt lat="47.73269" lon="3.5657">
        <ele>222.8</ele>
        <time>2022-04-03T13:40:48Z</time>
      </trkpt>
      <trkpt lat="47.7327" lon="3.56571">
        <ele>222.8</ele>
        <time>2022-04-03T13:40:49Z</time>
      </trkpt>
      <trkpt lat="47.73273" lon="3.56571">
        <ele>222.8</ele>
        <time>2022-04-03T13:40:50Z</time>
      </trkpt>
      <trkpt lat="47.73274" lon="3.56571">
        <ele>222.8</ele>
        <time>2022-04-03T13:40:52Z</time>
      </trkpt>
      <trkpt lat="47.73276" lon="3.56571">
        <ele>222.8</ele>
        <time>2022-04-03T13:40:53Z</time>
      </trkpt>
      <trkpt lat="47.73277" lon="3.56571">
        <ele>222.7</ele>
        <time>2022-04-03T13:40:54Z</time>
      </trkpt>
      <trkpt lat="47.73279" lon="3.5657">
        <ele>222.7</ele>
        <time>2022-04-03T13:40:55Z</time>
      </trkpt>
      <trkpt lat="47.7328" lon="3.5657">
        <ele>222.7</ele>
        <time>2022-04-03T13:40:56Z</time>
      </trkpt>
      <trkpt lat="47.73282" lon="3.5657">
        <ele>222.7</ele>
        <time>2022-04-03T13:40:57Z</time>
      </trkpt>
      <trkpt lat="47.73283" lon="3.5657">
        <ele>222.7</ele>
        <time>2022-04-03T13:40:58Z</time>
      </trkpt>
      <trkpt lat="47.73285" lon="3.5657">
        <ele>222.7</ele>
        <time>2022-04-03T13:40:59Z</time>
      </trkpt>
      <trkpt lat="47.73287" lon="3.56571">
        <ele>222.7</ele>
        <time>2022-04-03T13:41:01Z</time>
      </trkpt>
      <trkpt lat="47.73288" lon="3.56571">
        <ele>222.7</ele>
        <time>2022-04-03T13:41:02Z</time>
      </trkpt>
      <trkpt lat="47.7329" lon="3.56571">
        <ele>222.7</ele>
        <time>2022-04-03T13:41:03Z</time>
      </trkpt>
      <trkpt lat="47.73291" lon="3.56571">
        <ele>222.7</ele>
        <time>2022-04-03T13:41:04Z</time>
      </trkpt>
      <trkpt lat="47.73293" lon="3.56571">
        <ele>222.7</ele>
        <time>2022-04-03T13:41:05Z</time>
      </trkpt>
      <trkpt lat="47.73295" lon="3.56572">
        <ele>222.7</ele>
        <time>2022-04-03T13:41:06Z</time>
      </trkpt>
      <trkpt lat="47.73296" lon="3.56572">
        <ele>222.7</ele>
        <time>2022-04-03T13:41:08Z</time>
      </trkpt>
      <trkpt lat="47.73297" lon="3.56572">
        <ele>222.7</ele>
        <time>2022-04-03T13:41:09Z</time>
      </trkpt>
      <trkpt lat="47.73298" lon="3.56572">
        <ele>222.7</ele>
        <time>2022-04-03T13:41:10Z</time>
      </trkpt>
      <trkpt lat="47.73299" lon="3.56572">
        <ele>222.7</ele>
        <time>2022-04-03T13:41:11Z</time>
      </trkpt>
      <trkpt lat="47.733" lon="3.56573">
        <ele>222.7</ele>
        <time>2022-04-03T13:41:12Z</time>
      </trkpt>
      <trkpt lat="47.73302" lon="3.56573">
        <ele>222.7</ele>
        <time>2022-04-03T13:41:13Z</time>
      </trkpt>
      <trkpt lat="47.73303" lon="3.56573">
        <ele>222.8</ele>
        <time>2022-04-03T13:41:14Z</time>
      </trkpt>
      <trkpt lat="47.73304" lon="3.56573">
        <ele>222.8</ele>
        <time>2022-04-03T13:41:15Z</time>
      </trkpt>
      <trkpt lat="47.73305" lon="3.56574">
        <ele>222.8</ele>
        <time>2022-04-03T13:41:16Z</time>
      </trkpt>
      <trkpt lat="47.73306" lon="3.56574">
        <ele>222.8</ele>
        <time>2022-04-03T13:41:17Z</time>
      </trkpt>
      <trkpt lat="47.73307" lon="3.56574">
        <ele>222.8</ele>
        <time>2022-04-03T13:41:18Z</time>
      </trkpt>
      <trkpt lat="47.73308" lon="3.56574">
        <ele>222.8</ele>
        <time>2022-04-03T13:41:19Z</time>
      </trkpt>
      <trkpt lat="47.73309" lon="3.56574">
        <ele>222.8</ele>
        <time>2022-04-03T13:41:20Z</time>
      </trkpt>
      <trkpt lat="47.7331" lon="3.56573">
        <ele>222.9</ele>
        <time>2022-04-03T13:41:22Z</time>
      </trkpt>
      <trkpt lat="47.73312" lon="3.56573">
        <ele>222.9</ele>
        <time>2022-04-03T13:41:23Z</time>
      </trkpt>
      <trkpt lat="47.73313" lon="3.56573">
        <ele>222.9</ele>
        <time>2022-04-03T13:41:24Z</time>
      </trkpt>
      <trkpt lat="47.73315" lon="3.56572">
        <ele>222.9</ele>
        <time>2022-04-03T13:41:25Z</time>
      </trkpt>
      <trkpt lat="47.73317" lon="3.56572">
        <ele>222.9</ele>
        <time>2022-04-03T13:41:26Z</time>
      </trkpt>
      <trkpt lat="47.73318" lon="3.56572">
        <ele>222.9</ele>
        <time>2022-04-03T13:41:27Z</time>
      </trkpt>
      <trkpt lat="47.7332" lon="3.56572">
        <ele>223</ele>
        <time>2022-04-03T13:41:28Z</time>
      </trkpt>
      <trkpt lat="47.73322" lon="3.56572">
        <ele>223</ele>
        <time>2022-04-03T13:41:29Z</time>
      </trkpt>
      <trkpt lat="47.73323" lon="3.56572">
        <ele>223</ele>
        <time>2022-04-03T13:41:31Z</time>
      </trkpt>
      <trkpt lat="47.73325" lon="3.56572">
        <ele>223</ele>
        <time>2022-04-03T13:41:32Z</time>
      </trkpt>
      <trkpt lat="47.73327" lon="3.56572">
        <ele>223</ele>
        <time>2022-04-03T13:41:33Z</time>
      </trkpt>
      <trkpt lat="47.73328" lon="3.56572">
        <ele>223</ele>
        <time>2022-04-03T13:41:34Z</time>
      </trkpt>
      <trkpt lat="47.73331" lon="3.56572">
        <ele>223</ele>
        <time>2022-04-03T13:41:35Z</time>
      </trkpt>
      <trkpt lat="47.73332" lon="3.56572">
        <ele>223</ele>
        <time>2022-04-03T13:41:36Z</time>
      </trkpt>
      <trkpt lat="47.73335" lon="3.56572">
        <ele>223</ele>
        <time>2022-04-03T13:41:37Z</time>
      </trkpt>
      <trkpt lat="47.73336" lon="3.56572">
        <ele>223</ele>
        <time>2022-04-03T13:41:39Z</time>
      </trkpt>
      <trkpt lat="47.73338" lon="3.56572">
        <ele>223</ele>
        <time>2022-04-03T13:41:40Z</time>
      </trkpt>
      <trkpt lat="47.73339" lon="3.56572">
        <ele>223</ele>
        <time>2022-04-03T13:41:41Z</time>
      </trkpt>
      <trkpt lat="47.73341" lon="3.56572">
        <ele>223</ele>
        <time>2022-04-03T13:41:42Z</time>
      </trkpt>
      <trkpt lat="47.73342" lon="3.56572">
        <ele>223</ele>
        <time>2022-04-03T13:41:43Z</time>
      </trkpt>
      <trkpt lat="47.73344" lon="3.56572">
        <ele>223.1</ele>
        <time>2022-04-03T13:41:44Z</time>
      </trkpt>
      <trkpt lat="47.73345" lon="3.56572">
        <ele>223.1</ele>
        <time>2022-04-03T13:41:45Z</time>
      </trkpt>
      <trkpt lat="47.73346" lon="3.56572">
        <ele>223.1</ele>
        <time>2022-04-03T13:41:46Z</time>
      </trkpt>
      <trkpt lat="47.73348" lon="3.56572">
        <ele>223.1</ele>
        <time>2022-04-03T13:41:47Z</time>
      </trkpt>
      <trkpt lat="47.73349" lon="3.56572">
        <ele>223.1</ele>
        <time>2022-04-03T13:41:49Z</time>
      </trkpt>
      <trkpt lat="47.73351" lon="3.56573">
        <ele>223.1</ele>
        <time>2022-04-03T13:41:50Z</time>
      </trkpt>
      <trkpt lat="47.73352" lon="3.56573">
        <ele>223.1</ele>
        <time>2022-04-03T13:41:51Z</time>
      </trkpt>
      <trkpt lat="47.73354" lon="3.56573">
        <ele>223.1</ele>
        <time>2022-04-03T13:41:52Z</time>
      </trkpt>
      <trkpt lat="47.73355" lon="3.56573">
        <ele>223.1</ele>
        <time>2022-04-03T13:41:53Z</time>
      </trkpt>
      <trkpt lat="47.73356" lon="3.56573">
        <ele>223.1</ele>
        <time>2022-04-03T13:41:54Z</time>
      </trkpt>
      <trkpt lat="47.73357" lon="3.56573">
        <ele>223.1</ele>
        <time>2022-04-03T13:41:55Z</time>
      </trkpt>
      <trkpt lat="47.73358" lon="3.56573">
        <ele>223.1</ele>
        <time>2022-04-03T13:41:56Z</time>
      </trkpt>
      <trkpt lat="47.73359" lon="3.56573">
        <ele>223.1</ele>
        <time>2022-04-03T13:41:57Z</time>
      </trkpt>
      <trkpt lat="47.7336" lon="3.56573">
        <ele>223.1</ele>
        <time>2022-04-03T13:41:58Z</time>
      </trkpt>
      <trkpt lat="47.73361" lon="3.56573">
        <ele>223.1</ele>
        <time>2022-04-03T13:41:59Z</time>
      </trkpt>
      <trkpt lat="47.73363" lon="3.56573">
        <ele>223.1</ele>
        <time>2022-04-03T13:42:01Z</time>
      </trkpt>
      <trkpt lat="47.73365" lon="3.56573">
        <ele>223.1</ele>
        <time>2022-04-03T13:42:02Z</time>
      </trkpt>
      <trkpt lat="47.73366" lon="3.56573">
        <ele>223.1</ele>
        <time>2022-04-03T13:42:03Z</time>
      </trkpt>
      <trkpt lat="47.73366" lon="3.56573">
        <ele>223.1</ele>
        <time>2022-04-03T13:42:04Z</time>
      </trkpt>
      <trkpt lat="47.73367" lon="3.56574">
        <ele>223.1</ele>
        <time>2022-04-03T13:42:05Z</time>
      </trkpt>
      <trkpt lat="47.73369" lon="3.56574">
        <ele>223.1</ele>
        <time>2022-04-03T13:42:06Z</time>
      </trkpt>
      <trkpt lat="47.7337" lon="3.56574">
        <ele>223.1</ele>
        <time>2022-04-03T13:42:07Z</time>
      </trkpt>
      <trkpt lat="47.73371" lon="3.56574">
        <ele>223.1</ele>
        <time>2022-04-03T13:42:08Z</time>
      </trkpt>
      <trkpt lat="47.73372" lon="3.56574">
        <ele>223.1</ele>
        <time>2022-04-03T13:42:10Z</time>
      </trkpt>
      <trkpt lat="47.73373" lon="3.56573">
        <ele>223.1</ele>
        <time>2022-04-03T13:42:11Z</time>
      </trkpt>
      <trkpt lat="47.73375" lon="3.56573">
        <ele>223.1</ele>
        <time>2022-04-03T13:42:12Z</time>
      </trkpt>
      <trkpt lat="47.73376" lon="3.56573">
        <ele>223.1</ele>
        <time>2022-04-03T13:42:13Z</time>
      </trkpt>
      <trkpt lat="47.73377" lon="3.56572">
        <ele>223.2</ele>
        <time>2022-04-03T13:42:14Z</time>
      </trkpt>
      <trkpt lat="47.73378" lon="3.56572">
        <ele>223.2</ele>
        <time>2022-04-03T13:42:15Z</time>
      </trkpt>
      <trkpt lat="47.73379" lon="3.56572">
        <ele>223.2</ele>
        <time>2022-04-03T13:42:16Z</time>
      </trkpt>
      <trkpt lat="47.7338" lon="3.56571">
        <ele>223.2</ele>
        <time>2022-04-03T13:42:17Z</time>
      </trkpt>
      <trkpt lat="47.73382" lon="3.56571">
        <ele>223.2</ele>
        <time>2022-04-03T13:42:19Z</time>
      </trkpt>
      <trkpt lat="47.73383" lon="3.56571">
        <ele>223.2</ele>
        <time>2022-04-03T13:42:20Z</time>
      </trkpt>
      <trkpt lat="47.73384" lon="3.56571">
        <ele>223.3</ele>
        <time>2022-04-03T13:42:21Z</time>
      </trkpt>
      <trkpt lat="47.73385" lon="3.56572">
        <ele>223.3</ele>
        <time>2022-04-03T13:42:22Z</time>
      </trkpt>
      <trkpt lat="47.73386" lon="3.56572">
        <ele>223.3</ele>
        <time>2022-04-03T13:42:23Z</time>
      </trkpt>
      <trkpt lat="47.73387" lon="3.56573">
        <ele>223.3</ele>
        <time>2022-04-03T13:42:24Z</time>
      </trkpt>
      <trkpt lat="47.73388" lon="3.56573">
        <ele>223.3</ele>
        <time>2022-04-03T13:42:26Z</time>
      </trkpt>
      <trkpt lat="47.7339" lon="3.56573">
        <ele>223.3</ele>
        <time>2022-04-03T13:42:27Z</time>
      </trkpt>
      <trkpt lat="47.7339" lon="3.56575">
        <ele>223.4</ele>
        <time>2022-04-03T13:42:28Z</time>
      </trkpt>
      <trkpt lat="47.73391" lon="3.56577">
        <ele>223.4</ele>
        <time>2022-04-03T13:42:29Z</time>
      </trkpt>
      <trkpt lat="47.73391" lon="3.56578">
        <ele>223.4</ele>
        <time>2022-04-03T13:42:30Z</time>
      </trkpt>
      <trkpt lat="47.7339" lon="3.56578">
        <ele>223.4</ele>
        <time>2022-04-03T13:42:31Z</time>
      </trkpt>
      <trkpt lat="47.7339" lon="3.56579">
        <ele>223.4</ele>
        <time>2022-04-03T13:42:32Z</time>
      </trkpt>
      <trkpt lat="47.73389" lon="3.56579">
        <ele>223.4</ele>
        <time>2022-04-03T13:42:33Z</time>
      </trkpt>
      <trkpt lat="47.73388" lon="3.56579">
        <ele>223.4</ele>
        <time>2022-04-03T13:42:34Z</time>
      </trkpt>
      <trkpt lat="47.73388" lon="3.56579">
        <ele>223.4</ele>
        <time>2022-04-03T13:42:35Z</time>
      </trkpt>
      <trkpt lat="47.73388" lon="3.56579">
        <ele>223.4</ele>
        <time>2022-04-03T13:42:36Z</time>
      </trkpt>
      <trkpt lat="47.73388" lon="3.56579">
        <ele>223.4</ele>
        <time>2022-04-03T13:42:37Z</time>
      </trkpt>
      <trkpt lat="47.73388" lon="3.56579">
        <ele>223.4</ele>
        <time>2022-04-03T13:42:38Z</time>
      </trkpt>
      <trkpt lat="47.73388" lon="3.56579">
        <ele>223.4</ele>
        <time>2022-04-03T13:42:39Z</time>
      </trkpt>
      <trkpt lat="47.73388" lon="3.56579">
        <ele>223.4</ele>
        <time>2022-04-03T13:42:40Z</time>
      </trkpt>
      <trkpt lat="47.73387" lon="3.56579">
        <ele>223.4</ele>
        <time>2022-04-03T13:42:41Z</time>
      </trkpt>
      <trkpt lat="47.73387" lon="3.56579">
        <ele>223.4</ele>
        <time>2022-04-03T13:42:42Z</time>
      </trkpt>
      <trkpt lat="47.73387" lon="3.56579">
        <ele>223.4</ele>
        <time>2022-04-03T13:42:43Z</time>
      </trkpt>
      <trkpt lat="47.73387" lon="3.56579">
        <ele>223.4</ele>
        <time>2022-04-03T13:42:44Z</time>
      </trkpt>
      <trkpt lat="47.73387" lon="3.56579">
        <ele>223.4</ele>
        <time>2022-04-03T13:42:45Z</time>
      </trkpt>
      <trkpt lat="47.73387" lon="3.56579">
        <ele>223.4</ele>
        <time>2022-04-03T13:42:46Z</time>
      </trkpt>
      <trkpt lat="47.73388" lon="3.56578">
        <ele>223.5</ele>
        <time>2022-04-03T13:42:47Z</time>
      </trkpt>
      <trkpt lat="47.73388" lon="3.56578">
        <ele>223.5</ele>
        <time>2022-04-03T13:42:48Z</time>
      </trkpt>
      <trkpt lat="47.73388" lon="3.56578">
        <ele>223.5</ele>
        <time>2022-04-03T13:42:49Z</time>
      </trkpt>
      <trkpt lat="47.73387" lon="3.56578">
        <ele>223.5</ele>
        <time>2022-04-03T13:42:50Z</time>
      </trkpt>
      <trkpt lat="47.73387" lon="3.56578">
        <ele>223.5</ele>
        <time>2022-04-03T13:42:51Z</time>
      </trkpt>
      <trkpt lat="47.73387" lon="3.56578">
        <ele>223.5</ele>
        <time>2022-04-03T13:42:52Z</time>
      </trkpt>
      <trkpt lat="47.73388" lon="3.56577">
        <ele>223.5</ele>
        <time>2022-04-03T13:42:53Z</time>
      </trkpt>
      <trkpt lat="47.73388" lon="3.56577">
        <ele>223.5</ele>
        <time>2022-04-03T13:42:54Z</time>
      </trkpt>
      <trkpt lat="47.73389" lon="3.56577">
        <ele>223.5</ele>
        <time>2022-04-03T13:42:55Z</time>
      </trkpt>
      <trkpt lat="47.73389" lon="3.56577">
        <ele>223.5</ele>
        <time>2022-04-03T13:42:56Z</time>
      </trkpt>
      <trkpt lat="47.73389" lon="3.56577">
        <ele>223.5</ele>
        <time>2022-04-03T13:42:57Z</time>
      </trkpt>
      <trkpt lat="47.73389" lon="3.56576">
        <ele>223.5</ele>
        <time>2022-04-03T13:42:58Z</time>
      </trkpt>
      <trkpt lat="47.73389" lon="3.56576">
        <ele>223.5</ele>
        <time>2022-04-03T13:42:59Z</time>
      </trkpt>
      <trkpt lat="47.73389" lon="3.56576">
        <ele>223.5</ele>
        <time>2022-04-03T13:43:00Z</time>
      </trkpt>
      <trkpt lat="47.73389" lon="3.56576">
        <ele>223.5</ele>
        <time>2022-04-03T13:43:01Z</time>
      </trkpt>
      <trkpt lat="47.73389" lon="3.56576">
        <ele>223.5</ele>
        <time>2022-04-03T13:43:02Z</time>
      </trkpt>
      <trkpt lat="47.73389" lon="3.56576">
        <ele>223.5</ele>
        <time>2022-04-03T13:43:03Z</time>
      </trkpt>
      <trkpt lat="47.73389" lon="3.56576">
        <ele>223.5</ele>
        <time>2022-04-03T13:43:04Z</time>
      </trkpt>
      <trkpt lat="47.73389" lon="3.56576">
        <ele>223.5</ele>
        <time>2022-04-03T13:43:05Z</time>
      </trkpt>
      <trkpt lat="47.73388" lon="3.56576">
        <ele>223.5</ele>
        <time>2022-04-03T13:43:06Z</time>
      </trkpt>
      <trkpt lat="47.73388" lon="3.56576">
        <ele>223.5</ele>
        <time>2022-04-03T13:43:07Z</time>
      </trkpt>
      <trkpt lat="47.73388" lon="3.56576">
        <ele>223.5</ele>
        <time>2022-04-03T13:43:08Z</time>
      </trkpt>
      <trkpt lat="47.73388" lon="3.56576">
        <ele>223.5</ele>
        <time>2022-04-03T13:43:09Z</time>
      </trkpt>
      <trkpt lat="47.73388" lon="3.56576">
        <ele>223.5</ele>
        <time>2022-04-03T13:43:10Z</time>
      </trkpt>
      <trkpt lat="47.73388" lon="3.56576">
        <ele>223.5</ele>
        <time>2022-04-03T13:43:11Z</time>
      </trkpt>
      <trkpt lat="47.73387" lon="3.56577">
        <ele>223.5</ele>
        <time>2022-04-03T13:43:12Z</time>
      </trkpt>
      <trkpt lat="47.73387" lon="3.56578">
        <ele>223.5</ele>
        <time>2022-04-03T13:43:13Z</time>
      </trkpt>
      <trkpt lat="47.73387" lon="3.56578">
        <ele>223.6</ele>
        <time>2022-04-03T13:43:14Z</time>
      </trkpt>
      <trkpt lat="47.73387" lon="3.56579">
        <ele>223.6</ele>
        <time>2022-04-03T13:43:15Z</time>
      </trkpt>
      <trkpt lat="47.73387" lon="3.5658">
        <ele>223.6</ele>
        <time>2022-04-03T13:43:16Z</time>
      </trkpt>
      <trkpt lat="47.73387" lon="3.5658">
        <ele>223.6</ele>
        <time>2022-04-03T13:43:17Z</time>
      </trkpt>
      <trkpt lat="47.73387" lon="3.5658">
        <ele>223.6</ele>
        <time>2022-04-03T13:43:18Z</time>
      </trkpt>
      <trkpt lat="47.73387" lon="3.5658">
        <ele>223.6</ele>
        <time>2022-04-03T13:43:19Z</time>
      </trkpt>
      <trkpt lat="47.73387" lon="3.5658">
        <ele>223.6</ele>
        <time>2022-04-03T13:43:20Z</time>
      </trkpt>
      <trkpt lat="47.73387" lon="3.5658">
        <ele>223.6</ele>
        <time>2022-04-03T13:43:21Z</time>
      </trkpt>
      <trkpt lat="47.73388" lon="3.56579">
        <ele>223.6</ele>
        <time>2022-04-03T13:43:22Z</time>
      </trkpt>
      <trkpt lat="47.73389" lon="3.56578">
        <ele>223.6</ele>
        <time>2022-04-03T13:43:23Z</time>
      </trkpt>
      <trkpt lat="47.73389" lon="3.56578">
        <ele>223.6</ele>
        <time>2022-04-03T13:43:24Z</time>
      </trkpt>
      <trkpt lat="47.7339" lon="3.56578">
        <ele>223.6</ele>
        <time>2022-04-03T13:43:25Z</time>
      </trkpt>
      <trkpt lat="47.73391" lon="3.56577">
        <ele>223.6</ele>
        <time>2022-04-03T13:43:26Z</time>
      </trkpt>
      <trkpt lat="47.73393" lon="3.56576">
        <ele>223.7</ele>
        <time>2022-04-03T13:43:27Z</time>
      </trkpt>
      <trkpt lat="47.73396" lon="3.56575">
        <ele>223.7</ele>
        <time>2022-04-03T13:43:29Z</time>
      </trkpt>
      <trkpt lat="47.73396" lon="3.56574">
        <ele>223.7</ele>
        <time>2022-04-03T13:43:30Z</time>
      </trkpt>
      <trkpt lat="47.73398" lon="3.56574">
        <ele>223.7</ele>
        <time>2022-04-03T13:43:31Z</time>
      </trkpt>
      <trkpt lat="47.73399" lon="3.56573">
        <ele>223.7</ele>
        <time>2022-04-03T13:43:32Z</time>
      </trkpt>
      <trkpt lat="47.73401" lon="3.56572">
        <ele>223.8</ele>
        <time>2022-04-03T13:43:33Z</time>
      </trkpt>
      <trkpt lat="47.73402" lon="3.56572">
        <ele>223.8</ele>
        <time>2022-04-03T13:43:34Z</time>
      </trkpt>
      <trkpt lat="47.73403" lon="3.56572">
        <ele>223.8</ele>
        <time>2022-04-03T13:43:35Z</time>
      </trkpt>
      <trkpt lat="47.73405" lon="3.56571">
        <ele>223.8</ele>
        <time>2022-04-03T13:43:37Z</time>
      </trkpt>
      <trkpt lat="47.73406" lon="3.56571">
        <ele>223.8</ele>
        <time>2022-04-03T13:43:38Z</time>
      </trkpt>
      <trkpt lat="47.73407" lon="3.5657">
        <ele>223.8</ele>
        <time>2022-04-03T13:43:39Z</time>
      </trkpt>
      <trkpt lat="47.73409" lon="3.5657">
        <ele>223.8</ele>
        <time>2022-04-03T13:43:40Z</time>
      </trkpt>
      <trkpt lat="47.7341" lon="3.56569">
        <ele>223.8</ele>
        <time>2022-04-03T13:43:41Z</time>
      </trkpt>
      <trkpt lat="47.73411" lon="3.56569">
        <ele>223.8</ele>
        <time>2022-04-03T13:43:42Z</time>
      </trkpt>
      <trkpt lat="47.73412" lon="3.56568">
        <ele>223.8</ele>
        <time>2022-04-03T13:43:43Z</time>
      </trkpt>
      <trkpt lat="47.73413" lon="3.56568">
        <ele>223.8</ele>
        <time>2022-04-03T13:43:44Z</time>
      </trkpt>
      <trkpt lat="47.73413" lon="3.56567">
        <ele>223.8</ele>
        <time>2022-04-03T13:43:46Z</time>
      </trkpt>
      <trkpt lat="47.73414" lon="3.56565">
        <ele>223.8</ele>
        <time>2022-04-03T13:43:47Z</time>
      </trkpt>
      <trkpt lat="47.73415" lon="3.56564">
        <ele>223.7</ele>
        <time>2022-04-03T13:43:48Z</time>
      </trkpt>
      <trkpt lat="47.73415" lon="3.56563">
        <ele>223.7</ele>
        <time>2022-04-03T13:43:49Z</time>
      </trkpt>
      <trkpt lat="47.73415" lon="3.56561">
        <ele>223.7</ele>
        <time>2022-04-03T13:43:50Z</time>
      </trkpt>
      <trkpt lat="47.73415" lon="3.56559">
        <ele>223.7</ele>
        <time>2022-04-03T13:43:51Z</time>
      </trkpt>
      <trkpt lat="47.73415" lon="3.56557">
        <ele>223.7</ele>
        <time>2022-04-03T13:43:52Z</time>
      </trkpt>
      <trkpt lat="47.73415" lon="3.56553">
        <ele>223.6</ele>
        <time>2022-04-03T13:43:54Z</time>
      </trkpt>
      <trkpt lat="47.73415" lon="3.56552">
        <ele>223.6</ele>
        <time>2022-04-03T13:43:55Z</time>
      </trkpt>
      <trkpt lat="47.73415" lon="3.5655">
        <ele>223.6</ele>
        <time>2022-04-03T13:43:56Z</time>
      </trkpt>
      <trkpt lat="47.73415" lon="3.56548">
        <ele>223.6</ele>
        <time>2022-04-03T13:43:57Z</time>
      </trkpt>
      <trkpt lat="47.73415" lon="3.56545">
        <ele>223.6</ele>
        <time>2022-04-03T13:43:58Z</time>
      </trkpt>
      <trkpt lat="47.73415" lon="3.56543">
        <ele>223.6</ele>
        <time>2022-04-03T13:44:00Z</time>
      </trkpt>
      <trkpt lat="47.73414" lon="3.56541">
        <ele>223.6</ele>
        <time>2022-04-03T13:44:01Z</time>
      </trkpt>
      <trkpt lat="47.73415" lon="3.56539">
        <ele>223.6</ele>
        <time>2022-04-03T13:44:02Z</time>
      </trkpt>
      <trkpt lat="47.73415" lon="3.56535">
        <ele>223.6</ele>
        <time>2022-04-03T13:44:03Z</time>
      </trkpt>
      <trkpt lat="47.73415" lon="3.56534">
        <ele>223.6</ele>
        <time>2022-04-03T13:44:04Z</time>
      </trkpt>
      <trkpt lat="47.73415" lon="3.56533">
        <ele>223.6</ele>
        <time>2022-04-03T13:44:05Z</time>
      </trkpt>
      <trkpt lat="47.73416" lon="3.5653">
        <ele>223.6</ele>
        <time>2022-04-03T13:44:06Z</time>
      </trkpt>
      <trkpt lat="47.73416" lon="3.56529">
        <ele>223.6</ele>
        <time>2022-04-03T13:44:08Z</time>
      </trkpt>
      <trkpt lat="47.73416" lon="3.56527">
        <ele>223.6</ele>
        <time>2022-04-03T13:44:09Z</time>
      </trkpt>
      <trkpt lat="47.73417" lon="3.56524">
        <ele>223.5</ele>
        <time>2022-04-03T13:44:10Z</time>
      </trkpt>
      <trkpt lat="47.73417" lon="3.56523">
        <ele>223.5</ele>
        <time>2022-04-03T13:44:11Z</time>
      </trkpt>
      <trkpt lat="47.73417" lon="3.56521">
        <ele>223.5</ele>
        <time>2022-04-03T13:44:12Z</time>
      </trkpt>
      <trkpt lat="47.73418" lon="3.56519">
        <ele>223.5</ele>
        <time>2022-04-03T13:44:13Z</time>
      </trkpt>
      <trkpt lat="47.73418" lon="3.56516">
        <ele>223.5</ele>
        <time>2022-04-03T13:44:14Z</time>
      </trkpt>
      <trkpt lat="47.73418" lon="3.56514">
        <ele>223.5</ele>
        <time>2022-04-03T13:44:16Z</time>
      </trkpt>
      <trkpt lat="47.73418" lon="3.56512">
        <ele>223.5</ele>
        <time>2022-04-03T13:44:17Z</time>
      </trkpt>
      <trkpt lat="47.73418" lon="3.56511">
        <ele>223.5</ele>
        <time>2022-04-03T13:44:18Z</time>
      </trkpt>
      <trkpt lat="47.73418" lon="3.56508">
        <ele>223.5</ele>
        <time>2022-04-03T13:44:19Z</time>
      </trkpt>
      <trkpt lat="47.73418" lon="3.56506">
        <ele>223.5</ele>
        <time>2022-04-03T13:44:20Z</time>
      </trkpt>
      <trkpt lat="47.73418" lon="3.56504">
        <ele>223.5</ele>
        <time>2022-04-03T13:44:21Z</time>
      </trkpt>
      <trkpt lat="47.73418" lon="3.56502">
        <ele>223.5</ele>
        <time>2022-04-03T13:44:22Z</time>
      </trkpt>
      <trkpt lat="47.73418" lon="3.56499">
        <ele>223.5</ele>
        <time>2022-04-03T13:44:23Z</time>
      </trkpt>
      <trkpt lat="47.73418" lon="3.56497">
        <ele>223.5</ele>
        <time>2022-04-03T13:44:24Z</time>
      </trkpt>
      <trkpt lat="47.73419" lon="3.56495">
        <ele>223.5</ele>
        <time>2022-04-03T13:44:25Z</time>
      </trkpt>
      <trkpt lat="47.73419" lon="3.56492">
        <ele>223.5</ele>
        <time>2022-04-03T13:44:26Z</time>
      </trkpt>
      <trkpt lat="47.7342" lon="3.56489">
        <ele>223.5</ele>
        <time>2022-04-03T13:44:28Z</time>
      </trkpt>
      <trkpt lat="47.7342" lon="3.56488">
        <ele>223.4</ele>
        <time>2022-04-03T13:44:29Z</time>
      </trkpt>
      <trkpt lat="47.7342" lon="3.56487">
        <ele>223.4</ele>
        <time>2022-04-03T13:44:30Z</time>
      </trkpt>
      <trkpt lat="47.7342" lon="3.56485">
        <ele>223.4</ele>
        <time>2022-04-03T13:44:31Z</time>
      </trkpt>
      <trkpt lat="47.7342" lon="3.56483">
        <ele>223.4</ele>
        <time>2022-04-03T13:44:32Z</time>
      </trkpt>
      <trkpt lat="47.7342" lon="3.56481">
        <ele>223.3</ele>
        <time>2022-04-03T13:44:33Z</time>
      </trkpt>
      <trkpt lat="47.73421" lon="3.56479">
        <ele>223.3</ele>
        <time>2022-04-03T13:44:34Z</time>
      </trkpt>
      <trkpt lat="47.73421" lon="3.56476">
        <ele>223.3</ele>
        <time>2022-04-03T13:44:36Z</time>
      </trkpt>
      <trkpt lat="47.73421" lon="3.56474">
        <ele>223.3</ele>
        <time>2022-04-03T13:44:37Z</time>
      </trkpt>
      <trkpt lat="47.73421" lon="3.56472">
        <ele>223.2</ele>
        <time>2022-04-03T13:44:38Z</time>
      </trkpt>
      <trkpt lat="47.73421" lon="3.56469">
        <ele>223.2</ele>
        <time>2022-04-03T13:44:39Z</time>
      </trkpt>
      <trkpt lat="47.73421" lon="3.56467">
        <ele>223.2</ele>
        <time>2022-04-03T13:44:40Z</time>
      </trkpt>
      <trkpt lat="47.73422" lon="3.56464">
        <ele>223.2</ele>
        <time>2022-04-03T13:44:41Z</time>
      </trkpt>
      <trkpt lat="47.73422" lon="3.56462">
        <ele>223.2</ele>
        <time>2022-04-03T13:44:42Z</time>
      </trkpt>
      <trkpt lat="47.73422" lon="3.5646">
        <ele>223.2</ele>
        <time>2022-04-03T13:44:43Z</time>
      </trkpt>
      <trkpt lat="47.73422" lon="3.56458">
        <ele>223.2</ele>
        <time>2022-04-03T13:44:44Z</time>
      </trkpt>
      <trkpt lat="47.73423" lon="3.56456">
        <ele>223.2</ele>
        <time>2022-04-03T13:44:46Z</time>
      </trkpt>
      <trkpt lat="47.73423" lon="3.56453">
        <ele>223.2</ele>
        <time>2022-04-03T13:44:47Z</time>
      </trkpt>
      <trkpt lat="47.73423" lon="3.5645">
        <ele>223.2</ele>
        <time>2022-04-03T13:44:48Z</time>
      </trkpt>
      <trkpt lat="47.73423" lon="3.56448">
        <ele>223.2</ele>
        <time>2022-04-03T13:44:49Z</time>
      </trkpt>
      <trkpt lat="47.73423" lon="3.56446">
        <ele>223.2</ele>
        <time>2022-04-03T13:44:50Z</time>
      </trkpt>
      <trkpt lat="47.73423" lon="3.56444">
        <ele>223.2</ele>
        <time>2022-04-03T13:44:51Z</time>
      </trkpt>
      <trkpt lat="47.73423" lon="3.56441">
        <ele>223.1</ele>
        <time>2022-04-03T13:44:52Z</time>
      </trkpt>
      <trkpt lat="47.73423" lon="3.56439">
        <ele>223.1</ele>
        <time>2022-04-03T13:44:54Z</time>
      </trkpt>
      <trkpt lat="47.73423" lon="3.56437">
        <ele>223.1</ele>
        <time>2022-04-03T13:44:55Z</time>
      </trkpt>
      <trkpt lat="47.73423" lon="3.56434">
        <ele>223.1</ele>
        <time>2022-04-03T13:44:56Z</time>
      </trkpt>
      <trkpt lat="47.73423" lon="3.56431">
        <ele>223.1</ele>
        <time>2022-04-03T13:44:57Z</time>
      </trkpt>
      <trkpt lat="47.73423" lon="3.5643">
        <ele>223.1</ele>
        <time>2022-04-03T13:44:58Z</time>
      </trkpt>
      <trkpt lat="47.73423" lon="3.56428">
        <ele>223.1</ele>
        <time>2022-04-03T13:44:59Z</time>
      </trkpt>
      <trkpt lat="47.73423" lon="3.56425">
        <ele>223.1</ele>
        <time>2022-04-03T13:45:00Z</time>
      </trkpt>
      <trkpt lat="47.73423" lon="3.56423">
        <ele>223.1</ele>
        <time>2022-04-03T13:45:01Z</time>
      </trkpt>
      <trkpt lat="47.73424" lon="3.5642">
        <ele>223.1</ele>
        <time>2022-04-03T13:45:03Z</time>
      </trkpt>
      <trkpt lat="47.73424" lon="3.56418">
        <ele>223.1</ele>
        <time>2022-04-03T13:45:04Z</time>
      </trkpt>
      <trkpt lat="47.73424" lon="3.56416">
        <ele>223.1</ele>
        <time>2022-04-03T13:45:05Z</time>
      </trkpt>
      <trkpt lat="47.73425" lon="3.56412">
        <ele>223.1</ele>
        <time>2022-04-03T13:45:06Z</time>
      </trkpt>
      <trkpt lat="47.73425" lon="3.56411">
        <ele>223</ele>
        <time>2022-04-03T13:45:07Z</time>
      </trkpt>
      <trkpt lat="47.73425" lon="3.56409">
        <ele>223</ele>
        <time>2022-04-03T13:45:08Z</time>
      </trkpt>
      <trkpt lat="47.73425" lon="3.56407">
        <ele>223</ele>
        <time>2022-04-03T13:45:09Z</time>
      </trkpt>
      <trkpt lat="47.73426" lon="3.56405">
        <ele>223</ele>
        <time>2022-04-03T13:45:10Z</time>
      </trkpt>
      <trkpt lat="47.73426" lon="3.56403">
        <ele>223</ele>
        <time>2022-04-03T13:45:11Z</time>
      </trkpt>
      <trkpt lat="47.73426" lon="3.564">
        <ele>222.9</ele>
        <time>2022-04-03T13:45:12Z</time>
      </trkpt>
      <trkpt lat="47.73427" lon="3.56398">
        <ele>222.9</ele>
        <time>2022-04-03T13:45:13Z</time>
      </trkpt>
      <trkpt lat="47.73427" lon="3.56397">
        <ele>222.9</ele>
        <time>2022-04-03T13:45:14Z</time>
      </trkpt>
      <trkpt lat="47.73427" lon="3.56396">
        <ele>222.9</ele>
        <time>2022-04-03T13:45:15Z</time>
      </trkpt>
      <trkpt lat="47.73427" lon="3.56395">
        <ele>222.8</ele>
        <time>2022-04-03T13:45:16Z</time>
      </trkpt>
      <trkpt lat="47.73427" lon="3.56391">
        <ele>222.8</ele>
        <time>2022-04-03T13:45:18Z</time>
      </trkpt>
      <trkpt lat="47.73427" lon="3.5639">
        <ele>222.8</ele>
        <time>2022-04-03T13:45:19Z</time>
      </trkpt>
      <trkpt lat="47.73427" lon="3.56388">
        <ele>222.7</ele>
        <time>2022-04-03T13:45:20Z</time>
      </trkpt>
      <trkpt lat="47.73427" lon="3.56386">
        <ele>222.7</ele>
        <time>2022-04-03T13:45:21Z</time>
      </trkpt>
      <trkpt lat="47.73427" lon="3.56384">
        <ele>222.7</ele>
        <time>2022-04-03T13:45:22Z</time>
      </trkpt>
      <trkpt lat="47.73427" lon="3.56382">
        <ele>222.7</ele>
        <time>2022-04-03T13:45:23Z</time>
      </trkpt>
      <trkpt lat="47.73428" lon="3.56379">
        <ele>222.6</ele>
        <time>2022-04-03T13:45:25Z</time>
      </trkpt>
      <trkpt lat="47.73428" lon="3.56377">
        <ele>222.6</ele>
        <time>2022-04-03T13:45:26Z</time>
      </trkpt>
      <trkpt lat="47.73428" lon="3.56375">
        <ele>222.6</ele>
        <time>2022-04-03T13:45:27Z</time>
      </trkpt>
      <trkpt lat="47.73428" lon="3.56373">
        <ele>222.6</ele>
        <time>2022-04-03T13:45:28Z</time>
      </trkpt>
      <trkpt lat="47.73429" lon="3.56371">
        <ele>222.6</ele>
        <time>2022-04-03T13:45:29Z</time>
      </trkpt>
      <trkpt lat="47.73429" lon="3.56369">
        <ele>222.5</ele>
        <time>2022-04-03T13:45:30Z</time>
      </trkpt>
      <trkpt lat="47.73429" lon="3.56368">
        <ele>222.5</ele>
        <time>2022-04-03T13:45:31Z</time>
      </trkpt>
      <trkpt lat="47.73429" lon="3.56366">
        <ele>222.5</ele>
        <time>2022-04-03T13:45:32Z</time>
      </trkpt>
      <trkpt lat="47.7343" lon="3.56364">
        <ele>222.5</ele>
        <time>2022-04-03T13:45:33Z</time>
      </trkpt>
      <trkpt lat="47.7343" lon="3.56363">
        <ele>222.5</ele>
        <time>2022-04-03T13:45:34Z</time>
      </trkpt>
      <trkpt lat="47.7343" lon="3.56362">
        <ele>222.5</ele>
        <time>2022-04-03T13:45:35Z</time>
      </trkpt>
      <trkpt lat="47.7343" lon="3.56358">
        <ele>222.5</ele>
        <time>2022-04-03T13:45:36Z</time>
      </trkpt>
      <trkpt lat="47.7343" lon="3.56357">
        <ele>222.5</ele>
        <time>2022-04-03T13:45:38Z</time>
      </trkpt>
      <trkpt lat="47.7343" lon="3.56355">
        <ele>222.5</ele>
        <time>2022-04-03T13:45:39Z</time>
      </trkpt>
      <trkpt lat="47.7343" lon="3.56352">
        <ele>222.5</ele>
        <time>2022-04-03T13:45:40Z</time>
      </trkpt>
      <trkpt lat="47.7343" lon="3.56351">
        <ele>222.5</ele>
        <time>2022-04-03T13:45:41Z</time>
      </trkpt>
      <trkpt lat="47.7343" lon="3.5635">
        <ele>222.5</ele>
        <time>2022-04-03T13:45:42Z</time>
      </trkpt>
      <trkpt lat="47.73431" lon="3.56347">
        <ele>222.5</ele>
        <time>2022-04-03T13:45:43Z</time>
      </trkpt>
      <trkpt lat="47.73431" lon="3.56346">
        <ele>222.5</ele>
        <time>2022-04-03T13:45:44Z</time>
      </trkpt>
      <trkpt lat="47.73431" lon="3.56344">
        <ele>222.5</ele>
        <time>2022-04-03T13:45:46Z</time>
      </trkpt>
      <trkpt lat="47.73431" lon="3.56341">
        <ele>222.5</ele>
        <time>2022-04-03T13:45:47Z</time>
      </trkpt>
      <trkpt lat="47.73431" lon="3.56339">
        <ele>222.5</ele>
        <time>2022-04-03T13:45:48Z</time>
      </trkpt>
      <trkpt lat="47.73431" lon="3.56338">
        <ele>222.5</ele>
        <time>2022-04-03T13:45:49Z</time>
      </trkpt>
      <trkpt lat="47.73432" lon="3.56334">
        <ele>222.5</ele>
        <time>2022-04-03T13:45:50Z</time>
      </trkpt>
      <trkpt lat="47.73432" lon="3.56332">
        <ele>222.5</ele>
        <time>2022-04-03T13:45:52Z</time>
      </trkpt>
      <trkpt lat="47.73432" lon="3.5633">
        <ele>222.5</ele>
        <time>2022-04-03T13:45:53Z</time>
      </trkpt>
      <trkpt lat="47.73432" lon="3.56328">
        <ele>222.5</ele>
        <time>2022-04-03T13:45:54Z</time>
      </trkpt>
      <trkpt lat="47.73433" lon="3.56326">
        <ele>222.4</ele>
        <time>2022-04-03T13:45:55Z</time>
      </trkpt>
      <trkpt lat="47.73433" lon="3.56324">
        <ele>222.4</ele>
        <time>2022-04-03T13:45:56Z</time>
      </trkpt>
      <trkpt lat="47.73433" lon="3.56321">
        <ele>222.4</ele>
        <time>2022-04-03T13:45:57Z</time>
      </trkpt>
      <trkpt lat="47.73433" lon="3.56319">
        <ele>222.3</ele>
        <time>2022-04-03T13:45:58Z</time>
      </trkpt>
      <trkpt lat="47.73433" lon="3.56317">
        <ele>222.3</ele>
        <time>2022-04-03T13:45:59Z</time>
      </trkpt>
      <trkpt lat="47.73433" lon="3.56314">
        <ele>222.3</ele>
        <time>2022-04-03T13:46:00Z</time>
      </trkpt>
      <trkpt lat="47.73434" lon="3.56311">
        <ele>222.2</ele>
        <time>2022-04-03T13:46:01Z</time>
      </trkpt>
      <trkpt lat="47.73434" lon="3.56309">
        <ele>222.2</ele>
        <time>2022-04-03T13:46:03Z</time>
      </trkpt>
      <trkpt lat="47.73434" lon="3.56307">
        <ele>222.2</ele>
        <time>2022-04-03T13:46:04Z</time>
      </trkpt>
      <trkpt lat="47.73434" lon="3.56305">
        <ele>222.2</ele>
        <time>2022-04-03T13:46:05Z</time>
      </trkpt>
      <trkpt lat="47.73434" lon="3.56303">
        <ele>222.2</ele>
        <time>2022-04-03T13:46:06Z</time>
      </trkpt>
      <trkpt lat="47.73434" lon="3.56298">
        <ele>222.1</ele>
        <time>2022-04-03T13:46:07Z</time>
      </trkpt>
      <trkpt lat="47.73435" lon="3.56297">
        <ele>222.1</ele>
        <time>2022-04-03T13:46:08Z</time>
      </trkpt>
      <trkpt lat="47.73435" lon="3.56294">
        <ele>222.1</ele>
        <time>2022-04-03T13:46:10Z</time>
      </trkpt>
      <trkpt lat="47.73435" lon="3.56292">
        <ele>222.1</ele>
        <time>2022-04-03T13:46:11Z</time>
      </trkpt>
      <trkpt lat="47.73435" lon="3.56291">
        <ele>222.1</ele>
        <time>2022-04-03T13:46:12Z</time>
      </trkpt>
      <trkpt lat="47.73435" lon="3.56288">
        <ele>222.1</ele>
        <time>2022-04-03T13:46:13Z</time>
      </trkpt>
      <trkpt lat="47.73435" lon="3.56286">
        <ele>222.1</ele>
        <time>2022-04-03T13:46:14Z</time>
      </trkpt>
      <trkpt lat="47.73436" lon="3.56283">
        <ele>222.1</ele>
        <time>2022-04-03T13:46:15Z</time>
      </trkpt>
      <trkpt lat="47.73436" lon="3.56281">
        <ele>222.1</ele>
        <time>2022-04-03T13:46:16Z</time>
      </trkpt>
      <trkpt lat="47.73436" lon="3.5628">
        <ele>222</ele>
        <time>2022-04-03T13:46:17Z</time>
      </trkpt>
      <trkpt lat="47.73436" lon="3.56276">
        <ele>222</ele>
        <time>2022-04-03T13:46:18Z</time>
      </trkpt>
      <trkpt lat="47.73436" lon="3.56274">
        <ele>222</ele>
        <time>2022-04-03T13:46:20Z</time>
      </trkpt>
      <trkpt lat="47.73436" lon="3.56272">
        <ele>222</ele>
        <time>2022-04-03T13:46:21Z</time>
      </trkpt>
      <trkpt lat="47.73436" lon="3.56269">
        <ele>222</ele>
        <time>2022-04-03T13:46:22Z</time>
      </trkpt>
      <trkpt lat="47.73437" lon="3.56266">
        <ele>221.9</ele>
        <time>2022-04-03T13:46:23Z</time>
      </trkpt>
      <trkpt lat="47.73437" lon="3.56265">
        <ele>221.9</ele>
        <time>2022-04-03T13:46:24Z</time>
      </trkpt>
      <trkpt lat="47.73437" lon="3.56264">
        <ele>221.9</ele>
        <time>2022-04-03T13:46:25Z</time>
      </trkpt>
      <trkpt lat="47.73437" lon="3.56262">
        <ele>221.9</ele>
        <time>2022-04-03T13:46:26Z</time>
      </trkpt>
      <trkpt lat="47.73437" lon="3.5626">
        <ele>221.9</ele>
        <time>2022-04-03T13:46:27Z</time>
      </trkpt>
      <trkpt lat="47.73437" lon="3.56259">
        <ele>221.9</ele>
        <time>2022-04-03T13:46:28Z</time>
      </trkpt>
      <trkpt lat="47.73437" lon="3.56256">
        <ele>221.9</ele>
        <time>2022-04-03T13:46:30Z</time>
      </trkpt>
      <trkpt lat="47.73438" lon="3.56254">
        <ele>221.9</ele>
        <time>2022-04-03T13:46:31Z</time>
      </trkpt>
      <trkpt lat="47.73438" lon="3.56251">
        <ele>221.9</ele>
        <time>2022-04-03T13:46:32Z</time>
      </trkpt>
      <trkpt lat="47.73438" lon="3.56249">
        <ele>221.9</ele>
        <time>2022-04-03T13:46:33Z</time>
      </trkpt>
      <trkpt lat="47.73438" lon="3.56248">
        <ele>221.9</ele>
        <time>2022-04-03T13:46:34Z</time>
      </trkpt>
      <trkpt lat="47.73438" lon="3.56245">
        <ele>221.9</ele>
        <time>2022-04-03T13:46:35Z</time>
      </trkpt>
      <trkpt lat="47.73439" lon="3.56244">
        <ele>221.9</ele>
        <time>2022-04-03T13:46:36Z</time>
      </trkpt>
      <trkpt lat="47.73439" lon="3.56241">
        <ele>221.9</ele>
        <time>2022-04-03T13:46:37Z</time>
      </trkpt>
      <trkpt lat="47.73439" lon="3.56239">
        <ele>222</ele>
        <time>2022-04-03T13:46:38Z</time>
      </trkpt>
      <trkpt lat="47.73439" lon="3.56237">
        <ele>222</ele>
        <time>2022-04-03T13:46:39Z</time>
      </trkpt>
      <trkpt lat="47.73439" lon="3.56234">
        <ele>222</ele>
        <time>2022-04-03T13:46:40Z</time>
      </trkpt>
      <trkpt lat="47.73439" lon="3.56233">
        <ele>222</ele>
        <time>2022-04-03T13:46:41Z</time>
      </trkpt>
      <trkpt lat="47.73439" lon="3.56231">
        <ele>222</ele>
        <time>2022-04-03T13:46:42Z</time>
      </trkpt>
      <trkpt lat="47.7344" lon="3.56229">
        <ele>222</ele>
        <time>2022-04-03T13:46:43Z</time>
      </trkpt>
      <trkpt lat="47.7344" lon="3.56227">
        <ele>222</ele>
        <time>2022-04-03T13:46:44Z</time>
      </trkpt>
      <trkpt lat="47.7344" lon="3.56225">
        <ele>222</ele>
        <time>2022-04-03T13:46:45Z</time>
      </trkpt>
      <trkpt lat="47.7344" lon="3.56223">
        <ele>222</ele>
        <time>2022-04-03T13:46:47Z</time>
      </trkpt>
      <trkpt lat="47.73441" lon="3.56221">
        <ele>222</ele>
        <time>2022-04-03T13:46:48Z</time>
      </trkpt>
      <trkpt lat="47.73441" lon="3.56219">
        <ele>222.1</ele>
        <time>2022-04-03T13:46:49Z</time>
      </trkpt>
      <trkpt lat="47.73441" lon="3.56216">
        <ele>222.1</ele>
        <time>2022-04-03T13:46:50Z</time>
      </trkpt>
      <trkpt lat="47.73441" lon="3.56215">
        <ele>222.1</ele>
        <time>2022-04-03T13:46:51Z</time>
      </trkpt>
      <trkpt lat="47.73441" lon="3.56213">
        <ele>222.1</ele>
        <time>2022-04-03T13:46:52Z</time>
      </trkpt>
      <trkpt lat="47.73442" lon="3.56212">
        <ele>222.1</ele>
        <time>2022-04-03T13:46:53Z</time>
      </trkpt>
      <trkpt lat="47.73442" lon="3.56208">
        <ele>222.1</ele>
        <time>2022-04-03T13:46:54Z</time>
      </trkpt>
      <trkpt lat="47.73443" lon="3.56206">
        <ele>222.1</ele>
        <time>2022-04-03T13:46:56Z</time>
      </trkpt>
      <trkpt lat="47.73443" lon="3.56204">
        <ele>222.1</ele>
        <time>2022-04-03T13:46:57Z</time>
      </trkpt>
      <trkpt lat="47.73443" lon="3.56202">
        <ele>222.1</ele>
        <time>2022-04-03T13:46:58Z</time>
      </trkpt>
      <trkpt lat="47.73444" lon="3.56201">
        <ele>222.1</ele>
        <time>2022-04-03T13:46:59Z</time>
      </trkpt>
      <trkpt lat="47.73444" lon="3.56198">
        <ele>222.1</ele>
        <time>2022-04-03T13:47:00Z</time>
      </trkpt>
      <trkpt lat="47.73444" lon="3.56196">
        <ele>222.1</ele>
        <time>2022-04-03T13:47:01Z</time>
      </trkpt>
      <trkpt lat="47.73444" lon="3.56195">
        <ele>222.1</ele>
        <time>2022-04-03T13:47:02Z</time>
      </trkpt>
      <trkpt lat="47.73444" lon="3.56193">
        <ele>222.1</ele>
        <time>2022-04-03T13:47:03Z</time>
      </trkpt>
      <trkpt lat="47.73444" lon="3.56191">
        <ele>222.1</ele>
        <time>2022-04-03T13:47:04Z</time>
      </trkpt>
      <trkpt lat="47.73445" lon="3.56189">
        <ele>222.1</ele>
        <time>2022-04-03T13:47:05Z</time>
      </trkpt>
      <trkpt lat="47.73445" lon="3.56187">
        <ele>222.1</ele>
        <time>2022-04-03T13:47:07Z</time>
      </trkpt>
      <trkpt lat="47.73445" lon="3.56185">
        <ele>222.1</ele>
        <time>2022-04-03T13:47:08Z</time>
      </trkpt>
      <trkpt lat="47.73445" lon="3.56183">
        <ele>222</ele>
        <time>2022-04-03T13:47:09Z</time>
      </trkpt>
      <trkpt lat="47.73445" lon="3.56179">
        <ele>222</ele>
        <time>2022-04-03T13:47:10Z</time>
      </trkpt>
      <trkpt lat="47.73445" lon="3.56178">
        <ele>222</ele>
        <time>2022-04-03T13:47:11Z</time>
      </trkpt>
      <trkpt lat="47.73445" lon="3.56177">
        <ele>222</ele>
        <time>2022-04-03T13:47:12Z</time>
      </trkpt>
      <trkpt lat="47.73446" lon="3.56174">
        <ele>222</ele>
        <time>2022-04-03T13:47:13Z</time>
      </trkpt>
      <trkpt lat="47.73446" lon="3.56172">
        <ele>222</ele>
        <time>2022-04-03T13:47:14Z</time>
      </trkpt>
      <trkpt lat="47.73446" lon="3.5617">
        <ele>222</ele>
        <time>2022-04-03T13:47:15Z</time>
      </trkpt>
      <trkpt lat="47.73446" lon="3.56169">
        <ele>222</ele>
        <time>2022-04-03T13:47:16Z</time>
      </trkpt>
      <trkpt lat="47.73446" lon="3.56168">
        <ele>222</ele>
        <time>2022-04-03T13:47:17Z</time>
      </trkpt>
      <trkpt lat="47.73446" lon="3.56166">
        <ele>222</ele>
        <time>2022-04-03T13:47:18Z</time>
      </trkpt>
      <trkpt lat="47.73447" lon="3.56162">
        <ele>222</ele>
        <time>2022-04-03T13:47:20Z</time>
      </trkpt>
      <trkpt lat="47.73447" lon="3.56161">
        <ele>221.9</ele>
        <time>2022-04-03T13:47:21Z</time>
      </trkpt>
      <trkpt lat="47.73447" lon="3.56157">
        <ele>221.8</ele>
        <time>2022-04-03T13:47:22Z</time>
      </trkpt>
      <trkpt lat="47.73448" lon="3.56156">
        <ele>221.7</ele>
        <time>2022-04-03T13:47:23Z</time>
      </trkpt>
      <trkpt lat="47.73448" lon="3.56155">
        <ele>221.7</ele>
        <time>2022-04-03T13:47:24Z</time>
      </trkpt>
      <trkpt lat="47.73448" lon="3.56153">
        <ele>221.7</ele>
        <time>2022-04-03T13:47:25Z</time>
      </trkpt>
      <trkpt lat="47.73448" lon="3.56152">
        <ele>221.6</ele>
        <time>2022-04-03T13:47:26Z</time>
      </trkpt>
      <trkpt lat="47.73448" lon="3.5615">
        <ele>221.6</ele>
        <time>2022-04-03T13:47:27Z</time>
      </trkpt>
      <trkpt lat="47.73446" lon="3.56148">
        <ele>221.5</ele>
        <time>2022-04-03T13:47:29Z</time>
      </trkpt>
      <trkpt lat="47.73446" lon="3.56147">
        <ele>221.5</ele>
        <time>2022-04-03T13:47:30Z</time>
      </trkpt>
      <trkpt lat="47.73445" lon="3.56147">
        <ele>221.4</ele>
        <time>2022-04-03T13:47:31Z</time>
      </trkpt>
      <trkpt lat="47.73442" lon="3.56148">
        <ele>221.3</ele>
        <time>2022-04-03T13:47:33Z</time>
      </trkpt>
      <trkpt lat="47.73441" lon="3.56148">
        <ele>221.2</ele>
        <time>2022-04-03T13:47:34Z</time>
      </trkpt>
      <trkpt lat="47.73439" lon="3.56149">
        <ele>221.2</ele>
        <time>2022-04-03T13:47:35Z</time>
      </trkpt>
      <trkpt lat="47.73438" lon="3.56152">
        <ele>221.1</ele>
        <time>2022-04-03T13:47:36Z</time>
      </trkpt>
      <trkpt lat="47.73437" lon="3.56152">
        <ele>221.1</ele>
        <time>2022-04-03T13:47:37Z</time>
      </trkpt>
      <trkpt lat="47.73436" lon="3.56153">
        <ele>221.1</ele>
        <time>2022-04-03T13:47:38Z</time>
      </trkpt>
      <trkpt lat="47.73435" lon="3.56154">
        <ele>221</ele>
        <time>2022-04-03T13:47:39Z</time>
      </trkpt>
      <trkpt lat="47.73434" lon="3.56155">
        <ele>221</ele>
        <time>2022-04-03T13:47:40Z</time>
      </trkpt>
      <trkpt lat="47.73434" lon="3.56155">
        <ele>221</ele>
        <time>2022-04-03T13:47:41Z</time>
      </trkpt>
      <trkpt lat="47.73433" lon="3.56156">
        <ele>221</ele>
        <time>2022-04-03T13:47:42Z</time>
      </trkpt>
      <trkpt lat="47.73432" lon="3.56156">
        <ele>221</ele>
        <time>2022-04-03T13:47:44Z</time>
      </trkpt>
      <trkpt lat="47.73431" lon="3.56156">
        <ele>220.9</ele>
        <time>2022-04-03T13:47:45Z</time>
      </trkpt>
      <trkpt lat="47.73429" lon="3.56156">
        <ele>220.9</ele>
        <time>2022-04-03T13:47:46Z</time>
      </trkpt>
      <trkpt lat="47.73429" lon="3.56157">
        <ele>220.9</ele>
        <time>2022-04-03T13:47:47Z</time>
      </trkpt>
      <trkpt lat="47.73428" lon="3.56157">
        <ele>220.9</ele>
        <time>2022-04-03T13:47:48Z</time>
      </trkpt>
      <trkpt lat="47.73427" lon="3.56158">
        <ele>220.9</ele>
        <time>2022-04-03T13:47:49Z</time>
      </trkpt>
      <trkpt lat="47.73425" lon="3.56158">
        <ele>220.9</ele>
        <time>2022-04-03T13:47:50Z</time>
      </trkpt>
      <trkpt lat="47.73425" lon="3.56158">
        <ele>220.8</ele>
        <time>2022-04-03T13:47:51Z</time>
      </trkpt>
      <trkpt lat="47.73424" lon="3.56158">
        <ele>220.8</ele>
        <time>2022-04-03T13:47:52Z</time>
      </trkpt>
      <trkpt lat="47.73423" lon="3.56159">
        <ele>220.8</ele>
        <time>2022-04-03T13:47:53Z</time>
      </trkpt>
      <trkpt lat="47.73422" lon="3.56159">
        <ele>220.8</ele>
        <time>2022-04-03T13:47:54Z</time>
      </trkpt>
      <trkpt lat="47.7342" lon="3.56159">
        <ele>220.8</ele>
        <time>2022-04-03T13:47:55Z</time>
      </trkpt>
      <trkpt lat="47.7342" lon="3.56159">
        <ele>220.8</ele>
        <time>2022-04-03T13:47:56Z</time>
      </trkpt>
      <trkpt lat="47.73418" lon="3.56159">
        <ele>220.8</ele>
        <time>2022-04-03T13:47:58Z</time>
      </trkpt>
      <trkpt lat="47.73416" lon="3.56159">
        <ele>220.8</ele>
        <time>2022-04-03T13:47:59Z</time>
      </trkpt>
      <trkpt lat="47.73415" lon="3.56159">
        <ele>220.8</ele>
        <time>2022-04-03T13:48:00Z</time>
      </trkpt>
      <trkpt lat="47.73413" lon="3.56159">
        <ele>220.7</ele>
        <time>2022-04-03T13:48:01Z</time>
      </trkpt>
      <trkpt lat="47.73412" lon="3.56159">
        <ele>220.7</ele>
        <time>2022-04-03T13:48:02Z</time>
      </trkpt>
      <trkpt lat="47.7341" lon="3.56159">
        <ele>220.7</ele>
        <time>2022-04-03T13:48:03Z</time>
      </trkpt>
      <trkpt lat="47.73409" lon="3.56159">
        <ele>220.7</ele>
        <time>2022-04-03T13:48:04Z</time>
      </trkpt>
      <trkpt lat="47.73408" lon="3.56158">
        <ele>220.7</ele>
        <time>2022-04-03T13:48:05Z</time>
      </trkpt>
      <trkpt lat="47.73406" lon="3.56157">
        <ele>220.7</ele>
        <time>2022-04-03T13:48:06Z</time>
      </trkpt>
      <trkpt lat="47.73405" lon="3.56157">
        <ele>220.7</ele>
        <time>2022-04-03T13:48:07Z</time>
      </trkpt>
      <trkpt lat="47.73404" lon="3.56156">
        <ele>220.6</ele>
        <time>2022-04-03T13:48:08Z</time>
      </trkpt>
      <trkpt lat="47.73403" lon="3.56156">
        <ele>220.6</ele>
        <time>2022-04-03T13:48:09Z</time>
      </trkpt>
      <trkpt lat="47.73401" lon="3.56155">
        <ele>220.6</ele>
        <time>2022-04-03T13:48:10Z</time>
      </trkpt>
      <trkpt lat="47.73399" lon="3.56154">
        <ele>220.6</ele>
        <time>2022-04-03T13:48:11Z</time>
      </trkpt>
      <trkpt lat="47.73398" lon="3.56154">
        <ele>220.6</ele>
        <time>2022-04-03T13:48:13Z</time>
      </trkpt>
      <trkpt lat="47.73397" lon="3.56153">
        <ele>220.6</ele>
        <time>2022-04-03T13:48:14Z</time>
      </trkpt>
      <trkpt lat="47.73395" lon="3.56153">
        <ele>220.6</ele>
        <time>2022-04-03T13:48:15Z</time>
      </trkpt>
      <trkpt lat="47.73393" lon="3.56152">
        <ele>220.5</ele>
        <time>2022-04-03T13:48:16Z</time>
      </trkpt>
      <trkpt lat="47.73392" lon="3.56152">
        <ele>220.5</ele>
        <time>2022-04-03T13:48:17Z</time>
      </trkpt>
      <trkpt lat="47.73392" lon="3.56151">
        <ele>220.5</ele>
        <time>2022-04-03T13:48:18Z</time>
      </trkpt>
      <trkpt lat="47.7339" lon="3.56151">
        <ele>220.5</ele>
        <time>2022-04-03T13:48:19Z</time>
      </trkpt>
      <trkpt lat="47.73388" lon="3.5615">
        <ele>220.5</ele>
        <time>2022-04-03T13:48:20Z</time>
      </trkpt>
      <trkpt lat="47.73387" lon="3.5615">
        <ele>220.5</ele>
        <time>2022-04-03T13:48:21Z</time>
      </trkpt>
      <trkpt lat="47.73386" lon="3.5615">
        <ele>220.4</ele>
        <time>2022-04-03T13:48:22Z</time>
      </trkpt>
      <trkpt lat="47.73385" lon="3.56149">
        <ele>220.4</ele>
        <time>2022-04-03T13:48:23Z</time>
      </trkpt>
      <trkpt lat="47.73384" lon="3.56148">
        <ele>220.4</ele>
        <time>2022-04-03T13:48:24Z</time>
      </trkpt>
      <trkpt lat="47.73382" lon="3.56148">
        <ele>220.3</ele>
        <time>2022-04-03T13:48:26Z</time>
      </trkpt>
      <trkpt lat="47.73381" lon="3.56147">
        <ele>220.3</ele>
        <time>2022-04-03T13:48:27Z</time>
      </trkpt>
      <trkpt lat="47.7338" lon="3.56147">
        <ele>220.3</ele>
        <time>2022-04-03T13:48:28Z</time>
      </trkpt>
      <trkpt lat="47.73378" lon="3.56147">
        <ele>220.2</ele>
        <time>2022-04-03T13:48:29Z</time>
      </trkpt>
      <trkpt lat="47.73376" lon="3.56147">
        <ele>220.2</ele>
        <time>2022-04-03T13:48:30Z</time>
      </trkpt>
      <trkpt lat="47.73376" lon="3.56146">
        <ele>220.2</ele>
        <time>2022-04-03T13:48:31Z</time>
      </trkpt>
      <trkpt lat="47.73375" lon="3.56146">
        <ele>220.1</ele>
        <time>2022-04-03T13:48:32Z</time>
      </trkpt>
      <trkpt lat="47.73374" lon="3.56145">
        <ele>220.1</ele>
        <time>2022-04-03T13:48:33Z</time>
      </trkpt>
      <trkpt lat="47.73373" lon="3.56145">
        <ele>220.1</ele>
        <time>2022-04-03T13:48:34Z</time>
      </trkpt>
      <trkpt lat="47.73372" lon="3.56145">
        <ele>220.1</ele>
        <time>2022-04-03T13:48:35Z</time>
      </trkpt>
      <trkpt lat="47.7337" lon="3.56144">
        <ele>220</ele>
        <time>2022-04-03T13:48:36Z</time>
      </trkpt>
      <trkpt lat="47.73369" lon="3.56144">
        <ele>220</ele>
        <time>2022-04-03T13:48:37Z</time>
      </trkpt>
      <trkpt lat="47.73368" lon="3.56144">
        <ele>220</ele>
        <time>2022-04-03T13:48:38Z</time>
      </trkpt>
      <trkpt lat="47.73366" lon="3.56143">
        <ele>219.9</ele>
        <time>2022-04-03T13:48:40Z</time>
      </trkpt>
      <trkpt lat="47.73365" lon="3.56143">
        <ele>219.9</ele>
        <time>2022-04-03T13:48:41Z</time>
      </trkpt>
      <trkpt lat="47.73364" lon="3.56143">
        <ele>219.9</ele>
        <time>2022-04-03T13:48:42Z</time>
      </trkpt>
      <trkpt lat="47.73363" lon="3.56143">
        <ele>219.8</ele>
        <time>2022-04-03T13:48:43Z</time>
      </trkpt>
      <trkpt lat="47.73362" lon="3.56142">
        <ele>219.8</ele>
        <time>2022-04-03T13:48:44Z</time>
      </trkpt>
      <trkpt lat="47.73359" lon="3.56142">
        <ele>219.7</ele>
        <time>2022-04-03T13:48:45Z</time>
      </trkpt>
      <trkpt lat="47.73358" lon="3.56142">
        <ele>219.7</ele>
        <time>2022-04-03T13:48:46Z</time>
      </trkpt>
      <trkpt lat="47.73358" lon="3.56142">
        <ele>219.7</ele>
        <time>2022-04-03T13:48:47Z</time>
      </trkpt>
      <trkpt lat="47.73357" lon="3.56142">
        <ele>219.6</ele>
        <time>2022-04-03T13:48:48Z</time>
      </trkpt>
      <trkpt lat="47.73356" lon="3.56142">
        <ele>219.6</ele>
        <time>2022-04-03T13:48:50Z</time>
      </trkpt>
      <trkpt lat="47.73354" lon="3.56142">
        <ele>219.6</ele>
        <time>2022-04-03T13:48:51Z</time>
      </trkpt>
      <trkpt lat="47.73352" lon="3.56142">
        <ele>219.5</ele>
        <time>2022-04-03T13:48:52Z</time>
      </trkpt>
      <trkpt lat="47.73351" lon="3.56141">
        <ele>219.4</ele>
        <time>2022-04-03T13:48:53Z</time>
      </trkpt>
      <trkpt lat="47.73349" lon="3.56141">
        <ele>219.4</ele>
        <time>2022-04-03T13:48:54Z</time>
      </trkpt>
      <trkpt lat="47.73348" lon="3.56141">
        <ele>219.3</ele>
        <time>2022-04-03T13:48:55Z</time>
      </trkpt>
      <trkpt lat="47.73347" lon="3.56141">
        <ele>219.3</ele>
        <time>2022-04-03T13:48:56Z</time>
      </trkpt>
      <trkpt lat="47.73345" lon="3.56141">
        <ele>219.2</ele>
        <time>2022-04-03T13:48:57Z</time>
      </trkpt>
      <trkpt lat="47.73344" lon="3.56141">
        <ele>219.2</ele>
        <time>2022-04-03T13:48:58Z</time>
      </trkpt>
      <trkpt lat="47.73343" lon="3.56141">
        <ele>219.1</ele>
        <time>2022-04-03T13:48:59Z</time>
      </trkpt>
      <trkpt lat="47.73342" lon="3.56141">
        <ele>219.1</ele>
        <time>2022-04-03T13:49:01Z</time>
      </trkpt>
      <trkpt lat="47.7334" lon="3.5614">
        <ele>219</ele>
        <time>2022-04-03T13:49:02Z</time>
      </trkpt>
      <trkpt lat="47.73339" lon="3.5614">
        <ele>218.9</ele>
        <time>2022-04-03T13:49:03Z</time>
      </trkpt>
      <trkpt lat="47.73338" lon="3.5614">
        <ele>218.9</ele>
        <time>2022-04-03T13:49:04Z</time>
      </trkpt>
      <trkpt lat="47.73336" lon="3.5614">
        <ele>218.8</ele>
        <time>2022-04-03T13:49:05Z</time>
      </trkpt>
      <trkpt lat="47.73334" lon="3.56139">
        <ele>218.8</ele>
        <time>2022-04-03T13:49:06Z</time>
      </trkpt>
      <trkpt lat="47.73332" lon="3.56139">
        <ele>218.7</ele>
        <time>2022-04-03T13:49:07Z</time>
      </trkpt>
      <trkpt lat="47.73331" lon="3.56139">
        <ele>218.6</ele>
        <time>2022-04-03T13:49:08Z</time>
      </trkpt>
      <trkpt lat="47.7333" lon="3.56139">
        <ele>218.6</ele>
        <time>2022-04-03T13:49:09Z</time>
      </trkpt>
      <trkpt lat="47.73329" lon="3.56139">
        <ele>218.6</ele>
        <time>2022-04-03T13:49:10Z</time>
      </trkpt>
      <trkpt lat="47.73328" lon="3.56139">
        <ele>218.5</ele>
        <time>2022-04-03T13:49:11Z</time>
      </trkpt>
      <trkpt lat="47.73326" lon="3.56139">
        <ele>218.5</ele>
        <time>2022-04-03T13:49:13Z</time>
      </trkpt>
      <trkpt lat="47.73325" lon="3.56138">
        <ele>218.4</ele>
        <time>2022-04-03T13:49:14Z</time>
      </trkpt>
      <trkpt lat="47.73323" lon="3.56138">
        <ele>218.4</ele>
        <time>2022-04-03T13:49:15Z</time>
      </trkpt>
      <trkpt lat="47.73322" lon="3.56138">
        <ele>218.3</ele>
        <time>2022-04-03T13:49:16Z</time>
      </trkpt>
      <trkpt lat="47.7332" lon="3.56138">
        <ele>218.3</ele>
        <time>2022-04-03T13:49:17Z</time>
      </trkpt>
      <trkpt lat="47.73319" lon="3.56138">
        <ele>218.2</ele>
        <time>2022-04-03T13:49:18Z</time>
      </trkpt>
      <trkpt lat="47.73317" lon="3.56138">
        <ele>218.2</ele>
        <time>2022-04-03T13:49:20Z</time>
      </trkpt>
      <trkpt lat="47.73316" lon="3.56137">
        <ele>218.1</ele>
        <time>2022-04-03T13:49:21Z</time>
      </trkpt>
      <trkpt lat="47.73314" lon="3.56137">
        <ele>218</ele>
        <time>2022-04-03T13:49:22Z</time>
      </trkpt>
      <trkpt lat="47.73313" lon="3.56137">
        <ele>218</ele>
        <time>2022-04-03T13:49:23Z</time>
      </trkpt>
      <trkpt lat="47.73311" lon="3.56136">
        <ele>217.9</ele>
        <time>2022-04-03T13:49:24Z</time>
      </trkpt>
      <trkpt lat="47.7331" lon="3.56136">
        <ele>217.9</ele>
        <time>2022-04-03T13:49:25Z</time>
      </trkpt>
      <trkpt lat="47.73309" lon="3.56136">
        <ele>217.8</ele>
        <time>2022-04-03T13:49:26Z</time>
      </trkpt>
      <trkpt lat="47.73307" lon="3.56136">
        <ele>217.8</ele>
        <time>2022-04-03T13:49:28Z</time>
      </trkpt>
      <trkpt lat="47.73305" lon="3.56135">
        <ele>217.7</ele>
        <time>2022-04-03T13:49:29Z</time>
      </trkpt>
      <trkpt lat="47.73304" lon="3.56135">
        <ele>217.7</ele>
        <time>2022-04-03T13:49:30Z</time>
      </trkpt>
      <trkpt lat="47.73303" lon="3.56135">
        <ele>217.6</ele>
        <time>2022-04-03T13:49:31Z</time>
      </trkpt>
      <trkpt lat="47.73301" lon="3.56135">
        <ele>217.6</ele>
        <time>2022-04-03T13:49:32Z</time>
      </trkpt>
      <trkpt lat="47.733" lon="3.56135">
        <ele>217.5</ele>
        <time>2022-04-03T13:49:33Z</time>
      </trkpt>
      <trkpt lat="47.73298" lon="3.56134">
        <ele>217.4</ele>
        <time>2022-04-03T13:49:35Z</time>
      </trkpt>
      <trkpt lat="47.73296" lon="3.56134">
        <ele>217.4</ele>
        <time>2022-04-03T13:49:36Z</time>
      </trkpt>
      <trkpt lat="47.73295" lon="3.56133">
        <ele>217.3</ele>
        <time>2022-04-03T13:49:37Z</time>
      </trkpt>
      <trkpt lat="47.73294" lon="3.56133">
        <ele>217.3</ele>
        <time>2022-04-03T13:49:38Z</time>
      </trkpt>
      <trkpt lat="47.73293" lon="3.56133">
        <ele>217.2</ele>
        <time>2022-04-03T13:49:39Z</time>
      </trkpt>
      <trkpt lat="47.73291" lon="3.56133">
        <ele>217.2</ele>
        <time>2022-04-03T13:49:40Z</time>
      </trkpt>
      <trkpt lat="47.7329" lon="3.56133">
        <ele>217.2</ele>
        <time>2022-04-03T13:49:41Z</time>
      </trkpt>
      <trkpt lat="47.73289" lon="3.56133">
        <ele>217.1</ele>
        <time>2022-04-03T13:49:42Z</time>
      </trkpt>
      <trkpt lat="47.73286" lon="3.56132">
        <ele>217.1</ele>
        <time>2022-04-03T13:49:44Z</time>
      </trkpt>
      <trkpt lat="47.73285" lon="3.56132">
        <ele>217</ele>
        <time>2022-04-03T13:49:45Z</time>
      </trkpt>
      <trkpt lat="47.73284" lon="3.56132">
        <ele>217</ele>
        <time>2022-04-03T13:49:46Z</time>
      </trkpt>
      <trkpt lat="47.73282" lon="3.56132">
        <ele>217</ele>
        <time>2022-04-03T13:49:47Z</time>
      </trkpt>
      <trkpt lat="47.73281" lon="3.56132">
        <ele>216.9</ele>
        <time>2022-04-03T13:49:48Z</time>
      </trkpt>
      <trkpt lat="47.73279" lon="3.56132">
        <ele>216.9</ele>
        <time>2022-04-03T13:49:49Z</time>
      </trkpt>
      <trkpt lat="47.73278" lon="3.56132">
        <ele>216.8</ele>
        <time>2022-04-03T13:49:50Z</time>
      </trkpt>
      <trkpt lat="47.73277" lon="3.56132">
        <ele>216.8</ele>
        <time>2022-04-03T13:49:51Z</time>
      </trkpt>
      <trkpt lat="47.73276" lon="3.56132">
        <ele>216.8</ele>
        <time>2022-04-03T13:49:52Z</time>
      </trkpt>
      <trkpt lat="47.73274" lon="3.56131">
        <ele>216.8</ele>
        <time>2022-04-03T13:49:53Z</time>
      </trkpt>
      <trkpt lat="47.73273" lon="3.56131">
        <ele>216.7</ele>
        <time>2022-04-03T13:49:54Z</time>
      </trkpt>
      <trkpt lat="47.73272" lon="3.56131">
        <ele>216.7</ele>
        <time>2022-04-03T13:49:56Z</time>
      </trkpt>
      <trkpt lat="47.7327" lon="3.5613">
        <ele>216.7</ele>
        <time>2022-04-03T13:49:57Z</time>
      </trkpt>
      <trkpt lat="47.73269" lon="3.5613">
        <ele>216.6</ele>
        <time>2022-04-03T13:49:58Z</time>
      </trkpt>
      <trkpt lat="47.73268" lon="3.5613">
        <ele>216.6</ele>
        <time>2022-04-03T13:49:59Z</time>
      </trkpt>
      <trkpt lat="47.73266" lon="3.56129">
        <ele>216.5</ele>
        <time>2022-04-03T13:50:00Z</time>
      </trkpt>
      <trkpt lat="47.73265" lon="3.56129">
        <ele>216.5</ele>
        <time>2022-04-03T13:50:01Z</time>
      </trkpt>
      <trkpt lat="47.73264" lon="3.56128">
        <ele>216.5</ele>
        <time>2022-04-03T13:50:02Z</time>
      </trkpt>
      <trkpt lat="47.73262" lon="3.56128">
        <ele>216.5</ele>
        <time>2022-04-03T13:50:04Z</time>
      </trkpt>
      <trkpt lat="47.73261" lon="3.56127">
        <ele>216.5</ele>
        <time>2022-04-03T13:50:05Z</time>
      </trkpt>
      <trkpt lat="47.73259" lon="3.56127">
        <ele>216.4</ele>
        <time>2022-04-03T13:50:06Z</time>
      </trkpt>
      <trkpt lat="47.73257" lon="3.56125">
        <ele>216.4</ele>
        <time>2022-04-03T13:50:07Z</time>
      </trkpt>
      <trkpt lat="47.73256" lon="3.56125">
        <ele>216.4</ele>
        <time>2022-04-03T13:50:08Z</time>
      </trkpt>
      <trkpt lat="47.73256" lon="3.56125">
        <ele>216.4</ele>
        <time>2022-04-03T13:50:09Z</time>
      </trkpt>
      <trkpt lat="47.73254" lon="3.56124">
        <ele>216.3</ele>
        <time>2022-04-03T13:50:11Z</time>
      </trkpt>
      <trkpt lat="47.73253" lon="3.56123">
        <ele>216.3</ele>
        <time>2022-04-03T13:50:12Z</time>
      </trkpt>
      <trkpt lat="47.73251" lon="3.56123">
        <ele>216.3</ele>
        <time>2022-04-03T13:50:13Z</time>
      </trkpt>
      <trkpt lat="47.7325" lon="3.56122">
        <ele>216.3</ele>
        <time>2022-04-03T13:50:14Z</time>
      </trkpt>
      <trkpt lat="47.73249" lon="3.56122">
        <ele>216.2</ele>
        <time>2022-04-03T13:50:15Z</time>
      </trkpt>
      <trkpt lat="47.73248" lon="3.56121">
        <ele>216.2</ele>
        <time>2022-04-03T13:50:16Z</time>
      </trkpt>
      <trkpt lat="47.73245" lon="3.5612">
        <ele>216.2</ele>
        <time>2022-04-03T13:50:18Z</time>
      </trkpt>
      <trkpt lat="47.73245" lon="3.5612">
        <ele>216.2</ele>
        <time>2022-04-03T13:50:19Z</time>
      </trkpt>
      <trkpt lat="47.73244" lon="3.5612">
        <ele>216.1</ele>
        <time>2022-04-03T13:50:20Z</time>
      </trkpt>
      <trkpt lat="47.73243" lon="3.56119">
        <ele>216.1</ele>
        <time>2022-04-03T13:50:21Z</time>
      </trkpt>
      <trkpt lat="47.73242" lon="3.56119">
        <ele>216.1</ele>
        <time>2022-04-03T13:50:22Z</time>
      </trkpt>
      <trkpt lat="47.7324" lon="3.56117">
        <ele>216.1</ele>
        <time>2022-04-03T13:50:24Z</time>
      </trkpt>
      <trkpt lat="47.73239" lon="3.56117">
        <ele>216.1</ele>
        <time>2022-04-03T13:50:25Z</time>
      </trkpt>
      <trkpt lat="47.73239" lon="3.56116">
        <ele>216.1</ele>
        <time>2022-04-03T13:50:26Z</time>
      </trkpt>
      <trkpt lat="47.73237" lon="3.56115">
        <ele>216</ele>
        <time>2022-04-03T13:50:28Z</time>
      </trkpt>
      <trkpt lat="47.73236" lon="3.56115">
        <ele>216</ele>
        <time>2022-04-03T13:50:29Z</time>
      </trkpt>
      <trkpt lat="47.73235" lon="3.56115">
        <ele>216</ele>
        <time>2022-04-03T13:50:30Z</time>
      </trkpt>
      <trkpt lat="47.73234" lon="3.56114">
        <ele>216</ele>
        <time>2022-04-03T13:50:31Z</time>
      </trkpt>
      <trkpt lat="47.73233" lon="3.56114">
        <ele>216</ele>
        <time>2022-04-03T13:50:32Z</time>
      </trkpt>
      <trkpt lat="47.73232" lon="3.56114">
        <ele>215.9</ele>
        <time>2022-04-03T13:50:33Z</time>
      </trkpt>
      <trkpt lat="47.73231" lon="3.56114">
        <ele>215.9</ele>
        <time>2022-04-03T13:50:34Z</time>
      </trkpt>
      <trkpt lat="47.73229" lon="3.56114">
        <ele>215.8</ele>
        <time>2022-04-03T13:50:35Z</time>
      </trkpt>
      <trkpt lat="47.73228" lon="3.56114">
        <ele>215.7</ele>
        <time>2022-04-03T13:50:36Z</time>
      </trkpt>
      <trkpt lat="47.73227" lon="3.56114">
        <ele>215.7</ele>
        <time>2022-04-03T13:50:38Z</time>
      </trkpt>
      <trkpt lat="47.73225" lon="3.56113">
        <ele>215.6</ele>
        <time>2022-04-03T13:50:39Z</time>
      </trkpt>
      <trkpt lat="47.73224" lon="3.56113">
        <ele>215.5</ele>
        <time>2022-04-03T13:50:40Z</time>
      </trkpt>
      <trkpt lat="47.73223" lon="3.56112">
        <ele>215.5</ele>
        <time>2022-04-03T13:50:41Z</time>
      </trkpt>
      <trkpt lat="47.73221" lon="3.56112">
        <ele>215.4</ele>
        <time>2022-04-03T13:50:42Z</time>
      </trkpt>
      <trkpt lat="47.7322" lon="3.56112">
        <ele>215.3</ele>
        <time>2022-04-03T13:50:43Z</time>
      </trkpt>
      <trkpt lat="47.73217" lon="3.56111">
        <ele>215.2</ele>
        <time>2022-04-03T13:50:44Z</time>
      </trkpt>
      <trkpt lat="47.73216" lon="3.5611">
        <ele>215.1</ele>
        <time>2022-04-03T13:50:46Z</time>
      </trkpt>
      <trkpt lat="47.73215" lon="3.5611">
        <ele>215.1</ele>
        <time>2022-04-03T13:50:47Z</time>
      </trkpt>
      <trkpt lat="47.73214" lon="3.56109">
        <ele>215</ele>
        <time>2022-04-03T13:50:48Z</time>
      </trkpt>
      <trkpt lat="47.73212" lon="3.56109">
        <ele>215</ele>
        <time>2022-04-03T13:50:49Z</time>
      </trkpt>
      <trkpt lat="47.7321" lon="3.56108">
        <ele>214.9</ele>
        <time>2022-04-03T13:50:50Z</time>
      </trkpt>
      <trkpt lat="47.73209" lon="3.56108">
        <ele>214.8</ele>
        <time>2022-04-03T13:50:51Z</time>
      </trkpt>
      <trkpt lat="47.73208" lon="3.56108">
        <ele>214.8</ele>
        <time>2022-04-03T13:50:52Z</time>
      </trkpt>
      <trkpt lat="47.73207" lon="3.56107">
        <ele>214.7</ele>
        <time>2022-04-03T13:50:54Z</time>
      </trkpt>
      <trkpt lat="47.73205" lon="3.56106">
        <ele>214.6</ele>
        <time>2022-04-03T13:50:55Z</time>
      </trkpt>
      <trkpt lat="47.73203" lon="3.56106">
        <ele>214.5</ele>
        <time>2022-04-03T13:50:56Z</time>
      </trkpt>
      <trkpt lat="47.73202" lon="3.56105">
        <ele>214.4</ele>
        <time>2022-04-03T13:50:57Z</time>
      </trkpt>
      <trkpt lat="47.73201" lon="3.56104">
        <ele>214.3</ele>
        <time>2022-04-03T13:50:58Z</time>
      </trkpt>
      <trkpt lat="47.73199" lon="3.56103">
        <ele>214.2</ele>
        <time>2022-04-03T13:50:59Z</time>
      </trkpt>
      <trkpt lat="47.73197" lon="3.56102">
        <ele>214</ele>
        <time>2022-04-03T13:51:00Z</time>
      </trkpt>
      <trkpt lat="47.73196" lon="3.56102">
        <ele>213.9</ele>
        <time>2022-04-03T13:51:02Z</time>
      </trkpt>
      <trkpt lat="47.73194" lon="3.56102">
        <ele>213.8</ele>
        <time>2022-04-03T13:51:03Z</time>
      </trkpt>
      <trkpt lat="47.73193" lon="3.56101">
        <ele>213.7</ele>
        <time>2022-04-03T13:51:04Z</time>
      </trkpt>
      <trkpt lat="47.73192" lon="3.56101">
        <ele>213.6</ele>
        <time>2022-04-03T13:51:05Z</time>
      </trkpt>
      <trkpt lat="47.73191" lon="3.561">
        <ele>213.5</ele>
        <time>2022-04-03T13:51:06Z</time>
      </trkpt>
      <trkpt lat="47.7319" lon="3.561">
        <ele>213.4</ele>
        <time>2022-04-03T13:51:07Z</time>
      </trkpt>
      <trkpt lat="47.73189" lon="3.561">
        <ele>213.3</ele>
        <time>2022-04-03T13:51:09Z</time>
      </trkpt>
      <trkpt lat="47.73187" lon="3.56099">
        <ele>213.2</ele>
        <time>2022-04-03T13:51:10Z</time>
      </trkpt>
      <trkpt lat="47.73186" lon="3.56099">
        <ele>213.1</ele>
        <time>2022-04-03T13:51:11Z</time>
      </trkpt>
      <trkpt lat="47.73185" lon="3.56099">
        <ele>213</ele>
        <time>2022-04-03T13:51:12Z</time>
      </trkpt>
      <trkpt lat="47.73184" lon="3.56099">
        <ele>212.9</ele>
        <time>2022-04-03T13:51:13Z</time>
      </trkpt>
      <trkpt lat="47.73182" lon="3.56099">
        <ele>212.8</ele>
        <time>2022-04-03T13:51:14Z</time>
      </trkpt>
      <trkpt lat="47.73181" lon="3.56099">
        <ele>212.7</ele>
        <time>2022-04-03T13:51:15Z</time>
      </trkpt>
      <trkpt lat="47.7318" lon="3.56099">
        <ele>212.6</ele>
        <time>2022-04-03T13:51:16Z</time>
      </trkpt>
      <trkpt lat="47.73179" lon="3.56098">
        <ele>212.5</ele>
        <time>2022-04-03T13:51:18Z</time>
      </trkpt>
      <trkpt lat="47.73178" lon="3.56098">
        <ele>212.4</ele>
        <time>2022-04-03T13:51:19Z</time>
      </trkpt>
      <trkpt lat="47.73176" lon="3.56097">
        <ele>212.3</ele>
        <time>2022-04-03T13:51:20Z</time>
      </trkpt>
      <trkpt lat="47.73175" lon="3.56097">
        <ele>212.2</ele>
        <time>2022-04-03T13:51:21Z</time>
      </trkpt>
      <trkpt lat="47.73174" lon="3.56096">
        <ele>212.1</ele>
        <time>2022-04-03T13:51:22Z</time>
      </trkpt>
      <trkpt lat="47.73173" lon="3.56096">
        <ele>212.1</ele>
        <time>2022-04-03T13:51:23Z</time>
      </trkpt>
      <trkpt lat="47.73172" lon="3.56095">
        <ele>212</ele>
        <time>2022-04-03T13:51:24Z</time>
      </trkpt>
      <trkpt lat="47.7317" lon="3.56094">
        <ele>211.9</ele>
        <time>2022-04-03T13:51:25Z</time>
      </trkpt>
      <trkpt lat="47.7317" lon="3.56093">
        <ele>211.8</ele>
        <time>2022-04-03T13:51:26Z</time>
      </trkpt>
      <trkpt lat="47.73168" lon="3.56091">
        <ele>211.7</ele>
        <time>2022-04-03T13:51:28Z</time>
      </trkpt>
      <trkpt lat="47.73167" lon="3.5609">
        <ele>211.6</ele>
        <time>2022-04-03T13:51:29Z</time>
      </trkpt>
      <trkpt lat="47.73166" lon="3.56089">
        <ele>211.5</ele>
        <time>2022-04-03T13:51:30Z</time>
      </trkpt>
      <trkpt lat="47.73165" lon="3.56088">
        <ele>211.5</ele>
        <time>2022-04-03T13:51:31Z</time>
      </trkpt>
      <trkpt lat="47.73163" lon="3.56086">
        <ele>211.3</ele>
        <time>2022-04-03T13:51:32Z</time>
      </trkpt>
      <trkpt lat="47.73163" lon="3.56085">
        <ele>211.2</ele>
        <time>2022-04-03T13:51:33Z</time>
      </trkpt>
      <trkpt lat="47.73162" lon="3.56083">
        <ele>211.1</ele>
        <time>2022-04-03T13:51:35Z</time>
      </trkpt>
      <trkpt lat="47.73161" lon="3.56081">
        <ele>210.9</ele>
        <time>2022-04-03T13:51:36Z</time>
      </trkpt>
      <trkpt lat="47.7316" lon="3.5608">
        <ele>210.9</ele>
        <time>2022-04-03T13:51:37Z</time>
      </trkpt>
      <trkpt lat="47.7316" lon="3.56079">
        <ele>210.8</ele>
        <time>2022-04-03T13:51:38Z</time>
      </trkpt>
      <trkpt lat="47.73158" lon="3.56077">
        <ele>210.7</ele>
        <time>2022-04-03T13:51:39Z</time>
      </trkpt>
      <trkpt lat="47.73158" lon="3.56076">
        <ele>210.6</ele>
        <time>2022-04-03T13:51:40Z</time>
      </trkpt>
      <trkpt lat="47.73157" lon="3.56074">
        <ele>210.5</ele>
        <time>2022-04-03T13:51:41Z</time>
      </trkpt>
      <trkpt lat="47.73157" lon="3.56073">
        <ele>210.4</ele>
        <time>2022-04-03T13:51:42Z</time>
      </trkpt>
      <trkpt lat="47.73156" lon="3.56071">
        <ele>210.4</ele>
        <time>2022-04-03T13:51:43Z</time>
      </trkpt>
      <trkpt lat="47.73156" lon="3.5607">
        <ele>210.3</ele>
        <time>2022-04-03T13:51:44Z</time>
      </trkpt>
      <trkpt lat="47.73155" lon="3.56068">
        <ele>210.2</ele>
        <time>2022-04-03T13:51:45Z</time>
      </trkpt>
      <trkpt lat="47.73154" lon="3.56067">
        <ele>210.1</ele>
        <time>2022-04-03T13:51:47Z</time>
      </trkpt>
      <trkpt lat="47.73153" lon="3.56063">
        <ele>210</ele>
        <time>2022-04-03T13:51:48Z</time>
      </trkpt>
      <trkpt lat="47.73153" lon="3.56062">
        <ele>210</ele>
        <time>2022-04-03T13:51:49Z</time>
      </trkpt>
      <trkpt lat="47.73152" lon="3.56061">
        <ele>209.9</ele>
        <time>2022-04-03T13:51:50Z</time>
      </trkpt>
      <trkpt lat="47.73152" lon="3.56059">
        <ele>209.8</ele>
        <time>2022-04-03T13:51:51Z</time>
      </trkpt>
      <trkpt lat="47.73151" lon="3.56057">
        <ele>209.8</ele>
        <time>2022-04-03T13:51:52Z</time>
      </trkpt>
      <trkpt lat="47.73151" lon="3.56055">
        <ele>209.7</ele>
        <time>2022-04-03T13:51:53Z</time>
      </trkpt>
      <trkpt lat="47.7315" lon="3.56053">
        <ele>209.6</ele>
        <time>2022-04-03T13:51:54Z</time>
      </trkpt>
      <trkpt lat="47.73149" lon="3.56051">
        <ele>209.5</ele>
        <time>2022-04-03T13:51:55Z</time>
      </trkpt>
      <trkpt lat="47.73147" lon="3.56048">
        <ele>209.4</ele>
        <time>2022-04-03T13:51:56Z</time>
      </trkpt>
      <trkpt lat="47.73146" lon="3.56046">
        <ele>209.3</ele>
        <time>2022-04-03T13:51:58Z</time>
      </trkpt>
      <trkpt lat="47.73146" lon="3.56045">
        <ele>209.3</ele>
        <time>2022-04-03T13:51:59Z</time>
      </trkpt>
      <trkpt lat="47.73145" lon="3.56043">
        <ele>209.2</ele>
        <time>2022-04-03T13:52:00Z</time>
      </trkpt>
      <trkpt lat="47.73144" lon="3.56041">
        <ele>209.2</ele>
        <time>2022-04-03T13:52:01Z</time>
      </trkpt>
      <trkpt lat="47.73143" lon="3.56039">
        <ele>209.1</ele>
        <time>2022-04-03T13:52:02Z</time>
      </trkpt>
      <trkpt lat="47.73142" lon="3.56036">
        <ele>209</ele>
        <time>2022-04-03T13:52:03Z</time>
      </trkpt>
      <trkpt lat="47.73141" lon="3.56033">
        <ele>208.9</ele>
        <time>2022-04-03T13:52:05Z</time>
      </trkpt>
      <trkpt lat="47.7314" lon="3.5603">
        <ele>208.8</ele>
        <time>2022-04-03T13:52:06Z</time>
      </trkpt>
      <trkpt lat="47.73139" lon="3.56028">
        <ele>208.8</ele>
        <time>2022-04-03T13:52:07Z</time>
      </trkpt>
      <trkpt lat="47.73139" lon="3.56026">
        <ele>208.7</ele>
        <time>2022-04-03T13:52:08Z</time>
      </trkpt>
      <trkpt lat="47.73138" lon="3.56024">
        <ele>208.7</ele>
        <time>2022-04-03T13:52:09Z</time>
      </trkpt>
      <trkpt lat="47.73136" lon="3.5602">
        <ele>208.5</ele>
        <time>2022-04-03T13:52:10Z</time>
      </trkpt>
      <trkpt lat="47.73136" lon="3.56018">
        <ele>208.5</ele>
        <time>2022-04-03T13:52:11Z</time>
      </trkpt>
      <trkpt lat="47.73135" lon="3.56015">
        <ele>208.4</ele>
        <time>2022-04-03T13:52:12Z</time>
      </trkpt>
      <trkpt lat="47.73135" lon="3.56013">
        <ele>208.3</ele>
        <time>2022-04-03T13:52:13Z</time>
      </trkpt>
      <trkpt lat="47.73134" lon="3.56011">
        <ele>208.3</ele>
        <time>2022-04-03T13:52:14Z</time>
      </trkpt>
      <trkpt lat="47.73133" lon="3.56008">
        <ele>208.2</ele>
        <time>2022-04-03T13:52:16Z</time>
      </trkpt>
      <trkpt lat="47.73133" lon="3.56006">
        <ele>208.1</ele>
        <time>2022-04-03T13:52:17Z</time>
      </trkpt>
      <trkpt lat="47.73132" lon="3.56005">
        <ele>208.1</ele>
        <time>2022-04-03T13:52:18Z</time>
      </trkpt>
      <trkpt lat="47.73131" lon="3.56001">
        <ele>208</ele>
        <time>2022-04-03T13:52:19Z</time>
      </trkpt>
      <trkpt lat="47.73131" lon="3.56">
        <ele>208</ele>
        <time>2022-04-03T13:52:20Z</time>
      </trkpt>
      <trkpt lat="47.73131" lon="3.55999">
        <ele>208</ele>
        <time>2022-04-03T13:52:21Z</time>
      </trkpt>
      <trkpt lat="47.73131" lon="3.55997">
        <ele>207.9</ele>
        <time>2022-04-03T13:52:22Z</time>
      </trkpt>
      <trkpt lat="47.7313" lon="3.55995">
        <ele>207.8</ele>
        <time>2022-04-03T13:52:23Z</time>
      </trkpt>
      <trkpt lat="47.7313" lon="3.55993">
        <ele>207.8</ele>
        <time>2022-04-03T13:52:24Z</time>
      </trkpt>
      <trkpt lat="47.7313" lon="3.55992">
        <ele>207.8</ele>
        <time>2022-04-03T13:52:25Z</time>
      </trkpt>
      <trkpt lat="47.73129" lon="3.5599">
        <ele>207.7</ele>
        <time>2022-04-03T13:52:26Z</time>
      </trkpt>
      <trkpt lat="47.73128" lon="3.55987">
        <ele>207.7</ele>
        <time>2022-04-03T13:52:27Z</time>
      </trkpt>
      <trkpt lat="47.73128" lon="3.55986">
        <ele>207.7</ele>
        <time>2022-04-03T13:52:29Z</time>
      </trkpt>
      <trkpt lat="47.73127" lon="3.55984">
        <ele>207.6</ele>
        <time>2022-04-03T13:52:30Z</time>
      </trkpt>
      <trkpt lat="47.73127" lon="3.55983">
        <ele>207.6</ele>
        <time>2022-04-03T13:52:31Z</time>
      </trkpt>
      <trkpt lat="47.73127" lon="3.55981">
        <ele>207.6</ele>
        <time>2022-04-03T13:52:32Z</time>
      </trkpt>
      <trkpt lat="47.73126" lon="3.55979">
        <ele>207.6</ele>
        <time>2022-04-03T13:52:33Z</time>
      </trkpt>
      <trkpt lat="47.73126" lon="3.55976">
        <ele>207.6</ele>
        <time>2022-04-03T13:52:35Z</time>
      </trkpt>
      <trkpt lat="47.73126" lon="3.55975">
        <ele>207.6</ele>
        <time>2022-04-03T13:52:36Z</time>
      </trkpt>
      <trkpt lat="47.73125" lon="3.55972">
        <ele>207.5</ele>
        <time>2022-04-03T13:52:37Z</time>
      </trkpt>
      <trkpt lat="47.73124" lon="3.5597">
        <ele>207.5</ele>
        <time>2022-04-03T13:52:38Z</time>
      </trkpt>
      <trkpt lat="47.73124" lon="3.55969">
        <ele>207.5</ele>
        <time>2022-04-03T13:52:39Z</time>
      </trkpt>
      <trkpt lat="47.73123" lon="3.55968">
        <ele>207.5</ele>
        <time>2022-04-03T13:52:40Z</time>
      </trkpt>
      <trkpt lat="47.73122" lon="3.55966">
        <ele>207.5</ele>
        <time>2022-04-03T13:52:42Z</time>
      </trkpt>
      <trkpt lat="47.73122" lon="3.55964">
        <ele>207.5</ele>
        <time>2022-04-03T13:52:43Z</time>
      </trkpt>
      <trkpt lat="47.73121" lon="3.55963">
        <ele>207.5</ele>
        <time>2022-04-03T13:52:44Z</time>
      </trkpt>
      <trkpt lat="47.7312" lon="3.55961">
        <ele>207.5</ele>
        <time>2022-04-03T13:52:45Z</time>
      </trkpt>
      <trkpt lat="47.7312" lon="3.55959">
        <ele>207.4</ele>
        <time>2022-04-03T13:52:46Z</time>
      </trkpt>
      <trkpt lat="47.7312" lon="3.55958">
        <ele>207.4</ele>
        <time>2022-04-03T13:52:47Z</time>
      </trkpt>
      <trkpt lat="47.73119" lon="3.55956">
        <ele>207.4</ele>
        <time>2022-04-03T13:52:48Z</time>
      </trkpt>
      <trkpt lat="47.73119" lon="3.55955">
        <ele>207.4</ele>
        <time>2022-04-03T13:52:49Z</time>
      </trkpt>
      <trkpt lat="47.73119" lon="3.55953">
        <ele>207.4</ele>
        <time>2022-04-03T13:52:50Z</time>
      </trkpt>
      <trkpt lat="47.73118" lon="3.55951">
        <ele>207.4</ele>
        <time>2022-04-03T13:52:51Z</time>
      </trkpt>
      <trkpt lat="47.73117" lon="3.55948">
        <ele>207.4</ele>
        <time>2022-04-03T13:52:52Z</time>
      </trkpt>
      <trkpt lat="47.73117" lon="3.55946">
        <ele>207.4</ele>
        <time>2022-04-03T13:52:54Z</time>
      </trkpt>
      <trkpt lat="47.73116" lon="3.55945">
        <ele>207.4</ele>
        <time>2022-04-03T13:52:55Z</time>
      </trkpt>
      <trkpt lat="47.73116" lon="3.55944">
        <ele>207.4</ele>
        <time>2022-04-03T13:52:56Z</time>
      </trkpt>
      <trkpt lat="47.73116" lon="3.55942">
        <ele>207.4</ele>
        <time>2022-04-03T13:52:57Z</time>
      </trkpt>
      <trkpt lat="47.73115" lon="3.5594">
        <ele>207.4</ele>
        <time>2022-04-03T13:52:58Z</time>
      </trkpt>
      <trkpt lat="47.73115" lon="3.55939">
        <ele>207.4</ele>
        <time>2022-04-03T13:52:59Z</time>
      </trkpt>
      <trkpt lat="47.73115" lon="3.55936">
        <ele>207.4</ele>
        <time>2022-04-03T13:53:00Z</time>
      </trkpt>
      <trkpt lat="47.73115" lon="3.55935">
        <ele>207.4</ele>
        <time>2022-04-03T13:53:01Z</time>
      </trkpt>
      <trkpt lat="47.73114" lon="3.55933">
        <ele>207.4</ele>
        <time>2022-04-03T13:53:02Z</time>
      </trkpt>
      <trkpt lat="47.73114" lon="3.55931">
        <ele>207.4</ele>
        <time>2022-04-03T13:53:03Z</time>
      </trkpt>
      <trkpt lat="47.73114" lon="3.5593">
        <ele>207.4</ele>
        <time>2022-04-03T13:53:04Z</time>
      </trkpt>
      <trkpt lat="47.73114" lon="3.55927">
        <ele>207.4</ele>
        <time>2022-04-03T13:53:05Z</time>
      </trkpt>
      <trkpt lat="47.73113" lon="3.55926">
        <ele>207.4</ele>
        <time>2022-04-03T13:53:06Z</time>
      </trkpt>
      <trkpt lat="47.73113" lon="3.55925">
        <ele>207.4</ele>
        <time>2022-04-03T13:53:07Z</time>
      </trkpt>
      <trkpt lat="47.73113" lon="3.55923">
        <ele>207.4</ele>
        <time>2022-04-03T13:53:08Z</time>
      </trkpt>
      <trkpt lat="47.73112" lon="3.55921">
        <ele>207.4</ele>
        <time>2022-04-03T13:53:09Z</time>
      </trkpt>
      <trkpt lat="47.73112" lon="3.55919">
        <ele>207.4</ele>
        <time>2022-04-03T13:53:11Z</time>
      </trkpt>
      <trkpt lat="47.73111" lon="3.55917">
        <ele>207.4</ele>
        <time>2022-04-03T13:53:12Z</time>
      </trkpt>
      <trkpt lat="47.7311" lon="3.55915">
        <ele>207.4</ele>
        <time>2022-04-03T13:53:13Z</time>
      </trkpt>
      <trkpt lat="47.7311" lon="3.55913">
        <ele>207.4</ele>
        <time>2022-04-03T13:53:14Z</time>
      </trkpt>
      <trkpt lat="47.73109" lon="3.5591">
        <ele>207.5</ele>
        <time>2022-04-03T13:53:15Z</time>
      </trkpt>
      <trkpt lat="47.73108" lon="3.55909">
        <ele>207.5</ele>
        <time>2022-04-03T13:53:16Z</time>
      </trkpt>
      <trkpt lat="47.73108" lon="3.55907">
        <ele>207.5</ele>
        <time>2022-04-03T13:53:17Z</time>
      </trkpt>
      <trkpt lat="47.73107" lon="3.55905">
        <ele>207.5</ele>
        <time>2022-04-03T13:53:18Z</time>
      </trkpt>
      <trkpt lat="47.73106" lon="3.55902">
        <ele>207.5</ele>
        <time>2022-04-03T13:53:19Z</time>
      </trkpt>
      <trkpt lat="47.73106" lon="3.559">
        <ele>207.5</ele>
        <time>2022-04-03T13:53:21Z</time>
      </trkpt>
      <trkpt lat="47.73106" lon="3.55898">
        <ele>207.5</ele>
        <time>2022-04-03T13:53:22Z</time>
      </trkpt>
      <trkpt lat="47.73105" lon="3.55897">
        <ele>207.5</ele>
        <time>2022-04-03T13:53:23Z</time>
      </trkpt>
      <trkpt lat="47.73105" lon="3.55895">
        <ele>207.5</ele>
        <time>2022-04-03T13:53:24Z</time>
      </trkpt>
      <trkpt lat="47.73104" lon="3.55892">
        <ele>207.5</ele>
        <time>2022-04-03T13:53:25Z</time>
      </trkpt>
      <trkpt lat="47.73104" lon="3.55891">
        <ele>207.4</ele>
        <time>2022-04-03T13:53:26Z</time>
      </trkpt>
      <trkpt lat="47.73103" lon="3.55889">
        <ele>207.4</ele>
        <time>2022-04-03T13:53:27Z</time>
      </trkpt>
      <trkpt lat="47.73102" lon="3.55887">
        <ele>207.4</ele>
        <time>2022-04-03T13:53:28Z</time>
      </trkpt>
      <trkpt lat="47.73102" lon="3.55886">
        <ele>207.4</ele>
        <time>2022-04-03T13:53:29Z</time>
      </trkpt>
      <trkpt lat="47.73101" lon="3.55883">
        <ele>207.4</ele>
        <time>2022-04-03T13:53:30Z</time>
      </trkpt>
      <trkpt lat="47.731" lon="3.55882">
        <ele>207.3</ele>
        <time>2022-04-03T13:53:31Z</time>
      </trkpt>
      <trkpt lat="47.731" lon="3.5588">
        <ele>207.3</ele>
        <time>2022-04-03T13:53:32Z</time>
      </trkpt>
      <trkpt lat="47.73099" lon="3.55879">
        <ele>207.3</ele>
        <time>2022-04-03T13:53:33Z</time>
      </trkpt>
      <trkpt lat="47.73099" lon="3.55877">
        <ele>207.3</ele>
        <time>2022-04-03T13:53:35Z</time>
      </trkpt>
      <trkpt lat="47.73098" lon="3.55874">
        <ele>207.2</ele>
        <time>2022-04-03T13:53:36Z</time>
      </trkpt>
      <trkpt lat="47.73097" lon="3.55873">
        <ele>207.2</ele>
        <time>2022-04-03T13:53:37Z</time>
      </trkpt>
      <trkpt lat="47.73097" lon="3.55872">
        <ele>207.2</ele>
        <time>2022-04-03T13:53:38Z</time>
      </trkpt>
      <trkpt lat="47.73097" lon="3.5587">
        <ele>207.1</ele>
        <time>2022-04-03T13:53:39Z</time>
      </trkpt>
      <trkpt lat="47.73096" lon="3.55867">
        <ele>207</ele>
        <time>2022-04-03T13:53:40Z</time>
      </trkpt>
      <trkpt lat="47.73096" lon="3.55866">
        <ele>207</ele>
        <time>2022-04-03T13:53:41Z</time>
      </trkpt>
      <trkpt lat="47.73095" lon="3.55864">
        <ele>207</ele>
        <time>2022-04-03T13:53:42Z</time>
      </trkpt>
      <trkpt lat="47.73095" lon="3.55863">
        <ele>206.9</ele>
        <time>2022-04-03T13:53:43Z</time>
      </trkpt>
      <trkpt lat="47.73095" lon="3.55861">
        <ele>206.9</ele>
        <time>2022-04-03T13:53:44Z</time>
      </trkpt>
      <trkpt lat="47.73094" lon="3.55858">
        <ele>206.8</ele>
        <time>2022-04-03T13:53:45Z</time>
      </trkpt>
      <trkpt lat="47.73094" lon="3.55857">
        <ele>206.8</ele>
        <time>2022-04-03T13:53:46Z</time>
      </trkpt>
      <trkpt lat="47.73093" lon="3.55856">
        <ele>206.8</ele>
        <time>2022-04-03T13:53:47Z</time>
      </trkpt>
      <trkpt lat="47.73093" lon="3.55854">
        <ele>206.7</ele>
        <time>2022-04-03T13:53:48Z</time>
      </trkpt>
      <trkpt lat="47.73092" lon="3.55852">
        <ele>206.7</ele>
        <time>2022-04-03T13:53:49Z</time>
      </trkpt>
      <trkpt lat="47.73091" lon="3.5585">
        <ele>206.6</ele>
        <time>2022-04-03T13:53:50Z</time>
      </trkpt>
      <trkpt lat="47.73091" lon="3.55849">
        <ele>206.6</ele>
        <time>2022-04-03T13:53:51Z</time>
      </trkpt>
      <trkpt lat="47.7309" lon="3.55848">
        <ele>206.6</ele>
        <time>2022-04-03T13:53:52Z</time>
      </trkpt>
      <trkpt lat="47.7309" lon="3.55846">
        <ele>206.5</ele>
        <time>2022-04-03T13:53:54Z</time>
      </trkpt>
      <trkpt lat="47.7309" lon="3.55844">
        <ele>206.5</ele>
        <time>2022-04-03T13:53:55Z</time>
      </trkpt>
      <trkpt lat="47.7309" lon="3.55841">
        <ele>206.4</ele>
        <time>2022-04-03T13:53:56Z</time>
      </trkpt>
      <trkpt lat="47.73092" lon="3.55841">
        <ele>206.3</ele>
        <time>2022-04-03T13:53:57Z</time>
      </trkpt>
      <trkpt lat="47.73093" lon="3.55843">
        <ele>206.2</ele>
        <time>2022-04-03T13:53:58Z</time>
      </trkpt>
      <trkpt lat="47.73094" lon="3.55845">
        <ele>206.1</ele>
        <time>2022-04-03T13:53:59Z</time>
      </trkpt>
      <trkpt lat="47.73097" lon="3.55848">
        <ele>205.9</ele>
        <time>2022-04-03T13:54:01Z</time>
      </trkpt>
      <trkpt lat="47.73097" lon="3.5585">
        <ele>205.8</ele>
        <time>2022-04-03T13:54:02Z</time>
      </trkpt>
      <trkpt lat="47.73098" lon="3.55851">
        <ele>205.7</ele>
        <time>2022-04-03T13:54:03Z</time>
      </trkpt>
      <trkpt lat="47.73098" lon="3.55851">
        <ele>205.7</ele>
        <time>2022-04-03T13:54:04Z</time>
      </trkpt>
      <trkpt lat="47.73098" lon="3.55852">
        <ele>205.7</ele>
        <time>2022-04-03T13:54:05Z</time>
      </trkpt>
      <trkpt lat="47.73098" lon="3.55852">
        <ele>205.7</ele>
        <time>2022-04-03T13:54:06Z</time>
      </trkpt>
      <trkpt lat="47.73098" lon="3.55852">
        <ele>205.7</ele>
        <time>2022-04-03T13:54:07Z</time>
      </trkpt>
      <trkpt lat="47.73098" lon="3.55852">
        <ele>205.7</ele>
        <time>2022-04-03T13:54:08Z</time>
      </trkpt>
      <trkpt lat="47.73098" lon="3.55852">
        <ele>205.7</ele>
        <time>2022-04-03T13:54:09Z</time>
      </trkpt>
      <trkpt lat="47.73098" lon="3.55852">
        <ele>205.7</ele>
        <time>2022-04-03T13:54:10Z</time>
      </trkpt>
      <trkpt lat="47.73098" lon="3.55852">
        <ele>205.7</ele>
        <time>2022-04-03T13:54:11Z</time>
      </trkpt>
      <trkpt lat="47.73098" lon="3.55852">
        <ele>205.7</ele>
        <time>2022-04-03T13:54:12Z</time>
      </trkpt>
      <trkpt lat="47.73098" lon="3.55852">
        <ele>205.6</ele>
        <time>2022-04-03T13:54:13Z</time>
      </trkpt>
      <trkpt lat="47.73098" lon="3.55852">
        <ele>205.6</ele>
        <time>2022-04-03T13:54:14Z</time>
      </trkpt>
      <trkpt lat="47.73098" lon="3.55851">
        <ele>205.6</ele>
        <time>2022-04-03T13:54:15Z</time>
      </trkpt>
      <trkpt lat="47.73097" lon="3.55851">
        <ele>205.6</ele>
        <time>2022-04-03T13:54:16Z</time>
      </trkpt>
      <trkpt lat="47.73097" lon="3.5585">
        <ele>205.6</ele>
        <time>2022-04-03T13:54:17Z</time>
      </trkpt>
      <trkpt lat="47.73097" lon="3.5585">
        <ele>205.6</ele>
        <time>2022-04-03T13:54:18Z</time>
      </trkpt>
      <trkpt lat="47.73097" lon="3.5585">
        <ele>205.6</ele>
        <time>2022-04-03T13:54:19Z</time>
      </trkpt>
      <trkpt lat="47.73097" lon="3.5585">
        <ele>205.5</ele>
        <time>2022-04-03T13:54:20Z</time>
      </trkpt>
      <trkpt lat="47.73097" lon="3.5585">
        <ele>205.5</ele>
        <time>2022-04-03T13:54:21Z</time>
      </trkpt>
      <trkpt lat="47.73097" lon="3.5585">
        <ele>205.5</ele>
        <time>2022-04-03T13:54:22Z</time>
      </trkpt>
      <trkpt lat="47.73097" lon="3.55849">
        <ele>205.5</ele>
        <time>2022-04-03T13:54:23Z</time>
      </trkpt>
      <trkpt lat="47.73097" lon="3.55849">
        <ele>205.5</ele>
        <time>2022-04-03T13:54:24Z</time>
      </trkpt>
      <trkpt lat="47.73097" lon="3.55849">
        <ele>205.5</ele>
        <time>2022-04-03T13:54:25Z</time>
      </trkpt>
      <trkpt lat="47.73098" lon="3.55849">
        <ele>205.5</ele>
        <time>2022-04-03T13:54:26Z</time>
      </trkpt>
      <trkpt lat="47.73098" lon="3.55849">
        <ele>205.5</ele>
        <time>2022-04-03T13:54:27Z</time>
      </trkpt>
      <trkpt lat="47.73098" lon="3.55847">
        <ele>205.4</ele>
        <time>2022-04-03T13:54:28Z</time>
      </trkpt>
      <trkpt lat="47.73097" lon="3.55846">
        <ele>205.3</ele>
        <time>2022-04-03T13:54:29Z</time>
      </trkpt>
      <trkpt lat="47.73096" lon="3.55843">
        <ele>205.2</ele>
        <time>2022-04-03T13:54:30Z</time>
      </trkpt>
      <trkpt lat="47.73095" lon="3.55841">
        <ele>205.1</ele>
        <time>2022-04-03T13:54:31Z</time>
      </trkpt>
      <trkpt lat="47.73094" lon="3.5584">
        <ele>205</ele>
        <time>2022-04-03T13:54:32Z</time>
      </trkpt>
      <trkpt lat="47.73092" lon="3.55836">
        <ele>204.8</ele>
        <time>2022-04-03T13:54:33Z</time>
      </trkpt>
      <trkpt lat="47.73092" lon="3.55834">
        <ele>204.7</ele>
        <time>2022-04-03T13:54:34Z</time>
      </trkpt>
      <trkpt lat="47.7309" lon="3.55831">
        <ele>204.5</ele>
        <time>2022-04-03T13:54:35Z</time>
      </trkpt>
      <trkpt lat="47.73089" lon="3.55827">
        <ele>204.3</ele>
        <time>2022-04-03T13:54:36Z</time>
      </trkpt>
      <trkpt lat="47.73088" lon="3.55822">
        <ele>204.1</ele>
        <time>2022-04-03T13:54:37Z</time>
      </trkpt>
      <trkpt lat="47.73087" lon="3.55817">
        <ele>203.9</ele>
        <time>2022-04-03T13:54:38Z</time>
      </trkpt>
      <trkpt lat="47.73087" lon="3.55812">
        <ele>203.6</ele>
        <time>2022-04-03T13:54:39Z</time>
      </trkpt>
      <trkpt lat="47.73086" lon="3.55808">
        <ele>203.4</ele>
        <time>2022-04-03T13:54:40Z</time>
      </trkpt>
      <trkpt lat="47.73086" lon="3.55802">
        <ele>203.2</ele>
        <time>2022-04-03T13:54:41Z</time>
      </trkpt>
      <trkpt lat="47.73086" lon="3.558">
        <ele>203.1</ele>
        <time>2022-04-03T13:54:42Z</time>
      </trkpt>
      <trkpt lat="47.73086" lon="3.55796">
        <ele>202.9</ele>
        <time>2022-04-03T13:54:44Z</time>
      </trkpt>
      <trkpt lat="47.73087" lon="3.55792">
        <ele>202.8</ele>
        <time>2022-04-03T13:54:45Z</time>
      </trkpt>
      <trkpt lat="47.73088" lon="3.55786">
        <ele>202.6</ele>
        <time>2022-04-03T13:54:46Z</time>
      </trkpt>
      <trkpt lat="47.73089" lon="3.55785">
        <ele>202.6</ele>
        <time>2022-04-03T13:54:47Z</time>
      </trkpt>
      <trkpt lat="47.73089" lon="3.5578">
        <ele>202.4</ele>
        <time>2022-04-03T13:54:48Z</time>
      </trkpt>
      <trkpt lat="47.73089" lon="3.55779">
        <ele>202.4</ele>
        <time>2022-04-03T13:54:49Z</time>
      </trkpt>
      <trkpt lat="47.73089" lon="3.55776">
        <ele>202.4</ele>
        <time>2022-04-03T13:54:50Z</time>
      </trkpt>
      <trkpt lat="47.73089" lon="3.55772">
        <ele>202.3</ele>
        <time>2022-04-03T13:54:52Z</time>
      </trkpt>
      <trkpt lat="47.7309" lon="3.55767">
        <ele>202.2</ele>
        <time>2022-04-03T13:54:53Z</time>
      </trkpt>
      <trkpt lat="47.7309" lon="3.55765">
        <ele>202.2</ele>
        <time>2022-04-03T13:54:54Z</time>
      </trkpt>
      <trkpt lat="47.7309" lon="3.5576">
        <ele>202.1</ele>
        <time>2022-04-03T13:54:55Z</time>
      </trkpt>
      <trkpt lat="47.7309" lon="3.55758">
        <ele>202.1</ele>
        <time>2022-04-03T13:54:56Z</time>
      </trkpt>
      <trkpt lat="47.7309" lon="3.55753">
        <ele>202</ele>
        <time>2022-04-03T13:54:57Z</time>
      </trkpt>
      <trkpt lat="47.7309" lon="3.55751">
        <ele>201.9</ele>
        <time>2022-04-03T13:54:58Z</time>
      </trkpt>
      <trkpt lat="47.7309" lon="3.55748">
        <ele>201.9</ele>
        <time>2022-04-03T13:54:59Z</time>
      </trkpt>
      <trkpt lat="47.73091" lon="3.55744">
        <ele>201.8</ele>
        <time>2022-04-03T13:55:01Z</time>
      </trkpt>
      <trkpt lat="47.73091" lon="3.55739">
        <ele>201.7</ele>
        <time>2022-04-03T13:55:02Z</time>
      </trkpt>
      <trkpt lat="47.73092" lon="3.55734">
        <ele>201.5</ele>
        <time>2022-04-03T13:55:03Z</time>
      </trkpt>
      <trkpt lat="47.73092" lon="3.55733">
        <ele>201.5</ele>
        <time>2022-04-03T13:55:04Z</time>
      </trkpt>
      <trkpt lat="47.73092" lon="3.55729">
        <ele>201.4</ele>
        <time>2022-04-03T13:55:05Z</time>
      </trkpt>
      <trkpt lat="47.73092" lon="3.55725">
        <ele>201.3</ele>
        <time>2022-04-03T13:55:07Z</time>
      </trkpt>
      <trkpt lat="47.73093" lon="3.5572">
        <ele>201.2</ele>
        <time>2022-04-03T13:55:08Z</time>
      </trkpt>
      <trkpt lat="47.73093" lon="3.55718">
        <ele>201.1</ele>
        <time>2022-04-03T13:55:09Z</time>
      </trkpt>
      <trkpt lat="47.73093" lon="3.55713">
        <ele>201.1</ele>
        <time>2022-04-03T13:55:10Z</time>
      </trkpt>
      <trkpt lat="47.73093" lon="3.55711">
        <ele>201</ele>
        <time>2022-04-03T13:55:11Z</time>
      </trkpt>
      <trkpt lat="47.73093" lon="3.55707">
        <ele>201</ele>
        <time>2022-04-03T13:55:12Z</time>
      </trkpt>
      <trkpt lat="47.73093" lon="3.55704">
        <ele>201</ele>
        <time>2022-04-03T13:55:14Z</time>
      </trkpt>
      <trkpt lat="47.73093" lon="3.55699">
        <ele>200.9</ele>
        <time>2022-04-03T13:55:15Z</time>
      </trkpt>
      <trkpt lat="47.73093" lon="3.55697">
        <ele>200.9</ele>
        <time>2022-04-03T13:55:16Z</time>
      </trkpt>
      <trkpt lat="47.73093" lon="3.55693">
        <ele>200.9</ele>
        <time>2022-04-03T13:55:17Z</time>
      </trkpt>
      <trkpt lat="47.73093" lon="3.55692">
        <ele>200.9</ele>
        <time>2022-04-03T13:55:18Z</time>
      </trkpt>
      <trkpt lat="47.73094" lon="3.55686">
        <ele>200.8</ele>
        <time>2022-04-03T13:55:19Z</time>
      </trkpt>
      <trkpt lat="47.73094" lon="3.55685">
        <ele>200.8</ele>
        <time>2022-04-03T13:55:20Z</time>
      </trkpt>
      <trkpt lat="47.73094" lon="3.55682">
        <ele>200.8</ele>
        <time>2022-04-03T13:55:21Z</time>
      </trkpt>
      <trkpt lat="47.73094" lon="3.55679">
        <ele>200.7</ele>
        <time>2022-04-03T13:55:23Z</time>
      </trkpt>
      <trkpt lat="47.73094" lon="3.55674">
        <ele>200.6</ele>
        <time>2022-04-03T13:55:24Z</time>
      </trkpt>
      <trkpt lat="47.73094" lon="3.55672">
        <ele>200.6</ele>
        <time>2022-04-03T13:55:25Z</time>
      </trkpt>
      <trkpt lat="47.73095" lon="3.55668">
        <ele>200.5</ele>
        <time>2022-04-03T13:55:26Z</time>
      </trkpt>
      <trkpt lat="47.73096" lon="3.55662">
        <ele>200.4</ele>
        <time>2022-04-03T13:55:28Z</time>
      </trkpt>
      <trkpt lat="47.73096" lon="3.55661">
        <ele>200.4</ele>
        <time>2022-04-03T13:55:29Z</time>
      </trkpt>
      <trkpt lat="47.73096" lon="3.55659">
        <ele>200.3</ele>
        <time>2022-04-03T13:55:30Z</time>
      </trkpt>
      <trkpt lat="47.73096" lon="3.55658">
        <ele>200.3</ele>
        <time>2022-04-03T13:55:31Z</time>
      </trkpt>
      <trkpt lat="47.73095" lon="3.55656">
        <ele>200.2</ele>
        <time>2022-04-03T13:55:32Z</time>
      </trkpt>
      <trkpt lat="47.73095" lon="3.55654">
        <ele>200.2</ele>
        <time>2022-04-03T13:55:33Z</time>
      </trkpt>
      <trkpt lat="47.73095" lon="3.55651">
        <ele>200.1</ele>
        <time>2022-04-03T13:55:35Z</time>
      </trkpt>
      <trkpt lat="47.73095" lon="3.55648">
        <ele>200</ele>
        <time>2022-04-03T13:55:36Z</time>
      </trkpt>
      <trkpt lat="47.73095" lon="3.55647">
        <ele>200</ele>
        <time>2022-04-03T13:55:37Z</time>
      </trkpt>
      <trkpt lat="47.73095" lon="3.55643">
        <ele>199.9</ele>
        <time>2022-04-03T13:55:38Z</time>
      </trkpt>
      <trkpt lat="47.73095" lon="3.55642">
        <ele>199.8</ele>
        <time>2022-04-03T13:55:39Z</time>
      </trkpt>
      <trkpt lat="47.73095" lon="3.55641">
        <ele>199.8</ele>
        <time>2022-04-03T13:55:40Z</time>
      </trkpt>
      <trkpt lat="47.73096" lon="3.55638">
        <ele>199.7</ele>
        <time>2022-04-03T13:55:41Z</time>
      </trkpt>
      <trkpt lat="47.73096" lon="3.55637">
        <ele>199.7</ele>
        <time>2022-04-03T13:55:42Z</time>
      </trkpt>
      <trkpt lat="47.73096" lon="3.55636">
        <ele>199.6</ele>
        <time>2022-04-03T13:55:43Z</time>
      </trkpt>
      <trkpt lat="47.73096" lon="3.55633">
        <ele>199.5</ele>
        <time>2022-04-03T13:55:45Z</time>
      </trkpt>
      <trkpt lat="47.73096" lon="3.55631">
        <ele>199.5</ele>
        <time>2022-04-03T13:55:46Z</time>
      </trkpt>
      <trkpt lat="47.73096" lon="3.55627">
        <ele>199.3</ele>
        <time>2022-04-03T13:55:47Z</time>
      </trkpt>
      <trkpt lat="47.73096" lon="3.55625">
        <ele>199.3</ele>
        <time>2022-04-03T13:55:48Z</time>
      </trkpt>
      <trkpt lat="47.73096" lon="3.55623">
        <ele>199.2</ele>
        <time>2022-04-03T13:55:49Z</time>
      </trkpt>
      <trkpt lat="47.73097" lon="3.55622">
        <ele>199.2</ele>
        <time>2022-04-03T13:55:50Z</time>
      </trkpt>
      <trkpt lat="47.73097" lon="3.55621">
        <ele>199.1</ele>
        <time>2022-04-03T13:55:51Z</time>
      </trkpt>
      <trkpt lat="47.73097" lon="3.5562">
        <ele>199.1</ele>
        <time>2022-04-03T13:55:52Z</time>
      </trkpt>
      <trkpt lat="47.73098" lon="3.55617">
        <ele>199</ele>
        <time>2022-04-03T13:55:54Z</time>
      </trkpt>
      <trkpt lat="47.73099" lon="3.55616">
        <ele>199</ele>
        <time>2022-04-03T13:55:55Z</time>
      </trkpt>
      <trkpt lat="47.731" lon="3.55615">
        <ele>198.9</ele>
        <time>2022-04-03T13:55:56Z</time>
      </trkpt>
      <trkpt lat="47.731" lon="3.55614">
        <ele>198.8</ele>
        <time>2022-04-03T13:55:57Z</time>
      </trkpt>
      <trkpt lat="47.73101" lon="3.55612">
        <ele>198.8</ele>
        <time>2022-04-03T13:55:58Z</time>
      </trkpt>
      <trkpt lat="47.73101" lon="3.55611">
        <ele>198.7</ele>
        <time>2022-04-03T13:55:59Z</time>
      </trkpt>
      <trkpt lat="47.73101" lon="3.55609">
        <ele>198.7</ele>
        <time>2022-04-03T13:56:00Z</time>
      </trkpt>
      <trkpt lat="47.731" lon="3.55608">
        <ele>198.6</ele>
        <time>2022-04-03T13:56:01Z</time>
      </trkpt>
      <trkpt lat="47.731" lon="3.55607">
        <ele>198.6</ele>
        <time>2022-04-03T13:56:02Z</time>
      </trkpt>
      <trkpt lat="47.731" lon="3.55605">
        <ele>198.5</ele>
        <time>2022-04-03T13:56:04Z</time>
      </trkpt>
      <trkpt lat="47.731" lon="3.55603">
        <ele>198.4</ele>
        <time>2022-04-03T13:56:05Z</time>
      </trkpt>
      <trkpt lat="47.731" lon="3.55601">
        <ele>198.3</ele>
        <time>2022-04-03T13:56:06Z</time>
      </trkpt>
      <trkpt lat="47.731" lon="3.55598">
        <ele>198.3</ele>
        <time>2022-04-03T13:56:07Z</time>
      </trkpt>
      <trkpt lat="47.731" lon="3.55596">
        <ele>198.2</ele>
        <time>2022-04-03T13:56:08Z</time>
      </trkpt>
      <trkpt lat="47.731" lon="3.55594">
        <ele>198.1</ele>
        <time>2022-04-03T13:56:09Z</time>
      </trkpt>
      <trkpt lat="47.73101" lon="3.55592">
        <ele>198</ele>
        <time>2022-04-03T13:56:10Z</time>
      </trkpt>
      <trkpt lat="47.73101" lon="3.55591">
        <ele>198</ele>
        <time>2022-04-03T13:56:11Z</time>
      </trkpt>
      <trkpt lat="47.73101" lon="3.55589">
        <ele>197.9</ele>
        <time>2022-04-03T13:56:12Z</time>
      </trkpt>
      <trkpt lat="47.73102" lon="3.55586">
        <ele>197.8</ele>
        <time>2022-04-03T13:56:13Z</time>
      </trkpt>
      <trkpt lat="47.73102" lon="3.55585">
        <ele>197.8</ele>
        <time>2022-04-03T13:56:15Z</time>
      </trkpt>
      <trkpt lat="47.73102" lon="3.55582">
        <ele>197.7</ele>
        <time>2022-04-03T13:56:16Z</time>
      </trkpt>
      <trkpt lat="47.73102" lon="3.5558">
        <ele>197.7</ele>
        <time>2022-04-03T13:56:17Z</time>
      </trkpt>
      <trkpt lat="47.73102" lon="3.55577">
        <ele>197.6</ele>
        <time>2022-04-03T13:56:18Z</time>
      </trkpt>
      <trkpt lat="47.73103" lon="3.55575">
        <ele>197.6</ele>
        <time>2022-04-03T13:56:19Z</time>
      </trkpt>
      <trkpt lat="47.73103" lon="3.55573">
        <ele>197.6</ele>
        <time>2022-04-03T13:56:20Z</time>
      </trkpt>
      <trkpt lat="47.73103" lon="3.55572">
        <ele>197.5</ele>
        <time>2022-04-03T13:56:21Z</time>
      </trkpt>
      <trkpt lat="47.73103" lon="3.55571">
        <ele>197.5</ele>
        <time>2022-04-03T13:56:22Z</time>
      </trkpt>
      <trkpt lat="47.73104" lon="3.55569">
        <ele>197.5</ele>
        <time>2022-04-03T13:56:23Z</time>
      </trkpt>
      <trkpt lat="47.73104" lon="3.55567">
        <ele>197.5</ele>
        <time>2022-04-03T13:56:24Z</time>
      </trkpt>
      <trkpt lat="47.73104" lon="3.55563">
        <ele>197.5</ele>
        <time>2022-04-03T13:56:26Z</time>
      </trkpt>
      <trkpt lat="47.73104" lon="3.55561">
        <ele>197.4</ele>
        <time>2022-04-03T13:56:27Z</time>
      </trkpt>
      <trkpt lat="47.73104" lon="3.55558">
        <ele>197.4</ele>
        <time>2022-04-03T13:56:28Z</time>
      </trkpt>
      <trkpt lat="47.73104" lon="3.55557">
        <ele>197.4</ele>
        <time>2022-04-03T13:56:29Z</time>
      </trkpt>
      <trkpt lat="47.73105" lon="3.55555">
        <ele>197.4</ele>
        <time>2022-04-03T13:56:30Z</time>
      </trkpt>
      <trkpt lat="47.73105" lon="3.55553">
        <ele>197.4</ele>
        <time>2022-04-03T13:56:31Z</time>
      </trkpt>
      <trkpt lat="47.73105" lon="3.55551">
        <ele>197.3</ele>
        <time>2022-04-03T13:56:32Z</time>
      </trkpt>
      <trkpt lat="47.73105" lon="3.55548">
        <ele>197.3</ele>
        <time>2022-04-03T13:56:33Z</time>
      </trkpt>
      <trkpt lat="47.73105" lon="3.55546">
        <ele>197.3</ele>
        <time>2022-04-03T13:56:34Z</time>
      </trkpt>
      <trkpt lat="47.73106" lon="3.55544">
        <ele>197.2</ele>
        <time>2022-04-03T13:56:35Z</time>
      </trkpt>
      <trkpt lat="47.73106" lon="3.55542">
        <ele>197.2</ele>
        <time>2022-04-03T13:56:36Z</time>
      </trkpt>
      <trkpt lat="47.73106" lon="3.55541">
        <ele>197.2</ele>
        <time>2022-04-03T13:56:37Z</time>
      </trkpt>
      <trkpt lat="47.73106" lon="3.55538">
        <ele>197.2</ele>
        <time>2022-04-03T13:56:38Z</time>
      </trkpt>
      <trkpt lat="47.73107" lon="3.55537">
        <ele>197.2</ele>
        <time>2022-04-03T13:56:39Z</time>
      </trkpt>
      <trkpt lat="47.73107" lon="3.55534">
        <ele>197.1</ele>
        <time>2022-04-03T13:56:41Z</time>
      </trkpt>
      <trkpt lat="47.73107" lon="3.55532">
        <ele>197.1</ele>
        <time>2022-04-03T13:56:42Z</time>
      </trkpt>
      <trkpt lat="47.73107" lon="3.55529">
        <ele>197.1</ele>
        <time>2022-04-03T13:56:43Z</time>
      </trkpt>
      <trkpt lat="47.73108" lon="3.55528">
        <ele>197.1</ele>
        <time>2022-04-03T13:56:44Z</time>
      </trkpt>
      <trkpt lat="47.73108" lon="3.55526">
        <ele>197.1</ele>
        <time>2022-04-03T13:56:45Z</time>
      </trkpt>
      <trkpt lat="47.73108" lon="3.55524">
        <ele>197.1</ele>
        <time>2022-04-03T13:56:46Z</time>
      </trkpt>
      <trkpt lat="47.73108" lon="3.55522">
        <ele>197.1</ele>
        <time>2022-04-03T13:56:47Z</time>
      </trkpt>
      <trkpt lat="47.73108" lon="3.55519">
        <ele>197.1</ele>
        <time>2022-04-03T13:56:48Z</time>
      </trkpt>
      <trkpt lat="47.73108" lon="3.55518">
        <ele>197</ele>
        <time>2022-04-03T13:56:49Z</time>
      </trkpt>
      <trkpt lat="47.73108" lon="3.55516">
        <ele>197</ele>
        <time>2022-04-03T13:56:50Z</time>
      </trkpt>
      <trkpt lat="47.73108" lon="3.55514">
        <ele>197</ele>
        <time>2022-04-03T13:56:52Z</time>
      </trkpt>
      <trkpt lat="47.73108" lon="3.55511">
        <ele>197</ele>
        <time>2022-04-03T13:56:53Z</time>
      </trkpt>
      <trkpt lat="47.73109" lon="3.55509">
        <ele>197</ele>
        <time>2022-04-03T13:56:54Z</time>
      </trkpt>
      <trkpt lat="47.73108" lon="3.55507">
        <ele>197</ele>
        <time>2022-04-03T13:56:55Z</time>
      </trkpt>
      <trkpt lat="47.73109" lon="3.55506">
        <ele>196.9</ele>
        <time>2022-04-03T13:56:56Z</time>
      </trkpt>
      <trkpt lat="47.73109" lon="3.55504">
        <ele>196.9</ele>
        <time>2022-04-03T13:56:57Z</time>
      </trkpt>
      <trkpt lat="47.73109" lon="3.55501">
        <ele>196.9</ele>
        <time>2022-04-03T13:56:58Z</time>
      </trkpt>
      <trkpt lat="47.73109" lon="3.555">
        <ele>196.9</ele>
        <time>2022-04-03T13:56:59Z</time>
      </trkpt>
      <trkpt lat="47.73109" lon="3.55497">
        <ele>196.8</ele>
        <time>2022-04-03T13:57:00Z</time>
      </trkpt>
      <trkpt lat="47.73109" lon="3.55495">
        <ele>196.8</ele>
        <time>2022-04-03T13:57:01Z</time>
      </trkpt>
      <trkpt lat="47.73109" lon="3.55494">
        <ele>196.8</ele>
        <time>2022-04-03T13:57:02Z</time>
      </trkpt>
      <trkpt lat="47.73109" lon="3.5549">
        <ele>196.7</ele>
        <time>2022-04-03T13:57:03Z</time>
      </trkpt>
      <trkpt lat="47.73109" lon="3.55489">
        <ele>196.7</ele>
        <time>2022-04-03T13:57:04Z</time>
      </trkpt>
      <trkpt lat="47.73109" lon="3.55488">
        <ele>196.7</ele>
        <time>2022-04-03T13:57:05Z</time>
      </trkpt>
      <trkpt lat="47.73109" lon="3.55486">
        <ele>196.6</ele>
        <time>2022-04-03T13:57:06Z</time>
      </trkpt>
      <trkpt lat="47.73109" lon="3.55484">
        <ele>196.6</ele>
        <time>2022-04-03T13:57:07Z</time>
      </trkpt>
      <trkpt lat="47.73109" lon="3.55481">
        <ele>196.5</ele>
        <time>2022-04-03T13:57:09Z</time>
      </trkpt>
      <trkpt lat="47.73109" lon="3.55479">
        <ele>196.5</ele>
        <time>2022-04-03T13:57:10Z</time>
      </trkpt>
      <trkpt lat="47.73109" lon="3.55477">
        <ele>196.4</ele>
        <time>2022-04-03T13:57:11Z</time>
      </trkpt>
      <trkpt lat="47.73109" lon="3.55475">
        <ele>196.4</ele>
        <time>2022-04-03T13:57:12Z</time>
      </trkpt>
      <trkpt lat="47.73109" lon="3.55471">
        <ele>196.3</ele>
        <time>2022-04-03T13:57:14Z</time>
      </trkpt>
      <trkpt lat="47.73109" lon="3.55469">
        <ele>196.3</ele>
        <time>2022-04-03T13:57:15Z</time>
      </trkpt>
      <trkpt lat="47.7311" lon="3.55467">
        <ele>196.2</ele>
        <time>2022-04-03T13:57:16Z</time>
      </trkpt>
      <trkpt lat="47.7311" lon="3.55465">
        <ele>196.2</ele>
        <time>2022-04-03T13:57:17Z</time>
      </trkpt>
      <trkpt lat="47.7311" lon="3.55461">
        <ele>196.1</ele>
        <time>2022-04-03T13:57:18Z</time>
      </trkpt>
      <trkpt lat="47.7311" lon="3.55459">
        <ele>196.1</ele>
        <time>2022-04-03T13:57:19Z</time>
      </trkpt>
      <trkpt lat="47.7311" lon="3.55458">
        <ele>196</ele>
        <time>2022-04-03T13:57:21Z</time>
      </trkpt>
      <trkpt lat="47.7311" lon="3.55454">
        <ele>196</ele>
        <time>2022-04-03T13:57:22Z</time>
      </trkpt>
      <trkpt lat="47.7311" lon="3.55452">
        <ele>195.9</ele>
        <time>2022-04-03T13:57:23Z</time>
      </trkpt>
      <trkpt lat="47.7311" lon="3.5545">
        <ele>195.9</ele>
        <time>2022-04-03T13:57:24Z</time>
      </trkpt>
      <trkpt lat="47.7311" lon="3.55449">
        <ele>195.9</ele>
        <time>2022-04-03T13:57:25Z</time>
      </trkpt>
      <trkpt lat="47.73111" lon="3.55445">
        <ele>195.8</ele>
        <time>2022-04-03T13:57:26Z</time>
      </trkpt>
      <trkpt lat="47.73111" lon="3.55444">
        <ele>195.8</ele>
        <time>2022-04-03T13:57:27Z</time>
      </trkpt>
      <trkpt lat="47.73111" lon="3.55443">
        <ele>195.8</ele>
        <time>2022-04-03T13:57:28Z</time>
      </trkpt>
      <trkpt lat="47.73111" lon="3.55441">
        <ele>195.8</ele>
        <time>2022-04-03T13:57:29Z</time>
      </trkpt>
      <trkpt lat="47.73111" lon="3.55439">
        <ele>195.7</ele>
        <time>2022-04-03T13:57:30Z</time>
      </trkpt>
      <trkpt lat="47.73111" lon="3.55436">
        <ele>195.7</ele>
        <time>2022-04-03T13:57:31Z</time>
      </trkpt>
      <trkpt lat="47.73111" lon="3.55435">
        <ele>195.7</ele>
        <time>2022-04-03T13:57:32Z</time>
      </trkpt>
      <trkpt lat="47.73111" lon="3.55433">
        <ele>195.7</ele>
        <time>2022-04-03T13:57:33Z</time>
      </trkpt>
      <trkpt lat="47.73111" lon="3.5543">
        <ele>195.7</ele>
        <time>2022-04-03T13:57:34Z</time>
      </trkpt>
      <trkpt lat="47.73111" lon="3.55429">
        <ele>195.7</ele>
        <time>2022-04-03T13:57:36Z</time>
      </trkpt>
      <trkpt lat="47.73111" lon="3.55427">
        <ele>195.6</ele>
        <time>2022-04-03T13:57:37Z</time>
      </trkpt>
      <trkpt lat="47.73111" lon="3.55425">
        <ele>195.6</ele>
        <time>2022-04-03T13:57:38Z</time>
      </trkpt>
      <trkpt lat="47.73111" lon="3.55421">
        <ele>195.6</ele>
        <time>2022-04-03T13:57:39Z</time>
      </trkpt>
      <trkpt lat="47.73111" lon="3.5542">
        <ele>195.6</ele>
        <time>2022-04-03T13:57:40Z</time>
      </trkpt>
      <trkpt lat="47.73111" lon="3.55418">
        <ele>195.5</ele>
        <time>2022-04-03T13:57:41Z</time>
      </trkpt>
      <trkpt lat="47.73111" lon="3.55416">
        <ele>195.5</ele>
        <time>2022-04-03T13:57:42Z</time>
      </trkpt>
      <trkpt lat="47.73111" lon="3.55414">
        <ele>195.5</ele>
        <time>2022-04-03T13:57:43Z</time>
      </trkpt>
      <trkpt lat="47.73111" lon="3.55412">
        <ele>195.4</ele>
        <time>2022-04-03T13:57:44Z</time>
      </trkpt>
      <trkpt lat="47.73111" lon="3.55409">
        <ele>195.4</ele>
        <time>2022-04-03T13:57:45Z</time>
      </trkpt>
      <trkpt lat="47.73111" lon="3.55407">
        <ele>195.3</ele>
        <time>2022-04-03T13:57:46Z</time>
      </trkpt>
      <trkpt lat="47.73111" lon="3.55406">
        <ele>195.3</ele>
        <time>2022-04-03T13:57:47Z</time>
      </trkpt>
      <trkpt lat="47.73111" lon="3.55405">
        <ele>195.3</ele>
        <time>2022-04-03T13:57:48Z</time>
      </trkpt>
      <trkpt lat="47.73111" lon="3.55402">
        <ele>195.2</ele>
        <time>2022-04-03T13:57:49Z</time>
      </trkpt>
      <trkpt lat="47.73111" lon="3.55401">
        <ele>195.2</ele>
        <time>2022-04-03T13:57:50Z</time>
      </trkpt>
      <trkpt lat="47.7311" lon="3.55399">
        <ele>195.1</ele>
        <time>2022-04-03T13:57:51Z</time>
      </trkpt>
      <trkpt lat="47.7311" lon="3.55396">
        <ele>195.1</ele>
        <time>2022-04-03T13:57:53Z</time>
      </trkpt>
      <trkpt lat="47.7311" lon="3.55393">
        <ele>195</ele>
        <time>2022-04-03T13:57:54Z</time>
      </trkpt>
      <trkpt lat="47.7311" lon="3.55392">
        <ele>195</ele>
        <time>2022-04-03T13:57:55Z</time>
      </trkpt>
      <trkpt lat="47.7311" lon="3.55389">
        <ele>194.9</ele>
        <time>2022-04-03T13:57:56Z</time>
      </trkpt>
      <trkpt lat="47.7311" lon="3.55388">
        <ele>194.9</ele>
        <time>2022-04-03T13:57:57Z</time>
      </trkpt>
      <trkpt lat="47.73109" lon="3.55386">
        <ele>194.9</ele>
        <time>2022-04-03T13:57:58Z</time>
      </trkpt>
      <trkpt lat="47.73109" lon="3.55384">
        <ele>194.8</ele>
        <time>2022-04-03T13:58:00Z</time>
      </trkpt>
      <trkpt lat="47.73109" lon="3.55382">
        <ele>194.8</ele>
        <time>2022-04-03T13:58:01Z</time>
      </trkpt>
      <trkpt lat="47.73109" lon="3.55379">
        <ele>194.7</ele>
        <time>2022-04-03T13:58:02Z</time>
      </trkpt>
      <trkpt lat="47.73108" lon="3.55377">
        <ele>194.7</ele>
        <time>2022-04-03T13:58:03Z</time>
      </trkpt>
      <trkpt lat="47.73108" lon="3.55375">
        <ele>194.7</ele>
        <time>2022-04-03T13:58:04Z</time>
      </trkpt>
      <trkpt lat="47.73108" lon="3.55372">
        <ele>194.6</ele>
        <time>2022-04-03T13:58:05Z</time>
      </trkpt>
      <trkpt lat="47.73108" lon="3.55371">
        <ele>194.6</ele>
        <time>2022-04-03T13:58:06Z</time>
      </trkpt>
      <trkpt lat="47.73108" lon="3.5537">
        <ele>194.6</ele>
        <time>2022-04-03T13:58:07Z</time>
      </trkpt>
      <trkpt lat="47.73108" lon="3.55368">
        <ele>194.6</ele>
        <time>2022-04-03T13:58:08Z</time>
      </trkpt>
      <trkpt lat="47.73107" lon="3.55365">
        <ele>194.5</ele>
        <time>2022-04-03T13:58:09Z</time>
      </trkpt>
      <trkpt lat="47.73107" lon="3.55364">
        <ele>194.5</ele>
        <time>2022-04-03T13:58:10Z</time>
      </trkpt>
      <trkpt lat="47.73107" lon="3.55361">
        <ele>194.5</ele>
        <time>2022-04-03T13:58:11Z</time>
      </trkpt>
      <trkpt lat="47.73107" lon="3.55358">
        <ele>194.5</ele>
        <time>2022-04-03T13:58:12Z</time>
      </trkpt>
      <trkpt lat="47.73107" lon="3.55356">
        <ele>194.4</ele>
        <time>2022-04-03T13:58:13Z</time>
      </trkpt>
      <trkpt lat="47.73107" lon="3.55354">
        <ele>194.4</ele>
        <time>2022-04-03T13:58:14Z</time>
      </trkpt>
      <trkpt lat="47.73107" lon="3.55352">
        <ele>194.4</ele>
        <time>2022-04-03T13:58:16Z</time>
      </trkpt>
      <trkpt lat="47.73107" lon="3.5535">
        <ele>194.4</ele>
        <time>2022-04-03T13:58:17Z</time>
      </trkpt>
      <trkpt lat="47.73106" lon="3.55346">
        <ele>194.3</ele>
        <time>2022-04-03T13:58:18Z</time>
      </trkpt>
      <trkpt lat="47.73106" lon="3.55344">
        <ele>194.3</ele>
        <time>2022-04-03T13:58:19Z</time>
      </trkpt>
      <trkpt lat="47.73107" lon="3.55342">
        <ele>194.3</ele>
        <time>2022-04-03T13:58:20Z</time>
      </trkpt>
      <trkpt lat="47.73107" lon="3.5534">
        <ele>194.3</ele>
        <time>2022-04-03T13:58:21Z</time>
      </trkpt>
      <trkpt lat="47.73107" lon="3.55339">
        <ele>194.3</ele>
        <time>2022-04-03T13:58:22Z</time>
      </trkpt>
      <trkpt lat="47.73107" lon="3.55337">
        <ele>194.2</ele>
        <time>2022-04-03T13:58:23Z</time>
      </trkpt>
      <trkpt lat="47.73107" lon="3.55335">
        <ele>194.2</ele>
        <time>2022-04-03T13:58:25Z</time>
      </trkpt>
      <trkpt lat="47.73107" lon="3.55333">
        <ele>194.2</ele>
        <time>2022-04-03T13:58:26Z</time>
      </trkpt>
      <trkpt lat="47.73107" lon="3.5533">
        <ele>194.1</ele>
        <time>2022-04-03T13:58:27Z</time>
      </trkpt>
      <trkpt lat="47.73107" lon="3.55328">
        <ele>194.1</ele>
        <time>2022-04-03T13:58:28Z</time>
      </trkpt>
      <trkpt lat="47.73107" lon="3.55325">
        <ele>194</ele>
        <time>2022-04-03T13:58:29Z</time>
      </trkpt>
      <trkpt lat="47.73106" lon="3.55321">
        <ele>194</ele>
        <time>2022-04-03T13:58:30Z</time>
      </trkpt>
      <trkpt lat="47.73106" lon="3.55319">
        <ele>193.9</ele>
        <time>2022-04-03T13:58:32Z</time>
      </trkpt>
      <trkpt lat="47.73105" lon="3.55318">
        <ele>193.9</ele>
        <time>2022-04-03T13:58:33Z</time>
      </trkpt>
      <trkpt lat="47.73105" lon="3.55316">
        <ele>193.9</ele>
        <time>2022-04-03T13:58:34Z</time>
      </trkpt>
      <trkpt lat="47.73105" lon="3.55313">
        <ele>193.8</ele>
        <time>2022-04-03T13:58:35Z</time>
      </trkpt>
      <trkpt lat="47.73104" lon="3.55312">
        <ele>193.8</ele>
        <time>2022-04-03T13:58:36Z</time>
      </trkpt>
      <trkpt lat="47.73104" lon="3.5531">
        <ele>193.8</ele>
        <time>2022-04-03T13:58:37Z</time>
      </trkpt>
      <trkpt lat="47.73104" lon="3.55309">
        <ele>193.8</ele>
        <time>2022-04-03T13:58:38Z</time>
      </trkpt>
      <trkpt lat="47.73103" lon="3.55306">
        <ele>193.7</ele>
        <time>2022-04-03T13:58:39Z</time>
      </trkpt>
      <trkpt lat="47.73102" lon="3.55303">
        <ele>193.7</ele>
        <time>2022-04-03T13:58:41Z</time>
      </trkpt>
      <trkpt lat="47.73102" lon="3.55302">
        <ele>193.7</ele>
        <time>2022-04-03T13:58:42Z</time>
      </trkpt>
      <trkpt lat="47.73102" lon="3.55301">
        <ele>193.7</ele>
        <time>2022-04-03T13:58:43Z</time>
      </trkpt>
      <trkpt lat="47.73102" lon="3.55299">
        <ele>193.6</ele>
        <time>2022-04-03T13:58:44Z</time>
      </trkpt>
      <trkpt lat="47.73101" lon="3.55296">
        <ele>193.6</ele>
        <time>2022-04-03T13:58:45Z</time>
      </trkpt>
      <trkpt lat="47.73101" lon="3.55294">
        <ele>193.6</ele>
        <time>2022-04-03T13:58:46Z</time>
      </trkpt>
      <trkpt lat="47.731" lon="3.55292">
        <ele>193.5</ele>
        <time>2022-04-03T13:58:47Z</time>
      </trkpt>
      <trkpt lat="47.731" lon="3.55291">
        <ele>193.5</ele>
        <time>2022-04-03T13:58:48Z</time>
      </trkpt>
      <trkpt lat="47.73099" lon="3.55287">
        <ele>193.5</ele>
        <time>2022-04-03T13:58:49Z</time>
      </trkpt>
      <trkpt lat="47.73099" lon="3.55286">
        <ele>193.4</ele>
        <time>2022-04-03T13:58:50Z</time>
      </trkpt>
      <trkpt lat="47.73099" lon="3.55285">
        <ele>193.4</ele>
        <time>2022-04-03T13:58:51Z</time>
      </trkpt>
      <trkpt lat="47.73099" lon="3.55283">
        <ele>193.4</ele>
        <time>2022-04-03T13:58:52Z</time>
      </trkpt>
      <trkpt lat="47.73098" lon="3.55281">
        <ele>193.4</ele>
        <time>2022-04-03T13:58:54Z</time>
      </trkpt>
      <trkpt lat="47.73098" lon="3.55278">
        <ele>193.3</ele>
        <time>2022-04-03T13:58:55Z</time>
      </trkpt>
      <trkpt lat="47.73097" lon="3.55277">
        <ele>193.3</ele>
        <time>2022-04-03T13:58:56Z</time>
      </trkpt>
      <trkpt lat="47.73096" lon="3.55273">
        <ele>193.2</ele>
        <time>2022-04-03T13:58:57Z</time>
      </trkpt>
      <trkpt lat="47.73096" lon="3.55271">
        <ele>193.2</ele>
        <time>2022-04-03T13:58:58Z</time>
      </trkpt>
      <trkpt lat="47.73095" lon="3.55269">
        <ele>193.2</ele>
        <time>2022-04-03T13:58:59Z</time>
      </trkpt>
      <trkpt lat="47.73095" lon="3.55267">
        <ele>193.1</ele>
        <time>2022-04-03T13:59:00Z</time>
      </trkpt>
      <trkpt lat="47.73094" lon="3.55265">
        <ele>193.1</ele>
        <time>2022-04-03T13:59:01Z</time>
      </trkpt>
      <trkpt lat="47.73094" lon="3.55264">
        <ele>193.1</ele>
        <time>2022-04-03T13:59:02Z</time>
      </trkpt>
      <trkpt lat="47.73094" lon="3.55262">
        <ele>193.1</ele>
        <time>2022-04-03T13:59:03Z</time>
      </trkpt>
      <trkpt lat="47.73093" lon="3.55259">
        <ele>193</ele>
        <time>2022-04-03T13:59:05Z</time>
      </trkpt>
      <trkpt lat="47.73093" lon="3.55257">
        <ele>193</ele>
        <time>2022-04-03T13:59:06Z</time>
      </trkpt>
      <trkpt lat="47.73092" lon="3.55255">
        <ele>192.9</ele>
        <time>2022-04-03T13:59:07Z</time>
      </trkpt>
      <trkpt lat="47.73092" lon="3.55251">
        <ele>192.8</ele>
        <time>2022-04-03T13:59:08Z</time>
      </trkpt>
      <trkpt lat="47.73091" lon="3.55249">
        <ele>192.8</ele>
        <time>2022-04-03T13:59:09Z</time>
      </trkpt>
      <trkpt lat="47.73091" lon="3.55248">
        <ele>192.8</ele>
        <time>2022-04-03T13:59:10Z</time>
      </trkpt>
      <trkpt lat="47.7309" lon="3.55247">
        <ele>192.7</ele>
        <time>2022-04-03T13:59:11Z</time>
      </trkpt>
      <trkpt lat="47.7309" lon="3.55244">
        <ele>192.7</ele>
        <time>2022-04-03T13:59:12Z</time>
      </trkpt>
      <trkpt lat="47.73089" lon="3.55242">
        <ele>192.6</ele>
        <time>2022-04-03T13:59:13Z</time>
      </trkpt>
      <trkpt lat="47.73089" lon="3.5524">
        <ele>192.6</ele>
        <time>2022-04-03T13:59:14Z</time>
      </trkpt>
      <trkpt lat="47.73088" lon="3.55238">
        <ele>192.6</ele>
        <time>2022-04-03T13:59:15Z</time>
      </trkpt>
      <trkpt lat="47.73087" lon="3.55237">
        <ele>192.5</ele>
        <time>2022-04-03T13:59:16Z</time>
      </trkpt>
      <trkpt lat="47.73087" lon="3.55236">
        <ele>192.5</ele>
        <time>2022-04-03T13:59:17Z</time>
      </trkpt>
      <trkpt lat="47.73085" lon="3.55233">
        <ele>192.5</ele>
        <time>2022-04-03T13:59:18Z</time>
      </trkpt>
      <trkpt lat="47.73085" lon="3.55232">
        <ele>192.5</ele>
        <time>2022-04-03T13:59:20Z</time>
      </trkpt>
      <trkpt lat="47.73084" lon="3.55231">
        <ele>192.4</ele>
        <time>2022-04-03T13:59:21Z</time>
      </trkpt>
      <trkpt lat="47.73083" lon="3.55229">
        <ele>192.4</ele>
        <time>2022-04-03T13:59:22Z</time>
      </trkpt>
      <trkpt lat="47.73083" lon="3.55226">
        <ele>192.4</ele>
        <time>2022-04-03T13:59:23Z</time>
      </trkpt>
      <trkpt lat="47.73082" lon="3.55224">
        <ele>192.4</ele>
        <time>2022-04-03T13:59:24Z</time>
      </trkpt>
      <trkpt lat="47.73081" lon="3.55223">
        <ele>192.4</ele>
        <time>2022-04-03T13:59:25Z</time>
      </trkpt>
      <trkpt lat="47.73081" lon="3.55221">
        <ele>192.3</ele>
        <time>2022-04-03T13:59:26Z</time>
      </trkpt>
      <trkpt lat="47.7308" lon="3.55218">
        <ele>192.3</ele>
        <time>2022-04-03T13:59:27Z</time>
      </trkpt>
      <trkpt lat="47.7308" lon="3.55217">
        <ele>192.3</ele>
        <time>2022-04-03T13:59:28Z</time>
      </trkpt>
      <trkpt lat="47.7308" lon="3.55216">
        <ele>192.3</ele>
        <time>2022-04-03T13:59:29Z</time>
      </trkpt>
      <trkpt lat="47.73079" lon="3.55214">
        <ele>192.3</ele>
        <time>2022-04-03T13:59:30Z</time>
      </trkpt>
      <trkpt lat="47.73078" lon="3.5521">
        <ele>192.3</ele>
        <time>2022-04-03T13:59:31Z</time>
      </trkpt>
      <trkpt lat="47.73078" lon="3.55209">
        <ele>192.2</ele>
        <time>2022-04-03T13:59:32Z</time>
      </trkpt>
      <trkpt lat="47.73077" lon="3.55207">
        <ele>192.2</ele>
        <time>2022-04-03T13:59:33Z</time>
      </trkpt>
      <trkpt lat="47.73077" lon="3.55205">
        <ele>192.2</ele>
        <time>2022-04-03T13:59:34Z</time>
      </trkpt>
      <trkpt lat="47.73076" lon="3.55203">
        <ele>192.2</ele>
        <time>2022-04-03T13:59:36Z</time>
      </trkpt>
      <trkpt lat="47.73076" lon="3.55201">
        <ele>192.2</ele>
        <time>2022-04-03T13:59:37Z</time>
      </trkpt>
      <trkpt lat="47.73075" lon="3.55198">
        <ele>192.2</ele>
        <time>2022-04-03T13:59:38Z</time>
      </trkpt>
      <trkpt lat="47.73074" lon="3.55197">
        <ele>192.2</ele>
        <time>2022-04-03T13:59:39Z</time>
      </trkpt>
      <trkpt lat="47.73074" lon="3.55195">
        <ele>192.2</ele>
        <time>2022-04-03T13:59:40Z</time>
      </trkpt>
      <trkpt lat="47.73073" lon="3.55193">
        <ele>192.3</ele>
        <time>2022-04-03T13:59:41Z</time>
      </trkpt>
      <trkpt lat="47.73073" lon="3.55191">
        <ele>192.3</ele>
        <time>2022-04-03T13:59:42Z</time>
      </trkpt>
      <trkpt lat="47.73073" lon="3.55189">
        <ele>192.3</ele>
        <time>2022-04-03T13:59:43Z</time>
      </trkpt>
      <trkpt lat="47.73072" lon="3.55186">
        <ele>192.3</ele>
        <time>2022-04-03T13:59:45Z</time>
      </trkpt>
      <trkpt lat="47.73071" lon="3.55184">
        <ele>192.2</ele>
        <time>2022-04-03T13:59:46Z</time>
      </trkpt>
      <trkpt lat="47.73071" lon="3.55183">
        <ele>192.2</ele>
        <time>2022-04-03T13:59:47Z</time>
      </trkpt>
      <trkpt lat="47.7307" lon="3.55181">
        <ele>192.2</ele>
        <time>2022-04-03T13:59:49Z</time>
      </trkpt>
      <trkpt lat="47.7307" lon="3.5518">
        <ele>192.1</ele>
        <time>2022-04-03T13:59:50Z</time>
      </trkpt>
      <trkpt lat="47.73069" lon="3.55178">
        <ele>192.1</ele>
        <time>2022-04-03T13:59:52Z</time>
      </trkpt>
      <trkpt lat="47.73069" lon="3.55177">
        <ele>192</ele>
        <time>2022-04-03T13:59:53Z</time>
      </trkpt>
      <trkpt lat="47.73069" lon="3.55175">
        <ele>192</ele>
        <time>2022-04-03T13:59:54Z</time>
      </trkpt>
      <trkpt lat="47.73069" lon="3.55174">
        <ele>192</ele>
        <time>2022-04-03T13:59:55Z</time>
      </trkpt>
      <trkpt lat="47.73068" lon="3.55171">
        <ele>191.9</ele>
        <time>2022-04-03T13:59:57Z</time>
      </trkpt>
      <trkpt lat="47.73068" lon="3.55169">
        <ele>191.8</ele>
        <time>2022-04-03T13:59:58Z</time>
      </trkpt>
      <trkpt lat="47.73067" lon="3.55168">
        <ele>191.8</ele>
        <time>2022-04-03T13:59:59Z</time>
      </trkpt>
      <trkpt lat="47.73067" lon="3.55166">
        <ele>191.8</ele>
        <time>2022-04-03T14:00:00Z</time>
      </trkpt>
      <trkpt lat="47.73066" lon="3.55165">
        <ele>191.7</ele>
        <time>2022-04-03T14:00:01Z</time>
      </trkpt>
      <trkpt lat="47.73066" lon="3.55163">
        <ele>191.7</ele>
        <time>2022-04-03T14:00:02Z</time>
      </trkpt>
      <trkpt lat="47.73065" lon="3.55162">
        <ele>191.6</ele>
        <time>2022-04-03T14:00:03Z</time>
      </trkpt>
      <trkpt lat="47.73064" lon="3.55159">
        <ele>191.6</ele>
        <time>2022-04-03T14:00:04Z</time>
      </trkpt>
      <trkpt lat="47.73064" lon="3.55158">
        <ele>191.5</ele>
        <time>2022-04-03T14:00:05Z</time>
      </trkpt>
      <trkpt lat="47.73063" lon="3.55157">
        <ele>191.5</ele>
        <time>2022-04-03T14:00:06Z</time>
      </trkpt>
      <trkpt lat="47.73063" lon="3.55155">
        <ele>191.5</ele>
        <time>2022-04-03T14:00:07Z</time>
      </trkpt>
      <trkpt lat="47.73062" lon="3.55154">
        <ele>191.4</ele>
        <time>2022-04-03T14:00:08Z</time>
      </trkpt>
      <trkpt lat="47.73062" lon="3.55153">
        <ele>191.4</ele>
        <time>2022-04-03T14:00:09Z</time>
      </trkpt>
      <trkpt lat="47.73061" lon="3.55151">
        <ele>191.3</ele>
        <time>2022-04-03T14:00:10Z</time>
      </trkpt>
      <trkpt lat="47.7306" lon="3.55149">
        <ele>191.3</ele>
        <time>2022-04-03T14:00:11Z</time>
      </trkpt>
      <trkpt lat="47.73059" lon="3.55146">
        <ele>191.2</ele>
        <time>2022-04-03T14:00:12Z</time>
      </trkpt>
      <trkpt lat="47.73058" lon="3.55145">
        <ele>191.2</ele>
        <time>2022-04-03T14:00:14Z</time>
      </trkpt>
      <trkpt lat="47.73058" lon="3.55143">
        <ele>191.1</ele>
        <time>2022-04-03T14:00:15Z</time>
      </trkpt>
      <trkpt lat="47.73057" lon="3.55141">
        <ele>191.1</ele>
        <time>2022-04-03T14:00:16Z</time>
      </trkpt>
      <trkpt lat="47.73056" lon="3.55139">
        <ele>191</ele>
        <time>2022-04-03T14:00:17Z</time>
      </trkpt>
      <trkpt lat="47.73056" lon="3.55137">
        <ele>191</ele>
        <time>2022-04-03T14:00:18Z</time>
      </trkpt>
      <trkpt lat="47.73055" lon="3.55136">
        <ele>190.9</ele>
        <time>2022-04-03T14:00:19Z</time>
      </trkpt>
      <trkpt lat="47.73054" lon="3.55134">
        <ele>190.9</ele>
        <time>2022-04-03T14:00:20Z</time>
      </trkpt>
      <trkpt lat="47.73054" lon="3.55131">
        <ele>190.8</ele>
        <time>2022-04-03T14:00:22Z</time>
      </trkpt>
      <trkpt lat="47.73054" lon="3.55129">
        <ele>190.7</ele>
        <time>2022-04-03T14:00:23Z</time>
      </trkpt>
      <trkpt lat="47.73054" lon="3.55127">
        <ele>190.7</ele>
        <time>2022-04-03T14:00:24Z</time>
      </trkpt>
      <trkpt lat="47.73053" lon="3.55125">
        <ele>190.6</ele>
        <time>2022-04-03T14:00:25Z</time>
      </trkpt>
      <trkpt lat="47.73053" lon="3.55123">
        <ele>190.6</ele>
        <time>2022-04-03T14:00:26Z</time>
      </trkpt>
      <trkpt lat="47.73052" lon="3.55122">
        <ele>190.5</ele>
        <time>2022-04-03T14:00:27Z</time>
      </trkpt>
      <trkpt lat="47.73051" lon="3.5512">
        <ele>190.5</ele>
        <time>2022-04-03T14:00:28Z</time>
      </trkpt>
      <trkpt lat="47.73051" lon="3.55118">
        <ele>190.4</ele>
        <time>2022-04-03T14:00:29Z</time>
      </trkpt>
      <trkpt lat="47.73051" lon="3.55117">
        <ele>190.4</ele>
        <time>2022-04-03T14:00:30Z</time>
      </trkpt>
      <trkpt lat="47.7305" lon="3.55114">
        <ele>190.3</ele>
        <time>2022-04-03T14:00:32Z</time>
      </trkpt>
      <trkpt lat="47.7305" lon="3.55113">
        <ele>190.3</ele>
        <time>2022-04-03T14:00:33Z</time>
      </trkpt>
      <trkpt lat="47.7305" lon="3.55111">
        <ele>190.3</ele>
        <time>2022-04-03T14:00:34Z</time>
      </trkpt>
      <trkpt lat="47.73049" lon="3.55109">
        <ele>190.2</ele>
        <time>2022-04-03T14:00:35Z</time>
      </trkpt>
      <trkpt lat="47.73048" lon="3.55108">
        <ele>190.2</ele>
        <time>2022-04-03T14:00:36Z</time>
      </trkpt>
      <trkpt lat="47.73048" lon="3.55106">
        <ele>190.1</ele>
        <time>2022-04-03T14:00:37Z</time>
      </trkpt>
      <trkpt lat="47.73048" lon="3.55105">
        <ele>190.1</ele>
        <time>2022-04-03T14:00:38Z</time>
      </trkpt>
      <trkpt lat="47.73047" lon="3.55103">
        <ele>190.1</ele>
        <time>2022-04-03T14:00:39Z</time>
      </trkpt>
      <trkpt lat="47.73047" lon="3.55101">
        <ele>190</ele>
        <time>2022-04-03T14:00:40Z</time>
      </trkpt>
      <trkpt lat="47.73047" lon="3.55099">
        <ele>190</ele>
        <time>2022-04-03T14:00:41Z</time>
      </trkpt>
      <trkpt lat="47.73046" lon="3.55096">
        <ele>189.9</ele>
        <time>2022-04-03T14:00:42Z</time>
      </trkpt>
      <trkpt lat="47.73046" lon="3.55095">
        <ele>189.8</ele>
        <time>2022-04-03T14:00:43Z</time>
      </trkpt>
      <trkpt lat="47.73046" lon="3.55093">
        <ele>189.8</ele>
        <time>2022-04-03T14:00:44Z</time>
      </trkpt>
      <trkpt lat="47.73045" lon="3.55091">
        <ele>189.8</ele>
        <time>2022-04-03T14:00:45Z</time>
      </trkpt>
      <trkpt lat="47.73044" lon="3.55087">
        <ele>189.7</ele>
        <time>2022-04-03T14:00:47Z</time>
      </trkpt>
      <trkpt lat="47.73044" lon="3.55086">
        <ele>189.6</ele>
        <time>2022-04-03T14:00:48Z</time>
      </trkpt>
      <trkpt lat="47.73044" lon="3.55084">
        <ele>189.6</ele>
        <time>2022-04-03T14:00:49Z</time>
      </trkpt>
      <trkpt lat="47.73043" lon="3.55082">
        <ele>189.5</ele>
        <time>2022-04-03T14:00:50Z</time>
      </trkpt>
      <trkpt lat="47.73043" lon="3.55078">
        <ele>189.4</ele>
        <time>2022-04-03T14:00:51Z</time>
      </trkpt>
      <trkpt lat="47.73043" lon="3.55077">
        <ele>189.4</ele>
        <time>2022-04-03T14:00:52Z</time>
      </trkpt>
      <trkpt lat="47.73042" lon="3.55074">
        <ele>189.3</ele>
        <time>2022-04-03T14:00:53Z</time>
      </trkpt>
      <trkpt lat="47.73042" lon="3.55072">
        <ele>189.3</ele>
        <time>2022-04-03T14:00:55Z</time>
      </trkpt>
      <trkpt lat="47.73042" lon="3.55071">
        <ele>189.3</ele>
        <time>2022-04-03T14:00:56Z</time>
      </trkpt>
      <trkpt lat="47.73041" lon="3.55068">
        <ele>189.2</ele>
        <time>2022-04-03T14:00:57Z</time>
      </trkpt>
      <trkpt lat="47.73041" lon="3.55067">
        <ele>189.1</ele>
        <time>2022-04-03T14:00:58Z</time>
      </trkpt>
      <trkpt lat="47.73041" lon="3.55065">
        <ele>189.1</ele>
        <time>2022-04-03T14:00:59Z</time>
      </trkpt>
      <trkpt lat="47.7304" lon="3.55063">
        <ele>189</ele>
        <time>2022-04-03T14:01:00Z</time>
      </trkpt>
      <trkpt lat="47.7304" lon="3.5506">
        <ele>189</ele>
        <time>2022-04-03T14:01:01Z</time>
      </trkpt>
      <trkpt lat="47.7304" lon="3.55059">
        <ele>189</ele>
        <time>2022-04-03T14:01:02Z</time>
      </trkpt>
      <trkpt lat="47.7304" lon="3.55058">
        <ele>188.9</ele>
        <time>2022-04-03T14:01:03Z</time>
      </trkpt>
      <trkpt lat="47.73039" lon="3.55054">
        <ele>188.8</ele>
        <time>2022-04-03T14:01:04Z</time>
      </trkpt>
      <trkpt lat="47.73039" lon="3.55053">
        <ele>188.8</ele>
        <time>2022-04-03T14:01:06Z</time>
      </trkpt>
      <trkpt lat="47.73039" lon="3.55051">
        <ele>188.8</ele>
        <time>2022-04-03T14:01:07Z</time>
      </trkpt>
      <trkpt lat="47.73039" lon="3.55049">
        <ele>188.7</ele>
        <time>2022-04-03T14:01:08Z</time>
      </trkpt>
      <trkpt lat="47.73039" lon="3.55048">
        <ele>188.7</ele>
        <time>2022-04-03T14:01:09Z</time>
      </trkpt>
      <trkpt lat="47.73039" lon="3.55047">
        <ele>188.6</ele>
        <time>2022-04-03T14:01:10Z</time>
      </trkpt>
      <trkpt lat="47.73039" lon="3.55046">
        <ele>188.6</ele>
        <time>2022-04-03T14:01:11Z</time>
      </trkpt>
      <trkpt lat="47.73039" lon="3.55043">
        <ele>188.6</ele>
        <time>2022-04-03T14:01:12Z</time>
      </trkpt>
      <trkpt lat="47.73039" lon="3.55042">
        <ele>188.5</ele>
        <time>2022-04-03T14:01:13Z</time>
      </trkpt>
      <trkpt lat="47.73039" lon="3.5504">
        <ele>188.5</ele>
        <time>2022-04-03T14:01:14Z</time>
      </trkpt>
      <trkpt lat="47.73039" lon="3.55039">
        <ele>188.5</ele>
        <time>2022-04-03T14:01:15Z</time>
      </trkpt>
      <trkpt lat="47.73039" lon="3.55035">
        <ele>188.4</ele>
        <time>2022-04-03T14:01:17Z</time>
      </trkpt>
      <trkpt lat="47.73039" lon="3.55034">
        <ele>188.3</ele>
        <time>2022-04-03T14:01:18Z</time>
      </trkpt>
      <trkpt lat="47.73039" lon="3.55033">
        <ele>188.3</ele>
        <time>2022-04-03T14:01:19Z</time>
      </trkpt>
      <trkpt lat="47.73039" lon="3.55031">
        <ele>188.3</ele>
        <time>2022-04-03T14:01:20Z</time>
      </trkpt>
      <trkpt lat="47.7304" lon="3.55028">
        <ele>188.2</ele>
        <time>2022-04-03T14:01:22Z</time>
      </trkpt>
      <trkpt lat="47.7304" lon="3.55027">
        <ele>188.2</ele>
        <time>2022-04-03T14:01:23Z</time>
      </trkpt>
      <trkpt lat="47.7304" lon="3.55026">
        <ele>188.1</ele>
        <time>2022-04-03T14:01:24Z</time>
      </trkpt>
      <trkpt lat="47.7304" lon="3.55024">
        <ele>188.1</ele>
        <time>2022-04-03T14:01:25Z</time>
      </trkpt>
      <trkpt lat="47.7304" lon="3.55023">
        <ele>188.1</ele>
        <time>2022-04-03T14:01:26Z</time>
      </trkpt>
      <trkpt lat="47.73039" lon="3.55021">
        <ele>188</ele>
        <time>2022-04-03T14:01:27Z</time>
      </trkpt>
      <trkpt lat="47.73039" lon="3.55019">
        <ele>188</ele>
        <time>2022-04-03T14:01:28Z</time>
      </trkpt>
      <trkpt lat="47.73039" lon="3.55016">
        <ele>187.9</ele>
        <time>2022-04-03T14:01:29Z</time>
      </trkpt>
      <trkpt lat="47.73038" lon="3.55015">
        <ele>187.9</ele>
        <time>2022-04-03T14:01:30Z</time>
      </trkpt>
      <trkpt lat="47.73038" lon="3.55013">
        <ele>187.8</ele>
        <time>2022-04-03T14:01:31Z</time>
      </trkpt>
      <trkpt lat="47.73038" lon="3.5501">
        <ele>187.7</ele>
        <time>2022-04-03T14:01:32Z</time>
      </trkpt>
      <trkpt lat="47.73038" lon="3.55008">
        <ele>187.7</ele>
        <time>2022-04-03T14:01:33Z</time>
      </trkpt>
      <trkpt lat="47.73038" lon="3.55006">
        <ele>187.7</ele>
        <time>2022-04-03T14:01:35Z</time>
      </trkpt>
      <trkpt lat="47.73038" lon="3.55005">
        <ele>187.6</ele>
        <time>2022-04-03T14:01:36Z</time>
      </trkpt>
      <trkpt lat="47.73038" lon="3.55003">
        <ele>187.6</ele>
        <time>2022-04-03T14:01:37Z</time>
      </trkpt>
      <trkpt lat="47.73038" lon="3.55003">
        <ele>187.6</ele>
        <time>2022-04-03T14:01:38Z</time>
      </trkpt>
      <trkpt lat="47.73038" lon="3.55001">
        <ele>187.5</ele>
        <time>2022-04-03T14:01:39Z</time>
      </trkpt>
      <trkpt lat="47.73038" lon="3.54999">
        <ele>187.5</ele>
        <time>2022-04-03T14:01:40Z</time>
      </trkpt>
      <trkpt lat="47.73037" lon="3.54998">
        <ele>187.4</ele>
        <time>2022-04-03T14:01:41Z</time>
      </trkpt>
      <trkpt lat="47.73037" lon="3.54995">
        <ele>187.4</ele>
        <time>2022-04-03T14:01:42Z</time>
      </trkpt>
      <trkpt lat="47.73037" lon="3.54994">
        <ele>187.3</ele>
        <time>2022-04-03T14:01:43Z</time>
      </trkpt>
      <trkpt lat="47.73036" lon="3.54992">
        <ele>187.3</ele>
        <time>2022-04-03T14:01:44Z</time>
      </trkpt>
      <trkpt lat="47.73036" lon="3.54991">
        <ele>187.3</ele>
        <time>2022-04-03T14:01:45Z</time>
      </trkpt>
      <trkpt lat="47.73036" lon="3.54989">
        <ele>187.2</ele>
        <time>2022-04-03T14:01:46Z</time>
      </trkpt>
      <trkpt lat="47.73035" lon="3.54986">
        <ele>187.1</ele>
        <time>2022-04-03T14:01:47Z</time>
      </trkpt>
      <trkpt lat="47.73035" lon="3.54985">
        <ele>187.1</ele>
        <time>2022-04-03T14:01:48Z</time>
      </trkpt>
      <trkpt lat="47.73035" lon="3.54983">
        <ele>187.1</ele>
        <time>2022-04-03T14:01:50Z</time>
      </trkpt>
      <trkpt lat="47.73035" lon="3.54981">
        <ele>187</ele>
        <time>2022-04-03T14:01:51Z</time>
      </trkpt>
      <trkpt lat="47.73035" lon="3.54979">
        <ele>187</ele>
        <time>2022-04-03T14:01:52Z</time>
      </trkpt>
      <trkpt lat="47.73034" lon="3.54976">
        <ele>186.9</ele>
        <time>2022-04-03T14:01:53Z</time>
      </trkpt>
      <trkpt lat="47.73034" lon="3.54974">
        <ele>186.9</ele>
        <time>2022-04-03T14:01:54Z</time>
      </trkpt>
      <trkpt lat="47.73034" lon="3.54972">
        <ele>186.8</ele>
        <time>2022-04-03T14:01:55Z</time>
      </trkpt>
      <trkpt lat="47.73034" lon="3.5497">
        <ele>186.8</ele>
        <time>2022-04-03T14:01:56Z</time>
      </trkpt>
      <trkpt lat="47.73034" lon="3.54967">
        <ele>186.7</ele>
        <time>2022-04-03T14:01:58Z</time>
      </trkpt>
      <trkpt lat="47.73034" lon="3.54966">
        <ele>186.6</ele>
        <time>2022-04-03T14:01:59Z</time>
      </trkpt>
      <trkpt lat="47.73033" lon="3.54963">
        <ele>186.6</ele>
        <time>2022-04-03T14:02:00Z</time>
      </trkpt>
      <trkpt lat="47.73033" lon="3.5496">
        <ele>186.5</ele>
        <time>2022-04-03T14:02:01Z</time>
      </trkpt>
      <trkpt lat="47.73033" lon="3.54958">
        <ele>186.5</ele>
        <time>2022-04-03T14:02:02Z</time>
      </trkpt>
      <trkpt lat="47.73033" lon="3.54956">
        <ele>186.4</ele>
        <time>2022-04-03T14:02:03Z</time>
      </trkpt>
      <trkpt lat="47.73033" lon="3.54954">
        <ele>186.3</ele>
        <time>2022-04-03T14:02:05Z</time>
      </trkpt>
      <trkpt lat="47.73033" lon="3.54951">
        <ele>186.3</ele>
        <time>2022-04-03T14:02:06Z</time>
      </trkpt>
      <trkpt lat="47.73033" lon="3.54949">
        <ele>186.2</ele>
        <time>2022-04-03T14:02:07Z</time>
      </trkpt>
      <trkpt lat="47.73033" lon="3.54947">
        <ele>186.2</ele>
        <time>2022-04-03T14:02:08Z</time>
      </trkpt>
      <trkpt lat="47.73033" lon="3.54945">
        <ele>186.1</ele>
        <time>2022-04-03T14:02:09Z</time>
      </trkpt>
      <trkpt lat="47.73033" lon="3.54943">
        <ele>186.1</ele>
        <time>2022-04-03T14:02:10Z</time>
      </trkpt>
      <trkpt lat="47.73033" lon="3.54941">
        <ele>186</ele>
        <time>2022-04-03T14:02:11Z</time>
      </trkpt>
      <trkpt lat="47.73033" lon="3.54937">
        <ele>185.9</ele>
        <time>2022-04-03T14:02:12Z</time>
      </trkpt>
      <trkpt lat="47.73033" lon="3.54936">
        <ele>185.9</ele>
        <time>2022-04-03T14:02:14Z</time>
      </trkpt>
      <trkpt lat="47.73033" lon="3.54934">
        <ele>185.9</ele>
        <time>2022-04-03T14:02:15Z</time>
      </trkpt>
      <trkpt lat="47.73033" lon="3.54931">
        <ele>185.8</ele>
        <time>2022-04-03T14:02:16Z</time>
      </trkpt>
      <trkpt lat="47.73032" lon="3.54927">
        <ele>185.7</ele>
        <time>2022-04-03T14:02:18Z</time>
      </trkpt>
      <trkpt lat="47.73032" lon="3.54926">
        <ele>185.7</ele>
        <time>2022-04-03T14:02:19Z</time>
      </trkpt>
      <trkpt lat="47.73032" lon="3.54923">
        <ele>185.6</ele>
        <time>2022-04-03T14:02:20Z</time>
      </trkpt>
      <trkpt lat="47.73032" lon="3.54921">
        <ele>185.6</ele>
        <time>2022-04-03T14:02:21Z</time>
      </trkpt>
      <trkpt lat="47.73032" lon="3.54919">
        <ele>185.5</ele>
        <time>2022-04-03T14:02:22Z</time>
      </trkpt>
      <trkpt lat="47.73032" lon="3.54917">
        <ele>185.4</ele>
        <time>2022-04-03T14:02:23Z</time>
      </trkpt>
      <trkpt lat="47.73032" lon="3.54915">
        <ele>185.4</ele>
        <time>2022-04-03T14:02:24Z</time>
      </trkpt>
      <trkpt lat="47.73032" lon="3.54912">
        <ele>185.3</ele>
        <time>2022-04-03T14:02:25Z</time>
      </trkpt>
      <trkpt lat="47.73032" lon="3.5491">
        <ele>185.3</ele>
        <time>2022-04-03T14:02:26Z</time>
      </trkpt>
      <trkpt lat="47.73031" lon="3.54908">
        <ele>185.2</ele>
        <time>2022-04-03T14:02:27Z</time>
      </trkpt>
      <trkpt lat="47.73031" lon="3.54904">
        <ele>185.1</ele>
        <time>2022-04-03T14:02:28Z</time>
      </trkpt>
      <trkpt lat="47.73031" lon="3.54902">
        <ele>185.1</ele>
        <time>2022-04-03T14:02:29Z</time>
      </trkpt>
      <trkpt lat="47.73031" lon="3.549">
        <ele>185</ele>
        <time>2022-04-03T14:02:30Z</time>
      </trkpt>
      <trkpt lat="47.73031" lon="3.54898">
        <ele>185</ele>
        <time>2022-04-03T14:02:31Z</time>
      </trkpt>
      <trkpt lat="47.7303" lon="3.54893">
        <ele>184.9</ele>
        <time>2022-04-03T14:02:33Z</time>
      </trkpt>
      <trkpt lat="47.7303" lon="3.5489">
        <ele>184.8</ele>
        <time>2022-04-03T14:02:34Z</time>
      </trkpt>
      <trkpt lat="47.7303" lon="3.54887">
        <ele>184.7</ele>
        <time>2022-04-03T14:02:36Z</time>
      </trkpt>
      <trkpt lat="47.7303" lon="3.54882">
        <ele>184.6</ele>
        <time>2022-04-03T14:02:37Z</time>
      </trkpt>
      <trkpt lat="47.7303" lon="3.54881">
        <ele>184.6</ele>
        <time>2022-04-03T14:02:38Z</time>
      </trkpt>
      <trkpt lat="47.7303" lon="3.54876">
        <ele>184.5</ele>
        <time>2022-04-03T14:02:39Z</time>
      </trkpt>
      <trkpt lat="47.7303" lon="3.54875">
        <ele>184.4</ele>
        <time>2022-04-03T14:02:40Z</time>
      </trkpt>
      <trkpt lat="47.7303" lon="3.5487">
        <ele>184.3</ele>
        <time>2022-04-03T14:02:41Z</time>
      </trkpt>
      <trkpt lat="47.7303" lon="3.54869">
        <ele>184.3</ele>
        <time>2022-04-03T14:02:42Z</time>
      </trkpt>
      <trkpt lat="47.73029" lon="3.54863">
        <ele>184.1</ele>
        <time>2022-04-03T14:02:45Z</time>
      </trkpt>
      <trkpt lat="47.73029" lon="3.54861">
        <ele>184.1</ele>
        <time>2022-04-03T14:02:46Z</time>
      </trkpt>
      <trkpt lat="47.7303" lon="3.54856">
        <ele>184</ele>
        <time>2022-04-03T14:02:48Z</time>
      </trkpt>
      <trkpt lat="47.7303" lon="3.54854">
        <ele>183.9</ele>
        <time>2022-04-03T14:02:49Z</time>
      </trkpt>
      <trkpt lat="47.7303" lon="3.54852">
        <ele>183.9</ele>
        <time>2022-04-03T14:02:50Z</time>
      </trkpt>
      <trkpt lat="47.7303" lon="3.5485">
        <ele>183.8</ele>
        <time>2022-04-03T14:02:51Z</time>
      </trkpt>
      <trkpt lat="47.7303" lon="3.54848">
        <ele>183.8</ele>
        <time>2022-04-03T14:02:52Z</time>
      </trkpt>
      <trkpt lat="47.7303" lon="3.54845">
        <ele>183.7</ele>
        <time>2022-04-03T14:02:53Z</time>
      </trkpt>
      <trkpt lat="47.7303" lon="3.54843">
        <ele>183.7</ele>
        <time>2022-04-03T14:02:54Z</time>
      </trkpt>
      <trkpt lat="47.7303" lon="3.5484">
        <ele>183.6</ele>
        <time>2022-04-03T14:02:56Z</time>
      </trkpt>
      <trkpt lat="47.7303" lon="3.54839">
        <ele>183.5</ele>
        <time>2022-04-03T14:02:57Z</time>
      </trkpt>
      <trkpt lat="47.7303" lon="3.54838">
        <ele>183.5</ele>
        <time>2022-04-03T14:02:58Z</time>
      </trkpt>
      <trkpt lat="47.73031" lon="3.54834">
        <ele>183.4</ele>
        <time>2022-04-03T14:02:59Z</time>
      </trkpt>
      <trkpt lat="47.73031" lon="3.54833">
        <ele>183.4</ele>
        <time>2022-04-03T14:03:00Z</time>
      </trkpt>
      <trkpt lat="47.73031" lon="3.54832">
        <ele>183.4</ele>
        <time>2022-04-03T14:03:01Z</time>
      </trkpt>
      <trkpt lat="47.73031" lon="3.5483">
        <ele>183.3</ele>
        <time>2022-04-03T14:03:02Z</time>
      </trkpt>
      <trkpt lat="47.73031" lon="3.54828">
        <ele>183.3</ele>
        <time>2022-04-03T14:03:03Z</time>
      </trkpt>
      <trkpt lat="47.73031" lon="3.54827">
        <ele>183.3</ele>
        <time>2022-04-03T14:03:04Z</time>
      </trkpt>
      <trkpt lat="47.73031" lon="3.54826">
        <ele>183.2</ele>
        <time>2022-04-03T14:03:05Z</time>
      </trkpt>
      <trkpt lat="47.73031" lon="3.54824">
        <ele>183.2</ele>
        <time>2022-04-03T14:03:06Z</time>
      </trkpt>
      <trkpt lat="47.73031" lon="3.54822">
        <ele>183.1</ele>
        <time>2022-04-03T14:03:07Z</time>
      </trkpt>
      <trkpt lat="47.73031" lon="3.54821">
        <ele>183.1</ele>
        <time>2022-04-03T14:03:08Z</time>
      </trkpt>
      <trkpt lat="47.73032" lon="3.54819">
        <ele>183.1</ele>
        <time>2022-04-03T14:03:10Z</time>
      </trkpt>
      <trkpt lat="47.73032" lon="3.54818">
        <ele>183</ele>
        <time>2022-04-03T14:03:11Z</time>
      </trkpt>
      <trkpt lat="47.73032" lon="3.54816">
        <ele>183</ele>
        <time>2022-04-03T14:03:12Z</time>
      </trkpt>
      <trkpt lat="47.73032" lon="3.54814">
        <ele>182.9</ele>
        <time>2022-04-03T14:03:13Z</time>
      </trkpt>
      <trkpt lat="47.73032" lon="3.54811">
        <ele>182.9</ele>
        <time>2022-04-03T14:03:14Z</time>
      </trkpt>
      <trkpt lat="47.73032" lon="3.5481">
        <ele>182.8</ele>
        <time>2022-04-03T14:03:15Z</time>
      </trkpt>
      <trkpt lat="47.73032" lon="3.54808">
        <ele>182.8</ele>
        <time>2022-04-03T14:03:16Z</time>
      </trkpt>
      <trkpt lat="47.73032" lon="3.54805">
        <ele>182.7</ele>
        <time>2022-04-03T14:03:17Z</time>
      </trkpt>
      <trkpt lat="47.73032" lon="3.54803">
        <ele>182.7</ele>
        <time>2022-04-03T14:03:18Z</time>
      </trkpt>
      <trkpt lat="47.73032" lon="3.54801">
        <ele>182.6</ele>
        <time>2022-04-03T14:03:19Z</time>
      </trkpt>
      <trkpt lat="47.73032" lon="3.548">
        <ele>182.6</ele>
        <time>2022-04-03T14:03:20Z</time>
      </trkpt>
      <trkpt lat="47.73032" lon="3.54798">
        <ele>182.6</ele>
        <time>2022-04-03T14:03:21Z</time>
      </trkpt>
      <trkpt lat="47.73032" lon="3.54797">
        <ele>182.5</ele>
        <time>2022-04-03T14:03:22Z</time>
      </trkpt>
      <trkpt lat="47.73032" lon="3.54794">
        <ele>182.4</ele>
        <time>2022-04-03T14:03:24Z</time>
      </trkpt>
      <trkpt lat="47.73032" lon="3.54792">
        <ele>182.4</ele>
        <time>2022-04-03T14:03:25Z</time>
      </trkpt>
      <trkpt lat="47.73032" lon="3.5479">
        <ele>182.4</ele>
        <time>2022-04-03T14:03:26Z</time>
      </trkpt>
      <trkpt lat="47.73032" lon="3.54789">
        <ele>182.3</ele>
        <time>2022-04-03T14:03:27Z</time>
      </trkpt>
      <trkpt lat="47.73032" lon="3.54787">
        <ele>182.3</ele>
        <time>2022-04-03T14:03:28Z</time>
      </trkpt>
      <trkpt lat="47.73032" lon="3.54785">
        <ele>182.2</ele>
        <time>2022-04-03T14:03:29Z</time>
      </trkpt>
      <trkpt lat="47.73032" lon="3.54782">
        <ele>182.2</ele>
        <time>2022-04-03T14:03:30Z</time>
      </trkpt>
      <trkpt lat="47.73032" lon="3.54782">
        <ele>182.1</ele>
        <time>2022-04-03T14:03:31Z</time>
      </trkpt>
      <trkpt lat="47.73032" lon="3.5478">
        <ele>182.1</ele>
        <time>2022-04-03T14:03:32Z</time>
      </trkpt>
      <trkpt lat="47.73032" lon="3.54778">
        <ele>182</ele>
        <time>2022-04-03T14:03:33Z</time>
      </trkpt>
      <trkpt lat="47.73032" lon="3.54775">
        <ele>182</ele>
        <time>2022-04-03T14:03:35Z</time>
      </trkpt>
      <trkpt lat="47.73032" lon="3.54773">
        <ele>181.9</ele>
        <time>2022-04-03T14:03:36Z</time>
      </trkpt>
      <trkpt lat="47.73032" lon="3.54772">
        <ele>181.9</ele>
        <time>2022-04-03T14:03:37Z</time>
      </trkpt>
      <trkpt lat="47.73032" lon="3.5477">
        <ele>181.9</ele>
        <time>2022-04-03T14:03:38Z</time>
      </trkpt>
      <trkpt lat="47.73032" lon="3.54768">
        <ele>181.8</ele>
        <time>2022-04-03T14:03:39Z</time>
      </trkpt>
      <trkpt lat="47.73031" lon="3.54765">
        <ele>181.7</ele>
        <time>2022-04-03T14:03:40Z</time>
      </trkpt>
      <trkpt lat="47.73031" lon="3.54764">
        <ele>181.7</ele>
        <time>2022-04-03T14:03:41Z</time>
      </trkpt>
      <trkpt lat="47.73031" lon="3.54762">
        <ele>181.7</ele>
        <time>2022-04-03T14:03:42Z</time>
      </trkpt>
      <trkpt lat="47.73031" lon="3.54759">
        <ele>181.6</ele>
        <time>2022-04-03T14:03:43Z</time>
      </trkpt>
      <trkpt lat="47.73031" lon="3.54758">
        <ele>181.6</ele>
        <time>2022-04-03T14:03:44Z</time>
      </trkpt>
      <trkpt lat="47.73031" lon="3.54755">
        <ele>181.5</ele>
        <time>2022-04-03T14:03:45Z</time>
      </trkpt>
      <trkpt lat="47.73031" lon="3.54754">
        <ele>181.5</ele>
        <time>2022-04-03T14:03:46Z</time>
      </trkpt>
      <trkpt lat="47.73031" lon="3.54752">
        <ele>181.4</ele>
        <time>2022-04-03T14:03:47Z</time>
      </trkpt>
      <trkpt lat="47.73031" lon="3.54749">
        <ele>181.3</ele>
        <time>2022-04-03T14:03:48Z</time>
      </trkpt>
      <trkpt lat="47.73031" lon="3.54748">
        <ele>181.3</ele>
        <time>2022-04-03T14:03:49Z</time>
      </trkpt>
      <trkpt lat="47.73032" lon="3.54745">
        <ele>181.3</ele>
        <time>2022-04-03T14:03:50Z</time>
      </trkpt>
      <trkpt lat="47.73032" lon="3.54744">
        <ele>181.2</ele>
        <time>2022-04-03T14:03:51Z</time>
      </trkpt>
      <trkpt lat="47.73032" lon="3.54739">
        <ele>181.1</ele>
        <time>2022-04-03T14:03:53Z</time>
      </trkpt>
      <trkpt lat="47.73032" lon="3.54736">
        <ele>181</ele>
        <time>2022-04-03T14:03:54Z</time>
      </trkpt>
      <trkpt lat="47.73032" lon="3.54734">
        <ele>181</ele>
        <time>2022-04-03T14:03:56Z</time>
      </trkpt>
      <trkpt lat="47.73032" lon="3.54733">
        <ele>181</ele>
        <time>2022-04-03T14:03:57Z</time>
      </trkpt>
      <trkpt lat="47.73032" lon="3.54731">
        <ele>180.9</ele>
        <time>2022-04-03T14:03:58Z</time>
      </trkpt>
      <trkpt lat="47.73032" lon="3.54728">
        <ele>180.8</ele>
        <time>2022-04-03T14:03:59Z</time>
      </trkpt>
      <trkpt lat="47.73032" lon="3.54725">
        <ele>180.8</ele>
        <time>2022-04-03T14:04:00Z</time>
      </trkpt>
      <trkpt lat="47.73032" lon="3.54723">
        <ele>180.7</ele>
        <time>2022-04-03T14:04:01Z</time>
      </trkpt>
      <trkpt lat="47.73032" lon="3.54722">
        <ele>180.7</ele>
        <time>2022-04-03T14:04:02Z</time>
      </trkpt>
      <trkpt lat="47.73032" lon="3.54718">
        <ele>180.6</ele>
        <time>2022-04-03T14:04:03Z</time>
      </trkpt>
      <trkpt lat="47.73032" lon="3.54717">
        <ele>180.6</ele>
        <time>2022-04-03T14:04:04Z</time>
      </trkpt>
      <trkpt lat="47.73032" lon="3.54716">
        <ele>180.5</ele>
        <time>2022-04-03T14:04:05Z</time>
      </trkpt>
      <trkpt lat="47.73033" lon="3.54714">
        <ele>180.5</ele>
        <time>2022-04-03T14:04:06Z</time>
      </trkpt>
      <trkpt lat="47.73033" lon="3.54712">
        <ele>180.4</ele>
        <time>2022-04-03T14:04:08Z</time>
      </trkpt>
      <trkpt lat="47.73034" lon="3.54709">
        <ele>180.4</ele>
        <time>2022-04-03T14:04:09Z</time>
      </trkpt>
      <trkpt lat="47.73035" lon="3.54708">
        <ele>180.3</ele>
        <time>2022-04-03T14:04:10Z</time>
      </trkpt>
      <trkpt lat="47.73035" lon="3.54706">
        <ele>180.3</ele>
        <time>2022-04-03T14:04:11Z</time>
      </trkpt>
      <trkpt lat="47.73034" lon="3.54704">
        <ele>180.2</ele>
        <time>2022-04-03T14:04:12Z</time>
      </trkpt>
      <trkpt lat="47.73034" lon="3.54702">
        <ele>180.2</ele>
        <time>2022-04-03T14:04:13Z</time>
      </trkpt>
      <trkpt lat="47.73033" lon="3.54699">
        <ele>180.1</ele>
        <time>2022-04-03T14:04:14Z</time>
      </trkpt>
      <trkpt lat="47.73033" lon="3.54698">
        <ele>180.1</ele>
        <time>2022-04-03T14:04:15Z</time>
      </trkpt>
      <trkpt lat="47.73033" lon="3.54696">
        <ele>180</ele>
        <time>2022-04-03T14:04:16Z</time>
      </trkpt>
      <trkpt lat="47.73032" lon="3.54694">
        <ele>180</ele>
        <time>2022-04-03T14:04:17Z</time>
      </trkpt>
      <trkpt lat="47.73032" lon="3.54691">
        <ele>179.9</ele>
        <time>2022-04-03T14:04:18Z</time>
      </trkpt>
      <trkpt lat="47.73032" lon="3.5469">
        <ele>179.9</ele>
        <time>2022-04-03T14:04:19Z</time>
      </trkpt>
      <trkpt lat="47.73032" lon="3.54687">
        <ele>179.8</ele>
        <time>2022-04-03T14:04:20Z</time>
      </trkpt>
      <trkpt lat="47.73032" lon="3.54686">
        <ele>179.8</ele>
        <time>2022-04-03T14:04:21Z</time>
      </trkpt>
      <trkpt lat="47.73032" lon="3.54684">
        <ele>179.7</ele>
        <time>2022-04-03T14:04:22Z</time>
      </trkpt>
      <trkpt lat="47.73032" lon="3.5468">
        <ele>179.6</ele>
        <time>2022-04-03T14:04:24Z</time>
      </trkpt>
      <trkpt lat="47.73032" lon="3.54679">
        <ele>179.6</ele>
        <time>2022-04-03T14:04:25Z</time>
      </trkpt>
      <trkpt lat="47.73031" lon="3.54676">
        <ele>179.5</ele>
        <time>2022-04-03T14:04:26Z</time>
      </trkpt>
      <trkpt lat="47.73031" lon="3.54675">
        <ele>179.5</ele>
        <time>2022-04-03T14:04:27Z</time>
      </trkpt>
      <trkpt lat="47.7303" lon="3.54671">
        <ele>179.4</ele>
        <time>2022-04-03T14:04:28Z</time>
      </trkpt>
      <trkpt lat="47.7303" lon="3.54669">
        <ele>179.4</ele>
        <time>2022-04-03T14:04:30Z</time>
      </trkpt>
      <trkpt lat="47.7303" lon="3.54667">
        <ele>179.3</ele>
        <time>2022-04-03T14:04:31Z</time>
      </trkpt>
      <trkpt lat="47.73029" lon="3.54666">
        <ele>179.3</ele>
        <time>2022-04-03T14:04:32Z</time>
      </trkpt>
      <trkpt lat="47.73029" lon="3.54663">
        <ele>179.2</ele>
        <time>2022-04-03T14:04:33Z</time>
      </trkpt>
      <trkpt lat="47.73029" lon="3.54661">
        <ele>179.2</ele>
        <time>2022-04-03T14:04:34Z</time>
      </trkpt>
      <trkpt lat="47.7303" lon="3.54657">
        <ele>179.1</ele>
        <time>2022-04-03T14:04:35Z</time>
      </trkpt>
      <trkpt lat="47.7303" lon="3.54655">
        <ele>179</ele>
        <time>2022-04-03T14:04:37Z</time>
      </trkpt>
      <trkpt lat="47.7303" lon="3.54654">
        <ele>179</ele>
        <time>2022-04-03T14:04:38Z</time>
      </trkpt>
      <trkpt lat="47.73031" lon="3.54652">
        <ele>178.9</ele>
        <time>2022-04-03T14:04:39Z</time>
      </trkpt>
      <trkpt lat="47.73031" lon="3.5465">
        <ele>178.9</ele>
        <time>2022-04-03T14:04:40Z</time>
      </trkpt>
      <trkpt lat="47.7303" lon="3.54648">
        <ele>178.8</ele>
        <time>2022-04-03T14:04:41Z</time>
      </trkpt>
      <trkpt lat="47.7303" lon="3.54646">
        <ele>178.8</ele>
        <time>2022-04-03T14:04:42Z</time>
      </trkpt>
      <trkpt lat="47.73029" lon="3.54644">
        <ele>178.7</ele>
        <time>2022-04-03T14:04:43Z</time>
      </trkpt>
      <trkpt lat="47.73029" lon="3.54641">
        <ele>178.7</ele>
        <time>2022-04-03T14:04:45Z</time>
      </trkpt>
      <trkpt lat="47.73029" lon="3.54639">
        <ele>178.6</ele>
        <time>2022-04-03T14:04:46Z</time>
      </trkpt>
      <trkpt lat="47.73029" lon="3.54636">
        <ele>178.5</ele>
        <time>2022-04-03T14:04:47Z</time>
      </trkpt>
      <trkpt lat="47.7303" lon="3.54634">
        <ele>178.5</ele>
        <time>2022-04-03T14:04:48Z</time>
      </trkpt>
      <trkpt lat="47.7303" lon="3.54632">
        <ele>178.4</ele>
        <time>2022-04-03T14:04:49Z</time>
      </trkpt>
      <trkpt lat="47.7303" lon="3.54629">
        <ele>178.4</ele>
        <time>2022-04-03T14:04:50Z</time>
      </trkpt>
      <trkpt lat="47.7303" lon="3.54628">
        <ele>178.3</ele>
        <time>2022-04-03T14:04:51Z</time>
      </trkpt>
      <trkpt lat="47.73029" lon="3.54627">
        <ele>178.3</ele>
        <time>2022-04-03T14:04:52Z</time>
      </trkpt>
      <trkpt lat="47.73029" lon="3.54625">
        <ele>178.3</ele>
        <time>2022-04-03T14:04:53Z</time>
      </trkpt>
      <trkpt lat="47.73029" lon="3.54623">
        <ele>178.2</ele>
        <time>2022-04-03T14:04:54Z</time>
      </trkpt>
      <trkpt lat="47.73028" lon="3.54619">
        <ele>178.1</ele>
        <time>2022-04-03T14:04:55Z</time>
      </trkpt>
      <trkpt lat="47.73028" lon="3.54617">
        <ele>178.1</ele>
        <time>2022-04-03T14:04:56Z</time>
      </trkpt>
      <trkpt lat="47.73027" lon="3.54615">
        <ele>178</ele>
        <time>2022-04-03T14:04:58Z</time>
      </trkpt>
      <trkpt lat="47.73027" lon="3.54613">
        <ele>178</ele>
        <time>2022-04-03T14:04:59Z</time>
      </trkpt>
      <trkpt lat="47.73027" lon="3.54611">
        <ele>177.9</ele>
        <time>2022-04-03T14:05:00Z</time>
      </trkpt>
      <trkpt lat="47.73026" lon="3.54609">
        <ele>177.9</ele>
        <time>2022-04-03T14:05:01Z</time>
      </trkpt>
      <trkpt lat="47.73026" lon="3.54606">
        <ele>177.8</ele>
        <time>2022-04-03T14:05:02Z</time>
      </trkpt>
      <trkpt lat="47.73026" lon="3.54604">
        <ele>177.7</ele>
        <time>2022-04-03T14:05:03Z</time>
      </trkpt>
      <trkpt lat="47.73026" lon="3.54601">
        <ele>177.7</ele>
        <time>2022-04-03T14:05:04Z</time>
      </trkpt>
      <trkpt lat="47.73026" lon="3.54599">
        <ele>177.6</ele>
        <time>2022-04-03T14:05:05Z</time>
      </trkpt>
      <trkpt lat="47.73026" lon="3.54596">
        <ele>177.5</ele>
        <time>2022-04-03T14:05:06Z</time>
      </trkpt>
      <trkpt lat="47.73026" lon="3.54595">
        <ele>177.5</ele>
        <time>2022-04-03T14:05:07Z</time>
      </trkpt>
      <trkpt lat="47.73026" lon="3.54594">
        <ele>177.5</ele>
        <time>2022-04-03T14:05:08Z</time>
      </trkpt>
      <trkpt lat="47.73025" lon="3.54592">
        <ele>177.4</ele>
        <time>2022-04-03T14:05:09Z</time>
      </trkpt>
      <trkpt lat="47.73025" lon="3.5459">
        <ele>177.4</ele>
        <time>2022-04-03T14:05:11Z</time>
      </trkpt>
      <trkpt lat="47.73025" lon="3.54587">
        <ele>177.3</ele>
        <time>2022-04-03T14:05:12Z</time>
      </trkpt>
      <trkpt lat="47.73025" lon="3.54586">
        <ele>177.3</ele>
        <time>2022-04-03T14:05:13Z</time>
      </trkpt>
      <trkpt lat="47.73024" lon="3.54583">
        <ele>177.2</ele>
        <time>2022-04-03T14:05:14Z</time>
      </trkpt>
      <trkpt lat="47.73024" lon="3.54581">
        <ele>177.2</ele>
        <time>2022-04-03T14:05:15Z</time>
      </trkpt>
      <trkpt lat="47.73024" lon="3.5458">
        <ele>177.1</ele>
        <time>2022-04-03T14:05:16Z</time>
      </trkpt>
      <trkpt lat="47.73024" lon="3.54579">
        <ele>177.1</ele>
        <time>2022-04-03T14:05:17Z</time>
      </trkpt>
      <trkpt lat="47.73024" lon="3.54577">
        <ele>177.1</ele>
        <time>2022-04-03T14:05:18Z</time>
      </trkpt>
      <trkpt lat="47.73023" lon="3.54576">
        <ele>177</ele>
        <time>2022-04-03T14:05:19Z</time>
      </trkpt>
      <trkpt lat="47.73023" lon="3.54574">
        <ele>177</ele>
        <time>2022-04-03T14:05:20Z</time>
      </trkpt>
      <trkpt lat="47.73022" lon="3.54571">
        <ele>176.9</ele>
        <time>2022-04-03T14:05:21Z</time>
      </trkpt>
      <trkpt lat="47.73023" lon="3.54569">
        <ele>176.9</ele>
        <time>2022-04-03T14:05:22Z</time>
      </trkpt>
      <trkpt lat="47.73023" lon="3.54568">
        <ele>176.8</ele>
        <time>2022-04-03T14:05:23Z</time>
      </trkpt>
      <trkpt lat="47.73023" lon="3.54566">
        <ele>176.8</ele>
        <time>2022-04-03T14:05:24Z</time>
      </trkpt>
      <trkpt lat="47.73023" lon="3.54565">
        <ele>176.8</ele>
        <time>2022-04-03T14:05:25Z</time>
      </trkpt>
      <trkpt lat="47.73022" lon="3.54562">
        <ele>176.7</ele>
        <time>2022-04-03T14:05:26Z</time>
      </trkpt>
      <trkpt lat="47.73022" lon="3.54561">
        <ele>176.7</ele>
        <time>2022-04-03T14:05:27Z</time>
      </trkpt>
      <trkpt lat="47.73022" lon="3.54559">
        <ele>176.6</ele>
        <time>2022-04-03T14:05:28Z</time>
      </trkpt>
      <trkpt lat="47.73021" lon="3.54557">
        <ele>176.6</ele>
        <time>2022-04-03T14:05:29Z</time>
      </trkpt>
      <trkpt lat="47.73021" lon="3.54554">
        <ele>176.5</ele>
        <time>2022-04-03T14:05:30Z</time>
      </trkpt>
      <trkpt lat="47.73021" lon="3.54553">
        <ele>176.5</ele>
        <time>2022-04-03T14:05:32Z</time>
      </trkpt>
      <trkpt lat="47.73021" lon="3.54551">
        <ele>176.4</ele>
        <time>2022-04-03T14:05:33Z</time>
      </trkpt>
      <trkpt lat="47.7302" lon="3.54548">
        <ele>176.3</ele>
        <time>2022-04-03T14:05:34Z</time>
      </trkpt>
      <trkpt lat="47.7302" lon="3.54547">
        <ele>176.3</ele>
        <time>2022-04-03T14:05:35Z</time>
      </trkpt>
      <trkpt lat="47.7302" lon="3.54546">
        <ele>176.3</ele>
        <time>2022-04-03T14:05:36Z</time>
      </trkpt>
      <trkpt lat="47.7302" lon="3.54543">
        <ele>176.2</ele>
        <time>2022-04-03T14:05:37Z</time>
      </trkpt>
      <trkpt lat="47.73019" lon="3.54542">
        <ele>176.2</ele>
        <time>2022-04-03T14:05:38Z</time>
      </trkpt>
      <trkpt lat="47.73019" lon="3.54541">
        <ele>176.2</ele>
        <time>2022-04-03T14:05:40Z</time>
      </trkpt>
      <trkpt lat="47.73018" lon="3.54538">
        <ele>176.1</ele>
        <time>2022-04-03T14:05:41Z</time>
      </trkpt>
      <trkpt lat="47.73017" lon="3.54537">
        <ele>176</ele>
        <time>2022-04-03T14:05:42Z</time>
      </trkpt>
      <trkpt lat="47.73017" lon="3.54535">
        <ele>176</ele>
        <time>2022-04-03T14:05:43Z</time>
      </trkpt>
      <trkpt lat="47.73016" lon="3.54533">
        <ele>175.9</ele>
        <time>2022-04-03T14:05:44Z</time>
      </trkpt>
      <trkpt lat="47.73015" lon="3.54532">
        <ele>175.9</ele>
        <time>2022-04-03T14:05:45Z</time>
      </trkpt>
      <trkpt lat="47.73015" lon="3.54531">
        <ele>175.9</ele>
        <time>2022-04-03T14:05:46Z</time>
      </trkpt>
      <trkpt lat="47.73014" lon="3.5453">
        <ele>175.8</ele>
        <time>2022-04-03T14:05:47Z</time>
      </trkpt>
      <trkpt lat="47.73013" lon="3.54529">
        <ele>175.8</ele>
        <time>2022-04-03T14:05:48Z</time>
      </trkpt>
      <trkpt lat="47.73012" lon="3.54528">
        <ele>175.8</ele>
        <time>2022-04-03T14:05:49Z</time>
      </trkpt>
      <trkpt lat="47.73011" lon="3.54528">
        <ele>175.7</ele>
        <time>2022-04-03T14:05:50Z</time>
      </trkpt>
      <trkpt lat="47.7301" lon="3.54527">
        <ele>175.7</ele>
        <time>2022-04-03T14:05:51Z</time>
      </trkpt>
      <trkpt lat="47.73008" lon="3.54526">
        <ele>175.6</ele>
        <time>2022-04-03T14:05:53Z</time>
      </trkpt>
      <trkpt lat="47.73007" lon="3.54526">
        <ele>175.5</ele>
        <time>2022-04-03T14:05:54Z</time>
      </trkpt>
      <trkpt lat="47.73004" lon="3.54525">
        <ele>175.4</ele>
        <time>2022-04-03T14:05:55Z</time>
      </trkpt>
      <trkpt lat="47.73002" lon="3.54525">
        <ele>175.4</ele>
        <time>2022-04-03T14:05:56Z</time>
      </trkpt>
      <trkpt lat="47.73002" lon="3.54525">
        <ele>175.4</ele>
        <time>2022-04-03T14:05:57Z</time>
      </trkpt>
      <trkpt lat="47.73" lon="3.54525">
        <ele>175.3</ele>
        <time>2022-04-03T14:05:58Z</time>
      </trkpt>
      <trkpt lat="47.72999" lon="3.54526">
        <ele>175.3</ele>
        <time>2022-04-03T14:06:00Z</time>
      </trkpt>
      <trkpt lat="47.72996" lon="3.54526">
        <ele>175.2</ele>
        <time>2022-04-03T14:06:01Z</time>
      </trkpt>
      <trkpt lat="47.72996" lon="3.54528">
        <ele>175.1</ele>
        <time>2022-04-03T14:06:03Z</time>
      </trkpt>
      <trkpt lat="47.72995" lon="3.54529">
        <ele>175.1</ele>
        <time>2022-04-03T14:06:04Z</time>
      </trkpt>
      <trkpt lat="47.72995" lon="3.54531">
        <ele>175.1</ele>
        <time>2022-04-03T14:06:05Z</time>
      </trkpt>
      <trkpt lat="47.72995" lon="3.54533">
        <ele>175.2</ele>
        <time>2022-04-03T14:06:07Z</time>
      </trkpt>
      <trkpt lat="47.72996" lon="3.54535">
        <ele>175.2</ele>
        <time>2022-04-03T14:06:08Z</time>
      </trkpt>
      <trkpt lat="47.72996" lon="3.54538">
        <ele>175.4</ele>
        <time>2022-04-03T14:06:09Z</time>
      </trkpt>
      <trkpt lat="47.72997" lon="3.54539">
        <ele>175.4</ele>
        <time>2022-04-03T14:06:10Z</time>
      </trkpt>
      <trkpt lat="47.72998" lon="3.54542">
        <ele>175.7</ele>
        <time>2022-04-03T14:06:11Z</time>
      </trkpt>
      <trkpt lat="47.72999" lon="3.54543">
        <ele>175.7</ele>
        <time>2022-04-03T14:06:12Z</time>
      </trkpt>
      <trkpt lat="47.72999" lon="3.54545">
        <ele>175.7</ele>
        <time>2022-04-03T14:06:14Z</time>
      </trkpt>
      <trkpt lat="47.72999" lon="3.54547">
        <ele>175.9</ele>
        <time>2022-04-03T14:06:15Z</time>
      </trkpt>
      <trkpt lat="47.72999" lon="3.5455">
        <ele>176.1</ele>
        <time>2022-04-03T14:06:16Z</time>
      </trkpt>
      <trkpt lat="47.72999" lon="3.54551">
        <ele>176.1</ele>
        <time>2022-04-03T14:06:17Z</time>
      </trkpt>
      <trkpt lat="47.72999" lon="3.54552">
        <ele>176.1</ele>
        <time>2022-04-03T14:06:18Z</time>
      </trkpt>
      <trkpt lat="47.72999" lon="3.54553">
        <ele>176.1</ele>
        <time>2022-04-03T14:06:19Z</time>
      </trkpt>
      <trkpt lat="47.72999" lon="3.54555">
        <ele>176.3</ele>
        <time>2022-04-03T14:06:20Z</time>
      </trkpt>
      <trkpt lat="47.72999" lon="3.54557">
        <ele>176.3</ele>
        <time>2022-04-03T14:06:22Z</time>
      </trkpt>
      <trkpt lat="47.72999" lon="3.54558">
        <ele>176.5</ele>
        <time>2022-04-03T14:06:23Z</time>
      </trkpt>
      <trkpt lat="47.72998" lon="3.5456">
        <ele>176.5</ele>
        <time>2022-04-03T14:06:24Z</time>
      </trkpt>
      <trkpt lat="47.72998" lon="3.54562">
        <ele>176.5</ele>
        <time>2022-04-03T14:06:25Z</time>
      </trkpt>
      <trkpt lat="47.72998" lon="3.54564">
        <ele>176.7</ele>
        <time>2022-04-03T14:06:26Z</time>
      </trkpt>
      <trkpt lat="47.72998" lon="3.54565">
        <ele>176.7</ele>
        <time>2022-04-03T14:06:27Z</time>
      </trkpt>
      <trkpt lat="47.72998" lon="3.54567">
        <ele>176.9</ele>
        <time>2022-04-03T14:06:28Z</time>
      </trkpt>
      <trkpt lat="47.72997" lon="3.54568">
        <ele>176.9</ele>
        <time>2022-04-03T14:06:29Z</time>
      </trkpt>
      <trkpt lat="47.72997" lon="3.5457">
        <ele>176.7</ele>
        <time>2022-04-03T14:06:30Z</time>
      </trkpt>
      <trkpt lat="47.72997" lon="3.54572">
        <ele>176.9</ele>
        <time>2022-04-03T14:06:32Z</time>
      </trkpt>
      <trkpt lat="47.72996" lon="3.54574">
        <ele>176.9</ele>
        <time>2022-04-03T14:06:33Z</time>
      </trkpt>
      <trkpt lat="47.72996" lon="3.54576">
        <ele>177</ele>
        <time>2022-04-03T14:06:34Z</time>
      </trkpt>
      <trkpt lat="47.72996" lon="3.54577">
        <ele>177</ele>
        <time>2022-04-03T14:06:35Z</time>
      </trkpt>
      <trkpt lat="47.72996" lon="3.54579">
        <ele>177</ele>
        <time>2022-04-03T14:06:36Z</time>
      </trkpt>
      <trkpt lat="47.72996" lon="3.5458">
        <ele>177.2</ele>
        <time>2022-04-03T14:06:37Z</time>
      </trkpt>
      <trkpt lat="47.72995" lon="3.54582">
        <ele>177.2</ele>
        <time>2022-04-03T14:06:39Z</time>
      </trkpt>
      <trkpt lat="47.72995" lon="3.54584">
        <ele>177.3</ele>
        <time>2022-04-03T14:06:40Z</time>
      </trkpt>
      <trkpt lat="47.72995" lon="3.54587">
        <ele>177.3</ele>
        <time>2022-04-03T14:06:42Z</time>
      </trkpt>
      <trkpt lat="47.72995" lon="3.54589">
        <ele>177.5</ele>
        <time>2022-04-03T14:06:43Z</time>
      </trkpt>
      <trkpt lat="47.72994" lon="3.54592">
        <ele>177.3</ele>
        <time>2022-04-03T14:06:44Z</time>
      </trkpt>
      <trkpt lat="47.72994" lon="3.54593">
        <ele>177.5</ele>
        <time>2022-04-03T14:06:46Z</time>
      </trkpt>
      <trkpt lat="47.72994" lon="3.54595">
        <ele>177.5</ele>
        <time>2022-04-03T14:06:47Z</time>
      </trkpt>
      <trkpt lat="47.72993" lon="3.54596">
        <ele>177.5</ele>
        <time>2022-04-03T14:06:48Z</time>
      </trkpt>
      <trkpt lat="47.72993" lon="3.54598">
        <ele>177.6</ele>
        <time>2022-04-03T14:06:49Z</time>
      </trkpt>
      <trkpt lat="47.72993" lon="3.54599">
        <ele>177.6</ele>
        <time>2022-04-03T14:06:50Z</time>
      </trkpt>
      <trkpt lat="47.72993" lon="3.54601">
        <ele>177.7</ele>
        <time>2022-04-03T14:06:52Z</time>
      </trkpt>
      <trkpt lat="47.72992" lon="3.54603">
        <ele>177.7</ele>
        <time>2022-04-03T14:06:53Z</time>
      </trkpt>
      <trkpt lat="47.72992" lon="3.54606">
        <ele>177.9</ele>
        <time>2022-04-03T14:06:54Z</time>
      </trkpt>
      <trkpt lat="47.72991" lon="3.54608">
        <ele>177.7</ele>
        <time>2022-04-03T14:06:56Z</time>
      </trkpt>
      <trkpt lat="47.72991" lon="3.54609">
        <ele>177.7</ele>
        <time>2022-04-03T14:06:57Z</time>
      </trkpt>
      <trkpt lat="47.72991" lon="3.54611">
        <ele>177.9</ele>
        <time>2022-04-03T14:06:58Z</time>
      </trkpt>
      <trkpt lat="47.7299" lon="3.54612">
        <ele>177.9</ele>
        <time>2022-04-03T14:06:59Z</time>
      </trkpt>
      <trkpt lat="47.7299" lon="3.54614">
        <ele>177.9</ele>
        <time>2022-04-03T14:07:00Z</time>
      </trkpt>
      <trkpt lat="47.7299" lon="3.54617">
        <ele>178</ele>
        <time>2022-04-03T14:07:01Z</time>
      </trkpt>
      <trkpt lat="47.7299" lon="3.54618">
        <ele>178.1</ele>
        <time>2022-04-03T14:07:03Z</time>
      </trkpt>
      <trkpt lat="47.7299" lon="3.54619">
        <ele>178.1</ele>
        <time>2022-04-03T14:07:04Z</time>
      </trkpt>
      <trkpt lat="47.72989" lon="3.54621">
        <ele>178.1</ele>
        <time>2022-04-03T14:07:05Z</time>
      </trkpt>
      <trkpt lat="47.72989" lon="3.54624">
        <ele>178.3</ele>
        <time>2022-04-03T14:07:06Z</time>
      </trkpt>
      <trkpt lat="47.72989" lon="3.54625">
        <ele>178.3</ele>
        <time>2022-04-03T14:07:07Z</time>
      </trkpt>
      <trkpt lat="47.72989" lon="3.54627">
        <ele>178.2</ele>
        <time>2022-04-03T14:07:08Z</time>
      </trkpt>
      <trkpt lat="47.72988" lon="3.54629">
        <ele>178.4</ele>
        <time>2022-04-03T14:07:10Z</time>
      </trkpt>
      <trkpt lat="47.72988" lon="3.54632">
        <ele>178.6</ele>
        <time>2022-04-03T14:07:11Z</time>
      </trkpt>
      <trkpt lat="47.72988" lon="3.54633">
        <ele>178.6</ele>
        <time>2022-04-03T14:07:12Z</time>
      </trkpt>
      <trkpt lat="47.72988" lon="3.54636">
        <ele>178.8</ele>
        <time>2022-04-03T14:07:13Z</time>
      </trkpt>
      <trkpt lat="47.72988" lon="3.54637">
        <ele>178.8</ele>
        <time>2022-04-03T14:07:14Z</time>
      </trkpt>
      <trkpt lat="47.72988" lon="3.54639">
        <ele>178.8</ele>
        <time>2022-04-03T14:07:16Z</time>
      </trkpt>
      <trkpt lat="47.72987" lon="3.5464">
        <ele>178.9</ele>
        <time>2022-04-03T14:07:17Z</time>
      </trkpt>
      <trkpt lat="47.72987" lon="3.54642">
        <ele>178.9</ele>
        <time>2022-04-03T14:07:18Z</time>
      </trkpt>
      <trkpt lat="47.72987" lon="3.54643">
        <ele>178.9</ele>
        <time>2022-04-03T14:07:19Z</time>
      </trkpt>
      <trkpt lat="47.72987" lon="3.54645">
        <ele>179.1</ele>
        <time>2022-04-03T14:07:20Z</time>
      </trkpt>
      <trkpt lat="47.72987" lon="3.54647">
        <ele>179.1</ele>
        <time>2022-04-03T14:07:21Z</time>
      </trkpt>
      <trkpt lat="47.72987" lon="3.54648">
        <ele>179.1</ele>
        <time>2022-04-03T14:07:23Z</time>
      </trkpt>
      <trkpt lat="47.72987" lon="3.5465">
        <ele>179.2</ele>
        <time>2022-04-03T14:07:24Z</time>
      </trkpt>
      <trkpt lat="47.72986" lon="3.54652">
        <ele>179.2</ele>
        <time>2022-04-03T14:07:25Z</time>
      </trkpt>
      <trkpt lat="47.72986" lon="3.54653">
        <ele>179.3</ele>
        <time>2022-04-03T14:07:27Z</time>
      </trkpt>
      <trkpt lat="47.72986" lon="3.54656">
        <ele>179.3</ele>
        <time>2022-04-03T14:07:28Z</time>
      </trkpt>
      <trkpt lat="47.72986" lon="3.54658">
        <ele>179.5</ele>
        <time>2022-04-03T14:07:29Z</time>
      </trkpt>
      <trkpt lat="47.72986" lon="3.54659">
        <ele>179.5</ele>
        <time>2022-04-03T14:07:31Z</time>
      </trkpt>
      <trkpt lat="47.72986" lon="3.54661">
        <ele>179.5</ele>
        <time>2022-04-03T14:07:32Z</time>
      </trkpt>
      <trkpt lat="47.72986" lon="3.54662">
        <ele>179.6</ele>
        <time>2022-04-03T14:07:34Z</time>
      </trkpt>
      <trkpt lat="47.72986" lon="3.54664">
        <ele>179.6</ele>
        <time>2022-04-03T14:07:35Z</time>
      </trkpt>
      <trkpt lat="47.72986" lon="3.54666">
        <ele>179.7</ele>
        <time>2022-04-03T14:07:36Z</time>
      </trkpt>
      <trkpt lat="47.72986" lon="3.54666">
        <ele>179.7</ele>
        <time>2022-04-03T14:07:37Z</time>
      </trkpt>
      <trkpt lat="47.72986" lon="3.54668">
        <ele>179.8</ele>
        <time>2022-04-03T14:07:38Z</time>
      </trkpt>
      <trkpt lat="47.72986" lon="3.54669">
        <ele>179.8</ele>
        <time>2022-04-03T14:07:39Z</time>
      </trkpt>
      <trkpt lat="47.72985" lon="3.54672">
        <ele>180</ele>
        <time>2022-04-03T14:07:40Z</time>
      </trkpt>
      <trkpt lat="47.72985" lon="3.54673">
        <ele>180</ele>
        <time>2022-04-03T14:07:42Z</time>
      </trkpt>
      <trkpt lat="47.72985" lon="3.54674">
        <ele>180.2</ele>
        <time>2022-04-03T14:07:43Z</time>
      </trkpt>
      <trkpt lat="47.72985" lon="3.54676">
        <ele>180.2</ele>
        <time>2022-04-03T14:07:44Z</time>
      </trkpt>
      <trkpt lat="47.72985" lon="3.54677">
        <ele>180.2</ele>
        <time>2022-04-03T14:07:45Z</time>
      </trkpt>
      <trkpt lat="47.72984" lon="3.54679">
        <ele>180.4</ele>
        <time>2022-04-03T14:07:46Z</time>
      </trkpt>
      <trkpt lat="47.72984" lon="3.54681">
        <ele>180.4</ele>
        <time>2022-04-03T14:07:48Z</time>
      </trkpt>
      <trkpt lat="47.72984" lon="3.54683">
        <ele>180.6</ele>
        <time>2022-04-03T14:07:49Z</time>
      </trkpt>
      <trkpt lat="47.72984" lon="3.54685">
        <ele>180.6</ele>
        <time>2022-04-03T14:07:50Z</time>
      </trkpt>
      <trkpt lat="47.72983" lon="3.54687">
        <ele>180.8</ele>
        <time>2022-04-03T14:07:51Z</time>
      </trkpt>
      <trkpt lat="47.72983" lon="3.54688">
        <ele>180.8</ele>
        <time>2022-04-03T14:07:52Z</time>
      </trkpt>
      <trkpt lat="47.72983" lon="3.5469">
        <ele>180.8</ele>
        <time>2022-04-03T14:07:54Z</time>
      </trkpt>
      <trkpt lat="47.72983" lon="3.54692">
        <ele>181.1</ele>
        <time>2022-04-03T14:07:55Z</time>
      </trkpt>
      <trkpt lat="47.72983" lon="3.54695">
        <ele>181.1</ele>
        <time>2022-04-03T14:07:57Z</time>
      </trkpt>
      <trkpt lat="47.72983" lon="3.54696">
        <ele>181.5</ele>
        <time>2022-04-03T14:07:58Z</time>
      </trkpt>
      <trkpt lat="47.72983" lon="3.54698">
        <ele>181.5</ele>
        <time>2022-04-03T14:07:59Z</time>
      </trkpt>
      <trkpt lat="47.72982" lon="3.547">
        <ele>181.8</ele>
        <time>2022-04-03T14:08:00Z</time>
      </trkpt>
      <trkpt lat="47.72982" lon="3.54702">
        <ele>181.8</ele>
        <time>2022-04-03T14:08:02Z</time>
      </trkpt>
      <trkpt lat="47.72981" lon="3.54704">
        <ele>181.8</ele>
        <time>2022-04-03T14:08:03Z</time>
      </trkpt>
      <trkpt lat="47.72981" lon="3.54705">
        <ele>182</ele>
        <time>2022-04-03T14:08:04Z</time>
      </trkpt>
      <trkpt lat="47.72981" lon="3.54707">
        <ele>182</ele>
        <time>2022-04-03T14:08:05Z</time>
      </trkpt>
      <trkpt lat="47.72982" lon="3.54709">
        <ele>182.4</ele>
        <time>2022-04-03T14:08:07Z</time>
      </trkpt>
      <trkpt lat="47.72982" lon="3.5471">
        <ele>182.4</ele>
        <time>2022-04-03T14:08:08Z</time>
      </trkpt>
      <trkpt lat="47.72982" lon="3.54712">
        <ele>182.4</ele>
        <time>2022-04-03T14:08:09Z</time>
      </trkpt>
      <trkpt lat="47.72982" lon="3.54713">
        <ele>182.7</ele>
        <time>2022-04-03T14:08:10Z</time>
      </trkpt>
      <trkpt lat="47.72982" lon="3.54714">
        <ele>182.7</ele>
        <time>2022-04-03T14:08:12Z</time>
      </trkpt>
      <trkpt lat="47.72982" lon="3.54716">
        <ele>182.7</ele>
        <time>2022-04-03T14:08:13Z</time>
      </trkpt>
      <trkpt lat="47.72982" lon="3.54717">
        <ele>183</ele>
        <time>2022-04-03T14:08:14Z</time>
      </trkpt>
      <trkpt lat="47.72982" lon="3.54719">
        <ele>183</ele>
        <time>2022-04-03T14:08:16Z</time>
      </trkpt>
      <trkpt lat="47.72982" lon="3.54721">
        <ele>183</ele>
        <time>2022-04-03T14:08:17Z</time>
      </trkpt>
      <trkpt lat="47.72981" lon="3.54722">
        <ele>183.4</ele>
        <time>2022-04-03T14:08:18Z</time>
      </trkpt>
      <trkpt lat="47.72981" lon="3.54722">
        <ele>183.4</ele>
        <time>2022-04-03T14:08:19Z</time>
      </trkpt>
      <trkpt lat="47.72982" lon="3.54724">
        <ele>183.4</ele>
        <time>2022-04-03T14:08:21Z</time>
      </trkpt>
      <trkpt lat="47.72982" lon="3.54725">
        <ele>183.4</ele>
        <time>2022-04-03T14:08:22Z</time>
      </trkpt>
      <trkpt lat="47.72982" lon="3.54727">
        <ele>183.7</ele>
        <time>2022-04-03T14:08:23Z</time>
      </trkpt>
      <trkpt lat="47.72981" lon="3.54728">
        <ele>183.7</ele>
        <time>2022-04-03T14:08:24Z</time>
      </trkpt>
      <trkpt lat="47.72981" lon="3.5473">
        <ele>183.7</ele>
        <time>2022-04-03T14:08:26Z</time>
      </trkpt>
      <trkpt lat="47.72981" lon="3.54731">
        <ele>184.1</ele>
        <time>2022-04-03T14:08:27Z</time>
      </trkpt>
      <trkpt lat="47.72981" lon="3.54732">
        <ele>184.1</ele>
        <time>2022-04-03T14:08:28Z</time>
      </trkpt>
      <trkpt lat="47.7298" lon="3.54734">
        <ele>184.4</ele>
        <time>2022-04-03T14:08:30Z</time>
      </trkpt>
      <trkpt lat="47.7298" lon="3.54736">
        <ele>184.4</ele>
        <time>2022-04-03T14:08:31Z</time>
      </trkpt>
      <trkpt lat="47.7298" lon="3.54737">
        <ele>184.5</ele>
        <time>2022-04-03T14:08:32Z</time>
      </trkpt>
      <trkpt lat="47.7298" lon="3.54738">
        <ele>184.9</ele>
        <time>2022-04-03T14:08:33Z</time>
      </trkpt>
      <trkpt lat="47.7298" lon="3.5474">
        <ele>184.9</ele>
        <time>2022-04-03T14:08:34Z</time>
      </trkpt>
      <trkpt lat="47.7298" lon="3.54741">
        <ele>184.9</ele>
        <time>2022-04-03T14:08:35Z</time>
      </trkpt>
      <trkpt lat="47.7298" lon="3.54744">
        <ele>185.2</ele>
        <time>2022-04-03T14:08:37Z</time>
      </trkpt>
      <trkpt lat="47.7298" lon="3.54745">
        <ele>185.2</ele>
        <time>2022-04-03T14:08:38Z</time>
      </trkpt>
      <trkpt lat="47.72979" lon="3.54747">
        <ele>185.5</ele>
        <time>2022-04-03T14:08:39Z</time>
      </trkpt>
      <trkpt lat="47.72979" lon="3.54749">
        <ele>185.5</ele>
        <time>2022-04-03T14:08:40Z</time>
      </trkpt>
      <trkpt lat="47.72979" lon="3.54752">
        <ele>185.8</ele>
        <time>2022-04-03T14:08:42Z</time>
      </trkpt>
      <trkpt lat="47.72979" lon="3.54753">
        <ele>185.8</ele>
        <time>2022-04-03T14:08:43Z</time>
      </trkpt>
      <trkpt lat="47.72979" lon="3.54755">
        <ele>185.8</ele>
        <time>2022-04-03T14:08:44Z</time>
      </trkpt>
      <trkpt lat="47.72979" lon="3.54756">
        <ele>186.2</ele>
        <time>2022-04-03T14:08:45Z</time>
      </trkpt>
      <trkpt lat="47.72978" lon="3.54758">
        <ele>186.2</ele>
        <time>2022-04-03T14:08:47Z</time>
      </trkpt>
      <trkpt lat="47.72978" lon="3.54759">
        <ele>186.2</ele>
        <time>2022-04-03T14:08:48Z</time>
      </trkpt>
      <trkpt lat="47.72977" lon="3.54761">
        <ele>186.5</ele>
        <time>2022-04-03T14:08:49Z</time>
      </trkpt>
      <trkpt lat="47.72977" lon="3.54762">
        <ele>186.6</ele>
        <time>2022-04-03T14:08:50Z</time>
      </trkpt>
      <trkpt lat="47.72976" lon="3.54764">
        <ele>187</ele>
        <time>2022-04-03T14:08:52Z</time>
      </trkpt>
      <trkpt lat="47.72975" lon="3.54765">
        <ele>187</ele>
        <time>2022-04-03T14:08:53Z</time>
      </trkpt>
      <trkpt lat="47.72975" lon="3.54766">
        <ele>187</ele>
        <time>2022-04-03T14:08:54Z</time>
      </trkpt>
      <trkpt lat="47.72974" lon="3.54768">
        <ele>187.1</ele>
        <time>2022-04-03T14:08:56Z</time>
      </trkpt>
      <trkpt lat="47.72973" lon="3.54769">
        <ele>187.5</ele>
        <time>2022-04-03T14:08:57Z</time>
      </trkpt>
      <trkpt lat="47.72972" lon="3.54769">
        <ele>187.5</ele>
        <time>2022-04-03T14:08:58Z</time>
      </trkpt>
      <trkpt lat="47.7297" lon="3.5477">
        <ele>187.7</ele>
        <time>2022-04-03T14:08:59Z</time>
      </trkpt>
      <trkpt lat="47.72969" lon="3.5477">
        <ele>187.7</ele>
        <time>2022-04-03T14:09:01Z</time>
      </trkpt>
      <trkpt lat="47.72968" lon="3.54771">
        <ele>187.9</ele>
        <time>2022-04-03T14:09:02Z</time>
      </trkpt>
      <trkpt lat="47.72967" lon="3.54771">
        <ele>187.9</ele>
        <time>2022-04-03T14:09:03Z</time>
      </trkpt>
      <trkpt lat="47.72966" lon="3.54771">
        <ele>187.9</ele>
        <time>2022-04-03T14:09:04Z</time>
      </trkpt>
      <trkpt lat="47.72965" lon="3.54771">
        <ele>188.1</ele>
        <time>2022-04-03T14:09:05Z</time>
      </trkpt>
      <trkpt lat="47.72963" lon="3.54771">
        <ele>188.1</ele>
        <time>2022-04-03T14:09:07Z</time>
      </trkpt>
      <trkpt lat="47.72962" lon="3.54771">
        <ele>188.3</ele>
        <time>2022-04-03T14:09:08Z</time>
      </trkpt>
      <trkpt lat="47.72962" lon="3.54771">
        <ele>188.3</ele>
        <time>2022-04-03T14:09:09Z</time>
      </trkpt>
      <trkpt lat="47.72961" lon="3.54771">
        <ele>188.3</ele>
        <time>2022-04-03T14:09:10Z</time>
      </trkpt>
      <trkpt lat="47.72959" lon="3.54771">
        <ele>188.4</ele>
        <time>2022-04-03T14:09:12Z</time>
      </trkpt>
      <trkpt lat="47.72958" lon="3.54771">
        <ele>188.4</ele>
        <time>2022-04-03T14:09:13Z</time>
      </trkpt>
      <trkpt lat="47.72957" lon="3.54771">
        <ele>188.4</ele>
        <time>2022-04-03T14:09:14Z</time>
      </trkpt>
      <trkpt lat="47.72956" lon="3.54771">
        <ele>188.6</ele>
        <time>2022-04-03T14:09:15Z</time>
      </trkpt>
      <trkpt lat="47.72954" lon="3.54771">
        <ele>188.6</ele>
        <time>2022-04-03T14:09:17Z</time>
      </trkpt>
      <trkpt lat="47.72953" lon="3.54771">
        <ele>188.8</ele>
        <time>2022-04-03T14:09:18Z</time>
      </trkpt>
      <trkpt lat="47.72952" lon="3.54771">
        <ele>188.8</ele>
        <time>2022-04-03T14:09:19Z</time>
      </trkpt>
      <trkpt lat="47.7295" lon="3.54771">
        <ele>189</ele>
        <time>2022-04-03T14:09:21Z</time>
      </trkpt>
      <trkpt lat="47.72948" lon="3.54771">
        <ele>189</ele>
        <time>2022-04-03T14:09:22Z</time>
      </trkpt>
      <trkpt lat="47.72947" lon="3.54771">
        <ele>189.1</ele>
        <time>2022-04-03T14:09:23Z</time>
      </trkpt>
      <trkpt lat="47.72945" lon="3.54771">
        <ele>189.3</ele>
        <time>2022-04-03T14:09:24Z</time>
      </trkpt>
      <trkpt lat="47.72944" lon="3.54771">
        <ele>189.3</ele>
        <time>2022-04-03T14:09:25Z</time>
      </trkpt>
      <trkpt lat="47.72943" lon="3.54771">
        <ele>189.3</ele>
        <time>2022-04-03T14:09:26Z</time>
      </trkpt>
      <trkpt lat="47.72941" lon="3.54771">
        <ele>189.5</ele>
        <time>2022-04-03T14:09:28Z</time>
      </trkpt>
      <trkpt lat="47.7294" lon="3.54771">
        <ele>189.5</ele>
        <time>2022-04-03T14:09:29Z</time>
      </trkpt>
      <trkpt lat="47.72939" lon="3.54771">
        <ele>189.7</ele>
        <time>2022-04-03T14:09:30Z</time>
      </trkpt>
      <trkpt lat="47.72938" lon="3.54771">
        <ele>189.7</ele>
        <time>2022-04-03T14:09:31Z</time>
      </trkpt>
      <trkpt lat="47.72936" lon="3.54771">
        <ele>189.9</ele>
        <time>2022-04-03T14:09:32Z</time>
      </trkpt>
      <trkpt lat="47.72935" lon="3.54771">
        <ele>189.9</ele>
        <time>2022-04-03T14:09:33Z</time>
      </trkpt>
      <trkpt lat="47.72934" lon="3.54771">
        <ele>190.1</ele>
        <time>2022-04-03T14:09:34Z</time>
      </trkpt>
      <trkpt lat="47.72933" lon="3.54771">
        <ele>190.1</ele>
        <time>2022-04-03T14:09:35Z</time>
      </trkpt>
      <trkpt lat="47.7293" lon="3.54772">
        <ele>190.4</ele>
        <time>2022-04-03T14:09:37Z</time>
      </trkpt>
      <trkpt lat="47.72929" lon="3.54772">
        <ele>190.4</ele>
        <time>2022-04-03T14:09:38Z</time>
      </trkpt>
      <trkpt lat="47.72928" lon="3.54772">
        <ele>190.4</ele>
        <time>2022-04-03T14:09:39Z</time>
      </trkpt>
      <trkpt lat="47.72927" lon="3.54772">
        <ele>190.6</ele>
        <time>2022-04-03T14:09:40Z</time>
      </trkpt>
      <trkpt lat="47.72925" lon="3.54772">
        <ele>190.6</ele>
        <time>2022-04-03T14:09:42Z</time>
      </trkpt>
      <trkpt lat="47.72924" lon="3.54772">
        <ele>190.9</ele>
        <time>2022-04-03T14:09:43Z</time>
      </trkpt>
      <trkpt lat="47.72922" lon="3.54772">
        <ele>190.9</ele>
        <time>2022-04-03T14:09:44Z</time>
      </trkpt>
      <trkpt lat="47.72921" lon="3.54772">
        <ele>191.2</ele>
        <time>2022-04-03T14:09:45Z</time>
      </trkpt>
      <trkpt lat="47.72919" lon="3.54772">
        <ele>191.5</ele>
        <time>2022-04-03T14:09:47Z</time>
      </trkpt>
      <trkpt lat="47.72916" lon="3.54772">
        <ele>191.5</ele>
        <time>2022-04-03T14:09:48Z</time>
      </trkpt>
      <trkpt lat="47.72916" lon="3.54772">
        <ele>191.9</ele>
        <time>2022-04-03T14:09:49Z</time>
      </trkpt>
      <trkpt lat="47.72915" lon="3.54772">
        <ele>191.9</ele>
        <time>2022-04-03T14:09:50Z</time>
      </trkpt>
      <trkpt lat="47.72913" lon="3.54773">
        <ele>192.1</ele>
        <time>2022-04-03T14:09:52Z</time>
      </trkpt>
      <trkpt lat="47.72912" lon="3.54773">
        <ele>192.4</ele>
        <time>2022-04-03T14:09:53Z</time>
      </trkpt>
      <trkpt lat="47.7291" lon="3.54773">
        <ele>192.6</ele>
        <time>2022-04-03T14:09:54Z</time>
      </trkpt>
      <trkpt lat="47.72909" lon="3.54773">
        <ele>192.6</ele>
        <time>2022-04-03T14:09:56Z</time>
      </trkpt>
      <trkpt lat="47.72906" lon="3.54773">
        <ele>192.8</ele>
        <time>2022-04-03T14:09:57Z</time>
      </trkpt>
      <trkpt lat="47.72905" lon="3.54773">
        <ele>192.8</ele>
        <time>2022-04-03T14:09:58Z</time>
      </trkpt>
      <trkpt lat="47.72903" lon="3.54773">
        <ele>192.8</ele>
        <time>2022-04-03T14:09:59Z</time>
      </trkpt>
      <trkpt lat="47.72902" lon="3.54773">
        <ele>192.8</ele>
        <time>2022-04-03T14:10:00Z</time>
      </trkpt>
      <trkpt lat="47.72901" lon="3.54772">
        <ele>192.9</ele>
        <time>2022-04-03T14:10:01Z</time>
      </trkpt>
      <trkpt lat="47.729" lon="3.54772">
        <ele>192.9</ele>
        <time>2022-04-03T14:10:03Z</time>
      </trkpt>
      <trkpt lat="47.72899" lon="3.54772">
        <ele>193</ele>
        <time>2022-04-03T14:10:04Z</time>
      </trkpt>
      <trkpt lat="47.72896" lon="3.54772">
        <ele>193</ele>
        <time>2022-04-03T14:10:05Z</time>
      </trkpt>
      <trkpt lat="47.72895" lon="3.54772">
        <ele>193.1</ele>
        <time>2022-04-03T14:10:06Z</time>
      </trkpt>
      <trkpt lat="47.72894" lon="3.54772">
        <ele>193.1</ele>
        <time>2022-04-03T14:10:07Z</time>
      </trkpt>
      <trkpt lat="47.72893" lon="3.54772">
        <ele>193.1</ele>
        <time>2022-04-03T14:10:09Z</time>
      </trkpt>
      <trkpt lat="47.72892" lon="3.54772">
        <ele>193.2</ele>
        <time>2022-04-03T14:10:10Z</time>
      </trkpt>
      <trkpt lat="47.72891" lon="3.54772">
        <ele>193.2</ele>
        <time>2022-04-03T14:10:11Z</time>
      </trkpt>
      <trkpt lat="47.72889" lon="3.54771">
        <ele>193.2</ele>
        <time>2022-04-03T14:10:12Z</time>
      </trkpt>
      <trkpt lat="47.72889" lon="3.54771">
        <ele>193.2</ele>
        <time>2022-04-03T14:10:13Z</time>
      </trkpt>
      <trkpt lat="47.72887" lon="3.54771">
        <ele>193.2</ele>
        <time>2022-04-03T14:10:14Z</time>
      </trkpt>
      <trkpt lat="47.72887" lon="3.54771">
        <ele>193.2</ele>
        <time>2022-04-03T14:10:15Z</time>
      </trkpt>
      <trkpt lat="47.72886" lon="3.54771">
        <ele>193.2</ele>
        <time>2022-04-03T14:10:16Z</time>
      </trkpt>
      <trkpt lat="47.72884" lon="3.5477">
        <ele>193.2</ele>
        <time>2022-04-03T14:10:18Z</time>
      </trkpt>
      <trkpt lat="47.72883" lon="3.5477">
        <ele>193.2</ele>
        <time>2022-04-03T14:10:19Z</time>
      </trkpt>
      <trkpt lat="47.72882" lon="3.5477">
        <ele>193.2</ele>
        <time>2022-04-03T14:10:20Z</time>
      </trkpt>
      <trkpt lat="47.72881" lon="3.5477">
        <ele>193.2</ele>
        <time>2022-04-03T14:10:21Z</time>
      </trkpt>
      <trkpt lat="47.7288" lon="3.5477">
        <ele>193.2</ele>
        <time>2022-04-03T14:10:23Z</time>
      </trkpt>
      <trkpt lat="47.72879" lon="3.5477">
        <ele>193.1</ele>
        <time>2022-04-03T14:10:24Z</time>
      </trkpt>
      <trkpt lat="47.72877" lon="3.5477">
        <ele>193.1</ele>
        <time>2022-04-03T14:10:25Z</time>
      </trkpt>
      <trkpt lat="47.72877" lon="3.5477">
        <ele>193.1</ele>
        <time>2022-04-03T14:10:26Z</time>
      </trkpt>
      <trkpt lat="47.72875" lon="3.5477">
        <ele>193.1</ele>
        <time>2022-04-03T14:10:27Z</time>
      </trkpt>
      <trkpt lat="47.72874" lon="3.5477">
        <ele>193.1</ele>
        <time>2022-04-03T14:10:28Z</time>
      </trkpt>
      <trkpt lat="47.72873" lon="3.54769">
        <ele>193.1</ele>
        <time>2022-04-03T14:10:30Z</time>
      </trkpt>
      <trkpt lat="47.72872" lon="3.54769">
        <ele>193.1</ele>
        <time>2022-04-03T14:10:31Z</time>
      </trkpt>
      <trkpt lat="47.72871" lon="3.54769">
        <ele>193.1</ele>
        <time>2022-04-03T14:10:32Z</time>
      </trkpt>
      <trkpt lat="47.7287" lon="3.54769">
        <ele>193.1</ele>
        <time>2022-04-03T14:10:33Z</time>
      </trkpt>
      <trkpt lat="47.72869" lon="3.54768">
        <ele>192.7</ele>
        <time>2022-04-03T14:10:34Z</time>
      </trkpt>
      <trkpt lat="47.72868" lon="3.54768">
        <ele>192.7</ele>
        <time>2022-04-03T14:10:35Z</time>
      </trkpt>
      <trkpt lat="47.72865" lon="3.54767">
        <ele>192.7</ele>
        <time>2022-04-03T14:10:37Z</time>
      </trkpt>
      <trkpt lat="47.72865" lon="3.54767">
        <ele>192.7</ele>
        <time>2022-04-03T14:10:38Z</time>
      </trkpt>
      <trkpt lat="47.72864" lon="3.54766">
        <ele>192.7</ele>
        <time>2022-04-03T14:10:39Z</time>
      </trkpt>
      <trkpt lat="47.72862" lon="3.54766">
        <ele>192.7</ele>
        <time>2022-04-03T14:10:40Z</time>
      </trkpt>
      <trkpt lat="47.72861" lon="3.54765">
        <ele>192.8</ele>
        <time>2022-04-03T14:10:41Z</time>
      </trkpt>
      <trkpt lat="47.7286" lon="3.54765">
        <ele>192.8</ele>
        <time>2022-04-03T14:10:42Z</time>
      </trkpt>
      <trkpt lat="47.72859" lon="3.54765">
        <ele>192.8</ele>
        <time>2022-04-03T14:10:43Z</time>
      </trkpt>
      <trkpt lat="47.72858" lon="3.54764">
        <ele>192.8</ele>
        <time>2022-04-03T14:10:44Z</time>
      </trkpt>
      <trkpt lat="47.72857" lon="3.54764">
        <ele>192.8</ele>
        <time>2022-04-03T14:10:46Z</time>
      </trkpt>
      <trkpt lat="47.72855" lon="3.54764">
        <ele>192.6</ele>
        <time>2022-04-03T14:10:47Z</time>
      </trkpt>
      <trkpt lat="47.72854" lon="3.54764">
        <ele>192.6</ele>
        <time>2022-04-03T14:10:48Z</time>
      </trkpt>
      <trkpt lat="47.72853" lon="3.54764">
        <ele>192.6</ele>
        <time>2022-04-03T14:10:49Z</time>
      </trkpt>
      <trkpt lat="47.72852" lon="3.54763">
        <ele>192.6</ele>
        <time>2022-04-03T14:10:50Z</time>
      </trkpt>
      <trkpt lat="47.7285" lon="3.54763">
        <ele>192.6</ele>
        <time>2022-04-03T14:10:51Z</time>
      </trkpt>
      <trkpt lat="47.72849" lon="3.54763">
        <ele>192.7</ele>
        <time>2022-04-03T14:10:53Z</time>
      </trkpt>
      <trkpt lat="47.72848" lon="3.54763">
        <ele>192.7</ele>
        <time>2022-04-03T14:10:54Z</time>
      </trkpt>
      <trkpt lat="47.72845" lon="3.54763">
        <ele>192.7</ele>
        <time>2022-04-03T14:10:55Z</time>
      </trkpt>
      <trkpt lat="47.72845" lon="3.54763">
        <ele>192.7</ele>
        <time>2022-04-03T14:10:56Z</time>
      </trkpt>
      <trkpt lat="47.72844" lon="3.54763">
        <ele>192.8</ele>
        <time>2022-04-03T14:10:57Z</time>
      </trkpt>
      <trkpt lat="47.72842" lon="3.54763">
        <ele>192.8</ele>
        <time>2022-04-03T14:10:58Z</time>
      </trkpt>
      <trkpt lat="47.72841" lon="3.54763">
        <ele>192.8</ele>
        <time>2022-04-03T14:10:59Z</time>
      </trkpt>
      <trkpt lat="47.72841" lon="3.54763">
        <ele>192.9</ele>
        <time>2022-04-03T14:11:00Z</time>
      </trkpt>
      <trkpt lat="47.7284" lon="3.54763">
        <ele>192.9</ele>
        <time>2022-04-03T14:11:01Z</time>
      </trkpt>
      <trkpt lat="47.72839" lon="3.54762">
        <ele>192.9</ele>
        <time>2022-04-03T14:11:02Z</time>
      </trkpt>
      <trkpt lat="47.72838" lon="3.54763">
        <ele>193.1</ele>
        <time>2022-04-03T14:11:03Z</time>
      </trkpt>
      <trkpt lat="47.72837" lon="3.54762">
        <ele>193.1</ele>
        <time>2022-04-03T14:11:04Z</time>
      </trkpt>
      <trkpt lat="47.72835" lon="3.54762">
        <ele>193.3</ele>
        <time>2022-04-03T14:11:05Z</time>
      </trkpt>
      <trkpt lat="47.72834" lon="3.54762">
        <ele>193.3</ele>
        <time>2022-04-03T14:11:06Z</time>
      </trkpt>
      <trkpt lat="47.72833" lon="3.54762">
        <ele>193.3</ele>
        <time>2022-04-03T14:11:07Z</time>
      </trkpt>
      <trkpt lat="47.72831" lon="3.54762">
        <ele>193.5</ele>
        <time>2022-04-03T14:11:08Z</time>
      </trkpt>
      <trkpt lat="47.7283" lon="3.54762">
        <ele>193.5</ele>
        <time>2022-04-03T14:11:10Z</time>
      </trkpt>
      <trkpt lat="47.72829" lon="3.54762">
        <ele>193.7</ele>
        <time>2022-04-03T14:11:11Z</time>
      </trkpt>
      <trkpt lat="47.72828" lon="3.54762">
        <ele>193.7</ele>
        <time>2022-04-03T14:11:12Z</time>
      </trkpt>
      <trkpt lat="47.72827" lon="3.54761">
        <ele>194</ele>
        <time>2022-04-03T14:11:13Z</time>
      </trkpt>
      <trkpt lat="47.72825" lon="3.54761">
        <ele>194</ele>
        <time>2022-04-03T14:11:14Z</time>
      </trkpt>
      <trkpt lat="47.72824" lon="3.54762">
        <ele>194</ele>
        <time>2022-04-03T14:11:15Z</time>
      </trkpt>
      <trkpt lat="47.72823" lon="3.54762">
        <ele>194.2</ele>
        <time>2022-04-03T14:11:16Z</time>
      </trkpt>
      <trkpt lat="47.72822" lon="3.54762">
        <ele>194.2</ele>
        <time>2022-04-03T14:11:17Z</time>
      </trkpt>
      <trkpt lat="47.72821" lon="3.54762">
        <ele>194.5</ele>
        <time>2022-04-03T14:11:18Z</time>
      </trkpt>
      <trkpt lat="47.72819" lon="3.54762">
        <ele>194.5</ele>
        <time>2022-04-03T14:11:20Z</time>
      </trkpt>
      <trkpt lat="47.72818" lon="3.54762">
        <ele>194.8</ele>
        <time>2022-04-03T14:11:21Z</time>
      </trkpt>
      <trkpt lat="47.72816" lon="3.54762">
        <ele>194.8</ele>
        <time>2022-04-03T14:11:22Z</time>
      </trkpt>
      <trkpt lat="47.72815" lon="3.54762">
        <ele>195.1</ele>
        <time>2022-04-03T14:11:23Z</time>
      </trkpt>
      <trkpt lat="47.72814" lon="3.54762">
        <ele>195.1</ele>
        <time>2022-04-03T14:11:24Z</time>
      </trkpt>
      <trkpt lat="47.72813" lon="3.54762">
        <ele>195.1</ele>
        <time>2022-04-03T14:11:25Z</time>
      </trkpt>
      <trkpt lat="47.72811" lon="3.5476">
        <ele>195.4</ele>
        <time>2022-04-03T14:11:27Z</time>
      </trkpt>
      <trkpt lat="47.72809" lon="3.54761">
        <ele>195.8</ele>
        <time>2022-04-03T14:11:28Z</time>
      </trkpt>
      <trkpt lat="47.72808" lon="3.54762">
        <ele>195.8</ele>
        <time>2022-04-03T14:11:29Z</time>
      </trkpt>
      <trkpt lat="47.72807" lon="3.54762">
        <ele>195.8</ele>
        <time>2022-04-03T14:11:31Z</time>
      </trkpt>
      <trkpt lat="47.72806" lon="3.54763">
        <ele>196.2</ele>
        <time>2022-04-03T14:11:32Z</time>
      </trkpt>
      <trkpt lat="47.72805" lon="3.54763">
        <ele>196.2</ele>
        <time>2022-04-03T14:11:33Z</time>
      </trkpt>
      <trkpt lat="47.72804" lon="3.54764">
        <ele>196.6</ele>
        <time>2022-04-03T14:11:34Z</time>
      </trkpt>
      <trkpt lat="47.72802" lon="3.54764">
        <ele>196.8</ele>
        <time>2022-04-03T14:11:35Z</time>
      </trkpt>
      <trkpt lat="47.72801" lon="3.54765">
        <ele>196.8</ele>
        <time>2022-04-03T14:11:36Z</time>
      </trkpt>
      <trkpt lat="47.728" lon="3.54765">
        <ele>197.3</ele>
        <time>2022-04-03T14:11:38Z</time>
      </trkpt>
      <trkpt lat="47.72799" lon="3.54766">
        <ele>197.3</ele>
        <time>2022-04-03T14:11:39Z</time>
      </trkpt>
      <trkpt lat="47.72798" lon="3.54766">
        <ele>197.8</ele>
        <time>2022-04-03T14:11:40Z</time>
      </trkpt>
      <trkpt lat="47.72797" lon="3.54766">
        <ele>197.8</ele>
        <time>2022-04-03T14:11:41Z</time>
      </trkpt>
      <trkpt lat="47.72795" lon="3.54767">
        <ele>197.8</ele>
        <time>2022-04-03T14:11:42Z</time>
      </trkpt>
      <trkpt lat="47.72795" lon="3.54766">
        <ele>198.2</ele>
        <time>2022-04-03T14:11:43Z</time>
      </trkpt>
      <trkpt lat="47.72794" lon="3.54766">
        <ele>198.2</ele>
        <time>2022-04-03T14:11:44Z</time>
      </trkpt>
      <trkpt lat="47.72792" lon="3.54766">
        <ele>198.7</ele>
        <time>2022-04-03T14:11:46Z</time>
      </trkpt>
      <trkpt lat="47.7279" lon="3.54766">
        <ele>198.7</ele>
        <time>2022-04-03T14:11:47Z</time>
      </trkpt>
      <trkpt lat="47.72789" lon="3.54766">
        <ele>199.2</ele>
        <time>2022-04-03T14:11:48Z</time>
      </trkpt>
      <trkpt lat="47.72788" lon="3.54766">
        <ele>199.2</ele>
        <time>2022-04-03T14:11:49Z</time>
      </trkpt>
      <trkpt lat="47.72787" lon="3.54766">
        <ele>199.2</ele>
        <time>2022-04-03T14:11:50Z</time>
      </trkpt>
      <trkpt lat="47.72785" lon="3.54765">
        <ele>199.7</ele>
        <time>2022-04-03T14:11:52Z</time>
      </trkpt>
      <trkpt lat="47.72784" lon="3.54765">
        <ele>199.7</ele>
        <time>2022-04-03T14:11:53Z</time>
      </trkpt>
      <trkpt lat="47.72781" lon="3.54764">
        <ele>200.2</ele>
        <time>2022-04-03T14:11:55Z</time>
      </trkpt>
      <trkpt lat="47.7278" lon="3.54764">
        <ele>200.8</ele>
        <time>2022-04-03T14:11:56Z</time>
      </trkpt>
      <trkpt lat="47.72779" lon="3.54764">
        <ele>200.6</ele>
        <time>2022-04-03T14:11:57Z</time>
      </trkpt>
      <trkpt lat="47.72778" lon="3.54763">
        <ele>200.6</ele>
        <time>2022-04-03T14:11:58Z</time>
      </trkpt>
      <trkpt lat="47.72777" lon="3.54763">
        <ele>201.2</ele>
        <time>2022-04-03T14:11:59Z</time>
      </trkpt>
      <trkpt lat="47.72776" lon="3.54762">
        <ele>201.2</ele>
        <time>2022-04-03T14:12:00Z</time>
      </trkpt>
      <trkpt lat="47.72775" lon="3.54762">
        <ele>201.2</ele>
        <time>2022-04-03T14:12:01Z</time>
      </trkpt>
      <trkpt lat="47.72773" lon="3.54761">
        <ele>201.7</ele>
        <time>2022-04-03T14:12:03Z</time>
      </trkpt>
      <trkpt lat="47.72772" lon="3.54761">
        <ele>201.7</ele>
        <time>2022-04-03T14:12:04Z</time>
      </trkpt>
      <trkpt lat="47.72771" lon="3.54761">
        <ele>202.2</ele>
        <time>2022-04-03T14:12:05Z</time>
      </trkpt>
      <trkpt lat="47.7277" lon="3.5476">
        <ele>202.2</ele>
        <time>2022-04-03T14:12:06Z</time>
      </trkpt>
      <trkpt lat="47.72769" lon="3.5476">
        <ele>202.7</ele>
        <time>2022-04-03T14:12:07Z</time>
      </trkpt>
      <trkpt lat="47.72768" lon="3.5476">
        <ele>202.6</ele>
        <time>2022-04-03T14:12:09Z</time>
      </trkpt>
      <trkpt lat="47.72767" lon="3.54759">
        <ele>202.6</ele>
        <time>2022-04-03T14:12:10Z</time>
      </trkpt>
      <trkpt lat="47.72765" lon="3.54759">
        <ele>203</ele>
        <time>2022-04-03T14:12:11Z</time>
      </trkpt>
      <trkpt lat="47.72764" lon="3.54759">
        <ele>203</ele>
        <time>2022-04-03T14:12:12Z</time>
      </trkpt>
      <trkpt lat="47.72763" lon="3.54759">
        <ele>203</ele>
        <time>2022-04-03T14:12:13Z</time>
      </trkpt>
      <trkpt lat="47.72763" lon="3.54759">
        <ele>203.4</ele>
        <time>2022-04-03T14:12:14Z</time>
      </trkpt>
      <trkpt lat="47.72762" lon="3.54759">
        <ele>203.4</ele>
        <time>2022-04-03T14:12:15Z</time>
      </trkpt>
      <trkpt lat="47.7276" lon="3.54759">
        <ele>203.9</ele>
        <time>2022-04-03T14:12:17Z</time>
      </trkpt>
      <trkpt lat="47.72759" lon="3.54759">
        <ele>203.9</ele>
        <time>2022-04-03T14:12:18Z</time>
      </trkpt>
      <trkpt lat="47.72758" lon="3.54759">
        <ele>203.9</ele>
        <time>2022-04-03T14:12:19Z</time>
      </trkpt>
      <trkpt lat="47.72757" lon="3.54759">
        <ele>204.3</ele>
        <time>2022-04-03T14:12:20Z</time>
      </trkpt>
      <trkpt lat="47.72756" lon="3.54758">
        <ele>204.3</ele>
        <time>2022-04-03T14:12:21Z</time>
      </trkpt>
      <trkpt lat="47.72754" lon="3.54759">
        <ele>204.7</ele>
        <time>2022-04-03T14:12:22Z</time>
      </trkpt>
      <trkpt lat="47.72752" lon="3.54759">
        <ele>204.7</ele>
        <time>2022-04-03T14:12:24Z</time>
      </trkpt>
      <trkpt lat="47.72751" lon="3.54759">
        <ele>205</ele>
        <time>2022-04-03T14:12:25Z</time>
      </trkpt>
      <trkpt lat="47.72751" lon="3.54759">
        <ele>205</ele>
        <time>2022-04-03T14:12:26Z</time>
      </trkpt>
      <trkpt lat="47.72749" lon="3.5476">
        <ele>205</ele>
        <time>2022-04-03T14:12:27Z</time>
      </trkpt>
      <trkpt lat="47.72748" lon="3.5476">
        <ele>205.5</ele>
        <time>2022-04-03T14:12:28Z</time>
      </trkpt>
      <trkpt lat="47.72747" lon="3.5476">
        <ele>205.5</ele>
        <time>2022-04-03T14:12:30Z</time>
      </trkpt>
      <trkpt lat="47.72745" lon="3.54761">
        <ele>205.7</ele>
        <time>2022-04-03T14:12:31Z</time>
      </trkpt>
      <trkpt lat="47.72744" lon="3.54761">
        <ele>205.7</ele>
        <time>2022-04-03T14:12:32Z</time>
      </trkpt>
      <trkpt lat="47.72742" lon="3.54761">
        <ele>206</ele>
        <time>2022-04-03T14:12:34Z</time>
      </trkpt>
      <trkpt lat="47.72741" lon="3.54762">
        <ele>206</ele>
        <time>2022-04-03T14:12:35Z</time>
      </trkpt>
      <trkpt lat="47.72739" lon="3.54762">
        <ele>206.1</ele>
        <time>2022-04-03T14:12:36Z</time>
      </trkpt>
      <trkpt lat="47.72738" lon="3.54762">
        <ele>206.1</ele>
        <time>2022-04-03T14:12:37Z</time>
      </trkpt>
      <trkpt lat="47.72737" lon="3.54762">
        <ele>206.3</ele>
        <time>2022-04-03T14:12:38Z</time>
      </trkpt>
      <trkpt lat="47.72735" lon="3.54762">
        <ele>206.3</ele>
        <time>2022-04-03T14:12:40Z</time>
      </trkpt>
      <trkpt lat="47.72734" lon="3.54763">
        <ele>206.4</ele>
        <time>2022-04-03T14:12:41Z</time>
      </trkpt>
      <trkpt lat="47.72732" lon="3.54762">
        <ele>206.4</ele>
        <time>2022-04-03T14:12:42Z</time>
      </trkpt>
      <trkpt lat="47.72731" lon="3.54762">
        <ele>206.5</ele>
        <time>2022-04-03T14:12:43Z</time>
      </trkpt>
      <trkpt lat="47.7273" lon="3.54762">
        <ele>206.5</ele>
        <time>2022-04-03T14:12:45Z</time>
      </trkpt>
      <trkpt lat="47.72728" lon="3.54761">
        <ele>206.6</ele>
        <time>2022-04-03T14:12:46Z</time>
      </trkpt>
      <trkpt lat="47.72727" lon="3.54761">
        <ele>206.6</ele>
        <time>2022-04-03T14:12:47Z</time>
      </trkpt>
      <trkpt lat="47.72727" lon="3.5476">
        <ele>206.6</ele>
        <time>2022-04-03T14:12:48Z</time>
      </trkpt>
      <trkpt lat="47.72725" lon="3.54759">
        <ele>206.4</ele>
        <time>2022-04-03T14:12:49Z</time>
      </trkpt>
      <trkpt lat="47.72724" lon="3.54759">
        <ele>206.4</ele>
        <time>2022-04-03T14:12:50Z</time>
      </trkpt>
      <trkpt lat="47.72724" lon="3.54759">
        <ele>206.4</ele>
        <time>2022-04-03T14:12:51Z</time>
      </trkpt>
      <trkpt lat="47.72723" lon="3.54758">
        <ele>206.5</ele>
        <time>2022-04-03T14:12:52Z</time>
      </trkpt>
      <trkpt lat="47.72723" lon="3.54758">
        <ele>206.5</ele>
        <time>2022-04-03T14:12:53Z</time>
      </trkpt>
      <trkpt lat="47.72722" lon="3.54757">
        <ele>206.5</ele>
        <time>2022-04-03T14:12:55Z</time>
      </trkpt>
      <trkpt lat="47.72721" lon="3.54757">
        <ele>206.5</ele>
        <time>2022-04-03T14:12:56Z</time>
      </trkpt>
      <trkpt lat="47.7272" lon="3.54756">
        <ele>206.5</ele>
        <time>2022-04-03T14:12:57Z</time>
      </trkpt>
      <trkpt lat="47.72719" lon="3.54755">
        <ele>206.3</ele>
        <time>2022-04-03T14:12:58Z</time>
      </trkpt>
      <trkpt lat="47.72718" lon="3.54754">
        <ele>206.3</ele>
        <time>2022-04-03T14:12:59Z</time>
      </trkpt>
      <trkpt lat="47.72717" lon="3.54754">
        <ele>206.3</ele>
        <time>2022-04-03T14:13:01Z</time>
      </trkpt>
      <trkpt lat="47.72716" lon="3.54754">
        <ele>206.3</ele>
        <time>2022-04-03T14:13:02Z</time>
      </trkpt>
      <trkpt lat="47.72715" lon="3.54754">
        <ele>206.3</ele>
        <time>2022-04-03T14:13:03Z</time>
      </trkpt>
      <trkpt lat="47.72714" lon="3.54754">
        <ele>206.3</ele>
        <time>2022-04-03T14:13:04Z</time>
      </trkpt>
      <trkpt lat="47.72713" lon="3.54754">
        <ele>206.3</ele>
        <time>2022-04-03T14:13:05Z</time>
      </trkpt>
      <trkpt lat="47.72713" lon="3.54753">
        <ele>206.3</ele>
        <time>2022-04-03T14:13:06Z</time>
      </trkpt>
      <trkpt lat="47.72711" lon="3.54753">
        <ele>206.2</ele>
        <time>2022-04-03T14:13:08Z</time>
      </trkpt>
      <trkpt lat="47.7271" lon="3.54753">
        <ele>206.2</ele>
        <time>2022-04-03T14:13:09Z</time>
      </trkpt>
      <trkpt lat="47.72709" lon="3.54753">
        <ele>206.2</ele>
        <time>2022-04-03T14:13:10Z</time>
      </trkpt>
      <trkpt lat="47.72708" lon="3.54752">
        <ele>206.2</ele>
        <time>2022-04-03T14:13:11Z</time>
      </trkpt>
      <trkpt lat="47.72706" lon="3.54752">
        <ele>206.2</ele>
        <time>2022-04-03T14:13:13Z</time>
      </trkpt>
      <trkpt lat="47.72706" lon="3.54751">
        <ele>205.9</ele>
        <time>2022-04-03T14:13:15Z</time>
      </trkpt>
      <trkpt lat="47.72706" lon="3.5475">
        <ele>205.9</ele>
        <time>2022-04-03T14:13:16Z</time>
      </trkpt>
      <trkpt lat="47.72706" lon="3.5475">
        <ele>205.9</ele>
        <time>2022-04-03T14:13:17Z</time>
      </trkpt>
      <trkpt lat="47.72706" lon="3.54749">
        <ele>205.9</ele>
        <time>2022-04-03T14:13:18Z</time>
      </trkpt>
      <trkpt lat="47.72706" lon="3.54749">
        <ele>205.9</ele>
        <time>2022-04-03T14:13:19Z</time>
      </trkpt>
      <trkpt lat="47.72706" lon="3.54749">
        <ele>205.9</ele>
        <time>2022-04-03T14:13:20Z</time>
      </trkpt>
      <trkpt lat="47.72706" lon="3.54749">
        <ele>205.9</ele>
        <time>2022-04-03T14:13:22Z</time>
      </trkpt>
      <trkpt lat="47.72705" lon="3.54749">
        <ele>205.9</ele>
        <time>2022-04-03T14:13:23Z</time>
      </trkpt>
      <trkpt lat="47.72703" lon="3.54748">
        <ele>205.9</ele>
        <time>2022-04-03T14:13:24Z</time>
      </trkpt>
      <trkpt lat="47.72701" lon="3.54748">
        <ele>205.9</ele>
        <time>2022-04-03T14:13:26Z</time>
      </trkpt>
      <trkpt lat="47.727" lon="3.54748">
        <ele>205.9</ele>
        <time>2022-04-03T14:13:27Z</time>
      </trkpt>
      <trkpt lat="47.72698" lon="3.54748">
        <ele>205.9</ele>
        <time>2022-04-03T14:13:28Z</time>
      </trkpt>
      <trkpt lat="47.72697" lon="3.54747">
        <ele>205.9</ele>
        <time>2022-04-03T14:13:29Z</time>
      </trkpt>
      <trkpt lat="47.72696" lon="3.54747">
        <ele>206</ele>
        <time>2022-04-03T14:13:30Z</time>
      </trkpt>
      <trkpt lat="47.72694" lon="3.54748">
        <ele>206</ele>
        <time>2022-04-03T14:13:32Z</time>
      </trkpt>
      <trkpt lat="47.72693" lon="3.54748">
        <ele>206.1</ele>
        <time>2022-04-03T14:13:33Z</time>
      </trkpt>
      <trkpt lat="47.72692" lon="3.54748">
        <ele>206.1</ele>
        <time>2022-04-03T14:13:34Z</time>
      </trkpt>
      <trkpt lat="47.72691" lon="3.54749">
        <ele>206.2</ele>
        <time>2022-04-03T14:13:36Z</time>
      </trkpt>
      <trkpt lat="47.72689" lon="3.54749">
        <ele>206.2</ele>
        <time>2022-04-03T14:13:37Z</time>
      </trkpt>
      <trkpt lat="47.72687" lon="3.54749">
        <ele>206.3</ele>
        <time>2022-04-03T14:13:38Z</time>
      </trkpt>
      <trkpt lat="47.72686" lon="3.54749">
        <ele>206.3</ele>
        <time>2022-04-03T14:13:39Z</time>
      </trkpt>
      <trkpt lat="47.72686" lon="3.5475">
        <ele>206.3</ele>
        <time>2022-04-03T14:13:40Z</time>
      </trkpt>
      <trkpt lat="47.72684" lon="3.5475">
        <ele>206.4</ele>
        <time>2022-04-03T14:13:42Z</time>
      </trkpt>
      <trkpt lat="47.72682" lon="3.54751">
        <ele>206.5</ele>
        <time>2022-04-03T14:13:43Z</time>
      </trkpt>
      <trkpt lat="47.72681" lon="3.54751">
        <ele>206.5</ele>
        <time>2022-04-03T14:13:44Z</time>
      </trkpt>
      <trkpt lat="47.7268" lon="3.54751">
        <ele>206.5</ele>
        <time>2022-04-03T14:13:45Z</time>
      </trkpt>
      <trkpt lat="47.72679" lon="3.5475">
        <ele>206.6</ele>
        <time>2022-04-03T14:13:47Z</time>
      </trkpt>
      <trkpt lat="47.72677" lon="3.5475">
        <ele>206.6</ele>
        <time>2022-04-03T14:13:48Z</time>
      </trkpt>
      <trkpt lat="47.72676" lon="3.5475">
        <ele>206.8</ele>
        <time>2022-04-03T14:13:49Z</time>
      </trkpt>
      <trkpt lat="47.72675" lon="3.5475">
        <ele>206.8</ele>
        <time>2022-04-03T14:13:50Z</time>
      </trkpt>
      <trkpt lat="47.72674" lon="3.5475">
        <ele>206.9</ele>
        <time>2022-04-03T14:13:51Z</time>
      </trkpt>
      <trkpt lat="47.72671" lon="3.5475">
        <ele>206.9</ele>
        <time>2022-04-03T14:13:53Z</time>
      </trkpt>
      <trkpt lat="47.7267" lon="3.5475">
        <ele>207.1</ele>
        <time>2022-04-03T14:13:54Z</time>
      </trkpt>
      <trkpt lat="47.72669" lon="3.54749">
        <ele>207.1</ele>
        <time>2022-04-03T14:13:55Z</time>
      </trkpt>
      <trkpt lat="47.72668" lon="3.54749">
        <ele>207.2</ele>
        <time>2022-04-03T14:13:57Z</time>
      </trkpt>
      <trkpt lat="47.72667" lon="3.54749">
        <ele>207.2</ele>
        <time>2022-04-03T14:13:58Z</time>
      </trkpt>
      <trkpt lat="47.72666" lon="3.54749">
        <ele>207.2</ele>
        <time>2022-04-03T14:13:59Z</time>
      </trkpt>
      <trkpt lat="47.72665" lon="3.54749">
        <ele>207.4</ele>
        <time>2022-04-03T14:14:00Z</time>
      </trkpt>
      <trkpt lat="47.72663" lon="3.54749">
        <ele>207.4</ele>
        <time>2022-04-03T14:14:01Z</time>
      </trkpt>
      <trkpt lat="47.72661" lon="3.54748">
        <ele>207.5</ele>
        <time>2022-04-03T14:14:03Z</time>
      </trkpt>
      <trkpt lat="47.7266" lon="3.54748">
        <ele>207.5</ele>
        <time>2022-04-03T14:14:04Z</time>
      </trkpt>
      <trkpt lat="47.72659" lon="3.54748">
        <ele>207.7</ele>
        <time>2022-04-03T14:14:05Z</time>
      </trkpt>
      <trkpt lat="47.72658" lon="3.54748">
        <ele>207.7</ele>
        <time>2022-04-03T14:14:06Z</time>
      </trkpt>
      <trkpt lat="47.72656" lon="3.54748">
        <ele>207.8</ele>
        <time>2022-04-03T14:14:07Z</time>
      </trkpt>
      <trkpt lat="47.72655" lon="3.54748">
        <ele>207.8</ele>
        <time>2022-04-03T14:14:09Z</time>
      </trkpt>
      <trkpt lat="47.72654" lon="3.54748">
        <ele>207.9</ele>
        <time>2022-04-03T14:14:10Z</time>
      </trkpt>
      <trkpt lat="47.72652" lon="3.54749">
        <ele>207.9</ele>
        <time>2022-04-03T14:14:11Z</time>
      </trkpt>
      <trkpt lat="47.72651" lon="3.54749">
        <ele>207.9</ele>
        <time>2022-04-03T14:14:12Z</time>
      </trkpt>
      <trkpt lat="47.72649" lon="3.54749">
        <ele>208</ele>
        <time>2022-04-03T14:14:14Z</time>
      </trkpt>
      <trkpt lat="47.72648" lon="3.54749">
        <ele>208</ele>
        <time>2022-04-03T14:14:15Z</time>
      </trkpt>
      <trkpt lat="47.72647" lon="3.54749">
        <ele>208.1</ele>
        <time>2022-04-03T14:14:16Z</time>
      </trkpt>
      <trkpt lat="47.72645" lon="3.54749">
        <ele>208.1</ele>
        <time>2022-04-03T14:14:18Z</time>
      </trkpt>
      <trkpt lat="47.72644" lon="3.54749">
        <ele>208.2</ele>
        <time>2022-04-03T14:14:19Z</time>
      </trkpt>
      <trkpt lat="47.72643" lon="3.54749">
        <ele>208.2</ele>
        <time>2022-04-03T14:14:20Z</time>
      </trkpt>
      <trkpt lat="47.72642" lon="3.54749">
        <ele>208.2</ele>
        <time>2022-04-03T14:14:21Z</time>
      </trkpt>
      <trkpt lat="47.72641" lon="3.54748">
        <ele>208.3</ele>
        <time>2022-04-03T14:14:22Z</time>
      </trkpt>
      <trkpt lat="47.72639" lon="3.54749">
        <ele>208.3</ele>
        <time>2022-04-03T14:14:23Z</time>
      </trkpt>
      <trkpt lat="47.72638" lon="3.54749">
        <ele>208.3</ele>
        <time>2022-04-03T14:14:25Z</time>
      </trkpt>
      <trkpt lat="47.72637" lon="3.54749">
        <ele>208.3</ele>
        <time>2022-04-03T14:14:26Z</time>
      </trkpt>
      <trkpt lat="47.72636" lon="3.54749">
        <ele>208.4</ele>
        <time>2022-04-03T14:14:27Z</time>
      </trkpt>
      <trkpt lat="47.72634" lon="3.54749">
        <ele>208.4</ele>
        <time>2022-04-03T14:14:28Z</time>
      </trkpt>
      <trkpt lat="47.72633" lon="3.54749">
        <ele>208.5</ele>
        <time>2022-04-03T14:14:29Z</time>
      </trkpt>
      <trkpt lat="47.72632" lon="3.54749">
        <ele>208.5</ele>
        <time>2022-04-03T14:14:31Z</time>
      </trkpt>
      <trkpt lat="47.72631" lon="3.54748">
        <ele>208.5</ele>
        <time>2022-04-03T14:14:32Z</time>
      </trkpt>
      <trkpt lat="47.72629" lon="3.54748">
        <ele>208.5</ele>
        <time>2022-04-03T14:14:33Z</time>
      </trkpt>
      <trkpt lat="47.72628" lon="3.54748">
        <ele>208.5</ele>
        <time>2022-04-03T14:14:34Z</time>
      </trkpt>
      <trkpt lat="47.72626" lon="3.54748">
        <ele>208.6</ele>
        <time>2022-04-03T14:14:36Z</time>
      </trkpt>
      <trkpt lat="47.72625" lon="3.54748">
        <ele>208.6</ele>
        <time>2022-04-03T14:14:37Z</time>
      </trkpt>
      <trkpt lat="47.72624" lon="3.54748">
        <ele>208.6</ele>
        <time>2022-04-03T14:14:38Z</time>
      </trkpt>
      <trkpt lat="47.72623" lon="3.54748">
        <ele>208.6</ele>
        <time>2022-04-03T14:14:39Z</time>
      </trkpt>
      <trkpt lat="47.72621" lon="3.54748">
        <ele>208.7</ele>
        <time>2022-04-03T14:14:41Z</time>
      </trkpt>
      <trkpt lat="47.7262" lon="3.54748">
        <ele>208.7</ele>
        <time>2022-04-03T14:14:42Z</time>
      </trkpt>
      <trkpt lat="47.72619" lon="3.54748">
        <ele>208.8</ele>
        <time>2022-04-03T14:14:43Z</time>
      </trkpt>
      <trkpt lat="47.72617" lon="3.54748">
        <ele>208.8</ele>
        <time>2022-04-03T14:14:45Z</time>
      </trkpt>
      <trkpt lat="47.72616" lon="3.54748">
        <ele>208.8</ele>
        <time>2022-04-03T14:14:46Z</time>
      </trkpt>
      <trkpt lat="47.72615" lon="3.54748">
        <ele>208.8</ele>
        <time>2022-04-03T14:14:47Z</time>
      </trkpt>
      <trkpt lat="47.72613" lon="3.54748">
        <ele>208.8</ele>
        <time>2022-04-03T14:14:48Z</time>
      </trkpt>
      <trkpt lat="47.72612" lon="3.54748">
        <ele>208.9</ele>
        <time>2022-04-03T14:14:49Z</time>
      </trkpt>
      <trkpt lat="47.72612" lon="3.54748">
        <ele>208.9</ele>
        <time>2022-04-03T14:14:50Z</time>
      </trkpt>
      <trkpt lat="47.72611" lon="3.54749">
        <ele>208.9</ele>
        <time>2022-04-03T14:14:51Z</time>
      </trkpt>
      <trkpt lat="47.72608" lon="3.54749">
        <ele>209</ele>
        <time>2022-04-03T14:14:53Z</time>
      </trkpt>
      <trkpt lat="47.72607" lon="3.54749">
        <ele>209.1</ele>
        <time>2022-04-03T14:14:54Z</time>
      </trkpt>
      <trkpt lat="47.72606" lon="3.54749">
        <ele>209.1</ele>
        <time>2022-04-03T14:14:56Z</time>
      </trkpt>
      <trkpt lat="47.72605" lon="3.54749">
        <ele>209.1</ele>
        <time>2022-04-03T14:14:57Z</time>
      </trkpt>
      <trkpt lat="47.72603" lon="3.54749">
        <ele>209.2</ele>
        <time>2022-04-03T14:14:58Z</time>
      </trkpt>
      <trkpt lat="47.72602" lon="3.54749">
        <ele>209.2</ele>
        <time>2022-04-03T14:14:59Z</time>
      </trkpt>
      <trkpt lat="47.72601" lon="3.5475">
        <ele>209.3</ele>
        <time>2022-04-03T14:15:00Z</time>
      </trkpt>
      <trkpt lat="47.72599" lon="3.5475">
        <ele>209.3</ele>
        <time>2022-04-03T14:15:01Z</time>
      </trkpt>
      <trkpt lat="47.72598" lon="3.5475">
        <ele>209.4</ele>
        <time>2022-04-03T14:15:03Z</time>
      </trkpt>
      <trkpt lat="47.72597" lon="3.5475">
        <ele>209.4</ele>
        <time>2022-04-03T14:15:04Z</time>
      </trkpt>
      <trkpt lat="47.72596" lon="3.5475">
        <ele>209.4</ele>
        <time>2022-04-03T14:15:05Z</time>
      </trkpt>
      <trkpt lat="47.72595" lon="3.54751">
        <ele>209.5</ele>
        <time>2022-04-03T14:15:06Z</time>
      </trkpt>
      <trkpt lat="47.72594" lon="3.54751">
        <ele>209.5</ele>
        <time>2022-04-03T14:15:07Z</time>
      </trkpt>
      <trkpt lat="47.72592" lon="3.54752">
        <ele>210</ele>
        <time>2022-04-03T14:15:09Z</time>
      </trkpt>
      <trkpt lat="47.72591" lon="3.54752">
        <ele>210</ele>
        <time>2022-04-03T14:15:10Z</time>
      </trkpt>
      <trkpt lat="47.7259" lon="3.54753">
        <ele>210</ele>
        <time>2022-04-03T14:15:11Z</time>
      </trkpt>
      <trkpt lat="47.72589" lon="3.54754">
        <ele>210.2</ele>
        <time>2022-04-03T14:15:12Z</time>
      </trkpt>
      <trkpt lat="47.72588" lon="3.54754">
        <ele>210.2</ele>
        <time>2022-04-03T14:15:13Z</time>
      </trkpt>
      <trkpt lat="47.72587" lon="3.54755">
        <ele>210.3</ele>
        <time>2022-04-03T14:15:14Z</time>
      </trkpt>
      <trkpt lat="47.72585" lon="3.54755">
        <ele>210.3</ele>
        <time>2022-04-03T14:15:16Z</time>
      </trkpt>
      <trkpt lat="47.72584" lon="3.54756">
        <ele>210.8</ele>
        <time>2022-04-03T14:15:17Z</time>
      </trkpt>
      <trkpt lat="47.72583" lon="3.54757">
        <ele>210.8</ele>
        <time>2022-04-03T14:15:18Z</time>
      </trkpt>
      <trkpt lat="47.72582" lon="3.54757">
        <ele>210.8</ele>
        <time>2022-04-03T14:15:19Z</time>
      </trkpt>
      <trkpt lat="47.72581" lon="3.54757">
        <ele>210.9</ele>
        <time>2022-04-03T14:15:20Z</time>
      </trkpt>
      <trkpt lat="47.7258" lon="3.54758">
        <ele>210.9</ele>
        <time>2022-04-03T14:15:21Z</time>
      </trkpt>
      <trkpt lat="47.72579" lon="3.54759">
        <ele>210.9</ele>
        <time>2022-04-03T14:15:23Z</time>
      </trkpt>
      <trkpt lat="47.72577" lon="3.5476">
        <ele>211.4</ele>
        <time>2022-04-03T14:15:24Z</time>
      </trkpt>
      <trkpt lat="47.72577" lon="3.54761">
        <ele>211.4</ele>
        <time>2022-04-03T14:15:25Z</time>
      </trkpt>
      <trkpt lat="47.72576" lon="3.54761">
        <ele>211.4</ele>
        <time>2022-04-03T14:15:26Z</time>
      </trkpt>
      <trkpt lat="47.72575" lon="3.54762">
        <ele>211.5</ele>
        <time>2022-04-03T14:15:27Z</time>
      </trkpt>
      <trkpt lat="47.72574" lon="3.54762">
        <ele>211.5</ele>
        <time>2022-04-03T14:15:28Z</time>
      </trkpt>
      <trkpt lat="47.72573" lon="3.54763">
        <ele>211.5</ele>
        <time>2022-04-03T14:15:30Z</time>
      </trkpt>
      <trkpt lat="47.72572" lon="3.54763">
        <ele>211.6</ele>
        <time>2022-04-03T14:15:31Z</time>
      </trkpt>
      <trkpt lat="47.72571" lon="3.54764">
        <ele>211.6</ele>
        <time>2022-04-03T14:15:32Z</time>
      </trkpt>
      <trkpt lat="47.7257" lon="3.54765">
        <ele>211.9</ele>
        <time>2022-04-03T14:15:33Z</time>
      </trkpt>
      <trkpt lat="47.72569" lon="3.54765">
        <ele>211.9</ele>
        <time>2022-04-03T14:15:34Z</time>
      </trkpt>
      <trkpt lat="47.72568" lon="3.54765">
        <ele>211.9</ele>
        <time>2022-04-03T14:15:35Z</time>
      </trkpt>
      <trkpt lat="47.72567" lon="3.54766">
        <ele>212</ele>
        <time>2022-04-03T14:15:37Z</time>
      </trkpt>
      <trkpt lat="47.72566" lon="3.54766">
        <ele>212</ele>
        <time>2022-04-03T14:15:38Z</time>
      </trkpt>
      <trkpt lat="47.72564" lon="3.54767">
        <ele>212</ele>
        <time>2022-04-03T14:15:39Z</time>
      </trkpt>
      <trkpt lat="47.72564" lon="3.54768">
        <ele>212</ele>
        <time>2022-04-03T14:15:40Z</time>
      </trkpt>
      <trkpt lat="47.72563" lon="3.54768">
        <ele>212.4</ele>
        <time>2022-04-03T14:15:41Z</time>
      </trkpt>
      <trkpt lat="47.72562" lon="3.54769">
        <ele>212.4</ele>
        <time>2022-04-03T14:15:42Z</time>
      </trkpt>
      <trkpt lat="47.7256" lon="3.5477">
        <ele>212.4</ele>
        <time>2022-04-03T14:15:44Z</time>
      </trkpt>
      <trkpt lat="47.72559" lon="3.54771">
        <ele>212.4</ele>
        <time>2022-04-03T14:15:45Z</time>
      </trkpt>
      <trkpt lat="47.72558" lon="3.54772">
        <ele>212.5</ele>
        <time>2022-04-03T14:15:46Z</time>
      </trkpt>
      <trkpt lat="47.72557" lon="3.54773">
        <ele>212.8</ele>
        <time>2022-04-03T14:15:47Z</time>
      </trkpt>
      <trkpt lat="47.72556" lon="3.54774">
        <ele>212.8</ele>
        <time>2022-04-03T14:15:48Z</time>
      </trkpt>
      <trkpt lat="47.72555" lon="3.54775">
        <ele>212.9</ele>
        <time>2022-04-03T14:15:49Z</time>
      </trkpt>
      <trkpt lat="47.72554" lon="3.54775">
        <ele>212.9</ele>
        <time>2022-04-03T14:15:50Z</time>
      </trkpt>
      <trkpt lat="47.72553" lon="3.54776">
        <ele>212.9</ele>
        <time>2022-04-03T14:15:51Z</time>
      </trkpt>
      <trkpt lat="47.72552" lon="3.54776">
        <ele>212.9</ele>
        <time>2022-04-03T14:15:52Z</time>
      </trkpt>
      <trkpt lat="47.72551" lon="3.54777">
        <ele>213.3</ele>
        <time>2022-04-03T14:15:54Z</time>
      </trkpt>
      <trkpt lat="47.7255" lon="3.54778">
        <ele>213.3</ele>
        <time>2022-04-03T14:15:55Z</time>
      </trkpt>
      <trkpt lat="47.72549" lon="3.54778">
        <ele>213.3</ele>
        <time>2022-04-03T14:15:56Z</time>
      </trkpt>
      <trkpt lat="47.72548" lon="3.54779">
        <ele>213.3</ele>
        <time>2022-04-03T14:15:57Z</time>
      </trkpt>
      <trkpt lat="47.72546" lon="3.5478">
        <ele>213.4</ele>
        <time>2022-04-03T14:15:58Z</time>
      </trkpt>
      <trkpt lat="47.72545" lon="3.54781">
        <ele>213.4</ele>
        <time>2022-04-03T14:15:59Z</time>
      </trkpt>
      <trkpt lat="47.72544" lon="3.54782">
        <ele>213.8</ele>
        <time>2022-04-03T14:16:01Z</time>
      </trkpt>
      <trkpt lat="47.72543" lon="3.54782">
        <ele>213.8</ele>
        <time>2022-04-03T14:16:02Z</time>
      </trkpt>
      <trkpt lat="47.72542" lon="3.54783">
        <ele>213.8</ele>
        <time>2022-04-03T14:16:03Z</time>
      </trkpt>
      <trkpt lat="47.72541" lon="3.54784">
        <ele>213.8</ele>
        <time>2022-04-03T14:16:04Z</time>
      </trkpt>
      <trkpt lat="47.7254" lon="3.54784">
        <ele>213.8</ele>
        <time>2022-04-03T14:16:05Z</time>
      </trkpt>
      <trkpt lat="47.72539" lon="3.54784">
        <ele>213.8</ele>
        <time>2022-04-03T14:16:06Z</time>
      </trkpt>
      <trkpt lat="47.72539" lon="3.54784">
        <ele>213.8</ele>
        <time>2022-04-03T14:16:07Z</time>
      </trkpt>
      <trkpt lat="47.72538" lon="3.54785">
        <ele>213.8</ele>
        <time>2022-04-03T14:16:08Z</time>
      </trkpt>
      <trkpt lat="47.72536" lon="3.54786">
        <ele>214.2</ele>
        <time>2022-04-03T14:16:09Z</time>
      </trkpt>
      <trkpt lat="47.72535" lon="3.54786">
        <ele>214.2</ele>
        <time>2022-04-03T14:16:10Z</time>
      </trkpt>
      <trkpt lat="47.72535" lon="3.54786">
        <ele>214.2</ele>
        <time>2022-04-03T14:16:11Z</time>
      </trkpt>
      <trkpt lat="47.72534" lon="3.54786">
        <ele>214.2</ele>
        <time>2022-04-03T14:16:12Z</time>
      </trkpt>
      <trkpt lat="47.72533" lon="3.54788">
        <ele>214.2</ele>
        <time>2022-04-03T14:16:13Z</time>
      </trkpt>
      <trkpt lat="47.72532" lon="3.54788">
        <ele>214.2</ele>
        <time>2022-04-03T14:16:15Z</time>
      </trkpt>
      <trkpt lat="47.72531" lon="3.54788">
        <ele>214.2</ele>
        <time>2022-04-03T14:16:16Z</time>
      </trkpt>
      <trkpt lat="47.72529" lon="3.54789">
        <ele>214.3</ele>
        <time>2022-04-03T14:16:17Z</time>
      </trkpt>
      <trkpt lat="47.72528" lon="3.5479">
        <ele>214.3</ele>
        <time>2022-04-03T14:16:18Z</time>
      </trkpt>
      <trkpt lat="47.72527" lon="3.5479">
        <ele>214.6</ele>
        <time>2022-04-03T14:16:19Z</time>
      </trkpt>
      <trkpt lat="47.72525" lon="3.54791">
        <ele>214.6</ele>
        <time>2022-04-03T14:16:20Z</time>
      </trkpt>
      <trkpt lat="47.72524" lon="3.54792">
        <ele>214.6</ele>
        <time>2022-04-03T14:16:22Z</time>
      </trkpt>
      <trkpt lat="47.72523" lon="3.54792">
        <ele>214.6</ele>
        <time>2022-04-03T14:16:23Z</time>
      </trkpt>
      <trkpt lat="47.72522" lon="3.54793">
        <ele>214.6</ele>
        <time>2022-04-03T14:16:24Z</time>
      </trkpt>
      <trkpt lat="47.72521" lon="3.54794">
        <ele>214.6</ele>
        <time>2022-04-03T14:16:25Z</time>
      </trkpt>
      <trkpt lat="47.72519" lon="3.54794">
        <ele>215</ele>
        <time>2022-04-03T14:16:26Z</time>
      </trkpt>
      <trkpt lat="47.72518" lon="3.54795">
        <ele>215</ele>
        <time>2022-04-03T14:16:27Z</time>
      </trkpt>
      <trkpt lat="47.72517" lon="3.54796">
        <ele>215</ele>
        <time>2022-04-03T14:16:29Z</time>
      </trkpt>
      <trkpt lat="47.72516" lon="3.54797">
        <ele>215</ele>
        <time>2022-04-03T14:16:30Z</time>
      </trkpt>
      <trkpt lat="47.72514" lon="3.54798">
        <ele>214.9</ele>
        <time>2022-04-03T14:16:31Z</time>
      </trkpt>
      <trkpt lat="47.72512" lon="3.54799">
        <ele>215.3</ele>
        <time>2022-04-03T14:16:32Z</time>
      </trkpt>
      <trkpt lat="47.72511" lon="3.54799">
        <ele>215.2</ele>
        <time>2022-04-03T14:16:33Z</time>
      </trkpt>
      <trkpt lat="47.72511" lon="3.548">
        <ele>215.2</ele>
        <time>2022-04-03T14:16:34Z</time>
      </trkpt>
      <trkpt lat="47.7251" lon="3.548">
        <ele>215.2</ele>
        <time>2022-04-03T14:16:35Z</time>
      </trkpt>
      <trkpt lat="47.72509" lon="3.54801">
        <ele>215.2</ele>
        <time>2022-04-03T14:16:36Z</time>
      </trkpt>
      <trkpt lat="47.72507" lon="3.54801">
        <ele>215.2</ele>
        <time>2022-04-03T14:16:37Z</time>
      </trkpt>
      <trkpt lat="47.72506" lon="3.54802">
        <ele>215.2</ele>
        <time>2022-04-03T14:16:39Z</time>
      </trkpt>
      <trkpt lat="47.72505" lon="3.54802">
        <ele>215.2</ele>
        <time>2022-04-03T14:16:40Z</time>
      </trkpt>
      <trkpt lat="47.72503" lon="3.54803">
        <ele>215.5</ele>
        <time>2022-04-03T14:16:41Z</time>
      </trkpt>
      <trkpt lat="47.72502" lon="3.54804">
        <ele>215.5</ele>
        <time>2022-04-03T14:16:42Z</time>
      </trkpt>
      <trkpt lat="47.725" lon="3.54805">
        <ele>215.5</ele>
        <time>2022-04-03T14:16:43Z</time>
      </trkpt>
      <trkpt lat="47.72499" lon="3.54805">
        <ele>215.5</ele>
        <time>2022-04-03T14:16:44Z</time>
      </trkpt>
      <trkpt lat="47.72498" lon="3.54806">
        <ele>215.5</ele>
        <time>2022-04-03T14:16:46Z</time>
      </trkpt>
      <trkpt lat="47.72497" lon="3.54807">
        <ele>215.9</ele>
        <time>2022-04-03T14:16:47Z</time>
      </trkpt>
      <trkpt lat="47.72495" lon="3.54808">
        <ele>215.9</ele>
        <time>2022-04-03T14:16:48Z</time>
      </trkpt>
      <trkpt lat="47.72494" lon="3.54809">
        <ele>215.9</ele>
        <time>2022-04-03T14:16:49Z</time>
      </trkpt>
      <trkpt lat="47.72492" lon="3.5481">
        <ele>215.9</ele>
        <time>2022-04-03T14:16:50Z</time>
      </trkpt>
      <trkpt lat="47.72491" lon="3.54811">
        <ele>215.9</ele>
        <time>2022-04-03T14:16:51Z</time>
      </trkpt>
      <trkpt lat="47.7249" lon="3.54811">
        <ele>216.3</ele>
        <time>2022-04-03T14:16:52Z</time>
      </trkpt>
      <trkpt lat="47.72489" lon="3.54812">
        <ele>216.3</ele>
        <time>2022-04-03T14:16:53Z</time>
      </trkpt>
      <trkpt lat="47.72488" lon="3.54813">
        <ele>216.3</ele>
        <time>2022-04-03T14:16:55Z</time>
      </trkpt>
      <trkpt lat="47.72486" lon="3.54814">
        <ele>216.3</ele>
        <time>2022-04-03T14:16:56Z</time>
      </trkpt>
      <trkpt lat="47.72485" lon="3.54815">
        <ele>216.3</ele>
        <time>2022-04-03T14:16:57Z</time>
      </trkpt>
      <trkpt lat="47.72483" lon="3.54817">
        <ele>216.7</ele>
        <time>2022-04-03T14:16:58Z</time>
      </trkpt>
      <trkpt lat="47.72482" lon="3.54817">
        <ele>216.7</ele>
        <time>2022-04-03T14:16:59Z</time>
      </trkpt>
      <trkpt lat="47.72481" lon="3.54818">
        <ele>216.7</ele>
        <time>2022-04-03T14:17:00Z</time>
      </trkpt>
      <trkpt lat="47.72479" lon="3.54819">
        <ele>216.8</ele>
        <time>2022-04-03T14:17:01Z</time>
      </trkpt>
      <trkpt lat="47.72478" lon="3.5482">
        <ele>216.8</ele>
        <time>2022-04-03T14:17:02Z</time>
      </trkpt>
      <trkpt lat="47.72477" lon="3.5482">
        <ele>217.2</ele>
        <time>2022-04-03T14:17:03Z</time>
      </trkpt>
      <trkpt lat="47.72475" lon="3.54821">
        <ele>217.2</ele>
        <time>2022-04-03T14:17:05Z</time>
      </trkpt>
      <trkpt lat="47.72474" lon="3.54822">
        <ele>217.2</ele>
        <time>2022-04-03T14:17:06Z</time>
      </trkpt>
      <trkpt lat="47.72472" lon="3.54824">
        <ele>217.2</ele>
        <time>2022-04-03T14:17:07Z</time>
      </trkpt>
      <trkpt lat="47.72471" lon="3.54824">
        <ele>217.2</ele>
        <time>2022-04-03T14:17:08Z</time>
      </trkpt>
      <trkpt lat="47.7247" lon="3.54825">
        <ele>217.6</ele>
        <time>2022-04-03T14:17:09Z</time>
      </trkpt>
      <trkpt lat="47.72469" lon="3.54825">
        <ele>217.6</ele>
        <time>2022-04-03T14:17:10Z</time>
      </trkpt>
      <trkpt lat="47.72468" lon="3.54826">
        <ele>217.6</ele>
        <time>2022-04-03T14:17:12Z</time>
      </trkpt>
      <trkpt lat="47.72466" lon="3.54827">
        <ele>217.6</ele>
        <time>2022-04-03T14:17:13Z</time>
      </trkpt>
      <trkpt lat="47.72465" lon="3.54827">
        <ele>217.6</ele>
        <time>2022-04-03T14:17:14Z</time>
      </trkpt>
      <trkpt lat="47.72463" lon="3.54828">
        <ele>217.9</ele>
        <time>2022-04-03T14:17:15Z</time>
      </trkpt>
      <trkpt lat="47.72462" lon="3.54829">
        <ele>217.9</ele>
        <time>2022-04-03T14:17:16Z</time>
      </trkpt>
      <trkpt lat="47.72461" lon="3.54829">
        <ele>217.9</ele>
        <time>2022-04-03T14:17:17Z</time>
      </trkpt>
      <trkpt lat="47.72459" lon="3.54831">
        <ele>217.9</ele>
        <time>2022-04-03T14:17:19Z</time>
      </trkpt>
      <trkpt lat="47.72458" lon="3.54831">
        <ele>217.9</ele>
        <time>2022-04-03T14:17:20Z</time>
      </trkpt>
      <trkpt lat="47.72457" lon="3.54832">
        <ele>217.8</ele>
        <time>2022-04-03T14:17:21Z</time>
      </trkpt>
      <trkpt lat="47.72456" lon="3.54832">
        <ele>217.8</ele>
        <time>2022-04-03T14:17:22Z</time>
      </trkpt>
      <trkpt lat="47.72455" lon="3.54833">
        <ele>218.1</ele>
        <time>2022-04-03T14:17:23Z</time>
      </trkpt>
      <trkpt lat="47.72454" lon="3.54834">
        <ele>218</ele>
        <time>2022-04-03T14:17:24Z</time>
      </trkpt>
      <trkpt lat="47.72452" lon="3.54835">
        <ele>218</ele>
        <time>2022-04-03T14:17:26Z</time>
      </trkpt>
      <trkpt lat="47.72452" lon="3.54835">
        <ele>218</ele>
        <time>2022-04-03T14:17:27Z</time>
      </trkpt>
      <trkpt lat="47.72451" lon="3.54836">
        <ele>218</ele>
        <time>2022-04-03T14:17:28Z</time>
      </trkpt>
      <trkpt lat="47.7245" lon="3.54836">
        <ele>218</ele>
        <time>2022-04-03T14:17:29Z</time>
      </trkpt>
      <trkpt lat="47.72449" lon="3.54837">
        <ele>218</ele>
        <time>2022-04-03T14:17:30Z</time>
      </trkpt>
      <trkpt lat="47.72448" lon="3.54838">
        <ele>218.2</ele>
        <time>2022-04-03T14:17:31Z</time>
      </trkpt>
      <trkpt lat="47.72447" lon="3.54838">
        <ele>218.2</ele>
        <time>2022-04-03T14:17:32Z</time>
      </trkpt>
      <trkpt lat="47.72446" lon="3.54839">
        <ele>218.1</ele>
        <time>2022-04-03T14:17:33Z</time>
      </trkpt>
      <trkpt lat="47.72445" lon="3.54839">
        <ele>217.9</ele>
        <time>2022-04-03T14:17:34Z</time>
      </trkpt>
      <trkpt lat="47.72444" lon="3.5484">
        <ele>217.8</ele>
        <time>2022-04-03T14:17:35Z</time>
      </trkpt>
      <trkpt lat="47.72443" lon="3.5484">
        <ele>217.7</ele>
        <time>2022-04-03T14:17:36Z</time>
      </trkpt>
      <trkpt lat="47.72442" lon="3.5484">
        <ele>217.5</ele>
        <time>2022-04-03T14:17:37Z</time>
      </trkpt>
      <trkpt lat="47.72441" lon="3.54841">
        <ele>217.4</ele>
        <time>2022-04-03T14:17:38Z</time>
      </trkpt>
      <trkpt lat="47.72441" lon="3.54841">
        <ele>217.2</ele>
        <time>2022-04-03T14:17:39Z</time>
      </trkpt>
      <trkpt lat="47.7244" lon="3.54842">
        <ele>217.3</ele>
        <time>2022-04-03T14:17:40Z</time>
      </trkpt>
      <trkpt lat="47.72439" lon="3.54842">
        <ele>217.2</ele>
        <time>2022-04-03T14:17:41Z</time>
      </trkpt>
      <trkpt lat="47.72438" lon="3.54842">
        <ele>217.1</ele>
        <time>2022-04-03T14:17:42Z</time>
      </trkpt>
      <trkpt lat="47.72437" lon="3.54843">
        <ele>216.9</ele>
        <time>2022-04-03T14:17:43Z</time>
      </trkpt>
      <trkpt lat="47.72436" lon="3.54843">
        <ele>216.8</ele>
        <time>2022-04-03T14:17:44Z</time>
      </trkpt>
      <trkpt lat="47.72435" lon="3.54844">
        <ele>216.7</ele>
        <time>2022-04-03T14:17:45Z</time>
      </trkpt>
      <trkpt lat="47.72434" lon="3.54844">
        <ele>216.5</ele>
        <time>2022-04-03T14:17:46Z</time>
      </trkpt>
      <trkpt lat="47.72433" lon="3.54844">
        <ele>216.4</ele>
        <time>2022-04-03T14:17:48Z</time>
      </trkpt>
      <trkpt lat="47.72432" lon="3.54845">
        <ele>216.3</ele>
        <time>2022-04-03T14:17:49Z</time>
      </trkpt>
      <trkpt lat="47.7243" lon="3.54846">
        <ele>216.5</ele>
        <time>2022-04-03T14:17:50Z</time>
      </trkpt>
      <trkpt lat="47.72429" lon="3.54846">
        <ele>216.4</ele>
        <time>2022-04-03T14:17:51Z</time>
      </trkpt>
      <trkpt lat="47.72428" lon="3.54847">
        <ele>216.2</ele>
        <time>2022-04-03T14:17:52Z</time>
      </trkpt>
      <trkpt lat="47.72427" lon="3.54847">
        <ele>216.1</ele>
        <time>2022-04-03T14:17:53Z</time>
      </trkpt>
      <trkpt lat="47.72426" lon="3.54848">
        <ele>216</ele>
        <time>2022-04-03T14:17:54Z</time>
      </trkpt>
      <trkpt lat="47.72425" lon="3.54849">
        <ele>215.7</ele>
        <time>2022-04-03T14:17:56Z</time>
      </trkpt>
      <trkpt lat="47.72423" lon="3.5485">
        <ele>216</ele>
        <time>2022-04-03T14:17:57Z</time>
      </trkpt>
      <trkpt lat="47.72422" lon="3.54851">
        <ele>215.8</ele>
        <time>2022-04-03T14:17:58Z</time>
      </trkpt>
      <trkpt lat="47.72421" lon="3.54852">
        <ele>215.7</ele>
        <time>2022-04-03T14:17:59Z</time>
      </trkpt>
      <trkpt lat="47.7242" lon="3.54853">
        <ele>215.5</ele>
        <time>2022-04-03T14:18:00Z</time>
      </trkpt>
      <trkpt lat="47.72419" lon="3.54854">
        <ele>215.4</ele>
        <time>2022-04-03T14:18:02Z</time>
      </trkpt>
      <trkpt lat="47.72418" lon="3.54855">
        <ele>215.7</ele>
        <time>2022-04-03T14:18:03Z</time>
      </trkpt>
      <trkpt lat="47.72416" lon="3.54856">
        <ele>215.4</ele>
        <time>2022-04-03T14:18:04Z</time>
      </trkpt>
      <trkpt lat="47.72415" lon="3.54858">
        <ele>215.3</ele>
        <time>2022-04-03T14:18:05Z</time>
      </trkpt>
      <trkpt lat="47.72414" lon="3.54858">
        <ele>215.1</ele>
        <time>2022-04-03T14:18:06Z</time>
      </trkpt>
      <trkpt lat="47.72413" lon="3.54859">
        <ele>215.6</ele>
        <time>2022-04-03T14:18:07Z</time>
      </trkpt>
      <trkpt lat="47.72411" lon="3.5486">
        <ele>215.5</ele>
        <time>2022-04-03T14:18:09Z</time>
      </trkpt>
      <trkpt lat="47.72411" lon="3.54861">
        <ele>215.3</ele>
        <time>2022-04-03T14:18:10Z</time>
      </trkpt>
      <trkpt lat="47.7241" lon="3.54861">
        <ele>215.2</ele>
        <time>2022-04-03T14:18:11Z</time>
      </trkpt>
      <trkpt lat="47.72408" lon="3.54863">
        <ele>215.2</ele>
        <time>2022-04-03T14:18:12Z</time>
      </trkpt>
      <trkpt lat="47.72407" lon="3.54864">
        <ele>215.1</ele>
        <time>2022-04-03T14:18:13Z</time>
      </trkpt>
      <trkpt lat="47.72406" lon="3.54864">
        <ele>215</ele>
        <time>2022-04-03T14:18:14Z</time>
      </trkpt>
      <trkpt lat="47.72405" lon="3.54866">
        <ele>214.8</ele>
        <time>2022-04-03T14:18:16Z</time>
      </trkpt>
      <trkpt lat="47.72404" lon="3.54866">
        <ele>214.7</ele>
        <time>2022-04-03T14:18:17Z</time>
      </trkpt>
      <trkpt lat="47.72403" lon="3.54867">
        <ele>214.6</ele>
        <time>2022-04-03T14:18:18Z</time>
      </trkpt>
      <trkpt lat="47.72402" lon="3.54868">
        <ele>214.8</ele>
        <time>2022-04-03T14:18:19Z</time>
      </trkpt>
      <trkpt lat="47.72401" lon="3.54868">
        <ele>214.7</ele>
        <time>2022-04-03T14:18:20Z</time>
      </trkpt>
      <trkpt lat="47.724" lon="3.54869">
        <ele>214.5</ele>
        <time>2022-04-03T14:18:21Z</time>
      </trkpt>
      <trkpt lat="47.72399" lon="3.5487">
        <ele>214.3</ele>
        <time>2022-04-03T14:18:23Z</time>
      </trkpt>
      <trkpt lat="47.72398" lon="3.54871">
        <ele>214.2</ele>
        <time>2022-04-03T14:18:24Z</time>
      </trkpt>
      <trkpt lat="47.72397" lon="3.54871">
        <ele>214.1</ele>
        <time>2022-04-03T14:18:25Z</time>
      </trkpt>
      <trkpt lat="47.72396" lon="3.54872">
        <ele>214.3</ele>
        <time>2022-04-03T14:18:26Z</time>
      </trkpt>
      <trkpt lat="47.72395" lon="3.54873">
        <ele>214.2</ele>
        <time>2022-04-03T14:18:27Z</time>
      </trkpt>
      <trkpt lat="47.72394" lon="3.54874">
        <ele>214.1</ele>
        <time>2022-04-03T14:18:28Z</time>
      </trkpt>
      <trkpt lat="47.72393" lon="3.54874">
        <ele>213.8</ele>
        <time>2022-04-03T14:18:29Z</time>
      </trkpt>
      <trkpt lat="47.72392" lon="3.54875">
        <ele>213.7</ele>
        <time>2022-04-03T14:18:31Z</time>
      </trkpt>
      <trkpt lat="47.72391" lon="3.54876">
        <ele>214.1</ele>
        <time>2022-04-03T14:18:32Z</time>
      </trkpt>
      <trkpt lat="47.72389" lon="3.54878">
        <ele>213.8</ele>
        <time>2022-04-03T14:18:33Z</time>
      </trkpt>
      <trkpt lat="47.72389" lon="3.54878">
        <ele>213.7</ele>
        <time>2022-04-03T14:18:34Z</time>
      </trkpt>
      <trkpt lat="47.72388" lon="3.54879">
        <ele>213.5</ele>
        <time>2022-04-03T14:18:35Z</time>
      </trkpt>
      <trkpt lat="47.72387" lon="3.5488">
        <ele>213.4</ele>
        <time>2022-04-03T14:18:36Z</time>
      </trkpt>
      <trkpt lat="47.72386" lon="3.54881">
        <ele>213.7</ele>
        <time>2022-04-03T14:18:37Z</time>
      </trkpt>
      <trkpt lat="47.72385" lon="3.54881">
        <ele>213.4</ele>
        <time>2022-04-03T14:18:39Z</time>
      </trkpt>
      <trkpt lat="47.72383" lon="3.54882">
        <ele>213.3</ele>
        <time>2022-04-03T14:18:40Z</time>
      </trkpt>
      <trkpt lat="47.72382" lon="3.54883">
        <ele>213.1</ele>
        <time>2022-04-03T14:18:41Z</time>
      </trkpt>
      <trkpt lat="47.7238" lon="3.54884">
        <ele>213.4</ele>
        <time>2022-04-03T14:18:42Z</time>
      </trkpt>
      <trkpt lat="47.72379" lon="3.54885">
        <ele>213.2</ele>
        <time>2022-04-03T14:18:43Z</time>
      </trkpt>
      <trkpt lat="47.72378" lon="3.54885">
        <ele>213.1</ele>
        <time>2022-04-03T14:18:44Z</time>
      </trkpt>
      <trkpt lat="47.72377" lon="3.54886">
        <ele>212.9</ele>
        <time>2022-04-03T14:18:45Z</time>
      </trkpt>
      <trkpt lat="47.72376" lon="3.54887">
        <ele>212.6</ele>
        <time>2022-04-03T14:18:47Z</time>
      </trkpt>
      <trkpt lat="47.72375" lon="3.54888">
        <ele>212.5</ele>
        <time>2022-04-03T14:18:48Z</time>
      </trkpt>
      <trkpt lat="47.72374" lon="3.54889">
        <ele>212.7</ele>
        <time>2022-04-03T14:18:49Z</time>
      </trkpt>
      <trkpt lat="47.72372" lon="3.54891">
        <ele>212.6</ele>
        <time>2022-04-03T14:18:50Z</time>
      </trkpt>
      <trkpt lat="47.72371" lon="3.54892">
        <ele>212.5</ele>
        <time>2022-04-03T14:18:51Z</time>
      </trkpt>
      <trkpt lat="47.72371" lon="3.54893">
        <ele>212.2</ele>
        <time>2022-04-03T14:18:52Z</time>
      </trkpt>
      <trkpt lat="47.72369" lon="3.54894">
        <ele>212.6</ele>
        <time>2022-04-03T14:18:53Z</time>
      </trkpt>
      <trkpt lat="47.72368" lon="3.54895">
        <ele>212.3</ele>
        <time>2022-04-03T14:18:55Z</time>
      </trkpt>
      <trkpt lat="47.72367" lon="3.54896">
        <ele>212.2</ele>
        <time>2022-04-03T14:18:56Z</time>
      </trkpt>
      <trkpt lat="47.72366" lon="3.54897">
        <ele>212.1</ele>
        <time>2022-04-03T14:18:57Z</time>
      </trkpt>
      <trkpt lat="47.72365" lon="3.54898">
        <ele>212.3</ele>
        <time>2022-04-03T14:18:58Z</time>
      </trkpt>
      <trkpt lat="47.72363" lon="3.549">
        <ele>212.2</ele>
        <time>2022-04-03T14:18:59Z</time>
      </trkpt>
      <trkpt lat="47.72362" lon="3.549">
        <ele>211.9</ele>
        <time>2022-04-03T14:19:00Z</time>
      </trkpt>
      <trkpt lat="47.72361" lon="3.54901">
        <ele>211.8</ele>
        <time>2022-04-03T14:19:01Z</time>
      </trkpt>
      <trkpt lat="47.7236" lon="3.54902">
        <ele>212.2</ele>
        <time>2022-04-03T14:19:02Z</time>
      </trkpt>
      <trkpt lat="47.72359" lon="3.54903">
        <ele>211.9</ele>
        <time>2022-04-03T14:19:03Z</time>
      </trkpt>
      <trkpt lat="47.72357" lon="3.54904">
        <ele>211.8</ele>
        <time>2022-04-03T14:19:05Z</time>
      </trkpt>
      <trkpt lat="47.72356" lon="3.54905">
        <ele>211.6</ele>
        <time>2022-04-03T14:19:06Z</time>
      </trkpt>
      <trkpt lat="47.72355" lon="3.54906">
        <ele>212</ele>
        <time>2022-04-03T14:19:07Z</time>
      </trkpt>
      <trkpt lat="47.72353" lon="3.54907">
        <ele>211.8</ele>
        <time>2022-04-03T14:19:08Z</time>
      </trkpt>
      <trkpt lat="47.72352" lon="3.54909">
        <ele>211.7</ele>
        <time>2022-04-03T14:19:10Z</time>
      </trkpt>
      <trkpt lat="47.72351" lon="3.5491">
        <ele>211.6</ele>
        <time>2022-04-03T14:19:11Z</time>
      </trkpt>
      <trkpt lat="47.7235" lon="3.5491">
        <ele>212</ele>
        <time>2022-04-03T14:19:12Z</time>
      </trkpt>
      <trkpt lat="47.72349" lon="3.54911">
        <ele>211.9</ele>
        <time>2022-04-03T14:19:13Z</time>
      </trkpt>
      <trkpt lat="47.72348" lon="3.54912">
        <ele>211.6</ele>
        <time>2022-04-03T14:19:14Z</time>
      </trkpt>
      <trkpt lat="47.72346" lon="3.54914">
        <ele>211.5</ele>
        <time>2022-04-03T14:19:15Z</time>
      </trkpt>
      <trkpt lat="47.72345" lon="3.54915">
        <ele>212</ele>
        <time>2022-04-03T14:19:16Z</time>
      </trkpt>
      <trkpt lat="47.72344" lon="3.54915">
        <ele>211.7</ele>
        <time>2022-04-03T14:19:17Z</time>
      </trkpt>
      <trkpt lat="47.72343" lon="3.54916">
        <ele>211.5</ele>
        <time>2022-04-03T14:19:18Z</time>
      </trkpt>
      <trkpt lat="47.72342" lon="3.54917">
        <ele>211.3</ele>
        <time>2022-04-03T14:19:19Z</time>
      </trkpt>
      <trkpt lat="47.72341" lon="3.54918">
        <ele>211.2</ele>
        <time>2022-04-03T14:19:20Z</time>
      </trkpt>
      <trkpt lat="47.72339" lon="3.54919">
        <ele>211.6</ele>
        <time>2022-04-03T14:19:21Z</time>
      </trkpt>
      <trkpt lat="47.72338" lon="3.54919">
        <ele>211.4</ele>
        <time>2022-04-03T14:19:22Z</time>
      </trkpt>
      <trkpt lat="47.72338" lon="3.5492">
        <ele>211.3</ele>
        <time>2022-04-03T14:19:23Z</time>
      </trkpt>
      <trkpt lat="47.72336" lon="3.54921">
        <ele>211.2</ele>
        <time>2022-04-03T14:19:24Z</time>
      </trkpt>
      <trkpt lat="47.72335" lon="3.54922">
        <ele>211</ele>
        <time>2022-04-03T14:19:25Z</time>
      </trkpt>
      <trkpt lat="47.72334" lon="3.54923">
        <ele>211.5</ele>
        <time>2022-04-03T14:19:27Z</time>
      </trkpt>
      <trkpt lat="47.72333" lon="3.54924">
        <ele>211.4</ele>
        <time>2022-04-03T14:19:28Z</time>
      </trkpt>
      <trkpt lat="47.72331" lon="3.54925">
        <ele>211.4</ele>
        <time>2022-04-03T14:19:29Z</time>
      </trkpt>
      <trkpt lat="47.7233" lon="3.54926">
        <ele>211.2</ele>
        <time>2022-04-03T14:19:30Z</time>
      </trkpt>
      <trkpt lat="47.72329" lon="3.54927">
        <ele>211.2</ele>
        <time>2022-04-03T14:19:31Z</time>
      </trkpt>
      <trkpt lat="47.72327" lon="3.54928">
        <ele>211.5</ele>
        <time>2022-04-03T14:19:32Z</time>
      </trkpt>
      <trkpt lat="47.72326" lon="3.54929">
        <ele>211.5</ele>
        <time>2022-04-03T14:19:33Z</time>
      </trkpt>
      <trkpt lat="47.72325" lon="3.5493">
        <ele>211.5</ele>
        <time>2022-04-03T14:19:34Z</time>
      </trkpt>
      <trkpt lat="47.72323" lon="3.54932">
        <ele>211.9</ele>
        <time>2022-04-03T14:19:35Z</time>
      </trkpt>
      <trkpt lat="47.72322" lon="3.54933">
        <ele>211.9</ele>
        <time>2022-04-03T14:19:37Z</time>
      </trkpt>
      <trkpt lat="47.72322" lon="3.54934">
        <ele>211.9</ele>
        <time>2022-04-03T14:19:38Z</time>
      </trkpt>
      <trkpt lat="47.7232" lon="3.54935">
        <ele>211.7</ele>
        <time>2022-04-03T14:19:39Z</time>
      </trkpt>
      <trkpt lat="47.72319" lon="3.54936">
        <ele>211.7</ele>
        <time>2022-04-03T14:19:40Z</time>
      </trkpt>
      <trkpt lat="47.72318" lon="3.54936">
        <ele>212</ele>
        <time>2022-04-03T14:19:41Z</time>
      </trkpt>
      <trkpt lat="47.72317" lon="3.54936">
        <ele>212</ele>
        <time>2022-04-03T14:19:42Z</time>
      </trkpt>
      <trkpt lat="47.72316" lon="3.54937">
        <ele>212</ele>
        <time>2022-04-03T14:19:43Z</time>
      </trkpt>
      <trkpt lat="47.72315" lon="3.54938">
        <ele>211.8</ele>
        <time>2022-04-03T14:19:44Z</time>
      </trkpt>
      <trkpt lat="47.72314" lon="3.54939">
        <ele>211.8</ele>
        <time>2022-04-03T14:19:45Z</time>
      </trkpt>
      <trkpt lat="47.72313" lon="3.54939">
        <ele>211.8</ele>
        <time>2022-04-03T14:19:46Z</time>
      </trkpt>
      <trkpt lat="47.72312" lon="3.5494">
        <ele>212.1</ele>
        <time>2022-04-03T14:19:47Z</time>
      </trkpt>
      <trkpt lat="47.72311" lon="3.54942">
        <ele>212.1</ele>
        <time>2022-04-03T14:19:48Z</time>
      </trkpt>
      <trkpt lat="47.7231" lon="3.54942">
        <ele>211.8</ele>
        <time>2022-04-03T14:19:50Z</time>
      </trkpt>
      <trkpt lat="47.72309" lon="3.54943">
        <ele>211.8</ele>
        <time>2022-04-03T14:19:51Z</time>
      </trkpt>
      <trkpt lat="47.72307" lon="3.54945">
        <ele>211.9</ele>
        <time>2022-04-03T14:19:52Z</time>
      </trkpt>
      <trkpt lat="47.72307" lon="3.54946">
        <ele>211.9</ele>
        <time>2022-04-03T14:19:53Z</time>
      </trkpt>
      <trkpt lat="47.72306" lon="3.54947">
        <ele>211.9</ele>
        <time>2022-04-03T14:19:54Z</time>
      </trkpt>
      <trkpt lat="47.72305" lon="3.54948">
        <ele>211.9</ele>
        <time>2022-04-03T14:19:55Z</time>
      </trkpt>
      <trkpt lat="47.72304" lon="3.54949">
        <ele>212.1</ele>
        <time>2022-04-03T14:19:56Z</time>
      </trkpt>
      <trkpt lat="47.72303" lon="3.5495">
        <ele>212.1</ele>
        <time>2022-04-03T14:19:57Z</time>
      </trkpt>
      <trkpt lat="47.72301" lon="3.54951">
        <ele>211.8</ele>
        <time>2022-04-03T14:19:59Z</time>
      </trkpt>
      <trkpt lat="47.723" lon="3.54952">
        <ele>211.8</ele>
        <time>2022-04-03T14:20:00Z</time>
      </trkpt>
      <trkpt lat="47.72299" lon="3.54953">
        <ele>211.9</ele>
        <time>2022-04-03T14:20:01Z</time>
      </trkpt>
      <trkpt lat="47.72297" lon="3.54955">
        <ele>211.9</ele>
        <time>2022-04-03T14:20:02Z</time>
      </trkpt>
      <trkpt lat="47.72296" lon="3.54956">
        <ele>211.9</ele>
        <time>2022-04-03T14:20:03Z</time>
      </trkpt>
      <trkpt lat="47.72295" lon="3.54956">
        <ele>211.7</ele>
        <time>2022-04-03T14:20:04Z</time>
      </trkpt>
      <trkpt lat="47.72294" lon="3.54958">
        <ele>212.1</ele>
        <time>2022-04-03T14:20:05Z</time>
      </trkpt>
      <trkpt lat="47.72293" lon="3.54959">
        <ele>211.8</ele>
        <time>2022-04-03T14:20:06Z</time>
      </trkpt>
      <trkpt lat="47.72291" lon="3.5496">
        <ele>211.8</ele>
        <time>2022-04-03T14:20:07Z</time>
      </trkpt>
      <trkpt lat="47.7229" lon="3.54961">
        <ele>211.8</ele>
        <time>2022-04-03T14:20:09Z</time>
      </trkpt>
      <trkpt lat="47.7229" lon="3.54962">
        <ele>212</ele>
        <time>2022-04-03T14:20:10Z</time>
      </trkpt>
      <trkpt lat="47.72288" lon="3.54963">
        <ele>212</ele>
        <time>2022-04-03T14:20:11Z</time>
      </trkpt>
      <trkpt lat="47.72287" lon="3.54964">
        <ele>212</ele>
        <time>2022-04-03T14:20:12Z</time>
      </trkpt>
      <trkpt lat="47.72285" lon="3.54965">
        <ele>211.7</ele>
        <time>2022-04-03T14:20:13Z</time>
      </trkpt>
      <trkpt lat="47.72285" lon="3.54965">
        <ele>211.7</ele>
        <time>2022-04-03T14:20:14Z</time>
      </trkpt>
      <trkpt lat="47.72284" lon="3.54966">
        <ele>211.9</ele>
        <time>2022-04-03T14:20:15Z</time>
      </trkpt>
      <trkpt lat="47.72283" lon="3.54967">
        <ele>211.9</ele>
        <time>2022-04-03T14:20:16Z</time>
      </trkpt>
      <trkpt lat="47.72282" lon="3.54967">
        <ele>211.9</ele>
        <time>2022-04-03T14:20:17Z</time>
      </trkpt>
      <trkpt lat="47.72281" lon="3.54968">
        <ele>211.6</ele>
        <time>2022-04-03T14:20:18Z</time>
      </trkpt>
      <trkpt lat="47.72279" lon="3.54969">
        <ele>211.6</ele>
        <time>2022-04-03T14:20:19Z</time>
      </trkpt>
      <trkpt lat="47.72278" lon="3.5497">
        <ele>211.3</ele>
        <time>2022-04-03T14:20:21Z</time>
      </trkpt>
      <trkpt lat="47.72277" lon="3.54971">
        <ele>211.8</ele>
        <time>2022-04-03T14:20:22Z</time>
      </trkpt>
      <trkpt lat="47.72276" lon="3.54972">
        <ele>211.8</ele>
        <time>2022-04-03T14:20:23Z</time>
      </trkpt>
      <trkpt lat="47.72274" lon="3.54972">
        <ele>211.5</ele>
        <time>2022-04-03T14:20:24Z</time>
      </trkpt>
      <trkpt lat="47.72273" lon="3.54973">
        <ele>211.5</ele>
        <time>2022-04-03T14:20:25Z</time>
      </trkpt>
      <trkpt lat="47.72272" lon="3.54974">
        <ele>211.2</ele>
        <time>2022-04-03T14:20:26Z</time>
      </trkpt>
      <trkpt lat="47.72271" lon="3.54975">
        <ele>211.7</ele>
        <time>2022-04-03T14:20:27Z</time>
      </trkpt>
      <trkpt lat="47.7227" lon="3.54976">
        <ele>211.7</ele>
        <time>2022-04-03T14:20:28Z</time>
      </trkpt>
      <trkpt lat="47.72269" lon="3.54977">
        <ele>211.4</ele>
        <time>2022-04-03T14:20:29Z</time>
      </trkpt>
      <trkpt lat="47.72268" lon="3.54979">
        <ele>211.4</ele>
        <time>2022-04-03T14:20:30Z</time>
      </trkpt>
      <trkpt lat="47.72267" lon="3.54979">
        <ele>211.5</ele>
        <time>2022-04-03T14:20:31Z</time>
      </trkpt>
      <trkpt lat="47.72266" lon="3.5498">
        <ele>211.5</ele>
        <time>2022-04-03T14:20:33Z</time>
      </trkpt>
      <trkpt lat="47.72265" lon="3.54981">
        <ele>211.5</ele>
        <time>2022-04-03T14:20:34Z</time>
      </trkpt>
      <trkpt lat="47.72265" lon="3.54982">
        <ele>211.5</ele>
        <time>2022-04-03T14:20:35Z</time>
      </trkpt>
      <trkpt lat="47.72264" lon="3.54983">
        <ele>211.6</ele>
        <time>2022-04-03T14:20:36Z</time>
      </trkpt>
      <trkpt lat="47.72263" lon="3.54984">
        <ele>211.6</ele>
        <time>2022-04-03T14:20:37Z</time>
      </trkpt>
      <trkpt lat="47.72262" lon="3.54985">
        <ele>211.6</ele>
        <time>2022-04-03T14:20:38Z</time>
      </trkpt>
      <trkpt lat="47.72261" lon="3.54986">
        <ele>211.6</ele>
        <time>2022-04-03T14:20:39Z</time>
      </trkpt>
      <trkpt lat="47.7226" lon="3.54987">
        <ele>211.3</ele>
        <time>2022-04-03T14:20:40Z</time>
      </trkpt>
      <trkpt lat="47.72259" lon="3.54988">
        <ele>211.6</ele>
        <time>2022-04-03T14:20:41Z</time>
      </trkpt>
      <trkpt lat="47.72259" lon="3.54989">
        <ele>211.6</ele>
        <time>2022-04-03T14:20:42Z</time>
      </trkpt>
      <trkpt lat="47.72258" lon="3.5499">
        <ele>211.6</ele>
        <time>2022-04-03T14:20:44Z</time>
      </trkpt>
      <trkpt lat="47.72258" lon="3.54992">
        <ele>211.6</ele>
        <time>2022-04-03T14:20:45Z</time>
      </trkpt>
      <trkpt lat="47.72257" lon="3.54993">
        <ele>211.6</ele>
        <time>2022-04-03T14:20:46Z</time>
      </trkpt>
      <trkpt lat="47.72256" lon="3.54994">
        <ele>211.6</ele>
        <time>2022-04-03T14:20:47Z</time>
      </trkpt>
      <trkpt lat="47.72256" lon="3.54996">
        <ele>211.9</ele>
        <time>2022-04-03T14:20:48Z</time>
      </trkpt>
      <trkpt lat="47.72255" lon="3.54997">
        <ele>211.9</ele>
        <time>2022-04-03T14:20:49Z</time>
      </trkpt>
      <trkpt lat="47.72254" lon="3.55">
        <ele>211.5</ele>
        <time>2022-04-03T14:20:50Z</time>
      </trkpt>
      <trkpt lat="47.72254" lon="3.55001">
        <ele>211.8</ele>
        <time>2022-04-03T14:20:51Z</time>
      </trkpt>
      <trkpt lat="47.72253" lon="3.55002">
        <ele>211.8</ele>
        <time>2022-04-03T14:20:52Z</time>
      </trkpt>
      <trkpt lat="47.72252" lon="3.55005">
        <ele>212</ele>
        <time>2022-04-03T14:20:54Z</time>
      </trkpt>
      <trkpt lat="47.72252" lon="3.55006">
        <ele>211.7</ele>
        <time>2022-04-03T14:20:55Z</time>
      </trkpt>
      <trkpt lat="47.72252" lon="3.55007">
        <ele>211.7</ele>
        <time>2022-04-03T14:20:56Z</time>
      </trkpt>
      <trkpt lat="47.72251" lon="3.5501">
        <ele>211.9</ele>
        <time>2022-04-03T14:20:57Z</time>
      </trkpt>
      <trkpt lat="47.72251" lon="3.55011">
        <ele>211.9</ele>
        <time>2022-04-03T14:20:58Z</time>
      </trkpt>
      <trkpt lat="47.7225" lon="3.55013">
        <ele>211.9</ele>
        <time>2022-04-03T14:20:59Z</time>
      </trkpt>
      <trkpt lat="47.72249" lon="3.55016">
        <ele>211.8</ele>
        <time>2022-04-03T14:21:01Z</time>
      </trkpt>
      <trkpt lat="47.72249" lon="3.55017">
        <ele>211.8</ele>
        <time>2022-04-03T14:21:02Z</time>
      </trkpt>
      <trkpt lat="47.72249" lon="3.55018">
        <ele>212</ele>
        <time>2022-04-03T14:21:03Z</time>
      </trkpt>
      <trkpt lat="47.72248" lon="3.55021">
        <ele>212</ele>
        <time>2022-04-03T14:21:04Z</time>
      </trkpt>
      <trkpt lat="47.72248" lon="3.55022">
        <ele>212.3</ele>
        <time>2022-04-03T14:21:05Z</time>
      </trkpt>
      <trkpt lat="47.72248" lon="3.55023">
        <ele>212.3</ele>
        <time>2022-04-03T14:21:06Z</time>
      </trkpt>
      <trkpt lat="47.72247" lon="3.55026">
        <ele>212.6</ele>
        <time>2022-04-03T14:21:07Z</time>
      </trkpt>
      <trkpt lat="47.72247" lon="3.55028">
        <ele>212.6</ele>
        <time>2022-04-03T14:21:09Z</time>
      </trkpt>
      <trkpt lat="47.72247" lon="3.55029">
        <ele>212.6</ele>
        <time>2022-04-03T14:21:10Z</time>
      </trkpt>
      <trkpt lat="47.72247" lon="3.55032">
        <ele>212.9</ele>
        <time>2022-04-03T14:21:11Z</time>
      </trkpt>
      <trkpt lat="47.72247" lon="3.55034">
        <ele>212.9</ele>
        <time>2022-04-03T14:21:12Z</time>
      </trkpt>
      <trkpt lat="47.72247" lon="3.55035">
        <ele>212.7</ele>
        <time>2022-04-03T14:21:13Z</time>
      </trkpt>
      <trkpt lat="47.72247" lon="3.55037">
        <ele>212.7</ele>
        <time>2022-04-03T14:21:14Z</time>
      </trkpt>
      <trkpt lat="47.72247" lon="3.55039">
        <ele>213</ele>
        <time>2022-04-03T14:21:15Z</time>
      </trkpt>
      <trkpt lat="47.72247" lon="3.55041">
        <ele>213</ele>
        <time>2022-04-03T14:21:17Z</time>
      </trkpt>
      <trkpt lat="47.72246" lon="3.55043">
        <ele>213.3</ele>
        <time>2022-04-03T14:21:18Z</time>
      </trkpt>
      <trkpt lat="47.72246" lon="3.55045">
        <ele>213.3</ele>
        <time>2022-04-03T14:21:19Z</time>
      </trkpt>
      <trkpt lat="47.72246" lon="3.55047">
        <ele>213.6</ele>
        <time>2022-04-03T14:21:20Z</time>
      </trkpt>
      <trkpt lat="47.72246" lon="3.5505">
        <ele>213.6</ele>
        <time>2022-04-03T14:21:21Z</time>
      </trkpt>
      <trkpt lat="47.72246" lon="3.55052">
        <ele>213.9</ele>
        <time>2022-04-03T14:21:22Z</time>
      </trkpt>
      <trkpt lat="47.72246" lon="3.55054">
        <ele>213.9</ele>
        <time>2022-04-03T14:21:23Z</time>
      </trkpt>
      <trkpt lat="47.72246" lon="3.55056">
        <ele>214.2</ele>
        <time>2022-04-03T14:21:24Z</time>
      </trkpt>
      <trkpt lat="47.72246" lon="3.55058">
        <ele>214.2</ele>
        <time>2022-04-03T14:21:26Z</time>
      </trkpt>
      <trkpt lat="47.72246" lon="3.55061">
        <ele>214.5</ele>
        <time>2022-04-03T14:21:27Z</time>
      </trkpt>
      <trkpt lat="47.72246" lon="3.55063">
        <ele>214.5</ele>
        <time>2022-04-03T14:21:28Z</time>
      </trkpt>
      <trkpt lat="47.72246" lon="3.55065">
        <ele>214.7</ele>
        <time>2022-04-03T14:21:29Z</time>
      </trkpt>
      <trkpt lat="47.72245" lon="3.55067">
        <ele>214.7</ele>
        <time>2022-04-03T14:21:30Z</time>
      </trkpt>
      <trkpt lat="47.72245" lon="3.55069">
        <ele>215</ele>
        <time>2022-04-03T14:21:31Z</time>
      </trkpt>
      <trkpt lat="47.72245" lon="3.5507">
        <ele>215</ele>
        <time>2022-04-03T14:21:32Z</time>
      </trkpt>
      <trkpt lat="47.72245" lon="3.55072">
        <ele>215</ele>
        <time>2022-04-03T14:21:33Z</time>
      </trkpt>
      <trkpt lat="47.72244" lon="3.55075">
        <ele>215.2</ele>
        <time>2022-04-03T14:21:35Z</time>
      </trkpt>
      <trkpt lat="47.72244" lon="3.55077">
        <ele>215.2</ele>
        <time>2022-04-03T14:21:36Z</time>
      </trkpt>
      <trkpt lat="47.72243" lon="3.5508">
        <ele>215</ele>
        <time>2022-04-03T14:21:37Z</time>
      </trkpt>
      <trkpt lat="47.72243" lon="3.55081">
        <ele>215</ele>
        <time>2022-04-03T14:21:38Z</time>
      </trkpt>
      <trkpt lat="47.72242" lon="3.55082">
        <ele>215.2</ele>
        <time>2022-04-03T14:21:39Z</time>
      </trkpt>
      <trkpt lat="47.72241" lon="3.55082">
        <ele>215.2</ele>
        <time>2022-04-03T14:21:40Z</time>
      </trkpt>
      <trkpt lat="47.7224" lon="3.55081">
        <ele>214.6</ele>
        <time>2022-04-03T14:21:41Z</time>
      </trkpt>
      <trkpt lat="47.7224" lon="3.5508">
        <ele>214.6</ele>
        <time>2022-04-03T14:21:42Z</time>
      </trkpt>
      <trkpt lat="47.72239" lon="3.5508">
        <ele>214.6</ele>
        <time>2022-04-03T14:21:43Z</time>
      </trkpt>
      <trkpt lat="47.72237" lon="3.5508">
        <ele>214.2</ele>
        <time>2022-04-03T14:21:45Z</time>
      </trkpt>
      <trkpt lat="47.72237" lon="3.55081">
        <ele>214.2</ele>
        <time>2022-04-03T14:21:46Z</time>
      </trkpt>
      <trkpt lat="47.72238" lon="3.55081">
        <ele>214.2</ele>
        <time>2022-04-03T14:21:47Z</time>
      </trkpt>
      <trkpt lat="47.72238" lon="3.55081">
        <ele>214.2</ele>
        <time>2022-04-03T14:21:48Z</time>
      </trkpt>
      <trkpt lat="47.72238" lon="3.55082">
        <ele>214.6</ele>
        <time>2022-04-03T14:21:49Z</time>
      </trkpt>
      <trkpt lat="47.72238" lon="3.55082">
        <ele>214.8</ele>
        <time>2022-04-03T14:21:50Z</time>
      </trkpt>
      <trkpt lat="47.72239" lon="3.55082">
        <ele>214.8</ele>
        <time>2022-04-03T14:21:51Z</time>
      </trkpt>
      <trkpt lat="47.72239" lon="3.55082">
        <ele>214.8</ele>
        <time>2022-04-03T14:21:52Z</time>
      </trkpt>
      <trkpt lat="47.7224" lon="3.55082">
        <ele>214.8</ele>
        <time>2022-04-03T14:21:53Z</time>
      </trkpt>
      <trkpt lat="47.7224" lon="3.55082">
        <ele>214.6</ele>
        <time>2022-04-03T14:21:55Z</time>
      </trkpt>
      <trkpt lat="47.72241" lon="3.55081">
        <ele>214.6</ele>
        <time>2022-04-03T14:21:56Z</time>
      </trkpt>
      <trkpt lat="47.72241" lon="3.55081">
        <ele>215</ele>
        <time>2022-04-03T14:21:57Z</time>
      </trkpt>
      <trkpt lat="47.72241" lon="3.55081">
        <ele>215</ele>
        <time>2022-04-03T14:21:58Z</time>
      </trkpt>
      <trkpt lat="47.72242" lon="3.5508">
        <ele>215</ele>
        <time>2022-04-03T14:22:00Z</time>
      </trkpt>
      <trkpt lat="47.72242" lon="3.55079">
        <ele>215</ele>
        <time>2022-04-03T14:22:01Z</time>
      </trkpt>
      <trkpt lat="47.72242" lon="3.55079">
        <ele>215</ele>
        <time>2022-04-03T14:22:02Z</time>
      </trkpt>
      <trkpt lat="47.72242" lon="3.55079">
        <ele>215</ele>
        <time>2022-04-03T14:22:03Z</time>
      </trkpt>
      <trkpt lat="47.72242" lon="3.5508">
        <ele>215</ele>
        <time>2022-04-03T14:22:04Z</time>
      </trkpt>
      <trkpt lat="47.72242" lon="3.5508">
        <ele>215</ele>
        <time>2022-04-03T14:22:06Z</time>
      </trkpt>
      <trkpt lat="47.72242" lon="3.5508">
        <ele>215</ele>
        <time>2022-04-03T14:22:07Z</time>
      </trkpt>
      <trkpt lat="47.72242" lon="3.5508">
        <ele>215</ele>
        <time>2022-04-03T14:22:08Z</time>
      </trkpt>
      <trkpt lat="47.72242" lon="3.5508">
        <ele>215</ele>
        <time>2022-04-03T14:22:09Z</time>
      </trkpt>
      <trkpt lat="47.72242" lon="3.5508">
        <ele>215</ele>
        <time>2022-04-03T14:22:10Z</time>
      </trkpt>
      <trkpt lat="47.72242" lon="3.5508">
        <ele>215</ele>
        <time>2022-04-03T14:22:11Z</time>
      </trkpt>
      <trkpt lat="47.72242" lon="3.5508">
        <ele>215</ele>
        <time>2022-04-03T14:22:12Z</time>
      </trkpt>
      <trkpt lat="47.72242" lon="3.5508">
        <ele>215</ele>
        <time>2022-04-03T14:22:13Z</time>
      </trkpt>
      <trkpt lat="47.72242" lon="3.55081">
        <ele>215</ele>
        <time>2022-04-03T14:22:14Z</time>
      </trkpt>
      <trkpt lat="47.72242" lon="3.55081">
        <ele>215</ele>
        <time>2022-04-03T14:22:15Z</time>
      </trkpt>
      <trkpt lat="47.72242" lon="3.55081">
        <ele>215</ele>
        <time>2022-04-03T14:22:16Z</time>
      </trkpt>
      <trkpt lat="47.72242" lon="3.55081">
        <ele>215</ele>
        <time>2022-04-03T14:22:17Z</time>
      </trkpt>
      <trkpt lat="47.72242" lon="3.55081">
        <ele>215</ele>
        <time>2022-04-03T14:22:18Z</time>
      </trkpt>
      <trkpt lat="47.72242" lon="3.55081">
        <ele>215</ele>
        <time>2022-04-03T14:22:19Z</time>
      </trkpt>
      <trkpt lat="47.72242" lon="3.55081">
        <ele>215</ele>
        <time>2022-04-03T14:22:20Z</time>
      </trkpt>
      <trkpt lat="47.72242" lon="3.55081">
        <ele>215</ele>
        <time>2022-04-03T14:22:21Z</time>
      </trkpt>
      <trkpt lat="47.72241" lon="3.55081">
        <ele>215</ele>
        <time>2022-04-03T14:22:22Z</time>
      </trkpt>
      <trkpt lat="47.72241" lon="3.55081">
        <ele>215</ele>
        <time>2022-04-03T14:22:23Z</time>
      </trkpt>
      <trkpt lat="47.72241" lon="3.55082">
        <ele>215</ele>
        <time>2022-04-03T14:22:24Z</time>
      </trkpt>
      <trkpt lat="47.72241" lon="3.55082">
        <ele>215.2</ele>
        <time>2022-04-03T14:22:25Z</time>
      </trkpt>
      <trkpt lat="47.72241" lon="3.55082">
        <ele>215.2</ele>
        <time>2022-04-03T14:22:26Z</time>
      </trkpt>
      <trkpt lat="47.72241" lon="3.55082">
        <ele>215.2</ele>
        <time>2022-04-03T14:22:27Z</time>
      </trkpt>
      <trkpt lat="47.72241" lon="3.55082">
        <ele>215.2</ele>
        <time>2022-04-03T14:22:28Z</time>
      </trkpt>
      <trkpt lat="47.72241" lon="3.55082">
        <ele>215.2</ele>
        <time>2022-04-03T14:22:29Z</time>
      </trkpt>
      <trkpt lat="47.72241" lon="3.55082">
        <ele>215.2</ele>
        <time>2022-04-03T14:22:30Z</time>
      </trkpt>
      <trkpt lat="47.72241" lon="3.55082">
        <ele>215.2</ele>
        <time>2022-04-03T14:22:31Z</time>
      </trkpt>
      <trkpt lat="47.72241" lon="3.55082">
        <ele>215.2</ele>
        <time>2022-04-03T14:22:32Z</time>
      </trkpt>
      <trkpt lat="47.72241" lon="3.55082">
        <ele>215.2</ele>
        <time>2022-04-03T14:22:33Z</time>
      </trkpt>
      <trkpt lat="47.72241" lon="3.55083">
        <ele>215.2</ele>
        <time>2022-04-03T14:22:34Z</time>
      </trkpt>
      <trkpt lat="47.72241" lon="3.55083">
        <ele>214.8</ele>
        <time>2022-04-03T14:22:35Z</time>
      </trkpt>
      <trkpt lat="47.72241" lon="3.55083">
        <ele>214.8</ele>
        <time>2022-04-03T14:22:36Z</time>
      </trkpt>
      <trkpt lat="47.72241" lon="3.55083">
        <ele>214.8</ele>
        <time>2022-04-03T14:22:37Z</time>
      </trkpt>
      <trkpt lat="47.72241" lon="3.55083">
        <ele>214.8</ele>
        <time>2022-04-03T14:22:38Z</time>
      </trkpt>
      <trkpt lat="47.72241" lon="3.55083">
        <ele>214.8</ele>
        <time>2022-04-03T14:22:39Z</time>
      </trkpt>
      <trkpt lat="47.72241" lon="3.55083">
        <ele>214.8</ele>
        <time>2022-04-03T14:22:40Z</time>
      </trkpt>
      <trkpt lat="47.72241" lon="3.55083">
        <ele>214.8</ele>
        <time>2022-04-03T14:22:41Z</time>
      </trkpt>
      <trkpt lat="47.72241" lon="3.55083">
        <ele>214.8</ele>
        <time>2022-04-03T14:22:42Z</time>
      </trkpt>
      <trkpt lat="47.72241" lon="3.55084">
        <ele>214.8</ele>
        <time>2022-04-03T14:22:43Z</time>
      </trkpt>
      <trkpt lat="47.7224" lon="3.55084">
        <ele>214.8</ele>
        <time>2022-04-03T14:22:44Z</time>
      </trkpt>
      <trkpt lat="47.7224" lon="3.55084">
        <ele>214.8</ele>
        <time>2022-04-03T14:22:45Z</time>
      </trkpt>
      <trkpt lat="47.7224" lon="3.55084">
        <ele>214.8</ele>
        <time>2022-04-03T14:22:46Z</time>
      </trkpt>
      <trkpt lat="47.7224" lon="3.55084">
        <ele>214.8</ele>
        <time>2022-04-03T14:22:47Z</time>
      </trkpt>
      <trkpt lat="47.7224" lon="3.55084">
        <ele>214.8</ele>
        <time>2022-04-03T14:22:48Z</time>
      </trkpt>
      <trkpt lat="47.7224" lon="3.55084">
        <ele>214.8</ele>
        <time>2022-04-03T14:22:49Z</time>
      </trkpt>
      <trkpt lat="47.7224" lon="3.55084">
        <ele>214.8</ele>
        <time>2022-04-03T14:22:50Z</time>
      </trkpt>
      <trkpt lat="47.7224" lon="3.55084">
        <ele>214.8</ele>
        <time>2022-04-03T14:22:51Z</time>
      </trkpt>
      <trkpt lat="47.7224" lon="3.55084">
        <ele>214.8</ele>
        <time>2022-04-03T14:22:52Z</time>
      </trkpt>
      <trkpt lat="47.7224" lon="3.55085">
        <ele>214.8</ele>
        <time>2022-04-03T14:22:54Z</time>
      </trkpt>
      <trkpt lat="47.7224" lon="3.55085">
        <ele>214.8</ele>
        <time>2022-04-03T14:22:55Z</time>
      </trkpt>
      <trkpt lat="47.7224" lon="3.55085">
        <ele>214.8</ele>
        <time>2022-04-03T14:22:56Z</time>
      </trkpt>
      <trkpt lat="47.72239" lon="3.55087">
        <ele>215</ele>
        <time>2022-04-03T14:22:57Z</time>
      </trkpt>
      <trkpt lat="47.72239" lon="3.55089">
        <ele>215</ele>
        <time>2022-04-03T14:22:58Z</time>
      </trkpt>
      <trkpt lat="47.72238" lon="3.55092">
        <ele>214.8</ele>
        <time>2022-04-03T14:22:59Z</time>
      </trkpt>
      <trkpt lat="47.72237" lon="3.55094">
        <ele>214.8</ele>
        <time>2022-04-03T14:23:00Z</time>
      </trkpt>
      <trkpt lat="47.72237" lon="3.55096">
        <ele>214.9</ele>
        <time>2022-04-03T14:23:02Z</time>
      </trkpt>
      <trkpt lat="47.72236" lon="3.55098">
        <ele>214.9</ele>
        <time>2022-04-03T14:23:03Z</time>
      </trkpt>
      <trkpt lat="47.72236" lon="3.551">
        <ele>215.1</ele>
        <time>2022-04-03T14:23:04Z</time>
      </trkpt>
      <trkpt lat="47.72235" lon="3.55103">
        <ele>215.1</ele>
        <time>2022-04-03T14:23:05Z</time>
      </trkpt>
      <trkpt lat="47.72235" lon="3.55105">
        <ele>214.9</ele>
        <time>2022-04-03T14:23:06Z</time>
      </trkpt>
      <trkpt lat="47.72234" lon="3.55106">
        <ele>214.9</ele>
        <time>2022-04-03T14:23:07Z</time>
      </trkpt>
      <trkpt lat="47.72234" lon="3.55109">
        <ele>215</ele>
        <time>2022-04-03T14:23:08Z</time>
      </trkpt>
      <trkpt lat="47.72234" lon="3.5511">
        <ele>215</ele>
        <time>2022-04-03T14:23:09Z</time>
      </trkpt>
      <trkpt lat="47.72233" lon="3.55113">
        <ele>215.2</ele>
        <time>2022-04-03T14:23:11Z</time>
      </trkpt>
      <trkpt lat="47.72232" lon="3.55114">
        <ele>214.8</ele>
        <time>2022-04-03T14:23:12Z</time>
      </trkpt>
      <trkpt lat="47.72231" lon="3.55116">
        <ele>214.8</ele>
        <time>2022-04-03T14:23:14Z</time>
      </trkpt>
      <trkpt lat="47.72231" lon="3.55117">
        <ele>215</ele>
        <time>2022-04-03T14:23:15Z</time>
      </trkpt>
      <trkpt lat="47.7223" lon="3.55121">
        <ele>215.2</ele>
        <time>2022-04-03T14:23:16Z</time>
      </trkpt>
      <trkpt lat="47.7223" lon="3.55122">
        <ele>215.2</ele>
        <time>2022-04-03T14:23:17Z</time>
      </trkpt>
      <trkpt lat="47.7223" lon="3.55123">
        <ele>215.2</ele>
        <time>2022-04-03T14:23:18Z</time>
      </trkpt>
      <trkpt lat="47.72229" lon="3.55126">
        <ele>215</ele>
        <time>2022-04-03T14:23:19Z</time>
      </trkpt>
      <trkpt lat="47.72229" lon="3.55127">
        <ele>215</ele>
        <time>2022-04-03T14:23:20Z</time>
      </trkpt>
      <trkpt lat="47.72228" lon="3.55128">
        <ele>215</ele>
        <time>2022-04-03T14:23:21Z</time>
      </trkpt>
      <trkpt lat="47.72227" lon="3.55131">
        <ele>215.2</ele>
        <time>2022-04-03T14:23:23Z</time>
      </trkpt>
      <trkpt lat="47.72227" lon="3.55132">
        <ele>215.2</ele>
        <time>2022-04-03T14:23:24Z</time>
      </trkpt>
      <trkpt lat="47.72227" lon="3.55133">
        <ele>215.4</ele>
        <time>2022-04-03T14:23:25Z</time>
      </trkpt>
      <trkpt lat="47.72226" lon="3.55136">
        <ele>215</ele>
        <time>2022-04-03T14:23:26Z</time>
      </trkpt>
      <trkpt lat="47.72226" lon="3.55138">
        <ele>215.2</ele>
        <time>2022-04-03T14:23:27Z</time>
      </trkpt>
      <trkpt lat="47.72225" lon="3.55139">
        <ele>215.2</ele>
        <time>2022-04-03T14:23:28Z</time>
      </trkpt>
      <trkpt lat="47.72225" lon="3.55142">
        <ele>215.2</ele>
        <time>2022-04-03T14:23:30Z</time>
      </trkpt>
      <trkpt lat="47.72224" lon="3.55144">
        <ele>215.4</ele>
        <time>2022-04-03T14:23:31Z</time>
      </trkpt>
      <trkpt lat="47.72224" lon="3.55146">
        <ele>215.4</ele>
        <time>2022-04-03T14:23:32Z</time>
      </trkpt>
      <trkpt lat="47.72223" lon="3.55148">
        <ele>215.2</ele>
        <time>2022-04-03T14:23:33Z</time>
      </trkpt>
      <trkpt lat="47.72223" lon="3.5515">
        <ele>215.2</ele>
        <time>2022-04-03T14:23:34Z</time>
      </trkpt>
      <trkpt lat="47.72222" lon="3.55153">
        <ele>215.5</ele>
        <time>2022-04-03T14:23:35Z</time>
      </trkpt>
      <trkpt lat="47.72222" lon="3.55154">
        <ele>215.5</ele>
        <time>2022-04-03T14:23:36Z</time>
      </trkpt>
      <trkpt lat="47.72221" lon="3.55155">
        <ele>215.7</ele>
        <time>2022-04-03T14:23:37Z</time>
      </trkpt>
      <trkpt lat="47.7222" lon="3.55158">
        <ele>215.3</ele>
        <time>2022-04-03T14:23:38Z</time>
      </trkpt>
      <trkpt lat="47.7222" lon="3.55159">
        <ele>215.3</ele>
        <time>2022-04-03T14:23:39Z</time>
      </trkpt>
      <trkpt lat="47.72219" lon="3.5516">
        <ele>215.6</ele>
        <time>2022-04-03T14:23:40Z</time>
      </trkpt>
      <trkpt lat="47.72218" lon="3.55161">
        <ele>215.6</ele>
        <time>2022-04-03T14:23:41Z</time>
      </trkpt>
      <trkpt lat="47.72218" lon="3.55163">
        <ele>215.6</ele>
        <time>2022-04-03T14:23:42Z</time>
      </trkpt>
      <trkpt lat="47.72218" lon="3.55164">
        <ele>215.5</ele>
        <time>2022-04-03T14:23:43Z</time>
      </trkpt>
      <trkpt lat="47.72217" lon="3.55166">
        <ele>215.5</ele>
        <time>2022-04-03T14:23:44Z</time>
      </trkpt>
      <trkpt lat="47.72217" lon="3.55168">
        <ele>215.7</ele>
        <time>2022-04-03T14:23:45Z</time>
      </trkpt>
      <trkpt lat="47.72217" lon="3.5517">
        <ele>215.7</ele>
        <time>2022-04-03T14:23:46Z</time>
      </trkpt>
      <trkpt lat="47.72216" lon="3.55172">
        <ele>215.9</ele>
        <time>2022-04-03T14:23:47Z</time>
      </trkpt>
      <trkpt lat="47.72216" lon="3.55174">
        <ele>215.9</ele>
        <time>2022-04-03T14:23:49Z</time>
      </trkpt>
      <trkpt lat="47.72215" lon="3.55176">
        <ele>216</ele>
        <time>2022-04-03T14:23:50Z</time>
      </trkpt>
      <trkpt lat="47.72215" lon="3.55178">
        <ele>215.7</ele>
        <time>2022-04-03T14:23:51Z</time>
      </trkpt>
      <trkpt lat="47.72214" lon="3.55181">
        <ele>215.9</ele>
        <time>2022-04-03T14:23:52Z</time>
      </trkpt>
      <trkpt lat="47.72214" lon="3.55183">
        <ele>215.9</ele>
        <time>2022-04-03T14:23:53Z</time>
      </trkpt>
      <trkpt lat="47.72214" lon="3.55185">
        <ele>216.1</ele>
        <time>2022-04-03T14:23:54Z</time>
      </trkpt>
      <trkpt lat="47.72213" lon="3.55187">
        <ele>216.1</ele>
        <time>2022-04-03T14:23:55Z</time>
      </trkpt>
      <trkpt lat="47.72213" lon="3.55189">
        <ele>216.2</ele>
        <time>2022-04-03T14:23:56Z</time>
      </trkpt>
      <trkpt lat="47.72213" lon="3.55191">
        <ele>216.2</ele>
        <time>2022-04-03T14:23:57Z</time>
      </trkpt>
      <trkpt lat="47.72213" lon="3.55193">
        <ele>216.4</ele>
        <time>2022-04-03T14:23:59Z</time>
      </trkpt>
      <trkpt lat="47.72213" lon="3.55195">
        <ele>216.4</ele>
        <time>2022-04-03T14:24:00Z</time>
      </trkpt>
      <trkpt lat="47.72212" lon="3.55198">
        <ele>216.5</ele>
        <time>2022-04-03T14:24:01Z</time>
      </trkpt>
      <trkpt lat="47.72212" lon="3.55201">
        <ele>216.2</ele>
        <time>2022-04-03T14:24:02Z</time>
      </trkpt>
      <trkpt lat="47.72212" lon="3.55202">
        <ele>216.4</ele>
        <time>2022-04-03T14:24:03Z</time>
      </trkpt>
      <trkpt lat="47.72211" lon="3.55205">
        <ele>216.4</ele>
        <time>2022-04-03T14:24:04Z</time>
      </trkpt>
      <trkpt lat="47.72211" lon="3.55207">
        <ele>216.5</ele>
        <time>2022-04-03T14:24:05Z</time>
      </trkpt>
      <trkpt lat="47.72212" lon="3.55209">
        <ele>216.5</ele>
        <time>2022-04-03T14:24:06Z</time>
      </trkpt>
      <trkpt lat="47.72212" lon="3.5521">
        <ele>216.7</ele>
        <time>2022-04-03T14:24:08Z</time>
      </trkpt>
      <trkpt lat="47.72212" lon="3.55213">
        <ele>217</ele>
        <time>2022-04-03T14:24:09Z</time>
      </trkpt>
      <trkpt lat="47.72213" lon="3.55215">
        <ele>217.2</ele>
        <time>2022-04-03T14:24:10Z</time>
      </trkpt>
      <trkpt lat="47.72213" lon="3.55217">
        <ele>217.2</ele>
        <time>2022-04-03T14:24:11Z</time>
      </trkpt>
      <trkpt lat="47.72213" lon="3.55219">
        <ele>217.2</ele>
        <time>2022-04-03T14:24:12Z</time>
      </trkpt>
      <trkpt lat="47.72214" lon="3.55222">
        <ele>217.4</ele>
        <time>2022-04-03T14:24:13Z</time>
      </trkpt>
      <trkpt lat="47.72214" lon="3.55223">
        <ele>217.4</ele>
        <time>2022-04-03T14:24:14Z</time>
      </trkpt>
      <trkpt lat="47.72214" lon="3.55224">
        <ele>217.5</ele>
        <time>2022-04-03T14:24:15Z</time>
      </trkpt>
      <trkpt lat="47.72214" lon="3.55226">
        <ele>217.5</ele>
        <time>2022-04-03T14:24:16Z</time>
      </trkpt>
      <trkpt lat="47.72214" lon="3.55227">
        <ele>217.5</ele>
        <time>2022-04-03T14:24:17Z</time>
      </trkpt>
      <trkpt lat="47.72214" lon="3.55229">
        <ele>217.7</ele>
        <time>2022-04-03T14:24:18Z</time>
      </trkpt>
      <trkpt lat="47.72214" lon="3.55231">
        <ele>217.7</ele>
        <time>2022-04-03T14:24:19Z</time>
      </trkpt>
      <trkpt lat="47.72215" lon="3.55233">
        <ele>217.7</ele>
        <time>2022-04-03T14:24:20Z</time>
      </trkpt>
      <trkpt lat="47.72215" lon="3.55235">
        <ele>217.7</ele>
        <time>2022-04-03T14:24:22Z</time>
      </trkpt>
      <trkpt lat="47.72215" lon="3.55237">
        <ele>217.8</ele>
        <time>2022-04-03T14:24:23Z</time>
      </trkpt>
      <trkpt lat="47.72214" lon="3.55239">
        <ele>217.8</ele>
        <time>2022-04-03T14:24:24Z</time>
      </trkpt>
      <trkpt lat="47.72214" lon="3.5524">
        <ele>217.8</ele>
        <time>2022-04-03T14:24:25Z</time>
      </trkpt>
      <trkpt lat="47.72214" lon="3.55242">
        <ele>217.9</ele>
        <time>2022-04-03T14:24:26Z</time>
      </trkpt>
      <trkpt lat="47.72213" lon="3.55243">
        <ele>217.9</ele>
        <time>2022-04-03T14:24:27Z</time>
      </trkpt>
      <trkpt lat="47.72212" lon="3.55243">
        <ele>217.9</ele>
        <time>2022-04-03T14:24:28Z</time>
      </trkpt>
      <trkpt lat="47.72211" lon="3.55243">
        <ele>217.6</ele>
        <time>2022-04-03T14:24:29Z</time>
      </trkpt>
      <trkpt lat="47.7221" lon="3.55243">
        <ele>217.6</ele>
        <time>2022-04-03T14:24:30Z</time>
      </trkpt>
      <trkpt lat="47.7221" lon="3.55242">
        <ele>217.6</ele>
        <time>2022-04-03T14:24:31Z</time>
      </trkpt>
      <trkpt lat="47.7221" lon="3.55241">
        <ele>217.6</ele>
        <time>2022-04-03T14:24:32Z</time>
      </trkpt>
      <trkpt lat="47.7221" lon="3.55241">
        <ele>217.6</ele>
        <time>2022-04-03T14:24:33Z</time>
      </trkpt>
      <trkpt lat="47.7221" lon="3.55241">
        <ele>217.6</ele>
        <time>2022-04-03T14:24:34Z</time>
      </trkpt>
      <trkpt lat="47.7221" lon="3.55241">
        <ele>217.6</ele>
        <time>2022-04-03T14:24:35Z</time>
      </trkpt>
      <trkpt lat="47.72211" lon="3.55241">
        <ele>217.6</ele>
        <time>2022-04-03T14:24:36Z</time>
      </trkpt>
      <trkpt lat="47.72211" lon="3.55242">
        <ele>217.6</ele>
        <time>2022-04-03T14:24:37Z</time>
      </trkpt>
      <trkpt lat="47.72211" lon="3.55242">
        <ele>217.6</ele>
        <time>2022-04-03T14:24:39Z</time>
      </trkpt>
      <trkpt lat="47.72212" lon="3.55242">
        <ele>217.6</ele>
        <time>2022-04-03T14:24:40Z</time>
      </trkpt>
      <trkpt lat="47.72212" lon="3.55242">
        <ele>217.6</ele>
        <time>2022-04-03T14:24:41Z</time>
      </trkpt>
      <trkpt lat="47.72212" lon="3.55242">
        <ele>217.9</ele>
        <time>2022-04-03T14:24:42Z</time>
      </trkpt>
      <trkpt lat="47.72212" lon="3.55242">
        <ele>217.9</ele>
        <time>2022-04-03T14:24:43Z</time>
      </trkpt>
      <trkpt lat="47.72213" lon="3.55243">
        <ele>217.9</ele>
        <time>2022-04-03T14:24:44Z</time>
      </trkpt>
      <trkpt lat="47.72214" lon="3.55245">
        <ele>217.9</ele>
        <time>2022-04-03T14:24:46Z</time>
      </trkpt>
      <trkpt lat="47.72215" lon="3.55247">
        <ele>218.1</ele>
        <time>2022-04-03T14:24:47Z</time>
      </trkpt>
      <trkpt lat="47.72216" lon="3.55249">
        <ele>218.1</ele>
        <time>2022-04-03T14:24:48Z</time>
      </trkpt>
      <trkpt lat="47.72217" lon="3.55251">
        <ele>218.2</ele>
        <time>2022-04-03T14:24:49Z</time>
      </trkpt>
      <trkpt lat="47.72218" lon="3.55252">
        <ele>218.5</ele>
        <time>2022-04-03T14:24:50Z</time>
      </trkpt>
      <trkpt lat="47.72219" lon="3.55254">
        <ele>218.5</ele>
        <time>2022-04-03T14:24:51Z</time>
      </trkpt>
      <trkpt lat="47.72219" lon="3.55256">
        <ele>218.5</ele>
        <time>2022-04-03T14:24:52Z</time>
      </trkpt>
      <trkpt lat="47.7222" lon="3.55259">
        <ele>218.6</ele>
        <time>2022-04-03T14:24:53Z</time>
      </trkpt>
      <trkpt lat="47.7222" lon="3.55261">
        <ele>218.6</ele>
        <time>2022-04-03T14:24:54Z</time>
      </trkpt>
      <trkpt lat="47.7222" lon="3.55262">
        <ele>218.6</ele>
        <time>2022-04-03T14:24:55Z</time>
      </trkpt>
      <trkpt lat="47.7222" lon="3.55264">
        <ele>218.6</ele>
        <time>2022-04-03T14:24:56Z</time>
      </trkpt>
      <trkpt lat="47.72221" lon="3.55267">
        <ele>218.7</ele>
        <time>2022-04-03T14:24:57Z</time>
      </trkpt>
      <trkpt lat="47.72221" lon="3.55269">
        <ele>219</ele>
        <time>2022-04-03T14:24:58Z</time>
      </trkpt>
      <trkpt lat="47.72221" lon="3.55271">
        <ele>219.1</ele>
        <time>2022-04-03T14:24:59Z</time>
      </trkpt>
      <trkpt lat="47.72221" lon="3.55274">
        <ele>219.1</ele>
        <time>2022-04-03T14:25:00Z</time>
      </trkpt>
      <trkpt lat="47.72222" lon="3.55276">
        <ele>219.2</ele>
        <time>2022-04-03T14:25:02Z</time>
      </trkpt>
      <trkpt lat="47.72222" lon="3.55278">
        <ele>219.2</ele>
        <time>2022-04-03T14:25:03Z</time>
      </trkpt>
      <trkpt lat="47.72222" lon="3.5528">
        <ele>219.3</ele>
        <time>2022-04-03T14:25:04Z</time>
      </trkpt>
      <trkpt lat="47.72222" lon="3.55285">
        <ele>219.4</ele>
        <time>2022-04-03T14:25:05Z</time>
      </trkpt>
      <trkpt lat="47.72222" lon="3.55286">
        <ele>219.4</ele>
        <time>2022-04-03T14:25:06Z</time>
      </trkpt>
      <trkpt lat="47.72222" lon="3.55288">
        <ele>219.5</ele>
        <time>2022-04-03T14:25:07Z</time>
      </trkpt>
      <trkpt lat="47.72223" lon="3.5529">
        <ele>219.5</ele>
        <time>2022-04-03T14:25:08Z</time>
      </trkpt>
      <trkpt lat="47.72223" lon="3.55292">
        <ele>219.5</ele>
        <time>2022-04-03T14:25:09Z</time>
      </trkpt>
      <trkpt lat="47.72224" lon="3.55294">
        <ele>219.8</ele>
        <time>2022-04-03T14:25:11Z</time>
      </trkpt>
      <trkpt lat="47.72224" lon="3.55296">
        <ele>219.8</ele>
        <time>2022-04-03T14:25:12Z</time>
      </trkpt>
      <trkpt lat="47.72224" lon="3.55298">
        <ele>219.8</ele>
        <time>2022-04-03T14:25:13Z</time>
      </trkpt>
      <trkpt lat="47.72225" lon="3.55299">
        <ele>219.8</ele>
        <time>2022-04-03T14:25:14Z</time>
      </trkpt>
      <trkpt lat="47.72225" lon="3.55302">
        <ele>219.8</ele>
        <time>2022-04-03T14:25:15Z</time>
      </trkpt>
      <trkpt lat="47.72225" lon="3.55304">
        <ele>219.8</ele>
        <time>2022-04-03T14:25:16Z</time>
      </trkpt>
      <trkpt lat="47.72226" lon="3.55306">
        <ele>219.8</ele>
        <time>2022-04-03T14:25:17Z</time>
      </trkpt>
      <trkpt lat="47.72226" lon="3.55308">
        <ele>219.8</ele>
        <time>2022-04-03T14:25:18Z</time>
      </trkpt>
      <trkpt lat="47.72226" lon="3.5531">
        <ele>219.8</ele>
        <time>2022-04-03T14:25:19Z</time>
      </trkpt>
      <trkpt lat="47.72226" lon="3.55312">
        <ele>219.8</ele>
        <time>2022-04-03T14:25:21Z</time>
      </trkpt>
      <trkpt lat="47.72227" lon="3.55314">
        <ele>220.1</ele>
        <time>2022-04-03T14:25:22Z</time>
      </trkpt>
      <trkpt lat="47.72227" lon="3.55319">
        <ele>220.1</ele>
        <time>2022-04-03T14:25:23Z</time>
      </trkpt>
      <trkpt lat="47.72227" lon="3.5532">
        <ele>220.1</ele>
        <time>2022-04-03T14:25:24Z</time>
      </trkpt>
      <trkpt lat="47.72227" lon="3.55323">
        <ele>220.2</ele>
        <time>2022-04-03T14:25:25Z</time>
      </trkpt>
      <trkpt lat="47.72227" lon="3.55326">
        <ele>220.2</ele>
        <time>2022-04-03T14:25:26Z</time>
      </trkpt>
      <trkpt lat="47.72228" lon="3.5533">
        <ele>220.3</ele>
        <time>2022-04-03T14:25:28Z</time>
      </trkpt>
      <trkpt lat="47.72228" lon="3.55331">
        <ele>220.3</ele>
        <time>2022-04-03T14:25:29Z</time>
      </trkpt>
      <trkpt lat="47.72229" lon="3.55334">
        <ele>220.3</ele>
        <time>2022-04-03T14:25:30Z</time>
      </trkpt>
      <trkpt lat="47.72229" lon="3.55336">
        <ele>220.4</ele>
        <time>2022-04-03T14:25:31Z</time>
      </trkpt>
      <trkpt lat="47.7223" lon="3.5534">
        <ele>220.7</ele>
        <time>2022-04-03T14:25:32Z</time>
      </trkpt>
      <trkpt lat="47.7223" lon="3.55341">
        <ele>220.7</ele>
        <time>2022-04-03T14:25:33Z</time>
      </trkpt>
      <trkpt lat="47.72231" lon="3.55344">
        <ele>220.8</ele>
        <time>2022-04-03T14:25:35Z</time>
      </trkpt>
      <trkpt lat="47.72231" lon="3.55346">
        <ele>220.8</ele>
        <time>2022-04-03T14:25:36Z</time>
      </trkpt>
      <trkpt lat="47.72232" lon="3.5535">
        <ele>220.9</ele>
        <time>2022-04-03T14:25:37Z</time>
      </trkpt>
      <trkpt lat="47.72232" lon="3.55351">
        <ele>220.9</ele>
        <time>2022-04-03T14:25:38Z</time>
      </trkpt>
      <trkpt lat="47.72232" lon="3.55354">
        <ele>221</ele>
        <time>2022-04-03T14:25:39Z</time>
      </trkpt>
      <trkpt lat="47.72232" lon="3.55356">
        <ele>221</ele>
        <time>2022-04-03T14:25:40Z</time>
      </trkpt>
      <trkpt lat="47.72232" lon="3.55358">
        <ele>221.2</ele>
        <time>2022-04-03T14:25:41Z</time>
      </trkpt>
      <trkpt lat="47.72232" lon="3.5536">
        <ele>221.2</ele>
        <time>2022-04-03T14:25:43Z</time>
      </trkpt>
      <trkpt lat="47.72233" lon="3.55362">
        <ele>221.3</ele>
        <time>2022-04-03T14:25:44Z</time>
      </trkpt>
      <trkpt lat="47.72233" lon="3.55365">
        <ele>221.3</ele>
        <time>2022-04-03T14:25:45Z</time>
      </trkpt>
      <trkpt lat="47.72233" lon="3.55367">
        <ele>221.3</ele>
        <time>2022-04-03T14:25:46Z</time>
      </trkpt>
      <trkpt lat="47.72233" lon="3.55369">
        <ele>221.3</ele>
        <time>2022-04-03T14:25:47Z</time>
      </trkpt>
      <trkpt lat="47.72233" lon="3.55372">
        <ele>221.3</ele>
        <time>2022-04-03T14:25:48Z</time>
      </trkpt>
      <trkpt lat="47.72234" lon="3.55373">
        <ele>221.3</ele>
        <time>2022-04-03T14:25:49Z</time>
      </trkpt>
      <trkpt lat="47.72234" lon="3.55374">
        <ele>221.3</ele>
        <time>2022-04-03T14:25:50Z</time>
      </trkpt>
      <trkpt lat="47.72234" lon="3.55377">
        <ele>221.3</ele>
        <time>2022-04-03T14:25:51Z</time>
      </trkpt>
      <trkpt lat="47.72234" lon="3.55378">
        <ele>221.3</ele>
        <time>2022-04-03T14:25:53Z</time>
      </trkpt>
      <trkpt lat="47.72234" lon="3.55379">
        <ele>221.3</ele>
        <time>2022-04-03T14:25:54Z</time>
      </trkpt>
      <trkpt lat="47.72234" lon="3.5538">
        <ele>221.3</ele>
        <time>2022-04-03T14:25:55Z</time>
      </trkpt>
      <trkpt lat="47.72235" lon="3.55382">
        <ele>221.3</ele>
        <time>2022-04-03T14:25:56Z</time>
      </trkpt>
      <trkpt lat="47.72235" lon="3.55384">
        <ele>221.3</ele>
        <time>2022-04-03T14:25:57Z</time>
      </trkpt>
      <trkpt lat="47.72235" lon="3.55385">
        <ele>221.5</ele>
        <time>2022-04-03T14:25:58Z</time>
      </trkpt>
      <trkpt lat="47.72235" lon="3.55387">
        <ele>221.5</ele>
        <time>2022-04-03T14:25:59Z</time>
      </trkpt>
      <trkpt lat="47.72235" lon="3.55389">
        <ele>221.5</ele>
        <time>2022-04-03T14:26:01Z</time>
      </trkpt>
      <trkpt lat="47.72235" lon="3.55392">
        <ele>221.5</ele>
        <time>2022-04-03T14:26:02Z</time>
      </trkpt>
      <trkpt lat="47.72235" lon="3.55394">
        <ele>221.5</ele>
        <time>2022-04-03T14:26:03Z</time>
      </trkpt>
      <trkpt lat="47.72235" lon="3.55396">
        <ele>221.5</ele>
        <time>2022-04-03T14:26:04Z</time>
      </trkpt>
      <trkpt lat="47.72236" lon="3.55398">
        <ele>221.5</ele>
        <time>2022-04-03T14:26:05Z</time>
      </trkpt>
      <trkpt lat="47.72235" lon="3.55401">
        <ele>221.5</ele>
        <time>2022-04-03T14:26:06Z</time>
      </trkpt>
      <trkpt lat="47.72235" lon="3.55403">
        <ele>221.5</ele>
        <time>2022-04-03T14:26:07Z</time>
      </trkpt>
      <trkpt lat="47.72235" lon="3.55405">
        <ele>221.5</ele>
        <time>2022-04-03T14:26:08Z</time>
      </trkpt>
      <trkpt lat="47.72235" lon="3.55407">
        <ele>221.5</ele>
        <time>2022-04-03T14:26:09Z</time>
      </trkpt>
      <trkpt lat="47.72236" lon="3.55409">
        <ele>221.5</ele>
        <time>2022-04-03T14:26:10Z</time>
      </trkpt>
      <trkpt lat="47.72236" lon="3.55411">
        <ele>221.5</ele>
        <time>2022-04-03T14:26:11Z</time>
      </trkpt>
      <trkpt lat="47.72236" lon="3.55414">
        <ele>221.5</ele>
        <time>2022-04-03T14:26:13Z</time>
      </trkpt>
      <trkpt lat="47.72236" lon="3.55416">
        <ele>221.5</ele>
        <time>2022-04-03T14:26:14Z</time>
      </trkpt>
      <trkpt lat="47.72236" lon="3.55418">
        <ele>221.5</ele>
        <time>2022-04-03T14:26:15Z</time>
      </trkpt>
      <trkpt lat="47.72236" lon="3.55421">
        <ele>221.5</ele>
        <time>2022-04-03T14:26:16Z</time>
      </trkpt>
      <trkpt lat="47.72236" lon="3.55422">
        <ele>221.5</ele>
        <time>2022-04-03T14:26:17Z</time>
      </trkpt>
      <trkpt lat="47.72237" lon="3.55424">
        <ele>221.5</ele>
        <time>2022-04-03T14:26:18Z</time>
      </trkpt>
      <trkpt lat="47.72237" lon="3.55426">
        <ele>221.5</ele>
        <time>2022-04-03T14:26:20Z</time>
      </trkpt>
      <trkpt lat="47.72237" lon="3.55428">
        <ele>221.5</ele>
        <time>2022-04-03T14:26:21Z</time>
      </trkpt>
      <trkpt lat="47.72237" lon="3.55431">
        <ele>221.6</ele>
        <time>2022-04-03T14:26:22Z</time>
      </trkpt>
      <trkpt lat="47.72238" lon="3.55433">
        <ele>221.6</ele>
        <time>2022-04-03T14:26:23Z</time>
      </trkpt>
      <trkpt lat="47.72238" lon="3.55436">
        <ele>221.7</ele>
        <time>2022-04-03T14:26:24Z</time>
      </trkpt>
      <trkpt lat="47.72238" lon="3.55438">
        <ele>221.8</ele>
        <time>2022-04-03T14:26:25Z</time>
      </trkpt>
      <trkpt lat="47.72238" lon="3.5544">
        <ele>222.1</ele>
        <time>2022-04-03T14:26:26Z</time>
      </trkpt>
      <trkpt lat="47.72239" lon="3.55442">
        <ele>222.2</ele>
        <time>2022-04-03T14:26:28Z</time>
      </trkpt>
      <trkpt lat="47.72239" lon="3.55445">
        <ele>222.2</ele>
        <time>2022-04-03T14:26:29Z</time>
      </trkpt>
      <trkpt lat="47.72239" lon="3.55447">
        <ele>222.4</ele>
        <time>2022-04-03T14:26:30Z</time>
      </trkpt>
      <trkpt lat="47.7224" lon="3.55449">
        <ele>222.4</ele>
        <time>2022-04-03T14:26:31Z</time>
      </trkpt>
      <trkpt lat="47.7224" lon="3.55451">
        <ele>222.5</ele>
        <time>2022-04-03T14:26:32Z</time>
      </trkpt>
      <trkpt lat="47.7224" lon="3.55453">
        <ele>222.5</ele>
        <time>2022-04-03T14:26:33Z</time>
      </trkpt>
      <trkpt lat="47.7224" lon="3.55456">
        <ele>222.6</ele>
        <time>2022-04-03T14:26:34Z</time>
      </trkpt>
      <trkpt lat="47.7224" lon="3.55458">
        <ele>222.6</ele>
        <time>2022-04-03T14:26:35Z</time>
      </trkpt>
      <trkpt lat="47.7224" lon="3.55459">
        <ele>222.6</ele>
        <time>2022-04-03T14:26:36Z</time>
      </trkpt>
      <trkpt lat="47.7224" lon="3.55461">
        <ele>222.7</ele>
        <time>2022-04-03T14:26:37Z</time>
      </trkpt>
      <trkpt lat="47.72239" lon="3.55462">
        <ele>222.7</ele>
        <time>2022-04-03T14:26:39Z</time>
      </trkpt>
      <trkpt lat="47.72239" lon="3.55463">
        <ele>222.7</ele>
        <time>2022-04-03T14:26:40Z</time>
      </trkpt>
      <trkpt lat="47.72239" lon="3.55466">
        <ele>222.8</ele>
        <time>2022-04-03T14:26:41Z</time>
      </trkpt>
      <trkpt lat="47.7224" lon="3.55468">
        <ele>223</ele>
        <time>2022-04-03T14:26:42Z</time>
      </trkpt>
      <trkpt lat="47.7224" lon="3.55469">
        <ele>223</ele>
        <time>2022-04-03T14:26:43Z</time>
      </trkpt>
      <trkpt lat="47.7224" lon="3.55473">
        <ele>223.1</ele>
        <time>2022-04-03T14:26:44Z</time>
      </trkpt>
      <trkpt lat="47.7224" lon="3.55474">
        <ele>223.1</ele>
        <time>2022-04-03T14:26:45Z</time>
      </trkpt>
      <trkpt lat="47.7224" lon="3.55475">
        <ele>223.1</ele>
        <time>2022-04-03T14:26:46Z</time>
      </trkpt>
      <trkpt lat="47.7224" lon="3.55477">
        <ele>223.2</ele>
        <time>2022-04-03T14:26:47Z</time>
      </trkpt>
      <trkpt lat="47.7224" lon="3.55479">
        <ele>223.2</ele>
        <time>2022-04-03T14:26:48Z</time>
      </trkpt>
      <trkpt lat="47.7224" lon="3.5548">
        <ele>223.2</ele>
        <time>2022-04-03T14:26:49Z</time>
      </trkpt>
      <trkpt lat="47.72239" lon="3.55482">
        <ele>223.4</ele>
        <time>2022-04-03T14:26:50Z</time>
      </trkpt>
      <trkpt lat="47.72239" lon="3.55484">
        <ele>223.4</ele>
        <time>2022-04-03T14:26:51Z</time>
      </trkpt>
      <trkpt lat="47.72239" lon="3.55485">
        <ele>223.5</ele>
        <time>2022-04-03T14:26:53Z</time>
      </trkpt>
      <trkpt lat="47.72239" lon="3.55487">
        <ele>223.5</ele>
        <time>2022-04-03T14:26:54Z</time>
      </trkpt>
      <trkpt lat="47.72239" lon="3.55489">
        <ele>223.5</ele>
        <time>2022-04-03T14:26:55Z</time>
      </trkpt>
      <trkpt lat="47.72239" lon="3.5549">
        <ele>223.7</ele>
        <time>2022-04-03T14:26:56Z</time>
      </trkpt>
      <trkpt lat="47.72239" lon="3.55492">
        <ele>223.7</ele>
        <time>2022-04-03T14:26:57Z</time>
      </trkpt>
      <trkpt lat="47.72239" lon="3.55493">
        <ele>223.7</ele>
        <time>2022-04-03T14:26:58Z</time>
      </trkpt>
      <trkpt lat="47.72239" lon="3.55495">
        <ele>223.9</ele>
        <time>2022-04-03T14:26:59Z</time>
      </trkpt>
      <trkpt lat="47.72239" lon="3.55498">
        <ele>223.9</ele>
        <time>2022-04-03T14:27:00Z</time>
      </trkpt>
      <trkpt lat="47.72238" lon="3.55499">
        <ele>224.1</ele>
        <time>2022-04-03T14:27:01Z</time>
      </trkpt>
      <trkpt lat="47.72238" lon="3.55501">
        <ele>224.1</ele>
        <time>2022-04-03T14:27:03Z</time>
      </trkpt>
      <trkpt lat="47.72238" lon="3.55502">
        <ele>223.9</ele>
        <time>2022-04-03T14:27:04Z</time>
      </trkpt>
      <trkpt lat="47.72238" lon="3.55503">
        <ele>224.2</ele>
        <time>2022-04-03T14:27:05Z</time>
      </trkpt>
      <trkpt lat="47.72237" lon="3.55505">
        <ele>224.2</ele>
        <time>2022-04-03T14:27:06Z</time>
      </trkpt>
      <trkpt lat="47.72237" lon="3.55508">
        <ele>224.4</ele>
        <time>2022-04-03T14:27:07Z</time>
      </trkpt>
      <trkpt lat="47.72237" lon="3.55509">
        <ele>224.4</ele>
        <time>2022-04-03T14:27:08Z</time>
      </trkpt>
      <trkpt lat="47.72237" lon="3.5551">
        <ele>224.4</ele>
        <time>2022-04-03T14:27:09Z</time>
      </trkpt>
      <trkpt lat="47.72236" lon="3.55512">
        <ele>224.5</ele>
        <time>2022-04-03T14:27:10Z</time>
      </trkpt>
      <trkpt lat="47.72236" lon="3.55514">
        <ele>224.5</ele>
        <time>2022-04-03T14:27:11Z</time>
      </trkpt>
      <trkpt lat="47.72236" lon="3.55515">
        <ele>224.7</ele>
        <time>2022-04-03T14:27:12Z</time>
      </trkpt>
      <trkpt lat="47.72236" lon="3.55517">
        <ele>224.7</ele>
        <time>2022-04-03T14:27:13Z</time>
      </trkpt>
      <trkpt lat="47.72235" lon="3.55519">
        <ele>224.7</ele>
        <time>2022-04-03T14:27:14Z</time>
      </trkpt>
      <trkpt lat="47.72235" lon="3.55522">
        <ele>224.7</ele>
        <time>2022-04-03T14:27:16Z</time>
      </trkpt>
      <trkpt lat="47.72235" lon="3.55525">
        <ele>224.8</ele>
        <time>2022-04-03T14:27:17Z</time>
      </trkpt>
      <trkpt lat="47.72234" lon="3.55526">
        <ele>224.8</ele>
        <time>2022-04-03T14:27:18Z</time>
      </trkpt>
      <trkpt lat="47.72234" lon="3.55528">
        <ele>224.8</ele>
        <time>2022-04-03T14:27:19Z</time>
      </trkpt>
      <trkpt lat="47.72234" lon="3.5553">
        <ele>225</ele>
        <time>2022-04-03T14:27:20Z</time>
      </trkpt>
      <trkpt lat="47.72233" lon="3.55532">
        <ele>225</ele>
        <time>2022-04-03T14:27:21Z</time>
      </trkpt>
      <trkpt lat="47.72233" lon="3.55535">
        <ele>225.1</ele>
        <time>2022-04-03T14:27:23Z</time>
      </trkpt>
      <trkpt lat="47.72233" lon="3.55536">
        <ele>225.1</ele>
        <time>2022-04-03T14:27:24Z</time>
      </trkpt>
      <trkpt lat="47.72232" lon="3.55539">
        <ele>225.2</ele>
        <time>2022-04-03T14:27:25Z</time>
      </trkpt>
      <trkpt lat="47.72232" lon="3.55541">
        <ele>225.1</ele>
        <time>2022-04-03T14:27:27Z</time>
      </trkpt>
      <trkpt lat="47.72232" lon="3.55542">
        <ele>225.3</ele>
        <time>2022-04-03T14:27:28Z</time>
      </trkpt>
      <trkpt lat="47.72231" lon="3.55545">
        <ele>225.3</ele>
        <time>2022-04-03T14:27:29Z</time>
      </trkpt>
      <trkpt lat="47.72231" lon="3.55546">
        <ele>225.4</ele>
        <time>2022-04-03T14:27:30Z</time>
      </trkpt>
      <trkpt lat="47.7223" lon="3.55547">
        <ele>225.4</ele>
        <time>2022-04-03T14:27:31Z</time>
      </trkpt>
      <trkpt lat="47.72229" lon="3.55549">
        <ele>225.4</ele>
        <time>2022-04-03T14:27:32Z</time>
      </trkpt>
      <trkpt lat="47.72229" lon="3.55551">
        <ele>225.5</ele>
        <time>2022-04-03T14:27:34Z</time>
      </trkpt>
      <trkpt lat="47.72228" lon="3.55554">
        <ele>225.6</ele>
        <time>2022-04-03T14:27:35Z</time>
      </trkpt>
      <trkpt lat="47.72228" lon="3.55556">
        <ele>225.6</ele>
        <time>2022-04-03T14:27:36Z</time>
      </trkpt>
      <trkpt lat="47.72228" lon="3.55557">
        <ele>225.6</ele>
        <time>2022-04-03T14:27:37Z</time>
      </trkpt>
      <trkpt lat="47.72227" lon="3.55559">
        <ele>225.8</ele>
        <time>2022-04-03T14:27:38Z</time>
      </trkpt>
      <trkpt lat="47.72227" lon="3.55561">
        <ele>225.8</ele>
        <time>2022-04-03T14:27:39Z</time>
      </trkpt>
      <trkpt lat="47.72226" lon="3.55563">
        <ele>225.9</ele>
        <time>2022-04-03T14:27:41Z</time>
      </trkpt>
      <trkpt lat="47.72226" lon="3.55566">
        <ele>225.9</ele>
        <time>2022-04-03T14:27:42Z</time>
      </trkpt>
      <trkpt lat="47.72226" lon="3.55568">
        <ele>226.1</ele>
        <time>2022-04-03T14:27:43Z</time>
      </trkpt>
      <trkpt lat="47.72226" lon="3.5557">
        <ele>226.1</ele>
        <time>2022-04-03T14:27:44Z</time>
      </trkpt>
      <trkpt lat="47.72226" lon="3.55572">
        <ele>226.3</ele>
        <time>2022-04-03T14:27:45Z</time>
      </trkpt>
      <trkpt lat="47.72226" lon="3.55575">
        <ele>226.3</ele>
        <time>2022-04-03T14:27:46Z</time>
      </trkpt>
      <trkpt lat="47.72225" lon="3.55577">
        <ele>226.5</ele>
        <time>2022-04-03T14:27:48Z</time>
      </trkpt>
      <trkpt lat="47.72225" lon="3.55579">
        <ele>226.5</ele>
        <time>2022-04-03T14:27:49Z</time>
      </trkpt>
      <trkpt lat="47.72224" lon="3.55581">
        <ele>226.7</ele>
        <time>2022-04-03T14:27:50Z</time>
      </trkpt>
      <trkpt lat="47.72224" lon="3.55584">
        <ele>226.8</ele>
        <time>2022-04-03T14:27:51Z</time>
      </trkpt>
      <trkpt lat="47.72223" lon="3.55586">
        <ele>226.8</ele>
        <time>2022-04-03T14:27:52Z</time>
      </trkpt>
      <trkpt lat="47.72222" lon="3.55588">
        <ele>226.9</ele>
        <time>2022-04-03T14:27:53Z</time>
      </trkpt>
      <trkpt lat="47.72222" lon="3.55591">
        <ele>226.9</ele>
        <time>2022-04-03T14:27:54Z</time>
      </trkpt>
      <trkpt lat="47.72222" lon="3.55593">
        <ele>227.1</ele>
        <time>2022-04-03T14:27:55Z</time>
      </trkpt>
      <trkpt lat="47.72222" lon="3.55594">
        <ele>227.2</ele>
        <time>2022-04-03T14:27:56Z</time>
      </trkpt>
      <trkpt lat="47.72222" lon="3.55597">
        <ele>227.3</ele>
        <time>2022-04-03T14:27:58Z</time>
      </trkpt>
      <trkpt lat="47.72223" lon="3.55599">
        <ele>227.5</ele>
        <time>2022-04-03T14:27:59Z</time>
      </trkpt>
      <trkpt lat="47.72224" lon="3.556">
        <ele>227.6</ele>
        <time>2022-04-03T14:28:00Z</time>
      </trkpt>
      <trkpt lat="47.72225" lon="3.55601">
        <ele>227.7</ele>
        <time>2022-04-03T14:28:01Z</time>
      </trkpt>
      <trkpt lat="47.72226" lon="3.55602">
        <ele>227.9</ele>
        <time>2022-04-03T14:28:02Z</time>
      </trkpt>
      <trkpt lat="47.72227" lon="3.55603">
        <ele>228</ele>
        <time>2022-04-03T14:28:04Z</time>
      </trkpt>
      <trkpt lat="47.72229" lon="3.55604">
        <ele>228.2</ele>
        <time>2022-04-03T14:28:05Z</time>
      </trkpt>
      <trkpt lat="47.7223" lon="3.55604">
        <ele>228.3</ele>
        <time>2022-04-03T14:28:06Z</time>
      </trkpt>
      <trkpt lat="47.72231" lon="3.55605">
        <ele>228.3</ele>
        <time>2022-04-03T14:28:07Z</time>
      </trkpt>
      <trkpt lat="47.72232" lon="3.55605">
        <ele>228.4</ele>
        <time>2022-04-03T14:28:08Z</time>
      </trkpt>
      <trkpt lat="47.72233" lon="3.55606">
        <ele>228.6</ele>
        <time>2022-04-03T14:28:09Z</time>
      </trkpt>
      <trkpt lat="47.72235" lon="3.55606">
        <ele>228.7</ele>
        <time>2022-04-03T14:28:11Z</time>
      </trkpt>
      <trkpt lat="47.72237" lon="3.55606">
        <ele>228.9</ele>
        <time>2022-04-03T14:28:12Z</time>
      </trkpt>
      <trkpt lat="47.72238" lon="3.55606">
        <ele>229</ele>
        <time>2022-04-03T14:28:13Z</time>
      </trkpt>
      <trkpt lat="47.72238" lon="3.55606">
        <ele>229</ele>
        <time>2022-04-03T14:28:14Z</time>
      </trkpt>
      <trkpt lat="47.72241" lon="3.55606">
        <ele>229.2</ele>
        <time>2022-04-03T14:28:15Z</time>
      </trkpt>
      <trkpt lat="47.72241" lon="3.55606">
        <ele>229.3</ele>
        <time>2022-04-03T14:28:16Z</time>
      </trkpt>
      <trkpt lat="47.72242" lon="3.55606">
        <ele>229.4</ele>
        <time>2022-04-03T14:28:17Z</time>
      </trkpt>
      <trkpt lat="47.72243" lon="3.55606">
        <ele>229.5</ele>
        <time>2022-04-03T14:28:19Z</time>
      </trkpt>
      <trkpt lat="47.72245" lon="3.55606">
        <ele>229.6</ele>
        <time>2022-04-03T14:28:20Z</time>
      </trkpt>
      <trkpt lat="47.72247" lon="3.55606">
        <ele>229.8</ele>
        <time>2022-04-03T14:28:21Z</time>
      </trkpt>
      <trkpt lat="47.72248" lon="3.55606">
        <ele>229.9</ele>
        <time>2022-04-03T14:28:22Z</time>
      </trkpt>
      <trkpt lat="47.72249" lon="3.55607">
        <ele>230</ele>
        <time>2022-04-03T14:28:23Z</time>
      </trkpt>
      <trkpt lat="47.72251" lon="3.55607">
        <ele>230.2</ele>
        <time>2022-04-03T14:28:24Z</time>
      </trkpt>
      <trkpt lat="47.72252" lon="3.55608">
        <ele>230.3</ele>
        <time>2022-04-03T14:28:26Z</time>
      </trkpt>
      <trkpt lat="47.72253" lon="3.55608">
        <ele>230.4</ele>
        <time>2022-04-03T14:28:27Z</time>
      </trkpt>
      <trkpt lat="47.72254" lon="3.55609">
        <ele>230.5</ele>
        <time>2022-04-03T14:28:28Z</time>
      </trkpt>
      <trkpt lat="47.72256" lon="3.55609">
        <ele>230.6</ele>
        <time>2022-04-03T14:28:29Z</time>
      </trkpt>
      <trkpt lat="47.72257" lon="3.5561">
        <ele>230.7</ele>
        <time>2022-04-03T14:28:30Z</time>
      </trkpt>
      <trkpt lat="47.72258" lon="3.5561">
        <ele>230.8</ele>
        <time>2022-04-03T14:28:31Z</time>
      </trkpt>
      <trkpt lat="47.72259" lon="3.55611">
        <ele>230.9</ele>
        <time>2022-04-03T14:28:33Z</time>
      </trkpt>
      <trkpt lat="47.7226" lon="3.55612">
        <ele>231</ele>
        <time>2022-04-03T14:28:34Z</time>
      </trkpt>
      <trkpt lat="47.72261" lon="3.55612">
        <ele>231.1</ele>
        <time>2022-04-03T14:28:35Z</time>
      </trkpt>
      <trkpt lat="47.72262" lon="3.55613">
        <ele>231.2</ele>
        <time>2022-04-03T14:28:36Z</time>
      </trkpt>
      <trkpt lat="47.72263" lon="3.55614">
        <ele>231.3</ele>
        <time>2022-04-03T14:28:37Z</time>
      </trkpt>
      <trkpt lat="47.72264" lon="3.55614">
        <ele>231.3</ele>
        <time>2022-04-03T14:28:38Z</time>
      </trkpt>
      <trkpt lat="47.72265" lon="3.55614">
        <ele>231.4</ele>
        <time>2022-04-03T14:28:39Z</time>
      </trkpt>
      <trkpt lat="47.72266" lon="3.55614">
        <ele>231.5</ele>
        <time>2022-04-03T14:28:41Z</time>
      </trkpt>
      <trkpt lat="47.72267" lon="3.55614">
        <ele>231.6</ele>
        <time>2022-04-03T14:28:42Z</time>
      </trkpt>
      <trkpt lat="47.72268" lon="3.55613">
        <ele>231.6</ele>
        <time>2022-04-03T14:28:43Z</time>
      </trkpt>
      <trkpt lat="47.72269" lon="3.55613">
        <ele>231.8</ele>
        <time>2022-04-03T14:28:44Z</time>
      </trkpt>
      <trkpt lat="47.7227" lon="3.55612">
        <ele>231.8</ele>
        <time>2022-04-03T14:28:45Z</time>
      </trkpt>
      <trkpt lat="47.72271" lon="3.55612">
        <ele>231.9</ele>
        <time>2022-04-03T14:28:47Z</time>
      </trkpt>
      <trkpt lat="47.72271" lon="3.55612">
        <ele>231.9</ele>
        <time>2022-04-03T14:28:48Z</time>
      </trkpt>
      <trkpt lat="47.72273" lon="3.55612">
        <ele>232</ele>
        <time>2022-04-03T14:28:49Z</time>
      </trkpt>
      <trkpt lat="47.72273" lon="3.55611">
        <ele>232.1</ele>
        <time>2022-04-03T14:28:50Z</time>
      </trkpt>
      <trkpt lat="47.72275" lon="3.55611">
        <ele>232.2</ele>
        <time>2022-04-03T14:28:51Z</time>
      </trkpt>
      <trkpt lat="47.72276" lon="3.55611">
        <ele>232.2</ele>
        <time>2022-04-03T14:28:52Z</time>
      </trkpt>
      <trkpt lat="47.72277" lon="3.55611">
        <ele>232.3</ele>
        <time>2022-04-03T14:28:54Z</time>
      </trkpt>
      <trkpt lat="47.72278" lon="3.5561">
        <ele>232.4</ele>
        <time>2022-04-03T14:28:55Z</time>
      </trkpt>
      <trkpt lat="47.7228" lon="3.5561">
        <ele>232.6</ele>
        <time>2022-04-03T14:28:56Z</time>
      </trkpt>
      <trkpt lat="47.72281" lon="3.55609">
        <ele>232.7</ele>
        <time>2022-04-03T14:28:57Z</time>
      </trkpt>
      <trkpt lat="47.72281" lon="3.55609">
        <ele>232.7</ele>
        <time>2022-04-03T14:28:58Z</time>
      </trkpt>
      <trkpt lat="47.72283" lon="3.55609">
        <ele>232.8</ele>
        <time>2022-04-03T14:28:59Z</time>
      </trkpt>
      <trkpt lat="47.72284" lon="3.55608">
        <ele>232.9</ele>
        <time>2022-04-03T14:29:00Z</time>
      </trkpt>
      <trkpt lat="47.72285" lon="3.55608">
        <ele>233</ele>
        <time>2022-04-03T14:29:01Z</time>
      </trkpt>
      <trkpt lat="47.72287" lon="3.55607">
        <ele>233.2</ele>
        <time>2022-04-03T14:29:02Z</time>
      </trkpt>
      <trkpt lat="47.72288" lon="3.55607">
        <ele>233.3</ele>
        <time>2022-04-03T14:29:03Z</time>
      </trkpt>
      <trkpt lat="47.72289" lon="3.55607">
        <ele>233.4</ele>
        <time>2022-04-03T14:29:05Z</time>
      </trkpt>
      <trkpt lat="47.7229" lon="3.55606">
        <ele>233.4</ele>
        <time>2022-04-03T14:29:06Z</time>
      </trkpt>
      <trkpt lat="47.72291" lon="3.55606">
        <ele>233.5</ele>
        <time>2022-04-03T14:29:07Z</time>
      </trkpt>
      <trkpt lat="47.72292" lon="3.55606">
        <ele>233.6</ele>
        <time>2022-04-03T14:29:08Z</time>
      </trkpt>
      <trkpt lat="47.72293" lon="3.55606">
        <ele>233.7</ele>
        <time>2022-04-03T14:29:09Z</time>
      </trkpt>
      <trkpt lat="47.72294" lon="3.55607">
        <ele>233.8</ele>
        <time>2022-04-03T14:29:10Z</time>
      </trkpt>
      <trkpt lat="47.72295" lon="3.55607">
        <ele>233.9</ele>
        <time>2022-04-03T14:29:12Z</time>
      </trkpt>
      <trkpt lat="47.72296" lon="3.55607">
        <ele>234</ele>
        <time>2022-04-03T14:29:13Z</time>
      </trkpt>
      <trkpt lat="47.72297" lon="3.55607">
        <ele>234</ele>
        <time>2022-04-03T14:29:14Z</time>
      </trkpt>
      <trkpt lat="47.72299" lon="3.55607">
        <ele>234.1</ele>
        <time>2022-04-03T14:29:15Z</time>
      </trkpt>
      <trkpt lat="47.723" lon="3.55607">
        <ele>234.2</ele>
        <time>2022-04-03T14:29:16Z</time>
      </trkpt>
      <trkpt lat="47.72301" lon="3.55607">
        <ele>234.3</ele>
        <time>2022-04-03T14:29:18Z</time>
      </trkpt>
      <trkpt lat="47.72302" lon="3.55608">
        <ele>234.4</ele>
        <time>2022-04-03T14:29:19Z</time>
      </trkpt>
      <trkpt lat="47.72303" lon="3.55608">
        <ele>234.4</ele>
        <time>2022-04-03T14:29:20Z</time>
      </trkpt>
      <trkpt lat="47.72304" lon="3.55608">
        <ele>234.5</ele>
        <time>2022-04-03T14:29:21Z</time>
      </trkpt>
      <trkpt lat="47.72305" lon="3.55608">
        <ele>234.6</ele>
        <time>2022-04-03T14:29:22Z</time>
      </trkpt>
      <trkpt lat="47.72306" lon="3.55609">
        <ele>234.6</ele>
        <time>2022-04-03T14:29:23Z</time>
      </trkpt>
      <trkpt lat="47.72306" lon="3.55609">
        <ele>234.7</ele>
        <time>2022-04-03T14:29:24Z</time>
      </trkpt>
      <trkpt lat="47.72307" lon="3.5561">
        <ele>234.8</ele>
        <time>2022-04-03T14:29:25Z</time>
      </trkpt>
      <trkpt lat="47.72308" lon="3.5561">
        <ele>234.8</ele>
        <time>2022-04-03T14:29:26Z</time>
      </trkpt>
      <trkpt lat="47.72309" lon="3.5561">
        <ele>234.9</ele>
        <time>2022-04-03T14:29:27Z</time>
      </trkpt>
      <trkpt lat="47.7231" lon="3.55611">
        <ele>235</ele>
        <time>2022-04-03T14:29:28Z</time>
      </trkpt>
      <trkpt lat="47.72311" lon="3.55611">
        <ele>235.1</ele>
        <time>2022-04-03T14:29:30Z</time>
      </trkpt>
      <trkpt lat="47.72313" lon="3.55611">
        <ele>235.2</ele>
        <time>2022-04-03T14:29:31Z</time>
      </trkpt>
      <trkpt lat="47.72314" lon="3.55612">
        <ele>235.3</ele>
        <time>2022-04-03T14:29:32Z</time>
      </trkpt>
      <trkpt lat="47.72315" lon="3.55612">
        <ele>235.3</ele>
        <time>2022-04-03T14:29:33Z</time>
      </trkpt>
      <trkpt lat="47.72317" lon="3.55612">
        <ele>235.4</ele>
        <time>2022-04-03T14:29:34Z</time>
      </trkpt>
      <trkpt lat="47.72318" lon="3.55612">
        <ele>235.5</ele>
        <time>2022-04-03T14:29:35Z</time>
      </trkpt>
      <trkpt lat="47.72319" lon="3.55613">
        <ele>235.6</ele>
        <time>2022-04-03T14:29:37Z</time>
      </trkpt>
      <trkpt lat="47.72321" lon="3.55614">
        <ele>235.7</ele>
        <time>2022-04-03T14:29:38Z</time>
      </trkpt>
      <trkpt lat="47.72322" lon="3.55614">
        <ele>235.8</ele>
        <time>2022-04-03T14:29:39Z</time>
      </trkpt>
      <trkpt lat="47.72324" lon="3.55615">
        <ele>235.9</ele>
        <time>2022-04-03T14:29:40Z</time>
      </trkpt>
      <trkpt lat="47.72325" lon="3.55615">
        <ele>235.9</ele>
        <time>2022-04-03T14:29:41Z</time>
      </trkpt>
      <trkpt lat="47.72327" lon="3.55616">
        <ele>236</ele>
        <time>2022-04-03T14:29:42Z</time>
      </trkpt>
      <trkpt lat="47.72328" lon="3.55616">
        <ele>236.1</ele>
        <time>2022-04-03T14:29:43Z</time>
      </trkpt>
      <trkpt lat="47.7233" lon="3.55617">
        <ele>236.2</ele>
        <time>2022-04-03T14:29:45Z</time>
      </trkpt>
      <trkpt lat="47.72331" lon="3.55617">
        <ele>236.3</ele>
        <time>2022-04-03T14:29:46Z</time>
      </trkpt>
      <trkpt lat="47.72333" lon="3.55618">
        <ele>236.4</ele>
        <time>2022-04-03T14:29:47Z</time>
      </trkpt>
      <trkpt lat="47.72334" lon="3.55618">
        <ele>236.4</ele>
        <time>2022-04-03T14:29:48Z</time>
      </trkpt>
      <trkpt lat="47.72335" lon="3.55619">
        <ele>236.5</ele>
        <time>2022-04-03T14:29:49Z</time>
      </trkpt>
      <trkpt lat="47.72337" lon="3.55619">
        <ele>236.6</ele>
        <time>2022-04-03T14:29:51Z</time>
      </trkpt>
      <trkpt lat="47.72338" lon="3.5562">
        <ele>236.7</ele>
        <time>2022-04-03T14:29:52Z</time>
      </trkpt>
      <trkpt lat="47.72339" lon="3.55621">
        <ele>236.7</ele>
        <time>2022-04-03T14:29:53Z</time>
      </trkpt>
      <trkpt lat="47.72341" lon="3.55621">
        <ele>236.8</ele>
        <time>2022-04-03T14:29:54Z</time>
      </trkpt>
      <trkpt lat="47.72342" lon="3.55622">
        <ele>236.9</ele>
        <time>2022-04-03T14:29:55Z</time>
      </trkpt>
      <trkpt lat="47.72344" lon="3.55623">
        <ele>237</ele>
        <time>2022-04-03T14:29:56Z</time>
      </trkpt>
      <trkpt lat="47.72345" lon="3.55624">
        <ele>237</ele>
        <time>2022-04-03T14:29:58Z</time>
      </trkpt>
      <trkpt lat="47.72346" lon="3.55625">
        <ele>237.1</ele>
        <time>2022-04-03T14:29:59Z</time>
      </trkpt>
      <trkpt lat="47.72347" lon="3.55626">
        <ele>237.2</ele>
        <time>2022-04-03T14:30:00Z</time>
      </trkpt>
      <trkpt lat="47.72349" lon="3.55628">
        <ele>237.2</ele>
        <time>2022-04-03T14:30:01Z</time>
      </trkpt>
      <trkpt lat="47.7235" lon="3.55629">
        <ele>237.3</ele>
        <time>2022-04-03T14:30:02Z</time>
      </trkpt>
      <trkpt lat="47.72351" lon="3.5563">
        <ele>237.4</ele>
        <time>2022-04-03T14:30:03Z</time>
      </trkpt>
      <trkpt lat="47.72352" lon="3.55631">
        <ele>237.4</ele>
        <time>2022-04-03T14:30:05Z</time>
      </trkpt>
      <trkpt lat="47.72353" lon="3.55633">
        <ele>237.5</ele>
        <time>2022-04-03T14:30:06Z</time>
      </trkpt>
      <trkpt lat="47.72355" lon="3.55634">
        <ele>237.6</ele>
        <time>2022-04-03T14:30:07Z</time>
      </trkpt>
      <trkpt lat="47.72357" lon="3.55636">
        <ele>237.7</ele>
        <time>2022-04-03T14:30:08Z</time>
      </trkpt>
      <trkpt lat="47.72358" lon="3.55636">
        <ele>237.7</ele>
        <time>2022-04-03T14:30:09Z</time>
      </trkpt>
      <trkpt lat="47.72358" lon="3.55637">
        <ele>237.7</ele>
        <time>2022-04-03T14:30:10Z</time>
      </trkpt>
      <trkpt lat="47.7236" lon="3.55638">
        <ele>237.8</ele>
        <time>2022-04-03T14:30:11Z</time>
      </trkpt>
      <trkpt lat="47.72361" lon="3.55639">
        <ele>237.9</ele>
        <time>2022-04-03T14:30:13Z</time>
      </trkpt>
      <trkpt lat="47.72362" lon="3.5564">
        <ele>237.9</ele>
        <time>2022-04-03T14:30:14Z</time>
      </trkpt>
      <trkpt lat="47.72363" lon="3.55642">
        <ele>238</ele>
        <time>2022-04-03T14:30:15Z</time>
      </trkpt>
      <trkpt lat="47.72365" lon="3.55643">
        <ele>238</ele>
        <time>2022-04-03T14:30:16Z</time>
      </trkpt>
      <trkpt lat="47.72366" lon="3.55644">
        <ele>238.1</ele>
        <time>2022-04-03T14:30:17Z</time>
      </trkpt>
      <trkpt lat="47.72367" lon="3.55645">
        <ele>238.1</ele>
        <time>2022-04-03T14:30:18Z</time>
      </trkpt>
      <trkpt lat="47.72368" lon="3.55647">
        <ele>238.2</ele>
        <time>2022-04-03T14:30:19Z</time>
      </trkpt>
      <trkpt lat="47.72369" lon="3.55648">
        <ele>238.3</ele>
        <time>2022-04-03T14:30:20Z</time>
      </trkpt>
      <trkpt lat="47.7237" lon="3.5565">
        <ele>238.3</ele>
        <time>2022-04-03T14:30:22Z</time>
      </trkpt>
      <trkpt lat="47.72371" lon="3.55652">
        <ele>238.4</ele>
        <time>2022-04-03T14:30:23Z</time>
      </trkpt>
      <trkpt lat="47.72372" lon="3.55654">
        <ele>238.4</ele>
        <time>2022-04-03T14:30:24Z</time>
      </trkpt>
      <trkpt lat="47.72373" lon="3.55656">
        <ele>238.5</ele>
        <time>2022-04-03T14:30:25Z</time>
      </trkpt>
      <trkpt lat="47.72373" lon="3.55658">
        <ele>238</ele>
        <time>2022-04-03T14:30:26Z</time>
      </trkpt>
      <trkpt lat="47.72374" lon="3.5566">
        <ele>238</ele>
        <time>2022-04-03T14:30:27Z</time>
      </trkpt>
      <trkpt lat="47.72374" lon="3.55662">
        <ele>238.1</ele>
        <time>2022-04-03T14:30:28Z</time>
      </trkpt>
      <trkpt lat="47.72374" lon="3.55664">
        <ele>238.1</ele>
        <time>2022-04-03T14:30:30Z</time>
      </trkpt>
      <trkpt lat="47.72374" lon="3.55667">
        <ele>238.1</ele>
        <time>2022-04-03T14:30:31Z</time>
      </trkpt>
      <trkpt lat="47.72375" lon="3.55669">
        <ele>238.2</ele>
        <time>2022-04-03T14:30:32Z</time>
      </trkpt>
      <trkpt lat="47.72375" lon="3.55671">
        <ele>238.2</ele>
        <time>2022-04-03T14:30:33Z</time>
      </trkpt>
      <trkpt lat="47.72375" lon="3.55673">
        <ele>238.2</ele>
        <time>2022-04-03T14:30:34Z</time>
      </trkpt>
      <trkpt lat="47.72374" lon="3.55675">
        <ele>238.3</ele>
        <time>2022-04-03T14:30:35Z</time>
      </trkpt>
      <trkpt lat="47.72374" lon="3.55677">
        <ele>238.3</ele>
        <time>2022-04-03T14:30:37Z</time>
      </trkpt>
      <trkpt lat="47.72373" lon="3.55679">
        <ele>238.3</ele>
        <time>2022-04-03T14:30:38Z</time>
      </trkpt>
      <trkpt lat="47.72373" lon="3.55681">
        <ele>238.4</ele>
        <time>2022-04-03T14:30:39Z</time>
      </trkpt>
      <trkpt lat="47.72373" lon="3.55683">
        <ele>238.4</ele>
        <time>2022-04-03T14:30:40Z</time>
      </trkpt>
      <trkpt lat="47.72372" lon="3.55686">
        <ele>238.5</ele>
        <time>2022-04-03T14:30:41Z</time>
      </trkpt>
      <trkpt lat="47.72371" lon="3.55687">
        <ele>238.5</ele>
        <time>2022-04-03T14:30:42Z</time>
      </trkpt>
      <trkpt lat="47.72371" lon="3.55688">
        <ele>238.5</ele>
        <time>2022-04-03T14:30:43Z</time>
      </trkpt>
      <trkpt lat="47.72371" lon="3.5569">
        <ele>238.5</ele>
        <time>2022-04-03T14:30:44Z</time>
      </trkpt>
      <trkpt lat="47.7237" lon="3.55691">
        <ele>238.6</ele>
        <time>2022-04-03T14:30:45Z</time>
      </trkpt>
      <trkpt lat="47.72369" lon="3.55694">
        <ele>238.6</ele>
        <time>2022-04-03T14:30:47Z</time>
      </trkpt>
      <trkpt lat="47.72369" lon="3.55695">
        <ele>238.7</ele>
        <time>2022-04-03T14:30:48Z</time>
      </trkpt>
      <trkpt lat="47.72368" lon="3.55697">
        <ele>238.7</ele>
        <time>2022-04-03T14:30:49Z</time>
      </trkpt>
      <trkpt lat="47.72368" lon="3.55698">
        <ele>238.7</ele>
        <time>2022-04-03T14:30:50Z</time>
      </trkpt>
      <trkpt lat="47.72368" lon="3.557">
        <ele>238.8</ele>
        <time>2022-04-03T14:30:51Z</time>
      </trkpt>
      <trkpt lat="47.72367" lon="3.55702">
        <ele>238.8</ele>
        <time>2022-04-03T14:30:52Z</time>
      </trkpt>
      <trkpt lat="47.72367" lon="3.55705">
        <ele>238.9</ele>
        <time>2022-04-03T14:30:54Z</time>
      </trkpt>
      <trkpt lat="47.72366" lon="3.55706">
        <ele>238.9</ele>
        <time>2022-04-03T14:30:55Z</time>
      </trkpt>
      <trkpt lat="47.72366" lon="3.55707">
        <ele>238.9</ele>
        <time>2022-04-03T14:30:56Z</time>
      </trkpt>
      <trkpt lat="47.72365" lon="3.5571">
        <ele>239</ele>
        <time>2022-04-03T14:30:57Z</time>
      </trkpt>
      <trkpt lat="47.72365" lon="3.55712">
        <ele>239</ele>
        <time>2022-04-03T14:30:58Z</time>
      </trkpt>
      <trkpt lat="47.72365" lon="3.55713">
        <ele>239.1</ele>
        <time>2022-04-03T14:30:59Z</time>
      </trkpt>
      <trkpt lat="47.72364" lon="3.55715">
        <ele>239.1</ele>
        <time>2022-04-03T14:31:00Z</time>
      </trkpt>
      <trkpt lat="47.72364" lon="3.55716">
        <ele>239.2</ele>
        <time>2022-04-03T14:31:01Z</time>
      </trkpt>
      <trkpt lat="47.72363" lon="3.55718">
        <ele>239.2</ele>
        <time>2022-04-03T14:31:03Z</time>
      </trkpt>
      <trkpt lat="47.72363" lon="3.5572">
        <ele>239.3</ele>
        <time>2022-04-03T14:31:04Z</time>
      </trkpt>
      <trkpt lat="47.72363" lon="3.55723">
        <ele>239.3</ele>
        <time>2022-04-03T14:31:05Z</time>
      </trkpt>
      <trkpt lat="47.72363" lon="3.55725">
        <ele>239.4</ele>
        <time>2022-04-03T14:31:06Z</time>
      </trkpt>
      <trkpt lat="47.72363" lon="3.55727">
        <ele>239.4</ele>
        <time>2022-04-03T14:31:07Z</time>
      </trkpt>
      <trkpt lat="47.72363" lon="3.55729">
        <ele>239.5</ele>
        <time>2022-04-03T14:31:08Z</time>
      </trkpt>
      <trkpt lat="47.72362" lon="3.55731">
        <ele>239.5</ele>
        <time>2022-04-03T14:31:09Z</time>
      </trkpt>
      <trkpt lat="47.72362" lon="3.55733">
        <ele>239.6</ele>
        <time>2022-04-03T14:31:11Z</time>
      </trkpt>
      <trkpt lat="47.72362" lon="3.55735">
        <ele>239.7</ele>
        <time>2022-04-03T14:31:12Z</time>
      </trkpt>
      <trkpt lat="47.72362" lon="3.55738">
        <ele>239.7</ele>
        <time>2022-04-03T14:31:13Z</time>
      </trkpt>
      <trkpt lat="47.72362" lon="3.5574">
        <ele>239.8</ele>
        <time>2022-04-03T14:31:14Z</time>
      </trkpt>
      <trkpt lat="47.72361" lon="3.55742">
        <ele>239.9</ele>
        <time>2022-04-03T14:31:15Z</time>
      </trkpt>
      <trkpt lat="47.72361" lon="3.55744">
        <ele>239.9</ele>
        <time>2022-04-03T14:31:16Z</time>
      </trkpt>
      <trkpt lat="47.72361" lon="3.55746">
        <ele>240</ele>
        <time>2022-04-03T14:31:17Z</time>
      </trkpt>
      <trkpt lat="47.7236" lon="3.55748">
        <ele>240.1</ele>
        <time>2022-04-03T14:31:19Z</time>
      </trkpt>
      <trkpt lat="47.7236" lon="3.5575">
        <ele>240.1</ele>
        <time>2022-04-03T14:31:20Z</time>
      </trkpt>
      <trkpt lat="47.7236" lon="3.55752">
        <ele>240.2</ele>
        <time>2022-04-03T14:31:21Z</time>
      </trkpt>
      <trkpt lat="47.7236" lon="3.55754">
        <ele>240.3</ele>
        <time>2022-04-03T14:31:22Z</time>
      </trkpt>
      <trkpt lat="47.72359" lon="3.55756">
        <ele>240.3</ele>
        <time>2022-04-03T14:31:23Z</time>
      </trkpt>
      <trkpt lat="47.72359" lon="3.55758">
        <ele>240.4</ele>
        <time>2022-04-03T14:31:24Z</time>
      </trkpt>
      <trkpt lat="47.72359" lon="3.5576">
        <ele>240.5</ele>
        <time>2022-04-03T14:31:25Z</time>
      </trkpt>
      <trkpt lat="47.72358" lon="3.55763">
        <ele>240.6</ele>
        <time>2022-04-03T14:31:26Z</time>
      </trkpt>
      <trkpt lat="47.72358" lon="3.55765">
        <ele>240.6</ele>
        <time>2022-04-03T14:31:28Z</time>
      </trkpt>
      <trkpt lat="47.72358" lon="3.55766">
        <ele>240.7</ele>
        <time>2022-04-03T14:31:29Z</time>
      </trkpt>
      <trkpt lat="47.72357" lon="3.55769">
        <ele>240.8</ele>
        <time>2022-04-03T14:31:30Z</time>
      </trkpt>
      <trkpt lat="47.72357" lon="3.5577">
        <ele>240.8</ele>
        <time>2022-04-03T14:31:31Z</time>
      </trkpt>
      <trkpt lat="47.72357" lon="3.55771">
        <ele>240.9</ele>
        <time>2022-04-03T14:31:32Z</time>
      </trkpt>
      <trkpt lat="47.72357" lon="3.55773">
        <ele>240.9</ele>
        <time>2022-04-03T14:31:33Z</time>
      </trkpt>
      <trkpt lat="47.72356" lon="3.55774">
        <ele>241</ele>
        <time>2022-04-03T14:31:34Z</time>
      </trkpt>
      <trkpt lat="47.72356" lon="3.55776">
        <ele>241</ele>
        <time>2022-04-03T14:31:35Z</time>
      </trkpt>
      <trkpt lat="47.72355" lon="3.55779">
        <ele>241.1</ele>
        <time>2022-04-03T14:31:36Z</time>
      </trkpt>
      <trkpt lat="47.72355" lon="3.5578">
        <ele>241.2</ele>
        <time>2022-04-03T14:31:38Z</time>
      </trkpt>
      <trkpt lat="47.72355" lon="3.55781">
        <ele>241.2</ele>
        <time>2022-04-03T14:31:39Z</time>
      </trkpt>
      <trkpt lat="47.72355" lon="3.55783">
        <ele>241.3</ele>
        <time>2022-04-03T14:31:40Z</time>
      </trkpt>
      <trkpt lat="47.72355" lon="3.55785">
        <ele>241.3</ele>
        <time>2022-04-03T14:31:41Z</time>
      </trkpt>
      <trkpt lat="47.72355" lon="3.55787">
        <ele>241.4</ele>
        <time>2022-04-03T14:31:42Z</time>
      </trkpt>
      <trkpt lat="47.72355" lon="3.55788">
        <ele>241.5</ele>
        <time>2022-04-03T14:31:43Z</time>
      </trkpt>
      <trkpt lat="47.72354" lon="3.5579">
        <ele>241.5</ele>
        <time>2022-04-03T14:31:45Z</time>
      </trkpt>
      <trkpt lat="47.72354" lon="3.55792">
        <ele>241.6</ele>
        <time>2022-04-03T14:31:46Z</time>
      </trkpt>
      <trkpt lat="47.72354" lon="3.55795">
        <ele>241.7</ele>
        <time>2022-04-03T14:31:47Z</time>
      </trkpt>
      <trkpt lat="47.72354" lon="3.55796">
        <ele>241.7</ele>
        <time>2022-04-03T14:31:48Z</time>
      </trkpt>
      <trkpt lat="47.72353" lon="3.55797">
        <ele>241.7</ele>
        <time>2022-04-03T14:31:49Z</time>
      </trkpt>
      <trkpt lat="47.72353" lon="3.55799">
        <ele>241.8</ele>
        <time>2022-04-03T14:31:50Z</time>
      </trkpt>
      <trkpt lat="47.72353" lon="3.55801">
        <ele>241.9</ele>
        <time>2022-04-03T14:31:51Z</time>
      </trkpt>
      <trkpt lat="47.72353" lon="3.55803">
        <ele>241.9</ele>
        <time>2022-04-03T14:31:53Z</time>
      </trkpt>
      <trkpt lat="47.72353" lon="3.55805">
        <ele>242</ele>
        <time>2022-04-03T14:31:54Z</time>
      </trkpt>
      <trkpt lat="47.72352" lon="3.55807">
        <ele>242.1</ele>
        <time>2022-04-03T14:31:55Z</time>
      </trkpt>
      <trkpt lat="47.72352" lon="3.55809">
        <ele>242.1</ele>
        <time>2022-04-03T14:31:56Z</time>
      </trkpt>
      <trkpt lat="47.72352" lon="3.55811">
        <ele>242.2</ele>
        <time>2022-04-03T14:31:57Z</time>
      </trkpt>
      <trkpt lat="47.72352" lon="3.55813">
        <ele>242.3</ele>
        <time>2022-04-03T14:31:58Z</time>
      </trkpt>
      <trkpt lat="47.72351" lon="3.55816">
        <ele>242.4</ele>
        <time>2022-04-03T14:31:59Z</time>
      </trkpt>
      <trkpt lat="47.72351" lon="3.55818">
        <ele>242.4</ele>
        <time>2022-04-03T14:32:01Z</time>
      </trkpt>
      <trkpt lat="47.72351" lon="3.55819">
        <ele>242.5</ele>
        <time>2022-04-03T14:32:02Z</time>
      </trkpt>
      <trkpt lat="47.72351" lon="3.55821">
        <ele>242.5</ele>
        <time>2022-04-03T14:32:03Z</time>
      </trkpt>
      <trkpt lat="47.72351" lon="3.55823">
        <ele>242.6</ele>
        <time>2022-04-03T14:32:04Z</time>
      </trkpt>
      <trkpt lat="47.72351" lon="3.55825">
        <ele>242.7</ele>
        <time>2022-04-03T14:32:05Z</time>
      </trkpt>
      <trkpt lat="47.72351" lon="3.55827">
        <ele>242.7</ele>
        <time>2022-04-03T14:32:06Z</time>
      </trkpt>
      <trkpt lat="47.72351" lon="3.55829">
        <ele>242.8</ele>
        <time>2022-04-03T14:32:07Z</time>
      </trkpt>
      <trkpt lat="47.72351" lon="3.55831">
        <ele>242.9</ele>
        <time>2022-04-03T14:32:09Z</time>
      </trkpt>
      <trkpt lat="47.72351" lon="3.55832">
        <ele>242.9</ele>
        <time>2022-04-03T14:32:10Z</time>
      </trkpt>
      <trkpt lat="47.7235" lon="3.55835">
        <ele>243.1</ele>
        <time>2022-04-03T14:32:11Z</time>
      </trkpt>
      <trkpt lat="47.7235" lon="3.55837">
        <ele>243.1</ele>
        <time>2022-04-03T14:32:12Z</time>
      </trkpt>
      <trkpt lat="47.7235" lon="3.55838">
        <ele>243.2</ele>
        <time>2022-04-03T14:32:13Z</time>
      </trkpt>
      <trkpt lat="47.7235" lon="3.5584">
        <ele>243.3</ele>
        <time>2022-04-03T14:32:14Z</time>
      </trkpt>
      <trkpt lat="47.72349" lon="3.55842">
        <ele>243.3</ele>
        <time>2022-04-03T14:32:15Z</time>
      </trkpt>
      <trkpt lat="47.72349" lon="3.55845">
        <ele>243.5</ele>
        <time>2022-04-03T14:32:16Z</time>
      </trkpt>
      <trkpt lat="47.72349" lon="3.55846">
        <ele>243.5</ele>
        <time>2022-04-03T14:32:18Z</time>
      </trkpt>
      <trkpt lat="47.72349" lon="3.55847">
        <ele>243.6</ele>
        <time>2022-04-03T14:32:19Z</time>
      </trkpt>
      <trkpt lat="47.72349" lon="3.55851">
        <ele>243.7</ele>
        <time>2022-04-03T14:32:20Z</time>
      </trkpt>
      <trkpt lat="47.72349" lon="3.55852">
        <ele>243.7</ele>
        <time>2022-04-03T14:32:21Z</time>
      </trkpt>
      <trkpt lat="47.72349" lon="3.55853">
        <ele>243.8</ele>
        <time>2022-04-03T14:32:22Z</time>
      </trkpt>
      <trkpt lat="47.72349" lon="3.55855">
        <ele>243.9</ele>
        <time>2022-04-03T14:32:23Z</time>
      </trkpt>
      <trkpt lat="47.72349" lon="3.55857">
        <ele>243.9</ele>
        <time>2022-04-03T14:32:24Z</time>
      </trkpt>
      <trkpt lat="47.72349" lon="3.55859">
        <ele>244</ele>
        <time>2022-04-03T14:32:26Z</time>
      </trkpt>
      <trkpt lat="47.72348" lon="3.55861">
        <ele>244.1</ele>
        <time>2022-04-03T14:32:27Z</time>
      </trkpt>
      <trkpt lat="47.72348" lon="3.55863">
        <ele>244.2</ele>
        <time>2022-04-03T14:32:28Z</time>
      </trkpt>
      <trkpt lat="47.72348" lon="3.55865">
        <ele>244.2</ele>
        <time>2022-04-03T14:32:29Z</time>
      </trkpt>
      <trkpt lat="47.72348" lon="3.55866">
        <ele>244.3</ele>
        <time>2022-04-03T14:32:30Z</time>
      </trkpt>
      <trkpt lat="47.72348" lon="3.55868">
        <ele>244.3</ele>
        <time>2022-04-03T14:32:31Z</time>
      </trkpt>
      <trkpt lat="47.72348" lon="3.5587">
        <ele>244.4</ele>
        <time>2022-04-03T14:32:32Z</time>
      </trkpt>
      <trkpt lat="47.72347" lon="3.55871">
        <ele>244.5</ele>
        <time>2022-04-03T14:32:34Z</time>
      </trkpt>
      <trkpt lat="47.72347" lon="3.55873">
        <ele>244.5</ele>
        <time>2022-04-03T14:32:35Z</time>
      </trkpt>
      <trkpt lat="47.72347" lon="3.55875">
        <ele>244.6</ele>
        <time>2022-04-03T14:32:36Z</time>
      </trkpt>
      <trkpt lat="47.72347" lon="3.55876">
        <ele>244.7</ele>
        <time>2022-04-03T14:32:37Z</time>
      </trkpt>
      <trkpt lat="47.72347" lon="3.55878">
        <ele>244.7</ele>
        <time>2022-04-03T14:32:38Z</time>
      </trkpt>
      <trkpt lat="47.72347" lon="3.5588">
        <ele>244.8</ele>
        <time>2022-04-03T14:32:39Z</time>
      </trkpt>
      <trkpt lat="47.72347" lon="3.55882">
        <ele>244.9</ele>
        <time>2022-04-03T14:32:40Z</time>
      </trkpt>
      <trkpt lat="47.72347" lon="3.55884">
        <ele>244.9</ele>
        <time>2022-04-03T14:32:42Z</time>
      </trkpt>
      <trkpt lat="47.72347" lon="3.55885">
        <ele>245</ele>
        <time>2022-04-03T14:32:43Z</time>
      </trkpt>
      <trkpt lat="47.72347" lon="3.55889">
        <ele>245.1</ele>
        <time>2022-04-03T14:32:45Z</time>
      </trkpt>
      <trkpt lat="47.72347" lon="3.55892">
        <ele>245.2</ele>
        <time>2022-04-03T14:32:46Z</time>
      </trkpt>
      <trkpt lat="47.72347" lon="3.55893">
        <ele>245.3</ele>
        <time>2022-04-03T14:32:47Z</time>
      </trkpt>
      <trkpt lat="47.72346" lon="3.55894">
        <ele>245.3</ele>
        <time>2022-04-03T14:32:48Z</time>
      </trkpt>
      <trkpt lat="47.72346" lon="3.55897">
        <ele>245.4</ele>
        <time>2022-04-03T14:32:50Z</time>
      </trkpt>
      <trkpt lat="47.72346" lon="3.55899">
        <ele>245.5</ele>
        <time>2022-04-03T14:32:51Z</time>
      </trkpt>
      <trkpt lat="47.72346" lon="3.559">
        <ele>245.5</ele>
        <time>2022-04-03T14:32:52Z</time>
      </trkpt>
      <trkpt lat="47.72346" lon="3.55902">
        <ele>245.6</ele>
        <time>2022-04-03T14:32:53Z</time>
      </trkpt>
      <trkpt lat="47.72345" lon="3.55904">
        <ele>245.7</ele>
        <time>2022-04-03T14:32:54Z</time>
      </trkpt>
      <trkpt lat="47.72345" lon="3.55906">
        <ele>245.7</ele>
        <time>2022-04-03T14:32:55Z</time>
      </trkpt>
      <trkpt lat="47.72345" lon="3.55908">
        <ele>245.8</ele>
        <time>2022-04-03T14:32:56Z</time>
      </trkpt>
      <trkpt lat="47.72345" lon="3.55912">
        <ele>245.9</ele>
        <time>2022-04-03T14:32:58Z</time>
      </trkpt>
      <trkpt lat="47.72345" lon="3.55913">
        <ele>245.9</ele>
        <time>2022-04-03T14:32:59Z</time>
      </trkpt>
      <trkpt lat="47.72345" lon="3.55915">
        <ele>246</ele>
        <time>2022-04-03T14:33:00Z</time>
      </trkpt>
      <trkpt lat="47.72344" lon="3.55918">
        <ele>246.1</ele>
        <time>2022-04-03T14:33:01Z</time>
      </trkpt>
      <trkpt lat="47.72344" lon="3.55919">
        <ele>246.1</ele>
        <time>2022-04-03T14:33:02Z</time>
      </trkpt>
      <trkpt lat="47.72344" lon="3.5592">
        <ele>246.2</ele>
        <time>2022-04-03T14:33:03Z</time>
      </trkpt>
      <trkpt lat="47.72344" lon="3.55923">
        <ele>246.3</ele>
        <time>2022-04-03T14:33:04Z</time>
      </trkpt>
      <trkpt lat="47.72344" lon="3.55925">
        <ele>246.3</ele>
        <time>2022-04-03T14:33:06Z</time>
      </trkpt>
      <trkpt lat="47.72344" lon="3.55926">
        <ele>246.4</ele>
        <time>2022-04-03T14:33:07Z</time>
      </trkpt>
      <trkpt lat="47.72343" lon="3.55929">
        <ele>246.5</ele>
        <time>2022-04-03T14:33:08Z</time>
      </trkpt>
      <trkpt lat="47.72343" lon="3.5593">
        <ele>246.5</ele>
        <time>2022-04-03T14:33:09Z</time>
      </trkpt>
      <trkpt lat="47.72343" lon="3.55932">
        <ele>246.6</ele>
        <time>2022-04-03T14:33:10Z</time>
      </trkpt>
      <trkpt lat="47.72343" lon="3.55934">
        <ele>246.6</ele>
        <time>2022-04-03T14:33:11Z</time>
      </trkpt>
      <trkpt lat="47.72342" lon="3.55936">
        <ele>246.7</ele>
        <time>2022-04-03T14:33:12Z</time>
      </trkpt>
      <trkpt lat="47.72342" lon="3.55939">
        <ele>246.8</ele>
        <time>2022-04-03T14:33:13Z</time>
      </trkpt>
      <trkpt lat="47.72342" lon="3.5594">
        <ele>246.9</ele>
        <time>2022-04-03T14:33:15Z</time>
      </trkpt>
      <trkpt lat="47.72342" lon="3.55942">
        <ele>246.9</ele>
        <time>2022-04-03T14:33:16Z</time>
      </trkpt>
      <trkpt lat="47.72342" lon="3.55944">
        <ele>247</ele>
        <time>2022-04-03T14:33:17Z</time>
      </trkpt>
      <trkpt lat="47.72342" lon="3.55946">
        <ele>247</ele>
        <time>2022-04-03T14:33:18Z</time>
      </trkpt>
      <trkpt lat="47.72342" lon="3.55949">
        <ele>247.1</ele>
        <time>2022-04-03T14:33:19Z</time>
      </trkpt>
      <trkpt lat="47.72341" lon="3.55951">
        <ele>247.2</ele>
        <time>2022-04-03T14:33:20Z</time>
      </trkpt>
      <trkpt lat="47.72341" lon="3.55952">
        <ele>247.2</ele>
        <time>2022-04-03T14:33:21Z</time>
      </trkpt>
      <trkpt lat="47.72341" lon="3.55955">
        <ele>247.3</ele>
        <time>2022-04-03T14:33:22Z</time>
      </trkpt>
      <trkpt lat="47.72341" lon="3.55956">
        <ele>247.4</ele>
        <time>2022-04-03T14:33:24Z</time>
      </trkpt>
      <trkpt lat="47.72341" lon="3.55958">
        <ele>247.4</ele>
        <time>2022-04-03T14:33:25Z</time>
      </trkpt>
      <trkpt lat="47.7234" lon="3.55961">
        <ele>247.5</ele>
        <time>2022-04-03T14:33:26Z</time>
      </trkpt>
      <trkpt lat="47.7234" lon="3.55962">
        <ele>247.5</ele>
        <time>2022-04-03T14:33:27Z</time>
      </trkpt>
      <trkpt lat="47.7234" lon="3.55964">
        <ele>247.6</ele>
        <time>2022-04-03T14:33:28Z</time>
      </trkpt>
      <trkpt lat="47.7234" lon="3.55966">
        <ele>247.6</ele>
        <time>2022-04-03T14:33:29Z</time>
      </trkpt>
      <trkpt lat="47.7234" lon="3.55968">
        <ele>247.7</ele>
        <time>2022-04-03T14:33:30Z</time>
      </trkpt>
      <trkpt lat="47.7234" lon="3.55971">
        <ele>247.7</ele>
        <time>2022-04-03T14:33:32Z</time>
      </trkpt>
      <trkpt lat="47.7234" lon="3.55972">
        <ele>247.8</ele>
        <time>2022-04-03T14:33:33Z</time>
      </trkpt>
      <trkpt lat="47.7234" lon="3.55973">
        <ele>247.8</ele>
        <time>2022-04-03T14:33:34Z</time>
      </trkpt>
      <trkpt lat="47.7234" lon="3.55975">
        <ele>247.9</ele>
        <time>2022-04-03T14:33:35Z</time>
      </trkpt>
      <trkpt lat="47.72339" lon="3.55977">
        <ele>247.9</ele>
        <time>2022-04-03T14:33:36Z</time>
      </trkpt>
      <trkpt lat="47.72339" lon="3.55978">
        <ele>247.9</ele>
        <time>2022-04-03T14:33:37Z</time>
      </trkpt>
      <trkpt lat="47.72339" lon="3.55982">
        <ele>248</ele>
        <time>2022-04-03T14:33:39Z</time>
      </trkpt>
      <trkpt lat="47.72339" lon="3.55983">
        <ele>248.1</ele>
        <time>2022-04-03T14:33:40Z</time>
      </trkpt>
      <trkpt lat="47.72339" lon="3.55984">
        <ele>248.1</ele>
        <time>2022-04-03T14:33:41Z</time>
      </trkpt>
      <trkpt lat="47.72338" lon="3.55986">
        <ele>248.2</ele>
        <time>2022-04-03T14:33:42Z</time>
      </trkpt>
      <trkpt lat="47.72338" lon="3.55988">
        <ele>248.2</ele>
        <time>2022-04-03T14:33:43Z</time>
      </trkpt>
      <trkpt lat="47.72338" lon="3.5599">
        <ele>248.2</ele>
        <time>2022-04-03T14:33:44Z</time>
      </trkpt>
      <trkpt lat="47.72338" lon="3.55991">
        <ele>248.3</ele>
        <time>2022-04-03T14:33:45Z</time>
      </trkpt>
      <trkpt lat="47.72338" lon="3.55993">
        <ele>248.3</ele>
        <time>2022-04-03T14:33:46Z</time>
      </trkpt>
      <trkpt lat="47.72338" lon="3.55995">
        <ele>248.4</ele>
        <time>2022-04-03T14:33:47Z</time>
      </trkpt>
      <trkpt lat="47.72338" lon="3.55998">
        <ele>248.4</ele>
        <time>2022-04-03T14:33:49Z</time>
      </trkpt>
      <trkpt lat="47.72338" lon="3.56">
        <ele>248.5</ele>
        <time>2022-04-03T14:33:50Z</time>
      </trkpt>
      <trkpt lat="47.72338" lon="3.56001">
        <ele>248.5</ele>
        <time>2022-04-03T14:33:51Z</time>
      </trkpt>
      <trkpt lat="47.72338" lon="3.56003">
        <ele>248.5</ele>
        <time>2022-04-03T14:33:52Z</time>
      </trkpt>
      <trkpt lat="47.72337" lon="3.56005">
        <ele>248.6</ele>
        <time>2022-04-03T14:33:53Z</time>
      </trkpt>
      <trkpt lat="47.72337" lon="3.56008">
        <ele>248.6</ele>
        <time>2022-04-03T14:33:54Z</time>
      </trkpt>
      <trkpt lat="47.72337" lon="3.5601">
        <ele>248.6</ele>
        <time>2022-04-03T14:33:55Z</time>
      </trkpt>
      <trkpt lat="47.72337" lon="3.56011">
        <ele>248.7</ele>
        <time>2022-04-03T14:33:56Z</time>
      </trkpt>
      <trkpt lat="47.72337" lon="3.56012">
        <ele>248.7</ele>
        <time>2022-04-03T14:33:57Z</time>
      </trkpt>
      <trkpt lat="47.72337" lon="3.56014">
        <ele>248.7</ele>
        <time>2022-04-03T14:33:58Z</time>
      </trkpt>
      <trkpt lat="47.72336" lon="3.56016">
        <ele>248.7</ele>
        <time>2022-04-03T14:33:59Z</time>
      </trkpt>
      <trkpt lat="47.72336" lon="3.56018">
        <ele>248.8</ele>
        <time>2022-04-03T14:34:00Z</time>
      </trkpt>
      <trkpt lat="47.72336" lon="3.5602">
        <ele>248.8</ele>
        <time>2022-04-03T14:34:02Z</time>
      </trkpt>
      <trkpt lat="47.72336" lon="3.56022">
        <ele>248.8</ele>
        <time>2022-04-03T14:34:03Z</time>
      </trkpt>
      <trkpt lat="47.72336" lon="3.56024">
        <ele>248.9</ele>
        <time>2022-04-03T14:34:04Z</time>
      </trkpt>
      <trkpt lat="47.72336" lon="3.56026">
        <ele>248.9</ele>
        <time>2022-04-03T14:34:05Z</time>
      </trkpt>
      <trkpt lat="47.72336" lon="3.56028">
        <ele>248.9</ele>
        <time>2022-04-03T14:34:06Z</time>
      </trkpt>
      <trkpt lat="47.72336" lon="3.5603">
        <ele>249</ele>
        <time>2022-04-03T14:34:08Z</time>
      </trkpt>
      <trkpt lat="47.72336" lon="3.56033">
        <ele>249</ele>
        <time>2022-04-03T14:34:09Z</time>
      </trkpt>
      <trkpt lat="47.72336" lon="3.56034">
        <ele>249.1</ele>
        <time>2022-04-03T14:34:10Z</time>
      </trkpt>
      <trkpt lat="47.72336" lon="3.56036">
        <ele>249.1</ele>
        <time>2022-04-03T14:34:11Z</time>
      </trkpt>
      <trkpt lat="47.72336" lon="3.56038">
        <ele>249.1</ele>
        <time>2022-04-03T14:34:12Z</time>
      </trkpt>
      <trkpt lat="47.72336" lon="3.5604">
        <ele>249.1</ele>
        <time>2022-04-03T14:34:13Z</time>
      </trkpt>
      <trkpt lat="47.72335" lon="3.56042">
        <ele>249.2</ele>
        <time>2022-04-03T14:34:14Z</time>
      </trkpt>
      <trkpt lat="47.72335" lon="3.56044">
        <ele>249.2</ele>
        <time>2022-04-03T14:34:15Z</time>
      </trkpt>
      <trkpt lat="47.72335" lon="3.56047">
        <ele>249.3</ele>
        <time>2022-04-03T14:34:16Z</time>
      </trkpt>
      <trkpt lat="47.72335" lon="3.56048">
        <ele>249.3</ele>
        <time>2022-04-03T14:34:18Z</time>
      </trkpt>
      <trkpt lat="47.72335" lon="3.56049">
        <ele>249.3</ele>
        <time>2022-04-03T14:34:19Z</time>
      </trkpt>
      <trkpt lat="47.72335" lon="3.56051">
        <ele>249.4</ele>
        <time>2022-04-03T14:34:20Z</time>
      </trkpt>
      <trkpt lat="47.72335" lon="3.56054">
        <ele>249.4</ele>
        <time>2022-04-03T14:34:21Z</time>
      </trkpt>
      <trkpt lat="47.72335" lon="3.56057">
        <ele>249.4</ele>
        <time>2022-04-03T14:34:22Z</time>
      </trkpt>
      <trkpt lat="47.72335" lon="3.56058">
        <ele>249.5</ele>
        <time>2022-04-03T14:34:23Z</time>
      </trkpt>
      <trkpt lat="47.72335" lon="3.56059">
        <ele>249.5</ele>
        <time>2022-04-03T14:34:24Z</time>
      </trkpt>
      <trkpt lat="47.72335" lon="3.56062">
        <ele>249.5</ele>
        <time>2022-04-03T14:34:25Z</time>
      </trkpt>
      <trkpt lat="47.72335" lon="3.56064">
        <ele>249.6</ele>
        <time>2022-04-03T14:34:26Z</time>
      </trkpt>
      <trkpt lat="47.72335" lon="3.56065">
        <ele>249.6</ele>
        <time>2022-04-03T14:34:27Z</time>
      </trkpt>
      <trkpt lat="47.72335" lon="3.56068">
        <ele>249.6</ele>
        <time>2022-04-03T14:34:28Z</time>
      </trkpt>
      <trkpt lat="47.72335" lon="3.56069">
        <ele>249.6</ele>
        <time>2022-04-03T14:34:30Z</time>
      </trkpt>
      <trkpt lat="47.72335" lon="3.56071">
        <ele>249.7</ele>
        <time>2022-04-03T14:34:31Z</time>
      </trkpt>
      <trkpt lat="47.72335" lon="3.56072">
        <ele>249.7</ele>
        <time>2022-04-03T14:34:32Z</time>
      </trkpt>
      <trkpt lat="47.72335" lon="3.56074">
        <ele>249.7</ele>
        <time>2022-04-03T14:34:33Z</time>
      </trkpt>
      <trkpt lat="47.72335" lon="3.56076">
        <ele>249.7</ele>
        <time>2022-04-03T14:34:34Z</time>
      </trkpt>
      <trkpt lat="47.72336" lon="3.56079">
        <ele>249.7</ele>
        <time>2022-04-03T14:34:35Z</time>
      </trkpt>
      <trkpt lat="47.72336" lon="3.5608">
        <ele>249.7</ele>
        <time>2022-04-03T14:34:36Z</time>
      </trkpt>
      <trkpt lat="47.72336" lon="3.56082">
        <ele>249.8</ele>
        <time>2022-04-03T14:34:37Z</time>
      </trkpt>
      <trkpt lat="47.72336" lon="3.56084">
        <ele>249.8</ele>
        <time>2022-04-03T14:34:38Z</time>
      </trkpt>
      <trkpt lat="47.72336" lon="3.56086">
        <ele>249.8</ele>
        <time>2022-04-03T14:34:39Z</time>
      </trkpt>
      <trkpt lat="47.72336" lon="3.56088">
        <ele>249.8</ele>
        <time>2022-04-03T14:34:40Z</time>
      </trkpt>
      <trkpt lat="47.72336" lon="3.5609">
        <ele>249.8</ele>
        <time>2022-04-03T14:34:42Z</time>
      </trkpt>
      <trkpt lat="47.72337" lon="3.56092">
        <ele>249.8</ele>
        <time>2022-04-03T14:34:43Z</time>
      </trkpt>
      <trkpt lat="47.72337" lon="3.56095">
        <ele>249.8</ele>
        <time>2022-04-03T14:34:44Z</time>
      </trkpt>
      <trkpt lat="47.72337" lon="3.56097">
        <ele>249.8</ele>
        <time>2022-04-03T14:34:45Z</time>
      </trkpt>
      <trkpt lat="47.72337" lon="3.56099">
        <ele>249.9</ele>
        <time>2022-04-03T14:34:46Z</time>
      </trkpt>
      <trkpt lat="47.72337" lon="3.56101">
        <ele>249.9</ele>
        <time>2022-04-03T14:34:47Z</time>
      </trkpt>
      <trkpt lat="47.72338" lon="3.56104">
        <ele>249.9</ele>
        <time>2022-04-03T14:34:48Z</time>
      </trkpt>
      <trkpt lat="47.72337" lon="3.56105">
        <ele>249.9</ele>
        <time>2022-04-03T14:34:49Z</time>
      </trkpt>
      <trkpt lat="47.72338" lon="3.56108">
        <ele>249.9</ele>
        <time>2022-04-03T14:34:50Z</time>
      </trkpt>
      <trkpt lat="47.72337" lon="3.5611">
        <ele>249.9</ele>
        <time>2022-04-03T14:34:52Z</time>
      </trkpt>
      <trkpt lat="47.72337" lon="3.56112">
        <ele>249.9</ele>
        <time>2022-04-03T14:34:53Z</time>
      </trkpt>
      <trkpt lat="47.72337" lon="3.56115">
        <ele>249.9</ele>
        <time>2022-04-03T14:34:54Z</time>
      </trkpt>
      <trkpt lat="47.72337" lon="3.56117">
        <ele>249.9</ele>
        <time>2022-04-03T14:34:55Z</time>
      </trkpt>
      <trkpt lat="47.72337" lon="3.56119">
        <ele>249.9</ele>
        <time>2022-04-03T14:34:56Z</time>
      </trkpt>
      <trkpt lat="47.72338" lon="3.56121">
        <ele>249.9</ele>
        <time>2022-04-03T14:34:57Z</time>
      </trkpt>
      <trkpt lat="47.72338" lon="3.56123">
        <ele>249.9</ele>
        <time>2022-04-03T14:34:58Z</time>
      </trkpt>
      <trkpt lat="47.72338" lon="3.56125">
        <ele>249.9</ele>
        <time>2022-04-03T14:34:59Z</time>
      </trkpt>
      <trkpt lat="47.72339" lon="3.56128">
        <ele>249.9</ele>
        <time>2022-04-03T14:35:00Z</time>
      </trkpt>
      <trkpt lat="47.72339" lon="3.56131">
        <ele>249.9</ele>
        <time>2022-04-03T14:35:01Z</time>
      </trkpt>
      <trkpt lat="47.72339" lon="3.56132">
        <ele>249.9</ele>
        <time>2022-04-03T14:35:02Z</time>
      </trkpt>
      <trkpt lat="47.72339" lon="3.56134">
        <ele>249.9</ele>
        <time>2022-04-03T14:35:03Z</time>
      </trkpt>
      <trkpt lat="47.72339" lon="3.56137">
        <ele>249.9</ele>
        <time>2022-04-03T14:35:04Z</time>
      </trkpt>
      <trkpt lat="47.72339" lon="3.56138">
        <ele>249.9</ele>
        <time>2022-04-03T14:35:05Z</time>
      </trkpt>
      <trkpt lat="47.7234" lon="3.56139">
        <ele>249.9</ele>
        <time>2022-04-03T14:35:06Z</time>
      </trkpt>
      <trkpt lat="47.7234" lon="3.56141">
        <ele>249.9</ele>
        <time>2022-04-03T14:35:08Z</time>
      </trkpt>
      <trkpt lat="47.7234" lon="3.56143">
        <ele>249.8</ele>
        <time>2022-04-03T14:35:09Z</time>
      </trkpt>
      <trkpt lat="47.72341" lon="3.56146">
        <ele>249.8</ele>
        <time>2022-04-03T14:35:10Z</time>
      </trkpt>
      <trkpt lat="47.72341" lon="3.56148">
        <ele>249.8</ele>
        <time>2022-04-03T14:35:11Z</time>
      </trkpt>
      <trkpt lat="47.72341" lon="3.5615">
        <ele>249.8</ele>
        <time>2022-04-03T14:35:12Z</time>
      </trkpt>
      <trkpt lat="47.72342" lon="3.56152">
        <ele>249.8</ele>
        <time>2022-04-03T14:35:13Z</time>
      </trkpt>
      <trkpt lat="47.72342" lon="3.56154">
        <ele>249.7</ele>
        <time>2022-04-03T14:35:14Z</time>
      </trkpt>
      <trkpt lat="47.72342" lon="3.56155">
        <ele>249.7</ele>
        <time>2022-04-03T14:35:15Z</time>
      </trkpt>
      <trkpt lat="47.72342" lon="3.56157">
        <ele>249.7</ele>
        <time>2022-04-03T14:35:17Z</time>
      </trkpt>
      <trkpt lat="47.72343" lon="3.56159">
        <ele>249.7</ele>
        <time>2022-04-03T14:35:18Z</time>
      </trkpt>
      <trkpt lat="47.72343" lon="3.56161">
        <ele>249.7</ele>
        <time>2022-04-03T14:35:19Z</time>
      </trkpt>
      <trkpt lat="47.72343" lon="3.56163">
        <ele>249.7</ele>
        <time>2022-04-03T14:35:20Z</time>
      </trkpt>
      <trkpt lat="47.72343" lon="3.56165">
        <ele>249.6</ele>
        <time>2022-04-03T14:35:21Z</time>
      </trkpt>
      <trkpt lat="47.72345" lon="3.56166">
        <ele>249.6</ele>
        <time>2022-04-03T14:35:22Z</time>
      </trkpt>
      <trkpt lat="47.72346" lon="3.56166">
        <ele>249.6</ele>
        <time>2022-04-03T14:35:23Z</time>
      </trkpt>
      <trkpt lat="47.72347" lon="3.56166">
        <ele>249.6</ele>
        <time>2022-04-03T14:35:24Z</time>
      </trkpt>
      <trkpt lat="47.72348" lon="3.56165">
        <ele>249.6</ele>
        <time>2022-04-03T14:35:25Z</time>
      </trkpt>
      <trkpt lat="47.72349" lon="3.56164">
        <ele>249.6</ele>
        <time>2022-04-03T14:35:26Z</time>
      </trkpt>
      <trkpt lat="47.72349" lon="3.56163">
        <ele>249.6</ele>
        <time>2022-04-03T14:35:27Z</time>
      </trkpt>
      <trkpt lat="47.72349" lon="3.56163">
        <ele>249.6</ele>
        <time>2022-04-03T14:35:28Z</time>
      </trkpt>
      <trkpt lat="47.72349" lon="3.56163">
        <ele>249.6</ele>
        <time>2022-04-03T14:35:29Z</time>
      </trkpt>
      <trkpt lat="47.72349" lon="3.56162">
        <ele>249.5</ele>
        <time>2022-04-03T14:35:30Z</time>
      </trkpt>
      <trkpt lat="47.72349" lon="3.56162">
        <ele>249.5</ele>
        <time>2022-04-03T14:35:31Z</time>
      </trkpt>
      <trkpt lat="47.72349" lon="3.56162">
        <ele>249.5</ele>
        <time>2022-04-03T14:35:32Z</time>
      </trkpt>
      <trkpt lat="47.72349" lon="3.56162">
        <ele>249.5</ele>
        <time>2022-04-03T14:35:33Z</time>
      </trkpt>
      <trkpt lat="47.72349" lon="3.56162">
        <ele>249.5</ele>
        <time>2022-04-03T14:35:34Z</time>
      </trkpt>
      <trkpt lat="47.72349" lon="3.56162">
        <ele>249.5</ele>
        <time>2022-04-03T14:35:35Z</time>
      </trkpt>
      <trkpt lat="47.72349" lon="3.56162">
        <ele>249.5</ele>
        <time>2022-04-03T14:35:36Z</time>
      </trkpt>
      <trkpt lat="47.72349" lon="3.56161">
        <ele>249.5</ele>
        <time>2022-04-03T14:35:37Z</time>
      </trkpt>
      <trkpt lat="47.72349" lon="3.56162">
        <ele>249.5</ele>
        <time>2022-04-03T14:35:38Z</time>
      </trkpt>
      <trkpt lat="47.72349" lon="3.56162">
        <ele>249.5</ele>
        <time>2022-04-03T14:35:39Z</time>
      </trkpt>
      <trkpt lat="47.72348" lon="3.56163">
        <ele>249.5</ele>
        <time>2022-04-03T14:35:40Z</time>
      </trkpt>
      <trkpt lat="47.72348" lon="3.56164">
        <ele>249.5</ele>
        <time>2022-04-03T14:35:41Z</time>
      </trkpt>
      <trkpt lat="47.72348" lon="3.56165">
        <ele>249.5</ele>
        <time>2022-04-03T14:35:42Z</time>
      </trkpt>
      <trkpt lat="47.72348" lon="3.56165">
        <ele>249.5</ele>
        <time>2022-04-03T14:35:43Z</time>
      </trkpt>
      <trkpt lat="47.72348" lon="3.56164">
        <ele>249.5</ele>
        <time>2022-04-03T14:35:44Z</time>
      </trkpt>
      <trkpt lat="47.72348" lon="3.56164">
        <ele>249.5</ele>
        <time>2022-04-03T14:35:45Z</time>
      </trkpt>
      <trkpt lat="47.72347" lon="3.56164">
        <ele>249.5</ele>
        <time>2022-04-03T14:35:46Z</time>
      </trkpt>
      <trkpt lat="47.72347" lon="3.56164">
        <ele>249.5</ele>
        <time>2022-04-03T14:35:47Z</time>
      </trkpt>
      <trkpt lat="47.72347" lon="3.56164">
        <ele>249.5</ele>
        <time>2022-04-03T14:35:48Z</time>
      </trkpt>
      <trkpt lat="47.72347" lon="3.56164">
        <ele>249.5</ele>
        <time>2022-04-03T14:35:49Z</time>
      </trkpt>
      <trkpt lat="47.72346" lon="3.56164">
        <ele>249.5</ele>
        <time>2022-04-03T14:35:50Z</time>
      </trkpt>
      <trkpt lat="47.72346" lon="3.56165">
        <ele>249.5</ele>
        <time>2022-04-03T14:35:52Z</time>
      </trkpt>
      <trkpt lat="47.72345" lon="3.56166">
        <ele>249.5</ele>
        <time>2022-04-03T14:35:53Z</time>
      </trkpt>
      <trkpt lat="47.72345" lon="3.56168">
        <ele>249.4</ele>
        <time>2022-04-03T14:35:54Z</time>
      </trkpt>
      <trkpt lat="47.72344" lon="3.5617">
        <ele>249.4</ele>
        <time>2022-04-03T14:35:55Z</time>
      </trkpt>
      <trkpt lat="47.72343" lon="3.56172">
        <ele>249.4</ele>
        <time>2022-04-03T14:35:56Z</time>
      </trkpt>
      <trkpt lat="47.72343" lon="3.56174">
        <ele>249.4</ele>
        <time>2022-04-03T14:35:57Z</time>
      </trkpt>
      <trkpt lat="47.72343" lon="3.56176">
        <ele>249.4</ele>
        <time>2022-04-03T14:35:58Z</time>
      </trkpt>
      <trkpt lat="47.72343" lon="3.56178">
        <ele>249.3</ele>
        <time>2022-04-03T14:36:00Z</time>
      </trkpt>
      <trkpt lat="47.72343" lon="3.56181">
        <ele>249.3</ele>
        <time>2022-04-03T14:36:01Z</time>
      </trkpt>
      <trkpt lat="47.72342" lon="3.56183">
        <ele>249.3</ele>
        <time>2022-04-03T14:36:02Z</time>
      </trkpt>
      <trkpt lat="47.72343" lon="3.56186">
        <ele>249.3</ele>
        <time>2022-04-03T14:36:03Z</time>
      </trkpt>
      <trkpt lat="47.72343" lon="3.56188">
        <ele>249.2</ele>
        <time>2022-04-03T14:36:04Z</time>
      </trkpt>
      <trkpt lat="47.72343" lon="3.56191">
        <ele>249.2</ele>
        <time>2022-04-03T14:36:05Z</time>
      </trkpt>
      <trkpt lat="47.72344" lon="3.56193">
        <ele>249.2</ele>
        <time>2022-04-03T14:36:07Z</time>
      </trkpt>
      <trkpt lat="47.72344" lon="3.56195">
        <ele>249.1</ele>
        <time>2022-04-03T14:36:08Z</time>
      </trkpt>
      <trkpt lat="47.72344" lon="3.56198">
        <ele>249.1</ele>
        <time>2022-04-03T14:36:09Z</time>
      </trkpt>
      <trkpt lat="47.72345" lon="3.562">
        <ele>249.1</ele>
        <time>2022-04-03T14:36:10Z</time>
      </trkpt>
      <trkpt lat="47.72345" lon="3.56202">
        <ele>249</ele>
        <time>2022-04-03T14:36:11Z</time>
      </trkpt>
      <trkpt lat="47.72346" lon="3.56204">
        <ele>249</ele>
        <time>2022-04-03T14:36:12Z</time>
      </trkpt>
      <trkpt lat="47.72346" lon="3.56206">
        <ele>249</ele>
        <time>2022-04-03T14:36:13Z</time>
      </trkpt>
      <trkpt lat="47.72347" lon="3.56209">
        <ele>249</ele>
        <time>2022-04-03T14:36:15Z</time>
      </trkpt>
      <trkpt lat="47.72347" lon="3.56212">
        <ele>248.9</ele>
        <time>2022-04-03T14:36:16Z</time>
      </trkpt>
      <trkpt lat="47.72348" lon="3.56214">
        <ele>248.9</ele>
        <time>2022-04-03T14:36:17Z</time>
      </trkpt>
      <trkpt lat="47.72348" lon="3.56216">
        <ele>248.9</ele>
        <time>2022-04-03T14:36:18Z</time>
      </trkpt>
      <trkpt lat="47.72349" lon="3.56218">
        <ele>248.9</ele>
        <time>2022-04-03T14:36:19Z</time>
      </trkpt>
      <trkpt lat="47.72349" lon="3.56221">
        <ele>248.8</ele>
        <time>2022-04-03T14:36:20Z</time>
      </trkpt>
      <trkpt lat="47.7235" lon="3.56223">
        <ele>248.8</ele>
        <time>2022-04-03T14:36:21Z</time>
      </trkpt>
      <trkpt lat="47.7235" lon="3.56225">
        <ele>248.8</ele>
        <time>2022-04-03T14:36:22Z</time>
      </trkpt>
      <trkpt lat="47.7235" lon="3.56228">
        <ele>248.8</ele>
        <time>2022-04-03T14:36:23Z</time>
      </trkpt>
      <trkpt lat="47.7235" lon="3.56229">
        <ele>248.8</ele>
        <time>2022-04-03T14:36:24Z</time>
      </trkpt>
      <trkpt lat="47.7235" lon="3.56232">
        <ele>248.8</ele>
        <time>2022-04-03T14:36:26Z</time>
      </trkpt>
      <trkpt lat="47.7235" lon="3.56232">
        <ele>248.8</ele>
        <time>2022-04-03T14:36:27Z</time>
      </trkpt>
      <trkpt lat="47.72349" lon="3.56232">
        <ele>248.7</ele>
        <time>2022-04-03T14:36:28Z</time>
      </trkpt>
      <trkpt lat="47.72349" lon="3.56232">
        <ele>248.7</ele>
        <time>2022-04-03T14:36:29Z</time>
      </trkpt>
      <trkpt lat="47.72349" lon="3.56232">
        <ele>248.7</ele>
        <time>2022-04-03T14:36:30Z</time>
      </trkpt>
      <trkpt lat="47.72349" lon="3.56231">
        <ele>248.7</ele>
        <time>2022-04-03T14:36:31Z</time>
      </trkpt>
      <trkpt lat="47.72348" lon="3.56231">
        <ele>248.7</ele>
        <time>2022-04-03T14:36:32Z</time>
      </trkpt>
      <trkpt lat="47.72348" lon="3.5623">
        <ele>248.7</ele>
        <time>2022-04-03T14:36:33Z</time>
      </trkpt>
      <trkpt lat="47.72348" lon="3.5623">
        <ele>248.7</ele>
        <time>2022-04-03T14:36:34Z</time>
      </trkpt>
      <trkpt lat="47.72348" lon="3.56229">
        <ele>248.7</ele>
        <time>2022-04-03T14:36:35Z</time>
      </trkpt>
      <trkpt lat="47.72347" lon="3.56229">
        <ele>248.7</ele>
        <time>2022-04-03T14:36:36Z</time>
      </trkpt>
      <trkpt lat="47.72347" lon="3.56229">
        <ele>248.7</ele>
        <time>2022-04-03T14:36:37Z</time>
      </trkpt>
      <trkpt lat="47.72347" lon="3.56228">
        <ele>248.7</ele>
        <time>2022-04-03T14:36:38Z</time>
      </trkpt>
      <trkpt lat="47.72347" lon="3.56228">
        <ele>248.7</ele>
        <time>2022-04-03T14:36:39Z</time>
      </trkpt>
      <trkpt lat="47.72347" lon="3.56227">
        <ele>248.7</ele>
        <time>2022-04-03T14:36:40Z</time>
      </trkpt>
      <trkpt lat="47.72347" lon="3.56227">
        <ele>248.7</ele>
        <time>2022-04-03T14:36:41Z</time>
      </trkpt>
      <trkpt lat="47.72348" lon="3.56226">
        <ele>248.7</ele>
        <time>2022-04-03T14:36:43Z</time>
      </trkpt>
      <trkpt lat="47.72348" lon="3.56227">
        <ele>248.7</ele>
        <time>2022-04-03T14:36:44Z</time>
      </trkpt>
      <trkpt lat="47.72348" lon="3.56228">
        <ele>248.7</ele>
        <time>2022-04-03T14:36:45Z</time>
      </trkpt>
      <trkpt lat="47.72349" lon="3.56229">
        <ele>248.7</ele>
        <time>2022-04-03T14:36:46Z</time>
      </trkpt>
      <trkpt lat="47.72349" lon="3.56231">
        <ele>248.7</ele>
        <time>2022-04-03T14:36:47Z</time>
      </trkpt>
      <trkpt lat="47.7235" lon="3.56233">
        <ele>248.6</ele>
        <time>2022-04-03T14:36:48Z</time>
      </trkpt>
      <trkpt lat="47.7235" lon="3.56236">
        <ele>248.6</ele>
        <time>2022-04-03T14:36:50Z</time>
      </trkpt>
      <trkpt lat="47.72351" lon="3.56238">
        <ele>248.6</ele>
        <time>2022-04-03T14:36:51Z</time>
      </trkpt>
      <trkpt lat="47.72351" lon="3.5624">
        <ele>248.6</ele>
        <time>2022-04-03T14:36:52Z</time>
      </trkpt>
      <trkpt lat="47.72352" lon="3.56242">
        <ele>248.6</ele>
        <time>2022-04-03T14:36:53Z</time>
      </trkpt>
      <trkpt lat="47.72352" lon="3.56244">
        <ele>248.6</ele>
        <time>2022-04-03T14:36:54Z</time>
      </trkpt>
      <trkpt lat="47.72353" lon="3.56246">
        <ele>248.5</ele>
        <time>2022-04-03T14:36:55Z</time>
      </trkpt>
      <trkpt lat="47.72355" lon="3.56251">
        <ele>248.5</ele>
        <time>2022-04-03T14:36:57Z</time>
      </trkpt>
      <trkpt lat="47.72355" lon="3.56252">
        <ele>248.5</ele>
        <time>2022-04-03T14:36:58Z</time>
      </trkpt>
      <trkpt lat="47.72356" lon="3.56255">
        <ele>248.5</ele>
        <time>2022-04-03T14:36:59Z</time>
      </trkpt>
      <trkpt lat="47.72356" lon="3.56256">
        <ele>248.4</ele>
        <time>2022-04-03T14:37:00Z</time>
      </trkpt>
      <trkpt lat="47.72356" lon="3.56258">
        <ele>248.4</ele>
        <time>2022-04-03T14:37:01Z</time>
      </trkpt>
      <trkpt lat="47.72357" lon="3.5626">
        <ele>248.4</ele>
        <time>2022-04-03T14:37:02Z</time>
      </trkpt>
      <trkpt lat="47.72357" lon="3.56262">
        <ele>248.4</ele>
        <time>2022-04-03T14:37:03Z</time>
      </trkpt>
      <trkpt lat="47.72357" lon="3.56264">
        <ele>248.4</ele>
        <time>2022-04-03T14:37:04Z</time>
      </trkpt>
      <trkpt lat="47.72358" lon="3.56266">
        <ele>248.4</ele>
        <time>2022-04-03T14:37:05Z</time>
      </trkpt>
      <trkpt lat="47.72358" lon="3.56268">
        <ele>248.4</ele>
        <time>2022-04-03T14:37:06Z</time>
      </trkpt>
      <trkpt lat="47.72359" lon="3.5627">
        <ele>248.3</ele>
        <time>2022-04-03T14:37:08Z</time>
      </trkpt>
      <trkpt lat="47.72359" lon="3.56273">
        <ele>248.3</ele>
        <time>2022-04-03T14:37:09Z</time>
      </trkpt>
      <trkpt lat="47.7236" lon="3.56275">
        <ele>248.3</ele>
        <time>2022-04-03T14:37:10Z</time>
      </trkpt>
      <trkpt lat="47.7236" lon="3.56277">
        <ele>248.3</ele>
        <time>2022-04-03T14:37:11Z</time>
      </trkpt>
      <trkpt lat="47.72361" lon="3.56278">
        <ele>248.3</ele>
        <time>2022-04-03T14:37:12Z</time>
      </trkpt>
      <trkpt lat="47.72361" lon="3.5628">
        <ele>248.3</ele>
        <time>2022-04-03T14:37:13Z</time>
      </trkpt>
      <trkpt lat="47.72362" lon="3.56283">
        <ele>248.3</ele>
        <time>2022-04-03T14:37:14Z</time>
      </trkpt>
      <trkpt lat="47.72362" lon="3.56284">
        <ele>248.3</ele>
        <time>2022-04-03T14:37:15Z</time>
      </trkpt>
      <trkpt lat="47.72363" lon="3.56285">
        <ele>248.3</ele>
        <time>2022-04-03T14:37:16Z</time>
      </trkpt>
      <trkpt lat="47.72364" lon="3.56287">
        <ele>248.2</ele>
        <time>2022-04-03T14:37:18Z</time>
      </trkpt>
      <trkpt lat="47.72364" lon="3.5629">
        <ele>248.2</ele>
        <time>2022-04-03T14:37:19Z</time>
      </trkpt>
      <trkpt lat="47.72365" lon="3.56292">
        <ele>248.2</ele>
        <time>2022-04-03T14:37:20Z</time>
      </trkpt>
      <trkpt lat="47.72365" lon="3.56294">
        <ele>248.2</ele>
        <time>2022-04-03T14:37:21Z</time>
      </trkpt>
      <trkpt lat="47.72366" lon="3.56296">
        <ele>248.2</ele>
        <time>2022-04-03T14:37:22Z</time>
      </trkpt>
      <trkpt lat="47.72367" lon="3.56298">
        <ele>248.2</ele>
        <time>2022-04-03T14:37:23Z</time>
      </trkpt>
      <trkpt lat="47.72367" lon="3.563">
        <ele>248.2</ele>
        <time>2022-04-03T14:37:24Z</time>
      </trkpt>
      <trkpt lat="47.72368" lon="3.56302">
        <ele>248.2</ele>
        <time>2022-04-03T14:37:25Z</time>
      </trkpt>
      <trkpt lat="47.72369" lon="3.56304">
        <ele>248.2</ele>
        <time>2022-04-03T14:37:26Z</time>
      </trkpt>
      <trkpt lat="47.72369" lon="3.56306">
        <ele>248.1</ele>
        <time>2022-04-03T14:37:27Z</time>
      </trkpt>
      <trkpt lat="47.7237" lon="3.56308">
        <ele>248.1</ele>
        <time>2022-04-03T14:37:28Z</time>
      </trkpt>
      <trkpt lat="47.7237" lon="3.56311">
        <ele>248.1</ele>
        <time>2022-04-03T14:37:29Z</time>
      </trkpt>
      <trkpt lat="47.72371" lon="3.56312">
        <ele>248.1</ele>
        <time>2022-04-03T14:37:30Z</time>
      </trkpt>
      <trkpt lat="47.72371" lon="3.56314">
        <ele>248.1</ele>
        <time>2022-04-03T14:37:32Z</time>
      </trkpt>
      <trkpt lat="47.72372" lon="3.56316">
        <ele>248.1</ele>
        <time>2022-04-03T14:37:33Z</time>
      </trkpt>
      <trkpt lat="47.72372" lon="3.56318">
        <ele>248.1</ele>
        <time>2022-04-03T14:37:34Z</time>
      </trkpt>
      <trkpt lat="47.72373" lon="3.5632">
        <ele>248.1</ele>
        <time>2022-04-03T14:37:35Z</time>
      </trkpt>
      <trkpt lat="47.72374" lon="3.56323">
        <ele>248.1</ele>
        <time>2022-04-03T14:37:36Z</time>
      </trkpt>
      <trkpt lat="47.72374" lon="3.56325">
        <ele>248.1</ele>
        <time>2022-04-03T14:37:37Z</time>
      </trkpt>
      <trkpt lat="47.72375" lon="3.56327">
        <ele>248.1</ele>
        <time>2022-04-03T14:37:38Z</time>
      </trkpt>
      <trkpt lat="47.72375" lon="3.56329">
        <ele>248</ele>
        <time>2022-04-03T14:37:39Z</time>
      </trkpt>
      <trkpt lat="47.72376" lon="3.56331">
        <ele>248</ele>
        <time>2022-04-03T14:37:40Z</time>
      </trkpt>
      <trkpt lat="47.72376" lon="3.56333">
        <ele>248</ele>
        <time>2022-04-03T14:37:42Z</time>
      </trkpt>
      <trkpt lat="47.72377" lon="3.56335">
        <ele>248</ele>
        <time>2022-04-03T14:37:43Z</time>
      </trkpt>
      <trkpt lat="47.72377" lon="3.56337">
        <ele>248</ele>
        <time>2022-04-03T14:37:44Z</time>
      </trkpt>
      <trkpt lat="47.72378" lon="3.56339">
        <ele>248</ele>
        <time>2022-04-03T14:37:45Z</time>
      </trkpt>
      <trkpt lat="47.72379" lon="3.56341">
        <ele>248</ele>
        <time>2022-04-03T14:37:46Z</time>
      </trkpt>
      <trkpt lat="47.72379" lon="3.56343">
        <ele>248</ele>
        <time>2022-04-03T14:37:47Z</time>
      </trkpt>
      <trkpt lat="47.7238" lon="3.56345">
        <ele>248</ele>
        <time>2022-04-03T14:37:48Z</time>
      </trkpt>
      <trkpt lat="47.72381" lon="3.56347">
        <ele>248</ele>
        <time>2022-04-03T14:37:49Z</time>
      </trkpt>
      <trkpt lat="47.72381" lon="3.56348">
        <ele>248</ele>
        <time>2022-04-03T14:37:50Z</time>
      </trkpt>
      <trkpt lat="47.72382" lon="3.5635">
        <ele>248</ele>
        <time>2022-04-03T14:37:51Z</time>
      </trkpt>
      <trkpt lat="47.72382" lon="3.56352">
        <ele>248</ele>
        <time>2022-04-03T14:37:52Z</time>
      </trkpt>
      <trkpt lat="47.72383" lon="3.56354">
        <ele>248</ele>
        <time>2022-04-03T14:37:54Z</time>
      </trkpt>
      <trkpt lat="47.72383" lon="3.56356">
        <ele>248</ele>
        <time>2022-04-03T14:37:55Z</time>
      </trkpt>
      <trkpt lat="47.72384" lon="3.56358">
        <ele>248</ele>
        <time>2022-04-03T14:37:56Z</time>
      </trkpt>
      <trkpt lat="47.72384" lon="3.5636">
        <ele>248</ele>
        <time>2022-04-03T14:37:57Z</time>
      </trkpt>
      <trkpt lat="47.72385" lon="3.56361">
        <ele>248</ele>
        <time>2022-04-03T14:37:58Z</time>
      </trkpt>
      <trkpt lat="47.72385" lon="3.56363">
        <ele>248</ele>
        <time>2022-04-03T14:37:59Z</time>
      </trkpt>
      <trkpt lat="47.72386" lon="3.56365">
        <ele>248</ele>
        <time>2022-04-03T14:38:00Z</time>
      </trkpt>
      <trkpt lat="47.72387" lon="3.56367">
        <ele>248</ele>
        <time>2022-04-03T14:38:02Z</time>
      </trkpt>
      <trkpt lat="47.72387" lon="3.56369">
        <ele>248</ele>
        <time>2022-04-03T14:38:03Z</time>
      </trkpt>
      <trkpt lat="47.72388" lon="3.56371">
        <ele>248</ele>
        <time>2022-04-03T14:38:04Z</time>
      </trkpt>
      <trkpt lat="47.72388" lon="3.56374">
        <ele>248</ele>
        <time>2022-04-03T14:38:05Z</time>
      </trkpt>
      <trkpt lat="47.72389" lon="3.56376">
        <ele>248</ele>
        <time>2022-04-03T14:38:06Z</time>
      </trkpt>
      <trkpt lat="47.7239" lon="3.56378">
        <ele>248</ele>
        <time>2022-04-03T14:38:07Z</time>
      </trkpt>
      <trkpt lat="47.72391" lon="3.56382">
        <ele>248</ele>
        <time>2022-04-03T14:38:09Z</time>
      </trkpt>
      <trkpt lat="47.72391" lon="3.56383">
        <ele>248</ele>
        <time>2022-04-03T14:38:10Z</time>
      </trkpt>
      <trkpt lat="47.72392" lon="3.56385">
        <ele>248</ele>
        <time>2022-04-03T14:38:11Z</time>
      </trkpt>
      <trkpt lat="47.72392" lon="3.56388">
        <ele>248</ele>
        <time>2022-04-03T14:38:12Z</time>
      </trkpt>
      <trkpt lat="47.72393" lon="3.5639">
        <ele>248</ele>
        <time>2022-04-03T14:38:13Z</time>
      </trkpt>
      <trkpt lat="47.72393" lon="3.56392">
        <ele>248</ele>
        <time>2022-04-03T14:38:14Z</time>
      </trkpt>
      <trkpt lat="47.72394" lon="3.56395">
        <ele>248</ele>
        <time>2022-04-03T14:38:15Z</time>
      </trkpt>
      <trkpt lat="47.72394" lon="3.56396">
        <ele>248</ele>
        <time>2022-04-03T14:38:16Z</time>
      </trkpt>
      <trkpt lat="47.72395" lon="3.56398">
        <ele>248</ele>
        <time>2022-04-03T14:38:17Z</time>
      </trkpt>
      <trkpt lat="47.72395" lon="3.564">
        <ele>248</ele>
        <time>2022-04-03T14:38:18Z</time>
      </trkpt>
      <trkpt lat="47.72395" lon="3.56402">
        <ele>248</ele>
        <time>2022-04-03T14:38:19Z</time>
      </trkpt>
      <trkpt lat="47.72396" lon="3.56405">
        <ele>248</ele>
        <time>2022-04-03T14:38:20Z</time>
      </trkpt>
      <trkpt lat="47.72396" lon="3.56406">
        <ele>248</ele>
        <time>2022-04-03T14:38:22Z</time>
      </trkpt>
      <trkpt lat="47.72396" lon="3.56408">
        <ele>248</ele>
        <time>2022-04-03T14:38:23Z</time>
      </trkpt>
      <trkpt lat="47.72397" lon="3.56411">
        <ele>248</ele>
        <time>2022-04-03T14:38:24Z</time>
      </trkpt>
      <trkpt lat="47.72397" lon="3.56412">
        <ele>248</ele>
        <time>2022-04-03T14:38:25Z</time>
      </trkpt>
      <trkpt lat="47.72397" lon="3.56413">
        <ele>248</ele>
        <time>2022-04-03T14:38:26Z</time>
      </trkpt>
      <trkpt lat="47.72398" lon="3.56416">
        <ele>248</ele>
        <time>2022-04-03T14:38:28Z</time>
      </trkpt>
      <trkpt lat="47.72398" lon="3.56417">
        <ele>248</ele>
        <time>2022-04-03T14:38:29Z</time>
      </trkpt>
      <trkpt lat="47.72399" lon="3.56418">
        <ele>248</ele>
        <time>2022-04-03T14:38:30Z</time>
      </trkpt>
      <trkpt lat="47.72399" lon="3.56421">
        <ele>247.9</ele>
        <time>2022-04-03T14:38:31Z</time>
      </trkpt>
      <trkpt lat="47.72399" lon="3.56422">
        <ele>247.9</ele>
        <time>2022-04-03T14:38:32Z</time>
      </trkpt>
      <trkpt lat="47.72399" lon="3.56424">
        <ele>247.9</ele>
        <time>2022-04-03T14:38:33Z</time>
      </trkpt>
      <trkpt lat="47.724" lon="3.56425">
        <ele>247.9</ele>
        <time>2022-04-03T14:38:34Z</time>
      </trkpt>
      <trkpt lat="47.724" lon="3.56427">
        <ele>247.9</ele>
        <time>2022-04-03T14:38:35Z</time>
      </trkpt>
      <trkpt lat="47.724" lon="3.56429">
        <ele>247.9</ele>
        <time>2022-04-03T14:38:36Z</time>
      </trkpt>
      <trkpt lat="47.72401" lon="3.56432">
        <ele>247.9</ele>
        <time>2022-04-03T14:38:37Z</time>
      </trkpt>
      <trkpt lat="47.72402" lon="3.56433">
        <ele>247.9</ele>
        <time>2022-04-03T14:38:38Z</time>
      </trkpt>
      <trkpt lat="47.72402" lon="3.56434">
        <ele>247.9</ele>
        <time>2022-04-03T14:38:40Z</time>
      </trkpt>
      <trkpt lat="47.72403" lon="3.56435">
        <ele>247.9</ele>
        <time>2022-04-03T14:38:41Z</time>
      </trkpt>
      <trkpt lat="47.72403" lon="3.56437">
        <ele>247.9</ele>
        <time>2022-04-03T14:38:42Z</time>
      </trkpt>
      <trkpt lat="47.72403" lon="3.56438">
        <ele>247.9</ele>
        <time>2022-04-03T14:38:43Z</time>
      </trkpt>
      <trkpt lat="47.72405" lon="3.56441">
        <ele>247.9</ele>
        <time>2022-04-03T14:38:44Z</time>
      </trkpt>
      <trkpt lat="47.72405" lon="3.56442">
        <ele>247.9</ele>
        <time>2022-04-03T14:38:45Z</time>
      </trkpt>
      <trkpt lat="47.72406" lon="3.56443">
        <ele>247.9</ele>
        <time>2022-04-03T14:38:46Z</time>
      </trkpt>
      <trkpt lat="47.72406" lon="3.56445">
        <ele>247.9</ele>
        <time>2022-04-03T14:38:48Z</time>
      </trkpt>
      <trkpt lat="47.72407" lon="3.56447">
        <ele>247.9</ele>
        <time>2022-04-03T14:38:49Z</time>
      </trkpt>
      <trkpt lat="47.72408" lon="3.56449">
        <ele>247.9</ele>
        <time>2022-04-03T14:38:50Z</time>
      </trkpt>
      <trkpt lat="47.72408" lon="3.56451">
        <ele>247.9</ele>
        <time>2022-04-03T14:38:51Z</time>
      </trkpt>
      <trkpt lat="47.72409" lon="3.56453">
        <ele>247.8</ele>
        <time>2022-04-03T14:38:52Z</time>
      </trkpt>
      <trkpt lat="47.7241" lon="3.56455">
        <ele>247.8</ele>
        <time>2022-04-03T14:38:53Z</time>
      </trkpt>
      <trkpt lat="47.7241" lon="3.56456">
        <ele>247.8</ele>
        <time>2022-04-03T14:38:54Z</time>
      </trkpt>
      <trkpt lat="47.72411" lon="3.56458">
        <ele>247.8</ele>
        <time>2022-04-03T14:38:55Z</time>
      </trkpt>
      <trkpt lat="47.72412" lon="3.5646">
        <ele>247.8</ele>
        <time>2022-04-03T14:38:57Z</time>
      </trkpt>
      <trkpt lat="47.72413" lon="3.56462">
        <ele>247.8</ele>
        <time>2022-04-03T14:38:58Z</time>
      </trkpt>
      <trkpt lat="47.72414" lon="3.56465">
        <ele>247.8</ele>
        <time>2022-04-03T14:38:59Z</time>
      </trkpt>
      <trkpt lat="47.72414" lon="3.56466">
        <ele>247.8</ele>
        <time>2022-04-03T14:39:00Z</time>
      </trkpt>
      <trkpt lat="47.72415" lon="3.56467">
        <ele>247.8</ele>
        <time>2022-04-03T14:39:01Z</time>
      </trkpt>
      <trkpt lat="47.72416" lon="3.56469">
        <ele>247.7</ele>
        <time>2022-04-03T14:39:02Z</time>
      </trkpt>
      <trkpt lat="47.72417" lon="3.56471">
        <ele>247.7</ele>
        <time>2022-04-03T14:39:03Z</time>
      </trkpt>
      <trkpt lat="47.72417" lon="3.56473">
        <ele>247.7</ele>
        <time>2022-04-03T14:39:04Z</time>
      </trkpt>
      <trkpt lat="47.72418" lon="3.56475">
        <ele>247.7</ele>
        <time>2022-04-03T14:39:05Z</time>
      </trkpt>
      <trkpt lat="47.72418" lon="3.56477">
        <ele>247.7</ele>
        <time>2022-04-03T14:39:07Z</time>
      </trkpt>
      <trkpt lat="47.72419" lon="3.56479">
        <ele>247.7</ele>
        <time>2022-04-03T14:39:08Z</time>
      </trkpt>
      <trkpt lat="47.7242" lon="3.56481">
        <ele>247.7</ele>
        <time>2022-04-03T14:39:09Z</time>
      </trkpt>
      <trkpt lat="47.7242" lon="3.56483">
        <ele>247.7</ele>
        <time>2022-04-03T14:39:10Z</time>
      </trkpt>
      <trkpt lat="47.7242" lon="3.56485">
        <ele>247.6</ele>
        <time>2022-04-03T14:39:11Z</time>
      </trkpt>
      <trkpt lat="47.72421" lon="3.56487">
        <ele>247.6</ele>
        <time>2022-04-03T14:39:12Z</time>
      </trkpt>
      <trkpt lat="47.72422" lon="3.56489">
        <ele>247.6</ele>
        <time>2022-04-03T14:39:13Z</time>
      </trkpt>
      <trkpt lat="47.72422" lon="3.56491">
        <ele>247.6</ele>
        <time>2022-04-03T14:39:14Z</time>
      </trkpt>
      <trkpt lat="47.72422" lon="3.56492">
        <ele>247.6</ele>
        <time>2022-04-03T14:39:15Z</time>
      </trkpt>
      <trkpt lat="47.72423" lon="3.56493">
        <ele>247.6</ele>
        <time>2022-04-03T14:39:16Z</time>
      </trkpt>
      <trkpt lat="47.72423" lon="3.56495">
        <ele>247.6</ele>
        <time>2022-04-03T14:39:17Z</time>
      </trkpt>
      <trkpt lat="47.72424" lon="3.56497">
        <ele>247.6</ele>
        <time>2022-04-03T14:39:19Z</time>
      </trkpt>
      <trkpt lat="47.72425" lon="3.56499">
        <ele>247.6</ele>
        <time>2022-04-03T14:39:20Z</time>
      </trkpt>
      <trkpt lat="47.72425" lon="3.56501">
        <ele>247.6</ele>
        <time>2022-04-03T14:39:21Z</time>
      </trkpt>
      <trkpt lat="47.72426" lon="3.56503">
        <ele>247.6</ele>
        <time>2022-04-03T14:39:22Z</time>
      </trkpt>
      <trkpt lat="47.72426" lon="3.56505">
        <ele>247.5</ele>
        <time>2022-04-03T14:39:23Z</time>
      </trkpt>
      <trkpt lat="47.72427" lon="3.56507">
        <ele>247.5</ele>
        <time>2022-04-03T14:39:24Z</time>
      </trkpt>
      <trkpt lat="47.72428" lon="3.5651">
        <ele>247.5</ele>
        <time>2022-04-03T14:39:25Z</time>
      </trkpt>
      <trkpt lat="47.72428" lon="3.56511">
        <ele>247.5</ele>
        <time>2022-04-03T14:39:26Z</time>
      </trkpt>
      <trkpt lat="47.72428" lon="3.56512">
        <ele>247.5</ele>
        <time>2022-04-03T14:39:27Z</time>
      </trkpt>
      <trkpt lat="47.72429" lon="3.56515">
        <ele>247.5</ele>
        <time>2022-04-03T14:39:28Z</time>
      </trkpt>
      <trkpt lat="47.72429" lon="3.56517">
        <ele>247.5</ele>
        <time>2022-04-03T14:39:29Z</time>
      </trkpt>
      <trkpt lat="47.7243" lon="3.5652">
        <ele>247.5</ele>
        <time>2022-04-03T14:39:30Z</time>
      </trkpt>
      <trkpt lat="47.7243" lon="3.56521">
        <ele>247.5</ele>
        <time>2022-04-03T14:39:31Z</time>
      </trkpt>
      <trkpt lat="47.72431" lon="3.56522">
        <ele>247.5</ele>
        <time>2022-04-03T14:39:32Z</time>
      </trkpt>
      <trkpt lat="47.72431" lon="3.56524">
        <ele>247.4</ele>
        <time>2022-04-03T14:39:33Z</time>
      </trkpt>
      <trkpt lat="47.72432" lon="3.56525">
        <ele>247.4</ele>
        <time>2022-04-03T14:39:34Z</time>
      </trkpt>
      <trkpt lat="47.72433" lon="3.56529">
        <ele>247.4</ele>
        <time>2022-04-03T14:39:35Z</time>
      </trkpt>
      <trkpt lat="47.72434" lon="3.5653">
        <ele>247.4</ele>
        <time>2022-04-03T14:39:37Z</time>
      </trkpt>
      <trkpt lat="47.72435" lon="3.56532">
        <ele>247.4</ele>
        <time>2022-04-03T14:39:38Z</time>
      </trkpt>
      <trkpt lat="47.72435" lon="3.56533">
        <ele>247.4</ele>
        <time>2022-04-03T14:39:39Z</time>
      </trkpt>
      <trkpt lat="47.72436" lon="3.56535">
        <ele>247.4</ele>
        <time>2022-04-03T14:39:40Z</time>
      </trkpt>
      <trkpt lat="47.72437" lon="3.56537">
        <ele>247.4</ele>
        <time>2022-04-03T14:39:41Z</time>
      </trkpt>
      <trkpt lat="47.72437" lon="3.56539">
        <ele>247.4</ele>
        <time>2022-04-03T14:39:43Z</time>
      </trkpt>
      <trkpt lat="47.72437" lon="3.56542">
        <ele>247.4</ele>
        <time>2022-04-03T14:39:44Z</time>
      </trkpt>
      <trkpt lat="47.72438" lon="3.56544">
        <ele>247.3</ele>
        <time>2022-04-03T14:39:45Z</time>
      </trkpt>
      <trkpt lat="47.72438" lon="3.56546">
        <ele>247.3</ele>
        <time>2022-04-03T14:39:46Z</time>
      </trkpt>
      <trkpt lat="47.72438" lon="3.56548">
        <ele>247.3</ele>
        <time>2022-04-03T14:39:47Z</time>
      </trkpt>
      <trkpt lat="47.72439" lon="3.56551">
        <ele>247.3</ele>
        <time>2022-04-03T14:39:48Z</time>
      </trkpt>
      <trkpt lat="47.72439" lon="3.56553">
        <ele>247.3</ele>
        <time>2022-04-03T14:39:49Z</time>
      </trkpt>
      <trkpt lat="47.7244" lon="3.56555">
        <ele>247.3</ele>
        <time>2022-04-03T14:39:50Z</time>
      </trkpt>
      <trkpt lat="47.7244" lon="3.56557">
        <ele>247.3</ele>
        <time>2022-04-03T14:39:51Z</time>
      </trkpt>
      <trkpt lat="47.72441" lon="3.56561">
        <ele>247.3</ele>
        <time>2022-04-03T14:39:53Z</time>
      </trkpt>
      <trkpt lat="47.72441" lon="3.56562">
        <ele>247.3</ele>
        <time>2022-04-03T14:39:54Z</time>
      </trkpt>
      <trkpt lat="47.72441" lon="3.56564">
        <ele>247.3</ele>
        <time>2022-04-03T14:39:55Z</time>
      </trkpt>
      <trkpt lat="47.72442" lon="3.56566">
        <ele>247.2</ele>
        <time>2022-04-03T14:39:56Z</time>
      </trkpt>
      <trkpt lat="47.72442" lon="3.56569">
        <ele>247.2</ele>
        <time>2022-04-03T14:39:57Z</time>
      </trkpt>
      <trkpt lat="47.72442" lon="3.56571">
        <ele>247.2</ele>
        <time>2022-04-03T14:39:58Z</time>
      </trkpt>
      <trkpt lat="47.72443" lon="3.56572">
        <ele>247.2</ele>
        <time>2022-04-03T14:39:59Z</time>
      </trkpt>
      <trkpt lat="47.72444" lon="3.56574">
        <ele>247.2</ele>
        <time>2022-04-03T14:40:00Z</time>
      </trkpt>
      <trkpt lat="47.72444" lon="3.56575">
        <ele>247.2</ele>
        <time>2022-04-03T14:40:01Z</time>
      </trkpt>
      <trkpt lat="47.72445" lon="3.56577">
        <ele>247.2</ele>
        <time>2022-04-03T14:40:02Z</time>
      </trkpt>
      <trkpt lat="47.72445" lon="3.56578">
        <ele>247.2</ele>
        <time>2022-04-03T14:40:03Z</time>
      </trkpt>
      <trkpt lat="47.72446" lon="3.5658">
        <ele>247.2</ele>
        <time>2022-04-03T14:40:05Z</time>
      </trkpt>
      <trkpt lat="47.72447" lon="3.56582">
        <ele>247.1</ele>
        <time>2022-04-03T14:40:06Z</time>
      </trkpt>
      <trkpt lat="47.72448" lon="3.56584">
        <ele>247.1</ele>
        <time>2022-04-03T14:40:07Z</time>
      </trkpt>
      <trkpt lat="47.72449" lon="3.56586">
        <ele>247.1</ele>
        <time>2022-04-03T14:40:08Z</time>
      </trkpt>
      <trkpt lat="47.72449" lon="3.56587">
        <ele>247.1</ele>
        <time>2022-04-03T14:40:09Z</time>
      </trkpt>
      <trkpt lat="47.7245" lon="3.56589">
        <ele>247.1</ele>
        <time>2022-04-03T14:40:10Z</time>
      </trkpt>
      <trkpt lat="47.72451" lon="3.56591">
        <ele>247.1</ele>
        <time>2022-04-03T14:40:11Z</time>
      </trkpt>
      <trkpt lat="47.72451" lon="3.56593">
        <ele>247.1</ele>
        <time>2022-04-03T14:40:12Z</time>
      </trkpt>
      <trkpt lat="47.72451" lon="3.56594">
        <ele>247</ele>
        <time>2022-04-03T14:40:13Z</time>
      </trkpt>
      <trkpt lat="47.72452" lon="3.56596">
        <ele>247</ele>
        <time>2022-04-03T14:40:14Z</time>
      </trkpt>
      <trkpt lat="47.72453" lon="3.56598">
        <ele>247</ele>
        <time>2022-04-03T14:40:16Z</time>
      </trkpt>
      <trkpt lat="47.72453" lon="3.56599">
        <ele>247</ele>
        <time>2022-04-03T14:40:17Z</time>
      </trkpt>
      <trkpt lat="47.72454" lon="3.56601">
        <ele>247</ele>
        <time>2022-04-03T14:40:18Z</time>
      </trkpt>
      <trkpt lat="47.72455" lon="3.56602">
        <ele>247</ele>
        <time>2022-04-03T14:40:19Z</time>
      </trkpt>
      <trkpt lat="47.72456" lon="3.56604">
        <ele>246.9</ele>
        <time>2022-04-03T14:40:20Z</time>
      </trkpt>
      <trkpt lat="47.72457" lon="3.56606">
        <ele>246.9</ele>
        <time>2022-04-03T14:40:21Z</time>
      </trkpt>
      <trkpt lat="47.72458" lon="3.56608">
        <ele>246.9</ele>
        <time>2022-04-03T14:40:22Z</time>
      </trkpt>
      <trkpt lat="47.72459" lon="3.56609">
        <ele>246.9</ele>
        <time>2022-04-03T14:40:23Z</time>
      </trkpt>
      <trkpt lat="47.72459" lon="3.5661">
        <ele>246.9</ele>
        <time>2022-04-03T14:40:24Z</time>
      </trkpt>
      <trkpt lat="47.7246" lon="3.56612">
        <ele>246.8</ele>
        <time>2022-04-03T14:40:25Z</time>
      </trkpt>
      <trkpt lat="47.72461" lon="3.56613">
        <ele>246.8</ele>
        <time>2022-04-03T14:40:27Z</time>
      </trkpt>
      <trkpt lat="47.72462" lon="3.56615">
        <ele>246.8</ele>
        <time>2022-04-03T14:40:28Z</time>
      </trkpt>
      <trkpt lat="47.72463" lon="3.56617">
        <ele>246.8</ele>
        <time>2022-04-03T14:40:29Z</time>
      </trkpt>
      <trkpt lat="47.72463" lon="3.56619">
        <ele>246.8</ele>
        <time>2022-04-03T14:40:30Z</time>
      </trkpt>
      <trkpt lat="47.72464" lon="3.56621">
        <ele>246.7</ele>
        <time>2022-04-03T14:40:31Z</time>
      </trkpt>
      <trkpt lat="47.72465" lon="3.56622">
        <ele>246.7</ele>
        <time>2022-04-03T14:40:32Z</time>
      </trkpt>
      <trkpt lat="47.72466" lon="3.56624">
        <ele>246.7</ele>
        <time>2022-04-03T14:40:33Z</time>
      </trkpt>
      <trkpt lat="47.72467" lon="3.56626">
        <ele>246.7</ele>
        <time>2022-04-03T14:40:35Z</time>
      </trkpt>
      <trkpt lat="47.72468" lon="3.56628">
        <ele>246.7</ele>
        <time>2022-04-03T14:40:36Z</time>
      </trkpt>
      <trkpt lat="47.72469" lon="3.5663">
        <ele>246.6</ele>
        <time>2022-04-03T14:40:37Z</time>
      </trkpt>
      <trkpt lat="47.7247" lon="3.56631">
        <ele>246.6</ele>
        <time>2022-04-03T14:40:38Z</time>
      </trkpt>
      <trkpt lat="47.72472" lon="3.56634">
        <ele>246.6</ele>
        <time>2022-04-03T14:40:39Z</time>
      </trkpt>
      <trkpt lat="47.72472" lon="3.56635">
        <ele>246.6</ele>
        <time>2022-04-03T14:40:40Z</time>
      </trkpt>
      <trkpt lat="47.72473" lon="3.56636">
        <ele>246.5</ele>
        <time>2022-04-03T14:40:41Z</time>
      </trkpt>
      <trkpt lat="47.72474" lon="3.56638">
        <ele>246.5</ele>
        <time>2022-04-03T14:40:42Z</time>
      </trkpt>
      <trkpt lat="47.72475" lon="3.56639">
        <ele>246.5</ele>
        <time>2022-04-03T14:40:43Z</time>
      </trkpt>
      <trkpt lat="47.72476" lon="3.56641">
        <ele>246.5</ele>
        <time>2022-04-03T14:40:44Z</time>
      </trkpt>
      <trkpt lat="47.72478" lon="3.56643">
        <ele>246.4</ele>
        <time>2022-04-03T14:40:46Z</time>
      </trkpt>
      <trkpt lat="47.72479" lon="3.56645">
        <ele>246.4</ele>
        <time>2022-04-03T14:40:47Z</time>
      </trkpt>
      <trkpt lat="47.7248" lon="3.56647">
        <ele>246.4</ele>
        <time>2022-04-03T14:40:48Z</time>
      </trkpt>
      <trkpt lat="47.72481" lon="3.5665">
        <ele>246.4</ele>
        <time>2022-04-03T14:40:49Z</time>
      </trkpt>
      <trkpt lat="47.72482" lon="3.56651">
        <ele>246.3</ele>
        <time>2022-04-03T14:40:50Z</time>
      </trkpt>
      <trkpt lat="47.72482" lon="3.56653">
        <ele>246.3</ele>
        <time>2022-04-03T14:40:51Z</time>
      </trkpt>
      <trkpt lat="47.72483" lon="3.56655">
        <ele>246.3</ele>
        <time>2022-04-03T14:40:52Z</time>
      </trkpt>
      <trkpt lat="47.72484" lon="3.56658">
        <ele>246.3</ele>
        <time>2022-04-03T14:40:54Z</time>
      </trkpt>
      <trkpt lat="47.72484" lon="3.5666">
        <ele>246.3</ele>
        <time>2022-04-03T14:40:55Z</time>
      </trkpt>
      <trkpt lat="47.72485" lon="3.56662">
        <ele>246.2</ele>
        <time>2022-04-03T14:40:56Z</time>
      </trkpt>
      <trkpt lat="47.72485" lon="3.56664">
        <ele>246.2</ele>
        <time>2022-04-03T14:40:57Z</time>
      </trkpt>
      <trkpt lat="47.72486" lon="3.56668">
        <ele>246.2</ele>
        <time>2022-04-03T14:40:58Z</time>
      </trkpt>
      <trkpt lat="47.72486" lon="3.56669">
        <ele>246.2</ele>
        <time>2022-04-03T14:40:59Z</time>
      </trkpt>
      <trkpt lat="47.72487" lon="3.5667">
        <ele>246.2</ele>
        <time>2022-04-03T14:41:00Z</time>
      </trkpt>
      <trkpt lat="47.72487" lon="3.56673">
        <ele>246.2</ele>
        <time>2022-04-03T14:41:01Z</time>
      </trkpt>
      <trkpt lat="47.72488" lon="3.56674">
        <ele>246.2</ele>
        <time>2022-04-03T14:41:02Z</time>
      </trkpt>
      <trkpt lat="47.72488" lon="3.56675">
        <ele>246.1</ele>
        <time>2022-04-03T14:41:03Z</time>
      </trkpt>
      <trkpt lat="47.72488" lon="3.56677">
        <ele>246.1</ele>
        <time>2022-04-03T14:41:04Z</time>
      </trkpt>
      <trkpt lat="47.72488" lon="3.56678">
        <ele>246.1</ele>
        <time>2022-04-03T14:41:06Z</time>
      </trkpt>
      <trkpt lat="47.72489" lon="3.5668">
        <ele>246.1</ele>
        <time>2022-04-03T14:41:07Z</time>
      </trkpt>
      <trkpt lat="47.72489" lon="3.56681">
        <ele>246.1</ele>
        <time>2022-04-03T14:41:08Z</time>
      </trkpt>
      <trkpt lat="47.7249" lon="3.56682">
        <ele>246.1</ele>
        <time>2022-04-03T14:41:09Z</time>
      </trkpt>
      <trkpt lat="47.7249" lon="3.56684">
        <ele>246.1</ele>
        <time>2022-04-03T14:41:10Z</time>
      </trkpt>
      <trkpt lat="47.72491" lon="3.56685">
        <ele>246</ele>
        <time>2022-04-03T14:41:11Z</time>
      </trkpt>
      <trkpt lat="47.72491" lon="3.56687">
        <ele>246</ele>
        <time>2022-04-03T14:41:12Z</time>
      </trkpt>
      <trkpt lat="47.72491" lon="3.56688">
        <ele>246</ele>
        <time>2022-04-03T14:41:13Z</time>
      </trkpt>
      <trkpt lat="47.72492" lon="3.5669">
        <ele>246</ele>
        <time>2022-04-03T14:41:14Z</time>
      </trkpt>
      <trkpt lat="47.72493" lon="3.56691">
        <ele>246</ele>
        <time>2022-04-03T14:41:15Z</time>
      </trkpt>
      <trkpt lat="47.72493" lon="3.56692">
        <ele>246</ele>
        <time>2022-04-03T14:41:16Z</time>
      </trkpt>
      <trkpt lat="47.72494" lon="3.56694">
        <ele>245.9</ele>
        <time>2022-04-03T14:41:17Z</time>
      </trkpt>
      <trkpt lat="47.72495" lon="3.56696">
        <ele>245.9</ele>
        <time>2022-04-03T14:41:19Z</time>
      </trkpt>
      <trkpt lat="47.72496" lon="3.56699">
        <ele>245.9</ele>
        <time>2022-04-03T14:41:20Z</time>
      </trkpt>
      <trkpt lat="47.72496" lon="3.56701">
        <ele>245.8</ele>
        <time>2022-04-03T14:41:22Z</time>
      </trkpt>
      <trkpt lat="47.72497" lon="3.56702">
        <ele>245.8</ele>
        <time>2022-04-03T14:41:23Z</time>
      </trkpt>
      <trkpt lat="47.72498" lon="3.56704">
        <ele>245.8</ele>
        <time>2022-04-03T14:41:24Z</time>
      </trkpt>
      <trkpt lat="47.72499" lon="3.56706">
        <ele>245.8</ele>
        <time>2022-04-03T14:41:25Z</time>
      </trkpt>
      <trkpt lat="47.72499" lon="3.56707">
        <ele>245.7</ele>
        <time>2022-04-03T14:41:26Z</time>
      </trkpt>
      <trkpt lat="47.725" lon="3.56708">
        <ele>245.7</ele>
        <time>2022-04-03T14:41:27Z</time>
      </trkpt>
      <trkpt lat="47.72501" lon="3.56711">
        <ele>245.7</ele>
        <time>2022-04-03T14:41:29Z</time>
      </trkpt>
      <trkpt lat="47.72502" lon="3.56711">
        <ele>245.6</ele>
        <time>2022-04-03T14:41:30Z</time>
      </trkpt>
      <trkpt lat="47.72503" lon="3.56712">
        <ele>245.6</ele>
        <time>2022-04-03T14:41:31Z</time>
      </trkpt>
      <trkpt lat="47.72504" lon="3.56714">
        <ele>245.6</ele>
        <time>2022-04-03T14:41:32Z</time>
      </trkpt>
      <trkpt lat="47.72505" lon="3.56716">
        <ele>245.6</ele>
        <time>2022-04-03T14:41:33Z</time>
      </trkpt>
      <trkpt lat="47.72506" lon="3.56719">
        <ele>245.5</ele>
        <time>2022-04-03T14:41:34Z</time>
      </trkpt>
      <trkpt lat="47.72507" lon="3.56721">
        <ele>245.5</ele>
        <time>2022-04-03T14:41:36Z</time>
      </trkpt>
      <trkpt lat="47.72509" lon="3.56724">
        <ele>245.4</ele>
        <time>2022-04-03T14:41:37Z</time>
      </trkpt>
      <trkpt lat="47.72509" lon="3.56726">
        <ele>245.4</ele>
        <time>2022-04-03T14:41:38Z</time>
      </trkpt>
      <trkpt lat="47.72511" lon="3.56728">
        <ele>245.4</ele>
        <time>2022-04-03T14:41:40Z</time>
      </trkpt>
      <trkpt lat="47.72511" lon="3.56729">
        <ele>245.3</ele>
        <time>2022-04-03T14:41:41Z</time>
      </trkpt>
      <trkpt lat="47.72512" lon="3.56731">
        <ele>245.3</ele>
        <time>2022-04-03T14:41:42Z</time>
      </trkpt>
      <trkpt lat="47.72513" lon="3.56733">
        <ele>245.3</ele>
        <time>2022-04-03T14:41:43Z</time>
      </trkpt>
      <trkpt lat="47.72514" lon="3.56735">
        <ele>245.2</ele>
        <time>2022-04-03T14:41:44Z</time>
      </trkpt>
      <trkpt lat="47.72515" lon="3.56736">
        <ele>245.2</ele>
        <time>2022-04-03T14:41:45Z</time>
      </trkpt>
      <trkpt lat="47.72515" lon="3.56737">
        <ele>245.2</ele>
        <time>2022-04-03T14:41:46Z</time>
      </trkpt>
      <trkpt lat="47.72517" lon="3.5674">
        <ele>245.2</ele>
        <time>2022-04-03T14:41:47Z</time>
      </trkpt>
      <trkpt lat="47.72517" lon="3.5674">
        <ele>245.2</ele>
        <time>2022-04-03T14:41:48Z</time>
      </trkpt>
      <trkpt lat="47.72518" lon="3.56741">
        <ele>245.1</ele>
        <time>2022-04-03T14:41:49Z</time>
      </trkpt>
      <trkpt lat="47.72519" lon="3.56743">
        <ele>245.1</ele>
        <time>2022-04-03T14:41:50Z</time>
      </trkpt>
      <trkpt lat="47.7252" lon="3.56744">
        <ele>245.1</ele>
        <time>2022-04-03T14:41:51Z</time>
      </trkpt>
      <trkpt lat="47.72521" lon="3.56746">
        <ele>245.1</ele>
        <time>2022-04-03T14:41:52Z</time>
      </trkpt>
      <trkpt lat="47.72521" lon="3.56748">
        <ele>245</ele>
        <time>2022-04-03T14:41:53Z</time>
      </trkpt>
      <trkpt lat="47.72523" lon="3.56749">
        <ele>245</ele>
        <time>2022-04-03T14:41:54Z</time>
      </trkpt>
      <trkpt lat="47.72523" lon="3.5675">
        <ele>245</ele>
        <time>2022-04-03T14:41:55Z</time>
      </trkpt>
      <trkpt lat="47.72524" lon="3.56752">
        <ele>245</ele>
        <time>2022-04-03T14:41:56Z</time>
      </trkpt>
      <trkpt lat="47.72525" lon="3.56754">
        <ele>244.9</ele>
        <time>2022-04-03T14:41:58Z</time>
      </trkpt>
      <trkpt lat="47.72526" lon="3.56756">
        <ele>244.9</ele>
        <time>2022-04-03T14:41:59Z</time>
      </trkpt>
      <trkpt lat="47.72527" lon="3.56758">
        <ele>244.9</ele>
        <time>2022-04-03T14:42:00Z</time>
      </trkpt>
      <trkpt lat="47.72527" lon="3.5676">
        <ele>244.8</ele>
        <time>2022-04-03T14:42:01Z</time>
      </trkpt>
      <trkpt lat="47.72528" lon="3.56761">
        <ele>244.8</ele>
        <time>2022-04-03T14:42:02Z</time>
      </trkpt>
      <trkpt lat="47.72529" lon="3.56763">
        <ele>244.8</ele>
        <time>2022-04-03T14:42:03Z</time>
      </trkpt>
      <trkpt lat="47.7253" lon="3.56764">
        <ele>244.7</ele>
        <time>2022-04-03T14:42:04Z</time>
      </trkpt>
      <trkpt lat="47.72531" lon="3.56766">
        <ele>244.7</ele>
        <time>2022-04-03T14:42:06Z</time>
      </trkpt>
      <trkpt lat="47.72532" lon="3.56768">
        <ele>244.7</ele>
        <time>2022-04-03T14:42:07Z</time>
      </trkpt>
      <trkpt lat="47.72533" lon="3.5677">
        <ele>244.6</ele>
        <time>2022-04-03T14:42:08Z</time>
      </trkpt>
      <trkpt lat="47.72534" lon="3.56772">
        <ele>244.6</ele>
        <time>2022-04-03T14:42:09Z</time>
      </trkpt>
      <trkpt lat="47.72535" lon="3.56773">
        <ele>244.6</ele>
        <time>2022-04-03T14:42:10Z</time>
      </trkpt>
      <trkpt lat="47.72535" lon="3.56775">
        <ele>244.5</ele>
        <time>2022-04-03T14:42:11Z</time>
      </trkpt>
      <trkpt lat="47.72536" lon="3.56777">
        <ele>244.5</ele>
        <time>2022-04-03T14:42:12Z</time>
      </trkpt>
      <trkpt lat="47.72537" lon="3.56778">
        <ele>244.5</ele>
        <time>2022-04-03T14:42:13Z</time>
      </trkpt>
      <trkpt lat="47.72538" lon="3.5678">
        <ele>244.4</ele>
        <time>2022-04-03T14:42:15Z</time>
      </trkpt>
      <trkpt lat="47.7254" lon="3.56782">
        <ele>244.4</ele>
        <time>2022-04-03T14:42:16Z</time>
      </trkpt>
      <trkpt lat="47.7254" lon="3.56784">
        <ele>244.3</ele>
        <time>2022-04-03T14:42:17Z</time>
      </trkpt>
      <trkpt lat="47.72541" lon="3.56786">
        <ele>244.3</ele>
        <time>2022-04-03T14:42:18Z</time>
      </trkpt>
      <trkpt lat="47.72542" lon="3.56788">
        <ele>244.2</ele>
        <time>2022-04-03T14:42:19Z</time>
      </trkpt>
      <trkpt lat="47.72543" lon="3.5679">
        <ele>244.2</ele>
        <time>2022-04-03T14:42:20Z</time>
      </trkpt>
      <trkpt lat="47.72544" lon="3.56792">
        <ele>244.1</ele>
        <time>2022-04-03T14:42:21Z</time>
      </trkpt>
      <trkpt lat="47.72546" lon="3.56793">
        <ele>244.1</ele>
        <time>2022-04-03T14:42:22Z</time>
      </trkpt>
      <trkpt lat="47.72547" lon="3.56795">
        <ele>244.1</ele>
        <time>2022-04-03T14:42:23Z</time>
      </trkpt>
      <trkpt lat="47.72548" lon="3.56797">
        <ele>244</ele>
        <time>2022-04-03T14:42:24Z</time>
      </trkpt>
      <trkpt lat="47.72548" lon="3.56799">
        <ele>244</ele>
        <time>2022-04-03T14:42:25Z</time>
      </trkpt>
      <trkpt lat="47.72549" lon="3.568">
        <ele>243.9</ele>
        <time>2022-04-03T14:42:26Z</time>
      </trkpt>
      <trkpt lat="47.7255" lon="3.56802">
        <ele>243.9</ele>
        <time>2022-04-03T14:42:27Z</time>
      </trkpt>
      <trkpt lat="47.72552" lon="3.56805">
        <ele>243.8</ele>
        <time>2022-04-03T14:42:29Z</time>
      </trkpt>
      <trkpt lat="47.72553" lon="3.56806">
        <ele>243.8</ele>
        <time>2022-04-03T14:42:30Z</time>
      </trkpt>
      <trkpt lat="47.72554" lon="3.56807">
        <ele>243.8</ele>
        <time>2022-04-03T14:42:31Z</time>
      </trkpt>
      <trkpt lat="47.72556" lon="3.56809">
        <ele>243.7</ele>
        <time>2022-04-03T14:42:32Z</time>
      </trkpt>
      <trkpt lat="47.72557" lon="3.56811">
        <ele>243.7</ele>
        <time>2022-04-03T14:42:33Z</time>
      </trkpt>
      <trkpt lat="47.72558" lon="3.56812">
        <ele>243.7</ele>
        <time>2022-04-03T14:42:34Z</time>
      </trkpt>
      <trkpt lat="47.72559" lon="3.56814">
        <ele>243.7</ele>
        <time>2022-04-03T14:42:35Z</time>
      </trkpt>
      <trkpt lat="47.7256" lon="3.56815">
        <ele>243.6</ele>
        <time>2022-04-03T14:42:36Z</time>
      </trkpt>
      <trkpt lat="47.72561" lon="3.56817">
        <ele>243.6</ele>
        <time>2022-04-03T14:42:37Z</time>
      </trkpt>
      <trkpt lat="47.72563" lon="3.56818">
        <ele>243.6</ele>
        <time>2022-04-03T14:42:38Z</time>
      </trkpt>
      <trkpt lat="47.72564" lon="3.5682">
        <ele>243.6</ele>
        <time>2022-04-03T14:42:39Z</time>
      </trkpt>
      <trkpt lat="47.72565" lon="3.56821">
        <ele>243.5</ele>
        <time>2022-04-03T14:42:40Z</time>
      </trkpt>
      <trkpt lat="47.72566" lon="3.56824">
        <ele>243.5</ele>
        <time>2022-04-03T14:42:41Z</time>
      </trkpt>
      <trkpt lat="47.72567" lon="3.56825">
        <ele>243.5</ele>
        <time>2022-04-03T14:42:42Z</time>
      </trkpt>
      <trkpt lat="47.72568" lon="3.56826">
        <ele>243.5</ele>
        <time>2022-04-03T14:42:43Z</time>
      </trkpt>
      <trkpt lat="47.72569" lon="3.56828">
        <ele>243.4</ele>
        <time>2022-04-03T14:42:44Z</time>
      </trkpt>
      <trkpt lat="47.7257" lon="3.56829">
        <ele>243.4</ele>
        <time>2022-04-03T14:42:46Z</time>
      </trkpt>
      <trkpt lat="47.72571" lon="3.56831">
        <ele>243.4</ele>
        <time>2022-04-03T14:42:47Z</time>
      </trkpt>
      <trkpt lat="47.72572" lon="3.56833">
        <ele>243.3</ele>
        <time>2022-04-03T14:42:48Z</time>
      </trkpt>
      <trkpt lat="47.72573" lon="3.56835">
        <ele>243.3</ele>
        <time>2022-04-03T14:42:49Z</time>
      </trkpt>
      <trkpt lat="47.72574" lon="3.56836">
        <ele>243.3</ele>
        <time>2022-04-03T14:42:50Z</time>
      </trkpt>
      <trkpt lat="47.72575" lon="3.56838">
        <ele>243.3</ele>
        <time>2022-04-03T14:42:51Z</time>
      </trkpt>
      <trkpt lat="47.72575" lon="3.5684">
        <ele>243.3</ele>
        <time>2022-04-03T14:42:52Z</time>
      </trkpt>
      <trkpt lat="47.72576" lon="3.56841">
        <ele>243.2</ele>
        <time>2022-04-03T14:42:53Z</time>
      </trkpt>
      <trkpt lat="47.72577" lon="3.56842">
        <ele>243.2</ele>
        <time>2022-04-03T14:42:54Z</time>
      </trkpt>
      <trkpt lat="47.72577" lon="3.56843">
        <ele>243.2</ele>
        <time>2022-04-03T14:42:56Z</time>
      </trkpt>
      <trkpt lat="47.72578" lon="3.56845">
        <ele>243.2</ele>
        <time>2022-04-03T14:42:57Z</time>
      </trkpt>
      <trkpt lat="47.72579" lon="3.56847">
        <ele>243.2</ele>
        <time>2022-04-03T14:42:58Z</time>
      </trkpt>
      <trkpt lat="47.7258" lon="3.56848">
        <ele>243.1</ele>
        <time>2022-04-03T14:42:59Z</time>
      </trkpt>
      <trkpt lat="47.72581" lon="3.56849">
        <ele>243.1</ele>
        <time>2022-04-03T14:43:00Z</time>
      </trkpt>
      <trkpt lat="47.72581" lon="3.5685">
        <ele>243.1</ele>
        <time>2022-04-03T14:43:01Z</time>
      </trkpt>
      <trkpt lat="47.72583" lon="3.56852">
        <ele>243.1</ele>
        <time>2022-04-03T14:43:02Z</time>
      </trkpt>
      <trkpt lat="47.72583" lon="3.56853">
        <ele>243.1</ele>
        <time>2022-04-03T14:43:03Z</time>
      </trkpt>
      <trkpt lat="47.72584" lon="3.56853">
        <ele>243</ele>
        <time>2022-04-03T14:43:04Z</time>
      </trkpt>
      <trkpt lat="47.72584" lon="3.56854">
        <ele>243</ele>
        <time>2022-04-03T14:43:05Z</time>
      </trkpt>
      <trkpt lat="47.72585" lon="3.56855">
        <ele>243</ele>
        <time>2022-04-03T14:43:06Z</time>
      </trkpt>
      <trkpt lat="47.72587" lon="3.56856">
        <ele>243</ele>
        <time>2022-04-03T14:43:07Z</time>
      </trkpt>
      <trkpt lat="47.72588" lon="3.56857">
        <ele>243</ele>
        <time>2022-04-03T14:43:09Z</time>
      </trkpt>
      <trkpt lat="47.72589" lon="3.56859">
        <ele>242.9</ele>
        <time>2022-04-03T14:43:10Z</time>
      </trkpt>
      <trkpt lat="47.7259" lon="3.56859">
        <ele>242.9</ele>
        <time>2022-04-03T14:43:11Z</time>
      </trkpt>
      <trkpt lat="47.7259" lon="3.5686">
        <ele>242.9</ele>
        <time>2022-04-03T14:43:12Z</time>
      </trkpt>
      <trkpt lat="47.72592" lon="3.56862">
        <ele>242.9</ele>
        <time>2022-04-03T14:43:13Z</time>
      </trkpt>
      <trkpt lat="47.72593" lon="3.56863">
        <ele>242.9</ele>
        <time>2022-04-03T14:43:14Z</time>
      </trkpt>
      <trkpt lat="47.72593" lon="3.56863">
        <ele>242.8</ele>
        <time>2022-04-03T14:43:15Z</time>
      </trkpt>
      <trkpt lat="47.72595" lon="3.56865">
        <ele>242.8</ele>
        <time>2022-04-03T14:43:16Z</time>
      </trkpt>
      <trkpt lat="47.72596" lon="3.56866">
        <ele>242.8</ele>
        <time>2022-04-03T14:43:17Z</time>
      </trkpt>
      <trkpt lat="47.72596" lon="3.56866">
        <ele>242.8</ele>
        <time>2022-04-03T14:43:18Z</time>
      </trkpt>
      <trkpt lat="47.72597" lon="3.56867">
        <ele>242.8</ele>
        <time>2022-04-03T14:43:19Z</time>
      </trkpt>
      <trkpt lat="47.72598" lon="3.56868">
        <ele>242.7</ele>
        <time>2022-04-03T14:43:20Z</time>
      </trkpt>
      <trkpt lat="47.72599" lon="3.5687">
        <ele>242.7</ele>
        <time>2022-04-03T14:43:21Z</time>
      </trkpt>
      <trkpt lat="47.726" lon="3.56871">
        <ele>242.7</ele>
        <time>2022-04-03T14:43:22Z</time>
      </trkpt>
      <trkpt lat="47.72602" lon="3.56873">
        <ele>242.6</ele>
        <time>2022-04-03T14:43:23Z</time>
      </trkpt>
      <trkpt lat="47.72603" lon="3.56874">
        <ele>242.6</ele>
        <time>2022-04-03T14:43:24Z</time>
      </trkpt>
      <trkpt lat="47.72603" lon="3.56875">
        <ele>242.6</ele>
        <time>2022-04-03T14:43:25Z</time>
      </trkpt>
      <trkpt lat="47.72605" lon="3.56877">
        <ele>242.5</ele>
        <time>2022-04-03T14:43:27Z</time>
      </trkpt>
      <trkpt lat="47.72606" lon="3.56878">
        <ele>242.5</ele>
        <time>2022-04-03T14:43:28Z</time>
      </trkpt>
      <trkpt lat="47.72607" lon="3.5688">
        <ele>242.5</ele>
        <time>2022-04-03T14:43:29Z</time>
      </trkpt>
      <trkpt lat="47.72608" lon="3.56881">
        <ele>242.4</ele>
        <time>2022-04-03T14:43:30Z</time>
      </trkpt>
      <trkpt lat="47.7261" lon="3.56882">
        <ele>242.4</ele>
        <time>2022-04-03T14:43:31Z</time>
      </trkpt>
      <trkpt lat="47.72611" lon="3.56884">
        <ele>242.4</ele>
        <time>2022-04-03T14:43:32Z</time>
      </trkpt>
      <trkpt lat="47.72612" lon="3.56885">
        <ele>242.3</ele>
        <time>2022-04-03T14:43:34Z</time>
      </trkpt>
      <trkpt lat="47.72614" lon="3.56887">
        <ele>242.3</ele>
        <time>2022-04-03T14:43:35Z</time>
      </trkpt>
      <trkpt lat="47.72615" lon="3.56888">
        <ele>242.3</ele>
        <time>2022-04-03T14:43:36Z</time>
      </trkpt>
      <trkpt lat="47.72616" lon="3.56889">
        <ele>242.2</ele>
        <time>2022-04-03T14:43:37Z</time>
      </trkpt>
      <trkpt lat="47.72617" lon="3.56891">
        <ele>242.2</ele>
        <time>2022-04-03T14:43:38Z</time>
      </trkpt>
      <trkpt lat="47.72618" lon="3.56892">
        <ele>242.2</ele>
        <time>2022-04-03T14:43:39Z</time>
      </trkpt>
      <trkpt lat="47.7262" lon="3.56894">
        <ele>242.1</ele>
        <time>2022-04-03T14:43:40Z</time>
      </trkpt>
      <trkpt lat="47.72621" lon="3.56895">
        <ele>242.1</ele>
        <time>2022-04-03T14:43:41Z</time>
      </trkpt>
      <trkpt lat="47.72623" lon="3.56896">
        <ele>242.1</ele>
        <time>2022-04-03T14:43:42Z</time>
      </trkpt>
      <trkpt lat="47.72623" lon="3.56897">
        <ele>242.1</ele>
        <time>2022-04-03T14:43:43Z</time>
      </trkpt>
      <trkpt lat="47.72624" lon="3.56898">
        <ele>242.1</ele>
        <time>2022-04-03T14:43:44Z</time>
      </trkpt>
      <trkpt lat="47.72626" lon="3.56899">
        <ele>242</ele>
        <time>2022-04-03T14:43:45Z</time>
      </trkpt>
      <trkpt lat="47.72627" lon="3.569">
        <ele>242</ele>
        <time>2022-04-03T14:43:46Z</time>
      </trkpt>
      <trkpt lat="47.72628" lon="3.56902">
        <ele>242</ele>
        <time>2022-04-03T14:43:47Z</time>
      </trkpt>
      <trkpt lat="47.72629" lon="3.56903">
        <ele>241.9</ele>
        <time>2022-04-03T14:43:48Z</time>
      </trkpt>
      <trkpt lat="47.72631" lon="3.56905">
        <ele>241.9</ele>
        <time>2022-04-03T14:43:49Z</time>
      </trkpt>
      <trkpt lat="47.72632" lon="3.56906">
        <ele>241.9</ele>
        <time>2022-04-03T14:43:50Z</time>
      </trkpt>
      <trkpt lat="47.72633" lon="3.56907">
        <ele>241.9</ele>
        <time>2022-04-03T14:43:51Z</time>
      </trkpt>
      <trkpt lat="47.72635" lon="3.5691">
        <ele>241.8</ele>
        <time>2022-04-03T14:43:53Z</time>
      </trkpt>
      <trkpt lat="47.72636" lon="3.56911">
        <ele>241.8</ele>
        <time>2022-04-03T14:43:54Z</time>
      </trkpt>
      <trkpt lat="47.72637" lon="3.56912">
        <ele>241.8</ele>
        <time>2022-04-03T14:43:55Z</time>
      </trkpt>
      <trkpt lat="47.72638" lon="3.56913">
        <ele>241.7</ele>
        <time>2022-04-03T14:43:56Z</time>
      </trkpt>
      <trkpt lat="47.7264" lon="3.56916">
        <ele>241.7</ele>
        <time>2022-04-03T14:43:57Z</time>
      </trkpt>
      <trkpt lat="47.72641" lon="3.56917">
        <ele>241.6</ele>
        <time>2022-04-03T14:43:58Z</time>
      </trkpt>
      <trkpt lat="47.72642" lon="3.56917">
        <ele>241.6</ele>
        <time>2022-04-03T14:43:59Z</time>
      </trkpt>
      <trkpt lat="47.72643" lon="3.56919">
        <ele>241.6</ele>
        <time>2022-04-03T14:44:00Z</time>
      </trkpt>
      <trkpt lat="47.72644" lon="3.56921">
        <ele>241.5</ele>
        <time>2022-04-03T14:44:02Z</time>
      </trkpt>
      <trkpt lat="47.72646" lon="3.56922">
        <ele>241.5</ele>
        <time>2022-04-03T14:44:03Z</time>
      </trkpt>
      <trkpt lat="47.72647" lon="3.56924">
        <ele>241.5</ele>
        <time>2022-04-03T14:44:04Z</time>
      </trkpt>
      <trkpt lat="47.72648" lon="3.56925">
        <ele>241.4</ele>
        <time>2022-04-03T14:44:05Z</time>
      </trkpt>
      <trkpt lat="47.72649" lon="3.56927">
        <ele>241.4</ele>
        <time>2022-04-03T14:44:06Z</time>
      </trkpt>
      <trkpt lat="47.7265" lon="3.56931">
        <ele>241.3</ele>
        <time>2022-04-03T14:44:08Z</time>
      </trkpt>
      <trkpt lat="47.72651" lon="3.56932">
        <ele>241.3</ele>
        <time>2022-04-03T14:44:09Z</time>
      </trkpt>
      <trkpt lat="47.72652" lon="3.56933">
        <ele>241.3</ele>
        <time>2022-04-03T14:44:10Z</time>
      </trkpt>
      <trkpt lat="47.72653" lon="3.56935">
        <ele>241.2</ele>
        <time>2022-04-03T14:44:11Z</time>
      </trkpt>
      <trkpt lat="47.72654" lon="3.56937">
        <ele>241.2</ele>
        <time>2022-04-03T14:44:12Z</time>
      </trkpt>
      <trkpt lat="47.72655" lon="3.56939">
        <ele>241.2</ele>
        <time>2022-04-03T14:44:13Z</time>
      </trkpt>
      <trkpt lat="47.72656" lon="3.56942">
        <ele>241.1</ele>
        <time>2022-04-03T14:44:14Z</time>
      </trkpt>
      <trkpt lat="47.72656" lon="3.56943">
        <ele>241.1</ele>
        <time>2022-04-03T14:44:15Z</time>
      </trkpt>
      <trkpt lat="47.72657" lon="3.56945">
        <ele>241</ele>
        <time>2022-04-03T14:44:16Z</time>
      </trkpt>
      <trkpt lat="47.72659" lon="3.56947">
        <ele>241</ele>
        <time>2022-04-03T14:44:17Z</time>
      </trkpt>
      <trkpt lat="47.7266" lon="3.5695">
        <ele>240.9</ele>
        <time>2022-04-03T14:44:18Z</time>
      </trkpt>
      <trkpt lat="47.72661" lon="3.56951">
        <ele>240.9</ele>
        <time>2022-04-03T14:44:19Z</time>
      </trkpt>
      <trkpt lat="47.72662" lon="3.56952">
        <ele>240.9</ele>
        <time>2022-04-03T14:44:20Z</time>
      </trkpt>
      <trkpt lat="47.72663" lon="3.56954">
        <ele>240.8</ele>
        <time>2022-04-03T14:44:21Z</time>
      </trkpt>
      <trkpt lat="47.72664" lon="3.56956">
        <ele>240.8</ele>
        <time>2022-04-03T14:44:23Z</time>
      </trkpt>
      <trkpt lat="47.72665" lon="3.56957">
        <ele>240.8</ele>
        <time>2022-04-03T14:44:24Z</time>
      </trkpt>
      <trkpt lat="47.72666" lon="3.56959">
        <ele>240.7</ele>
        <time>2022-04-03T14:44:25Z</time>
      </trkpt>
      <trkpt lat="47.72667" lon="3.5696">
        <ele>240.7</ele>
        <time>2022-04-03T14:44:26Z</time>
      </trkpt>
      <trkpt lat="47.72668" lon="3.56962">
        <ele>240.6</ele>
        <time>2022-04-03T14:44:27Z</time>
      </trkpt>
      <trkpt lat="47.72668" lon="3.56964">
        <ele>240.6</ele>
        <time>2022-04-03T14:44:28Z</time>
      </trkpt>
      <trkpt lat="47.72669" lon="3.56966">
        <ele>240.5</ele>
        <time>2022-04-03T14:44:29Z</time>
      </trkpt>
      <trkpt lat="47.7267" lon="3.56968">
        <ele>240.5</ele>
        <time>2022-04-03T14:44:30Z</time>
      </trkpt>
      <trkpt lat="47.72671" lon="3.56969">
        <ele>240.4</ele>
        <time>2022-04-03T14:44:31Z</time>
      </trkpt>
      <trkpt lat="47.72672" lon="3.5697">
        <ele>240.4</ele>
        <time>2022-04-03T14:44:32Z</time>
      </trkpt>
      <trkpt lat="47.72672" lon="3.56971">
        <ele>240.4</ele>
        <time>2022-04-03T14:44:33Z</time>
      </trkpt>
      <trkpt lat="47.72673" lon="3.56973">
        <ele>240.3</ele>
        <time>2022-04-03T14:44:34Z</time>
      </trkpt>
      <trkpt lat="47.72674" lon="3.56975">
        <ele>240.3</ele>
        <time>2022-04-03T14:44:35Z</time>
      </trkpt>
      <trkpt lat="47.72675" lon="3.56975">
        <ele>240.3</ele>
        <time>2022-04-03T14:44:36Z</time>
      </trkpt>
      <trkpt lat="47.72675" lon="3.56977">
        <ele>240.2</ele>
        <time>2022-04-03T14:44:37Z</time>
      </trkpt>
      <trkpt lat="47.72676" lon="3.56979">
        <ele>240.2</ele>
        <time>2022-04-03T14:44:38Z</time>
      </trkpt>
      <trkpt lat="47.72677" lon="3.5698">
        <ele>240.1</ele>
        <time>2022-04-03T14:44:40Z</time>
      </trkpt>
      <trkpt lat="47.72677" lon="3.56981">
        <ele>240.1</ele>
        <time>2022-04-03T14:44:41Z</time>
      </trkpt>
      <trkpt lat="47.72678" lon="3.56984">
        <ele>240.1</ele>
        <time>2022-04-03T14:44:42Z</time>
      </trkpt>
      <trkpt lat="47.72679" lon="3.56985">
        <ele>240</ele>
        <time>2022-04-03T14:44:43Z</time>
      </trkpt>
      <trkpt lat="47.72679" lon="3.56986">
        <ele>240</ele>
        <time>2022-04-03T14:44:44Z</time>
      </trkpt>
      <trkpt lat="47.72681" lon="3.56989">
        <ele>240</ele>
        <time>2022-04-03T14:44:45Z</time>
      </trkpt>
      <trkpt lat="47.72682" lon="3.5699">
        <ele>239.9</ele>
        <time>2022-04-03T14:44:46Z</time>
      </trkpt>
      <trkpt lat="47.72682" lon="3.56991">
        <ele>239.9</ele>
        <time>2022-04-03T14:44:47Z</time>
      </trkpt>
      <trkpt lat="47.72683" lon="3.56992">
        <ele>239.9</ele>
        <time>2022-04-03T14:44:48Z</time>
      </trkpt>
      <trkpt lat="47.72683" lon="3.56994">
        <ele>239.8</ele>
        <time>2022-04-03T14:44:49Z</time>
      </trkpt>
      <trkpt lat="47.72684" lon="3.56996">
        <ele>239.8</ele>
        <time>2022-04-03T14:44:50Z</time>
      </trkpt>
      <trkpt lat="47.72685" lon="3.56998">
        <ele>239.8</ele>
        <time>2022-04-03T14:44:51Z</time>
      </trkpt>
      <trkpt lat="47.72685" lon="3.57">
        <ele>239.7</ele>
        <time>2022-04-03T14:44:52Z</time>
      </trkpt>
      <trkpt lat="47.72686" lon="3.57002">
        <ele>239.7</ele>
        <time>2022-04-03T14:44:54Z</time>
      </trkpt>
      <trkpt lat="47.72687" lon="3.57003">
        <ele>239.7</ele>
        <time>2022-04-03T14:44:55Z</time>
      </trkpt>
      <trkpt lat="47.72688" lon="3.57005">
        <ele>239.6</ele>
        <time>2022-04-03T14:44:56Z</time>
      </trkpt>
      <trkpt lat="47.72689" lon="3.57007">
        <ele>239.6</ele>
        <time>2022-04-03T14:44:57Z</time>
      </trkpt>
      <trkpt lat="47.7269" lon="3.5701">
        <ele>239.5</ele>
        <time>2022-04-03T14:44:58Z</time>
      </trkpt>
      <trkpt lat="47.72691" lon="3.57011">
        <ele>239.5</ele>
        <time>2022-04-03T14:44:59Z</time>
      </trkpt>
      <trkpt lat="47.72691" lon="3.57013">
        <ele>239.5</ele>
        <time>2022-04-03T14:45:00Z</time>
      </trkpt>
      <trkpt lat="47.72692" lon="3.57015">
        <ele>239.5</ele>
        <time>2022-04-03T14:45:01Z</time>
      </trkpt>
      <trkpt lat="47.72693" lon="3.57017">
        <ele>239.4</ele>
        <time>2022-04-03T14:45:02Z</time>
      </trkpt>
      <trkpt lat="47.72694" lon="3.57018">
        <ele>239.4</ele>
        <time>2022-04-03T14:45:03Z</time>
      </trkpt>
      <trkpt lat="47.72694" lon="3.5702">
        <ele>239.4</ele>
        <time>2022-04-03T14:45:04Z</time>
      </trkpt>
      <trkpt lat="47.72695" lon="3.57021">
        <ele>239.4</ele>
        <time>2022-04-03T14:45:05Z</time>
      </trkpt>
      <trkpt lat="47.72695" lon="3.57023">
        <ele>239.4</ele>
        <time>2022-04-03T14:45:06Z</time>
      </trkpt>
      <trkpt lat="47.72696" lon="3.57026">
        <ele>239.3</ele>
        <time>2022-04-03T14:45:08Z</time>
      </trkpt>
      <trkpt lat="47.72696" lon="3.57028">
        <ele>239.3</ele>
        <time>2022-04-03T14:45:09Z</time>
      </trkpt>
      <trkpt lat="47.72697" lon="3.5703">
        <ele>239.3</ele>
        <time>2022-04-03T14:45:10Z</time>
      </trkpt>
      <trkpt lat="47.72697" lon="3.57031">
        <ele>239.3</ele>
        <time>2022-04-03T14:45:11Z</time>
      </trkpt>
      <trkpt lat="47.72698" lon="3.57033">
        <ele>239.2</ele>
        <time>2022-04-03T14:45:12Z</time>
      </trkpt>
      <trkpt lat="47.72698" lon="3.57036">
        <ele>239.2</ele>
        <time>2022-04-03T14:45:13Z</time>
      </trkpt>
      <trkpt lat="47.72698" lon="3.57038">
        <ele>239.2</ele>
        <time>2022-04-03T14:45:14Z</time>
      </trkpt>
      <trkpt lat="47.72698" lon="3.57039">
        <ele>239.2</ele>
        <time>2022-04-03T14:45:15Z</time>
      </trkpt>
      <trkpt lat="47.72698" lon="3.5704">
        <ele>239.2</ele>
        <time>2022-04-03T14:45:16Z</time>
      </trkpt>
      <trkpt lat="47.72697" lon="3.57041">
        <ele>239.2</ele>
        <time>2022-04-03T14:45:17Z</time>
      </trkpt>
      <trkpt lat="47.72697" lon="3.57044">
        <ele>239.1</ele>
        <time>2022-04-03T14:45:18Z</time>
      </trkpt>
      <trkpt lat="47.72696" lon="3.57046">
        <ele>239</ele>
        <time>2022-04-03T14:45:20Z</time>
      </trkpt>
      <trkpt lat="47.72696" lon="3.57047">
        <ele>239</ele>
        <time>2022-04-03T14:45:21Z</time>
      </trkpt>
      <trkpt lat="47.72694" lon="3.57049">
        <ele>238.9</ele>
        <time>2022-04-03T14:45:22Z</time>
      </trkpt>
      <trkpt lat="47.72693" lon="3.57049">
        <ele>238.9</ele>
        <time>2022-04-03T14:45:23Z</time>
      </trkpt>
      <trkpt lat="47.72692" lon="3.5705">
        <ele>238.9</ele>
        <time>2022-04-03T14:45:24Z</time>
      </trkpt>
      <trkpt lat="47.7269" lon="3.57049">
        <ele>238.8</ele>
        <time>2022-04-03T14:45:25Z</time>
      </trkpt>
      <trkpt lat="47.72689" lon="3.57049">
        <ele>238.8</ele>
        <time>2022-04-03T14:45:26Z</time>
      </trkpt>
      <trkpt lat="47.72688" lon="3.57049">
        <ele>238.8</ele>
        <time>2022-04-03T14:45:27Z</time>
      </trkpt>
      <trkpt lat="47.72686" lon="3.57049">
        <ele>238.7</ele>
        <time>2022-04-03T14:45:29Z</time>
      </trkpt>
      <trkpt lat="47.72685" lon="3.5705">
        <ele>238.7</ele>
        <time>2022-04-03T14:45:30Z</time>
      </trkpt>
      <trkpt lat="47.72684" lon="3.5705">
        <ele>238.6</ele>
        <time>2022-04-03T14:45:31Z</time>
      </trkpt>
      <trkpt lat="47.72682" lon="3.5705">
        <ele>238.6</ele>
        <time>2022-04-03T14:45:32Z</time>
      </trkpt>
      <trkpt lat="47.72681" lon="3.57051">
        <ele>238.5</ele>
        <time>2022-04-03T14:45:33Z</time>
      </trkpt>
      <trkpt lat="47.72679" lon="3.57051">
        <ele>238.5</ele>
        <time>2022-04-03T14:45:34Z</time>
      </trkpt>
      <trkpt lat="47.72678" lon="3.57052">
        <ele>238.4</ele>
        <time>2022-04-03T14:45:35Z</time>
      </trkpt>
      <trkpt lat="47.72676" lon="3.57053">
        <ele>238.3</ele>
        <time>2022-04-03T14:45:36Z</time>
      </trkpt>
      <trkpt lat="47.72675" lon="3.57054">
        <ele>238.3</ele>
        <time>2022-04-03T14:45:37Z</time>
      </trkpt>
      <trkpt lat="47.72674" lon="3.57054">
        <ele>238.3</ele>
        <time>2022-04-03T14:45:38Z</time>
      </trkpt>
      <trkpt lat="47.72672" lon="3.57055">
        <ele>238.2</ele>
        <time>2022-04-03T14:45:39Z</time>
      </trkpt>
      <trkpt lat="47.72671" lon="3.57056">
        <ele>238.2</ele>
        <time>2022-04-03T14:45:41Z</time>
      </trkpt>
      <trkpt lat="47.7267" lon="3.57056">
        <ele>238.1</ele>
        <time>2022-04-03T14:45:42Z</time>
      </trkpt>
      <trkpt lat="47.72669" lon="3.57057">
        <ele>238.1</ele>
        <time>2022-04-03T14:45:43Z</time>
      </trkpt>
      <trkpt lat="47.72668" lon="3.57057">
        <ele>238</ele>
        <time>2022-04-03T14:45:44Z</time>
      </trkpt>
      <trkpt lat="47.72666" lon="3.57059">
        <ele>237.9</ele>
        <time>2022-04-03T14:45:45Z</time>
      </trkpt>
      <trkpt lat="47.72665" lon="3.5706">
        <ele>237.9</ele>
        <time>2022-04-03T14:45:46Z</time>
      </trkpt>
      <trkpt lat="47.72664" lon="3.5706">
        <ele>237.8</ele>
        <time>2022-04-03T14:45:47Z</time>
      </trkpt>
      <trkpt lat="47.72663" lon="3.57061">
        <ele>237.8</ele>
        <time>2022-04-03T14:45:48Z</time>
      </trkpt>
      <trkpt lat="47.72661" lon="3.57061">
        <ele>237.7</ele>
        <time>2022-04-03T14:45:49Z</time>
      </trkpt>
      <trkpt lat="47.72659" lon="3.57063">
        <ele>237.6</ele>
        <time>2022-04-03T14:45:50Z</time>
      </trkpt>
      <trkpt lat="47.72659" lon="3.57064">
        <ele>237.6</ele>
        <time>2022-04-03T14:45:51Z</time>
      </trkpt>
      <trkpt lat="47.72658" lon="3.57065">
        <ele>237.5</ele>
        <time>2022-04-03T14:45:52Z</time>
      </trkpt>
      <trkpt lat="47.72656" lon="3.57067">
        <ele>237.4</ele>
        <time>2022-04-03T14:45:53Z</time>
      </trkpt>
      <trkpt lat="47.72655" lon="3.57067">
        <ele>237.4</ele>
        <time>2022-04-03T14:45:55Z</time>
      </trkpt>
      <trkpt lat="47.72654" lon="3.57067">
        <ele>237.3</ele>
        <time>2022-04-03T14:45:56Z</time>
      </trkpt>
      <trkpt lat="47.72652" lon="3.57067">
        <ele>237.2</ele>
        <time>2022-04-03T14:45:57Z</time>
      </trkpt>
      <trkpt lat="47.7265" lon="3.57068">
        <ele>237.1</ele>
        <time>2022-04-03T14:45:58Z</time>
      </trkpt>
      <trkpt lat="47.72649" lon="3.57068">
        <ele>237.1</ele>
        <time>2022-04-03T14:45:59Z</time>
      </trkpt>
      <trkpt lat="47.72648" lon="3.57069">
        <ele>237</ele>
        <time>2022-04-03T14:46:00Z</time>
      </trkpt>
      <trkpt lat="47.72646" lon="3.57069">
        <ele>236.9</ele>
        <time>2022-04-03T14:46:01Z</time>
      </trkpt>
      <trkpt lat="47.72645" lon="3.57069">
        <ele>236.9</ele>
        <time>2022-04-03T14:46:02Z</time>
      </trkpt>
      <trkpt lat="47.72645" lon="3.5707">
        <ele>236.8</ele>
        <time>2022-04-03T14:46:04Z</time>
      </trkpt>
      <trkpt lat="47.72644" lon="3.5707">
        <ele>236.8</ele>
        <time>2022-04-03T14:46:05Z</time>
      </trkpt>
      <trkpt lat="47.72643" lon="3.5707">
        <ele>236.7</ele>
        <time>2022-04-03T14:46:06Z</time>
      </trkpt>
      <trkpt lat="47.72642" lon="3.57071">
        <ele>236.7</ele>
        <time>2022-04-03T14:46:07Z</time>
      </trkpt>
      <trkpt lat="47.72641" lon="3.57071">
        <ele>236.6</ele>
        <time>2022-04-03T14:46:08Z</time>
      </trkpt>
      <trkpt lat="47.72639" lon="3.57072">
        <ele>236.5</ele>
        <time>2022-04-03T14:46:09Z</time>
      </trkpt>
      <trkpt lat="47.72639" lon="3.57072">
        <ele>236.5</ele>
        <time>2022-04-03T14:46:10Z</time>
      </trkpt>
      <trkpt lat="47.72638" lon="3.57073">
        <ele>236.4</ele>
        <time>2022-04-03T14:46:11Z</time>
      </trkpt>
      <trkpt lat="47.72637" lon="3.57074">
        <ele>236.3</ele>
        <time>2022-04-03T14:46:12Z</time>
      </trkpt>
      <trkpt lat="47.72635" lon="3.57074">
        <ele>236.3</ele>
        <time>2022-04-03T14:46:13Z</time>
      </trkpt>
      <trkpt lat="47.72634" lon="3.57075">
        <ele>236.2</ele>
        <time>2022-04-03T14:46:14Z</time>
      </trkpt>
      <trkpt lat="47.72634" lon="3.57075">
        <ele>236.2</ele>
        <time>2022-04-03T14:46:15Z</time>
      </trkpt>
      <trkpt lat="47.72633" lon="3.57076">
        <ele>236.1</ele>
        <time>2022-04-03T14:46:16Z</time>
      </trkpt>
      <trkpt lat="47.72632" lon="3.57076">
        <ele>236.1</ele>
        <time>2022-04-03T14:46:17Z</time>
      </trkpt>
      <trkpt lat="47.72631" lon="3.57076">
        <ele>236</ele>
        <time>2022-04-03T14:46:18Z</time>
      </trkpt>
      <trkpt lat="47.7263" lon="3.57076">
        <ele>235.9</ele>
        <time>2022-04-03T14:46:19Z</time>
      </trkpt>
      <trkpt lat="47.72628" lon="3.57076">
        <ele>235.9</ele>
        <time>2022-04-03T14:46:21Z</time>
      </trkpt>
      <trkpt lat="47.72627" lon="3.57076">
        <ele>235.8</ele>
        <time>2022-04-03T14:46:22Z</time>
      </trkpt>
      <trkpt lat="47.72626" lon="3.57077">
        <ele>235.7</ele>
        <time>2022-04-03T14:46:23Z</time>
      </trkpt>
      <trkpt lat="47.72624" lon="3.57078">
        <ele>235.6</ele>
        <time>2022-04-03T14:46:24Z</time>
      </trkpt>
      <trkpt lat="47.72623" lon="3.57079">
        <ele>235.5</ele>
        <time>2022-04-03T14:46:25Z</time>
      </trkpt>
      <trkpt lat="47.72622" lon="3.5708">
        <ele>235.4</ele>
        <time>2022-04-03T14:46:26Z</time>
      </trkpt>
      <trkpt lat="47.7262" lon="3.57082">
        <ele>235.3</ele>
        <time>2022-04-03T14:46:27Z</time>
      </trkpt>
      <trkpt lat="47.72619" lon="3.57083">
        <ele>235.3</ele>
        <time>2022-04-03T14:46:28Z</time>
      </trkpt>
      <trkpt lat="47.72619" lon="3.57084">
        <ele>235.2</ele>
        <time>2022-04-03T14:46:29Z</time>
      </trkpt>
      <trkpt lat="47.72618" lon="3.57085">
        <ele>235.1</ele>
        <time>2022-04-03T14:46:31Z</time>
      </trkpt>
      <trkpt lat="47.72617" lon="3.57087">
        <ele>235.1</ele>
        <time>2022-04-03T14:46:32Z</time>
      </trkpt>
      <trkpt lat="47.72617" lon="3.57089">
        <ele>234.9</ele>
        <time>2022-04-03T14:46:33Z</time>
      </trkpt>
      <trkpt lat="47.72617" lon="3.5709">
        <ele>234.8</ele>
        <time>2022-04-03T14:46:34Z</time>
      </trkpt>
      <trkpt lat="47.72617" lon="3.57093">
        <ele>234.7</ele>
        <time>2022-04-03T14:46:35Z</time>
      </trkpt>
      <trkpt lat="47.72618" lon="3.57095">
        <ele>234.7</ele>
        <time>2022-04-03T14:46:37Z</time>
      </trkpt>
      <trkpt lat="47.72618" lon="3.57097">
        <ele>234.6</ele>
        <time>2022-04-03T14:46:38Z</time>
      </trkpt>
      <trkpt lat="47.72619" lon="3.57099">
        <ele>234.5</ele>
        <time>2022-04-03T14:46:39Z</time>
      </trkpt>
      <trkpt lat="47.7262" lon="3.57101">
        <ele>234.5</ele>
        <time>2022-04-03T14:46:40Z</time>
      </trkpt>
      <trkpt lat="47.72621" lon="3.57103">
        <ele>234.4</ele>
        <time>2022-04-03T14:46:41Z</time>
      </trkpt>
      <trkpt lat="47.72622" lon="3.57105">
        <ele>234.4</ele>
        <time>2022-04-03T14:46:42Z</time>
      </trkpt>
      <trkpt lat="47.72623" lon="3.57107">
        <ele>234.3</ele>
        <time>2022-04-03T14:46:44Z</time>
      </trkpt>
      <trkpt lat="47.72624" lon="3.57108">
        <ele>234.3</ele>
        <time>2022-04-03T14:46:45Z</time>
      </trkpt>
      <trkpt lat="47.72625" lon="3.5711">
        <ele>234.2</ele>
        <time>2022-04-03T14:46:46Z</time>
      </trkpt>
      <trkpt lat="47.72626" lon="3.57113">
        <ele>234.1</ele>
        <time>2022-04-03T14:46:47Z</time>
      </trkpt>
      <trkpt lat="47.72626" lon="3.57114">
        <ele>234.1</ele>
        <time>2022-04-03T14:46:48Z</time>
      </trkpt>
      <trkpt lat="47.72627" lon="3.57116">
        <ele>234</ele>
        <time>2022-04-03T14:46:49Z</time>
      </trkpt>
      <trkpt lat="47.72628" lon="3.57118">
        <ele>234</ele>
        <time>2022-04-03T14:46:50Z</time>
      </trkpt>
      <trkpt lat="47.72628" lon="3.5712">
        <ele>233.9</ele>
        <time>2022-04-03T14:46:51Z</time>
      </trkpt>
      <trkpt lat="47.72629" lon="3.57122">
        <ele>233.9</ele>
        <time>2022-04-03T14:46:52Z</time>
      </trkpt>
      <trkpt lat="47.72629" lon="3.57124">
        <ele>233.8</ele>
        <time>2022-04-03T14:46:53Z</time>
      </trkpt>
      <trkpt lat="47.7263" lon="3.57125">
        <ele>233.8</ele>
        <time>2022-04-03T14:46:54Z</time>
      </trkpt>
      <trkpt lat="47.72631" lon="3.57129">
        <ele>233.7</ele>
        <time>2022-04-03T14:46:56Z</time>
      </trkpt>
      <trkpt lat="47.72631" lon="3.5713">
        <ele>233.7</ele>
        <time>2022-04-03T14:46:57Z</time>
      </trkpt>
      <trkpt lat="47.72631" lon="3.57132">
        <ele>233.6</ele>
        <time>2022-04-03T14:46:58Z</time>
      </trkpt>
      <trkpt lat="47.72632" lon="3.57134">
        <ele>233.6</ele>
        <time>2022-04-03T14:46:59Z</time>
      </trkpt>
      <trkpt lat="47.72633" lon="3.57137">
        <ele>233.5</ele>
        <time>2022-04-03T14:47:00Z</time>
      </trkpt>
      <trkpt lat="47.72634" lon="3.57139">
        <ele>233.5</ele>
        <time>2022-04-03T14:47:02Z</time>
      </trkpt>
      <trkpt lat="47.72634" lon="3.5714">
        <ele>233.4</ele>
        <time>2022-04-03T14:47:03Z</time>
      </trkpt>
      <trkpt lat="47.72635" lon="3.57142">
        <ele>233.4</ele>
        <time>2022-04-03T14:47:04Z</time>
      </trkpt>
      <trkpt lat="47.72635" lon="3.57143">
        <ele>233.4</ele>
        <time>2022-04-03T14:47:05Z</time>
      </trkpt>
      <trkpt lat="47.72636" lon="3.57146">
        <ele>233.3</ele>
        <time>2022-04-03T14:47:06Z</time>
      </trkpt>
      <trkpt lat="47.72636" lon="3.57147">
        <ele>233.3</ele>
        <time>2022-04-03T14:47:07Z</time>
      </trkpt>
      <trkpt lat="47.72637" lon="3.57148">
        <ele>233.3</ele>
        <time>2022-04-03T14:47:08Z</time>
      </trkpt>
      <trkpt lat="47.72637" lon="3.5715">
        <ele>233.2</ele>
        <time>2022-04-03T14:47:09Z</time>
      </trkpt>
      <trkpt lat="47.72638" lon="3.57153">
        <ele>233.2</ele>
        <time>2022-04-03T14:47:10Z</time>
      </trkpt>
      <trkpt lat="47.72638" lon="3.57154">
        <ele>233.1</ele>
        <time>2022-04-03T14:47:11Z</time>
      </trkpt>
      <trkpt lat="47.72639" lon="3.57156">
        <ele>233.1</ele>
        <time>2022-04-03T14:47:12Z</time>
      </trkpt>
      <trkpt lat="47.72639" lon="3.57157">
        <ele>233.1</ele>
        <time>2022-04-03T14:47:13Z</time>
      </trkpt>
      <trkpt lat="47.7264" lon="3.57159">
        <ele>233</ele>
        <time>2022-04-03T14:47:15Z</time>
      </trkpt>
      <trkpt lat="47.7264" lon="3.57162">
        <ele>233</ele>
        <time>2022-04-03T14:47:16Z</time>
      </trkpt>
      <trkpt lat="47.72641" lon="3.57164">
        <ele>232.9</ele>
        <time>2022-04-03T14:47:17Z</time>
      </trkpt>
      <trkpt lat="47.72642" lon="3.57166">
        <ele>232.9</ele>
        <time>2022-04-03T14:47:18Z</time>
      </trkpt>
      <trkpt lat="47.72642" lon="3.57167">
        <ele>232.9</ele>
        <time>2022-04-03T14:47:19Z</time>
      </trkpt>
      <trkpt lat="47.72643" lon="3.57169">
        <ele>232.8</ele>
        <time>2022-04-03T14:47:20Z</time>
      </trkpt>
      <trkpt lat="47.72643" lon="3.57171">
        <ele>232.8</ele>
        <time>2022-04-03T14:47:21Z</time>
      </trkpt>
      <trkpt lat="47.72644" lon="3.57172">
        <ele>232.7</ele>
        <time>2022-04-03T14:47:22Z</time>
      </trkpt>
      <trkpt lat="47.72644" lon="3.57174">
        <ele>232.7</ele>
        <time>2022-04-03T14:47:23Z</time>
      </trkpt>
      <trkpt lat="47.72645" lon="3.57176">
        <ele>232.6</ele>
        <time>2022-04-03T14:47:24Z</time>
      </trkpt>
      <trkpt lat="47.72646" lon="3.57179">
        <ele>232.6</ele>
        <time>2022-04-03T14:47:25Z</time>
      </trkpt>
      <trkpt lat="47.72646" lon="3.5718">
        <ele>232.5</ele>
        <time>2022-04-03T14:47:26Z</time>
      </trkpt>
      <trkpt lat="47.72646" lon="3.57182">
        <ele>232.5</ele>
        <time>2022-04-03T14:47:27Z</time>
      </trkpt>
      <trkpt lat="47.72646" lon="3.57183">
        <ele>232.5</ele>
        <time>2022-04-03T14:47:28Z</time>
      </trkpt>
      <trkpt lat="47.72647" lon="3.57184">
        <ele>232.4</ele>
        <time>2022-04-03T14:47:29Z</time>
      </trkpt>
      <trkpt lat="47.72647" lon="3.57186">
        <ele>232.4</ele>
        <time>2022-04-03T14:47:30Z</time>
      </trkpt>
      <trkpt lat="47.72647" lon="3.5719">
        <ele>232.3</ele>
        <time>2022-04-03T14:47:32Z</time>
      </trkpt>
      <trkpt lat="47.72648" lon="3.57191">
        <ele>232.3</ele>
        <time>2022-04-03T14:47:33Z</time>
      </trkpt>
      <trkpt lat="47.72648" lon="3.57192">
        <ele>232.3</ele>
        <time>2022-04-03T14:47:34Z</time>
      </trkpt>
      <trkpt lat="47.72648" lon="3.57194">
        <ele>232.3</ele>
        <time>2022-04-03T14:47:35Z</time>
      </trkpt>
      <trkpt lat="47.72649" lon="3.57196">
        <ele>232.2</ele>
        <time>2022-04-03T14:47:36Z</time>
      </trkpt>
      <trkpt lat="47.72649" lon="3.57198">
        <ele>232.2</ele>
        <time>2022-04-03T14:47:37Z</time>
      </trkpt>
      <trkpt lat="47.7265" lon="3.57199">
        <ele>232.2</ele>
        <time>2022-04-03T14:47:38Z</time>
      </trkpt>
      <trkpt lat="47.7265" lon="3.572">
        <ele>232.1</ele>
        <time>2022-04-03T14:47:39Z</time>
      </trkpt>
      <trkpt lat="47.72651" lon="3.57203">
        <ele>232.1</ele>
        <time>2022-04-03T14:47:40Z</time>
      </trkpt>
      <trkpt lat="47.72651" lon="3.57205">
        <ele>232</ele>
        <time>2022-04-03T14:47:41Z</time>
      </trkpt>
      <trkpt lat="47.72652" lon="3.57206">
        <ele>232</ele>
        <time>2022-04-03T14:47:42Z</time>
      </trkpt>
      <trkpt lat="47.72652" lon="3.57208">
        <ele>232</ele>
        <time>2022-04-03T14:47:43Z</time>
      </trkpt>
      <trkpt lat="47.72653" lon="3.5721">
        <ele>231.9</ele>
        <time>2022-04-03T14:47:44Z</time>
      </trkpt>
      <trkpt lat="47.72653" lon="3.57212">
        <ele>231.9</ele>
        <time>2022-04-03T14:47:45Z</time>
      </trkpt>
      <trkpt lat="47.72654" lon="3.57214">
        <ele>231.8</ele>
        <time>2022-04-03T14:47:46Z</time>
      </trkpt>
      <trkpt lat="47.72654" lon="3.57215">
        <ele>231.8</ele>
        <time>2022-04-03T14:47:47Z</time>
      </trkpt>
      <trkpt lat="47.72654" lon="3.57217">
        <ele>231.7</ele>
        <time>2022-04-03T14:47:48Z</time>
      </trkpt>
      <trkpt lat="47.72655" lon="3.57218">
        <ele>231.7</ele>
        <time>2022-04-03T14:47:49Z</time>
      </trkpt>
      <trkpt lat="47.72655" lon="3.5722">
        <ele>231.7</ele>
        <time>2022-04-03T14:47:50Z</time>
      </trkpt>
      <trkpt lat="47.72655" lon="3.57221">
        <ele>231.6</ele>
        <time>2022-04-03T14:47:51Z</time>
      </trkpt>
      <trkpt lat="47.72655" lon="3.57223">
        <ele>231.6</ele>
        <time>2022-04-03T14:47:53Z</time>
      </trkpt>
      <trkpt lat="47.72656" lon="3.57227">
        <ele>231.5</ele>
        <time>2022-04-03T14:47:54Z</time>
      </trkpt>
      <trkpt lat="47.72656" lon="3.57228">
        <ele>231.5</ele>
        <time>2022-04-03T14:47:55Z</time>
      </trkpt>
      <trkpt lat="47.72656" lon="3.57229">
        <ele>231.4</ele>
        <time>2022-04-03T14:47:56Z</time>
      </trkpt>
      <trkpt lat="47.72657" lon="3.57231">
        <ele>231.4</ele>
        <time>2022-04-03T14:47:57Z</time>
      </trkpt>
      <trkpt lat="47.72657" lon="3.57233">
        <ele>231.3</ele>
        <time>2022-04-03T14:47:58Z</time>
      </trkpt>
      <trkpt lat="47.72657" lon="3.57235">
        <ele>231.2</ele>
        <time>2022-04-03T14:48:00Z</time>
      </trkpt>
      <trkpt lat="47.72658" lon="3.57237">
        <ele>231.2</ele>
        <time>2022-04-03T14:48:01Z</time>
      </trkpt>
      <trkpt lat="47.72659" lon="3.5724">
        <ele>231.1</ele>
        <time>2022-04-03T14:48:02Z</time>
      </trkpt>
      <trkpt lat="47.72659" lon="3.57241">
        <ele>231</ele>
        <time>2022-04-03T14:48:03Z</time>
      </trkpt>
      <trkpt lat="47.7266" lon="3.57243">
        <ele>231</ele>
        <time>2022-04-03T14:48:04Z</time>
      </trkpt>
      <trkpt lat="47.72661" lon="3.57246">
        <ele>230.9</ele>
        <time>2022-04-03T14:48:05Z</time>
      </trkpt>
      <trkpt lat="47.72661" lon="3.57247">
        <ele>230.8</ele>
        <time>2022-04-03T14:48:06Z</time>
      </trkpt>
      <trkpt lat="47.72661" lon="3.57248">
        <ele>230.8</ele>
        <time>2022-04-03T14:48:07Z</time>
      </trkpt>
      <trkpt lat="47.72661" lon="3.5725">
        <ele>230.7</ele>
        <time>2022-04-03T14:48:08Z</time>
      </trkpt>
      <trkpt lat="47.72662" lon="3.57251">
        <ele>230.7</ele>
        <time>2022-04-03T14:48:09Z</time>
      </trkpt>
      <trkpt lat="47.72662" lon="3.57254">
        <ele>230.6</ele>
        <time>2022-04-03T14:48:11Z</time>
      </trkpt>
      <trkpt lat="47.72663" lon="3.57256">
        <ele>230.5</ele>
        <time>2022-04-03T14:48:12Z</time>
      </trkpt>
      <trkpt lat="47.72663" lon="3.57258">
        <ele>230.4</ele>
        <time>2022-04-03T14:48:13Z</time>
      </trkpt>
      <trkpt lat="47.72663" lon="3.57261">
        <ele>230.3</ele>
        <time>2022-04-03T14:48:14Z</time>
      </trkpt>
      <trkpt lat="47.72663" lon="3.57264">
        <ele>230.2</ele>
        <time>2022-04-03T14:48:15Z</time>
      </trkpt>
      <trkpt lat="47.72663" lon="3.57266">
        <ele>230.1</ele>
        <time>2022-04-03T14:48:16Z</time>
      </trkpt>
      <trkpt lat="47.72664" lon="3.57268">
        <ele>230.1</ele>
        <time>2022-04-03T14:48:17Z</time>
      </trkpt>
      <trkpt lat="47.72664" lon="3.57271">
        <ele>230</ele>
        <time>2022-04-03T14:48:18Z</time>
      </trkpt>
      <trkpt lat="47.72664" lon="3.57273">
        <ele>229.9</ele>
        <time>2022-04-03T14:48:20Z</time>
      </trkpt>
      <trkpt lat="47.72664" lon="3.57275">
        <ele>229.9</ele>
        <time>2022-04-03T14:48:21Z</time>
      </trkpt>
      <trkpt lat="47.72664" lon="3.57277">
        <ele>229.8</ele>
        <time>2022-04-03T14:48:22Z</time>
      </trkpt>
      <trkpt lat="47.72664" lon="3.5728">
        <ele>229.7</ele>
        <time>2022-04-03T14:48:23Z</time>
      </trkpt>
      <trkpt lat="47.72664" lon="3.57282">
        <ele>229.6</ele>
        <time>2022-04-03T14:48:24Z</time>
      </trkpt>
      <trkpt lat="47.72664" lon="3.57284">
        <ele>229.6</ele>
        <time>2022-04-03T14:48:25Z</time>
      </trkpt>
      <trkpt lat="47.72664" lon="3.57286">
        <ele>229.5</ele>
        <time>2022-04-03T14:48:26Z</time>
      </trkpt>
      <trkpt lat="47.72664" lon="3.57289">
        <ele>229.4</ele>
        <time>2022-04-03T14:48:27Z</time>
      </trkpt>
      <trkpt lat="47.72664" lon="3.57292">
        <ele>229.3</ele>
        <time>2022-04-03T14:48:29Z</time>
      </trkpt>
      <trkpt lat="47.72664" lon="3.57293">
        <ele>229.3</ele>
        <time>2022-04-03T14:48:30Z</time>
      </trkpt>
      <trkpt lat="47.72664" lon="3.57295">
        <ele>229.2</ele>
        <time>2022-04-03T14:48:31Z</time>
      </trkpt>
      <trkpt lat="47.72664" lon="3.57297">
        <ele>229.1</ele>
        <time>2022-04-03T14:48:32Z</time>
      </trkpt>
      <trkpt lat="47.72664" lon="3.57299">
        <ele>229.1</ele>
        <time>2022-04-03T14:48:33Z</time>
      </trkpt>
      <trkpt lat="47.72663" lon="3.57301">
        <ele>229</ele>
        <time>2022-04-03T14:48:34Z</time>
      </trkpt>
      <trkpt lat="47.72663" lon="3.57303">
        <ele>228.9</ele>
        <time>2022-04-03T14:48:35Z</time>
      </trkpt>
      <trkpt lat="47.72663" lon="3.57305">
        <ele>228.9</ele>
        <time>2022-04-03T14:48:36Z</time>
      </trkpt>
      <trkpt lat="47.72663" lon="3.57306">
        <ele>228.8</ele>
        <time>2022-04-03T14:48:37Z</time>
      </trkpt>
      <trkpt lat="47.72663" lon="3.57307">
        <ele>228.8</ele>
        <time>2022-04-03T14:48:38Z</time>
      </trkpt>
      <trkpt lat="47.72662" lon="3.57309">
        <ele>228.7</ele>
        <time>2022-04-03T14:48:39Z</time>
      </trkpt>
      <trkpt lat="47.72662" lon="3.57312">
        <ele>228.6</ele>
        <time>2022-04-03T14:48:41Z</time>
      </trkpt>
      <trkpt lat="47.72662" lon="3.57313">
        <ele>228.6</ele>
        <time>2022-04-03T14:48:42Z</time>
      </trkpt>
      <trkpt lat="47.72661" lon="3.57315">
        <ele>228.5</ele>
        <time>2022-04-03T14:48:43Z</time>
      </trkpt>
      <trkpt lat="47.72661" lon="3.57317">
        <ele>228.5</ele>
        <time>2022-04-03T14:48:44Z</time>
      </trkpt>
      <trkpt lat="47.72662" lon="3.57319">
        <ele>228.4</ele>
        <time>2022-04-03T14:48:45Z</time>
      </trkpt>
      <trkpt lat="47.72662" lon="3.57321">
        <ele>228.3</ele>
        <time>2022-04-03T14:48:47Z</time>
      </trkpt>
      <trkpt lat="47.72662" lon="3.57322">
        <ele>228.3</ele>
        <time>2022-04-03T14:48:48Z</time>
      </trkpt>
      <trkpt lat="47.72662" lon="3.57325">
        <ele>228.2</ele>
        <time>2022-04-03T14:48:49Z</time>
      </trkpt>
      <trkpt lat="47.72662" lon="3.57326">
        <ele>228.2</ele>
        <time>2022-04-03T14:48:50Z</time>
      </trkpt>
      <trkpt lat="47.72663" lon="3.57328">
        <ele>228.1</ele>
        <time>2022-04-03T14:48:51Z</time>
      </trkpt>
      <trkpt lat="47.72663" lon="3.5733">
        <ele>228.1</ele>
        <time>2022-04-03T14:48:52Z</time>
      </trkpt>
      <trkpt lat="47.72663" lon="3.57331">
        <ele>228</ele>
        <time>2022-04-03T14:48:53Z</time>
      </trkpt>
      <trkpt lat="47.72663" lon="3.57334">
        <ele>228</ele>
        <time>2022-04-03T14:48:55Z</time>
      </trkpt>
      <trkpt lat="47.72663" lon="3.57337">
        <ele>227.9</ele>
        <time>2022-04-03T14:48:56Z</time>
      </trkpt>
      <trkpt lat="47.72663" lon="3.57338">
        <ele>227.8</ele>
        <time>2022-04-03T14:48:57Z</time>
      </trkpt>
      <trkpt lat="47.72663" lon="3.57341">
        <ele>227.8</ele>
        <time>2022-04-03T14:48:58Z</time>
      </trkpt>
      <trkpt lat="47.72663" lon="3.57343">
        <ele>227.7</ele>
        <time>2022-04-03T14:48:59Z</time>
      </trkpt>
      <trkpt lat="47.72663" lon="3.57344">
        <ele>227.7</ele>
        <time>2022-04-03T14:49:00Z</time>
      </trkpt>
      <trkpt lat="47.72663" lon="3.57346">
        <ele>227.7</ele>
        <time>2022-04-03T14:49:01Z</time>
      </trkpt>
      <trkpt lat="47.72663" lon="3.57348">
        <ele>227.6</ele>
        <time>2022-04-03T14:49:02Z</time>
      </trkpt>
      <trkpt lat="47.72663" lon="3.5735">
        <ele>227.6</ele>
        <time>2022-04-03T14:49:03Z</time>
      </trkpt>
      <trkpt lat="47.72663" lon="3.57352">
        <ele>227.6</ele>
        <time>2022-04-03T14:49:04Z</time>
      </trkpt>
      <trkpt lat="47.72663" lon="3.57353">
        <ele>227.5</ele>
        <time>2022-04-03T14:49:06Z</time>
      </trkpt>
      <trkpt lat="47.72664" lon="3.57357">
        <ele>227.4</ele>
        <time>2022-04-03T14:49:07Z</time>
      </trkpt>
      <trkpt lat="47.72664" lon="3.57358">
        <ele>227.4</ele>
        <time>2022-04-03T14:49:08Z</time>
      </trkpt>
      <trkpt lat="47.72664" lon="3.57359">
        <ele>227.4</ele>
        <time>2022-04-03T14:49:09Z</time>
      </trkpt>
      <trkpt lat="47.72664" lon="3.57361">
        <ele>227.4</ele>
        <time>2022-04-03T14:49:10Z</time>
      </trkpt>
      <trkpt lat="47.72664" lon="3.57363">
        <ele>227.3</ele>
        <time>2022-04-03T14:49:11Z</time>
      </trkpt>
      <trkpt lat="47.72664" lon="3.57364">
        <ele>227.3</ele>
        <time>2022-04-03T14:49:12Z</time>
      </trkpt>
      <trkpt lat="47.72664" lon="3.57366">
        <ele>227.2</ele>
        <time>2022-04-03T14:49:13Z</time>
      </trkpt>
      <trkpt lat="47.72664" lon="3.57368">
        <ele>227.2</ele>
        <time>2022-04-03T14:49:14Z</time>
      </trkpt>
      <trkpt lat="47.72665" lon="3.57372">
        <ele>227.1</ele>
        <time>2022-04-03T14:49:15Z</time>
      </trkpt>
      <trkpt lat="47.72665" lon="3.57373">
        <ele>227.1</ele>
        <time>2022-04-03T14:49:16Z</time>
      </trkpt>
      <trkpt lat="47.72665" lon="3.57374">
        <ele>227</ele>
        <time>2022-04-03T14:49:17Z</time>
      </trkpt>
      <trkpt lat="47.72664" lon="3.57378">
        <ele>227</ele>
        <time>2022-04-03T14:49:18Z</time>
      </trkpt>
      <trkpt lat="47.72664" lon="3.57379">
        <ele>226.9</ele>
        <time>2022-04-03T14:49:19Z</time>
      </trkpt>
      <trkpt lat="47.72664" lon="3.5738">
        <ele>226.9</ele>
        <time>2022-04-03T14:49:20Z</time>
      </trkpt>
      <trkpt lat="47.72664" lon="3.57382">
        <ele>226.9</ele>
        <time>2022-04-03T14:49:21Z</time>
      </trkpt>
      <trkpt lat="47.72664" lon="3.57384">
        <ele>226.8</ele>
        <time>2022-04-03T14:49:22Z</time>
      </trkpt>
      <trkpt lat="47.72664" lon="3.57386">
        <ele>226.8</ele>
        <time>2022-04-03T14:49:24Z</time>
      </trkpt>
      <trkpt lat="47.72665" lon="3.57387">
        <ele>226.7</ele>
        <time>2022-04-03T14:49:25Z</time>
      </trkpt>
      <trkpt lat="47.72665" lon="3.57389">
        <ele>226.7</ele>
        <time>2022-04-03T14:49:26Z</time>
      </trkpt>
      <trkpt lat="47.72665" lon="3.57391">
        <ele>226.6</ele>
        <time>2022-04-03T14:49:27Z</time>
      </trkpt>
      <trkpt lat="47.72665" lon="3.57394">
        <ele>226.6</ele>
        <time>2022-04-03T14:49:28Z</time>
      </trkpt>
      <trkpt lat="47.72665" lon="3.57396">
        <ele>226.5</ele>
        <time>2022-04-03T14:49:29Z</time>
      </trkpt>
      <trkpt lat="47.72666" lon="3.57398">
        <ele>226.5</ele>
        <time>2022-04-03T14:49:30Z</time>
      </trkpt>
      <trkpt lat="47.72666" lon="3.57401">
        <ele>226.4</ele>
        <time>2022-04-03T14:49:31Z</time>
      </trkpt>
      <trkpt lat="47.72666" lon="3.57402">
        <ele>226.4</ele>
        <time>2022-04-03T14:49:32Z</time>
      </trkpt>
      <trkpt lat="47.72666" lon="3.57404">
        <ele>226.3</ele>
        <time>2022-04-03T14:49:33Z</time>
      </trkpt>
    </trkseg>
  </trk>
</gpx>